<?xml version="1.0" encoding="UTF-8" standalone="no" ?>
<gpx xmlns="http://www.topografix.com/GPX/1/1" xmlns:xsi="http://www.w3.org/2001/XMLSchema-instance" xsi:schemaLocation="http://www.topografix.com/GPX/1/1 http://www.topografix.com/GPX/1/1/gpx.xsd" version="1.1" creator="VisuGPX - https://www.visugpx.com">
  <metadata>
    <name>Circuit Kerfaven</name>
    <desc><![CDATA[Circuit facile sur plouguerneau]]></desc>
  </metadata>
  <trk>
    <name><![CDATA[lannebeeur]]></name>
    <trkseg>
      <trkpt lat="48.57429" lon="-4.48209">
        <ele>14.7</ele>
        <time>2011-04-05T15:06:31Z</time>
      </trkpt>
      <trkpt lat="48.57429" lon="-4.48209">
        <ele>14.7</ele>
        <time>2011-04-05T15:06:42Z</time>
      </trkpt>
      <trkpt lat="48.57416" lon="-4.48174">
        <ele>11.1</ele>
        <time>2011-04-05T15:06:43Z</time>
      </trkpt>
      <trkpt lat="48.57416" lon="-4.48172">
        <ele>11</ele>
        <time>2011-04-05T15:06:44Z</time>
      </trkpt>
      <trkpt lat="48.57415" lon="-4.4817">
        <ele>10.5</ele>
        <time>2011-04-05T15:06:46Z</time>
      </trkpt>
      <trkpt lat="48.57414" lon="-4.48169">
        <ele>10.3</ele>
        <time>2011-04-05T15:06:47Z</time>
      </trkpt>
      <trkpt lat="48.57414" lon="-4.48169">
        <ele>10.3</ele>
        <time>2011-04-05T15:06:56Z</time>
      </trkpt>
      <trkpt lat="48.57403" lon="-4.4815">
        <ele>8</ele>
        <time>2011-04-05T15:06:57Z</time>
      </trkpt>
      <trkpt lat="48.57403" lon="-4.48148">
        <ele>7.1</ele>
        <time>2011-04-05T15:06:58Z</time>
      </trkpt>
      <trkpt lat="48.57402" lon="-4.48147">
        <ele>7.2</ele>
        <time>2011-04-05T15:06:59Z</time>
      </trkpt>
      <trkpt lat="48.57401" lon="-4.48145">
        <ele>7.5</ele>
        <time>2011-04-05T15:07:01Z</time>
      </trkpt>
      <trkpt lat="48.574" lon="-4.48143">
        <ele>7</ele>
        <time>2011-04-05T15:07:01Z</time>
      </trkpt>
      <trkpt lat="48.57399" lon="-4.48141">
        <ele>6.6</ele>
        <time>2011-04-05T15:07:02Z</time>
      </trkpt>
      <trkpt lat="48.57398" lon="-4.48139">
        <ele>6.2</ele>
        <time>2011-04-05T15:07:04Z</time>
      </trkpt>
      <trkpt lat="48.57398" lon="-4.48139">
        <ele>6.2</ele>
        <time>2011-04-05T15:07:06Z</time>
      </trkpt>
      <trkpt lat="48.57395" lon="-4.48135">
        <ele>7.5</ele>
        <time>2011-04-05T15:07:06Z</time>
      </trkpt>
      <trkpt lat="48.57394" lon="-4.48133">
        <ele>7.9</ele>
        <time>2011-04-05T15:07:07Z</time>
      </trkpt>
      <trkpt lat="48.57392" lon="-4.48132">
        <ele>7.2</ele>
        <time>2011-04-05T15:07:08Z</time>
      </trkpt>
      <trkpt lat="48.57391" lon="-4.4813">
        <ele>6.9</ele>
        <time>2011-04-05T15:07:09Z</time>
      </trkpt>
      <trkpt lat="48.5739" lon="-4.48129">
        <ele>7</ele>
        <time>2011-04-05T15:07:11Z</time>
      </trkpt>
      <trkpt lat="48.57389" lon="-4.48127">
        <ele>7.2</ele>
        <time>2011-04-05T15:07:11Z</time>
      </trkpt>
      <trkpt lat="48.57389" lon="-4.48125">
        <ele>6.6</ele>
        <time>2011-04-05T15:07:12Z</time>
      </trkpt>
      <trkpt lat="48.57388" lon="-4.48123">
        <ele>6.2</ele>
        <time>2011-04-05T15:07:14Z</time>
      </trkpt>
      <trkpt lat="48.57388" lon="-4.48123">
        <ele>6.2</ele>
        <time>2011-04-05T15:07:17Z</time>
      </trkpt>
      <trkpt lat="48.57388" lon="-4.48115">
        <ele>5.4</ele>
        <time>2011-04-05T15:07:18Z</time>
      </trkpt>
      <trkpt lat="48.57387" lon="-4.48112">
        <ele>5.7</ele>
        <time>2011-04-05T15:07:19Z</time>
      </trkpt>
      <trkpt lat="48.57387" lon="-4.48111">
        <ele>5.7</ele>
        <time>2011-04-05T15:07:21Z</time>
      </trkpt>
      <trkpt lat="48.57387" lon="-4.48111">
        <ele>5.7</ele>
        <time>2011-04-05T15:07:21Z</time>
      </trkpt>
      <trkpt lat="48.57388" lon="-4.4811">
        <ele>6.2</ele>
        <time>2011-04-05T15:07:22Z</time>
      </trkpt>
      <trkpt lat="48.57388" lon="-4.4811">
        <ele>6.2</ele>
        <time>2011-04-05T15:07:22Z</time>
      </trkpt>
      <trkpt lat="48.57389" lon="-4.48106">
        <ele>6.5</ele>
        <time>2011-04-05T15:07:23Z</time>
      </trkpt>
      <trkpt lat="48.5739" lon="-4.48104">
        <ele>6.7</ele>
        <time>2011-04-05T15:07:24Z</time>
      </trkpt>
      <trkpt lat="48.5739" lon="-4.48102">
        <ele>6.7</ele>
        <time>2011-04-05T15:07:26Z</time>
      </trkpt>
      <trkpt lat="48.5739" lon="-4.481">
        <ele>6.4</ele>
        <time>2011-04-05T15:07:26Z</time>
      </trkpt>
      <trkpt lat="48.57391" lon="-4.48098">
        <ele>6.5</ele>
        <time>2011-04-05T15:07:27Z</time>
      </trkpt>
      <trkpt lat="48.57391" lon="-4.48096">
        <ele>6.7</ele>
        <time>2011-04-05T15:07:28Z</time>
      </trkpt>
      <trkpt lat="48.57392" lon="-4.48094">
        <ele>6.8</ele>
        <time>2011-04-05T15:07:29Z</time>
      </trkpt>
      <trkpt lat="48.57392" lon="-4.48091">
        <ele>7.4</ele>
        <time>2011-04-05T15:07:31Z</time>
      </trkpt>
      <trkpt lat="48.57392" lon="-4.48089">
        <ele>7.8</ele>
        <time>2011-04-05T15:07:31Z</time>
      </trkpt>
      <trkpt lat="48.57392" lon="-4.48087">
        <ele>8</ele>
        <time>2011-04-05T15:07:32Z</time>
      </trkpt>
      <trkpt lat="48.57392" lon="-4.48085">
        <ele>7.9</ele>
        <time>2011-04-05T15:07:33Z</time>
      </trkpt>
      <trkpt lat="48.57393" lon="-4.48083">
        <ele>7.6</ele>
        <time>2011-04-05T15:07:34Z</time>
      </trkpt>
      <trkpt lat="48.57393" lon="-4.48081">
        <ele>7.6</ele>
        <time>2011-04-05T15:07:36Z</time>
      </trkpt>
      <trkpt lat="48.57394" lon="-4.48079">
        <ele>7.6</ele>
        <time>2011-04-05T15:07:36Z</time>
      </trkpt>
      <trkpt lat="48.57394" lon="-4.48078">
        <ele>7.7</ele>
        <time>2011-04-05T15:07:37Z</time>
      </trkpt>
      <trkpt lat="48.57394" lon="-4.48075">
        <ele>7.9</ele>
        <time>2011-04-05T15:07:38Z</time>
      </trkpt>
      <trkpt lat="48.57394" lon="-4.48074">
        <ele>7.8</ele>
        <time>2011-04-05T15:07:39Z</time>
      </trkpt>
      <trkpt lat="48.57395" lon="-4.48071">
        <ele>8.1</ele>
        <time>2011-04-05T15:07:41Z</time>
      </trkpt>
      <trkpt lat="48.57395" lon="-4.48069">
        <ele>8.5</ele>
        <time>2011-04-05T15:07:41Z</time>
      </trkpt>
      <trkpt lat="48.57396" lon="-4.48067">
        <ele>9.6</ele>
        <time>2011-04-05T15:07:42Z</time>
      </trkpt>
      <trkpt lat="48.57396" lon="-4.48066">
        <ele>10.6</ele>
        <time>2011-04-05T15:07:43Z</time>
      </trkpt>
      <trkpt lat="48.57396" lon="-4.48064">
        <ele>11.2</ele>
        <time>2011-04-05T15:07:45Z</time>
      </trkpt>
      <trkpt lat="48.57396" lon="-4.48064">
        <ele>11.2</ele>
        <time>2011-04-05T15:07:51Z</time>
      </trkpt>
      <trkpt lat="48.57398" lon="-4.48054">
        <ele>14.1</ele>
        <time>2011-04-05T15:07:52Z</time>
      </trkpt>
      <trkpt lat="48.57398" lon="-4.48052">
        <ele>14.7</ele>
        <time>2011-04-05T15:07:52Z</time>
      </trkpt>
      <trkpt lat="48.57398" lon="-4.4805">
        <ele>14.6</ele>
        <time>2011-04-05T15:07:53Z</time>
      </trkpt>
      <trkpt lat="48.57398" lon="-4.48048">
        <ele>15.4</ele>
        <time>2011-04-05T15:07:54Z</time>
      </trkpt>
      <trkpt lat="48.57398" lon="-4.48045">
        <ele>15.8</ele>
        <time>2011-04-05T15:07:56Z</time>
      </trkpt>
      <trkpt lat="48.57398" lon="-4.48043">
        <ele>16.2</ele>
        <time>2011-04-05T15:07:57Z</time>
      </trkpt>
      <trkpt lat="48.57398" lon="-4.48041">
        <ele>16.4</ele>
        <time>2011-04-05T15:07:57Z</time>
      </trkpt>
      <trkpt lat="48.57398" lon="-4.48039">
        <ele>16.6</ele>
        <time>2011-04-05T15:07:58Z</time>
      </trkpt>
      <trkpt lat="48.57399" lon="-4.48037">
        <ele>17</ele>
        <time>2011-04-05T15:07:59Z</time>
      </trkpt>
      <trkpt lat="48.57398" lon="-4.48035">
        <ele>17.3</ele>
        <time>2011-04-05T15:08:01Z</time>
      </trkpt>
      <trkpt lat="48.57398" lon="-4.48033">
        <ele>17.9</ele>
        <time>2011-04-05T15:08:01Z</time>
      </trkpt>
      <trkpt lat="48.57399" lon="-4.48032">
        <ele>18.6</ele>
        <time>2011-04-05T15:08:02Z</time>
      </trkpt>
      <trkpt lat="48.57399" lon="-4.4803">
        <ele>19.4</ele>
        <time>2011-04-05T15:08:04Z</time>
      </trkpt>
      <trkpt lat="48.57399" lon="-4.4803">
        <ele>19.4</ele>
        <time>2011-04-05T15:08:04Z</time>
      </trkpt>
      <trkpt lat="48.574" lon="-4.48026">
        <ele>19.9</ele>
        <time>2011-04-05T15:08:06Z</time>
      </trkpt>
      <trkpt lat="48.574" lon="-4.48024">
        <ele>20.1</ele>
        <time>2011-04-05T15:08:06Z</time>
      </trkpt>
      <trkpt lat="48.574" lon="-4.48022">
        <ele>20.2</ele>
        <time>2011-04-05T15:08:07Z</time>
      </trkpt>
      <trkpt lat="48.574" lon="-4.48021">
        <ele>20.1</ele>
        <time>2011-04-05T15:08:08Z</time>
      </trkpt>
      <trkpt lat="48.57401" lon="-4.48019">
        <ele>20</ele>
        <time>2011-04-05T15:08:09Z</time>
      </trkpt>
      <trkpt lat="48.57401" lon="-4.48017">
        <ele>19.8</ele>
        <time>2011-04-05T15:08:11Z</time>
      </trkpt>
      <trkpt lat="48.57402" lon="-4.48017">
        <ele>19.7</ele>
        <time>2011-04-05T15:08:12Z</time>
      </trkpt>
      <trkpt lat="48.57404" lon="-4.48017">
        <ele>20.1</ele>
        <time>2011-04-05T15:08:13Z</time>
      </trkpt>
      <trkpt lat="48.57405" lon="-4.48017">
        <ele>20.2</ele>
        <time>2011-04-05T15:08:14Z</time>
      </trkpt>
      <trkpt lat="48.57406" lon="-4.48018">
        <ele>20.6</ele>
        <time>2011-04-05T15:08:15Z</time>
      </trkpt>
      <trkpt lat="48.57407" lon="-4.48018">
        <ele>20.9</ele>
        <time>2011-04-05T15:08:16Z</time>
      </trkpt>
      <trkpt lat="48.57408" lon="-4.48018">
        <ele>20.5</ele>
        <time>2011-04-05T15:08:17Z</time>
      </trkpt>
      <trkpt lat="48.57409" lon="-4.48017">
        <ele>20.7</ele>
        <time>2011-04-05T15:08:18Z</time>
      </trkpt>
      <trkpt lat="48.57411" lon="-4.48016">
        <ele>20.8</ele>
        <time>2011-04-05T15:08:19Z</time>
      </trkpt>
      <trkpt lat="48.57412" lon="-4.48016">
        <ele>20.8</ele>
        <time>2011-04-05T15:08:20Z</time>
      </trkpt>
      <trkpt lat="48.57413" lon="-4.48015">
        <ele>21.1</ele>
        <time>2011-04-05T15:08:21Z</time>
      </trkpt>
      <trkpt lat="48.57414" lon="-4.48015">
        <ele>21.3</ele>
        <time>2011-04-05T15:08:22Z</time>
      </trkpt>
      <trkpt lat="48.57415" lon="-4.48014">
        <ele>21.8</ele>
        <time>2011-04-05T15:08:23Z</time>
      </trkpt>
      <trkpt lat="48.57415" lon="-4.48014">
        <ele>21.8</ele>
        <time>2011-04-05T15:08:29Z</time>
      </trkpt>
      <trkpt lat="48.57421" lon="-4.48003">
        <ele>25.1</ele>
        <time>2011-04-05T15:08:31Z</time>
      </trkpt>
      <trkpt lat="48.57421" lon="-4.48001">
        <ele>25.5</ele>
        <time>2011-04-05T15:08:32Z</time>
      </trkpt>
      <trkpt lat="48.57421" lon="-4.47999">
        <ele>25.7</ele>
        <time>2011-04-05T15:08:33Z</time>
      </trkpt>
      <trkpt lat="48.57421" lon="-4.47998">
        <ele>25.9</ele>
        <time>2011-04-05T15:08:34Z</time>
      </trkpt>
      <trkpt lat="48.57421" lon="-4.47996">
        <ele>26.2</ele>
        <time>2011-04-05T15:08:35Z</time>
      </trkpt>
      <trkpt lat="48.57421" lon="-4.47994">
        <ele>26.3</ele>
        <time>2011-04-05T15:08:36Z</time>
      </trkpt>
      <trkpt lat="48.57421" lon="-4.47992">
        <ele>26.5</ele>
        <time>2011-04-05T15:08:37Z</time>
      </trkpt>
      <trkpt lat="48.5742" lon="-4.47989">
        <ele>26.8</ele>
        <time>2011-04-05T15:08:38Z</time>
      </trkpt>
      <trkpt lat="48.5742" lon="-4.47987">
        <ele>27.1</ele>
        <time>2011-04-05T15:08:39Z</time>
      </trkpt>
      <trkpt lat="48.5742" lon="-4.47985">
        <ele>27.3</ele>
        <time>2011-04-05T15:08:40Z</time>
      </trkpt>
      <trkpt lat="48.57419" lon="-4.47983">
        <ele>27.4</ele>
        <time>2011-04-05T15:08:41Z</time>
      </trkpt>
      <trkpt lat="48.57419" lon="-4.47981">
        <ele>27.6</ele>
        <time>2011-04-05T15:08:42Z</time>
      </trkpt>
      <trkpt lat="48.57419" lon="-4.47979">
        <ele>27.7</ele>
        <time>2011-04-05T15:08:43Z</time>
      </trkpt>
      <trkpt lat="48.57419" lon="-4.47977">
        <ele>27.9</ele>
        <time>2011-04-05T15:08:44Z</time>
      </trkpt>
      <trkpt lat="48.57419" lon="-4.47976">
        <ele>27.9</ele>
        <time>2011-04-05T15:08:45Z</time>
      </trkpt>
      <trkpt lat="48.57419" lon="-4.47975">
        <ele>28</ele>
        <time>2011-04-05T15:08:46Z</time>
      </trkpt>
      <trkpt lat="48.57419" lon="-4.47975">
        <ele>28</ele>
        <time>2011-04-05T15:09:06Z</time>
      </trkpt>
      <trkpt lat="48.57414" lon="-4.4795">
        <ele>23.1</ele>
        <time>2011-04-05T15:09:07Z</time>
      </trkpt>
      <trkpt lat="48.57414" lon="-4.47948">
        <ele>23.2</ele>
        <time>2011-04-05T15:09:08Z</time>
      </trkpt>
      <trkpt lat="48.57413" lon="-4.47946">
        <ele>23.4</ele>
        <time>2011-04-05T15:09:09Z</time>
      </trkpt>
      <trkpt lat="48.57412" lon="-4.47945">
        <ele>23.6</ele>
        <time>2011-04-05T15:09:11Z</time>
      </trkpt>
      <trkpt lat="48.57412" lon="-4.47945">
        <ele>23.6</ele>
        <time>2011-04-05T15:09:12Z</time>
      </trkpt>
      <trkpt lat="48.57411" lon="-4.47943">
        <ele>23.1</ele>
        <time>2011-04-05T15:09:13Z</time>
      </trkpt>
      <trkpt lat="48.5741" lon="-4.47942">
        <ele>22.7</ele>
        <time>2011-04-05T15:09:14Z</time>
      </trkpt>
      <trkpt lat="48.57409" lon="-4.4794">
        <ele>22.8</ele>
        <time>2011-04-05T15:09:15Z</time>
      </trkpt>
      <trkpt lat="48.57409" lon="-4.47938">
        <ele>22.9</ele>
        <time>2011-04-05T15:09:16Z</time>
      </trkpt>
      <trkpt lat="48.57408" lon="-4.47937">
        <ele>22.6</ele>
        <time>2011-04-05T15:09:17Z</time>
      </trkpt>
      <trkpt lat="48.57407" lon="-4.47935">
        <ele>22.9</ele>
        <time>2011-04-05T15:09:18Z</time>
      </trkpt>
      <trkpt lat="48.57406" lon="-4.47933">
        <ele>22.8</ele>
        <time>2011-04-05T15:09:19Z</time>
      </trkpt>
      <trkpt lat="48.57406" lon="-4.47931">
        <ele>22.5</ele>
        <time>2011-04-05T15:09:20Z</time>
      </trkpt>
      <trkpt lat="48.57405" lon="-4.47929">
        <ele>22.7</ele>
        <time>2011-04-05T15:09:21Z</time>
      </trkpt>
      <trkpt lat="48.57405" lon="-4.47927">
        <ele>22.8</ele>
        <time>2011-04-05T15:09:22Z</time>
      </trkpt>
      <trkpt lat="48.57404" lon="-4.47925">
        <ele>22.8</ele>
        <time>2011-04-05T15:09:23Z</time>
      </trkpt>
      <trkpt lat="48.57403" lon="-4.47923">
        <ele>22.9</ele>
        <time>2011-04-05T15:09:24Z</time>
      </trkpt>
      <trkpt lat="48.57402" lon="-4.47921">
        <ele>23.4</ele>
        <time>2011-04-05T15:09:25Z</time>
      </trkpt>
      <trkpt lat="48.57402" lon="-4.47919">
        <ele>23</ele>
        <time>2011-04-05T15:09:26Z</time>
      </trkpt>
      <trkpt lat="48.574" lon="-4.47916">
        <ele>22.5</ele>
        <time>2011-04-05T15:09:27Z</time>
      </trkpt>
      <trkpt lat="48.57399" lon="-4.47912">
        <ele>22.3</ele>
        <time>2011-04-05T15:09:28Z</time>
      </trkpt>
      <trkpt lat="48.57398" lon="-4.47911">
        <ele>23.1</ele>
        <time>2011-04-05T15:09:29Z</time>
      </trkpt>
      <trkpt lat="48.57398" lon="-4.47908">
        <ele>23</ele>
        <time>2011-04-05T15:09:30Z</time>
      </trkpt>
      <trkpt lat="48.57398" lon="-4.47906">
        <ele>22.6</ele>
        <time>2011-04-05T15:09:30Z</time>
      </trkpt>
      <trkpt lat="48.57398" lon="-4.47905">
        <ele>22.2</ele>
        <time>2011-04-05T15:09:32Z</time>
      </trkpt>
      <trkpt lat="48.57396" lon="-4.47902">
        <ele>21.6</ele>
        <time>2011-04-05T15:09:33Z</time>
      </trkpt>
      <trkpt lat="48.57395" lon="-4.479">
        <ele>21.4</ele>
        <time>2011-04-05T15:09:34Z</time>
      </trkpt>
      <trkpt lat="48.57394" lon="-4.47898">
        <ele>21</ele>
        <time>2011-04-05T15:09:35Z</time>
      </trkpt>
      <trkpt lat="48.57393" lon="-4.47897">
        <ele>21.1</ele>
        <time>2011-04-05T15:09:36Z</time>
      </trkpt>
      <trkpt lat="48.57391" lon="-4.47894">
        <ele>21.3</ele>
        <time>2011-04-05T15:09:37Z</time>
      </trkpt>
      <trkpt lat="48.57391" lon="-4.47892">
        <ele>22</ele>
        <time>2011-04-05T15:09:38Z</time>
      </trkpt>
      <trkpt lat="48.57391" lon="-4.47892">
        <ele>22</ele>
        <time>2011-04-05T15:09:39Z</time>
      </trkpt>
      <trkpt lat="48.57389" lon="-4.4789">
        <ele>22.8</ele>
        <time>2011-04-05T15:09:40Z</time>
      </trkpt>
      <trkpt lat="48.57388" lon="-4.47888">
        <ele>22.4</ele>
        <time>2011-04-05T15:09:41Z</time>
      </trkpt>
      <trkpt lat="48.57388" lon="-4.47886">
        <ele>22.4</ele>
        <time>2011-04-05T15:09:42Z</time>
      </trkpt>
      <trkpt lat="48.57387" lon="-4.47883">
        <ele>22.6</ele>
        <time>2011-04-05T15:09:43Z</time>
      </trkpt>
      <trkpt lat="48.57385" lon="-4.47882">
        <ele>23.1</ele>
        <time>2011-04-05T15:09:44Z</time>
      </trkpt>
      <trkpt lat="48.57384" lon="-4.4788">
        <ele>24.3</ele>
        <time>2011-04-05T15:09:45Z</time>
      </trkpt>
      <trkpt lat="48.57383" lon="-4.47879">
        <ele>24.8</ele>
        <time>2011-04-05T15:09:46Z</time>
      </trkpt>
      <trkpt lat="48.57383" lon="-4.47878">
        <ele>24.5</ele>
        <time>2011-04-05T15:09:47Z</time>
      </trkpt>
      <trkpt lat="48.57381" lon="-4.47877">
        <ele>24.6</ele>
        <time>2011-04-05T15:09:48Z</time>
      </trkpt>
      <trkpt lat="48.5738" lon="-4.47875">
        <ele>24.7</ele>
        <time>2011-04-05T15:09:49Z</time>
      </trkpt>
      <trkpt lat="48.57379" lon="-4.47873">
        <ele>24.5</ele>
        <time>2011-04-05T15:09:50Z</time>
      </trkpt>
      <trkpt lat="48.57378" lon="-4.47871">
        <ele>24.3</ele>
        <time>2011-04-05T15:09:51Z</time>
      </trkpt>
      <trkpt lat="48.57377" lon="-4.4787">
        <ele>24.2</ele>
        <time>2011-04-05T15:09:52Z</time>
      </trkpt>
      <trkpt lat="48.57376" lon="-4.47869">
        <ele>23.8</ele>
        <time>2011-04-05T15:09:53Z</time>
      </trkpt>
      <trkpt lat="48.57375" lon="-4.47867">
        <ele>24</ele>
        <time>2011-04-05T15:09:54Z</time>
      </trkpt>
      <trkpt lat="48.57375" lon="-4.47867">
        <ele>24</ele>
        <time>2011-04-05T15:09:56Z</time>
      </trkpt>
      <trkpt lat="48.57372" lon="-4.47862">
        <ele>25.2</ele>
        <time>2011-04-05T15:09:57Z</time>
      </trkpt>
      <trkpt lat="48.57371" lon="-4.4786">
        <ele>25.6</ele>
        <time>2011-04-05T15:09:58Z</time>
      </trkpt>
      <trkpt lat="48.57369" lon="-4.47858">
        <ele>25.7</ele>
        <time>2011-04-05T15:09:59Z</time>
      </trkpt>
      <trkpt lat="48.57368" lon="-4.47856">
        <ele>26</ele>
        <time>2011-04-05T15:10:00Z</time>
      </trkpt>
      <trkpt lat="48.57367" lon="-4.47855">
        <ele>26.2</ele>
        <time>2011-04-05T15:10:01Z</time>
      </trkpt>
      <trkpt lat="48.57366" lon="-4.47852">
        <ele>26.9</ele>
        <time>2011-04-05T15:10:02Z</time>
      </trkpt>
      <trkpt lat="48.57365" lon="-4.47851">
        <ele>27.4</ele>
        <time>2011-04-05T15:10:03Z</time>
      </trkpt>
      <trkpt lat="48.57364" lon="-4.47849">
        <ele>27.5</ele>
        <time>2011-04-05T15:10:04Z</time>
      </trkpt>
      <trkpt lat="48.57363" lon="-4.47848">
        <ele>27.6</ele>
        <time>2011-04-05T15:10:05Z</time>
      </trkpt>
      <trkpt lat="48.57362" lon="-4.47846">
        <ele>27.4</ele>
        <time>2011-04-05T15:10:06Z</time>
      </trkpt>
      <trkpt lat="48.57361" lon="-4.47843">
        <ele>26.6</ele>
        <time>2011-04-05T15:10:07Z</time>
      </trkpt>
      <trkpt lat="48.57359" lon="-4.47841">
        <ele>26.7</ele>
        <time>2011-04-05T15:10:08Z</time>
      </trkpt>
      <trkpt lat="48.57359" lon="-4.4784">
        <ele>26.6</ele>
        <time>2011-04-05T15:10:09Z</time>
      </trkpt>
      <trkpt lat="48.57358" lon="-4.47839">
        <ele>26.6</ele>
        <time>2011-04-05T15:10:10Z</time>
      </trkpt>
      <trkpt lat="48.57358" lon="-4.47839">
        <ele>26.6</ele>
        <time>2011-04-05T15:10:12Z</time>
      </trkpt>
      <trkpt lat="48.57357" lon="-4.47834">
        <ele>24.6</ele>
        <time>2011-04-05T15:10:13Z</time>
      </trkpt>
      <trkpt lat="48.57356" lon="-4.47832">
        <ele>24.1</ele>
        <time>2011-04-05T15:10:15Z</time>
      </trkpt>
      <trkpt lat="48.57356" lon="-4.47831">
        <ele>23.3</ele>
        <time>2011-04-05T15:10:16Z</time>
      </trkpt>
      <trkpt lat="48.57355" lon="-4.47829">
        <ele>23</ele>
        <time>2011-04-05T15:10:16Z</time>
      </trkpt>
      <trkpt lat="48.57355" lon="-4.47827">
        <ele>22.4</ele>
        <time>2011-04-05T15:10:18Z</time>
      </trkpt>
      <trkpt lat="48.57354" lon="-4.47825">
        <ele>22.6</ele>
        <time>2011-04-05T15:10:19Z</time>
      </trkpt>
      <trkpt lat="48.57353" lon="-4.47823">
        <ele>22.6</ele>
        <time>2011-04-05T15:10:20Z</time>
      </trkpt>
      <trkpt lat="48.57352" lon="-4.47821">
        <ele>22.6</ele>
        <time>2011-04-05T15:10:21Z</time>
      </trkpt>
      <trkpt lat="48.57351" lon="-4.47819">
        <ele>22.8</ele>
        <time>2011-04-05T15:10:23Z</time>
      </trkpt>
      <trkpt lat="48.5735" lon="-4.47818">
        <ele>23.4</ele>
        <time>2011-04-05T15:10:23Z</time>
      </trkpt>
      <trkpt lat="48.57349" lon="-4.47816">
        <ele>23.6</ele>
        <time>2011-04-05T15:10:24Z</time>
      </trkpt>
      <trkpt lat="48.57348" lon="-4.47814">
        <ele>23.6</ele>
        <time>2011-04-05T15:10:24Z</time>
      </trkpt>
      <trkpt lat="48.57347" lon="-4.47812">
        <ele>23.7</ele>
        <time>2011-04-05T15:10:25Z</time>
      </trkpt>
      <trkpt lat="48.57346" lon="-4.4781">
        <ele>23.6</ele>
        <time>2011-04-05T15:10:26Z</time>
      </trkpt>
      <trkpt lat="48.57346" lon="-4.47808">
        <ele>23.4</ele>
        <time>2011-04-05T15:10:27Z</time>
      </trkpt>
      <trkpt lat="48.57344" lon="-4.47806">
        <ele>23.3</ele>
        <time>2011-04-05T15:10:28Z</time>
      </trkpt>
      <trkpt lat="48.57344" lon="-4.47804">
        <ele>23</ele>
        <time>2011-04-05T15:10:29Z</time>
      </trkpt>
      <trkpt lat="48.57343" lon="-4.47802">
        <ele>22.9</ele>
        <time>2011-04-05T15:10:30Z</time>
      </trkpt>
      <trkpt lat="48.57341" lon="-4.47801">
        <ele>23.3</ele>
        <time>2011-04-05T15:10:31Z</time>
      </trkpt>
      <trkpt lat="48.5734" lon="-4.47799">
        <ele>24</ele>
        <time>2011-04-05T15:10:32Z</time>
      </trkpt>
      <trkpt lat="48.57339" lon="-4.47798">
        <ele>24.7</ele>
        <time>2011-04-05T15:10:33Z</time>
      </trkpt>
      <trkpt lat="48.57337" lon="-4.47796">
        <ele>25.7</ele>
        <time>2011-04-05T15:10:34Z</time>
      </trkpt>
      <trkpt lat="48.57336" lon="-4.47794">
        <ele>26.1</ele>
        <time>2011-04-05T15:10:35Z</time>
      </trkpt>
      <trkpt lat="48.57336" lon="-4.47792">
        <ele>26.2</ele>
        <time>2011-04-05T15:10:36Z</time>
      </trkpt>
      <trkpt lat="48.57335" lon="-4.4779">
        <ele>26</ele>
        <time>2011-04-05T15:10:37Z</time>
      </trkpt>
      <trkpt lat="48.57334" lon="-4.47789">
        <ele>26.6</ele>
        <time>2011-04-05T15:10:38Z</time>
      </trkpt>
      <trkpt lat="48.57333" lon="-4.47787">
        <ele>27</ele>
        <time>2011-04-05T15:10:39Z</time>
      </trkpt>
      <trkpt lat="48.57332" lon="-4.47786">
        <ele>26.9</ele>
        <time>2011-04-05T15:10:40Z</time>
      </trkpt>
      <trkpt lat="48.57332" lon="-4.47784">
        <ele>26.8</ele>
        <time>2011-04-05T15:10:41Z</time>
      </trkpt>
      <trkpt lat="48.57331" lon="-4.47783">
        <ele>27.2</ele>
        <time>2011-04-05T15:10:42Z</time>
      </trkpt>
      <trkpt lat="48.5733" lon="-4.47781">
        <ele>26.8</ele>
        <time>2011-04-05T15:10:43Z</time>
      </trkpt>
      <trkpt lat="48.5733" lon="-4.47779">
        <ele>26.2</ele>
        <time>2011-04-05T15:10:44Z</time>
      </trkpt>
      <trkpt lat="48.57328" lon="-4.47777">
        <ele>26</ele>
        <time>2011-04-05T15:10:45Z</time>
      </trkpt>
      <trkpt lat="48.57327" lon="-4.47775">
        <ele>26.1</ele>
        <time>2011-04-05T15:10:47Z</time>
      </trkpt>
      <trkpt lat="48.57326" lon="-4.47774">
        <ele>26.5</ele>
        <time>2011-04-05T15:10:48Z</time>
      </trkpt>
      <trkpt lat="48.57325" lon="-4.47772">
        <ele>27.1</ele>
        <time>2011-04-05T15:10:48Z</time>
      </trkpt>
      <trkpt lat="48.57324" lon="-4.4777">
        <ele>27.1</ele>
        <time>2011-04-05T15:10:49Z</time>
      </trkpt>
      <trkpt lat="48.57324" lon="-4.47769">
        <ele>27</ele>
        <time>2011-04-05T15:10:50Z</time>
      </trkpt>
      <trkpt lat="48.57323" lon="-4.47768">
        <ele>27</ele>
        <time>2011-04-05T15:10:51Z</time>
      </trkpt>
      <trkpt lat="48.57322" lon="-4.47766">
        <ele>26.9</ele>
        <time>2011-04-05T15:10:52Z</time>
      </trkpt>
      <trkpt lat="48.5732" lon="-4.47764">
        <ele>26.4</ele>
        <time>2011-04-05T15:10:53Z</time>
      </trkpt>
      <trkpt lat="48.57319" lon="-4.47763">
        <ele>25.9</ele>
        <time>2011-04-05T15:10:54Z</time>
      </trkpt>
      <trkpt lat="48.57319" lon="-4.47762">
        <ele>25.4</ele>
        <time>2011-04-05T15:10:55Z</time>
      </trkpt>
      <trkpt lat="48.57318" lon="-4.47761">
        <ele>24.6</ele>
        <time>2011-04-05T15:10:56Z</time>
      </trkpt>
      <trkpt lat="48.57317" lon="-4.47759">
        <ele>25.1</ele>
        <time>2011-04-05T15:10:57Z</time>
      </trkpt>
      <trkpt lat="48.57316" lon="-4.47758">
        <ele>24.3</ele>
        <time>2011-04-05T15:10:58Z</time>
      </trkpt>
      <trkpt lat="48.57314" lon="-4.47756">
        <ele>23.9</ele>
        <time>2011-04-05T15:10:59Z</time>
      </trkpt>
      <trkpt lat="48.57313" lon="-4.47755">
        <ele>23.4</ele>
        <time>2011-04-05T15:11:00Z</time>
      </trkpt>
      <trkpt lat="48.57311" lon="-4.47754">
        <ele>23.9</ele>
        <time>2011-04-05T15:11:02Z</time>
      </trkpt>
      <trkpt lat="48.57309" lon="-4.47752">
        <ele>23.9</ele>
        <time>2011-04-05T15:11:03Z</time>
      </trkpt>
      <trkpt lat="48.57308" lon="-4.47751">
        <ele>23.5</ele>
        <time>2011-04-05T15:11:04Z</time>
      </trkpt>
      <trkpt lat="48.57307" lon="-4.4775">
        <ele>23.1</ele>
        <time>2011-04-05T15:11:04Z</time>
      </trkpt>
      <trkpt lat="48.57307" lon="-4.47748">
        <ele>22.8</ele>
        <time>2011-04-05T15:11:05Z</time>
      </trkpt>
      <trkpt lat="48.57306" lon="-4.47747">
        <ele>22.4</ele>
        <time>2011-04-05T15:11:06Z</time>
      </trkpt>
      <trkpt lat="48.57304" lon="-4.47746">
        <ele>22</ele>
        <time>2011-04-05T15:11:07Z</time>
      </trkpt>
      <trkpt lat="48.57303" lon="-4.47745">
        <ele>21.9</ele>
        <time>2011-04-05T15:11:08Z</time>
      </trkpt>
      <trkpt lat="48.57302" lon="-4.47743">
        <ele>21.3</ele>
        <time>2011-04-05T15:11:09Z</time>
      </trkpt>
      <trkpt lat="48.57301" lon="-4.47742">
        <ele>20.8</ele>
        <time>2011-04-05T15:11:10Z</time>
      </trkpt>
      <trkpt lat="48.573" lon="-4.47741">
        <ele>20.3</ele>
        <time>2011-04-05T15:11:11Z</time>
      </trkpt>
      <trkpt lat="48.57299" lon="-4.47743">
        <ele>21.4</ele>
        <time>2011-04-05T15:11:13Z</time>
      </trkpt>
      <trkpt lat="48.57298" lon="-4.47742">
        <ele>20.8</ele>
        <time>2011-04-05T15:11:14Z</time>
      </trkpt>
      <trkpt lat="48.57298" lon="-4.47742">
        <ele>20.8</ele>
        <time>2011-04-05T15:11:17Z</time>
      </trkpt>
      <trkpt lat="48.57292" lon="-4.47736">
        <ele>19.7</ele>
        <time>2011-04-05T15:11:19Z</time>
      </trkpt>
      <trkpt lat="48.5729" lon="-4.47735">
        <ele>19.3</ele>
        <time>2011-04-05T15:11:20Z</time>
      </trkpt>
      <trkpt lat="48.57289" lon="-4.47733">
        <ele>18.8</ele>
        <time>2011-04-05T15:11:21Z</time>
      </trkpt>
      <trkpt lat="48.57288" lon="-4.47731">
        <ele>18.1</ele>
        <time>2011-04-05T15:11:21Z</time>
      </trkpt>
      <trkpt lat="48.57286" lon="-4.47729">
        <ele>17.3</ele>
        <time>2011-04-05T15:11:23Z</time>
      </trkpt>
      <trkpt lat="48.57286" lon="-4.47728">
        <ele>17.1</ele>
        <time>2011-04-05T15:11:24Z</time>
      </trkpt>
      <trkpt lat="48.57285" lon="-4.47726">
        <ele>16.9</ele>
        <time>2011-04-05T15:11:25Z</time>
      </trkpt>
      <trkpt lat="48.57284" lon="-4.47725">
        <ele>16.8</ele>
        <time>2011-04-05T15:11:26Z</time>
      </trkpt>
      <trkpt lat="48.57283" lon="-4.47723">
        <ele>16.7</ele>
        <time>2011-04-05T15:11:27Z</time>
      </trkpt>
      <trkpt lat="48.57282" lon="-4.47722">
        <ele>16.7</ele>
        <time>2011-04-05T15:11:27Z</time>
      </trkpt>
      <trkpt lat="48.57281" lon="-4.4772">
        <ele>16.9</ele>
        <time>2011-04-05T15:11:28Z</time>
      </trkpt>
      <trkpt lat="48.5728" lon="-4.47718">
        <ele>16.6</ele>
        <time>2011-04-05T15:11:29Z</time>
      </trkpt>
      <trkpt lat="48.57279" lon="-4.47716">
        <ele>15.9</ele>
        <time>2011-04-05T15:11:30Z</time>
      </trkpt>
      <trkpt lat="48.57278" lon="-4.47715">
        <ele>15.5</ele>
        <time>2011-04-05T15:11:32Z</time>
      </trkpt>
      <trkpt lat="48.57278" lon="-4.47715">
        <ele>15.5</ele>
        <time>2011-04-05T15:11:44Z</time>
      </trkpt>
      <trkpt lat="48.57265" lon="-4.47695">
        <ele>16.3</ele>
        <time>2011-04-05T15:11:44Z</time>
      </trkpt>
      <trkpt lat="48.57263" lon="-4.47693">
        <ele>16.2</ele>
        <time>2011-04-05T15:11:47Z</time>
      </trkpt>
      <trkpt lat="48.57262" lon="-4.4769">
        <ele>16.5</ele>
        <time>2011-04-05T15:11:48Z</time>
      </trkpt>
      <trkpt lat="48.57262" lon="-4.47688">
        <ele>16.5</ele>
        <time>2011-04-05T15:11:49Z</time>
      </trkpt>
      <trkpt lat="48.57261" lon="-4.47686">
        <ele>15.9</ele>
        <time>2011-04-05T15:11:51Z</time>
      </trkpt>
      <trkpt lat="48.5726" lon="-4.47684">
        <ele>15.4</ele>
        <time>2011-04-05T15:11:52Z</time>
      </trkpt>
      <trkpt lat="48.5726" lon="-4.47684">
        <ele>15.4</ele>
        <time>2011-04-05T15:12:01Z</time>
      </trkpt>
      <trkpt lat="48.57254" lon="-4.47666">
        <ele>12.6</ele>
        <time>2011-04-05T15:12:03Z</time>
      </trkpt>
      <trkpt lat="48.57253" lon="-4.47664">
        <ele>12.4</ele>
        <time>2011-04-05T15:12:04Z</time>
      </trkpt>
      <trkpt lat="48.57252" lon="-4.47662">
        <ele>12.8</ele>
        <time>2011-04-05T15:12:06Z</time>
      </trkpt>
      <trkpt lat="48.57252" lon="-4.4766">
        <ele>13.3</ele>
        <time>2011-04-05T15:12:07Z</time>
      </trkpt>
      <trkpt lat="48.57251" lon="-4.47658">
        <ele>13.9</ele>
        <time>2011-04-05T15:12:08Z</time>
      </trkpt>
      <trkpt lat="48.57251" lon="-4.47655">
        <ele>13.4</ele>
        <time>2011-04-05T15:12:09Z</time>
      </trkpt>
      <trkpt lat="48.5725" lon="-4.47653">
        <ele>13.9</ele>
        <time>2011-04-05T15:12:09Z</time>
      </trkpt>
      <trkpt lat="48.5725" lon="-4.47651">
        <ele>14.3</ele>
        <time>2011-04-05T15:12:10Z</time>
      </trkpt>
      <trkpt lat="48.57249" lon="-4.4765">
        <ele>14.9</ele>
        <time>2011-04-05T15:12:12Z</time>
      </trkpt>
      <trkpt lat="48.57249" lon="-4.4765">
        <ele>14.9</ele>
        <time>2011-04-05T15:12:35Z</time>
      </trkpt>
      <trkpt lat="48.57228" lon="-4.47624">
        <ele>12.7</ele>
        <time>2011-04-05T15:12:37Z</time>
      </trkpt>
      <trkpt lat="48.57227" lon="-4.47624">
        <ele>12.5</ele>
        <time>2011-04-05T15:12:39Z</time>
      </trkpt>
      <trkpt lat="48.57226" lon="-4.47623">
        <ele>11.8</ele>
        <time>2011-04-05T15:12:40Z</time>
      </trkpt>
      <trkpt lat="48.57225" lon="-4.47622">
        <ele>10.4</ele>
        <time>2011-04-05T15:12:40Z</time>
      </trkpt>
      <trkpt lat="48.57224" lon="-4.47621">
        <ele>9.7</ele>
        <time>2011-04-05T15:12:42Z</time>
      </trkpt>
      <trkpt lat="48.57224" lon="-4.47621">
        <ele>9.7</ele>
        <time>2011-04-05T15:12:49Z</time>
      </trkpt>
      <trkpt lat="48.57214" lon="-4.4761">
        <ele>6.6</ele>
        <time>2011-04-05T15:12:50Z</time>
      </trkpt>
      <trkpt lat="48.57213" lon="-4.47609">
        <ele>6.2</ele>
        <time>2011-04-05T15:12:51Z</time>
      </trkpt>
      <trkpt lat="48.57213" lon="-4.47608">
        <ele>6.1</ele>
        <time>2011-04-05T15:12:52Z</time>
      </trkpt>
      <trkpt lat="48.57212" lon="-4.47607">
        <ele>6.2</ele>
        <time>2011-04-05T15:12:53Z</time>
      </trkpt>
      <trkpt lat="48.5721" lon="-4.47605">
        <ele>5.9</ele>
        <time>2011-04-05T15:12:55Z</time>
      </trkpt>
      <trkpt lat="48.5721" lon="-4.47605">
        <ele>5.9</ele>
        <time>2011-04-05T15:13:15Z</time>
      </trkpt>
      <trkpt lat="48.57195" lon="-4.4757">
        <ele>8.03</ele>
        <time>2011-04-05T15:13:17Z</time>
      </trkpt>
      <trkpt lat="48.57194" lon="-4.47569">
        <ele>8.7</ele>
        <time>2011-04-05T15:13:19Z</time>
      </trkpt>
      <trkpt lat="48.57193" lon="-4.47568">
        <ele>8.9</ele>
        <time>2011-04-05T15:13:21Z</time>
      </trkpt>
      <trkpt lat="48.57193" lon="-4.47568">
        <ele>8.9</ele>
        <time>2011-04-05T15:13:39Z</time>
      </trkpt>
      <trkpt lat="48.57182" lon="-4.4753">
        <ele>5.4</ele>
        <time>2011-04-05T15:13:41Z</time>
      </trkpt>
      <trkpt lat="48.57182" lon="-4.47529">
        <ele>6.2</ele>
        <time>2011-04-05T15:13:42Z</time>
      </trkpt>
      <trkpt lat="48.57181" lon="-4.47526">
        <ele>6.6</ele>
        <time>2011-04-05T15:13:44Z</time>
      </trkpt>
      <trkpt lat="48.5718" lon="-4.47524">
        <ele>7.3</ele>
        <time>2011-04-05T15:13:45Z</time>
      </trkpt>
      <trkpt lat="48.5718" lon="-4.47524">
        <ele>7.3</ele>
        <time>2011-04-05T15:13:51Z</time>
      </trkpt>
      <trkpt lat="48.57173" lon="-4.47506">
        <ele>8.8</ele>
        <time>2011-04-05T15:13:53Z</time>
      </trkpt>
      <trkpt lat="48.57174" lon="-4.47504">
        <ele>7.1</ele>
        <time>2011-04-05T15:13:54Z</time>
      </trkpt>
      <trkpt lat="48.57174" lon="-4.47502">
        <ele>5.6</ele>
        <time>2011-04-05T15:13:56Z</time>
      </trkpt>
      <trkpt lat="48.57174" lon="-4.475">
        <ele>5.1</ele>
        <time>2011-04-05T15:13:57Z</time>
      </trkpt>
      <trkpt lat="48.57174" lon="-4.475">
        <ele>5.1</ele>
        <time>2011-04-05T15:14:03Z</time>
      </trkpt>
      <trkpt lat="48.57172" lon="-4.47484">
        <ele>2.2</ele>
        <time>2011-04-05T15:14:05Z</time>
      </trkpt>
      <trkpt lat="48.57172" lon="-4.47483">
        <ele>2.3</ele>
        <time>2011-04-05T15:14:07Z</time>
      </trkpt>
      <trkpt lat="48.57172" lon="-4.4748">
        <ele>1.1</ele>
        <time>2011-04-05T15:14:07Z</time>
      </trkpt>
      <trkpt lat="48.57172" lon="-4.47478">
        <ele>0.3</ele>
        <time>2011-04-05T15:14:09Z</time>
      </trkpt>
      <trkpt lat="48.57172" lon="-4.47478">
        <ele>0.3</ele>
        <time>2011-04-05T15:14:23Z</time>
      </trkpt>
      <trkpt lat="48.57165" lon="-4.47443">
        <ele>-1.9</ele>
        <time>2011-04-05T15:14:24Z</time>
      </trkpt>
      <trkpt lat="48.57164" lon="-4.47439">
        <ele>-2.2</ele>
        <time>2011-04-05T15:14:26Z</time>
      </trkpt>
      <trkpt lat="48.57162" lon="-4.47435">
        <ele>-2.3</ele>
        <time>2011-04-05T15:14:27Z</time>
      </trkpt>
      <trkpt lat="48.57161" lon="-4.47432">
        <ele>-2.5</ele>
        <time>2011-04-05T15:14:29Z</time>
      </trkpt>
      <trkpt lat="48.57161" lon="-4.47429">
        <ele>-2.8</ele>
        <time>2011-04-05T15:14:29Z</time>
      </trkpt>
      <trkpt lat="48.57162" lon="-4.47427">
        <ele>-4.2</ele>
        <time>2011-04-05T15:14:30Z</time>
      </trkpt>
      <trkpt lat="48.57162" lon="-4.47425">
        <ele>-4</ele>
        <time>2011-04-05T15:14:31Z</time>
      </trkpt>
      <trkpt lat="48.57162" lon="-4.47423">
        <ele>-4.2</ele>
        <time>2011-04-05T15:14:32Z</time>
      </trkpt>
      <trkpt lat="48.57162" lon="-4.47421">
        <ele>-4.7</ele>
        <time>2011-04-05T15:14:33Z</time>
      </trkpt>
      <trkpt lat="48.5716" lon="-4.47417">
        <ele>-4.6</ele>
        <time>2011-04-05T15:14:34Z</time>
      </trkpt>
      <trkpt lat="48.5716" lon="-4.47417">
        <ele>-4.6</ele>
        <time>2011-04-05T15:14:37Z</time>
      </trkpt>
      <trkpt lat="48.57158" lon="-4.47406">
        <ele>-4.8</ele>
        <time>2011-04-05T15:14:39Z</time>
      </trkpt>
      <trkpt lat="48.57158" lon="-4.47404">
        <ele>-4.1</ele>
        <time>2011-04-05T15:14:40Z</time>
      </trkpt>
      <trkpt lat="48.57157" lon="-4.47401">
        <ele>-5</ele>
        <time>2011-04-05T15:14:42Z</time>
      </trkpt>
      <trkpt lat="48.57156" lon="-4.47398">
        <ele>-5.4</ele>
        <time>2011-04-05T15:14:43Z</time>
      </trkpt>
      <trkpt lat="48.57156" lon="-4.47398">
        <ele>-5.4</ele>
        <time>2011-04-05T15:14:59Z</time>
      </trkpt>
      <trkpt lat="48.57153" lon="-4.47369">
        <ele>9.1</ele>
        <time>2011-04-05T15:15:00Z</time>
      </trkpt>
      <trkpt lat="48.57153" lon="-4.47367">
        <ele>10</ele>
        <time>2011-04-05T15:15:02Z</time>
      </trkpt>
      <trkpt lat="48.57152" lon="-4.47365">
        <ele>11.3</ele>
        <time>2011-04-05T15:15:03Z</time>
      </trkpt>
      <trkpt lat="48.57153" lon="-4.47364">
        <ele>12.4</ele>
        <time>2011-04-05T15:15:05Z</time>
      </trkpt>
      <trkpt lat="48.57153" lon="-4.47364">
        <ele>12.4</ele>
        <time>2011-04-05T15:15:15Z</time>
      </trkpt>
      <trkpt lat="48.57151" lon="-4.47337">
        <ele>17.4</ele>
        <time>2011-04-05T15:15:17Z</time>
      </trkpt>
      <trkpt lat="48.5715" lon="-4.47334">
        <ele>16.45</ele>
        <time>2011-04-05T15:15:19Z</time>
      </trkpt>
      <trkpt lat="48.57151" lon="-4.47333">
        <ele>15.2</ele>
        <time>2011-04-05T15:15:20Z</time>
      </trkpt>
      <trkpt lat="48.5715" lon="-4.47331">
        <ele>15.3</ele>
        <time>2011-04-05T15:15:21Z</time>
      </trkpt>
      <trkpt lat="48.57151" lon="-4.4733">
        <ele>14</ele>
        <time>2011-04-05T15:15:22Z</time>
      </trkpt>
      <trkpt lat="48.5715" lon="-4.47327">
        <ele>13.2</ele>
        <time>2011-04-05T15:15:23Z</time>
      </trkpt>
      <trkpt lat="48.5715" lon="-4.47327">
        <ele>13.2</ele>
        <time>2011-04-05T15:15:37Z</time>
      </trkpt>
      <trkpt lat="48.57141" lon="-4.47295">
        <ele>13.3</ele>
        <time>2011-04-05T15:15:39Z</time>
      </trkpt>
      <trkpt lat="48.5714" lon="-4.47293">
        <ele>13.4</ele>
        <time>2011-04-05T15:15:39Z</time>
      </trkpt>
      <trkpt lat="48.5714" lon="-4.47291">
        <ele>12.8</ele>
        <time>2011-04-05T15:15:40Z</time>
      </trkpt>
      <trkpt lat="48.5714" lon="-4.47288">
        <ele>13.5</ele>
        <time>2011-04-05T15:15:41Z</time>
      </trkpt>
      <trkpt lat="48.5714" lon="-4.47286">
        <ele>12.9</ele>
        <time>2011-04-05T15:15:42Z</time>
      </trkpt>
      <trkpt lat="48.57141" lon="-4.47283">
        <ele>10.5</ele>
        <time>2011-04-05T15:15:43Z</time>
      </trkpt>
      <trkpt lat="48.5714" lon="-4.47281">
        <ele>9.9</ele>
        <time>2011-04-05T15:15:44Z</time>
      </trkpt>
      <trkpt lat="48.57139" lon="-4.4728">
        <ele>9.2</ele>
        <time>2011-04-05T15:15:45Z</time>
      </trkpt>
      <trkpt lat="48.57139" lon="-4.47278">
        <ele>9.6</ele>
        <time>2011-04-05T15:15:46Z</time>
      </trkpt>
      <trkpt lat="48.57138" lon="-4.47275">
        <ele>9.7</ele>
        <time>2011-04-05T15:15:47Z</time>
      </trkpt>
      <trkpt lat="48.57137" lon="-4.47273">
        <ele>9.5</ele>
        <time>2011-04-05T15:15:49Z</time>
      </trkpt>
      <trkpt lat="48.57137" lon="-4.47273">
        <ele>9.5</ele>
        <time>2011-04-05T15:15:49Z</time>
      </trkpt>
      <trkpt lat="48.57137" lon="-4.47268">
        <ele>9.5</ele>
        <time>2011-04-05T15:15:50Z</time>
      </trkpt>
      <trkpt lat="48.57136" lon="-4.47266">
        <ele>9.9</ele>
        <time>2011-04-05T15:15:52Z</time>
      </trkpt>
      <trkpt lat="48.57136" lon="-4.47263">
        <ele>10.4</ele>
        <time>2011-04-05T15:15:53Z</time>
      </trkpt>
      <trkpt lat="48.57136" lon="-4.47261">
        <ele>10.1</ele>
        <time>2011-04-05T15:15:55Z</time>
      </trkpt>
      <trkpt lat="48.57136" lon="-4.47261">
        <ele>10.1</ele>
        <time>2011-04-05T15:16:01Z</time>
      </trkpt>
      <trkpt lat="48.57136" lon="-4.47243">
        <ele>3.2</ele>
        <time>2011-04-05T15:16:03Z</time>
      </trkpt>
      <trkpt lat="48.57137" lon="-4.4724">
        <ele>3.6</ele>
        <time>2011-04-05T15:16:04Z</time>
      </trkpt>
      <trkpt lat="48.57137" lon="-4.47238">
        <ele>3.9</ele>
        <time>2011-04-05T15:16:05Z</time>
      </trkpt>
      <trkpt lat="48.57137" lon="-4.47237">
        <ele>4.5</ele>
        <time>2011-04-05T15:16:07Z</time>
      </trkpt>
      <trkpt lat="48.57137" lon="-4.47237">
        <ele>4.5</ele>
        <time>2011-04-05T15:16:27Z</time>
      </trkpt>
      <trkpt lat="48.57134" lon="-4.47194">
        <ele>4.8</ele>
        <time>2011-04-05T15:16:27Z</time>
      </trkpt>
      <trkpt lat="48.57134" lon="-4.47192">
        <ele>6.7</ele>
        <time>2011-04-05T15:16:29Z</time>
      </trkpt>
      <trkpt lat="48.57134" lon="-4.4719">
        <ele>7.3</ele>
        <time>2011-04-05T15:16:30Z</time>
      </trkpt>
      <trkpt lat="48.57135" lon="-4.47187">
        <ele>6.7</ele>
        <time>2011-04-05T15:16:31Z</time>
      </trkpt>
      <trkpt lat="48.57135" lon="-4.47187">
        <ele>6.7</ele>
        <time>2011-04-05T15:16:49Z</time>
      </trkpt>
      <trkpt lat="48.57131" lon="-4.47146">
        <ele>8.8</ele>
        <time>2011-04-05T15:16:51Z</time>
      </trkpt>
      <trkpt lat="48.57131" lon="-4.47146">
        <ele>8.8</ele>
        <time>2011-04-05T15:16:51Z</time>
      </trkpt>
      <trkpt lat="48.57132" lon="-4.47145">
        <ele>10.1</ele>
        <time>2011-04-05T15:16:52Z</time>
      </trkpt>
      <trkpt lat="48.57132" lon="-4.47145">
        <ele>10.1</ele>
        <time>2011-04-05T15:16:52Z</time>
      </trkpt>
      <trkpt lat="48.57133" lon="-4.47144">
        <ele>11.4</ele>
        <time>2011-04-05T15:16:53Z</time>
      </trkpt>
      <trkpt lat="48.57132" lon="-4.47142">
        <ele>11.1</ele>
        <time>2011-04-05T15:16:55Z</time>
      </trkpt>
      <trkpt lat="48.57132" lon="-4.47142">
        <ele>11.1</ele>
        <time>2011-04-05T15:17:00Z</time>
      </trkpt>
      <trkpt lat="48.57132" lon="-4.47129">
        <ele>9.6</ele>
        <time>2011-04-05T15:17:01Z</time>
      </trkpt>
      <trkpt lat="48.57131" lon="-4.47126">
        <ele>8.2</ele>
        <time>2011-04-05T15:17:02Z</time>
      </trkpt>
      <trkpt lat="48.57132" lon="-4.47124">
        <ele>9.3</ele>
        <time>2011-04-05T15:17:03Z</time>
      </trkpt>
      <trkpt lat="48.57131" lon="-4.47119">
        <ele>7.3</ele>
        <time>2011-04-05T15:17:04Z</time>
      </trkpt>
      <trkpt lat="48.57131" lon="-4.47119">
        <ele>7.3</ele>
        <time>2011-04-05T15:17:18Z</time>
      </trkpt>
      <trkpt lat="48.57125" lon="-4.4708">
        <ele>10.6</ele>
        <time>2011-04-05T15:17:20Z</time>
      </trkpt>
      <trkpt lat="48.57126" lon="-4.47078">
        <ele>12</ele>
        <time>2011-04-05T15:17:21Z</time>
      </trkpt>
      <trkpt lat="48.57125" lon="-4.47075">
        <ele>13.7</ele>
        <time>2011-04-05T15:17:22Z</time>
      </trkpt>
      <trkpt lat="48.57125" lon="-4.47073">
        <ele>15.4</ele>
        <time>2011-04-05T15:17:24Z</time>
      </trkpt>
      <trkpt lat="48.57125" lon="-4.47073">
        <ele>15.4</ele>
        <time>2011-04-05T15:17:26Z</time>
      </trkpt>
      <trkpt lat="48.57125" lon="-4.47062">
        <ele>15.1</ele>
        <time>2011-04-05T15:17:26Z</time>
      </trkpt>
      <trkpt lat="48.57125" lon="-4.4706">
        <ele>14.4</ele>
        <time>2011-04-05T15:17:28Z</time>
      </trkpt>
      <trkpt lat="48.57124" lon="-4.47058">
        <ele>14.4</ele>
        <time>2011-04-05T15:17:29Z</time>
      </trkpt>
      <trkpt lat="48.57123" lon="-4.47055">
        <ele>14</ele>
        <time>2011-04-05T15:17:30Z</time>
      </trkpt>
      <trkpt lat="48.57123" lon="-4.47055">
        <ele>14</ele>
        <time>2011-04-05T15:17:44Z</time>
      </trkpt>
      <trkpt lat="48.57118" lon="-4.47015">
        <ele>7.8</ele>
        <time>2011-04-05T15:17:45Z</time>
      </trkpt>
      <trkpt lat="48.57118" lon="-4.47013">
        <ele>6.6</ele>
        <time>2011-04-05T15:17:47Z</time>
      </trkpt>
      <trkpt lat="48.57118" lon="-4.47013">
        <ele>6.6</ele>
        <time>2011-04-05T15:17:47Z</time>
      </trkpt>
      <trkpt lat="48.57118" lon="-4.47011">
        <ele>7.4</ele>
        <time>2011-04-05T15:17:48Z</time>
      </trkpt>
      <trkpt lat="48.57118" lon="-4.4701">
        <ele>7.2</ele>
        <time>2011-04-05T15:17:50Z</time>
      </trkpt>
      <trkpt lat="48.57118" lon="-4.4701">
        <ele>7.2</ele>
        <time>2011-04-05T15:18:07Z</time>
      </trkpt>
      <trkpt lat="48.57117" lon="-4.46969">
        <ele>6</ele>
        <time>2011-04-05T15:18:08Z</time>
      </trkpt>
      <trkpt lat="48.57119" lon="-4.46965">
        <ele>2.6</ele>
        <time>2011-04-05T15:18:09Z</time>
      </trkpt>
      <trkpt lat="48.57118" lon="-4.46962">
        <ele>0.2</ele>
        <time>2011-04-05T15:18:10Z</time>
      </trkpt>
      <trkpt lat="48.57119" lon="-4.46959">
        <ele>0.4</ele>
        <time>2011-04-05T15:18:12Z</time>
      </trkpt>
      <trkpt lat="48.57119" lon="-4.46959">
        <ele>0.4</ele>
        <time>2011-04-05T15:18:25Z</time>
      </trkpt>
      <trkpt lat="48.57129" lon="-4.46924">
        <ele>7.6</ele>
        <time>2011-04-05T15:18:27Z</time>
      </trkpt>
      <trkpt lat="48.5713" lon="-4.46922">
        <ele>-0.5</ele>
        <time>2011-04-05T15:18:28Z</time>
      </trkpt>
      <trkpt lat="48.5713" lon="-4.46919">
        <ele>0.2</ele>
        <time>2011-04-05T15:18:29Z</time>
      </trkpt>
      <trkpt lat="48.57131" lon="-4.46916">
        <ele>0.7</ele>
        <time>2011-04-05T15:18:30Z</time>
      </trkpt>
      <trkpt lat="48.5713" lon="-4.46914">
        <ele>1.1</ele>
        <time>2011-04-05T15:18:30Z</time>
      </trkpt>
      <trkpt lat="48.5713" lon="-4.46912">
        <ele>0.5</ele>
        <time>2011-04-05T15:18:32Z</time>
      </trkpt>
      <trkpt lat="48.5713" lon="-4.46912">
        <ele>0.5</ele>
        <time>2011-04-05T15:18:50Z</time>
      </trkpt>
      <trkpt lat="48.57138" lon="-4.46874">
        <ele>9.9</ele>
        <time>2011-04-05T15:18:52Z</time>
      </trkpt>
      <trkpt lat="48.57139" lon="-4.46871">
        <ele>8.3</ele>
        <time>2011-04-05T15:18:53Z</time>
      </trkpt>
      <trkpt lat="48.5714" lon="-4.46868">
        <ele>8.4</ele>
        <time>2011-04-05T15:18:54Z</time>
      </trkpt>
      <trkpt lat="48.5714" lon="-4.46865">
        <ele>5.8</ele>
        <time>2011-04-05T15:18:55Z</time>
      </trkpt>
      <trkpt lat="48.57141" lon="-4.46864">
        <ele>4.1</ele>
        <time>2011-04-05T15:18:56Z</time>
      </trkpt>
      <trkpt lat="48.57141" lon="-4.46864">
        <ele>4.1</ele>
        <time>2011-04-05T15:18:56Z</time>
      </trkpt>
      <trkpt lat="48.57142" lon="-4.46859">
        <ele>2.8</ele>
        <time>2011-04-05T15:18:58Z</time>
      </trkpt>
      <trkpt lat="48.57142" lon="-4.46857">
        <ele>4.1</ele>
        <time>2011-04-05T15:19:00Z</time>
      </trkpt>
      <trkpt lat="48.5714" lon="-4.46854">
        <ele>3.7</ele>
        <time>2011-04-05T15:19:01Z</time>
      </trkpt>
      <trkpt lat="48.57141" lon="-4.46852">
        <ele>4.7</ele>
        <time>2011-04-05T15:19:02Z</time>
      </trkpt>
      <trkpt lat="48.57141" lon="-4.4685">
        <ele>4.3</ele>
        <time>2011-04-05T15:19:03Z</time>
      </trkpt>
      <trkpt lat="48.57141" lon="-4.46848">
        <ele>3.9</ele>
        <time>2011-04-05T15:19:04Z</time>
      </trkpt>
      <trkpt lat="48.57141" lon="-4.46847">
        <ele>3.7</ele>
        <time>2011-04-05T15:19:04Z</time>
      </trkpt>
      <trkpt lat="48.57142" lon="-4.46846">
        <ele>3</ele>
        <time>2011-04-05T15:19:06Z</time>
      </trkpt>
      <trkpt lat="48.57142" lon="-4.46846">
        <ele>3</ele>
        <time>2011-04-05T15:19:12Z</time>
      </trkpt>
      <trkpt lat="48.57141" lon="-4.4683">
        <ele>5</ele>
        <time>2011-04-05T15:19:13Z</time>
      </trkpt>
      <trkpt lat="48.57141" lon="-4.46826">
        <ele>4.6</ele>
        <time>2011-04-05T15:19:14Z</time>
      </trkpt>
      <trkpt lat="48.5714" lon="-4.46821">
        <ele>4.5</ele>
        <time>2011-04-05T15:19:16Z</time>
      </trkpt>
      <trkpt lat="48.57141" lon="-4.46818">
        <ele>4.4</ele>
        <time>2011-04-05T15:19:17Z</time>
      </trkpt>
      <trkpt lat="48.57142" lon="-4.46815">
        <ele>4.3</ele>
        <time>2011-04-05T15:19:18Z</time>
      </trkpt>
      <trkpt lat="48.57142" lon="-4.46812">
        <ele>3.5</ele>
        <time>2011-04-05T15:19:20Z</time>
      </trkpt>
      <trkpt lat="48.57143" lon="-4.4681">
        <ele>2.7</ele>
        <time>2011-04-05T15:19:21Z</time>
      </trkpt>
      <trkpt lat="48.57143" lon="-4.4681">
        <ele>2.7</ele>
        <time>2011-04-05T15:19:24Z</time>
      </trkpt>
      <trkpt lat="48.57144" lon="-4.46799">
        <ele>4.5</ele>
        <time>2011-04-05T15:19:25Z</time>
      </trkpt>
      <trkpt lat="48.57144" lon="-4.46797">
        <ele>4.3</ele>
        <time>2011-04-05T15:19:26Z</time>
      </trkpt>
      <trkpt lat="48.57144" lon="-4.46795">
        <ele>4.7</ele>
        <time>2011-04-05T15:19:28Z</time>
      </trkpt>
      <trkpt lat="48.57145" lon="-4.46793">
        <ele>3.9</ele>
        <time>2011-04-05T15:19:29Z</time>
      </trkpt>
      <trkpt lat="48.57145" lon="-4.4679">
        <ele>4.5</ele>
        <time>2011-04-05T15:19:30Z</time>
      </trkpt>
      <trkpt lat="48.57146" lon="-4.46787">
        <ele>1.6</ele>
        <time>2011-04-05T15:19:31Z</time>
      </trkpt>
      <trkpt lat="48.57146" lon="-4.46784">
        <ele>2</ele>
        <time>2011-04-05T15:19:31Z</time>
      </trkpt>
      <trkpt lat="48.57147" lon="-4.46782">
        <ele>0.1</ele>
        <time>2011-04-05T15:19:32Z</time>
      </trkpt>
      <trkpt lat="48.57148" lon="-4.46781">
        <ele>-0.1</ele>
        <time>2011-04-05T15:19:33Z</time>
      </trkpt>
      <trkpt lat="48.57148" lon="-4.46778">
        <ele>-0.1</ele>
        <time>2011-04-05T15:19:33Z</time>
      </trkpt>
      <trkpt lat="48.57148" lon="-4.46776">
        <ele>0.3</ele>
        <time>2011-04-05T15:19:35Z</time>
      </trkpt>
      <trkpt lat="48.57149" lon="-4.46774">
        <ele>1.8</ele>
        <time>2011-04-05T15:19:35Z</time>
      </trkpt>
      <trkpt lat="48.57148" lon="-4.46772">
        <ele>2.7</ele>
        <time>2011-04-05T15:19:37Z</time>
      </trkpt>
      <trkpt lat="48.57148" lon="-4.46772">
        <ele>2.7</ele>
        <time>2011-04-05T15:19:53Z</time>
      </trkpt>
      <trkpt lat="48.57159" lon="-4.46736">
        <ele>12.9</ele>
        <time>2011-04-05T15:19:53Z</time>
      </trkpt>
      <trkpt lat="48.57159" lon="-4.46734">
        <ele>11.9</ele>
        <time>2011-04-05T15:19:55Z</time>
      </trkpt>
      <trkpt lat="48.57161" lon="-4.46734">
        <ele>12</ele>
        <time>2011-04-05T15:19:56Z</time>
      </trkpt>
      <trkpt lat="48.57162" lon="-4.46732">
        <ele>13.9</ele>
        <time>2011-04-05T15:19:58Z</time>
      </trkpt>
      <trkpt lat="48.57162" lon="-4.46732">
        <ele>13.9</ele>
        <time>2011-04-05T15:20:02Z</time>
      </trkpt>
      <trkpt lat="48.57169" lon="-4.4672">
        <ele>11.4</ele>
        <time>2011-04-05T15:20:04Z</time>
      </trkpt>
      <trkpt lat="48.57171" lon="-4.46717">
        <ele>10.6</ele>
        <time>2011-04-05T15:20:04Z</time>
      </trkpt>
      <trkpt lat="48.57172" lon="-4.46715">
        <ele>9.5</ele>
        <time>2011-04-05T15:20:05Z</time>
      </trkpt>
      <trkpt lat="48.57174" lon="-4.46714">
        <ele>8.9</ele>
        <time>2011-04-05T15:20:07Z</time>
      </trkpt>
      <trkpt lat="48.57174" lon="-4.46712">
        <ele>8.3</ele>
        <time>2011-04-05T15:20:08Z</time>
      </trkpt>
      <trkpt lat="48.57176" lon="-4.46711">
        <ele>8.5</ele>
        <time>2011-04-05T15:20:09Z</time>
      </trkpt>
      <trkpt lat="48.57177" lon="-4.4671">
        <ele>8</ele>
        <time>2011-04-05T15:20:11Z</time>
      </trkpt>
      <trkpt lat="48.57178" lon="-4.46708">
        <ele>8.1</ele>
        <time>2011-04-05T15:20:11Z</time>
      </trkpt>
      <trkpt lat="48.57179" lon="-4.46706">
        <ele>8.6</ele>
        <time>2011-04-05T15:20:13Z</time>
      </trkpt>
      <trkpt lat="48.5718" lon="-4.46704">
        <ele>9.8</ele>
        <time>2011-04-05T15:20:14Z</time>
      </trkpt>
      <trkpt lat="48.5718" lon="-4.46702">
        <ele>10.2</ele>
        <time>2011-04-05T15:20:15Z</time>
      </trkpt>
      <trkpt lat="48.5718" lon="-4.46701">
        <ele>11.8</ele>
        <time>2011-04-05T15:20:17Z</time>
      </trkpt>
      <trkpt lat="48.5718" lon="-4.46701">
        <ele>11.8</ele>
        <time>2011-04-05T15:20:21Z</time>
      </trkpt>
      <trkpt lat="48.57184" lon="-4.46693">
        <ele>15.5</ele>
        <time>2011-04-05T15:20:23Z</time>
      </trkpt>
      <trkpt lat="48.57185" lon="-4.4669">
        <ele>14.3</ele>
        <time>2011-04-05T15:20:23Z</time>
      </trkpt>
      <trkpt lat="48.57186" lon="-4.46688">
        <ele>14.2</ele>
        <time>2011-04-05T15:20:25Z</time>
      </trkpt>
      <trkpt lat="48.57187" lon="-4.46686">
        <ele>14.6</ele>
        <time>2011-04-05T15:20:26Z</time>
      </trkpt>
      <trkpt lat="48.57188" lon="-4.46685">
        <ele>13.8</ele>
        <time>2011-04-05T15:20:27Z</time>
      </trkpt>
      <trkpt lat="48.57188" lon="-4.46683">
        <ele>13.5</ele>
        <time>2011-04-05T15:20:28Z</time>
      </trkpt>
      <trkpt lat="48.57187" lon="-4.4668">
        <ele>13.6</ele>
        <time>2011-04-05T15:20:29Z</time>
      </trkpt>
      <trkpt lat="48.57187" lon="-4.4668">
        <ele>13.6</ele>
        <time>2011-04-05T15:20:35Z</time>
      </trkpt>
      <trkpt lat="48.57188" lon="-4.46658">
        <ele>10.2</ele>
        <time>2011-04-05T15:20:35Z</time>
      </trkpt>
      <trkpt lat="48.57187" lon="-4.46654">
        <ele>9.5</ele>
        <time>2011-04-05T15:20:38Z</time>
      </trkpt>
      <trkpt lat="48.57187" lon="-4.46652">
        <ele>9.5</ele>
        <time>2011-04-05T15:20:39Z</time>
      </trkpt>
      <trkpt lat="48.57187" lon="-4.46649">
        <ele>9.6</ele>
        <time>2011-04-05T15:20:40Z</time>
      </trkpt>
      <trkpt lat="48.57188" lon="-4.46648">
        <ele>10</ele>
        <time>2011-04-05T15:20:42Z</time>
      </trkpt>
      <trkpt lat="48.57188" lon="-4.46646">
        <ele>10.7</ele>
        <time>2011-04-05T15:20:42Z</time>
      </trkpt>
      <trkpt lat="48.57189" lon="-4.46645">
        <ele>12</ele>
        <time>2011-04-05T15:20:44Z</time>
      </trkpt>
      <trkpt lat="48.57189" lon="-4.46645">
        <ele>12</ele>
        <time>2011-04-05T15:21:00Z</time>
      </trkpt>
      <trkpt lat="48.57189" lon="-4.46604">
        <ele>16.4</ele>
        <time>2011-04-05T15:21:01Z</time>
      </trkpt>
      <trkpt lat="48.57191" lon="-4.46603">
        <ele>15.8</ele>
        <time>2011-04-05T15:21:02Z</time>
      </trkpt>
      <trkpt lat="48.57192" lon="-4.466">
        <ele>13.4</ele>
        <time>2011-04-05T15:21:03Z</time>
      </trkpt>
      <trkpt lat="48.57193" lon="-4.46599">
        <ele>12.4</ele>
        <time>2011-04-05T15:21:04Z</time>
      </trkpt>
      <trkpt lat="48.57194" lon="-4.46596">
        <ele>11.3</ele>
        <time>2011-04-05T15:21:05Z</time>
      </trkpt>
      <trkpt lat="48.57194" lon="-4.46594">
        <ele>9.8</ele>
        <time>2011-04-05T15:21:06Z</time>
      </trkpt>
      <trkpt lat="48.57195" lon="-4.46592">
        <ele>10.1</ele>
        <time>2011-04-05T15:21:08Z</time>
      </trkpt>
      <trkpt lat="48.57195" lon="-4.46589">
        <ele>11.2</ele>
        <time>2011-04-05T15:21:09Z</time>
      </trkpt>
      <trkpt lat="48.57195" lon="-4.46586">
        <ele>10.9</ele>
        <time>2011-04-05T15:21:10Z</time>
      </trkpt>
      <trkpt lat="48.57196" lon="-4.46584">
        <ele>10.5</ele>
        <time>2011-04-05T15:21:11Z</time>
      </trkpt>
      <trkpt lat="48.57196" lon="-4.4658">
        <ele>11.7</ele>
        <time>2011-04-05T15:21:12Z</time>
      </trkpt>
      <trkpt lat="48.57196" lon="-4.46578">
        <ele>12.6</ele>
        <time>2011-04-05T15:21:13Z</time>
      </trkpt>
      <trkpt lat="48.57197" lon="-4.46577">
        <ele>13.3</ele>
        <time>2011-04-05T15:21:14Z</time>
      </trkpt>
      <trkpt lat="48.57196" lon="-4.46573">
        <ele>13.8</ele>
        <time>2011-04-05T15:21:15Z</time>
      </trkpt>
      <trkpt lat="48.57196" lon="-4.46571">
        <ele>15.1</ele>
        <time>2011-04-05T15:21:16Z</time>
      </trkpt>
      <trkpt lat="48.57197" lon="-4.46569">
        <ele>15.6</ele>
        <time>2011-04-05T15:21:18Z</time>
      </trkpt>
      <trkpt lat="48.57197" lon="-4.46569">
        <ele>15.6</ele>
        <time>2011-04-05T15:21:32Z</time>
      </trkpt>
      <trkpt lat="48.5721" lon="-4.46533">
        <ele>10.3</ele>
        <time>2011-04-05T15:21:34Z</time>
      </trkpt>
      <trkpt lat="48.57211" lon="-4.46531">
        <ele>11</ele>
        <time>2011-04-05T15:21:35Z</time>
      </trkpt>
      <trkpt lat="48.57211" lon="-4.46529">
        <ele>12.1</ele>
        <time>2011-04-05T15:21:37Z</time>
      </trkpt>
      <trkpt lat="48.57211" lon="-4.46527">
        <ele>13.8</ele>
        <time>2011-04-05T15:21:38Z</time>
      </trkpt>
      <trkpt lat="48.57212" lon="-4.46525">
        <ele>14.8</ele>
        <time>2011-04-05T15:21:38Z</time>
      </trkpt>
      <trkpt lat="48.57212" lon="-4.46523">
        <ele>16</ele>
        <time>2011-04-05T15:21:39Z</time>
      </trkpt>
      <trkpt lat="48.57212" lon="-4.4652">
        <ele>15.7</ele>
        <time>2011-04-05T15:21:40Z</time>
      </trkpt>
      <trkpt lat="48.57212" lon="-4.46517">
        <ele>16.2</ele>
        <time>2011-04-05T15:21:41Z</time>
      </trkpt>
      <trkpt lat="48.57212" lon="-4.46514">
        <ele>16.8</ele>
        <time>2011-04-05T15:21:42Z</time>
      </trkpt>
      <trkpt lat="48.57212" lon="-4.46513">
        <ele>17.1</ele>
        <time>2011-04-05T15:21:43Z</time>
      </trkpt>
      <trkpt lat="48.57211" lon="-4.4651">
        <ele>17.2</ele>
        <time>2011-04-05T15:21:43Z</time>
      </trkpt>
      <trkpt lat="48.57211" lon="-4.46508">
        <ele>17.7</ele>
        <time>2011-04-05T15:21:44Z</time>
      </trkpt>
      <trkpt lat="48.57211" lon="-4.46506">
        <ele>17.3</ele>
        <time>2011-04-05T15:21:45Z</time>
      </trkpt>
      <trkpt lat="48.57212" lon="-4.46504">
        <ele>17.7</ele>
        <time>2011-04-05T15:21:46Z</time>
      </trkpt>
      <trkpt lat="48.57211" lon="-4.46502">
        <ele>18</ele>
        <time>2011-04-05T15:21:47Z</time>
      </trkpt>
      <trkpt lat="48.57211" lon="-4.46502">
        <ele>18</ele>
        <time>2011-04-05T15:22:03Z</time>
      </trkpt>
      <trkpt lat="48.57211" lon="-4.46467">
        <ele>34.1</ele>
        <time>2011-04-05T15:22:03Z</time>
      </trkpt>
      <trkpt lat="48.57212" lon="-4.46466">
        <ele>34.3</ele>
        <time>2011-04-05T15:22:04Z</time>
      </trkpt>
      <trkpt lat="48.57212" lon="-4.46463">
        <ele>34.4</ele>
        <time>2011-04-05T15:22:05Z</time>
      </trkpt>
      <trkpt lat="48.57213" lon="-4.46461">
        <ele>33.3</ele>
        <time>2011-04-05T15:22:06Z</time>
      </trkpt>
      <trkpt lat="48.57214" lon="-4.46458">
        <ele>33</ele>
        <time>2011-04-05T15:22:07Z</time>
      </trkpt>
      <trkpt lat="48.57214" lon="-4.46456">
        <ele>32.2</ele>
        <time>2011-04-05T15:22:08Z</time>
      </trkpt>
      <trkpt lat="48.57215" lon="-4.46454">
        <ele>31.6</ele>
        <time>2011-04-05T15:22:09Z</time>
      </trkpt>
      <trkpt lat="48.57215" lon="-4.46452">
        <ele>31.5</ele>
        <time>2011-04-05T15:22:10Z</time>
      </trkpt>
      <trkpt lat="48.57216" lon="-4.4645">
        <ele>30</ele>
        <time>2011-04-05T15:22:12Z</time>
      </trkpt>
      <trkpt lat="48.57215" lon="-4.46448">
        <ele>30.9</ele>
        <time>2011-04-05T15:22:13Z</time>
      </trkpt>
      <trkpt lat="48.57215" lon="-4.46446">
        <ele>31.6</ele>
        <time>2011-04-05T15:22:13Z</time>
      </trkpt>
      <trkpt lat="48.57216" lon="-4.46445">
        <ele>30.7</ele>
        <time>2011-04-05T15:22:14Z</time>
      </trkpt>
      <trkpt lat="48.57217" lon="-4.46444">
        <ele>31.7</ele>
        <time>2011-04-05T15:22:15Z</time>
      </trkpt>
      <trkpt lat="48.57219" lon="-4.46442">
        <ele>30.4</ele>
        <time>2011-04-05T15:22:15Z</time>
      </trkpt>
      <trkpt lat="48.57218" lon="-4.4644">
        <ele>31.4</ele>
        <time>2011-04-05T15:22:17Z</time>
      </trkpt>
      <trkpt lat="48.57218" lon="-4.4644">
        <ele>31.4</ele>
        <time>2011-04-05T15:22:29Z</time>
      </trkpt>
      <trkpt lat="48.57229" lon="-4.46412">
        <ele>24.5</ele>
        <time>2011-04-05T15:22:30Z</time>
      </trkpt>
      <trkpt lat="48.57231" lon="-4.4641">
        <ele>23.9</ele>
        <time>2011-04-05T15:22:32Z</time>
      </trkpt>
      <trkpt lat="48.57232" lon="-4.46408">
        <ele>24.2</ele>
        <time>2011-04-05T15:22:32Z</time>
      </trkpt>
      <trkpt lat="48.57233" lon="-4.46406">
        <ele>23.5</ele>
        <time>2011-04-05T15:22:33Z</time>
      </trkpt>
      <trkpt lat="48.57234" lon="-4.46405">
        <ele>22.9</ele>
        <time>2011-04-05T15:22:34Z</time>
      </trkpt>
      <trkpt lat="48.57235" lon="-4.46403">
        <ele>22.4</ele>
        <time>2011-04-05T15:22:35Z</time>
      </trkpt>
      <trkpt lat="48.57236" lon="-4.46402">
        <ele>22</ele>
        <time>2011-04-05T15:22:37Z</time>
      </trkpt>
      <trkpt lat="48.57236" lon="-4.46402">
        <ele>22</ele>
        <time>2011-04-05T15:22:45Z</time>
      </trkpt>
      <trkpt lat="48.57239" lon="-4.4638">
        <ele>28.3</ele>
        <time>2011-04-05T15:22:47Z</time>
      </trkpt>
      <trkpt lat="48.57239" lon="-4.46378">
        <ele>28.3</ele>
        <time>2011-04-05T15:22:48Z</time>
      </trkpt>
      <trkpt lat="48.5724" lon="-4.46376">
        <ele>28.7</ele>
        <time>2011-04-05T15:22:48Z</time>
      </trkpt>
      <trkpt lat="48.57239" lon="-4.46374">
        <ele>29.4</ele>
        <time>2011-04-05T15:22:49Z</time>
      </trkpt>
      <trkpt lat="48.57238" lon="-4.46371">
        <ele>30.9</ele>
        <time>2011-04-05T15:22:50Z</time>
      </trkpt>
      <trkpt lat="48.57238" lon="-4.46369">
        <ele>31.6</ele>
        <time>2011-04-05T15:22:51Z</time>
      </trkpt>
      <trkpt lat="48.57239" lon="-4.46367">
        <ele>31.3</ele>
        <time>2011-04-05T15:22:52Z</time>
      </trkpt>
      <trkpt lat="48.5724" lon="-4.46365">
        <ele>32.7</ele>
        <time>2011-04-05T15:22:54Z</time>
      </trkpt>
      <trkpt lat="48.5724" lon="-4.46365">
        <ele>32.7</ele>
        <time>2011-04-05T15:23:09Z</time>
      </trkpt>
      <trkpt lat="48.57237" lon="-4.46334">
        <ele>37.1</ele>
        <time>2011-04-05T15:23:10Z</time>
      </trkpt>
      <trkpt lat="48.57237" lon="-4.46331">
        <ele>36.2</ele>
        <time>2011-04-05T15:23:12Z</time>
      </trkpt>
      <trkpt lat="48.57237" lon="-4.46329">
        <ele>35.4</ele>
        <time>2011-04-05T15:23:12Z</time>
      </trkpt>
      <trkpt lat="48.57236" lon="-4.46327">
        <ele>34.9</ele>
        <time>2011-04-05T15:23:13Z</time>
      </trkpt>
      <trkpt lat="48.57237" lon="-4.46324">
        <ele>35.3</ele>
        <time>2011-04-05T15:23:14Z</time>
      </trkpt>
      <trkpt lat="48.57236" lon="-4.46322">
        <ele>36.9</ele>
        <time>2011-04-05T15:23:15Z</time>
      </trkpt>
      <trkpt lat="48.57236" lon="-4.4632">
        <ele>37.5</ele>
        <time>2011-04-05T15:23:16Z</time>
      </trkpt>
      <trkpt lat="48.57236" lon="-4.46318">
        <ele>38.7</ele>
        <time>2011-04-05T15:23:18Z</time>
      </trkpt>
      <trkpt lat="48.57235" lon="-4.46316">
        <ele>39.8</ele>
        <time>2011-04-05T15:23:18Z</time>
      </trkpt>
      <trkpt lat="48.57236" lon="-4.46314">
        <ele>41.7</ele>
        <time>2011-04-05T15:23:20Z</time>
      </trkpt>
      <trkpt lat="48.57236" lon="-4.46314">
        <ele>41.7</ele>
        <time>2011-04-05T15:23:27Z</time>
      </trkpt>
      <trkpt lat="48.57228" lon="-4.46293">
        <ele>51.6</ele>
        <time>2011-04-05T15:23:28Z</time>
      </trkpt>
      <trkpt lat="48.57228" lon="-4.46292">
        <ele>52.3</ele>
        <time>2011-04-05T15:23:29Z</time>
      </trkpt>
      <trkpt lat="48.57227" lon="-4.46289">
        <ele>52.6</ele>
        <time>2011-04-05T15:23:30Z</time>
      </trkpt>
      <trkpt lat="48.57227" lon="-4.46286">
        <ele>52.7</ele>
        <time>2011-04-05T15:23:31Z</time>
      </trkpt>
      <trkpt lat="48.57225" lon="-4.46282">
        <ele>53.5</ele>
        <time>2011-04-05T15:23:32Z</time>
      </trkpt>
      <trkpt lat="48.57225" lon="-4.4628">
        <ele>53.9</ele>
        <time>2011-04-05T15:23:33Z</time>
      </trkpt>
      <trkpt lat="48.57225" lon="-4.46278">
        <ele>53.7</ele>
        <time>2011-04-05T15:23:34Z</time>
      </trkpt>
      <trkpt lat="48.57225" lon="-4.46276">
        <ele>53.6</ele>
        <time>2011-04-05T15:23:35Z</time>
      </trkpt>
      <trkpt lat="48.57226" lon="-4.46275">
        <ele>53.4</ele>
        <time>2011-04-05T15:23:36Z</time>
      </trkpt>
      <trkpt lat="48.57227" lon="-4.46273">
        <ele>53.3</ele>
        <time>2011-04-05T15:23:37Z</time>
      </trkpt>
      <trkpt lat="48.57227" lon="-4.46271">
        <ele>53</ele>
        <time>2011-04-05T15:23:38Z</time>
      </trkpt>
      <trkpt lat="48.57228" lon="-4.46269">
        <ele>52.2</ele>
        <time>2011-04-05T15:23:39Z</time>
      </trkpt>
      <trkpt lat="48.57228" lon="-4.46267">
        <ele>52.4</ele>
        <time>2011-04-05T15:23:40Z</time>
      </trkpt>
      <trkpt lat="48.57228" lon="-4.46267">
        <ele>52.4</ele>
        <time>2011-04-05T15:23:43Z</time>
      </trkpt>
      <trkpt lat="48.57232" lon="-4.46257">
        <ele>43.8</ele>
        <time>2011-04-05T15:23:44Z</time>
      </trkpt>
      <trkpt lat="48.57232" lon="-4.46254">
        <ele>42.7</ele>
        <time>2011-04-05T15:23:46Z</time>
      </trkpt>
      <trkpt lat="48.57232" lon="-4.46252">
        <ele>42.9</ele>
        <time>2011-04-05T15:23:47Z</time>
      </trkpt>
      <trkpt lat="48.57233" lon="-4.4625">
        <ele>42.8</ele>
        <time>2011-04-05T15:23:47Z</time>
      </trkpt>
      <trkpt lat="48.57233" lon="-4.46249">
        <ele>42.5</ele>
        <time>2011-04-05T15:23:48Z</time>
      </trkpt>
      <trkpt lat="48.57233" lon="-4.46246">
        <ele>42.4</ele>
        <time>2011-04-05T15:23:49Z</time>
      </trkpt>
      <trkpt lat="48.57233" lon="-4.46243">
        <ele>42.5</ele>
        <time>2011-04-05T15:23:50Z</time>
      </trkpt>
      <trkpt lat="48.57233" lon="-4.46241">
        <ele>42.3</ele>
        <time>2011-04-05T15:23:51Z</time>
      </trkpt>
      <trkpt lat="48.57233" lon="-4.46238">
        <ele>42.5</ele>
        <time>2011-04-05T15:23:52Z</time>
      </trkpt>
      <trkpt lat="48.57233" lon="-4.46236">
        <ele>42.5</ele>
        <time>2011-04-05T15:23:53Z</time>
      </trkpt>
      <trkpt lat="48.57234" lon="-4.46234">
        <ele>42.4</ele>
        <time>2011-04-05T15:23:54Z</time>
      </trkpt>
      <trkpt lat="48.57234" lon="-4.46232">
        <ele>42.4</ele>
        <time>2011-04-05T15:23:55Z</time>
      </trkpt>
      <trkpt lat="48.57234" lon="-4.46229">
        <ele>42.7</ele>
        <time>2011-04-05T15:23:56Z</time>
      </trkpt>
      <trkpt lat="48.57234" lon="-4.46227">
        <ele>42.8</ele>
        <time>2011-04-05T15:23:57Z</time>
      </trkpt>
      <trkpt lat="48.57235" lon="-4.46225">
        <ele>41.2</ele>
        <time>2011-04-05T15:23:58Z</time>
      </trkpt>
      <trkpt lat="48.57236" lon="-4.46222">
        <ele>40</ele>
        <time>2011-04-05T15:23:59Z</time>
      </trkpt>
      <trkpt lat="48.57236" lon="-4.46222">
        <ele>40</ele>
        <time>2011-04-05T15:24:07Z</time>
      </trkpt>
      <trkpt lat="48.57241" lon="-4.46203">
        <ele>33.4</ele>
        <time>2011-04-05T15:24:08Z</time>
      </trkpt>
      <trkpt lat="48.57241" lon="-4.462">
        <ele>33.8</ele>
        <time>2011-04-05T15:24:09Z</time>
      </trkpt>
      <trkpt lat="48.57241" lon="-4.46197">
        <ele>34</ele>
        <time>2011-04-05T15:24:10Z</time>
      </trkpt>
      <trkpt lat="48.57241" lon="-4.46194">
        <ele>34.5</ele>
        <time>2011-04-05T15:24:11Z</time>
      </trkpt>
      <trkpt lat="48.57241" lon="-4.46194">
        <ele>34.5</ele>
        <time>2011-04-05T15:24:12Z</time>
      </trkpt>
      <trkpt lat="48.57241" lon="-4.46188">
        <ele>36.3</ele>
        <time>2011-04-05T15:24:13Z</time>
      </trkpt>
      <trkpt lat="48.57242" lon="-4.46185">
        <ele>36.8</ele>
        <time>2011-04-05T15:24:14Z</time>
      </trkpt>
      <trkpt lat="48.57242" lon="-4.46184">
        <ele>36.8</ele>
        <time>2011-04-05T15:24:15Z</time>
      </trkpt>
      <trkpt lat="48.57243" lon="-4.46181">
        <ele>35.8</ele>
        <time>2011-04-05T15:24:16Z</time>
      </trkpt>
      <trkpt lat="48.57243" lon="-4.46179">
        <ele>35.3</ele>
        <time>2011-04-05T15:24:17Z</time>
      </trkpt>
      <trkpt lat="48.57243" lon="-4.46179">
        <ele>35.3</ele>
        <time>2011-04-05T15:24:25Z</time>
      </trkpt>
      <trkpt lat="48.57249" lon="-4.46164">
        <ele>29.9</ele>
        <time>2011-04-05T15:24:26Z</time>
      </trkpt>
      <trkpt lat="48.5725" lon="-4.46161">
        <ele>31.5</ele>
        <time>2011-04-05T15:24:28Z</time>
      </trkpt>
      <trkpt lat="48.5725" lon="-4.46158">
        <ele>31.7</ele>
        <time>2011-04-05T15:24:29Z</time>
      </trkpt>
      <trkpt lat="48.57249" lon="-4.46156">
        <ele>31.8</ele>
        <time>2011-04-05T15:24:30Z</time>
      </trkpt>
      <trkpt lat="48.57249" lon="-4.46153">
        <ele>31.5</ele>
        <time>2011-04-05T15:24:31Z</time>
      </trkpt>
      <trkpt lat="48.57249" lon="-4.46153">
        <ele>31.5</ele>
        <time>2011-04-05T15:24:33Z</time>
      </trkpt>
      <trkpt lat="48.57247" lon="-4.46145">
        <ele>32.5</ele>
        <time>2011-04-05T15:24:34Z</time>
      </trkpt>
      <trkpt lat="48.57247" lon="-4.46144">
        <ele>32.6</ele>
        <time>2011-04-05T15:24:35Z</time>
      </trkpt>
      <trkpt lat="48.57246" lon="-4.46142">
        <ele>32.9</ele>
        <time>2011-04-05T15:24:36Z</time>
      </trkpt>
      <trkpt lat="48.57244" lon="-4.46142">
        <ele>33.73</ele>
        <time>2011-04-05T15:24:37Z</time>
      </trkpt>
      <trkpt lat="48.57244" lon="-4.46141">
        <ele>33.7</ele>
        <time>2011-04-05T15:24:39Z</time>
      </trkpt>
      <trkpt lat="48.57244" lon="-4.46141">
        <ele>33.7</ele>
        <time>2011-04-05T15:24:39Z</time>
      </trkpt>
      <trkpt lat="48.57242" lon="-4.46137">
        <ele>32.3</ele>
        <time>2011-04-05T15:24:40Z</time>
      </trkpt>
      <trkpt lat="48.57241" lon="-4.46135">
        <ele>32.7</ele>
        <time>2011-04-05T15:24:42Z</time>
      </trkpt>
      <trkpt lat="48.5724" lon="-4.46134">
        <ele>32.2</ele>
        <time>2011-04-05T15:24:43Z</time>
      </trkpt>
      <trkpt lat="48.5724" lon="-4.46132">
        <ele>32.3</ele>
        <time>2011-04-05T15:24:44Z</time>
      </trkpt>
      <trkpt lat="48.57238" lon="-4.46132">
        <ele>32.53</ele>
        <time>2011-04-05T15:24:46Z</time>
      </trkpt>
      <trkpt lat="48.57237" lon="-4.46131">
        <ele>32.9</ele>
        <time>2011-04-05T15:24:47Z</time>
      </trkpt>
      <trkpt lat="48.57236" lon="-4.46128">
        <ele>32.9</ele>
        <time>2011-04-05T15:24:48Z</time>
      </trkpt>
      <trkpt lat="48.57234" lon="-4.46127">
        <ele>32.4</ele>
        <time>2011-04-05T15:24:49Z</time>
      </trkpt>
      <trkpt lat="48.57233" lon="-4.46125">
        <ele>32.5</ele>
        <time>2011-04-05T15:24:50Z</time>
      </trkpt>
      <trkpt lat="48.57231" lon="-4.46124">
        <ele>32.2</ele>
        <time>2011-04-05T15:24:51Z</time>
      </trkpt>
      <trkpt lat="48.57229" lon="-4.46122">
        <ele>31.9</ele>
        <time>2011-04-05T15:24:51Z</time>
      </trkpt>
      <trkpt lat="48.57228" lon="-4.46121">
        <ele>32.7</ele>
        <time>2011-04-05T15:24:52Z</time>
      </trkpt>
      <trkpt lat="48.57227" lon="-4.4612">
        <ele>33.1</ele>
        <time>2011-04-05T15:24:53Z</time>
      </trkpt>
      <trkpt lat="48.57227" lon="-4.46118">
        <ele>33.6</ele>
        <time>2011-04-05T15:24:54Z</time>
      </trkpt>
      <trkpt lat="48.57225" lon="-4.46116">
        <ele>34.2</ele>
        <time>2011-04-05T15:24:55Z</time>
      </trkpt>
      <trkpt lat="48.57224" lon="-4.46113">
        <ele>34.4</ele>
        <time>2011-04-05T15:24:56Z</time>
      </trkpt>
      <trkpt lat="48.57223" lon="-4.46111">
        <ele>34.9</ele>
        <time>2011-04-05T15:24:57Z</time>
      </trkpt>
      <trkpt lat="48.57223" lon="-4.46109">
        <ele>35.9</ele>
        <time>2011-04-05T15:24:58Z</time>
      </trkpt>
      <trkpt lat="48.57222" lon="-4.46106">
        <ele>35.2</ele>
        <time>2011-04-05T15:24:59Z</time>
      </trkpt>
      <trkpt lat="48.57222" lon="-4.46104">
        <ele>35.1</ele>
        <time>2011-04-05T15:25:00Z</time>
      </trkpt>
      <trkpt lat="48.57223" lon="-4.46102">
        <ele>34.9</ele>
        <time>2011-04-05T15:25:01Z</time>
      </trkpt>
      <trkpt lat="48.57223" lon="-4.461">
        <ele>35.7</ele>
        <time>2011-04-05T15:25:02Z</time>
      </trkpt>
      <trkpt lat="48.57222" lon="-4.46097">
        <ele>35.7</ele>
        <time>2011-04-05T15:25:03Z</time>
      </trkpt>
      <trkpt lat="48.57222" lon="-4.46094">
        <ele>34.4</ele>
        <time>2011-04-05T15:25:04Z</time>
      </trkpt>
      <trkpt lat="48.57222" lon="-4.46092">
        <ele>33.6</ele>
        <time>2011-04-05T15:25:05Z</time>
      </trkpt>
      <trkpt lat="48.57222" lon="-4.46089">
        <ele>33.1</ele>
        <time>2011-04-05T15:25:06Z</time>
      </trkpt>
      <trkpt lat="48.57222" lon="-4.46087">
        <ele>32.6</ele>
        <time>2011-04-05T15:25:07Z</time>
      </trkpt>
      <trkpt lat="48.57222" lon="-4.46085">
        <ele>33.2</ele>
        <time>2011-04-05T15:25:08Z</time>
      </trkpt>
      <trkpt lat="48.57221" lon="-4.46082">
        <ele>33.7</ele>
        <time>2011-04-05T15:25:09Z</time>
      </trkpt>
      <trkpt lat="48.57222" lon="-4.4608">
        <ele>34.9</ele>
        <time>2011-04-05T15:25:10Z</time>
      </trkpt>
      <trkpt lat="48.57223" lon="-4.46078">
        <ele>34.1</ele>
        <time>2011-04-05T15:25:12Z</time>
      </trkpt>
      <trkpt lat="48.57225" lon="-4.46076">
        <ele>32.8</ele>
        <time>2011-04-05T15:25:12Z</time>
      </trkpt>
      <trkpt lat="48.57226" lon="-4.46075">
        <ele>32.3</ele>
        <time>2011-04-05T15:25:14Z</time>
      </trkpt>
      <trkpt lat="48.57226" lon="-4.46075">
        <ele>32.3</ele>
        <time>2011-04-05T15:25:21Z</time>
      </trkpt>
      <trkpt lat="48.57232" lon="-4.46054">
        <ele>31.6</ele>
        <time>2011-04-05T15:25:22Z</time>
      </trkpt>
      <trkpt lat="48.57233" lon="-4.46052">
        <ele>31.6</ele>
        <time>2011-04-05T15:25:24Z</time>
      </trkpt>
      <trkpt lat="48.57234" lon="-4.46051">
        <ele>31.5</ele>
        <time>2011-04-05T15:25:25Z</time>
      </trkpt>
      <trkpt lat="48.57235" lon="-4.46049">
        <ele>31.6</ele>
        <time>2011-04-05T15:25:26Z</time>
      </trkpt>
      <trkpt lat="48.57236" lon="-4.46047">
        <ele>32.4</ele>
        <time>2011-04-05T15:25:26Z</time>
      </trkpt>
      <trkpt lat="48.57236" lon="-4.46045">
        <ele>33.1</ele>
        <time>2011-04-05T15:25:27Z</time>
      </trkpt>
      <trkpt lat="48.57234" lon="-4.46041">
        <ele>33</ele>
        <time>2011-04-05T15:25:28Z</time>
      </trkpt>
      <trkpt lat="48.57232" lon="-4.46038">
        <ele>32.7</ele>
        <time>2011-04-05T15:25:29Z</time>
      </trkpt>
      <trkpt lat="48.57232" lon="-4.46036">
        <ele>32.6</ele>
        <time>2011-04-05T15:25:30Z</time>
      </trkpt>
      <trkpt lat="48.57232" lon="-4.46034">
        <ele>32.7</ele>
        <time>2011-04-05T15:25:31Z</time>
      </trkpt>
      <trkpt lat="48.57232" lon="-4.46032">
        <ele>31.8</ele>
        <time>2011-04-05T15:25:32Z</time>
      </trkpt>
      <trkpt lat="48.57231" lon="-4.46029">
        <ele>32</ele>
        <time>2011-04-05T15:25:33Z</time>
      </trkpt>
      <trkpt lat="48.57231" lon="-4.46027">
        <ele>32</ele>
        <time>2011-04-05T15:25:34Z</time>
      </trkpt>
      <trkpt lat="48.5723" lon="-4.46025">
        <ele>32.2</ele>
        <time>2011-04-05T15:25:35Z</time>
      </trkpt>
      <trkpt lat="48.5723" lon="-4.46023">
        <ele>32.3</ele>
        <time>2011-04-05T15:25:36Z</time>
      </trkpt>
      <trkpt lat="48.57229" lon="-4.46021">
        <ele>32.7</ele>
        <time>2011-04-05T15:25:38Z</time>
      </trkpt>
      <trkpt lat="48.57229" lon="-4.46019">
        <ele>32.8</ele>
        <time>2011-04-05T15:25:38Z</time>
      </trkpt>
      <trkpt lat="48.57229" lon="-4.46017">
        <ele>32.9</ele>
        <time>2011-04-05T15:25:39Z</time>
      </trkpt>
      <trkpt lat="48.57228" lon="-4.46015">
        <ele>33.4</ele>
        <time>2011-04-05T15:25:40Z</time>
      </trkpt>
      <trkpt lat="48.57227" lon="-4.46013">
        <ele>34.4</ele>
        <time>2011-04-05T15:25:41Z</time>
      </trkpt>
      <trkpt lat="48.57227" lon="-4.46011">
        <ele>35</ele>
        <time>2011-04-05T15:25:43Z</time>
      </trkpt>
      <trkpt lat="48.57226" lon="-4.46009">
        <ele>35.1</ele>
        <time>2011-04-05T15:25:44Z</time>
      </trkpt>
      <trkpt lat="48.57226" lon="-4.46007">
        <ele>35.1</ele>
        <time>2011-04-05T15:25:44Z</time>
      </trkpt>
      <trkpt lat="48.57225" lon="-4.46004">
        <ele>35.3</ele>
        <time>2011-04-05T15:25:45Z</time>
      </trkpt>
      <trkpt lat="48.57225" lon="-4.46002">
        <ele>35.4</ele>
        <time>2011-04-05T15:25:46Z</time>
      </trkpt>
      <trkpt lat="48.57224" lon="-4.46">
        <ele>35</ele>
        <time>2011-04-05T15:25:47Z</time>
      </trkpt>
      <trkpt lat="48.57224" lon="-4.45998">
        <ele>35</ele>
        <time>2011-04-05T15:25:48Z</time>
      </trkpt>
      <trkpt lat="48.57224" lon="-4.45996">
        <ele>34.6</ele>
        <time>2011-04-05T15:25:49Z</time>
      </trkpt>
      <trkpt lat="48.57223" lon="-4.45994">
        <ele>34.9</ele>
        <time>2011-04-05T15:25:50Z</time>
      </trkpt>
      <trkpt lat="48.57223" lon="-4.45992">
        <ele>35.3</ele>
        <time>2011-04-05T15:25:51Z</time>
      </trkpt>
      <trkpt lat="48.57222" lon="-4.4599">
        <ele>35.5</ele>
        <time>2011-04-05T15:25:52Z</time>
      </trkpt>
      <trkpt lat="48.57222" lon="-4.45989">
        <ele>35</ele>
        <time>2011-04-05T15:25:53Z</time>
      </trkpt>
      <trkpt lat="48.57222" lon="-4.45989">
        <ele>35</ele>
        <time>2011-04-05T15:25:55Z</time>
      </trkpt>
      <trkpt lat="48.5722" lon="-4.45983">
        <ele>34.8</ele>
        <time>2011-04-05T15:25:56Z</time>
      </trkpt>
      <trkpt lat="48.57219" lon="-4.45981">
        <ele>35.2</ele>
        <time>2011-04-05T15:25:58Z</time>
      </trkpt>
      <trkpt lat="48.57218" lon="-4.45978">
        <ele>35.4</ele>
        <time>2011-04-05T15:25:59Z</time>
      </trkpt>
      <trkpt lat="48.57218" lon="-4.45976">
        <ele>35.9</ele>
        <time>2011-04-05T15:26:00Z</time>
      </trkpt>
      <trkpt lat="48.57217" lon="-4.45974">
        <ele>36.3</ele>
        <time>2011-04-05T15:26:00Z</time>
      </trkpt>
      <trkpt lat="48.57216" lon="-4.45973">
        <ele>37.1</ele>
        <time>2011-04-05T15:26:02Z</time>
      </trkpt>
      <trkpt lat="48.57215" lon="-4.45971">
        <ele>37.5</ele>
        <time>2011-04-05T15:26:03Z</time>
      </trkpt>
      <trkpt lat="48.57214" lon="-4.45969">
        <ele>38.2</ele>
        <time>2011-04-05T15:26:04Z</time>
      </trkpt>
      <trkpt lat="48.57214" lon="-4.45967">
        <ele>38.3</ele>
        <time>2011-04-05T15:26:05Z</time>
      </trkpt>
      <trkpt lat="48.57213" lon="-4.45965">
        <ele>38.8</ele>
        <time>2011-04-05T15:26:06Z</time>
      </trkpt>
      <trkpt lat="48.57212" lon="-4.45963">
        <ele>39.3</ele>
        <time>2011-04-05T15:26:07Z</time>
      </trkpt>
      <trkpt lat="48.57212" lon="-4.45961">
        <ele>40</ele>
        <time>2011-04-05T15:26:08Z</time>
      </trkpt>
      <trkpt lat="48.57211" lon="-4.45959">
        <ele>40.7</ele>
        <time>2011-04-05T15:26:09Z</time>
      </trkpt>
      <trkpt lat="48.57211" lon="-4.45958">
        <ele>41.7</ele>
        <time>2011-04-05T15:26:10Z</time>
      </trkpt>
      <trkpt lat="48.5721" lon="-4.45956">
        <ele>42.8</ele>
        <time>2011-04-05T15:26:11Z</time>
      </trkpt>
      <trkpt lat="48.57209" lon="-4.45955">
        <ele>44.2</ele>
        <time>2011-04-05T15:26:11Z</time>
      </trkpt>
      <trkpt lat="48.57209" lon="-4.45952">
        <ele>44.7</ele>
        <time>2011-04-05T15:26:12Z</time>
      </trkpt>
      <trkpt lat="48.57209" lon="-4.4595">
        <ele>45.3</ele>
        <time>2011-04-05T15:26:13Z</time>
      </trkpt>
      <trkpt lat="48.57209" lon="-4.45949">
        <ele>45.2</ele>
        <time>2011-04-05T15:26:14Z</time>
      </trkpt>
      <trkpt lat="48.57208" lon="-4.45947">
        <ele>44.9</ele>
        <time>2011-04-05T15:26:15Z</time>
      </trkpt>
      <trkpt lat="48.57208" lon="-4.45945">
        <ele>45.7</ele>
        <time>2011-04-05T15:26:16Z</time>
      </trkpt>
      <trkpt lat="48.57208" lon="-4.45942">
        <ele>46</ele>
        <time>2011-04-05T15:26:17Z</time>
      </trkpt>
      <trkpt lat="48.57208" lon="-4.4594">
        <ele>46.8</ele>
        <time>2011-04-05T15:26:18Z</time>
      </trkpt>
      <trkpt lat="48.57208" lon="-4.45938">
        <ele>46.4</ele>
        <time>2011-04-05T15:26:19Z</time>
      </trkpt>
      <trkpt lat="48.57208" lon="-4.45936">
        <ele>47</ele>
        <time>2011-04-05T15:26:20Z</time>
      </trkpt>
      <trkpt lat="48.57209" lon="-4.45933">
        <ele>45.9</ele>
        <time>2011-04-05T15:26:20Z</time>
      </trkpt>
      <trkpt lat="48.57209" lon="-4.45931">
        <ele>45.2</ele>
        <time>2011-04-05T15:26:22Z</time>
      </trkpt>
      <trkpt lat="48.57209" lon="-4.45928">
        <ele>44.4</ele>
        <time>2011-04-05T15:26:23Z</time>
      </trkpt>
      <trkpt lat="48.5721" lon="-4.45925">
        <ele>43.7</ele>
        <time>2011-04-05T15:26:24Z</time>
      </trkpt>
      <trkpt lat="48.5721" lon="-4.45923">
        <ele>43.3</ele>
        <time>2011-04-05T15:26:25Z</time>
      </trkpt>
      <trkpt lat="48.5721" lon="-4.4592">
        <ele>42.8</ele>
        <time>2011-04-05T15:26:26Z</time>
      </trkpt>
      <trkpt lat="48.5721" lon="-4.45918">
        <ele>42.4</ele>
        <time>2011-04-05T15:26:27Z</time>
      </trkpt>
      <trkpt lat="48.5721" lon="-4.45915">
        <ele>42.1</ele>
        <time>2011-04-05T15:26:28Z</time>
      </trkpt>
      <trkpt lat="48.57209" lon="-4.45912">
        <ele>40.9</ele>
        <time>2011-04-05T15:26:29Z</time>
      </trkpt>
      <trkpt lat="48.5721" lon="-4.45911">
        <ele>39.7</ele>
        <time>2011-04-05T15:26:30Z</time>
      </trkpt>
      <trkpt lat="48.5721" lon="-4.45909">
        <ele>39.6</ele>
        <time>2011-04-05T15:26:30Z</time>
      </trkpt>
      <trkpt lat="48.5721" lon="-4.45906">
        <ele>39</ele>
        <time>2011-04-05T15:26:32Z</time>
      </trkpt>
      <trkpt lat="48.57211" lon="-4.45905">
        <ele>38.8</ele>
        <time>2011-04-05T15:26:33Z</time>
      </trkpt>
      <trkpt lat="48.57212" lon="-4.45902">
        <ele>38.7</ele>
        <time>2011-04-05T15:26:34Z</time>
      </trkpt>
      <trkpt lat="48.57211" lon="-4.459">
        <ele>38.4</ele>
        <time>2011-04-05T15:26:35Z</time>
      </trkpt>
      <trkpt lat="48.5721" lon="-4.45897">
        <ele>38.1</ele>
        <time>2011-04-05T15:26:36Z</time>
      </trkpt>
      <trkpt lat="48.5721" lon="-4.45895">
        <ele>38.5</ele>
        <time>2011-04-05T15:26:37Z</time>
      </trkpt>
      <trkpt lat="48.57208" lon="-4.45893">
        <ele>37.4</ele>
        <time>2011-04-05T15:26:38Z</time>
      </trkpt>
      <trkpt lat="48.57208" lon="-4.45892">
        <ele>36.8</ele>
        <time>2011-04-05T15:26:39Z</time>
      </trkpt>
      <trkpt lat="48.57207" lon="-4.4589">
        <ele>37.2</ele>
        <time>2011-04-05T15:26:40Z</time>
      </trkpt>
      <trkpt lat="48.57206" lon="-4.45887">
        <ele>37.1</ele>
        <time>2011-04-05T15:26:42Z</time>
      </trkpt>
      <trkpt lat="48.57205" lon="-4.45885">
        <ele>36.9</ele>
        <time>2011-04-05T15:26:42Z</time>
      </trkpt>
      <trkpt lat="48.57205" lon="-4.45883">
        <ele>36.9</ele>
        <time>2011-04-05T15:26:43Z</time>
      </trkpt>
      <trkpt lat="48.57204" lon="-4.45882">
        <ele>36.4</ele>
        <time>2011-04-05T15:26:44Z</time>
      </trkpt>
      <trkpt lat="48.57204" lon="-4.4588">
        <ele>36.9</ele>
        <time>2011-04-05T15:26:45Z</time>
      </trkpt>
      <trkpt lat="48.57203" lon="-4.45879">
        <ele>37.7</ele>
        <time>2011-04-05T15:26:46Z</time>
      </trkpt>
      <trkpt lat="48.57203" lon="-4.45877">
        <ele>38.6</ele>
        <time>2011-04-05T15:26:47Z</time>
      </trkpt>
      <trkpt lat="48.57202" lon="-4.45876">
        <ele>38.5</ele>
        <time>2011-04-05T15:26:48Z</time>
      </trkpt>
      <trkpt lat="48.57201" lon="-4.45874">
        <ele>38.8</ele>
        <time>2011-04-05T15:26:49Z</time>
      </trkpt>
      <trkpt lat="48.57201" lon="-4.45873">
        <ele>39.1</ele>
        <time>2011-04-05T15:26:50Z</time>
      </trkpt>
      <trkpt lat="48.572" lon="-4.4587">
        <ele>38.9</ele>
        <time>2011-04-05T15:26:52Z</time>
      </trkpt>
      <trkpt lat="48.572" lon="-4.45869">
        <ele>39.8</ele>
        <time>2011-04-05T15:26:53Z</time>
      </trkpt>
      <trkpt lat="48.572" lon="-4.45869">
        <ele>39.8</ele>
        <time>2011-04-05T15:26:55Z</time>
      </trkpt>
      <trkpt lat="48.57201" lon="-4.45862">
        <ele>39.9</ele>
        <time>2011-04-05T15:26:57Z</time>
      </trkpt>
      <trkpt lat="48.57201" lon="-4.45861">
        <ele>39.9</ele>
        <time>2011-04-05T15:26:58Z</time>
      </trkpt>
      <trkpt lat="48.57201" lon="-4.45859">
        <ele>39.6</ele>
        <time>2011-04-05T15:26:58Z</time>
      </trkpt>
      <trkpt lat="48.57201" lon="-4.45857">
        <ele>39.8</ele>
        <time>2011-04-05T15:26:59Z</time>
      </trkpt>
      <trkpt lat="48.57202" lon="-4.45855">
        <ele>40.2</ele>
        <time>2011-04-05T15:27:00Z</time>
      </trkpt>
      <trkpt lat="48.57201" lon="-4.45853">
        <ele>40.9</ele>
        <time>2011-04-05T15:27:01Z</time>
      </trkpt>
      <trkpt lat="48.57201" lon="-4.4585">
        <ele>40.8</ele>
        <time>2011-04-05T15:27:02Z</time>
      </trkpt>
      <trkpt lat="48.572" lon="-4.45847">
        <ele>41.2</ele>
        <time>2011-04-05T15:27:03Z</time>
      </trkpt>
      <trkpt lat="48.572" lon="-4.45844">
        <ele>42.2</ele>
        <time>2011-04-05T15:27:04Z</time>
      </trkpt>
      <trkpt lat="48.572" lon="-4.45842">
        <ele>42.8</ele>
        <time>2011-04-05T15:27:05Z</time>
      </trkpt>
      <trkpt lat="48.572" lon="-4.4584">
        <ele>42.7</ele>
        <time>2011-04-05T15:27:07Z</time>
      </trkpt>
      <trkpt lat="48.57201" lon="-4.45838">
        <ele>42.5</ele>
        <time>2011-04-05T15:27:08Z</time>
      </trkpt>
      <trkpt lat="48.57201" lon="-4.45836">
        <ele>42.9</ele>
        <time>2011-04-05T15:27:08Z</time>
      </trkpt>
      <trkpt lat="48.57201" lon="-4.45834">
        <ele>43.2</ele>
        <time>2011-04-05T15:27:09Z</time>
      </trkpt>
      <trkpt lat="48.57202" lon="-4.45832">
        <ele>43.1</ele>
        <time>2011-04-05T15:27:10Z</time>
      </trkpt>
      <trkpt lat="48.57202" lon="-4.4583">
        <ele>43.2</ele>
        <time>2011-04-05T15:27:10Z</time>
      </trkpt>
      <trkpt lat="48.57203" lon="-4.45829">
        <ele>43.6</ele>
        <time>2011-04-05T15:27:12Z</time>
      </trkpt>
      <trkpt lat="48.57203" lon="-4.45826">
        <ele>43.7</ele>
        <time>2011-04-05T15:27:13Z</time>
      </trkpt>
      <trkpt lat="48.57203" lon="-4.45824">
        <ele>43.6</ele>
        <time>2011-04-05T15:27:14Z</time>
      </trkpt>
      <trkpt lat="48.57204" lon="-4.45823">
        <ele>43.5</ele>
        <time>2011-04-05T15:27:15Z</time>
      </trkpt>
      <trkpt lat="48.57204" lon="-4.45821">
        <ele>43.6</ele>
        <time>2011-04-05T15:27:16Z</time>
      </trkpt>
      <trkpt lat="48.57204" lon="-4.45819">
        <ele>43.6</ele>
        <time>2011-04-05T15:27:17Z</time>
      </trkpt>
      <trkpt lat="48.57204" lon="-4.45817">
        <ele>43.6</ele>
        <time>2011-04-05T15:27:18Z</time>
      </trkpt>
      <trkpt lat="48.57204" lon="-4.45814">
        <ele>43.6</ele>
        <time>2011-04-05T15:27:19Z</time>
      </trkpt>
      <trkpt lat="48.57204" lon="-4.45812">
        <ele>43.4</ele>
        <time>2011-04-05T15:27:20Z</time>
      </trkpt>
      <trkpt lat="48.57204" lon="-4.4581">
        <ele>43.3</ele>
        <time>2011-04-05T15:27:21Z</time>
      </trkpt>
      <trkpt lat="48.57204" lon="-4.45808">
        <ele>43.3</ele>
        <time>2011-04-05T15:27:23Z</time>
      </trkpt>
      <trkpt lat="48.57204" lon="-4.45805">
        <ele>43.2</ele>
        <time>2011-04-05T15:27:24Z</time>
      </trkpt>
      <trkpt lat="48.57204" lon="-4.45802">
        <ele>43.5</ele>
        <time>2011-04-05T15:27:24Z</time>
      </trkpt>
      <trkpt lat="48.57204" lon="-4.45801">
        <ele>43.4</ele>
        <time>2011-04-05T15:27:25Z</time>
      </trkpt>
      <trkpt lat="48.57205" lon="-4.45799">
        <ele>43.4</ele>
        <time>2011-04-05T15:27:26Z</time>
      </trkpt>
      <trkpt lat="48.57205" lon="-4.45796">
        <ele>43.5</ele>
        <time>2011-04-05T15:27:27Z</time>
      </trkpt>
      <trkpt lat="48.57205" lon="-4.45794">
        <ele>43.4</ele>
        <time>2011-04-05T15:27:28Z</time>
      </trkpt>
      <trkpt lat="48.57204" lon="-4.45791">
        <ele>44</ele>
        <time>2011-04-05T15:27:29Z</time>
      </trkpt>
      <trkpt lat="48.57204" lon="-4.4579">
        <ele>43.8</ele>
        <time>2011-04-05T15:27:30Z</time>
      </trkpt>
      <trkpt lat="48.57206" lon="-4.4579">
        <ele>43.4</ele>
        <time>2011-04-05T15:27:31Z</time>
      </trkpt>
      <trkpt lat="48.57206" lon="-4.45788">
        <ele>43.4</ele>
        <time>2011-04-05T15:27:32Z</time>
      </trkpt>
      <trkpt lat="48.57207" lon="-4.45785">
        <ele>43.5</ele>
        <time>2011-04-05T15:27:33Z</time>
      </trkpt>
      <trkpt lat="48.57207" lon="-4.45783">
        <ele>43.6</ele>
        <time>2011-04-05T15:27:34Z</time>
      </trkpt>
      <trkpt lat="48.57207" lon="-4.45781">
        <ele>43.8</ele>
        <time>2011-04-05T15:27:35Z</time>
      </trkpt>
      <trkpt lat="48.57207" lon="-4.45778">
        <ele>43.8</ele>
        <time>2011-04-05T15:27:35Z</time>
      </trkpt>
      <trkpt lat="48.57207" lon="-4.45775">
        <ele>43.6</ele>
        <time>2011-04-05T15:27:37Z</time>
      </trkpt>
      <trkpt lat="48.57208" lon="-4.45773">
        <ele>43.7</ele>
        <time>2011-04-05T15:27:38Z</time>
      </trkpt>
      <trkpt lat="48.57208" lon="-4.45771">
        <ele>43.8</ele>
        <time>2011-04-05T15:27:39Z</time>
      </trkpt>
      <trkpt lat="48.57209" lon="-4.4577">
        <ele>43.9</ele>
        <time>2011-04-05T15:27:40Z</time>
      </trkpt>
      <trkpt lat="48.5721" lon="-4.45768">
        <ele>43.8</ele>
        <time>2011-04-05T15:27:41Z</time>
      </trkpt>
      <trkpt lat="48.57211" lon="-4.45767">
        <ele>43.7</ele>
        <time>2011-04-05T15:27:42Z</time>
      </trkpt>
      <trkpt lat="48.57211" lon="-4.45765">
        <ele>43.9</ele>
        <time>2011-04-05T15:27:43Z</time>
      </trkpt>
      <trkpt lat="48.57213" lon="-4.45764">
        <ele>43.8</ele>
        <time>2011-04-05T15:27:44Z</time>
      </trkpt>
      <trkpt lat="48.57214" lon="-4.45763">
        <ele>43.8</ele>
        <time>2011-04-05T15:27:45Z</time>
      </trkpt>
      <trkpt lat="48.57216" lon="-4.45762">
        <ele>43.9</ele>
        <time>2011-04-05T15:27:46Z</time>
      </trkpt>
      <trkpt lat="48.57218" lon="-4.4576">
        <ele>44</ele>
        <time>2011-04-05T15:27:47Z</time>
      </trkpt>
      <trkpt lat="48.57219" lon="-4.45759">
        <ele>44.2</ele>
        <time>2011-04-05T15:27:48Z</time>
      </trkpt>
      <trkpt lat="48.57221" lon="-4.45758">
        <ele>44</ele>
        <time>2011-04-05T15:27:49Z</time>
      </trkpt>
      <trkpt lat="48.57222" lon="-4.45757">
        <ele>43.8</ele>
        <time>2011-04-05T15:27:50Z</time>
      </trkpt>
      <trkpt lat="48.57222" lon="-4.45756">
        <ele>43.6</ele>
        <time>2011-04-05T15:27:51Z</time>
      </trkpt>
      <trkpt lat="48.57223" lon="-4.45754">
        <ele>43.1</ele>
        <time>2011-04-05T15:27:52Z</time>
      </trkpt>
      <trkpt lat="48.57223" lon="-4.45752">
        <ele>43.3</ele>
        <time>2011-04-05T15:27:53Z</time>
      </trkpt>
      <trkpt lat="48.57222" lon="-4.4575">
        <ele>43.4</ele>
        <time>2011-04-05T15:27:54Z</time>
      </trkpt>
      <trkpt lat="48.57222" lon="-4.45747">
        <ele>43.4</ele>
        <time>2011-04-05T15:27:55Z</time>
      </trkpt>
      <trkpt lat="48.57221" lon="-4.45745">
        <ele>43.5</ele>
        <time>2011-04-05T15:27:57Z</time>
      </trkpt>
      <trkpt lat="48.57221" lon="-4.45743">
        <ele>43.4</ele>
        <time>2011-04-05T15:27:58Z</time>
      </trkpt>
      <trkpt lat="48.5722" lon="-4.45741">
        <ele>43.4</ele>
        <time>2011-04-05T15:27:58Z</time>
      </trkpt>
      <trkpt lat="48.57219" lon="-4.45739">
        <ele>43.4</ele>
        <time>2011-04-05T15:27:59Z</time>
      </trkpt>
      <trkpt lat="48.57218" lon="-4.45737">
        <ele>43.3</ele>
        <time>2011-04-05T15:28:00Z</time>
      </trkpt>
      <trkpt lat="48.57218" lon="-4.45734">
        <ele>43.1</ele>
        <time>2011-04-05T15:28:01Z</time>
      </trkpt>
      <trkpt lat="48.57217" lon="-4.45732">
        <ele>43</ele>
        <time>2011-04-05T15:28:02Z</time>
      </trkpt>
      <trkpt lat="48.57217" lon="-4.4573">
        <ele>42.6</ele>
        <time>2011-04-05T15:28:03Z</time>
      </trkpt>
      <trkpt lat="48.57216" lon="-4.45728">
        <ele>42.2</ele>
        <time>2011-04-05T15:28:04Z</time>
      </trkpt>
      <trkpt lat="48.57216" lon="-4.45726">
        <ele>41.6</ele>
        <time>2011-04-05T15:28:05Z</time>
      </trkpt>
      <trkpt lat="48.57215" lon="-4.45724">
        <ele>41.3</ele>
        <time>2011-04-05T15:28:07Z</time>
      </trkpt>
      <trkpt lat="48.57215" lon="-4.45722">
        <ele>40.6</ele>
        <time>2011-04-05T15:28:08Z</time>
      </trkpt>
      <trkpt lat="48.57215" lon="-4.4572">
        <ele>40.1</ele>
        <time>2011-04-05T15:28:09Z</time>
      </trkpt>
      <trkpt lat="48.57214" lon="-4.45718">
        <ele>39.9</ele>
        <time>2011-04-05T15:28:09Z</time>
      </trkpt>
      <trkpt lat="48.57214" lon="-4.45716">
        <ele>39.3</ele>
        <time>2011-04-05T15:28:10Z</time>
      </trkpt>
      <trkpt lat="48.57213" lon="-4.45714">
        <ele>38.9</ele>
        <time>2011-04-05T15:28:11Z</time>
      </trkpt>
      <trkpt lat="48.57213" lon="-4.45712">
        <ele>38.9</ele>
        <time>2011-04-05T15:28:12Z</time>
      </trkpt>
      <trkpt lat="48.57213" lon="-4.4571">
        <ele>38.6</ele>
        <time>2011-04-05T15:28:13Z</time>
      </trkpt>
      <trkpt lat="48.57212" lon="-4.45708">
        <ele>38.3</ele>
        <time>2011-04-05T15:28:14Z</time>
      </trkpt>
      <trkpt lat="48.57212" lon="-4.45706">
        <ele>37.9</ele>
        <time>2011-04-05T15:28:15Z</time>
      </trkpt>
      <trkpt lat="48.57211" lon="-4.45703">
        <ele>37.9</ele>
        <time>2011-04-05T15:28:17Z</time>
      </trkpt>
      <trkpt lat="48.57211" lon="-4.457">
        <ele>37.7</ele>
        <time>2011-04-05T15:28:18Z</time>
      </trkpt>
      <trkpt lat="48.5721" lon="-4.45698">
        <ele>37.6</ele>
        <time>2011-04-05T15:28:18Z</time>
      </trkpt>
      <trkpt lat="48.5721" lon="-4.45696">
        <ele>37.5</ele>
        <time>2011-04-05T15:28:19Z</time>
      </trkpt>
      <trkpt lat="48.57211" lon="-4.45694">
        <ele>37.8</ele>
        <time>2011-04-05T15:28:20Z</time>
      </trkpt>
      <trkpt lat="48.57211" lon="-4.45692">
        <ele>37.1</ele>
        <time>2011-04-05T15:28:21Z</time>
      </trkpt>
      <trkpt lat="48.57211" lon="-4.4569">
        <ele>36.5</ele>
        <time>2011-04-05T15:28:22Z</time>
      </trkpt>
      <trkpt lat="48.57211" lon="-4.45688">
        <ele>36.2</ele>
        <time>2011-04-05T15:28:23Z</time>
      </trkpt>
      <trkpt lat="48.57211" lon="-4.45686">
        <ele>35.6</ele>
        <time>2011-04-05T15:28:24Z</time>
      </trkpt>
      <trkpt lat="48.57211" lon="-4.45685">
        <ele>35.1</ele>
        <time>2011-04-05T15:28:25Z</time>
      </trkpt>
      <trkpt lat="48.57211" lon="-4.45683">
        <ele>34.8</ele>
        <time>2011-04-05T15:28:26Z</time>
      </trkpt>
      <trkpt lat="48.5721" lon="-4.45681">
        <ele>34.7</ele>
        <time>2011-04-05T15:28:27Z</time>
      </trkpt>
      <trkpt lat="48.5721" lon="-4.45681">
        <ele>34.7</ele>
        <time>2011-04-05T15:33:17Z</time>
      </trkpt>
      <trkpt lat="48.5721" lon="-4.45676">
        <ele>38.5</ele>
        <time>2011-04-05T15:33:17Z</time>
      </trkpt>
      <trkpt lat="48.57209" lon="-4.45674">
        <ele>38.1</ele>
        <time>2011-04-05T15:33:19Z</time>
      </trkpt>
      <trkpt lat="48.57209" lon="-4.45672">
        <ele>37.8</ele>
        <time>2011-04-05T15:33:20Z</time>
      </trkpt>
      <trkpt lat="48.57209" lon="-4.45671">
        <ele>38.8</ele>
        <time>2011-04-05T15:33:22Z</time>
      </trkpt>
      <trkpt lat="48.57209" lon="-4.45669">
        <ele>37.9</ele>
        <time>2011-04-05T15:33:23Z</time>
      </trkpt>
      <trkpt lat="48.57209" lon="-4.45668">
        <ele>37</ele>
        <time>2011-04-05T15:33:24Z</time>
      </trkpt>
      <trkpt lat="48.57209" lon="-4.45668">
        <ele>37</ele>
        <time>2011-04-05T15:33:25Z</time>
      </trkpt>
      <trkpt lat="48.57208" lon="-4.45665">
        <ele>35.8</ele>
        <time>2011-04-05T15:33:27Z</time>
      </trkpt>
      <trkpt lat="48.57208" lon="-4.45663">
        <ele>35</ele>
        <time>2011-04-05T15:33:28Z</time>
      </trkpt>
      <trkpt lat="48.57207" lon="-4.4566">
        <ele>35.7</ele>
        <time>2011-04-05T15:33:29Z</time>
      </trkpt>
      <trkpt lat="48.57207" lon="-4.45657">
        <ele>34</ele>
        <time>2011-04-05T15:33:30Z</time>
      </trkpt>
      <trkpt lat="48.57205" lon="-4.45654">
        <ele>33.4</ele>
        <time>2011-04-05T15:33:31Z</time>
      </trkpt>
      <trkpt lat="48.57204" lon="-4.45652">
        <ele>32</ele>
        <time>2011-04-05T15:33:32Z</time>
      </trkpt>
      <trkpt lat="48.57203" lon="-4.45649">
        <ele>31.8</ele>
        <time>2011-04-05T15:33:33Z</time>
      </trkpt>
      <trkpt lat="48.57202" lon="-4.45646">
        <ele>31.8</ele>
        <time>2011-04-05T15:33:34Z</time>
      </trkpt>
      <trkpt lat="48.57202" lon="-4.45646">
        <ele>31.8</ele>
        <time>2011-04-05T15:33:50Z</time>
      </trkpt>
      <trkpt lat="48.57192" lon="-4.45613">
        <ele>37.2</ele>
        <time>2011-04-05T15:33:51Z</time>
      </trkpt>
      <trkpt lat="48.57192" lon="-4.45611">
        <ele>36.9</ele>
        <time>2011-04-05T15:33:53Z</time>
      </trkpt>
      <trkpt lat="48.57191" lon="-4.45609">
        <ele>36.9</ele>
        <time>2011-04-05T15:33:54Z</time>
      </trkpt>
      <trkpt lat="48.5719" lon="-4.45607">
        <ele>36.7</ele>
        <time>2011-04-05T15:33:55Z</time>
      </trkpt>
      <trkpt lat="48.5719" lon="-4.45607">
        <ele>36.7</ele>
        <time>2011-04-05T15:34:09Z</time>
      </trkpt>
      <trkpt lat="48.5718" lon="-4.45581">
        <ele>31.6</ele>
        <time>2011-04-05T15:34:10Z</time>
      </trkpt>
      <trkpt lat="48.57179" lon="-4.45579">
        <ele>32.5</ele>
        <time>2011-04-05T15:34:12Z</time>
      </trkpt>
      <trkpt lat="48.57178" lon="-4.45576">
        <ele>32.5</ele>
        <time>2011-04-05T15:34:13Z</time>
      </trkpt>
      <trkpt lat="48.57177" lon="-4.45574">
        <ele>31.7</ele>
        <time>2011-04-05T15:34:14Z</time>
      </trkpt>
      <trkpt lat="48.57176" lon="-4.45572">
        <ele>31.2</ele>
        <time>2011-04-05T15:34:15Z</time>
      </trkpt>
      <trkpt lat="48.57175" lon="-4.4557">
        <ele>30.3</ele>
        <time>2011-04-05T15:34:16Z</time>
      </trkpt>
      <trkpt lat="48.57175" lon="-4.4557">
        <ele>30.3</ele>
        <time>2011-04-05T15:34:17Z</time>
      </trkpt>
      <trkpt lat="48.57174" lon="-4.45563">
        <ele>30.6</ele>
        <time>2011-04-05T15:34:18Z</time>
      </trkpt>
      <trkpt lat="48.57173" lon="-4.4556">
        <ele>30.5</ele>
        <time>2011-04-05T15:34:19Z</time>
      </trkpt>
      <trkpt lat="48.57173" lon="-4.45558">
        <ele>30.4</ele>
        <time>2011-04-05T15:34:20Z</time>
      </trkpt>
      <trkpt lat="48.57173" lon="-4.45557">
        <ele>30.7</ele>
        <time>2011-04-05T15:34:20Z</time>
      </trkpt>
      <trkpt lat="48.57173" lon="-4.45554">
        <ele>30.8</ele>
        <time>2011-04-05T15:34:22Z</time>
      </trkpt>
      <trkpt lat="48.57172" lon="-4.45552">
        <ele>30.9</ele>
        <time>2011-04-05T15:34:23Z</time>
      </trkpt>
      <trkpt lat="48.57172" lon="-4.45552">
        <ele>30.9</ele>
        <time>2011-04-05T15:34:28Z</time>
      </trkpt>
      <trkpt lat="48.57168" lon="-4.45537">
        <ele>28.9</ele>
        <time>2011-04-05T15:34:28Z</time>
      </trkpt>
      <trkpt lat="48.57168" lon="-4.45534">
        <ele>28.2</ele>
        <time>2011-04-05T15:34:30Z</time>
      </trkpt>
      <trkpt lat="48.57167" lon="-4.45531">
        <ele>28.3</ele>
        <time>2011-04-05T15:34:31Z</time>
      </trkpt>
      <trkpt lat="48.57167" lon="-4.45529">
        <ele>28.3</ele>
        <time>2011-04-05T15:34:33Z</time>
      </trkpt>
      <trkpt lat="48.57167" lon="-4.45529">
        <ele>28.3</ele>
        <time>2011-04-05T15:34:41Z</time>
      </trkpt>
      <trkpt lat="48.5716" lon="-4.45507">
        <ele>25.9</ele>
        <time>2011-04-05T15:34:42Z</time>
      </trkpt>
      <trkpt lat="48.5716" lon="-4.45505">
        <ele>25.9</ele>
        <time>2011-04-05T15:34:44Z</time>
      </trkpt>
      <trkpt lat="48.5716" lon="-4.45501">
        <ele>25.8</ele>
        <time>2011-04-05T15:34:45Z</time>
      </trkpt>
      <trkpt lat="48.57159" lon="-4.45499">
        <ele>26.5</ele>
        <time>2011-04-05T15:34:46Z</time>
      </trkpt>
      <trkpt lat="48.57158" lon="-4.45497">
        <ele>26.6</ele>
        <time>2011-04-05T15:34:46Z</time>
      </trkpt>
      <trkpt lat="48.57157" lon="-4.45494">
        <ele>27</ele>
        <time>2011-04-05T15:34:48Z</time>
      </trkpt>
      <trkpt lat="48.57157" lon="-4.45494">
        <ele>27</ele>
        <time>2011-04-05T15:34:51Z</time>
      </trkpt>
      <trkpt lat="48.57155" lon="-4.45485">
        <ele>29</ele>
        <time>2011-04-05T15:34:51Z</time>
      </trkpt>
      <trkpt lat="48.57154" lon="-4.45482">
        <ele>28.8</ele>
        <time>2011-04-05T15:34:53Z</time>
      </trkpt>
      <trkpt lat="48.57154" lon="-4.45478">
        <ele>27.2</ele>
        <time>2011-04-05T15:34:54Z</time>
      </trkpt>
      <trkpt lat="48.57154" lon="-4.45476">
        <ele>26.2</ele>
        <time>2011-04-05T15:34:55Z</time>
      </trkpt>
      <trkpt lat="48.57153" lon="-4.45474">
        <ele>26</ele>
        <time>2011-04-05T15:34:56Z</time>
      </trkpt>
      <trkpt lat="48.57153" lon="-4.45471">
        <ele>24.9</ele>
        <time>2011-04-05T15:34:57Z</time>
      </trkpt>
      <trkpt lat="48.57152" lon="-4.4547">
        <ele>25.6</ele>
        <time>2011-04-05T15:34:57Z</time>
      </trkpt>
      <trkpt lat="48.57151" lon="-4.45469">
        <ele>25.9</ele>
        <time>2011-04-05T15:34:58Z</time>
      </trkpt>
      <trkpt lat="48.57151" lon="-4.45467">
        <ele>25.7</ele>
        <time>2011-04-05T15:34:59Z</time>
      </trkpt>
      <trkpt lat="48.5715" lon="-4.45465">
        <ele>25.9</ele>
        <time>2011-04-05T15:35:00Z</time>
      </trkpt>
      <trkpt lat="48.57149" lon="-4.45462">
        <ele>25.8</ele>
        <time>2011-04-05T15:35:01Z</time>
      </trkpt>
      <trkpt lat="48.57147" lon="-4.45461">
        <ele>27.2</ele>
        <time>2011-04-05T15:35:03Z</time>
      </trkpt>
      <trkpt lat="48.57147" lon="-4.45461">
        <ele>27.2</ele>
        <time>2011-04-05T15:35:13Z</time>
      </trkpt>
      <trkpt lat="48.57139" lon="-4.45434">
        <ele>28.7</ele>
        <time>2011-04-05T15:35:14Z</time>
      </trkpt>
      <trkpt lat="48.57139" lon="-4.45432">
        <ele>27.7</ele>
        <time>2011-04-05T15:35:15Z</time>
      </trkpt>
      <trkpt lat="48.57139" lon="-4.4543">
        <ele>26.8</ele>
        <time>2011-04-05T15:35:16Z</time>
      </trkpt>
      <trkpt lat="48.57138" lon="-4.45427">
        <ele>26.2</ele>
        <time>2011-04-05T15:35:17Z</time>
      </trkpt>
      <trkpt lat="48.57138" lon="-4.45427">
        <ele>26.2</ele>
        <time>2011-04-05T15:35:26Z</time>
      </trkpt>
      <trkpt lat="48.57132" lon="-4.45406">
        <ele>20.5</ele>
        <time>2011-04-05T15:35:27Z</time>
      </trkpt>
      <trkpt lat="48.57132" lon="-4.45403">
        <ele>19.8</ele>
        <time>2011-04-05T15:35:29Z</time>
      </trkpt>
      <trkpt lat="48.57131" lon="-4.45402">
        <ele>20.1</ele>
        <time>2011-04-05T15:35:30Z</time>
      </trkpt>
      <trkpt lat="48.5713" lon="-4.454">
        <ele>21</ele>
        <time>2011-04-05T15:35:31Z</time>
      </trkpt>
      <trkpt lat="48.57129" lon="-4.45397">
        <ele>20.9</ele>
        <time>2011-04-05T15:35:32Z</time>
      </trkpt>
      <trkpt lat="48.57129" lon="-4.45397">
        <ele>20.9</ele>
        <time>2011-04-05T15:35:47Z</time>
      </trkpt>
      <trkpt lat="48.57122" lon="-4.45357">
        <ele>12.9</ele>
        <time>2011-04-05T15:35:48Z</time>
      </trkpt>
      <trkpt lat="48.57122" lon="-4.45356">
        <ele>12.7</ele>
        <time>2011-04-05T15:35:49Z</time>
      </trkpt>
      <trkpt lat="48.57121" lon="-4.45355">
        <ele>14</ele>
        <time>2011-04-05T15:35:50Z</time>
      </trkpt>
      <trkpt lat="48.5712" lon="-4.45353">
        <ele>13.6</ele>
        <time>2011-04-05T15:35:51Z</time>
      </trkpt>
      <trkpt lat="48.5712" lon="-4.45353">
        <ele>13.6</ele>
        <time>2011-04-05T15:35:55Z</time>
      </trkpt>
      <trkpt lat="48.57117" lon="-4.45339">
        <ele>10.8</ele>
        <time>2011-04-05T15:35:56Z</time>
      </trkpt>
      <trkpt lat="48.57116" lon="-4.45337">
        <ele>11</ele>
        <time>2011-04-05T15:35:58Z</time>
      </trkpt>
      <trkpt lat="48.57115" lon="-4.45335">
        <ele>10.5</ele>
        <time>2011-04-05T15:35:59Z</time>
      </trkpt>
      <trkpt lat="48.57115" lon="-4.45334">
        <ele>10.2</ele>
        <time>2011-04-05T15:36:00Z</time>
      </trkpt>
      <trkpt lat="48.57115" lon="-4.45334">
        <ele>10.2</ele>
        <time>2011-04-05T15:36:10Z</time>
      </trkpt>
      <trkpt lat="48.57109" lon="-4.45309">
        <ele>3.5</ele>
        <time>2011-04-05T15:36:12Z</time>
      </trkpt>
      <trkpt lat="48.57108" lon="-4.45305">
        <ele>3.4</ele>
        <time>2011-04-05T15:36:13Z</time>
      </trkpt>
      <trkpt lat="48.57107" lon="-4.45302">
        <ele>3.6</ele>
        <time>2011-04-05T15:36:13Z</time>
      </trkpt>
      <trkpt lat="48.57106" lon="-4.453">
        <ele>4</ele>
        <time>2011-04-05T15:36:14Z</time>
      </trkpt>
      <trkpt lat="48.57105" lon="-4.45298">
        <ele>5</ele>
        <time>2011-04-05T15:36:15Z</time>
      </trkpt>
      <trkpt lat="48.57104" lon="-4.45295">
        <ele>6</ele>
        <time>2011-04-05T15:36:16Z</time>
      </trkpt>
      <trkpt lat="48.57103" lon="-4.45293">
        <ele>6.1</ele>
        <time>2011-04-05T15:36:18Z</time>
      </trkpt>
      <trkpt lat="48.57102" lon="-4.45291">
        <ele>6.3</ele>
        <time>2011-04-05T15:36:19Z</time>
      </trkpt>
      <trkpt lat="48.57101" lon="-4.4529">
        <ele>6.5</ele>
        <time>2011-04-05T15:36:19Z</time>
      </trkpt>
      <trkpt lat="48.57101" lon="-4.45288">
        <ele>6.8</ele>
        <time>2011-04-05T15:36:21Z</time>
      </trkpt>
      <trkpt lat="48.57101" lon="-4.45286">
        <ele>7.1</ele>
        <time>2011-04-05T15:36:22Z</time>
      </trkpt>
      <trkpt lat="48.571" lon="-4.45285">
        <ele>7.3</ele>
        <time>2011-04-05T15:36:23Z</time>
      </trkpt>
      <trkpt lat="48.57099" lon="-4.45283">
        <ele>8.5</ele>
        <time>2011-04-05T15:36:24Z</time>
      </trkpt>
      <trkpt lat="48.57099" lon="-4.45281">
        <ele>8.8</ele>
        <time>2011-04-05T15:36:25Z</time>
      </trkpt>
      <trkpt lat="48.57098" lon="-4.45279">
        <ele>9.3</ele>
        <time>2011-04-05T15:36:26Z</time>
      </trkpt>
      <trkpt lat="48.57098" lon="-4.45276">
        <ele>9.9</ele>
        <time>2011-04-05T15:36:27Z</time>
      </trkpt>
      <trkpt lat="48.57099" lon="-4.45273">
        <ele>10.6</ele>
        <time>2011-04-05T15:36:28Z</time>
      </trkpt>
      <trkpt lat="48.57098" lon="-4.45271">
        <ele>10.8</ele>
        <time>2011-04-05T15:36:29Z</time>
      </trkpt>
      <trkpt lat="48.57099" lon="-4.45269">
        <ele>11.2</ele>
        <time>2011-04-05T15:36:30Z</time>
      </trkpt>
      <trkpt lat="48.57099" lon="-4.45267">
        <ele>11.4</ele>
        <time>2011-04-05T15:36:32Z</time>
      </trkpt>
      <trkpt lat="48.57098" lon="-4.45265">
        <ele>11.1</ele>
        <time>2011-04-05T15:36:33Z</time>
      </trkpt>
      <trkpt lat="48.57098" lon="-4.45262">
        <ele>11.2</ele>
        <time>2011-04-05T15:36:33Z</time>
      </trkpt>
      <trkpt lat="48.57098" lon="-4.4526">
        <ele>10.9</ele>
        <time>2011-04-05T15:36:34Z</time>
      </trkpt>
      <trkpt lat="48.57098" lon="-4.45259">
        <ele>10.3</ele>
        <time>2011-04-05T15:36:35Z</time>
      </trkpt>
      <trkpt lat="48.57098" lon="-4.45257">
        <ele>10.4</ele>
        <time>2011-04-05T15:36:36Z</time>
      </trkpt>
      <trkpt lat="48.57097" lon="-4.45255">
        <ele>10.3</ele>
        <time>2011-04-05T15:36:37Z</time>
      </trkpt>
      <trkpt lat="48.57097" lon="-4.45252">
        <ele>9.9</ele>
        <time>2011-04-05T15:36:38Z</time>
      </trkpt>
      <trkpt lat="48.57096" lon="-4.4525">
        <ele>9.6</ele>
        <time>2011-04-05T15:36:39Z</time>
      </trkpt>
      <trkpt lat="48.57096" lon="-4.45248">
        <ele>8.9</ele>
        <time>2011-04-05T15:36:40Z</time>
      </trkpt>
      <trkpt lat="48.57095" lon="-4.45246">
        <ele>8.33</ele>
        <time>2011-04-05T15:36:42Z</time>
      </trkpt>
      <trkpt lat="48.57094" lon="-4.45245">
        <ele>7.3</ele>
        <time>2011-04-05T15:36:44Z</time>
      </trkpt>
      <trkpt lat="48.57094" lon="-4.45245">
        <ele>7.3</ele>
        <time>2011-04-05T15:36:52Z</time>
      </trkpt>
      <trkpt lat="48.5709" lon="-4.4523">
        <ele>7.5</ele>
        <time>2011-04-05T15:36:52Z</time>
      </trkpt>
      <trkpt lat="48.57089" lon="-4.45227">
        <ele>7.4</ele>
        <time>2011-04-05T15:36:54Z</time>
      </trkpt>
      <trkpt lat="48.57088" lon="-4.45226">
        <ele>7.5</ele>
        <time>2011-04-05T15:36:55Z</time>
      </trkpt>
      <trkpt lat="48.57087" lon="-4.45224">
        <ele>8.5</ele>
        <time>2011-04-05T15:36:56Z</time>
      </trkpt>
      <trkpt lat="48.57087" lon="-4.45223">
        <ele>8.8</ele>
        <time>2011-04-05T15:36:58Z</time>
      </trkpt>
      <trkpt lat="48.57087" lon="-4.45221">
        <ele>8.8</ele>
        <time>2011-04-05T15:36:59Z</time>
      </trkpt>
      <trkpt lat="48.57087" lon="-4.4522">
        <ele>9.3</ele>
        <time>2011-04-05T15:37:00Z</time>
      </trkpt>
      <trkpt lat="48.57086" lon="-4.45218">
        <ele>9.6</ele>
        <time>2011-04-05T15:37:00Z</time>
      </trkpt>
      <trkpt lat="48.57086" lon="-4.45216">
        <ele>8.8</ele>
        <time>2011-04-05T15:37:02Z</time>
      </trkpt>
      <trkpt lat="48.57086" lon="-4.45214">
        <ele>8.5</ele>
        <time>2011-04-05T15:37:03Z</time>
      </trkpt>
      <trkpt lat="48.57086" lon="-4.45212">
        <ele>8.9</ele>
        <time>2011-04-05T15:37:04Z</time>
      </trkpt>
      <trkpt lat="48.57086" lon="-4.4521">
        <ele>9.1</ele>
        <time>2011-04-05T15:37:05Z</time>
      </trkpt>
      <trkpt lat="48.57086" lon="-4.45209">
        <ele>9.9</ele>
        <time>2011-04-05T15:37:06Z</time>
      </trkpt>
      <trkpt lat="48.57086" lon="-4.45207">
        <ele>10.7</ele>
        <time>2011-04-05T15:37:06Z</time>
      </trkpt>
      <trkpt lat="48.57086" lon="-4.45205">
        <ele>11.2</ele>
        <time>2011-04-05T15:37:07Z</time>
      </trkpt>
      <trkpt lat="48.57085" lon="-4.45203">
        <ele>11.3</ele>
        <time>2011-04-05T15:37:08Z</time>
      </trkpt>
      <trkpt lat="48.57085" lon="-4.45201">
        <ele>11.9</ele>
        <time>2011-04-05T15:37:09Z</time>
      </trkpt>
      <trkpt lat="48.57085" lon="-4.45198">
        <ele>11.1</ele>
        <time>2011-04-05T15:37:10Z</time>
      </trkpt>
      <trkpt lat="48.57085" lon="-4.45196">
        <ele>10.7</ele>
        <time>2011-04-05T15:37:12Z</time>
      </trkpt>
      <trkpt lat="48.57084" lon="-4.45194">
        <ele>9.4</ele>
        <time>2011-04-05T15:37:12Z</time>
      </trkpt>
      <trkpt lat="48.57085" lon="-4.45191">
        <ele>9.2</ele>
        <time>2011-04-05T15:37:13Z</time>
      </trkpt>
      <trkpt lat="48.57084" lon="-4.45189">
        <ele>9.1</ele>
        <time>2011-04-05T15:37:14Z</time>
      </trkpt>
      <trkpt lat="48.57084" lon="-4.45186">
        <ele>10.3</ele>
        <time>2011-04-05T15:37:15Z</time>
      </trkpt>
      <trkpt lat="48.57084" lon="-4.45184">
        <ele>9.8</ele>
        <time>2011-04-05T15:37:16Z</time>
      </trkpt>
      <trkpt lat="48.57084" lon="-4.45181">
        <ele>9.8</ele>
        <time>2011-04-05T15:37:18Z</time>
      </trkpt>
      <trkpt lat="48.57083" lon="-4.45179">
        <ele>10.4</ele>
        <time>2011-04-05T15:37:19Z</time>
      </trkpt>
      <trkpt lat="48.57083" lon="-4.45178">
        <ele>10.2</ele>
        <time>2011-04-05T15:37:19Z</time>
      </trkpt>
      <trkpt lat="48.57083" lon="-4.45175">
        <ele>10.4</ele>
        <time>2011-04-05T15:37:20Z</time>
      </trkpt>
      <trkpt lat="48.57082" lon="-4.45173">
        <ele>10.8</ele>
        <time>2011-04-05T15:37:21Z</time>
      </trkpt>
      <trkpt lat="48.57082" lon="-4.45171">
        <ele>10.8</ele>
        <time>2011-04-05T15:37:22Z</time>
      </trkpt>
      <trkpt lat="48.57081" lon="-4.45169">
        <ele>11.9</ele>
        <time>2011-04-05T15:37:23Z</time>
      </trkpt>
      <trkpt lat="48.5708" lon="-4.45167">
        <ele>12.1</ele>
        <time>2011-04-05T15:37:24Z</time>
      </trkpt>
      <trkpt lat="48.5708" lon="-4.45165">
        <ele>12.7</ele>
        <time>2011-04-05T15:37:25Z</time>
      </trkpt>
      <trkpt lat="48.57079" lon="-4.45162">
        <ele>13</ele>
        <time>2011-04-05T15:37:26Z</time>
      </trkpt>
      <trkpt lat="48.57079" lon="-4.4516">
        <ele>13.3</ele>
        <time>2011-04-05T15:37:27Z</time>
      </trkpt>
      <trkpt lat="48.57079" lon="-4.45157">
        <ele>13.6</ele>
        <time>2011-04-05T15:37:28Z</time>
      </trkpt>
      <trkpt lat="48.57078" lon="-4.45156">
        <ele>14.3</ele>
        <time>2011-04-05T15:37:29Z</time>
      </trkpt>
      <trkpt lat="48.57077" lon="-4.45153">
        <ele>14.6</ele>
        <time>2011-04-05T15:37:30Z</time>
      </trkpt>
      <trkpt lat="48.57076" lon="-4.45151">
        <ele>15.2</ele>
        <time>2011-04-05T15:37:31Z</time>
      </trkpt>
      <trkpt lat="48.57075" lon="-4.45149">
        <ele>15.8</ele>
        <time>2011-04-05T15:37:32Z</time>
      </trkpt>
      <trkpt lat="48.57075" lon="-4.45147">
        <ele>15.4</ele>
        <time>2011-04-05T15:37:33Z</time>
      </trkpt>
      <trkpt lat="48.57074" lon="-4.45146">
        <ele>15.8</ele>
        <time>2011-04-05T15:37:34Z</time>
      </trkpt>
      <trkpt lat="48.57073" lon="-4.45145">
        <ele>17.5</ele>
        <time>2011-04-05T15:37:35Z</time>
      </trkpt>
      <trkpt lat="48.57072" lon="-4.45143">
        <ele>17.9</ele>
        <time>2011-04-05T15:37:36Z</time>
      </trkpt>
      <trkpt lat="48.57071" lon="-4.4514">
        <ele>18.2</ele>
        <time>2011-04-05T15:37:37Z</time>
      </trkpt>
      <trkpt lat="48.5707" lon="-4.45138">
        <ele>18.4</ele>
        <time>2011-04-05T15:37:38Z</time>
      </trkpt>
      <trkpt lat="48.57069" lon="-4.45136">
        <ele>18.9</ele>
        <time>2011-04-05T15:37:39Z</time>
      </trkpt>
      <trkpt lat="48.57069" lon="-4.45134">
        <ele>19.4</ele>
        <time>2011-04-05T15:37:40Z</time>
      </trkpt>
      <trkpt lat="48.57068" lon="-4.45132">
        <ele>19.6</ele>
        <time>2011-04-05T15:37:41Z</time>
      </trkpt>
      <trkpt lat="48.57067" lon="-4.4513">
        <ele>19.9</ele>
        <time>2011-04-05T15:37:42Z</time>
      </trkpt>
      <trkpt lat="48.57066" lon="-4.45129">
        <ele>21.2</ele>
        <time>2011-04-05T15:37:43Z</time>
      </trkpt>
      <trkpt lat="48.57065" lon="-4.45129">
        <ele>22.1</ele>
        <time>2011-04-05T15:37:44Z</time>
      </trkpt>
      <trkpt lat="48.57065" lon="-4.45127">
        <ele>21.8</ele>
        <time>2011-04-05T15:37:45Z</time>
      </trkpt>
      <trkpt lat="48.57064" lon="-4.45125">
        <ele>22.6</ele>
        <time>2011-04-05T15:37:46Z</time>
      </trkpt>
      <trkpt lat="48.57064" lon="-4.45125">
        <ele>22.6</ele>
        <time>2011-04-05T15:37:48Z</time>
      </trkpt>
      <trkpt lat="48.57069" lon="-4.4512">
        <ele>21.3</ele>
        <time>2011-04-05T15:37:49Z</time>
      </trkpt>
      <trkpt lat="48.57072" lon="-4.45119">
        <ele>19.7</ele>
        <time>2011-04-05T15:37:51Z</time>
      </trkpt>
      <trkpt lat="48.57074" lon="-4.45117">
        <ele>18.1</ele>
        <time>2011-04-05T15:37:52Z</time>
      </trkpt>
      <trkpt lat="48.57076" lon="-4.45116">
        <ele>17</ele>
        <time>2011-04-05T15:37:53Z</time>
      </trkpt>
      <trkpt lat="48.57078" lon="-4.45114">
        <ele>15.3</ele>
        <time>2011-04-05T15:37:54Z</time>
      </trkpt>
      <trkpt lat="48.5708" lon="-4.45113">
        <ele>14.5</ele>
        <time>2011-04-05T15:37:54Z</time>
      </trkpt>
      <trkpt lat="48.57081" lon="-4.4511">
        <ele>14.7</ele>
        <time>2011-04-05T15:37:55Z</time>
      </trkpt>
      <trkpt lat="48.57082" lon="-4.45108">
        <ele>14.7</ele>
        <time>2011-04-05T15:37:56Z</time>
      </trkpt>
      <trkpt lat="48.57083" lon="-4.45105">
        <ele>14.7</ele>
        <time>2011-04-05T15:37:57Z</time>
      </trkpt>
      <trkpt lat="48.57084" lon="-4.45104">
        <ele>14.4</ele>
        <time>2011-04-05T15:37:58Z</time>
      </trkpt>
      <trkpt lat="48.57085" lon="-4.45102">
        <ele>14.2</ele>
        <time>2011-04-05T15:37:59Z</time>
      </trkpt>
      <trkpt lat="48.57085" lon="-4.45102">
        <ele>14.2</ele>
        <time>2011-04-05T15:37:59Z</time>
      </trkpt>
      <trkpt lat="48.57086" lon="-4.451">
        <ele>14.4</ele>
        <time>2011-04-05T15:38:01Z</time>
      </trkpt>
      <trkpt lat="48.57087" lon="-4.45098">
        <ele>14</ele>
        <time>2011-04-05T15:38:02Z</time>
      </trkpt>
      <trkpt lat="48.57088" lon="-4.45097">
        <ele>13.7</ele>
        <time>2011-04-05T15:38:02Z</time>
      </trkpt>
      <trkpt lat="48.57089" lon="-4.45096">
        <ele>14.4</ele>
        <time>2011-04-05T15:38:03Z</time>
      </trkpt>
      <trkpt lat="48.5709" lon="-4.45095">
        <ele>14.5</ele>
        <time>2011-04-05T15:38:04Z</time>
      </trkpt>
      <trkpt lat="48.57091" lon="-4.45093">
        <ele>14.7</ele>
        <time>2011-04-05T15:38:05Z</time>
      </trkpt>
      <trkpt lat="48.57091" lon="-4.45093">
        <ele>14.7</ele>
        <time>2011-04-05T15:38:17Z</time>
      </trkpt>
      <trkpt lat="48.57099" lon="-4.4507">
        <ele>21.3</ele>
        <time>2011-04-05T15:38:18Z</time>
      </trkpt>
      <trkpt lat="48.57101" lon="-4.45069">
        <ele>20.6</ele>
        <time>2011-04-05T15:38:19Z</time>
      </trkpt>
      <trkpt lat="48.57102" lon="-4.45068">
        <ele>19.8</ele>
        <time>2011-04-05T15:38:20Z</time>
      </trkpt>
      <trkpt lat="48.57103" lon="-4.45066">
        <ele>20.3</ele>
        <time>2011-04-05T15:38:21Z</time>
      </trkpt>
      <trkpt lat="48.57104" lon="-4.45065">
        <ele>19.7</ele>
        <time>2011-04-05T15:38:22Z</time>
      </trkpt>
      <trkpt lat="48.57104" lon="-4.45065">
        <ele>19.7</ele>
        <time>2011-04-05T15:38:28Z</time>
      </trkpt>
      <trkpt lat="48.57113" lon="-4.45056">
        <ele>20.1</ele>
        <time>2011-04-05T15:38:28Z</time>
      </trkpt>
      <trkpt lat="48.57115" lon="-4.45055">
        <ele>19.5</ele>
        <time>2011-04-05T15:38:30Z</time>
      </trkpt>
      <trkpt lat="48.57117" lon="-4.45052">
        <ele>18.7</ele>
        <time>2011-04-05T15:38:31Z</time>
      </trkpt>
      <trkpt lat="48.57117" lon="-4.45051">
        <ele>18.1</ele>
        <time>2011-04-05T15:38:32Z</time>
      </trkpt>
      <trkpt lat="48.57118" lon="-4.4505">
        <ele>17.6</ele>
        <time>2011-04-05T15:38:33Z</time>
      </trkpt>
      <trkpt lat="48.57118" lon="-4.4505">
        <ele>17.6</ele>
        <time>2011-04-05T15:38:33Z</time>
      </trkpt>
      <trkpt lat="48.57119" lon="-4.45048">
        <ele>17.7</ele>
        <time>2011-04-05T15:38:34Z</time>
      </trkpt>
      <trkpt lat="48.57121" lon="-4.45046">
        <ele>18.4</ele>
        <time>2011-04-05T15:38:36Z</time>
      </trkpt>
      <trkpt lat="48.57123" lon="-4.45044">
        <ele>18</ele>
        <time>2011-04-05T15:38:37Z</time>
      </trkpt>
      <trkpt lat="48.57124" lon="-4.45044">
        <ele>18.6</ele>
        <time>2011-04-05T15:38:38Z</time>
      </trkpt>
      <trkpt lat="48.57124" lon="-4.45042">
        <ele>20.7</ele>
        <time>2011-04-05T15:38:39Z</time>
      </trkpt>
      <trkpt lat="48.57124" lon="-4.45041">
        <ele>22.4</ele>
        <time>2011-04-05T15:38:40Z</time>
      </trkpt>
      <trkpt lat="48.57124" lon="-4.45041">
        <ele>22.4</ele>
        <time>2011-04-05T15:38:44Z</time>
      </trkpt>
      <trkpt lat="48.5713" lon="-4.45031">
        <ele>21.7</ele>
        <time>2011-04-05T15:38:45Z</time>
      </trkpt>
      <trkpt lat="48.57131" lon="-4.45028">
        <ele>20.1</ele>
        <time>2011-04-05T15:38:47Z</time>
      </trkpt>
      <trkpt lat="48.57132" lon="-4.45026">
        <ele>18.7</ele>
        <time>2011-04-05T15:38:48Z</time>
      </trkpt>
      <trkpt lat="48.57132" lon="-4.45025">
        <ele>18.2</ele>
        <time>2011-04-05T15:38:48Z</time>
      </trkpt>
      <trkpt lat="48.57133" lon="-4.45022">
        <ele>18.5</ele>
        <time>2011-04-05T15:38:50Z</time>
      </trkpt>
      <trkpt lat="48.57133" lon="-4.45022">
        <ele>18.5</ele>
        <time>2011-04-05T15:38:51Z</time>
      </trkpt>
      <trkpt lat="48.57135" lon="-4.45016">
        <ele>19</ele>
        <time>2011-04-05T15:38:53Z</time>
      </trkpt>
      <trkpt lat="48.57136" lon="-4.45014">
        <ele>18.8</ele>
        <time>2011-04-05T15:38:53Z</time>
      </trkpt>
      <trkpt lat="48.57137" lon="-4.45011">
        <ele>17.6</ele>
        <time>2011-04-05T15:38:54Z</time>
      </trkpt>
      <trkpt lat="48.57137" lon="-4.45009">
        <ele>17.7</ele>
        <time>2011-04-05T15:38:55Z</time>
      </trkpt>
      <trkpt lat="48.57137" lon="-4.45007">
        <ele>16.8</ele>
        <time>2011-04-05T15:38:56Z</time>
      </trkpt>
      <trkpt lat="48.57138" lon="-4.45006">
        <ele>17.4</ele>
        <time>2011-04-05T15:38:58Z</time>
      </trkpt>
      <trkpt lat="48.57138" lon="-4.45006">
        <ele>17.4</ele>
        <time>2011-04-05T15:39:02Z</time>
      </trkpt>
      <trkpt lat="48.57141" lon="-4.44993">
        <ele>18.2</ele>
        <time>2011-04-05T15:39:03Z</time>
      </trkpt>
      <trkpt lat="48.57143" lon="-4.44991">
        <ele>18.1</ele>
        <time>2011-04-05T15:39:05Z</time>
      </trkpt>
      <trkpt lat="48.57143" lon="-4.44989">
        <ele>18.3</ele>
        <time>2011-04-05T15:39:06Z</time>
      </trkpt>
      <trkpt lat="48.57144" lon="-4.44986">
        <ele>18.3</ele>
        <time>2011-04-05T15:39:07Z</time>
      </trkpt>
      <trkpt lat="48.57145" lon="-4.44984">
        <ele>19.4</ele>
        <time>2011-04-05T15:39:09Z</time>
      </trkpt>
      <trkpt lat="48.57145" lon="-4.44984">
        <ele>19.4</ele>
        <time>2011-04-05T15:39:23Z</time>
      </trkpt>
      <trkpt lat="48.57164" lon="-4.44957">
        <ele>29.2</ele>
        <time>2011-04-05T15:39:24Z</time>
      </trkpt>
      <trkpt lat="48.57165" lon="-4.44955">
        <ele>30.9</ele>
        <time>2011-04-05T15:39:26Z</time>
      </trkpt>
      <trkpt lat="48.57166" lon="-4.44955">
        <ele>31.6</ele>
        <time>2011-04-05T15:39:27Z</time>
      </trkpt>
      <trkpt lat="48.57166" lon="-4.44955">
        <ele>31.6</ele>
        <time>2011-04-05T15:39:31Z</time>
      </trkpt>
      <trkpt lat="48.57171" lon="-4.44949">
        <ele>33.03</ele>
        <time>2011-04-05T15:39:33Z</time>
      </trkpt>
      <trkpt lat="48.57173" lon="-4.44948">
        <ele>33.5</ele>
        <time>2011-04-05T15:39:34Z</time>
      </trkpt>
      <trkpt lat="48.57173" lon="-4.44946">
        <ele>34.2</ele>
        <time>2011-04-05T15:39:35Z</time>
      </trkpt>
      <trkpt lat="48.57174" lon="-4.44943">
        <ele>35.7</ele>
        <time>2011-04-05T15:39:36Z</time>
      </trkpt>
      <trkpt lat="48.57175" lon="-4.44942">
        <ele>37</ele>
        <time>2011-04-05T15:39:38Z</time>
      </trkpt>
      <trkpt lat="48.57175" lon="-4.44941">
        <ele>36.5</ele>
        <time>2011-04-05T15:39:39Z</time>
      </trkpt>
      <trkpt lat="48.57175" lon="-4.44941">
        <ele>36.5</ele>
        <time>2011-04-05T15:39:47Z</time>
      </trkpt>
      <trkpt lat="48.57186" lon="-4.44929">
        <ele>33.9</ele>
        <time>2011-04-05T15:39:48Z</time>
      </trkpt>
      <trkpt lat="48.57187" lon="-4.44927">
        <ele>33.6</ele>
        <time>2011-04-05T15:39:49Z</time>
      </trkpt>
      <trkpt lat="48.57189" lon="-4.44926">
        <ele>33.9</ele>
        <time>2011-04-05T15:39:50Z</time>
      </trkpt>
      <trkpt lat="48.5719" lon="-4.44923">
        <ele>34.8</ele>
        <time>2011-04-05T15:39:51Z</time>
      </trkpt>
      <trkpt lat="48.5719" lon="-4.44923">
        <ele>34.8</ele>
        <time>2011-04-05T15:39:51Z</time>
      </trkpt>
      <trkpt lat="48.57191" lon="-4.44922">
        <ele>35.2</ele>
        <time>2011-04-05T15:39:52Z</time>
      </trkpt>
      <trkpt lat="48.57192" lon="-4.4492">
        <ele>34.9</ele>
        <time>2011-04-05T15:39:54Z</time>
      </trkpt>
      <trkpt lat="48.57194" lon="-4.44919">
        <ele>34.6</ele>
        <time>2011-04-05T15:39:55Z</time>
      </trkpt>
      <trkpt lat="48.57195" lon="-4.44917">
        <ele>34.5</ele>
        <time>2011-04-05T15:39:56Z</time>
      </trkpt>
      <trkpt lat="48.57196" lon="-4.44916">
        <ele>33.7</ele>
        <time>2011-04-05T15:39:57Z</time>
      </trkpt>
      <trkpt lat="48.57196" lon="-4.44916">
        <ele>33.7</ele>
        <time>2011-04-05T15:39:58Z</time>
      </trkpt>
      <trkpt lat="48.57199" lon="-4.44915">
        <ele>31.8</ele>
        <time>2011-04-05T15:39:59Z</time>
      </trkpt>
      <trkpt lat="48.57201" lon="-4.44915">
        <ele>31.4</ele>
        <time>2011-04-05T15:40:01Z</time>
      </trkpt>
      <trkpt lat="48.57202" lon="-4.44913">
        <ele>30.9</ele>
        <time>2011-04-05T15:40:02Z</time>
      </trkpt>
      <trkpt lat="48.57204" lon="-4.44912">
        <ele>29.6</ele>
        <time>2011-04-05T15:40:03Z</time>
      </trkpt>
      <trkpt lat="48.57205" lon="-4.44911">
        <ele>29.8</ele>
        <time>2011-04-05T15:40:05Z</time>
      </trkpt>
      <trkpt lat="48.57205" lon="-4.44911">
        <ele>29.8</ele>
        <time>2011-04-05T15:40:15Z</time>
      </trkpt>
      <trkpt lat="48.57219" lon="-4.44895">
        <ele>28</ele>
        <time>2011-04-05T15:40:16Z</time>
      </trkpt>
      <trkpt lat="48.5722" lon="-4.44894">
        <ele>28.2</ele>
        <time>2011-04-05T15:40:18Z</time>
      </trkpt>
      <trkpt lat="48.5722" lon="-4.44892">
        <ele>30.1</ele>
        <time>2011-04-05T15:40:19Z</time>
      </trkpt>
      <trkpt lat="48.57222" lon="-4.44891">
        <ele>30</ele>
        <time>2011-04-05T15:40:19Z</time>
      </trkpt>
      <trkpt lat="48.57223" lon="-4.4489">
        <ele>29.8</ele>
        <time>2011-04-05T15:40:20Z</time>
      </trkpt>
      <trkpt lat="48.57225" lon="-4.44889">
        <ele>28.4</ele>
        <time>2011-04-05T15:40:21Z</time>
      </trkpt>
      <trkpt lat="48.57227" lon="-4.44887">
        <ele>26.5</ele>
        <time>2011-04-05T15:40:22Z</time>
      </trkpt>
      <trkpt lat="48.57229" lon="-4.44886">
        <ele>25.9</ele>
        <time>2011-04-05T15:40:23Z</time>
      </trkpt>
      <trkpt lat="48.5723" lon="-4.44884">
        <ele>24.7</ele>
        <time>2011-04-05T15:40:24Z</time>
      </trkpt>
      <trkpt lat="48.5723" lon="-4.44882">
        <ele>24.5</ele>
        <time>2011-04-05T15:40:25Z</time>
      </trkpt>
      <trkpt lat="48.57231" lon="-4.4488">
        <ele>24.6</ele>
        <time>2011-04-05T15:40:26Z</time>
      </trkpt>
      <trkpt lat="48.57232" lon="-4.44879">
        <ele>25</ele>
        <time>2011-04-05T15:40:28Z</time>
      </trkpt>
      <trkpt lat="48.57232" lon="-4.44879">
        <ele>25</ele>
        <time>2011-04-05T15:40:47Z</time>
      </trkpt>
      <trkpt lat="48.57254" lon="-4.4486">
        <ele>40.2</ele>
        <time>2011-04-05T15:40:48Z</time>
      </trkpt>
      <trkpt lat="48.57254" lon="-4.44858">
        <ele>41.9</ele>
        <time>2011-04-05T15:40:49Z</time>
      </trkpt>
      <trkpt lat="48.57255" lon="-4.44854">
        <ele>43.6</ele>
        <time>2011-04-05T15:40:50Z</time>
      </trkpt>
      <trkpt lat="48.57255" lon="-4.44854">
        <ele>43.6</ele>
        <time>2011-04-05T15:41:01Z</time>
      </trkpt>
      <trkpt lat="48.57264" lon="-4.44839">
        <ele>44.5</ele>
        <time>2011-04-05T15:41:02Z</time>
      </trkpt>
      <trkpt lat="48.57265" lon="-4.44837">
        <ele>45.6</ele>
        <time>2011-04-05T15:41:04Z</time>
      </trkpt>
      <trkpt lat="48.57266" lon="-4.44836">
        <ele>46</ele>
        <time>2011-04-05T15:41:05Z</time>
      </trkpt>
      <trkpt lat="48.57268" lon="-4.44835">
        <ele>47.2</ele>
        <time>2011-04-05T15:41:06Z</time>
      </trkpt>
      <trkpt lat="48.57268" lon="-4.44834">
        <ele>47.9</ele>
        <time>2011-04-05T15:41:06Z</time>
      </trkpt>
      <trkpt lat="48.57269" lon="-4.44832">
        <ele>50.2</ele>
        <time>2011-04-05T15:41:08Z</time>
      </trkpt>
      <trkpt lat="48.57269" lon="-4.44832">
        <ele>50.2</ele>
        <time>2011-04-05T15:41:28Z</time>
      </trkpt>
      <trkpt lat="48.57289" lon="-4.4481">
        <ele>63.6</ele>
        <time>2011-04-05T15:41:28Z</time>
      </trkpt>
      <trkpt lat="48.57289" lon="-4.44808">
        <ele>63.7</ele>
        <time>2011-04-05T15:41:30Z</time>
      </trkpt>
      <trkpt lat="48.57291" lon="-4.44807">
        <ele>62.8</ele>
        <time>2011-04-05T15:41:31Z</time>
      </trkpt>
      <trkpt lat="48.57293" lon="-4.44806">
        <ele>62.6</ele>
        <time>2011-04-05T15:41:32Z</time>
      </trkpt>
      <trkpt lat="48.57294" lon="-4.44805">
        <ele>61.8</ele>
        <time>2011-04-05T15:41:34Z</time>
      </trkpt>
      <trkpt lat="48.57294" lon="-4.44805">
        <ele>61.8</ele>
        <time>2011-04-05T15:41:50Z</time>
      </trkpt>
      <trkpt lat="48.57312" lon="-4.44786">
        <ele>60.8</ele>
        <time>2011-04-05T15:41:52Z</time>
      </trkpt>
      <trkpt lat="48.57313" lon="-4.44785">
        <ele>60.9</ele>
        <time>2011-04-05T15:41:53Z</time>
      </trkpt>
      <trkpt lat="48.57314" lon="-4.44783">
        <ele>60.2</ele>
        <time>2011-04-05T15:41:54Z</time>
      </trkpt>
      <trkpt lat="48.57315" lon="-4.44782">
        <ele>60.1</ele>
        <time>2011-04-05T15:41:55Z</time>
      </trkpt>
      <trkpt lat="48.57316" lon="-4.4478">
        <ele>61.6</ele>
        <time>2011-04-05T15:41:56Z</time>
      </trkpt>
      <trkpt lat="48.57317" lon="-4.44779">
        <ele>61.2</ele>
        <time>2011-04-05T15:41:57Z</time>
      </trkpt>
      <trkpt lat="48.57318" lon="-4.44777">
        <ele>61.2</ele>
        <time>2011-04-05T15:41:58Z</time>
      </trkpt>
      <trkpt lat="48.57321" lon="-4.44776">
        <ele>61.1</ele>
        <time>2011-04-05T15:42:00Z</time>
      </trkpt>
      <trkpt lat="48.57321" lon="-4.44776">
        <ele>61.1</ele>
        <time>2011-04-05T15:42:06Z</time>
      </trkpt>
      <trkpt lat="48.57327" lon="-4.44766">
        <ele>58</ele>
        <time>2011-04-05T15:42:08Z</time>
      </trkpt>
      <trkpt lat="48.57328" lon="-4.44765">
        <ele>58.5</ele>
        <time>2011-04-05T15:42:09Z</time>
      </trkpt>
      <trkpt lat="48.57329" lon="-4.44764">
        <ele>58</ele>
        <time>2011-04-05T15:42:10Z</time>
      </trkpt>
      <trkpt lat="48.57331" lon="-4.44763">
        <ele>57.3</ele>
        <time>2011-04-05T15:42:12Z</time>
      </trkpt>
      <trkpt lat="48.57332" lon="-4.44762">
        <ele>58.4</ele>
        <time>2011-04-05T15:42:13Z</time>
      </trkpt>
      <trkpt lat="48.57334" lon="-4.44762">
        <ele>57.9</ele>
        <time>2011-04-05T15:42:14Z</time>
      </trkpt>
      <trkpt lat="48.57335" lon="-4.4476">
        <ele>58.6</ele>
        <time>2011-04-05T15:42:16Z</time>
      </trkpt>
      <trkpt lat="48.57335" lon="-4.44759">
        <ele>59.6</ele>
        <time>2011-04-05T15:42:17Z</time>
      </trkpt>
      <trkpt lat="48.57337" lon="-4.44759">
        <ele>60</ele>
        <time>2011-04-05T15:42:19Z</time>
      </trkpt>
      <trkpt lat="48.57337" lon="-4.44759">
        <ele>60</ele>
        <time>2011-04-05T15:42:21Z</time>
      </trkpt>
      <trkpt lat="48.57341" lon="-4.44752">
        <ele>59.5</ele>
        <time>2011-04-05T15:42:23Z</time>
      </trkpt>
      <trkpt lat="48.57342" lon="-4.44751">
        <ele>59.5</ele>
        <time>2011-04-05T15:42:24Z</time>
      </trkpt>
      <trkpt lat="48.57343" lon="-4.4475">
        <ele>59</ele>
        <time>2011-04-05T15:42:25Z</time>
      </trkpt>
      <trkpt lat="48.57344" lon="-4.44749">
        <ele>58.7</ele>
        <time>2011-04-05T15:42:26Z</time>
      </trkpt>
      <trkpt lat="48.57344" lon="-4.44749">
        <ele>58.7</ele>
        <time>2011-04-05T15:42:39Z</time>
      </trkpt>
      <trkpt lat="48.57355" lon="-4.4473">
        <ele>60.1</ele>
        <time>2011-04-05T15:42:40Z</time>
      </trkpt>
      <trkpt lat="48.57357" lon="-4.44729">
        <ele>60.5</ele>
        <time>2011-04-05T15:42:41Z</time>
      </trkpt>
      <trkpt lat="48.57359" lon="-4.44728">
        <ele>60.1</ele>
        <time>2011-04-05T15:42:42Z</time>
      </trkpt>
      <trkpt lat="48.57362" lon="-4.44728">
        <ele>60.3</ele>
        <time>2011-04-05T15:42:43Z</time>
      </trkpt>
      <trkpt lat="48.57364" lon="-4.44727">
        <ele>60.2</ele>
        <time>2011-04-05T15:42:44Z</time>
      </trkpt>
      <trkpt lat="48.57365" lon="-4.44726">
        <ele>60</ele>
        <time>2011-04-05T15:42:45Z</time>
      </trkpt>
      <trkpt lat="48.57367" lon="-4.44725">
        <ele>59.7</ele>
        <time>2011-04-05T15:42:46Z</time>
      </trkpt>
      <trkpt lat="48.57368" lon="-4.44724">
        <ele>59.8</ele>
        <time>2011-04-05T15:42:47Z</time>
      </trkpt>
      <trkpt lat="48.57369" lon="-4.44722">
        <ele>60</ele>
        <time>2011-04-05T15:42:48Z</time>
      </trkpt>
      <trkpt lat="48.5737" lon="-4.4472">
        <ele>60.9</ele>
        <time>2011-04-05T15:42:49Z</time>
      </trkpt>
      <trkpt lat="48.57372" lon="-4.44718">
        <ele>60.9</ele>
        <time>2011-04-05T15:42:50Z</time>
      </trkpt>
      <trkpt lat="48.57373" lon="-4.44717">
        <ele>60.7</ele>
        <time>2011-04-05T15:42:51Z</time>
      </trkpt>
      <trkpt lat="48.57374" lon="-4.44715">
        <ele>61.1</ele>
        <time>2011-04-05T15:42:52Z</time>
      </trkpt>
      <trkpt lat="48.57375" lon="-4.44715">
        <ele>61.3</ele>
        <time>2011-04-05T15:42:53Z</time>
      </trkpt>
      <trkpt lat="48.57377" lon="-4.44715">
        <ele>60.9</ele>
        <time>2011-04-05T15:42:54Z</time>
      </trkpt>
      <trkpt lat="48.57378" lon="-4.44714">
        <ele>60.8</ele>
        <time>2011-04-05T15:42:55Z</time>
      </trkpt>
      <trkpt lat="48.5738" lon="-4.44715">
        <ele>58.9</ele>
        <time>2011-04-05T15:42:57Z</time>
      </trkpt>
      <trkpt lat="48.57382" lon="-4.44714">
        <ele>58.1</ele>
        <time>2011-04-05T15:42:57Z</time>
      </trkpt>
      <trkpt lat="48.57384" lon="-4.44715">
        <ele>58.2</ele>
        <time>2011-04-05T15:42:58Z</time>
      </trkpt>
      <trkpt lat="48.57385" lon="-4.44713">
        <ele>58.8</ele>
        <time>2011-04-05T15:42:59Z</time>
      </trkpt>
      <trkpt lat="48.57386" lon="-4.44713">
        <ele>58.9</ele>
        <time>2011-04-05T15:43:00Z</time>
      </trkpt>
      <trkpt lat="48.57387" lon="-4.44713">
        <ele>58.5</ele>
        <time>2011-04-05T15:43:01Z</time>
      </trkpt>
      <trkpt lat="48.57388" lon="-4.44712">
        <ele>58</ele>
        <time>2011-04-05T15:43:02Z</time>
      </trkpt>
      <trkpt lat="48.57389" lon="-4.44712">
        <ele>57.8</ele>
        <time>2011-04-05T15:43:02Z</time>
      </trkpt>
      <trkpt lat="48.57391" lon="-4.44712">
        <ele>57.9</ele>
        <time>2011-04-05T15:43:03Z</time>
      </trkpt>
      <trkpt lat="48.57393" lon="-4.44711">
        <ele>58.2</ele>
        <time>2011-04-05T15:43:05Z</time>
      </trkpt>
      <trkpt lat="48.57394" lon="-4.44711">
        <ele>58.7</ele>
        <time>2011-04-05T15:43:06Z</time>
      </trkpt>
      <trkpt lat="48.57396" lon="-4.44711">
        <ele>58.7</ele>
        <time>2011-04-05T15:43:08Z</time>
      </trkpt>
      <trkpt lat="48.57398" lon="-4.44712">
        <ele>58.5</ele>
        <time>2011-04-05T15:43:09Z</time>
      </trkpt>
      <trkpt lat="48.57399" lon="-4.44711">
        <ele>58.2</ele>
        <time>2011-04-05T15:43:09Z</time>
      </trkpt>
      <trkpt lat="48.574" lon="-4.4471">
        <ele>58.8</ele>
        <time>2011-04-05T15:43:11Z</time>
      </trkpt>
      <trkpt lat="48.57401" lon="-4.44709">
        <ele>59.7</ele>
        <time>2011-04-05T15:43:12Z</time>
      </trkpt>
      <trkpt lat="48.57403" lon="-4.44708">
        <ele>59.9</ele>
        <time>2011-04-05T15:43:13Z</time>
      </trkpt>
      <trkpt lat="48.57404" lon="-4.44707">
        <ele>61.3</ele>
        <time>2011-04-05T15:43:14Z</time>
      </trkpt>
      <trkpt lat="48.57406" lon="-4.44708">
        <ele>60.1</ele>
        <time>2011-04-05T15:43:14Z</time>
      </trkpt>
      <trkpt lat="48.57408" lon="-4.44709">
        <ele>60.4</ele>
        <time>2011-04-05T15:43:16Z</time>
      </trkpt>
      <trkpt lat="48.5741" lon="-4.44708">
        <ele>60.9</ele>
        <time>2011-04-05T15:43:17Z</time>
      </trkpt>
      <trkpt lat="48.57412" lon="-4.44707">
        <ele>61.6</ele>
        <time>2011-04-05T15:43:19Z</time>
      </trkpt>
      <trkpt lat="48.57413" lon="-4.44706">
        <ele>62</ele>
        <time>2011-04-05T15:43:20Z</time>
      </trkpt>
      <trkpt lat="48.57413" lon="-4.44705">
        <ele>61.5</ele>
        <time>2011-04-05T15:43:21Z</time>
      </trkpt>
      <trkpt lat="48.57414" lon="-4.44705">
        <ele>61.5</ele>
        <time>2011-04-05T15:43:22Z</time>
      </trkpt>
      <trkpt lat="48.57415" lon="-4.44704">
        <ele>61.2</ele>
        <time>2011-04-05T15:43:23Z</time>
      </trkpt>
      <trkpt lat="48.57416" lon="-4.44705">
        <ele>60.4</ele>
        <time>2011-04-05T15:43:24Z</time>
      </trkpt>
      <trkpt lat="48.57418" lon="-4.44705">
        <ele>60.7</ele>
        <time>2011-04-05T15:43:26Z</time>
      </trkpt>
      <trkpt lat="48.57419" lon="-4.44703">
        <ele>61.4</ele>
        <time>2011-04-05T15:43:27Z</time>
      </trkpt>
      <trkpt lat="48.5742" lon="-4.44704">
        <ele>60.9</ele>
        <time>2011-04-05T15:43:28Z</time>
      </trkpt>
      <trkpt lat="48.57422" lon="-4.44704">
        <ele>60.7</ele>
        <time>2011-04-05T15:43:29Z</time>
      </trkpt>
      <trkpt lat="48.57424" lon="-4.44703">
        <ele>61.5</ele>
        <time>2011-04-05T15:43:30Z</time>
      </trkpt>
      <trkpt lat="48.57425" lon="-4.44703">
        <ele>61.6</ele>
        <time>2011-04-05T15:43:31Z</time>
      </trkpt>
      <trkpt lat="48.57427" lon="-4.44702">
        <ele>62.5</ele>
        <time>2011-04-05T15:43:33Z</time>
      </trkpt>
      <trkpt lat="48.57428" lon="-4.44701">
        <ele>62.6</ele>
        <time>2011-04-05T15:43:33Z</time>
      </trkpt>
      <trkpt lat="48.5743" lon="-4.447">
        <ele>62.8</ele>
        <time>2011-04-05T15:43:35Z</time>
      </trkpt>
      <trkpt lat="48.57432" lon="-4.44699">
        <ele>64.1</ele>
        <time>2011-04-05T15:43:36Z</time>
      </trkpt>
      <trkpt lat="48.57433" lon="-4.44698">
        <ele>64.8</ele>
        <time>2011-04-05T15:43:37Z</time>
      </trkpt>
      <trkpt lat="48.57434" lon="-4.44698">
        <ele>64.5</ele>
        <time>2011-04-05T15:43:38Z</time>
      </trkpt>
      <trkpt lat="48.57435" lon="-4.44698">
        <ele>63.9</ele>
        <time>2011-04-05T15:43:38Z</time>
      </trkpt>
      <trkpt lat="48.57437" lon="-4.44698">
        <ele>63.4</ele>
        <time>2011-04-05T15:43:39Z</time>
      </trkpt>
      <trkpt lat="48.57438" lon="-4.44698">
        <ele>63.2</ele>
        <time>2011-04-05T15:43:40Z</time>
      </trkpt>
      <trkpt lat="48.5744" lon="-4.44698">
        <ele>63.3</ele>
        <time>2011-04-05T15:43:41Z</time>
      </trkpt>
      <trkpt lat="48.57441" lon="-4.44697">
        <ele>63.7</ele>
        <time>2011-04-05T15:43:42Z</time>
      </trkpt>
      <trkpt lat="48.57443" lon="-4.44697">
        <ele>63.6</ele>
        <time>2011-04-05T15:43:43Z</time>
      </trkpt>
      <trkpt lat="48.57445" lon="-4.44696">
        <ele>62.8</ele>
        <time>2011-04-05T15:43:44Z</time>
      </trkpt>
      <trkpt lat="48.57446" lon="-4.44696">
        <ele>62.3</ele>
        <time>2011-04-05T15:43:45Z</time>
      </trkpt>
      <trkpt lat="48.57447" lon="-4.44695">
        <ele>62.1</ele>
        <time>2011-04-05T15:43:46Z</time>
      </trkpt>
      <trkpt lat="48.57448" lon="-4.44695">
        <ele>61.3</ele>
        <time>2011-04-05T15:43:48Z</time>
      </trkpt>
      <trkpt lat="48.5745" lon="-4.44694">
        <ele>61.4</ele>
        <time>2011-04-05T15:43:49Z</time>
      </trkpt>
      <trkpt lat="48.57451" lon="-4.44694">
        <ele>61.5</ele>
        <time>2011-04-05T15:43:50Z</time>
      </trkpt>
      <trkpt lat="48.57453" lon="-4.44693">
        <ele>61</ele>
        <time>2011-04-05T15:43:51Z</time>
      </trkpt>
      <trkpt lat="48.57454" lon="-4.44692">
        <ele>61.1</ele>
        <time>2011-04-05T15:43:51Z</time>
      </trkpt>
      <trkpt lat="48.57455" lon="-4.44692">
        <ele>61.1</ele>
        <time>2011-04-05T15:43:53Z</time>
      </trkpt>
      <trkpt lat="48.57457" lon="-4.44691">
        <ele>61.1</ele>
        <time>2011-04-05T15:43:54Z</time>
      </trkpt>
      <trkpt lat="48.57458" lon="-4.4469">
        <ele>61.3</ele>
        <time>2011-04-05T15:43:55Z</time>
      </trkpt>
      <trkpt lat="48.57459" lon="-4.44689">
        <ele>62</ele>
        <time>2011-04-05T15:43:57Z</time>
      </trkpt>
      <trkpt lat="48.5746" lon="-4.44687">
        <ele>62.6</ele>
        <time>2011-04-05T15:43:57Z</time>
      </trkpt>
      <trkpt lat="48.57461" lon="-4.44686">
        <ele>62.2</ele>
        <time>2011-04-05T15:43:59Z</time>
      </trkpt>
      <trkpt lat="48.57462" lon="-4.44686">
        <ele>62</ele>
        <time>2011-04-05T15:44:00Z</time>
      </trkpt>
      <trkpt lat="48.57464" lon="-4.44685">
        <ele>61.8</ele>
        <time>2011-04-05T15:44:02Z</time>
      </trkpt>
      <trkpt lat="48.57465" lon="-4.44685">
        <ele>61.9</ele>
        <time>2011-04-05T15:44:03Z</time>
      </trkpt>
      <trkpt lat="48.57466" lon="-4.44684">
        <ele>61.4</ele>
        <time>2011-04-05T15:44:03Z</time>
      </trkpt>
      <trkpt lat="48.57467" lon="-4.44683">
        <ele>61.5</ele>
        <time>2011-04-05T15:44:05Z</time>
      </trkpt>
      <trkpt lat="48.57469" lon="-4.44682">
        <ele>61.8</ele>
        <time>2011-04-05T15:44:06Z</time>
      </trkpt>
      <trkpt lat="48.5747" lon="-4.44681">
        <ele>62.4</ele>
        <time>2011-04-05T15:44:07Z</time>
      </trkpt>
      <trkpt lat="48.57472" lon="-4.4468">
        <ele>62.7</ele>
        <time>2011-04-05T15:44:07Z</time>
      </trkpt>
      <trkpt lat="48.57474" lon="-4.44681">
        <ele>62.4</ele>
        <time>2011-04-05T15:44:08Z</time>
      </trkpt>
      <trkpt lat="48.57476" lon="-4.44682">
        <ele>62.1</ele>
        <time>2011-04-05T15:44:09Z</time>
      </trkpt>
      <trkpt lat="48.57479" lon="-4.4468">
        <ele>61.9</ele>
        <time>2011-04-05T15:44:10Z</time>
      </trkpt>
      <trkpt lat="48.5748" lon="-4.44678">
        <ele>62.1</ele>
        <time>2011-04-05T15:44:10Z</time>
      </trkpt>
      <trkpt lat="48.57481" lon="-4.44678">
        <ele>62.1</ele>
        <time>2011-04-05T15:44:11Z</time>
      </trkpt>
      <trkpt lat="48.57483" lon="-4.44678">
        <ele>62.2</ele>
        <time>2011-04-05T15:44:12Z</time>
      </trkpt>
      <trkpt lat="48.57484" lon="-4.44677">
        <ele>61.8</ele>
        <time>2011-04-05T15:44:12Z</time>
      </trkpt>
      <trkpt lat="48.57486" lon="-4.44677">
        <ele>61.5</ele>
        <time>2011-04-05T15:44:13Z</time>
      </trkpt>
      <trkpt lat="48.57488" lon="-4.44676">
        <ele>61.8</ele>
        <time>2011-04-05T15:44:14Z</time>
      </trkpt>
      <trkpt lat="48.57489" lon="-4.44676">
        <ele>61.7</ele>
        <time>2011-04-05T15:44:15Z</time>
      </trkpt>
      <trkpt lat="48.57491" lon="-4.44676">
        <ele>61.6</ele>
        <time>2011-04-05T15:44:16Z</time>
      </trkpt>
      <trkpt lat="48.57492" lon="-4.44674">
        <ele>61.6</ele>
        <time>2011-04-05T15:44:18Z</time>
      </trkpt>
      <trkpt lat="48.57494" lon="-4.44674">
        <ele>61.9</ele>
        <time>2011-04-05T15:44:19Z</time>
      </trkpt>
      <trkpt lat="48.57495" lon="-4.44673">
        <ele>61.9</ele>
        <time>2011-04-05T15:44:20Z</time>
      </trkpt>
      <trkpt lat="48.57497" lon="-4.44673">
        <ele>61.9</ele>
        <time>2011-04-05T15:44:20Z</time>
      </trkpt>
      <trkpt lat="48.57499" lon="-4.44673">
        <ele>61.8</ele>
        <time>2011-04-05T15:44:22Z</time>
      </trkpt>
      <trkpt lat="48.57501" lon="-4.44673">
        <ele>62.1</ele>
        <time>2011-04-05T15:44:23Z</time>
      </trkpt>
      <trkpt lat="48.57503" lon="-4.44673">
        <ele>62.4</ele>
        <time>2011-04-05T15:44:25Z</time>
      </trkpt>
      <trkpt lat="48.57504" lon="-4.44672">
        <ele>62.2</ele>
        <time>2011-04-05T15:44:26Z</time>
      </trkpt>
      <trkpt lat="48.57505" lon="-4.44671">
        <ele>62.1</ele>
        <time>2011-04-05T15:44:27Z</time>
      </trkpt>
      <trkpt lat="48.57507" lon="-4.4467">
        <ele>62.1</ele>
        <time>2011-04-05T15:44:28Z</time>
      </trkpt>
      <trkpt lat="48.57508" lon="-4.44669">
        <ele>62</ele>
        <time>2011-04-05T15:44:30Z</time>
      </trkpt>
      <trkpt lat="48.5751" lon="-4.44669">
        <ele>62</ele>
        <time>2011-04-05T15:44:31Z</time>
      </trkpt>
      <trkpt lat="48.57512" lon="-4.44669">
        <ele>62.4</ele>
        <time>2011-04-05T15:44:32Z</time>
      </trkpt>
      <trkpt lat="48.57513" lon="-4.44669">
        <ele>62.6</ele>
        <time>2011-04-05T15:44:34Z</time>
      </trkpt>
      <trkpt lat="48.57515" lon="-4.44668">
        <ele>62.6</ele>
        <time>2011-04-05T15:44:34Z</time>
      </trkpt>
      <trkpt lat="48.57517" lon="-4.44668">
        <ele>62.5</ele>
        <time>2011-04-05T15:44:35Z</time>
      </trkpt>
      <trkpt lat="48.57519" lon="-4.44668">
        <ele>62.7</ele>
        <time>2011-04-05T15:44:36Z</time>
      </trkpt>
      <trkpt lat="48.5752" lon="-4.44667">
        <ele>62.6</ele>
        <time>2011-04-05T15:44:37Z</time>
      </trkpt>
      <trkpt lat="48.57522" lon="-4.44667">
        <ele>62.8</ele>
        <time>2011-04-05T15:44:38Z</time>
      </trkpt>
      <trkpt lat="48.57524" lon="-4.44667">
        <ele>62.8</ele>
        <time>2011-04-05T15:44:38Z</time>
      </trkpt>
      <trkpt lat="48.57525" lon="-4.44666">
        <ele>62.7</ele>
        <time>2011-04-05T15:44:40Z</time>
      </trkpt>
      <trkpt lat="48.57527" lon="-4.44667">
        <ele>62.7</ele>
        <time>2011-04-05T15:44:40Z</time>
      </trkpt>
      <trkpt lat="48.57529" lon="-4.44666">
        <ele>62.2</ele>
        <time>2011-04-05T15:44:41Z</time>
      </trkpt>
      <trkpt lat="48.5753" lon="-4.44666">
        <ele>61.9</ele>
        <time>2011-04-05T15:44:42Z</time>
      </trkpt>
      <trkpt lat="48.57533" lon="-4.44664">
        <ele>61.2</ele>
        <time>2011-04-05T15:44:43Z</time>
      </trkpt>
      <trkpt lat="48.57535" lon="-4.44663">
        <ele>61</ele>
        <time>2011-04-05T15:44:44Z</time>
      </trkpt>
      <trkpt lat="48.57537" lon="-4.44663">
        <ele>60.8</ele>
        <time>2011-04-05T15:44:45Z</time>
      </trkpt>
      <trkpt lat="48.57538" lon="-4.44663">
        <ele>61</ele>
        <time>2011-04-05T15:44:46Z</time>
      </trkpt>
      <trkpt lat="48.5754" lon="-4.44662">
        <ele>61.1</ele>
        <time>2011-04-05T15:44:47Z</time>
      </trkpt>
      <trkpt lat="48.57541" lon="-4.44661">
        <ele>61.1</ele>
        <time>2011-04-05T15:44:49Z</time>
      </trkpt>
      <trkpt lat="48.57542" lon="-4.4466">
        <ele>60.9</ele>
        <time>2011-04-05T15:44:50Z</time>
      </trkpt>
      <trkpt lat="48.57544" lon="-4.4466">
        <ele>60.8</ele>
        <time>2011-04-05T15:44:51Z</time>
      </trkpt>
      <trkpt lat="48.57545" lon="-4.44659">
        <ele>61</ele>
        <time>2011-04-05T15:44:51Z</time>
      </trkpt>
      <trkpt lat="48.57546" lon="-4.44658">
        <ele>60.8</ele>
        <time>2011-04-05T15:44:53Z</time>
      </trkpt>
      <trkpt lat="48.57548" lon="-4.44658">
        <ele>60.5</ele>
        <time>2011-04-05T15:44:54Z</time>
      </trkpt>
      <trkpt lat="48.57549" lon="-4.44657">
        <ele>60.5</ele>
        <time>2011-04-05T15:44:56Z</time>
      </trkpt>
      <trkpt lat="48.57551" lon="-4.44656">
        <ele>60.5</ele>
        <time>2011-04-05T15:44:57Z</time>
      </trkpt>
      <trkpt lat="48.57553" lon="-4.44656">
        <ele>60.5</ele>
        <time>2011-04-05T15:44:58Z</time>
      </trkpt>
      <trkpt lat="48.57554" lon="-4.44655">
        <ele>60.6</ele>
        <time>2011-04-05T15:44:59Z</time>
      </trkpt>
      <trkpt lat="48.57555" lon="-4.44655">
        <ele>60.6</ele>
        <time>2011-04-05T15:45:01Z</time>
      </trkpt>
      <trkpt lat="48.57557" lon="-4.44655">
        <ele>60.7</ele>
        <time>2011-04-05T15:45:02Z</time>
      </trkpt>
      <trkpt lat="48.57559" lon="-4.44655">
        <ele>60.3</ele>
        <time>2011-04-05T15:45:03Z</time>
      </trkpt>
      <trkpt lat="48.5756" lon="-4.44654">
        <ele>60.1</ele>
        <time>2011-04-05T15:45:05Z</time>
      </trkpt>
      <trkpt lat="48.57561" lon="-4.44653">
        <ele>60.4</ele>
        <time>2011-04-05T15:45:05Z</time>
      </trkpt>
      <trkpt lat="48.57562" lon="-4.44652">
        <ele>60.6</ele>
        <time>2011-04-05T15:45:06Z</time>
      </trkpt>
      <trkpt lat="48.57566" lon="-4.44651">
        <ele>61.1</ele>
        <time>2011-04-05T15:45:07Z</time>
      </trkpt>
      <trkpt lat="48.57568" lon="-4.4465">
        <ele>61.4</ele>
        <time>2011-04-05T15:45:08Z</time>
      </trkpt>
      <trkpt lat="48.57569" lon="-4.44649">
        <ele>61</ele>
        <time>2011-04-05T15:45:09Z</time>
      </trkpt>
      <trkpt lat="48.57572" lon="-4.44647">
        <ele>61.4</ele>
        <time>2011-04-05T15:45:10Z</time>
      </trkpt>
      <trkpt lat="48.57574" lon="-4.44646">
        <ele>61.6</ele>
        <time>2011-04-05T15:45:11Z</time>
      </trkpt>
      <trkpt lat="48.57575" lon="-4.44646">
        <ele>61.5</ele>
        <time>2011-04-05T15:45:11Z</time>
      </trkpt>
      <trkpt lat="48.57576" lon="-4.44645">
        <ele>61</ele>
        <time>2011-04-05T15:45:12Z</time>
      </trkpt>
      <trkpt lat="48.57579" lon="-4.44643">
        <ele>61.6</ele>
        <time>2011-04-05T15:45:13Z</time>
      </trkpt>
      <trkpt lat="48.57581" lon="-4.44643">
        <ele>61.5</ele>
        <time>2011-04-05T15:45:13Z</time>
      </trkpt>
      <trkpt lat="48.57582" lon="-4.44642">
        <ele>61.6</ele>
        <time>2011-04-05T15:45:14Z</time>
      </trkpt>
      <trkpt lat="48.57583" lon="-4.4464">
        <ele>61.6</ele>
        <time>2011-04-05T15:45:15Z</time>
      </trkpt>
      <trkpt lat="48.57584" lon="-4.44639">
        <ele>61.3</ele>
        <time>2011-04-05T15:45:16Z</time>
      </trkpt>
      <trkpt lat="48.57586" lon="-4.44639">
        <ele>61.1</ele>
        <time>2011-04-05T15:45:17Z</time>
      </trkpt>
      <trkpt lat="48.57587" lon="-4.44639">
        <ele>60.3</ele>
        <time>2011-04-05T15:45:18Z</time>
      </trkpt>
      <trkpt lat="48.57588" lon="-4.44638">
        <ele>59.5</ele>
        <time>2011-04-05T15:45:19Z</time>
      </trkpt>
      <trkpt lat="48.57589" lon="-4.44637">
        <ele>59.3</ele>
        <time>2011-04-05T15:45:20Z</time>
      </trkpt>
      <trkpt lat="48.5759" lon="-4.44635">
        <ele>59.5</ele>
        <time>2011-04-05T15:45:21Z</time>
      </trkpt>
      <trkpt lat="48.57592" lon="-4.44634">
        <ele>58.8</ele>
        <time>2011-04-05T15:45:22Z</time>
      </trkpt>
      <trkpt lat="48.57593" lon="-4.44633">
        <ele>58.8</ele>
        <time>2011-04-05T15:45:23Z</time>
      </trkpt>
      <trkpt lat="48.57595" lon="-4.44632">
        <ele>59</ele>
        <time>2011-04-05T15:45:25Z</time>
      </trkpt>
      <trkpt lat="48.57596" lon="-4.44631">
        <ele>59.1</ele>
        <time>2011-04-05T15:45:25Z</time>
      </trkpt>
      <trkpt lat="48.57598" lon="-4.4463">
        <ele>58.5</ele>
        <time>2011-04-05T15:45:27Z</time>
      </trkpt>
      <trkpt lat="48.57599" lon="-4.4463">
        <ele>57.6</ele>
        <time>2011-04-05T15:45:28Z</time>
      </trkpt>
      <trkpt lat="48.57601" lon="-4.44629">
        <ele>57.2</ele>
        <time>2011-04-05T15:45:29Z</time>
      </trkpt>
      <trkpt lat="48.57602" lon="-4.44628">
        <ele>57</ele>
        <time>2011-04-05T15:45:30Z</time>
      </trkpt>
      <trkpt lat="48.57604" lon="-4.44627">
        <ele>57.5</ele>
        <time>2011-04-05T15:45:30Z</time>
      </trkpt>
      <trkpt lat="48.57605" lon="-4.44626">
        <ele>57.6</ele>
        <time>2011-04-05T15:45:31Z</time>
      </trkpt>
      <trkpt lat="48.57607" lon="-4.44625">
        <ele>58.2</ele>
        <time>2011-04-05T15:45:32Z</time>
      </trkpt>
      <trkpt lat="48.57609" lon="-4.44624">
        <ele>58.4</ele>
        <time>2011-04-05T15:45:33Z</time>
      </trkpt>
      <trkpt lat="48.5761" lon="-4.44623">
        <ele>58.5</ele>
        <time>2011-04-05T15:45:34Z</time>
      </trkpt>
      <trkpt lat="48.57611" lon="-4.44622">
        <ele>58.4</ele>
        <time>2011-04-05T15:45:35Z</time>
      </trkpt>
      <trkpt lat="48.57613" lon="-4.44621">
        <ele>59</ele>
        <time>2011-04-05T15:45:36Z</time>
      </trkpt>
      <trkpt lat="48.57614" lon="-4.4462">
        <ele>59</ele>
        <time>2011-04-05T15:45:37Z</time>
      </trkpt>
      <trkpt lat="48.57615" lon="-4.44618">
        <ele>58.8</ele>
        <time>2011-04-05T15:45:38Z</time>
      </trkpt>
      <trkpt lat="48.57616" lon="-4.44617">
        <ele>58.8</ele>
        <time>2011-04-05T15:45:39Z</time>
      </trkpt>
      <trkpt lat="48.57617" lon="-4.44615">
        <ele>58.9</ele>
        <time>2011-04-05T15:45:40Z</time>
      </trkpt>
      <trkpt lat="48.57618" lon="-4.44614">
        <ele>59</ele>
        <time>2011-04-05T15:45:41Z</time>
      </trkpt>
      <trkpt lat="48.5762" lon="-4.44613">
        <ele>58.8</ele>
        <time>2011-04-05T15:45:42Z</time>
      </trkpt>
      <trkpt lat="48.57621" lon="-4.44612">
        <ele>59</ele>
        <time>2011-04-05T15:45:42Z</time>
      </trkpt>
      <trkpt lat="48.57622" lon="-4.44611">
        <ele>58.5</ele>
        <time>2011-04-05T15:45:43Z</time>
      </trkpt>
      <trkpt lat="48.57623" lon="-4.4461">
        <ele>58.2</ele>
        <time>2011-04-05T15:45:45Z</time>
      </trkpt>
      <trkpt lat="48.57624" lon="-4.44609">
        <ele>58.1</ele>
        <time>2011-04-05T15:45:46Z</time>
      </trkpt>
      <trkpt lat="48.57626" lon="-4.44607">
        <ele>58.2</ele>
        <time>2011-04-05T15:45:47Z</time>
      </trkpt>
      <trkpt lat="48.57627" lon="-4.44606">
        <ele>58.1</ele>
        <time>2011-04-05T15:45:48Z</time>
      </trkpt>
      <trkpt lat="48.57628" lon="-4.44605">
        <ele>57.9</ele>
        <time>2011-04-05T15:45:49Z</time>
      </trkpt>
      <trkpt lat="48.57629" lon="-4.44605">
        <ele>57.3</ele>
        <time>2011-04-05T15:45:49Z</time>
      </trkpt>
      <trkpt lat="48.5763" lon="-4.44604">
        <ele>56.8</ele>
        <time>2011-04-05T15:45:51Z</time>
      </trkpt>
      <trkpt lat="48.57631" lon="-4.44602">
        <ele>56.7</ele>
        <time>2011-04-05T15:45:52Z</time>
      </trkpt>
      <trkpt lat="48.57632" lon="-4.44601">
        <ele>56.6</ele>
        <time>2011-04-05T15:45:53Z</time>
      </trkpt>
      <trkpt lat="48.57633" lon="-4.44599">
        <ele>56.5</ele>
        <time>2011-04-05T15:45:55Z</time>
      </trkpt>
      <trkpt lat="48.57634" lon="-4.44597">
        <ele>56.4</ele>
        <time>2011-04-05T15:45:56Z</time>
      </trkpt>
      <trkpt lat="48.57635" lon="-4.44596">
        <ele>56.5</ele>
        <time>2011-04-05T15:45:57Z</time>
      </trkpt>
      <trkpt lat="48.57636" lon="-4.44594">
        <ele>56.4</ele>
        <time>2011-04-05T15:45:58Z</time>
      </trkpt>
      <trkpt lat="48.57637" lon="-4.44592">
        <ele>56.3</ele>
        <time>2011-04-05T15:45:58Z</time>
      </trkpt>
      <trkpt lat="48.57638" lon="-4.44591">
        <ele>56.3</ele>
        <time>2011-04-05T15:45:59Z</time>
      </trkpt>
      <trkpt lat="48.57639" lon="-4.44589">
        <ele>56.2</ele>
        <time>2011-04-05T15:46:00Z</time>
      </trkpt>
      <trkpt lat="48.5764" lon="-4.44588">
        <ele>56.1</ele>
        <time>2011-04-05T15:46:01Z</time>
      </trkpt>
      <trkpt lat="48.57641" lon="-4.44587">
        <ele>56.4</ele>
        <time>2011-04-05T15:46:02Z</time>
      </trkpt>
      <trkpt lat="48.57642" lon="-4.44585">
        <ele>56.8</ele>
        <time>2011-04-05T15:46:03Z</time>
      </trkpt>
      <trkpt lat="48.57643" lon="-4.44583">
        <ele>57.5</ele>
        <time>2011-04-05T15:46:05Z</time>
      </trkpt>
      <trkpt lat="48.57644" lon="-4.44581">
        <ele>57.3</ele>
        <time>2011-04-05T15:46:05Z</time>
      </trkpt>
      <trkpt lat="48.57645" lon="-4.4458">
        <ele>57.5</ele>
        <time>2011-04-05T15:46:07Z</time>
      </trkpt>
      <trkpt lat="48.57646" lon="-4.44578">
        <ele>58.1</ele>
        <time>2011-04-05T15:46:08Z</time>
      </trkpt>
      <trkpt lat="48.57646" lon="-4.44577">
        <ele>58.5</ele>
        <time>2011-04-05T15:46:10Z</time>
      </trkpt>
      <trkpt lat="48.57647" lon="-4.44575">
        <ele>58.8</ele>
        <time>2011-04-05T15:46:11Z</time>
      </trkpt>
      <trkpt lat="48.57647" lon="-4.44575">
        <ele>58.8</ele>
        <time>2011-04-05T15:46:12Z</time>
      </trkpt>
      <trkpt lat="48.57648" lon="-4.44571">
        <ele>59.1</ele>
        <time>2011-04-05T15:46:13Z</time>
      </trkpt>
      <trkpt lat="48.57649" lon="-4.44569">
        <ele>59.2</ele>
        <time>2011-04-05T15:46:15Z</time>
      </trkpt>
      <trkpt lat="48.5765" lon="-4.44568">
        <ele>59.4</ele>
        <time>2011-04-05T15:46:16Z</time>
      </trkpt>
      <trkpt lat="48.57651" lon="-4.44566">
        <ele>59.6</ele>
        <time>2011-04-05T15:46:18Z</time>
      </trkpt>
      <trkpt lat="48.57652" lon="-4.44565">
        <ele>59.4</ele>
        <time>2011-04-05T15:46:18Z</time>
      </trkpt>
      <trkpt lat="48.57653" lon="-4.44563">
        <ele>59.3</ele>
        <time>2011-04-05T15:46:20Z</time>
      </trkpt>
      <trkpt lat="48.57654" lon="-4.44562">
        <ele>59.2</ele>
        <time>2011-04-05T15:46:21Z</time>
      </trkpt>
      <trkpt lat="48.57655" lon="-4.4456">
        <ele>59.1</ele>
        <time>2011-04-05T15:46:22Z</time>
      </trkpt>
      <trkpt lat="48.57656" lon="-4.44559">
        <ele>59.1</ele>
        <time>2011-04-05T15:46:23Z</time>
      </trkpt>
      <trkpt lat="48.57657" lon="-4.44557">
        <ele>58.9</ele>
        <time>2011-04-05T15:46:24Z</time>
      </trkpt>
      <trkpt lat="48.57658" lon="-4.44555">
        <ele>59.1</ele>
        <time>2011-04-05T15:46:25Z</time>
      </trkpt>
      <trkpt lat="48.57659" lon="-4.44554">
        <ele>58.9</ele>
        <time>2011-04-05T15:46:26Z</time>
      </trkpt>
      <trkpt lat="48.5766" lon="-4.44553">
        <ele>58.8</ele>
        <time>2011-04-05T15:46:27Z</time>
      </trkpt>
      <trkpt lat="48.57661" lon="-4.44552">
        <ele>58.7</ele>
        <time>2011-04-05T15:46:28Z</time>
      </trkpt>
      <trkpt lat="48.57662" lon="-4.44551">
        <ele>58.4</ele>
        <time>2011-04-05T15:46:29Z</time>
      </trkpt>
      <trkpt lat="48.57664" lon="-4.44547">
        <ele>58.3</ele>
        <time>2011-04-05T15:46:30Z</time>
      </trkpt>
      <trkpt lat="48.57665" lon="-4.44546">
        <ele>58.1</ele>
        <time>2011-04-05T15:46:30Z</time>
      </trkpt>
      <trkpt lat="48.57666" lon="-4.44544">
        <ele>58</ele>
        <time>2011-04-05T15:46:31Z</time>
      </trkpt>
      <trkpt lat="48.57668" lon="-4.44543">
        <ele>57.8</ele>
        <time>2011-04-05T15:46:32Z</time>
      </trkpt>
      <trkpt lat="48.57669" lon="-4.44541">
        <ele>57.6</ele>
        <time>2011-04-05T15:46:33Z</time>
      </trkpt>
      <trkpt lat="48.5767" lon="-4.4454">
        <ele>57.4</ele>
        <time>2011-04-05T15:46:34Z</time>
      </trkpt>
      <trkpt lat="48.57671" lon="-4.44539">
        <ele>57</ele>
        <time>2011-04-05T15:46:35Z</time>
      </trkpt>
      <trkpt lat="48.57672" lon="-4.44537">
        <ele>56.8</ele>
        <time>2011-04-05T15:46:36Z</time>
      </trkpt>
      <trkpt lat="48.57673" lon="-4.44536">
        <ele>56.6</ele>
        <time>2011-04-05T15:46:37Z</time>
      </trkpt>
      <trkpt lat="48.57675" lon="-4.44535">
        <ele>56.4</ele>
        <time>2011-04-05T15:46:38Z</time>
      </trkpt>
      <trkpt lat="48.57676" lon="-4.44533">
        <ele>56.4</ele>
        <time>2011-04-05T15:46:39Z</time>
      </trkpt>
      <trkpt lat="48.57677" lon="-4.44531">
        <ele>56.2</ele>
        <time>2011-04-05T15:46:40Z</time>
      </trkpt>
      <trkpt lat="48.57678" lon="-4.44529">
        <ele>56.6</ele>
        <time>2011-04-05T15:46:42Z</time>
      </trkpt>
      <trkpt lat="48.57679" lon="-4.44527">
        <ele>56.9</ele>
        <time>2011-04-05T15:46:42Z</time>
      </trkpt>
      <trkpt lat="48.5768" lon="-4.44525">
        <ele>57</ele>
        <time>2011-04-05T15:46:43Z</time>
      </trkpt>
      <trkpt lat="48.57681" lon="-4.44523">
        <ele>57.2</ele>
        <time>2011-04-05T15:46:44Z</time>
      </trkpt>
      <trkpt lat="48.57682" lon="-4.44521">
        <ele>57.3</ele>
        <time>2011-04-05T15:46:45Z</time>
      </trkpt>
      <trkpt lat="48.57683" lon="-4.44519">
        <ele>57.4</ele>
        <time>2011-04-05T15:46:46Z</time>
      </trkpt>
      <trkpt lat="48.57684" lon="-4.44518">
        <ele>57.6</ele>
        <time>2011-04-05T15:46:48Z</time>
      </trkpt>
      <trkpt lat="48.57685" lon="-4.44516">
        <ele>57.6</ele>
        <time>2011-04-05T15:46:49Z</time>
      </trkpt>
      <trkpt lat="48.57686" lon="-4.44514">
        <ele>57.5</ele>
        <time>2011-04-05T15:46:49Z</time>
      </trkpt>
      <trkpt lat="48.57687" lon="-4.44512">
        <ele>57.5</ele>
        <time>2011-04-05T15:46:50Z</time>
      </trkpt>
      <trkpt lat="48.57688" lon="-4.44511">
        <ele>57.6</ele>
        <time>2011-04-05T15:46:51Z</time>
      </trkpt>
      <trkpt lat="48.57689" lon="-4.44509">
        <ele>57.6</ele>
        <time>2011-04-05T15:46:53Z</time>
      </trkpt>
      <trkpt lat="48.57689" lon="-4.44508">
        <ele>57.6</ele>
        <time>2011-04-05T15:46:54Z</time>
      </trkpt>
      <trkpt lat="48.5769" lon="-4.44505">
        <ele>57.9</ele>
        <time>2011-04-05T15:46:55Z</time>
      </trkpt>
      <trkpt lat="48.57691" lon="-4.44504">
        <ele>57.7</ele>
        <time>2011-04-05T15:46:57Z</time>
      </trkpt>
      <trkpt lat="48.57692" lon="-4.44502">
        <ele>57.6</ele>
        <time>2011-04-05T15:46:58Z</time>
      </trkpt>
      <trkpt lat="48.57693" lon="-4.44501">
        <ele>57.5</ele>
        <time>2011-04-05T15:46:59Z</time>
      </trkpt>
      <trkpt lat="48.57694" lon="-4.44499">
        <ele>57.8</ele>
        <time>2011-04-05T15:47:00Z</time>
      </trkpt>
      <trkpt lat="48.57695" lon="-4.44497">
        <ele>57.8</ele>
        <time>2011-04-05T15:47:01Z</time>
      </trkpt>
      <trkpt lat="48.57696" lon="-4.44495">
        <ele>57.6</ele>
        <time>2011-04-05T15:47:02Z</time>
      </trkpt>
      <trkpt lat="48.57697" lon="-4.44493">
        <ele>57.6</ele>
        <time>2011-04-05T15:47:04Z</time>
      </trkpt>
      <trkpt lat="48.57698" lon="-4.44492">
        <ele>57.1</ele>
        <time>2011-04-05T15:47:05Z</time>
      </trkpt>
      <trkpt lat="48.57699" lon="-4.4449">
        <ele>57</ele>
        <time>2011-04-05T15:47:06Z</time>
      </trkpt>
      <trkpt lat="48.577" lon="-4.44488">
        <ele>56.9</ele>
        <time>2011-04-05T15:47:07Z</time>
      </trkpt>
      <trkpt lat="48.57701" lon="-4.44485">
        <ele>56.1</ele>
        <time>2011-04-05T15:47:07Z</time>
      </trkpt>
      <trkpt lat="48.57702" lon="-4.44484">
        <ele>56.1</ele>
        <time>2011-04-05T15:47:08Z</time>
      </trkpt>
      <trkpt lat="48.57703" lon="-4.44482">
        <ele>56.3</ele>
        <time>2011-04-05T15:47:09Z</time>
      </trkpt>
      <trkpt lat="48.57704" lon="-4.44479">
        <ele>56.5</ele>
        <time>2011-04-05T15:47:10Z</time>
      </trkpt>
      <trkpt lat="48.57705" lon="-4.44477">
        <ele>56.8</ele>
        <time>2011-04-05T15:47:10Z</time>
      </trkpt>
      <trkpt lat="48.57707" lon="-4.44476">
        <ele>56.7</ele>
        <time>2011-04-05T15:47:11Z</time>
      </trkpt>
      <trkpt lat="48.57708" lon="-4.44473">
        <ele>56.9</ele>
        <time>2011-04-05T15:47:12Z</time>
      </trkpt>
      <trkpt lat="48.57709" lon="-4.44469">
        <ele>57.4</ele>
        <time>2011-04-05T15:47:13Z</time>
      </trkpt>
      <trkpt lat="48.57711" lon="-4.44468">
        <ele>57.1</ele>
        <time>2011-04-05T15:47:14Z</time>
      </trkpt>
      <trkpt lat="48.57712" lon="-4.44466">
        <ele>57.1</ele>
        <time>2011-04-05T15:47:15Z</time>
      </trkpt>
      <trkpt lat="48.57713" lon="-4.44464">
        <ele>57</ele>
        <time>2011-04-05T15:47:15Z</time>
      </trkpt>
      <trkpt lat="48.57714" lon="-4.44462">
        <ele>57</ele>
        <time>2011-04-05T15:47:17Z</time>
      </trkpt>
      <trkpt lat="48.57715" lon="-4.4446">
        <ele>57.1</ele>
        <time>2011-04-05T15:47:18Z</time>
      </trkpt>
      <trkpt lat="48.57716" lon="-4.44458">
        <ele>57.3</ele>
        <time>2011-04-05T15:47:20Z</time>
      </trkpt>
      <trkpt lat="48.57716" lon="-4.44456">
        <ele>57.5</ele>
        <time>2011-04-05T15:47:21Z</time>
      </trkpt>
      <trkpt lat="48.57718" lon="-4.44454">
        <ele>57.3</ele>
        <time>2011-04-05T15:47:23Z</time>
      </trkpt>
      <trkpt lat="48.57719" lon="-4.44452">
        <ele>57.4</ele>
        <time>2011-04-05T15:47:23Z</time>
      </trkpt>
      <trkpt lat="48.57719" lon="-4.4445">
        <ele>57.3</ele>
        <time>2011-04-05T15:47:24Z</time>
      </trkpt>
      <trkpt lat="48.5772" lon="-4.44448">
        <ele>57.3</ele>
        <time>2011-04-05T15:47:25Z</time>
      </trkpt>
      <trkpt lat="48.57721" lon="-4.44446">
        <ele>57.1</ele>
        <time>2011-04-05T15:47:26Z</time>
      </trkpt>
      <trkpt lat="48.57722" lon="-4.44445">
        <ele>56.9</ele>
        <time>2011-04-05T15:47:27Z</time>
      </trkpt>
      <trkpt lat="48.57723" lon="-4.44442">
        <ele>57.1</ele>
        <time>2011-04-05T15:47:28Z</time>
      </trkpt>
      <trkpt lat="48.57724" lon="-4.4444">
        <ele>57.2</ele>
        <time>2011-04-05T15:47:29Z</time>
      </trkpt>
      <trkpt lat="48.57725" lon="-4.44439">
        <ele>57</ele>
        <time>2011-04-05T15:47:29Z</time>
      </trkpt>
      <trkpt lat="48.57726" lon="-4.44437">
        <ele>56.6</ele>
        <time>2011-04-05T15:47:30Z</time>
      </trkpt>
      <trkpt lat="48.57727" lon="-4.44436">
        <ele>56.3</ele>
        <time>2011-04-05T15:47:31Z</time>
      </trkpt>
      <trkpt lat="48.57728" lon="-4.44434">
        <ele>56.2</ele>
        <time>2011-04-05T15:47:32Z</time>
      </trkpt>
      <trkpt lat="48.57729" lon="-4.44432">
        <ele>56.4</ele>
        <time>2011-04-05T15:47:33Z</time>
      </trkpt>
      <trkpt lat="48.5773" lon="-4.4443">
        <ele>56.6</ele>
        <time>2011-04-05T15:47:34Z</time>
      </trkpt>
      <trkpt lat="48.5773" lon="-4.44427">
        <ele>56.9</ele>
        <time>2011-04-05T15:47:36Z</time>
      </trkpt>
      <trkpt lat="48.57731" lon="-4.44426">
        <ele>57.1</ele>
        <time>2011-04-05T15:47:36Z</time>
      </trkpt>
      <trkpt lat="48.57732" lon="-4.44424">
        <ele>57.1</ele>
        <time>2011-04-05T15:47:37Z</time>
      </trkpt>
      <trkpt lat="48.57734" lon="-4.44422">
        <ele>57</ele>
        <time>2011-04-05T15:47:38Z</time>
      </trkpt>
      <trkpt lat="48.57735" lon="-4.44421">
        <ele>56.4</ele>
        <time>2011-04-05T15:47:39Z</time>
      </trkpt>
      <trkpt lat="48.57735" lon="-4.44419">
        <ele>56.6</ele>
        <time>2011-04-05T15:47:40Z</time>
      </trkpt>
      <trkpt lat="48.57737" lon="-4.44417">
        <ele>56.4</ele>
        <time>2011-04-05T15:47:42Z</time>
      </trkpt>
      <trkpt lat="48.57738" lon="-4.44416">
        <ele>56.3</ele>
        <time>2011-04-05T15:47:42Z</time>
      </trkpt>
      <trkpt lat="48.57739" lon="-4.44414">
        <ele>56.1</ele>
        <time>2011-04-05T15:47:43Z</time>
      </trkpt>
      <trkpt lat="48.57741" lon="-4.44413">
        <ele>56</ele>
        <time>2011-04-05T15:47:44Z</time>
      </trkpt>
      <trkpt lat="48.57742" lon="-4.44412">
        <ele>56.1</ele>
        <time>2011-04-05T15:47:45Z</time>
      </trkpt>
      <trkpt lat="48.57743" lon="-4.44411">
        <ele>55.8</ele>
        <time>2011-04-05T15:47:46Z</time>
      </trkpt>
      <trkpt lat="48.57744" lon="-4.4441">
        <ele>55.7</ele>
        <time>2011-04-05T15:47:48Z</time>
      </trkpt>
      <trkpt lat="48.57745" lon="-4.44408">
        <ele>55.7</ele>
        <time>2011-04-05T15:47:49Z</time>
      </trkpt>
      <trkpt lat="48.57746" lon="-4.44407">
        <ele>56</ele>
        <time>2011-04-05T15:47:51Z</time>
      </trkpt>
      <trkpt lat="48.57747" lon="-4.44406">
        <ele>56.3</ele>
        <time>2011-04-05T15:47:51Z</time>
      </trkpt>
      <trkpt lat="48.57748" lon="-4.44403">
        <ele>57.1</ele>
        <time>2011-04-05T15:47:53Z</time>
      </trkpt>
      <trkpt lat="48.5775" lon="-4.44401">
        <ele>57.8</ele>
        <time>2011-04-05T15:47:54Z</time>
      </trkpt>
      <trkpt lat="48.57751" lon="-4.444">
        <ele>57.6</ele>
        <time>2011-04-05T15:47:55Z</time>
      </trkpt>
      <trkpt lat="48.57752" lon="-4.44399">
        <ele>57.4</ele>
        <time>2011-04-05T15:47:56Z</time>
      </trkpt>
      <trkpt lat="48.57753" lon="-4.44397">
        <ele>57.3</ele>
        <time>2011-04-05T15:47:57Z</time>
      </trkpt>
      <trkpt lat="48.57753" lon="-4.44395">
        <ele>57.5</ele>
        <time>2011-04-05T15:47:57Z</time>
      </trkpt>
      <trkpt lat="48.57755" lon="-4.44394">
        <ele>57.7</ele>
        <time>2011-04-05T15:47:59Z</time>
      </trkpt>
      <trkpt lat="48.57755" lon="-4.44391">
        <ele>58.1</ele>
        <time>2011-04-05T15:48:00Z</time>
      </trkpt>
      <trkpt lat="48.57756" lon="-4.44389">
        <ele>58.3</ele>
        <time>2011-04-05T15:48:01Z</time>
      </trkpt>
      <trkpt lat="48.57757" lon="-4.44387">
        <ele>58.6</ele>
        <time>2011-04-05T15:48:03Z</time>
      </trkpt>
      <trkpt lat="48.57758" lon="-4.44385">
        <ele>59.6</ele>
        <time>2011-04-05T15:48:04Z</time>
      </trkpt>
      <trkpt lat="48.57758" lon="-4.44384">
        <ele>60</ele>
        <time>2011-04-05T15:48:06Z</time>
      </trkpt>
      <trkpt lat="48.57759" lon="-4.44382">
        <ele>60.3</ele>
        <time>2011-04-05T15:48:06Z</time>
      </trkpt>
      <trkpt lat="48.57759" lon="-4.44379">
        <ele>60.7</ele>
        <time>2011-04-05T15:48:07Z</time>
      </trkpt>
      <trkpt lat="48.5776" lon="-4.44377">
        <ele>61.4</ele>
        <time>2011-04-05T15:48:08Z</time>
      </trkpt>
      <trkpt lat="48.57762" lon="-4.44376">
        <ele>61.7</ele>
        <time>2011-04-05T15:48:09Z</time>
      </trkpt>
      <trkpt lat="48.57763" lon="-4.44375">
        <ele>61.6</ele>
        <time>2011-04-05T15:48:11Z</time>
      </trkpt>
      <trkpt lat="48.57764" lon="-4.44373">
        <ele>62</ele>
        <time>2011-04-05T15:48:11Z</time>
      </trkpt>
      <trkpt lat="48.57764" lon="-4.44371">
        <ele>62</ele>
        <time>2011-04-05T15:48:12Z</time>
      </trkpt>
      <trkpt lat="48.57766" lon="-4.4437">
        <ele>61.6</ele>
        <time>2011-04-05T15:48:13Z</time>
      </trkpt>
      <trkpt lat="48.57767" lon="-4.4437">
        <ele>61.6</ele>
        <time>2011-04-05T15:48:13Z</time>
      </trkpt>
      <trkpt lat="48.5777" lon="-4.44367">
        <ele>62.1</ele>
        <time>2011-04-05T15:48:14Z</time>
      </trkpt>
      <trkpt lat="48.57771" lon="-4.44366">
        <ele>62.3</ele>
        <time>2011-04-05T15:48:15Z</time>
      </trkpt>
      <trkpt lat="48.57772" lon="-4.44364">
        <ele>61.6</ele>
        <time>2011-04-05T15:48:15Z</time>
      </trkpt>
      <trkpt lat="48.57773" lon="-4.44363">
        <ele>61.9</ele>
        <time>2011-04-05T15:48:17Z</time>
      </trkpt>
      <trkpt lat="48.57774" lon="-4.44362">
        <ele>61.5</ele>
        <time>2011-04-05T15:48:18Z</time>
      </trkpt>
      <trkpt lat="48.57776" lon="-4.44361">
        <ele>61.3</ele>
        <time>2011-04-05T15:48:20Z</time>
      </trkpt>
      <trkpt lat="48.57776" lon="-4.44358">
        <ele>61.4</ele>
        <time>2011-04-05T15:48:21Z</time>
      </trkpt>
      <trkpt lat="48.57777" lon="-4.44356">
        <ele>60.6</ele>
        <time>2011-04-05T15:48:21Z</time>
      </trkpt>
      <trkpt lat="48.57778" lon="-4.44354">
        <ele>59.6</ele>
        <time>2011-04-05T15:48:23Z</time>
      </trkpt>
      <trkpt lat="48.5778" lon="-4.44354">
        <ele>58.8</ele>
        <time>2011-04-05T15:48:24Z</time>
      </trkpt>
      <trkpt lat="48.57781" lon="-4.44352">
        <ele>58.5</ele>
        <time>2011-04-05T15:48:25Z</time>
      </trkpt>
      <trkpt lat="48.57781" lon="-4.44349">
        <ele>59</ele>
        <time>2011-04-05T15:48:26Z</time>
      </trkpt>
      <trkpt lat="48.57782" lon="-4.44348">
        <ele>58.7</ele>
        <time>2011-04-05T15:48:27Z</time>
      </trkpt>
      <trkpt lat="48.57782" lon="-4.44346">
        <ele>58.7</ele>
        <time>2011-04-05T15:48:28Z</time>
      </trkpt>
      <trkpt lat="48.57782" lon="-4.44343">
        <ele>58.4</ele>
        <time>2011-04-05T15:48:29Z</time>
      </trkpt>
      <trkpt lat="48.57782" lon="-4.44342">
        <ele>58.3</ele>
        <time>2011-04-05T15:48:30Z</time>
      </trkpt>
      <trkpt lat="48.57782" lon="-4.4434">
        <ele>57.8</ele>
        <time>2011-04-05T15:48:31Z</time>
      </trkpt>
      <trkpt lat="48.57784" lon="-4.4434">
        <ele>57.4</ele>
        <time>2011-04-05T15:48:32Z</time>
      </trkpt>
      <trkpt lat="48.57785" lon="-4.4434">
        <ele>57.1</ele>
        <time>2011-04-05T15:48:34Z</time>
      </trkpt>
      <trkpt lat="48.57786" lon="-4.44339">
        <ele>56.7</ele>
        <time>2011-04-05T15:48:34Z</time>
      </trkpt>
      <trkpt lat="48.57788" lon="-4.44339">
        <ele>56.5</ele>
        <time>2011-04-05T15:48:35Z</time>
      </trkpt>
      <trkpt lat="48.57789" lon="-4.44339">
        <ele>56.3</ele>
        <time>2011-04-05T15:48:37Z</time>
      </trkpt>
      <trkpt lat="48.57791" lon="-4.44339">
        <ele>56.3</ele>
        <time>2011-04-05T15:48:38Z</time>
      </trkpt>
      <trkpt lat="48.57793" lon="-4.44339">
        <ele>56.1</ele>
        <time>2011-04-05T15:48:40Z</time>
      </trkpt>
      <trkpt lat="48.57794" lon="-4.44339">
        <ele>55.9</ele>
        <time>2011-04-05T15:48:41Z</time>
      </trkpt>
      <trkpt lat="48.57796" lon="-4.44338">
        <ele>55.9</ele>
        <time>2011-04-05T15:48:42Z</time>
      </trkpt>
      <trkpt lat="48.57798" lon="-4.44338">
        <ele>55.7</ele>
        <time>2011-04-05T15:48:43Z</time>
      </trkpt>
      <trkpt lat="48.57799" lon="-4.44338">
        <ele>55.8</ele>
        <time>2011-04-05T15:48:44Z</time>
      </trkpt>
      <trkpt lat="48.57801" lon="-4.44336">
        <ele>56.5</ele>
        <time>2011-04-05T15:48:44Z</time>
      </trkpt>
      <trkpt lat="48.57802" lon="-4.44335">
        <ele>56.8</ele>
        <time>2011-04-05T15:48:45Z</time>
      </trkpt>
      <trkpt lat="48.57804" lon="-4.44334">
        <ele>57.3</ele>
        <time>2011-04-05T15:48:46Z</time>
      </trkpt>
      <trkpt lat="48.57805" lon="-4.44333">
        <ele>58.3</ele>
        <time>2011-04-05T15:48:47Z</time>
      </trkpt>
      <trkpt lat="48.57806" lon="-4.44331">
        <ele>58.8</ele>
        <time>2011-04-05T15:48:47Z</time>
      </trkpt>
      <trkpt lat="48.57807" lon="-4.44331">
        <ele>58.5</ele>
        <time>2011-04-05T15:48:48Z</time>
      </trkpt>
      <trkpt lat="48.57809" lon="-4.4433">
        <ele>58.5</ele>
        <time>2011-04-05T15:48:49Z</time>
      </trkpt>
      <trkpt lat="48.5781" lon="-4.44329">
        <ele>59.1</ele>
        <time>2011-04-05T15:48:49Z</time>
      </trkpt>
      <trkpt lat="48.57812" lon="-4.44328">
        <ele>59.3</ele>
        <time>2011-04-05T15:48:50Z</time>
      </trkpt>
      <trkpt lat="48.57814" lon="-4.44327">
        <ele>59.8</ele>
        <time>2011-04-05T15:48:50Z</time>
      </trkpt>
      <trkpt lat="48.57815" lon="-4.44326">
        <ele>59.9</ele>
        <time>2011-04-05T15:48:52Z</time>
      </trkpt>
      <trkpt lat="48.57817" lon="-4.44325">
        <ele>59.9</ele>
        <time>2011-04-05T15:48:53Z</time>
      </trkpt>
      <trkpt lat="48.57818" lon="-4.44324">
        <ele>59.7</ele>
        <time>2011-04-05T15:48:55Z</time>
      </trkpt>
      <trkpt lat="48.57819" lon="-4.44324">
        <ele>59.3</ele>
        <time>2011-04-05T15:48:56Z</time>
      </trkpt>
      <trkpt lat="48.57821" lon="-4.44323">
        <ele>59.4</ele>
        <time>2011-04-05T15:48:57Z</time>
      </trkpt>
      <trkpt lat="48.57822" lon="-4.44322">
        <ele>59.3</ele>
        <time>2011-04-05T15:48:58Z</time>
      </trkpt>
      <trkpt lat="48.57823" lon="-4.44321">
        <ele>59.1</ele>
        <time>2011-04-05T15:48:59Z</time>
      </trkpt>
      <trkpt lat="48.57825" lon="-4.44321">
        <ele>59.4</ele>
        <time>2011-04-05T15:49:00Z</time>
      </trkpt>
      <trkpt lat="48.57827" lon="-4.4432">
        <ele>59.4</ele>
        <time>2011-04-05T15:49:01Z</time>
      </trkpt>
      <trkpt lat="48.57828" lon="-4.44319">
        <ele>59.2</ele>
        <time>2011-04-05T15:49:02Z</time>
      </trkpt>
      <trkpt lat="48.5783" lon="-4.44319">
        <ele>59</ele>
        <time>2011-04-05T15:49:04Z</time>
      </trkpt>
      <trkpt lat="48.57831" lon="-4.44318">
        <ele>59</ele>
        <time>2011-04-05T15:49:04Z</time>
      </trkpt>
      <trkpt lat="48.57833" lon="-4.44318">
        <ele>58.9</ele>
        <time>2011-04-05T15:49:05Z</time>
      </trkpt>
      <trkpt lat="48.57834" lon="-4.44317">
        <ele>59.1</ele>
        <time>2011-04-05T15:49:07Z</time>
      </trkpt>
      <trkpt lat="48.57836" lon="-4.44316">
        <ele>59.1</ele>
        <time>2011-04-05T15:49:08Z</time>
      </trkpt>
      <trkpt lat="48.57837" lon="-4.44316">
        <ele>58.9</ele>
        <time>2011-04-05T15:49:10Z</time>
      </trkpt>
      <trkpt lat="48.57839" lon="-4.44317">
        <ele>58.4</ele>
        <time>2011-04-05T15:49:11Z</time>
      </trkpt>
      <trkpt lat="48.57841" lon="-4.44317">
        <ele>58</ele>
        <time>2011-04-05T15:49:12Z</time>
      </trkpt>
      <trkpt lat="48.57841" lon="-4.44316">
        <ele>58.7</ele>
        <time>2011-04-05T15:49:13Z</time>
      </trkpt>
      <trkpt lat="48.57842" lon="-4.44315">
        <ele>58.2</ele>
        <time>2011-04-05T15:49:14Z</time>
      </trkpt>
      <trkpt lat="48.57843" lon="-4.44313">
        <ele>59.1</ele>
        <time>2011-04-05T15:49:14Z</time>
      </trkpt>
      <trkpt lat="48.57844" lon="-4.44312">
        <ele>59.4</ele>
        <time>2011-04-05T15:49:15Z</time>
      </trkpt>
      <trkpt lat="48.57845" lon="-4.4431">
        <ele>59.9</ele>
        <time>2011-04-05T15:49:16Z</time>
      </trkpt>
      <trkpt lat="48.57846" lon="-4.44307">
        <ele>60.6</ele>
        <time>2011-04-05T15:49:17Z</time>
      </trkpt>
      <trkpt lat="48.57847" lon="-4.44306">
        <ele>59.9</ele>
        <time>2011-04-05T15:49:17Z</time>
      </trkpt>
      <trkpt lat="48.57849" lon="-4.44303">
        <ele>60.7</ele>
        <time>2011-04-05T15:49:18Z</time>
      </trkpt>
      <trkpt lat="48.5785" lon="-4.44301">
        <ele>61.3</ele>
        <time>2011-04-05T15:49:19Z</time>
      </trkpt>
      <trkpt lat="48.57851" lon="-4.44299">
        <ele>61.4</ele>
        <time>2011-04-05T15:49:19Z</time>
      </trkpt>
      <trkpt lat="48.57851" lon="-4.44298">
        <ele>61.2</ele>
        <time>2011-04-05T15:49:20Z</time>
      </trkpt>
      <trkpt lat="48.57852" lon="-4.44296">
        <ele>61.1</ele>
        <time>2011-04-05T15:49:20Z</time>
      </trkpt>
      <trkpt lat="48.57852" lon="-4.44294">
        <ele>61</ele>
        <time>2011-04-05T15:49:22Z</time>
      </trkpt>
      <trkpt lat="48.57852" lon="-4.44291">
        <ele>60.5</ele>
        <time>2011-04-05T15:49:23Z</time>
      </trkpt>
      <trkpt lat="48.57852" lon="-4.44289">
        <ele>60.5</ele>
        <time>2011-04-05T15:49:25Z</time>
      </trkpt>
      <trkpt lat="48.57853" lon="-4.44287">
        <ele>60.3</ele>
        <time>2011-04-05T15:49:26Z</time>
      </trkpt>
      <trkpt lat="48.57853" lon="-4.44284">
        <ele>60</ele>
        <time>2011-04-05T15:49:27Z</time>
      </trkpt>
      <trkpt lat="48.57853" lon="-4.44282">
        <ele>59.5</ele>
        <time>2011-04-05T15:49:28Z</time>
      </trkpt>
      <trkpt lat="48.57853" lon="-4.4428">
        <ele>59.4</ele>
        <time>2011-04-05T15:49:29Z</time>
      </trkpt>
      <trkpt lat="48.57853" lon="-4.44278">
        <ele>59.2</ele>
        <time>2011-04-05T15:49:30Z</time>
      </trkpt>
      <trkpt lat="48.57853" lon="-4.44274">
        <ele>59.7</ele>
        <time>2011-04-05T15:49:31Z</time>
      </trkpt>
      <trkpt lat="48.57853" lon="-4.44271">
        <ele>59.8</ele>
        <time>2011-04-05T15:49:32Z</time>
      </trkpt>
      <trkpt lat="48.57854" lon="-4.44269">
        <ele>60</ele>
        <time>2011-04-05T15:49:34Z</time>
      </trkpt>
      <trkpt lat="48.57854" lon="-4.44267">
        <ele>59.7</ele>
        <time>2011-04-05T15:49:34Z</time>
      </trkpt>
      <trkpt lat="48.57855" lon="-4.44266">
        <ele>59.2</ele>
        <time>2011-04-05T15:49:35Z</time>
      </trkpt>
      <trkpt lat="48.57855" lon="-4.44264">
        <ele>58.4</ele>
        <time>2011-04-05T15:49:37Z</time>
      </trkpt>
      <trkpt lat="48.57855" lon="-4.44262">
        <ele>58.2</ele>
        <time>2011-04-05T15:49:38Z</time>
      </trkpt>
      <trkpt lat="48.57855" lon="-4.4426">
        <ele>58.4</ele>
        <time>2011-04-05T15:49:39Z</time>
      </trkpt>
      <trkpt lat="48.57855" lon="-4.44258">
        <ele>58.2</ele>
        <time>2011-04-05T15:49:41Z</time>
      </trkpt>
      <trkpt lat="48.57855" lon="-4.44256">
        <ele>57.8</ele>
        <time>2011-04-05T15:49:42Z</time>
      </trkpt>
      <trkpt lat="48.57854" lon="-4.44253">
        <ele>57.5</ele>
        <time>2011-04-05T15:49:43Z</time>
      </trkpt>
      <trkpt lat="48.57854" lon="-4.44251">
        <ele>56.9</ele>
        <time>2011-04-05T15:49:44Z</time>
      </trkpt>
      <trkpt lat="48.57853" lon="-4.44249">
        <ele>56.4</ele>
        <time>2011-04-05T15:49:44Z</time>
      </trkpt>
      <trkpt lat="48.57852" lon="-4.44246">
        <ele>56.8</ele>
        <time>2011-04-05T15:49:45Z</time>
      </trkpt>
      <trkpt lat="48.57852" lon="-4.44244">
        <ele>56.1</ele>
        <time>2011-04-05T15:49:46Z</time>
      </trkpt>
      <trkpt lat="48.57852" lon="-4.44242">
        <ele>55.5</ele>
        <time>2011-04-05T15:49:47Z</time>
      </trkpt>
      <trkpt lat="48.57852" lon="-4.44239">
        <ele>54.9</ele>
        <time>2011-04-05T15:49:47Z</time>
      </trkpt>
      <trkpt lat="48.57852" lon="-4.44237">
        <ele>55</ele>
        <time>2011-04-05T15:49:48Z</time>
      </trkpt>
      <trkpt lat="48.57852" lon="-4.44235">
        <ele>54.8</ele>
        <time>2011-04-05T15:49:49Z</time>
      </trkpt>
      <trkpt lat="48.57851" lon="-4.44232">
        <ele>54.7</ele>
        <time>2011-04-05T15:49:49Z</time>
      </trkpt>
      <trkpt lat="48.57851" lon="-4.4423">
        <ele>54.5</ele>
        <time>2011-04-05T15:49:50Z</time>
      </trkpt>
      <trkpt lat="48.57851" lon="-4.44228">
        <ele>54.4</ele>
        <time>2011-04-05T15:49:50Z</time>
      </trkpt>
      <trkpt lat="48.57851" lon="-4.44226">
        <ele>54.1</ele>
        <time>2011-04-05T15:49:52Z</time>
      </trkpt>
      <trkpt lat="48.57851" lon="-4.44224">
        <ele>53.8</ele>
        <time>2011-04-05T15:49:53Z</time>
      </trkpt>
      <trkpt lat="48.57851" lon="-4.44222">
        <ele>53.9</ele>
        <time>2011-04-05T15:49:55Z</time>
      </trkpt>
      <trkpt lat="48.57851" lon="-4.4422">
        <ele>53.7</ele>
        <time>2011-04-05T15:49:56Z</time>
      </trkpt>
      <trkpt lat="48.5785" lon="-4.44217">
        <ele>53.8</ele>
        <time>2011-04-05T15:49:57Z</time>
      </trkpt>
      <trkpt lat="48.5785" lon="-4.44215">
        <ele>53.7</ele>
        <time>2011-04-05T15:49:58Z</time>
      </trkpt>
      <trkpt lat="48.5785" lon="-4.44213">
        <ele>53.6</ele>
        <time>2011-04-05T15:49:59Z</time>
      </trkpt>
      <trkpt lat="48.5785" lon="-4.4421">
        <ele>53.7</ele>
        <time>2011-04-05T15:50:00Z</time>
      </trkpt>
      <trkpt lat="48.57849" lon="-4.44208">
        <ele>53.7</ele>
        <time>2011-04-05T15:50:01Z</time>
      </trkpt>
      <trkpt lat="48.57849" lon="-4.44205">
        <ele>53.9</ele>
        <time>2011-04-05T15:50:02Z</time>
      </trkpt>
      <trkpt lat="48.57849" lon="-4.44203">
        <ele>53.9</ele>
        <time>2011-04-05T15:50:04Z</time>
      </trkpt>
      <trkpt lat="48.57849" lon="-4.44201">
        <ele>53.5</ele>
        <time>2011-04-05T15:50:05Z</time>
      </trkpt>
      <trkpt lat="48.57849" lon="-4.44199">
        <ele>53.5</ele>
        <time>2011-04-05T15:50:06Z</time>
      </trkpt>
      <trkpt lat="48.57849" lon="-4.44196">
        <ele>53.5</ele>
        <time>2011-04-05T15:50:07Z</time>
      </trkpt>
      <trkpt lat="48.57849" lon="-4.44194">
        <ele>53.5</ele>
        <time>2011-04-05T15:50:07Z</time>
      </trkpt>
      <trkpt lat="48.57848" lon="-4.44192">
        <ele>53.5</ele>
        <time>2011-04-05T15:50:09Z</time>
      </trkpt>
      <trkpt lat="48.57848" lon="-4.4419">
        <ele>53.2</ele>
        <time>2011-04-05T15:50:10Z</time>
      </trkpt>
      <trkpt lat="48.57848" lon="-4.44188">
        <ele>53.7</ele>
        <time>2011-04-05T15:50:12Z</time>
      </trkpt>
      <trkpt lat="48.57847" lon="-4.44186">
        <ele>53.9</ele>
        <time>2011-04-05T15:50:12Z</time>
      </trkpt>
      <trkpt lat="48.57847" lon="-4.44183">
        <ele>54.4</ele>
        <time>2011-04-05T15:50:13Z</time>
      </trkpt>
      <trkpt lat="48.57847" lon="-4.44181">
        <ele>54.6</ele>
        <time>2011-04-05T15:50:14Z</time>
      </trkpt>
      <trkpt lat="48.57846" lon="-4.44179">
        <ele>55.3</ele>
        <time>2011-04-05T15:50:15Z</time>
      </trkpt>
      <trkpt lat="48.57846" lon="-4.44177">
        <ele>55.7</ele>
        <time>2011-04-05T15:50:15Z</time>
      </trkpt>
      <trkpt lat="48.57845" lon="-4.44174">
        <ele>56.1</ele>
        <time>2011-04-05T15:50:16Z</time>
      </trkpt>
      <trkpt lat="48.57845" lon="-4.44172">
        <ele>56</ele>
        <time>2011-04-05T15:50:17Z</time>
      </trkpt>
      <trkpt lat="48.57845" lon="-4.4417">
        <ele>55.8</ele>
        <time>2011-04-05T15:50:19Z</time>
      </trkpt>
      <trkpt lat="48.57844" lon="-4.44168">
        <ele>55.8</ele>
        <time>2011-04-05T15:50:19Z</time>
      </trkpt>
      <trkpt lat="48.57844" lon="-4.44166">
        <ele>55.7</ele>
        <time>2011-04-05T15:50:21Z</time>
      </trkpt>
      <trkpt lat="48.57845" lon="-4.44164">
        <ele>55.7</ele>
        <time>2011-04-05T15:50:21Z</time>
      </trkpt>
      <trkpt lat="48.57845" lon="-4.44162">
        <ele>55.5</ele>
        <time>2011-04-05T15:50:23Z</time>
      </trkpt>
      <trkpt lat="48.57844" lon="-4.4416">
        <ele>55.9</ele>
        <time>2011-04-05T15:50:24Z</time>
      </trkpt>
      <trkpt lat="48.57844" lon="-4.44158">
        <ele>55.8</ele>
        <time>2011-04-05T15:50:26Z</time>
      </trkpt>
      <trkpt lat="48.57843" lon="-4.44156">
        <ele>55.8</ele>
        <time>2011-04-05T15:50:27Z</time>
      </trkpt>
      <trkpt lat="48.57843" lon="-4.44154">
        <ele>56.2</ele>
        <time>2011-04-05T15:50:27Z</time>
      </trkpt>
      <trkpt lat="48.57842" lon="-4.44152">
        <ele>56</ele>
        <time>2011-04-05T15:50:28Z</time>
      </trkpt>
      <trkpt lat="48.57842" lon="-4.4415">
        <ele>56</ele>
        <time>2011-04-05T15:50:30Z</time>
      </trkpt>
      <trkpt lat="48.57841" lon="-4.44149">
        <ele>56.4</ele>
        <time>2011-04-05T15:50:31Z</time>
      </trkpt>
      <trkpt lat="48.57841" lon="-4.44147">
        <ele>56.6</ele>
        <time>2011-04-05T15:50:32Z</time>
      </trkpt>
      <trkpt lat="48.57841" lon="-4.44145">
        <ele>56.7</ele>
        <time>2011-04-05T15:50:33Z</time>
      </trkpt>
      <trkpt lat="48.5784" lon="-4.44143">
        <ele>57</ele>
        <time>2011-04-05T15:50:33Z</time>
      </trkpt>
      <trkpt lat="48.5784" lon="-4.44141">
        <ele>56.9</ele>
        <time>2011-04-05T15:50:34Z</time>
      </trkpt>
      <trkpt lat="48.57839" lon="-4.44137">
        <ele>56.8</ele>
        <time>2011-04-05T15:50:35Z</time>
      </trkpt>
      <trkpt lat="48.57839" lon="-4.44136">
        <ele>56.6</ele>
        <time>2011-04-05T15:50:35Z</time>
      </trkpt>
      <trkpt lat="48.57839" lon="-4.44134">
        <ele>56.5</ele>
        <time>2011-04-05T15:50:37Z</time>
      </trkpt>
      <trkpt lat="48.57839" lon="-4.44134">
        <ele>56.5</ele>
        <time>2011-04-05T15:50:53Z</time>
      </trkpt>
      <trkpt lat="48.57836" lon="-4.44121">
        <ele>57.9</ele>
        <time>2011-04-05T15:50:55Z</time>
      </trkpt>
      <trkpt lat="48.57836" lon="-4.44119">
        <ele>57.6</ele>
        <time>2011-04-05T15:50:55Z</time>
      </trkpt>
      <trkpt lat="48.57837" lon="-4.44117">
        <ele>57.4</ele>
        <time>2011-04-05T15:50:56Z</time>
      </trkpt>
      <trkpt lat="48.57838" lon="-4.44115">
        <ele>56.7</ele>
        <time>2011-04-05T15:50:58Z</time>
      </trkpt>
      <trkpt lat="48.57839" lon="-4.44114">
        <ele>56.1</ele>
        <time>2011-04-05T15:50:59Z</time>
      </trkpt>
      <trkpt lat="48.5784" lon="-4.44112">
        <ele>55.9</ele>
        <time>2011-04-05T15:51:00Z</time>
      </trkpt>
      <trkpt lat="48.57841" lon="-4.44111">
        <ele>55.5</ele>
        <time>2011-04-05T15:51:02Z</time>
      </trkpt>
      <trkpt lat="48.57842" lon="-4.44109">
        <ele>55.2</ele>
        <time>2011-04-05T15:51:03Z</time>
      </trkpt>
      <trkpt lat="48.57844" lon="-4.44108">
        <ele>55.1</ele>
        <time>2011-04-05T15:51:04Z</time>
      </trkpt>
      <trkpt lat="48.57845" lon="-4.44107">
        <ele>54.5</ele>
        <time>2011-04-05T15:51:05Z</time>
      </trkpt>
      <trkpt lat="48.57847" lon="-4.44106">
        <ele>55.1</ele>
        <time>2011-04-05T15:51:06Z</time>
      </trkpt>
      <trkpt lat="48.57848" lon="-4.44105">
        <ele>55.5</ele>
        <time>2011-04-05T15:51:07Z</time>
      </trkpt>
      <trkpt lat="48.5785" lon="-4.44105">
        <ele>54.9</ele>
        <time>2011-04-05T15:51:09Z</time>
      </trkpt>
      <trkpt lat="48.57851" lon="-4.44104">
        <ele>55</ele>
        <time>2011-04-05T15:51:10Z</time>
      </trkpt>
      <trkpt lat="48.57852" lon="-4.44103">
        <ele>55.5</ele>
        <time>2011-04-05T15:51:11Z</time>
      </trkpt>
      <trkpt lat="48.57854" lon="-4.44102">
        <ele>55.7</ele>
        <time>2011-04-05T15:51:12Z</time>
      </trkpt>
      <trkpt lat="48.57857" lon="-4.441">
        <ele>55.6</ele>
        <time>2011-04-05T15:51:13Z</time>
      </trkpt>
      <trkpt lat="48.57858" lon="-4.44099">
        <ele>55.4</ele>
        <time>2011-04-05T15:51:13Z</time>
      </trkpt>
      <trkpt lat="48.5786" lon="-4.44098">
        <ele>55.6</ele>
        <time>2011-04-05T15:51:15Z</time>
      </trkpt>
      <trkpt lat="48.57861" lon="-4.44097">
        <ele>55.5</ele>
        <time>2011-04-05T15:51:15Z</time>
      </trkpt>
      <trkpt lat="48.57862" lon="-4.44097">
        <ele>55.4</ele>
        <time>2011-04-05T15:51:16Z</time>
      </trkpt>
      <trkpt lat="48.57863" lon="-4.44096">
        <ele>55.1</ele>
        <time>2011-04-05T15:51:17Z</time>
      </trkpt>
      <trkpt lat="48.57867" lon="-4.44093">
        <ele>55.5</ele>
        <time>2011-04-05T15:51:18Z</time>
      </trkpt>
      <trkpt lat="48.57869" lon="-4.44092">
        <ele>55.3</ele>
        <time>2011-04-05T15:51:19Z</time>
      </trkpt>
      <trkpt lat="48.5787" lon="-4.44091">
        <ele>55.6</ele>
        <time>2011-04-05T15:51:20Z</time>
      </trkpt>
      <trkpt lat="48.57872" lon="-4.4409">
        <ele>55.7</ele>
        <time>2011-04-05T15:51:21Z</time>
      </trkpt>
      <trkpt lat="48.57873" lon="-4.44089">
        <ele>56.2</ele>
        <time>2011-04-05T15:51:23Z</time>
      </trkpt>
      <trkpt lat="48.57874" lon="-4.44087">
        <ele>56.1</ele>
        <time>2011-04-05T15:51:24Z</time>
      </trkpt>
      <trkpt lat="48.57876" lon="-4.44086">
        <ele>56.2</ele>
        <time>2011-04-05T15:51:26Z</time>
      </trkpt>
      <trkpt lat="48.57877" lon="-4.44086">
        <ele>56.1</ele>
        <time>2011-04-05T15:51:26Z</time>
      </trkpt>
      <trkpt lat="48.57878" lon="-4.44085">
        <ele>56.2</ele>
        <time>2011-04-05T15:51:28Z</time>
      </trkpt>
      <trkpt lat="48.5788" lon="-4.44084">
        <ele>56.5</ele>
        <time>2011-04-05T15:51:29Z</time>
      </trkpt>
      <trkpt lat="48.57881" lon="-4.44083">
        <ele>56.7</ele>
        <time>2011-04-05T15:51:30Z</time>
      </trkpt>
      <trkpt lat="48.57883" lon="-4.44083">
        <ele>56.5</ele>
        <time>2011-04-05T15:51:31Z</time>
      </trkpt>
      <trkpt lat="48.57884" lon="-4.44082">
        <ele>56.5</ele>
        <time>2011-04-05T15:51:32Z</time>
      </trkpt>
      <trkpt lat="48.57885" lon="-4.4408">
        <ele>56.6</ele>
        <time>2011-04-05T15:51:32Z</time>
      </trkpt>
      <trkpt lat="48.57887" lon="-4.44079">
        <ele>56.6</ele>
        <time>2011-04-05T15:51:34Z</time>
      </trkpt>
      <trkpt lat="48.57888" lon="-4.44079">
        <ele>56.7</ele>
        <time>2011-04-05T15:51:34Z</time>
      </trkpt>
      <trkpt lat="48.5789" lon="-4.44078">
        <ele>56.7</ele>
        <time>2011-04-05T15:51:36Z</time>
      </trkpt>
      <trkpt lat="48.57891" lon="-4.44077">
        <ele>56.7</ele>
        <time>2011-04-05T15:51:37Z</time>
      </trkpt>
      <trkpt lat="48.57893" lon="-4.44076">
        <ele>56.8</ele>
        <time>2011-04-05T15:51:39Z</time>
      </trkpt>
      <trkpt lat="48.57894" lon="-4.44075">
        <ele>57.2</ele>
        <time>2011-04-05T15:51:40Z</time>
      </trkpt>
      <trkpt lat="48.57896" lon="-4.44074">
        <ele>57.3</ele>
        <time>2011-04-05T15:51:41Z</time>
      </trkpt>
      <trkpt lat="48.57897" lon="-4.44073">
        <ele>57.8</ele>
        <time>2011-04-05T15:51:42Z</time>
      </trkpt>
      <trkpt lat="48.57899" lon="-4.44072">
        <ele>57.7</ele>
        <time>2011-04-05T15:51:43Z</time>
      </trkpt>
      <trkpt lat="48.579" lon="-4.44071">
        <ele>57.7</ele>
        <time>2011-04-05T15:51:44Z</time>
      </trkpt>
      <trkpt lat="48.57902" lon="-4.4407">
        <ele>57.4</ele>
        <time>2011-04-05T15:51:45Z</time>
      </trkpt>
      <trkpt lat="48.57904" lon="-4.4407">
        <ele>57.1</ele>
        <time>2011-04-05T15:51:46Z</time>
      </trkpt>
      <trkpt lat="48.57905" lon="-4.44069">
        <ele>57.2</ele>
        <time>2011-04-05T15:51:47Z</time>
      </trkpt>
      <trkpt lat="48.57907" lon="-4.44068">
        <ele>57.2</ele>
        <time>2011-04-05T15:51:48Z</time>
      </trkpt>
      <trkpt lat="48.57908" lon="-4.44067">
        <ele>57.3</ele>
        <time>2011-04-05T15:51:50Z</time>
      </trkpt>
      <trkpt lat="48.57911" lon="-4.44065">
        <ele>57.2</ele>
        <time>2011-04-05T15:51:50Z</time>
      </trkpt>
      <trkpt lat="48.57913" lon="-4.44064">
        <ele>57</ele>
        <time>2011-04-05T15:51:51Z</time>
      </trkpt>
      <trkpt lat="48.57914" lon="-4.44064">
        <ele>56.9</ele>
        <time>2011-04-05T15:51:52Z</time>
      </trkpt>
      <trkpt lat="48.57916" lon="-4.44063">
        <ele>56.7</ele>
        <time>2011-04-05T15:51:53Z</time>
      </trkpt>
      <trkpt lat="48.57917" lon="-4.44061">
        <ele>57</ele>
        <time>2011-04-05T15:51:53Z</time>
      </trkpt>
      <trkpt lat="48.57919" lon="-4.4406">
        <ele>56.8</ele>
        <time>2011-04-05T15:51:54Z</time>
      </trkpt>
      <trkpt lat="48.5792" lon="-4.44059">
        <ele>57</ele>
        <time>2011-04-05T15:51:55Z</time>
      </trkpt>
      <trkpt lat="48.57921" lon="-4.44058">
        <ele>56.9</ele>
        <time>2011-04-05T15:51:55Z</time>
      </trkpt>
      <trkpt lat="48.57923" lon="-4.44058">
        <ele>57.1</ele>
        <time>2011-04-05T15:51:57Z</time>
      </trkpt>
      <trkpt lat="48.57924" lon="-4.44057">
        <ele>57.1</ele>
        <time>2011-04-05T15:51:57Z</time>
      </trkpt>
      <trkpt lat="48.57926" lon="-4.44056">
        <ele>57.2</ele>
        <time>2011-04-05T15:51:58Z</time>
      </trkpt>
      <trkpt lat="48.57927" lon="-4.44054">
        <ele>57.6</ele>
        <time>2011-04-05T15:51:59Z</time>
      </trkpt>
      <trkpt lat="48.57928" lon="-4.44053">
        <ele>57.8</ele>
        <time>2011-04-05T15:51:59Z</time>
      </trkpt>
      <trkpt lat="48.5793" lon="-4.44052">
        <ele>58.1</ele>
        <time>2011-04-05T15:52:01Z</time>
      </trkpt>
      <trkpt lat="48.57931" lon="-4.44051">
        <ele>58.4</ele>
        <time>2011-04-05T15:52:02Z</time>
      </trkpt>
      <trkpt lat="48.57932" lon="-4.44049">
        <ele>58.3</ele>
        <time>2011-04-05T15:52:03Z</time>
      </trkpt>
      <trkpt lat="48.57934" lon="-4.44048">
        <ele>58.3</ele>
        <time>2011-04-05T15:52:04Z</time>
      </trkpt>
      <trkpt lat="48.57935" lon="-4.44047">
        <ele>58.5</ele>
        <time>2011-04-05T15:52:05Z</time>
      </trkpt>
      <trkpt lat="48.57936" lon="-4.44045">
        <ele>58.7</ele>
        <time>2011-04-05T15:52:05Z</time>
      </trkpt>
      <trkpt lat="48.57938" lon="-4.44044">
        <ele>58.5</ele>
        <time>2011-04-05T15:52:06Z</time>
      </trkpt>
      <trkpt lat="48.57939" lon="-4.44043">
        <ele>58.4</ele>
        <time>2011-04-05T15:52:07Z</time>
      </trkpt>
      <trkpt lat="48.5794" lon="-4.44042">
        <ele>58.5</ele>
        <time>2011-04-05T15:52:08Z</time>
      </trkpt>
      <trkpt lat="48.57941" lon="-4.44041">
        <ele>58.5</ele>
        <time>2011-04-05T15:52:09Z</time>
      </trkpt>
      <trkpt lat="48.57942" lon="-4.44039">
        <ele>58.3</ele>
        <time>2011-04-05T15:52:10Z</time>
      </trkpt>
      <trkpt lat="48.57943" lon="-4.44037">
        <ele>58.2</ele>
        <time>2011-04-05T15:52:11Z</time>
      </trkpt>
      <trkpt lat="48.57944" lon="-4.44035">
        <ele>58.3</ele>
        <time>2011-04-05T15:52:12Z</time>
      </trkpt>
      <trkpt lat="48.57945" lon="-4.44033">
        <ele>58.2</ele>
        <time>2011-04-05T15:52:12Z</time>
      </trkpt>
      <trkpt lat="48.57946" lon="-4.44031">
        <ele>58.1</ele>
        <time>2011-04-05T15:52:13Z</time>
      </trkpt>
      <trkpt lat="48.57947" lon="-4.4403">
        <ele>58</ele>
        <time>2011-04-05T15:52:14Z</time>
      </trkpt>
      <trkpt lat="48.57948" lon="-4.44028">
        <ele>58.3</ele>
        <time>2011-04-05T15:52:15Z</time>
      </trkpt>
      <trkpt lat="48.57949" lon="-4.44026">
        <ele>58</ele>
        <time>2011-04-05T15:52:16Z</time>
      </trkpt>
      <trkpt lat="48.5795" lon="-4.44024">
        <ele>57.8</ele>
        <time>2011-04-05T15:52:17Z</time>
      </trkpt>
      <trkpt lat="48.57951" lon="-4.44023">
        <ele>57.7</ele>
        <time>2011-04-05T15:52:18Z</time>
      </trkpt>
      <trkpt lat="48.57952" lon="-4.44021">
        <ele>57.5</ele>
        <time>2011-04-05T15:52:18Z</time>
      </trkpt>
      <trkpt lat="48.57953" lon="-4.44019">
        <ele>57.6</ele>
        <time>2011-04-05T15:52:19Z</time>
      </trkpt>
      <trkpt lat="48.57954" lon="-4.44016">
        <ele>57.7</ele>
        <time>2011-04-05T15:52:20Z</time>
      </trkpt>
      <trkpt lat="48.57955" lon="-4.44014">
        <ele>57.6</ele>
        <time>2011-04-05T15:52:21Z</time>
      </trkpt>
      <trkpt lat="48.57955" lon="-4.44012">
        <ele>57.5</ele>
        <time>2011-04-05T15:52:22Z</time>
      </trkpt>
      <trkpt lat="48.57956" lon="-4.4401">
        <ele>57.5</ele>
        <time>2011-04-05T15:52:24Z</time>
      </trkpt>
      <trkpt lat="48.57957" lon="-4.44008">
        <ele>57.4</ele>
        <time>2011-04-05T15:52:24Z</time>
      </trkpt>
      <trkpt lat="48.57958" lon="-4.44006">
        <ele>57.5</ele>
        <time>2011-04-05T15:52:25Z</time>
      </trkpt>
      <trkpt lat="48.57959" lon="-4.44004">
        <ele>57.6</ele>
        <time>2011-04-05T15:52:26Z</time>
      </trkpt>
      <trkpt lat="48.57959" lon="-4.44002">
        <ele>57.6</ele>
        <time>2011-04-05T15:52:27Z</time>
      </trkpt>
      <trkpt lat="48.5796" lon="-4.44">
        <ele>57.8</ele>
        <time>2011-04-05T15:52:29Z</time>
      </trkpt>
      <trkpt lat="48.57961" lon="-4.43998">
        <ele>57.9</ele>
        <time>2011-04-05T15:52:30Z</time>
      </trkpt>
      <trkpt lat="48.57962" lon="-4.43996">
        <ele>58</ele>
        <time>2011-04-05T15:52:31Z</time>
      </trkpt>
      <trkpt lat="48.57963" lon="-4.43994">
        <ele>58.1</ele>
        <time>2011-04-05T15:52:31Z</time>
      </trkpt>
      <trkpt lat="48.57963" lon="-4.43992">
        <ele>58.1</ele>
        <time>2011-04-05T15:52:32Z</time>
      </trkpt>
      <trkpt lat="48.57964" lon="-4.4399">
        <ele>58.4</ele>
        <time>2011-04-05T15:52:33Z</time>
      </trkpt>
      <trkpt lat="48.57965" lon="-4.43988">
        <ele>58.3</ele>
        <time>2011-04-05T15:52:34Z</time>
      </trkpt>
      <trkpt lat="48.57966" lon="-4.43986">
        <ele>58.2</ele>
        <time>2011-04-05T15:52:35Z</time>
      </trkpt>
      <trkpt lat="48.57967" lon="-4.43985">
        <ele>58.1</ele>
        <time>2011-04-05T15:52:36Z</time>
      </trkpt>
      <trkpt lat="48.57968" lon="-4.43983">
        <ele>58.2</ele>
        <time>2011-04-05T15:52:37Z</time>
      </trkpt>
      <trkpt lat="48.57969" lon="-4.43981">
        <ele>58.1</ele>
        <time>2011-04-05T15:52:37Z</time>
      </trkpt>
      <trkpt lat="48.5797" lon="-4.43979">
        <ele>58.1</ele>
        <time>2011-04-05T15:52:38Z</time>
      </trkpt>
      <trkpt lat="48.57971" lon="-4.43977">
        <ele>58.1</ele>
        <time>2011-04-05T15:52:39Z</time>
      </trkpt>
      <trkpt lat="48.57972" lon="-4.43975">
        <ele>58.1</ele>
        <time>2011-04-05T15:52:40Z</time>
      </trkpt>
      <trkpt lat="48.57973" lon="-4.43973">
        <ele>58</ele>
        <time>2011-04-05T15:52:41Z</time>
      </trkpt>
      <trkpt lat="48.57974" lon="-4.43971">
        <ele>58.1</ele>
        <time>2011-04-05T15:52:43Z</time>
      </trkpt>
      <trkpt lat="48.57975" lon="-4.43969">
        <ele>58.1</ele>
        <time>2011-04-05T15:52:44Z</time>
      </trkpt>
      <trkpt lat="48.57976" lon="-4.43968">
        <ele>58</ele>
        <time>2011-04-05T15:52:44Z</time>
      </trkpt>
      <trkpt lat="48.57977" lon="-4.43966">
        <ele>58</ele>
        <time>2011-04-05T15:52:45Z</time>
      </trkpt>
      <trkpt lat="48.57979" lon="-4.43965">
        <ele>57.9</ele>
        <time>2011-04-05T15:52:46Z</time>
      </trkpt>
      <trkpt lat="48.5798" lon="-4.43963">
        <ele>57.8</ele>
        <time>2011-04-05T15:52:47Z</time>
      </trkpt>
      <trkpt lat="48.57981" lon="-4.43961">
        <ele>57.8</ele>
        <time>2011-04-05T15:52:48Z</time>
      </trkpt>
      <trkpt lat="48.57982" lon="-4.4396">
        <ele>57.6</ele>
        <time>2011-04-05T15:52:49Z</time>
      </trkpt>
      <trkpt lat="48.57983" lon="-4.43959">
        <ele>57.4</ele>
        <time>2011-04-05T15:52:50Z</time>
      </trkpt>
      <trkpt lat="48.57985" lon="-4.43957">
        <ele>57.4</ele>
        <time>2011-04-05T15:52:51Z</time>
      </trkpt>
      <trkpt lat="48.57986" lon="-4.43956">
        <ele>57.3</ele>
        <time>2011-04-05T15:52:51Z</time>
      </trkpt>
      <trkpt lat="48.57987" lon="-4.43954">
        <ele>57.5</ele>
        <time>2011-04-05T15:52:52Z</time>
      </trkpt>
      <trkpt lat="48.57988" lon="-4.43952">
        <ele>57.7</ele>
        <time>2011-04-05T15:52:53Z</time>
      </trkpt>
      <trkpt lat="48.57989" lon="-4.4395">
        <ele>57.5</ele>
        <time>2011-04-05T15:52:54Z</time>
      </trkpt>
      <trkpt lat="48.5799" lon="-4.43948">
        <ele>57.6</ele>
        <time>2011-04-05T15:52:55Z</time>
      </trkpt>
      <trkpt lat="48.57991" lon="-4.43947">
        <ele>57.5</ele>
        <time>2011-04-05T15:52:57Z</time>
      </trkpt>
      <trkpt lat="48.57993" lon="-4.43945">
        <ele>57.4</ele>
        <time>2011-04-05T15:52:58Z</time>
      </trkpt>
      <trkpt lat="48.57994" lon="-4.43943">
        <ele>57.6</ele>
        <time>2011-04-05T15:52:59Z</time>
      </trkpt>
      <trkpt lat="48.57995" lon="-4.43942">
        <ele>57.5</ele>
        <time>2011-04-05T15:53:00Z</time>
      </trkpt>
      <trkpt lat="48.57996" lon="-4.4394">
        <ele>57.8</ele>
        <time>2011-04-05T15:53:00Z</time>
      </trkpt>
      <trkpt lat="48.57997" lon="-4.43938">
        <ele>58.1</ele>
        <time>2011-04-05T15:53:02Z</time>
      </trkpt>
      <trkpt lat="48.57999" lon="-4.43936">
        <ele>58.1</ele>
        <time>2011-04-05T15:53:03Z</time>
      </trkpt>
      <trkpt lat="48.58" lon="-4.43934">
        <ele>58</ele>
        <time>2011-04-05T15:53:04Z</time>
      </trkpt>
      <trkpt lat="48.58001" lon="-4.43933">
        <ele>57.9</ele>
        <time>2011-04-05T15:53:05Z</time>
      </trkpt>
      <trkpt lat="48.58002" lon="-4.43932">
        <ele>57.8</ele>
        <time>2011-04-05T15:53:06Z</time>
      </trkpt>
      <trkpt lat="48.58003" lon="-4.4393">
        <ele>58</ele>
        <time>2011-04-05T15:53:07Z</time>
      </trkpt>
      <trkpt lat="48.58005" lon="-4.43928">
        <ele>58.3</ele>
        <time>2011-04-05T15:53:08Z</time>
      </trkpt>
      <trkpt lat="48.58006" lon="-4.43926">
        <ele>58.5</ele>
        <time>2011-04-05T15:53:09Z</time>
      </trkpt>
      <trkpt lat="48.58007" lon="-4.43925">
        <ele>58.5</ele>
        <time>2011-04-05T15:53:10Z</time>
      </trkpt>
      <trkpt lat="48.58008" lon="-4.43923">
        <ele>58.4</ele>
        <time>2011-04-05T15:53:11Z</time>
      </trkpt>
      <trkpt lat="48.5801" lon="-4.43922">
        <ele>58.3</ele>
        <time>2011-04-05T15:53:13Z</time>
      </trkpt>
      <trkpt lat="48.58011" lon="-4.43921">
        <ele>58.3</ele>
        <time>2011-04-05T15:53:13Z</time>
      </trkpt>
      <trkpt lat="48.58012" lon="-4.4392">
        <ele>58.2</ele>
        <time>2011-04-05T15:53:14Z</time>
      </trkpt>
      <trkpt lat="48.58014" lon="-4.43919">
        <ele>58.2</ele>
        <time>2011-04-05T15:53:14Z</time>
      </trkpt>
      <trkpt lat="48.58015" lon="-4.43917">
        <ele>58.3</ele>
        <time>2011-04-05T15:53:15Z</time>
      </trkpt>
      <trkpt lat="48.58017" lon="-4.43916">
        <ele>58.1</ele>
        <time>2011-04-05T15:53:16Z</time>
      </trkpt>
      <trkpt lat="48.58018" lon="-4.43916">
        <ele>57.9</ele>
        <time>2011-04-05T15:53:17Z</time>
      </trkpt>
      <trkpt lat="48.58019" lon="-4.43915">
        <ele>57.8</ele>
        <time>2011-04-05T15:53:18Z</time>
      </trkpt>
      <trkpt lat="48.58021" lon="-4.43914">
        <ele>57.8</ele>
        <time>2011-04-05T15:53:19Z</time>
      </trkpt>
      <trkpt lat="48.58023" lon="-4.43913">
        <ele>57.4</ele>
        <time>2011-04-05T15:53:20Z</time>
      </trkpt>
      <trkpt lat="48.58024" lon="-4.43912">
        <ele>57.7</ele>
        <time>2011-04-05T15:53:21Z</time>
      </trkpt>
      <trkpt lat="48.58025" lon="-4.4391">
        <ele>57.9</ele>
        <time>2011-04-05T15:53:22Z</time>
      </trkpt>
      <trkpt lat="48.58027" lon="-4.43909">
        <ele>57.9</ele>
        <time>2011-04-05T15:53:23Z</time>
      </trkpt>
      <trkpt lat="48.58028" lon="-4.43908">
        <ele>57.9</ele>
        <time>2011-04-05T15:53:24Z</time>
      </trkpt>
      <trkpt lat="48.5803" lon="-4.43908">
        <ele>57.4</ele>
        <time>2011-04-05T15:53:25Z</time>
      </trkpt>
      <trkpt lat="48.58031" lon="-4.43906">
        <ele>57.6</ele>
        <time>2011-04-05T15:53:26Z</time>
      </trkpt>
      <trkpt lat="48.58032" lon="-4.43905">
        <ele>57.9</ele>
        <time>2011-04-05T15:53:27Z</time>
      </trkpt>
      <trkpt lat="48.58033" lon="-4.43903">
        <ele>58.1</ele>
        <time>2011-04-05T15:53:28Z</time>
      </trkpt>
      <trkpt lat="48.58035" lon="-4.43902">
        <ele>58.3</ele>
        <time>2011-04-05T15:53:29Z</time>
      </trkpt>
      <trkpt lat="48.58036" lon="-4.43901">
        <ele>58.3</ele>
        <time>2011-04-05T15:53:30Z</time>
      </trkpt>
      <trkpt lat="48.58038" lon="-4.439">
        <ele>58.4</ele>
        <time>2011-04-05T15:53:31Z</time>
      </trkpt>
      <trkpt lat="48.58039" lon="-4.43899">
        <ele>58.3</ele>
        <time>2011-04-05T15:53:32Z</time>
      </trkpt>
      <trkpt lat="48.58041" lon="-4.43898">
        <ele>58.4</ele>
        <time>2011-04-05T15:53:33Z</time>
      </trkpt>
      <trkpt lat="48.58042" lon="-4.43898">
        <ele>58.3</ele>
        <time>2011-04-05T15:53:34Z</time>
      </trkpt>
      <trkpt lat="48.58043" lon="-4.43897">
        <ele>58</ele>
        <time>2011-04-05T15:53:35Z</time>
      </trkpt>
      <trkpt lat="48.58045" lon="-4.43897">
        <ele>58</ele>
        <time>2011-04-05T15:53:36Z</time>
      </trkpt>
      <trkpt lat="48.58046" lon="-4.43896">
        <ele>58.3</ele>
        <time>2011-04-05T15:53:37Z</time>
      </trkpt>
      <trkpt lat="48.58047" lon="-4.43895">
        <ele>58.4</ele>
        <time>2011-04-05T15:53:38Z</time>
      </trkpt>
      <trkpt lat="48.58048" lon="-4.43893">
        <ele>58.5</ele>
        <time>2011-04-05T15:53:39Z</time>
      </trkpt>
      <trkpt lat="48.58049" lon="-4.43892">
        <ele>58.8</ele>
        <time>2011-04-05T15:53:40Z</time>
      </trkpt>
      <trkpt lat="48.5805" lon="-4.43891">
        <ele>58.8</ele>
        <time>2011-04-05T15:53:41Z</time>
      </trkpt>
      <trkpt lat="48.58052" lon="-4.4389">
        <ele>58.8</ele>
        <time>2011-04-05T15:53:43Z</time>
      </trkpt>
      <trkpt lat="48.58053" lon="-4.43889">
        <ele>59</ele>
        <time>2011-04-05T15:53:44Z</time>
      </trkpt>
      <trkpt lat="48.58054" lon="-4.43889">
        <ele>59.4</ele>
        <time>2011-04-05T15:53:45Z</time>
      </trkpt>
      <trkpt lat="48.58055" lon="-4.43888">
        <ele>59.8</ele>
        <time>2011-04-05T15:53:45Z</time>
      </trkpt>
      <trkpt lat="48.58056" lon="-4.43887">
        <ele>59.9</ele>
        <time>2011-04-05T15:53:47Z</time>
      </trkpt>
      <trkpt lat="48.58057" lon="-4.43887">
        <ele>59.9</ele>
        <time>2011-04-05T15:53:48Z</time>
      </trkpt>
      <trkpt lat="48.58058" lon="-4.43886">
        <ele>60</ele>
        <time>2011-04-05T15:53:49Z</time>
      </trkpt>
      <trkpt lat="48.5806" lon="-4.43886">
        <ele>60</ele>
        <time>2011-04-05T15:53:50Z</time>
      </trkpt>
      <trkpt lat="48.58061" lon="-4.43884">
        <ele>60</ele>
        <time>2011-04-05T15:53:51Z</time>
      </trkpt>
      <trkpt lat="48.58062" lon="-4.43883">
        <ele>59.8</ele>
        <time>2011-04-05T15:53:52Z</time>
      </trkpt>
      <trkpt lat="48.58063" lon="-4.43882">
        <ele>59.8</ele>
        <time>2011-04-05T15:53:53Z</time>
      </trkpt>
      <trkpt lat="48.58065" lon="-4.43881">
        <ele>60.1</ele>
        <time>2011-04-05T15:53:54Z</time>
      </trkpt>
      <trkpt lat="48.58066" lon="-4.43881">
        <ele>60</ele>
        <time>2011-04-05T15:53:55Z</time>
      </trkpt>
      <trkpt lat="48.58066" lon="-4.43878">
        <ele>60.6</ele>
        <time>2011-04-05T15:53:56Z</time>
      </trkpt>
      <trkpt lat="48.58067" lon="-4.43877">
        <ele>61</ele>
        <time>2011-04-05T15:53:57Z</time>
      </trkpt>
      <trkpt lat="48.58068" lon="-4.43877">
        <ele>61</ele>
        <time>2011-04-05T15:53:58Z</time>
      </trkpt>
      <trkpt lat="48.58069" lon="-4.43876">
        <ele>61.3</ele>
        <time>2011-04-05T15:53:59Z</time>
      </trkpt>
      <trkpt lat="48.5807" lon="-4.43875">
        <ele>61.1</ele>
        <time>2011-04-05T15:53:59Z</time>
      </trkpt>
      <trkpt lat="48.58072" lon="-4.43873">
        <ele>61.2</ele>
        <time>2011-04-05T15:54:00Z</time>
      </trkpt>
      <trkpt lat="48.58073" lon="-4.43872">
        <ele>61.5</ele>
        <time>2011-04-05T15:54:01Z</time>
      </trkpt>
      <trkpt lat="48.58074" lon="-4.43871">
        <ele>61.5</ele>
        <time>2011-04-05T15:54:02Z</time>
      </trkpt>
      <trkpt lat="48.58075" lon="-4.4387">
        <ele>61.6</ele>
        <time>2011-04-05T15:54:03Z</time>
      </trkpt>
      <trkpt lat="48.58076" lon="-4.43869">
        <ele>61.4</ele>
        <time>2011-04-05T15:54:04Z</time>
      </trkpt>
      <trkpt lat="48.58078" lon="-4.43868">
        <ele>61.3</ele>
        <time>2011-04-05T15:54:05Z</time>
      </trkpt>
      <trkpt lat="48.58078" lon="-4.43866">
        <ele>62</ele>
        <time>2011-04-05T15:54:06Z</time>
      </trkpt>
      <trkpt lat="48.58078" lon="-4.43864">
        <ele>63</ele>
        <time>2011-04-05T15:54:07Z</time>
      </trkpt>
      <trkpt lat="48.58078" lon="-4.43864">
        <ele>63</ele>
        <time>2011-04-05T15:54:11Z</time>
      </trkpt>
      <trkpt lat="48.58081" lon="-4.4386">
        <ele>62.3</ele>
        <time>2011-04-05T15:54:12Z</time>
      </trkpt>
      <trkpt lat="48.58083" lon="-4.43859">
        <ele>61.8</ele>
        <time>2011-04-05T15:54:14Z</time>
      </trkpt>
      <trkpt lat="48.58085" lon="-4.43859">
        <ele>61</ele>
        <time>2011-04-05T15:54:15Z</time>
      </trkpt>
      <trkpt lat="48.58086" lon="-4.43858">
        <ele>59.9</ele>
        <time>2011-04-05T15:54:16Z</time>
      </trkpt>
      <trkpt lat="48.58087" lon="-4.43857">
        <ele>59.3</ele>
        <time>2011-04-05T15:54:16Z</time>
      </trkpt>
      <trkpt lat="48.58089" lon="-4.43857">
        <ele>59.1</ele>
        <time>2011-04-05T15:54:17Z</time>
      </trkpt>
      <trkpt lat="48.5809" lon="-4.43856">
        <ele>59.3</ele>
        <time>2011-04-05T15:54:18Z</time>
      </trkpt>
      <trkpt lat="48.58092" lon="-4.43855">
        <ele>59.3</ele>
        <time>2011-04-05T15:54:19Z</time>
      </trkpt>
      <trkpt lat="48.58093" lon="-4.43855">
        <ele>59.6</ele>
        <time>2011-04-05T15:54:20Z</time>
      </trkpt>
      <trkpt lat="48.58095" lon="-4.43854">
        <ele>59.9</ele>
        <time>2011-04-05T15:54:21Z</time>
      </trkpt>
      <trkpt lat="48.58096" lon="-4.43854">
        <ele>59.9</ele>
        <time>2011-04-05T15:54:22Z</time>
      </trkpt>
      <trkpt lat="48.58098" lon="-4.43853">
        <ele>59.8</ele>
        <time>2011-04-05T15:54:23Z</time>
      </trkpt>
      <trkpt lat="48.581" lon="-4.43852">
        <ele>59.9</ele>
        <time>2011-04-05T15:54:24Z</time>
      </trkpt>
      <trkpt lat="48.58101" lon="-4.43852">
        <ele>59.6</ele>
        <time>2011-04-05T15:54:25Z</time>
      </trkpt>
      <trkpt lat="48.58103" lon="-4.43852">
        <ele>59.4</ele>
        <time>2011-04-05T15:54:26Z</time>
      </trkpt>
      <trkpt lat="48.58104" lon="-4.43851">
        <ele>59.7</ele>
        <time>2011-04-05T15:54:28Z</time>
      </trkpt>
      <trkpt lat="48.58105" lon="-4.4385">
        <ele>59.7</ele>
        <time>2011-04-05T15:54:29Z</time>
      </trkpt>
      <trkpt lat="48.58107" lon="-4.4385">
        <ele>59.4</ele>
        <time>2011-04-05T15:54:30Z</time>
      </trkpt>
      <trkpt lat="48.58109" lon="-4.43849">
        <ele>59.2</ele>
        <time>2011-04-05T15:54:30Z</time>
      </trkpt>
      <trkpt lat="48.5811" lon="-4.43849">
        <ele>59</ele>
        <time>2011-04-05T15:54:32Z</time>
      </trkpt>
      <trkpt lat="48.58112" lon="-4.43849">
        <ele>59</ele>
        <time>2011-04-05T15:54:33Z</time>
      </trkpt>
      <trkpt lat="48.58113" lon="-4.43848">
        <ele>58.8</ele>
        <time>2011-04-05T15:54:34Z</time>
      </trkpt>
      <trkpt lat="48.58114" lon="-4.43848">
        <ele>58.5</ele>
        <time>2011-04-05T15:54:35Z</time>
      </trkpt>
      <trkpt lat="48.58115" lon="-4.43847">
        <ele>58.1</ele>
        <time>2011-04-05T15:54:36Z</time>
      </trkpt>
      <trkpt lat="48.58117" lon="-4.43846">
        <ele>57.8</ele>
        <time>2011-04-05T15:54:37Z</time>
      </trkpt>
      <trkpt lat="48.58118" lon="-4.43845">
        <ele>57.6</ele>
        <time>2011-04-05T15:54:38Z</time>
      </trkpt>
      <trkpt lat="48.58119" lon="-4.43844">
        <ele>57.6</ele>
        <time>2011-04-05T15:54:39Z</time>
      </trkpt>
      <trkpt lat="48.58121" lon="-4.43844">
        <ele>57.2</ele>
        <time>2011-04-05T15:54:40Z</time>
      </trkpt>
      <trkpt lat="48.58123" lon="-4.43844">
        <ele>57</ele>
        <time>2011-04-05T15:54:41Z</time>
      </trkpt>
      <trkpt lat="48.58124" lon="-4.43843">
        <ele>56.7</ele>
        <time>2011-04-05T15:54:42Z</time>
      </trkpt>
      <trkpt lat="48.58125" lon="-4.43843">
        <ele>56.3</ele>
        <time>2011-04-05T15:54:43Z</time>
      </trkpt>
      <trkpt lat="48.58127" lon="-4.43842">
        <ele>56.3</ele>
        <time>2011-04-05T15:54:44Z</time>
      </trkpt>
      <trkpt lat="48.58128" lon="-4.4384">
        <ele>56.2</ele>
        <time>2011-04-05T15:54:44Z</time>
      </trkpt>
      <trkpt lat="48.5813" lon="-4.4384">
        <ele>56</ele>
        <time>2011-04-05T15:54:45Z</time>
      </trkpt>
      <trkpt lat="48.58131" lon="-4.43839">
        <ele>55.9</ele>
        <time>2011-04-05T15:54:46Z</time>
      </trkpt>
      <trkpt lat="48.58133" lon="-4.43839">
        <ele>55.7</ele>
        <time>2011-04-05T15:54:47Z</time>
      </trkpt>
      <trkpt lat="48.58134" lon="-4.4384">
        <ele>55.5</ele>
        <time>2011-04-05T15:54:48Z</time>
      </trkpt>
      <trkpt lat="48.58136" lon="-4.43839">
        <ele>56.2</ele>
        <time>2011-04-05T15:54:49Z</time>
      </trkpt>
      <trkpt lat="48.58138" lon="-4.43838">
        <ele>57.1</ele>
        <time>2011-04-05T15:54:50Z</time>
      </trkpt>
      <trkpt lat="48.58139" lon="-4.43838">
        <ele>56.7</ele>
        <time>2011-04-05T15:54:51Z</time>
      </trkpt>
      <trkpt lat="48.58141" lon="-4.43838">
        <ele>56.4</ele>
        <time>2011-04-05T15:54:52Z</time>
      </trkpt>
      <trkpt lat="48.58142" lon="-4.43838">
        <ele>56.2</ele>
        <time>2011-04-05T15:54:53Z</time>
      </trkpt>
      <trkpt lat="48.58144" lon="-4.43837">
        <ele>56.8</ele>
        <time>2011-04-05T15:54:54Z</time>
      </trkpt>
      <trkpt lat="48.58145" lon="-4.43836">
        <ele>57.2</ele>
        <time>2011-04-05T15:54:55Z</time>
      </trkpt>
      <trkpt lat="48.58147" lon="-4.43834">
        <ele>57.7</ele>
        <time>2011-04-05T15:54:56Z</time>
      </trkpt>
      <trkpt lat="48.58148" lon="-4.43834">
        <ele>57.7</ele>
        <time>2011-04-05T15:54:57Z</time>
      </trkpt>
      <trkpt lat="48.5815" lon="-4.43833">
        <ele>57.8</ele>
        <time>2011-04-05T15:54:58Z</time>
      </trkpt>
      <trkpt lat="48.58152" lon="-4.43832">
        <ele>57.9</ele>
        <time>2011-04-05T15:54:59Z</time>
      </trkpt>
      <trkpt lat="48.58153" lon="-4.43832">
        <ele>57.8</ele>
        <time>2011-04-05T15:55:00Z</time>
      </trkpt>
      <trkpt lat="48.58154" lon="-4.4383">
        <ele>58.4</ele>
        <time>2011-04-05T15:55:01Z</time>
      </trkpt>
      <trkpt lat="48.58156" lon="-4.4383">
        <ele>58.6</ele>
        <time>2011-04-05T15:55:02Z</time>
      </trkpt>
      <trkpt lat="48.58157" lon="-4.43829">
        <ele>58.9</ele>
        <time>2011-04-05T15:55:03Z</time>
      </trkpt>
      <trkpt lat="48.58159" lon="-4.43828">
        <ele>59</ele>
        <time>2011-04-05T15:55:04Z</time>
      </trkpt>
      <trkpt lat="48.5816" lon="-4.43827">
        <ele>59</ele>
        <time>2011-04-05T15:55:05Z</time>
      </trkpt>
      <trkpt lat="48.58162" lon="-4.43827">
        <ele>59</ele>
        <time>2011-04-05T15:55:06Z</time>
      </trkpt>
      <trkpt lat="48.58164" lon="-4.43826">
        <ele>59.2</ele>
        <time>2011-04-05T15:55:07Z</time>
      </trkpt>
      <trkpt lat="48.58165" lon="-4.43824">
        <ele>59.5</ele>
        <time>2011-04-05T15:55:08Z</time>
      </trkpt>
      <trkpt lat="48.58166" lon="-4.43823">
        <ele>59.8</ele>
        <time>2011-04-05T15:55:09Z</time>
      </trkpt>
      <trkpt lat="48.58168" lon="-4.43822">
        <ele>60</ele>
        <time>2011-04-05T15:55:10Z</time>
      </trkpt>
      <trkpt lat="48.5817" lon="-4.43822">
        <ele>59.9</ele>
        <time>2011-04-05T15:55:11Z</time>
      </trkpt>
      <trkpt lat="48.58171" lon="-4.43821">
        <ele>60.1</ele>
        <time>2011-04-05T15:55:12Z</time>
      </trkpt>
      <trkpt lat="48.58173" lon="-4.4382">
        <ele>60.3</ele>
        <time>2011-04-05T15:55:13Z</time>
      </trkpt>
      <trkpt lat="48.58174" lon="-4.43819">
        <ele>60.1</ele>
        <time>2011-04-05T15:55:14Z</time>
      </trkpt>
      <trkpt lat="48.58176" lon="-4.43819">
        <ele>59.9</ele>
        <time>2011-04-05T15:55:15Z</time>
      </trkpt>
      <trkpt lat="48.58177" lon="-4.43818">
        <ele>59.9</ele>
        <time>2011-04-05T15:55:16Z</time>
      </trkpt>
      <trkpt lat="48.58179" lon="-4.43818">
        <ele>59.5</ele>
        <time>2011-04-05T15:55:17Z</time>
      </trkpt>
      <trkpt lat="48.5818" lon="-4.43817">
        <ele>58.9</ele>
        <time>2011-04-05T15:55:18Z</time>
      </trkpt>
      <trkpt lat="48.58181" lon="-4.43816">
        <ele>59.4</ele>
        <time>2011-04-05T15:55:19Z</time>
      </trkpt>
      <trkpt lat="48.58183" lon="-4.43815">
        <ele>59.6</ele>
        <time>2011-04-05T15:55:20Z</time>
      </trkpt>
      <trkpt lat="48.58184" lon="-4.43814">
        <ele>59.8</ele>
        <time>2011-04-05T15:55:21Z</time>
      </trkpt>
      <trkpt lat="48.58186" lon="-4.43813">
        <ele>60.3</ele>
        <time>2011-04-05T15:55:22Z</time>
      </trkpt>
      <trkpt lat="48.58187" lon="-4.43812">
        <ele>60.7</ele>
        <time>2011-04-05T15:55:23Z</time>
      </trkpt>
      <trkpt lat="48.58189" lon="-4.43812">
        <ele>60.5</ele>
        <time>2011-04-05T15:55:24Z</time>
      </trkpt>
      <trkpt lat="48.5819" lon="-4.43812">
        <ele>60.6</ele>
        <time>2011-04-05T15:55:25Z</time>
      </trkpt>
      <trkpt lat="48.58192" lon="-4.43811">
        <ele>60.6</ele>
        <time>2011-04-05T15:55:26Z</time>
      </trkpt>
      <trkpt lat="48.58193" lon="-4.43811">
        <ele>60.6</ele>
        <time>2011-04-05T15:55:27Z</time>
      </trkpt>
      <trkpt lat="48.58195" lon="-4.4381">
        <ele>60.6</ele>
        <time>2011-04-05T15:55:28Z</time>
      </trkpt>
      <trkpt lat="48.58196" lon="-4.43809">
        <ele>60.7</ele>
        <time>2011-04-05T15:55:29Z</time>
      </trkpt>
      <trkpt lat="48.58198" lon="-4.43809">
        <ele>60.6</ele>
        <time>2011-04-05T15:55:30Z</time>
      </trkpt>
      <trkpt lat="48.58199" lon="-4.43808">
        <ele>60.2</ele>
        <time>2011-04-05T15:55:32Z</time>
      </trkpt>
      <trkpt lat="48.582" lon="-4.43808">
        <ele>60</ele>
        <time>2011-04-05T15:55:32Z</time>
      </trkpt>
      <trkpt lat="48.58202" lon="-4.43808">
        <ele>59.8</ele>
        <time>2011-04-05T15:55:33Z</time>
      </trkpt>
      <trkpt lat="48.58203" lon="-4.43807">
        <ele>60</ele>
        <time>2011-04-05T15:55:34Z</time>
      </trkpt>
      <trkpt lat="48.58205" lon="-4.43806">
        <ele>59.9</ele>
        <time>2011-04-05T15:55:35Z</time>
      </trkpt>
      <trkpt lat="48.58206" lon="-4.43805">
        <ele>60.5</ele>
        <time>2011-04-05T15:55:36Z</time>
      </trkpt>
      <trkpt lat="48.58207" lon="-4.43805">
        <ele>60.3</ele>
        <time>2011-04-05T15:55:37Z</time>
      </trkpt>
      <trkpt lat="48.58209" lon="-4.43804">
        <ele>60.6</ele>
        <time>2011-04-05T15:55:38Z</time>
      </trkpt>
      <trkpt lat="48.5821" lon="-4.43803">
        <ele>60.8</ele>
        <time>2011-04-05T15:55:39Z</time>
      </trkpt>
      <trkpt lat="48.58212" lon="-4.43803">
        <ele>61</ele>
        <time>2011-04-05T15:55:40Z</time>
      </trkpt>
      <trkpt lat="48.58214" lon="-4.43802">
        <ele>61.2</ele>
        <time>2011-04-05T15:55:42Z</time>
      </trkpt>
      <trkpt lat="48.58215" lon="-4.43802">
        <ele>60.8</ele>
        <time>2011-04-05T15:55:42Z</time>
      </trkpt>
      <trkpt lat="48.58217" lon="-4.43802">
        <ele>60.7</ele>
        <time>2011-04-05T15:55:43Z</time>
      </trkpt>
      <trkpt lat="48.58218" lon="-4.438">
        <ele>60.4</ele>
        <time>2011-04-05T15:55:44Z</time>
      </trkpt>
      <trkpt lat="48.5822" lon="-4.438">
        <ele>60.5</ele>
        <time>2011-04-05T15:55:45Z</time>
      </trkpt>
      <trkpt lat="48.58221" lon="-4.43799">
        <ele>61.1</ele>
        <time>2011-04-05T15:55:47Z</time>
      </trkpt>
      <trkpt lat="48.58223" lon="-4.43799">
        <ele>60.7</ele>
        <time>2011-04-05T15:55:47Z</time>
      </trkpt>
      <trkpt lat="48.58224" lon="-4.43799">
        <ele>60.4</ele>
        <time>2011-04-05T15:55:48Z</time>
      </trkpt>
      <trkpt lat="48.58226" lon="-4.43799">
        <ele>60.2</ele>
        <time>2011-04-05T15:55:49Z</time>
      </trkpt>
      <trkpt lat="48.58227" lon="-4.43799">
        <ele>60.6</ele>
        <time>2011-04-05T15:55:50Z</time>
      </trkpt>
      <trkpt lat="48.58228" lon="-4.43797">
        <ele>60.1</ele>
        <time>2011-04-05T15:55:52Z</time>
      </trkpt>
      <trkpt lat="48.5823" lon="-4.43797">
        <ele>60</ele>
        <time>2011-04-05T15:55:53Z</time>
      </trkpt>
      <trkpt lat="48.58231" lon="-4.43797">
        <ele>59.9</ele>
        <time>2011-04-05T15:55:53Z</time>
      </trkpt>
      <trkpt lat="48.58232" lon="-4.43797">
        <ele>60.1</ele>
        <time>2011-04-05T15:55:54Z</time>
      </trkpt>
      <trkpt lat="48.58234" lon="-4.43797">
        <ele>60.2</ele>
        <time>2011-04-05T15:55:55Z</time>
      </trkpt>
      <trkpt lat="48.58235" lon="-4.43797">
        <ele>60.1</ele>
        <time>2011-04-05T15:55:56Z</time>
      </trkpt>
      <trkpt lat="48.58237" lon="-4.43798">
        <ele>60.1</ele>
        <time>2011-04-05T15:55:57Z</time>
      </trkpt>
      <trkpt lat="48.58239" lon="-4.43798">
        <ele>60.1</ele>
        <time>2011-04-05T15:55:58Z</time>
      </trkpt>
      <trkpt lat="48.5824" lon="-4.43798">
        <ele>60.1</ele>
        <time>2011-04-05T15:55:59Z</time>
      </trkpt>
      <trkpt lat="48.58242" lon="-4.43799">
        <ele>60</ele>
        <time>2011-04-05T15:56:00Z</time>
      </trkpt>
      <trkpt lat="48.58243" lon="-4.438">
        <ele>59.8</ele>
        <time>2011-04-05T15:56:01Z</time>
      </trkpt>
      <trkpt lat="48.58245" lon="-4.43801">
        <ele>59.5</ele>
        <time>2011-04-05T15:56:02Z</time>
      </trkpt>
      <trkpt lat="48.58246" lon="-4.43802">
        <ele>59.4</ele>
        <time>2011-04-05T15:56:03Z</time>
      </trkpt>
      <trkpt lat="48.58248" lon="-4.43803">
        <ele>59.2</ele>
        <time>2011-04-05T15:56:04Z</time>
      </trkpt>
      <trkpt lat="48.58249" lon="-4.43804">
        <ele>58.8</ele>
        <time>2011-04-05T15:56:05Z</time>
      </trkpt>
      <trkpt lat="48.58251" lon="-4.43806">
        <ele>58.4</ele>
        <time>2011-04-05T15:56:06Z</time>
      </trkpt>
      <trkpt lat="48.58253" lon="-4.43807">
        <ele>58</ele>
        <time>2011-04-05T15:56:07Z</time>
      </trkpt>
      <trkpt lat="48.58254" lon="-4.43807">
        <ele>58.2</ele>
        <time>2011-04-05T15:56:08Z</time>
      </trkpt>
      <trkpt lat="48.58255" lon="-4.43808">
        <ele>58.4</ele>
        <time>2011-04-05T15:56:09Z</time>
      </trkpt>
      <trkpt lat="48.58256" lon="-4.43808">
        <ele>58.2</ele>
        <time>2011-04-05T15:56:10Z</time>
      </trkpt>
      <trkpt lat="48.58258" lon="-4.43809">
        <ele>58</ele>
        <time>2011-04-05T15:56:11Z</time>
      </trkpt>
      <trkpt lat="48.5826" lon="-4.4381">
        <ele>57.7</ele>
        <time>2011-04-05T15:56:12Z</time>
      </trkpt>
      <trkpt lat="48.58261" lon="-4.4381">
        <ele>57.7</ele>
        <time>2011-04-05T15:56:13Z</time>
      </trkpt>
      <trkpt lat="48.58262" lon="-4.43811">
        <ele>57.7</ele>
        <time>2011-04-05T15:56:14Z</time>
      </trkpt>
      <trkpt lat="48.58263" lon="-4.43812">
        <ele>58</ele>
        <time>2011-04-05T15:56:15Z</time>
      </trkpt>
      <trkpt lat="48.58264" lon="-4.43812">
        <ele>58.2</ele>
        <time>2011-04-05T15:56:16Z</time>
      </trkpt>
      <trkpt lat="48.58266" lon="-4.43813">
        <ele>58</ele>
        <time>2011-04-05T15:56:17Z</time>
      </trkpt>
      <trkpt lat="48.58267" lon="-4.43814">
        <ele>57.6</ele>
        <time>2011-04-05T15:56:18Z</time>
      </trkpt>
      <trkpt lat="48.58268" lon="-4.43815">
        <ele>57.5</ele>
        <time>2011-04-05T15:56:19Z</time>
      </trkpt>
      <trkpt lat="48.5827" lon="-4.43816">
        <ele>58.2</ele>
        <time>2011-04-05T15:56:20Z</time>
      </trkpt>
      <trkpt lat="48.58272" lon="-4.43817">
        <ele>58.6</ele>
        <time>2011-04-05T15:56:21Z</time>
      </trkpt>
      <trkpt lat="48.58274" lon="-4.43819">
        <ele>58.9</ele>
        <time>2011-04-05T15:56:23Z</time>
      </trkpt>
      <trkpt lat="48.58275" lon="-4.43819">
        <ele>59.8</ele>
        <time>2011-04-05T15:56:24Z</time>
      </trkpt>
      <trkpt lat="48.58276" lon="-4.43819">
        <ele>60.2</ele>
        <time>2011-04-05T15:56:25Z</time>
      </trkpt>
      <trkpt lat="48.58277" lon="-4.43821">
        <ele>59.9</ele>
        <time>2011-04-05T15:56:26Z</time>
      </trkpt>
      <trkpt lat="48.58279" lon="-4.43823">
        <ele>59.7</ele>
        <time>2011-04-05T15:56:27Z</time>
      </trkpt>
      <trkpt lat="48.5828" lon="-4.43823">
        <ele>60.3</ele>
        <time>2011-04-05T15:56:28Z</time>
      </trkpt>
      <trkpt lat="48.58282" lon="-4.43824">
        <ele>60.1</ele>
        <time>2011-04-05T15:56:29Z</time>
      </trkpt>
      <trkpt lat="48.58284" lon="-4.43825">
        <ele>60</ele>
        <time>2011-04-05T15:56:30Z</time>
      </trkpt>
      <trkpt lat="48.58284" lon="-4.43824">
        <ele>61.5</ele>
        <time>2011-04-05T15:56:31Z</time>
      </trkpt>
      <trkpt lat="48.58286" lon="-4.43824">
        <ele>61.7</ele>
        <time>2011-04-05T15:56:32Z</time>
      </trkpt>
      <trkpt lat="48.58287" lon="-4.43826">
        <ele>61.7</ele>
        <time>2011-04-05T15:56:33Z</time>
      </trkpt>
      <trkpt lat="48.58289" lon="-4.43827">
        <ele>61.8</ele>
        <time>2011-04-05T15:56:34Z</time>
      </trkpt>
      <trkpt lat="48.5829" lon="-4.43828">
        <ele>61.8</ele>
        <time>2011-04-05T15:56:35Z</time>
      </trkpt>
      <trkpt lat="48.58292" lon="-4.43828">
        <ele>62.8</ele>
        <time>2011-04-05T15:56:36Z</time>
      </trkpt>
      <trkpt lat="48.58293" lon="-4.43829">
        <ele>62.8</ele>
        <time>2011-04-05T15:56:37Z</time>
      </trkpt>
      <trkpt lat="48.58295" lon="-4.4383">
        <ele>62.5</ele>
        <time>2011-04-05T15:56:38Z</time>
      </trkpt>
      <trkpt lat="48.58296" lon="-4.4383">
        <ele>62.6</ele>
        <time>2011-04-05T15:56:39Z</time>
      </trkpt>
      <trkpt lat="48.58298" lon="-4.43832">
        <ele>62.7</ele>
        <time>2011-04-05T15:56:40Z</time>
      </trkpt>
      <trkpt lat="48.58299" lon="-4.43833">
        <ele>62.8</ele>
        <time>2011-04-05T15:56:41Z</time>
      </trkpt>
      <trkpt lat="48.583" lon="-4.43834">
        <ele>62.6</ele>
        <time>2011-04-05T15:56:42Z</time>
      </trkpt>
      <trkpt lat="48.58302" lon="-4.43835">
        <ele>62.5</ele>
        <time>2011-04-05T15:56:43Z</time>
      </trkpt>
      <trkpt lat="48.58303" lon="-4.43836">
        <ele>62.6</ele>
        <time>2011-04-05T15:56:44Z</time>
      </trkpt>
      <trkpt lat="48.58304" lon="-4.43837">
        <ele>62.4</ele>
        <time>2011-04-05T15:56:45Z</time>
      </trkpt>
      <trkpt lat="48.58306" lon="-4.43838">
        <ele>62.5</ele>
        <time>2011-04-05T15:56:46Z</time>
      </trkpt>
      <trkpt lat="48.58307" lon="-4.43839">
        <ele>62.5</ele>
        <time>2011-04-05T15:56:47Z</time>
      </trkpt>
      <trkpt lat="48.58309" lon="-4.4384">
        <ele>63.2</ele>
        <time>2011-04-05T15:56:48Z</time>
      </trkpt>
      <trkpt lat="48.5831" lon="-4.43841">
        <ele>63.1</ele>
        <time>2011-04-05T15:56:49Z</time>
      </trkpt>
      <trkpt lat="48.58311" lon="-4.43843">
        <ele>62.6</ele>
        <time>2011-04-05T15:56:50Z</time>
      </trkpt>
      <trkpt lat="48.58313" lon="-4.43845">
        <ele>62.4</ele>
        <time>2011-04-05T15:56:51Z</time>
      </trkpt>
      <trkpt lat="48.58314" lon="-4.43846">
        <ele>62.6</ele>
        <time>2011-04-05T15:56:52Z</time>
      </trkpt>
      <trkpt lat="48.58315" lon="-4.43848">
        <ele>62.3</ele>
        <time>2011-04-05T15:56:53Z</time>
      </trkpt>
      <trkpt lat="48.58317" lon="-4.4385">
        <ele>62.1</ele>
        <time>2011-04-05T15:56:54Z</time>
      </trkpt>
      <trkpt lat="48.58318" lon="-4.43851">
        <ele>62.1</ele>
        <time>2011-04-05T15:56:55Z</time>
      </trkpt>
      <trkpt lat="48.58319" lon="-4.43852">
        <ele>62.2</ele>
        <time>2011-04-05T15:56:56Z</time>
      </trkpt>
      <trkpt lat="48.5832" lon="-4.43854">
        <ele>61.9</ele>
        <time>2011-04-05T15:56:57Z</time>
      </trkpt>
      <trkpt lat="48.58321" lon="-4.43854">
        <ele>62.3</ele>
        <time>2011-04-05T15:56:58Z</time>
      </trkpt>
      <trkpt lat="48.58322" lon="-4.43856">
        <ele>62.3</ele>
        <time>2011-04-05T15:56:59Z</time>
      </trkpt>
      <trkpt lat="48.58324" lon="-4.43857">
        <ele>61.8</ele>
        <time>2011-04-05T15:57:00Z</time>
      </trkpt>
      <trkpt lat="48.58325" lon="-4.43858">
        <ele>61.9</ele>
        <time>2011-04-05T15:57:01Z</time>
      </trkpt>
      <trkpt lat="48.58326" lon="-4.43859">
        <ele>62</ele>
        <time>2011-04-05T15:57:02Z</time>
      </trkpt>
      <trkpt lat="48.58328" lon="-4.43861">
        <ele>62</ele>
        <time>2011-04-05T15:57:03Z</time>
      </trkpt>
      <trkpt lat="48.58329" lon="-4.43862">
        <ele>61.9</ele>
        <time>2011-04-05T15:57:04Z</time>
      </trkpt>
      <trkpt lat="48.58331" lon="-4.43864">
        <ele>61.3</ele>
        <time>2011-04-05T15:57:05Z</time>
      </trkpt>
      <trkpt lat="48.58332" lon="-4.43866">
        <ele>61.1</ele>
        <time>2011-04-05T15:57:06Z</time>
      </trkpt>
      <trkpt lat="48.58333" lon="-4.43867">
        <ele>61.2</ele>
        <time>2011-04-05T15:57:08Z</time>
      </trkpt>
      <trkpt lat="48.58335" lon="-4.43868">
        <ele>61.3</ele>
        <time>2011-04-05T15:57:08Z</time>
      </trkpt>
      <trkpt lat="48.58336" lon="-4.43869">
        <ele>61.8</ele>
        <time>2011-04-05T15:57:09Z</time>
      </trkpt>
      <trkpt lat="48.58338" lon="-4.43869">
        <ele>62.1</ele>
        <time>2011-04-05T15:57:10Z</time>
      </trkpt>
      <trkpt lat="48.58339" lon="-4.4387">
        <ele>62.3</ele>
        <time>2011-04-05T15:57:11Z</time>
      </trkpt>
      <trkpt lat="48.5834" lon="-4.43871">
        <ele>62.5</ele>
        <time>2011-04-05T15:57:13Z</time>
      </trkpt>
      <trkpt lat="48.58342" lon="-4.43872">
        <ele>62.8</ele>
        <time>2011-04-05T15:57:14Z</time>
      </trkpt>
      <trkpt lat="48.58343" lon="-4.43873">
        <ele>63.2</ele>
        <time>2011-04-05T15:57:15Z</time>
      </trkpt>
      <trkpt lat="48.58344" lon="-4.43874">
        <ele>63.1</ele>
        <time>2011-04-05T15:57:15Z</time>
      </trkpt>
      <trkpt lat="48.58345" lon="-4.43875">
        <ele>63.2</ele>
        <time>2011-04-05T15:57:17Z</time>
      </trkpt>
      <trkpt lat="48.58346" lon="-4.43876">
        <ele>63.4</ele>
        <time>2011-04-05T15:57:18Z</time>
      </trkpt>
      <trkpt lat="48.58347" lon="-4.43877">
        <ele>63.5</ele>
        <time>2011-04-05T15:57:19Z</time>
      </trkpt>
      <trkpt lat="48.58348" lon="-4.43878">
        <ele>63.5</ele>
        <time>2011-04-05T15:57:20Z</time>
      </trkpt>
      <trkpt lat="48.5835" lon="-4.4388">
        <ele>63.5</ele>
        <time>2011-04-05T15:57:21Z</time>
      </trkpt>
      <trkpt lat="48.58351" lon="-4.43881">
        <ele>63.4</ele>
        <time>2011-04-05T15:57:21Z</time>
      </trkpt>
      <trkpt lat="48.58352" lon="-4.43882">
        <ele>63.7</ele>
        <time>2011-04-05T15:57:22Z</time>
      </trkpt>
      <trkpt lat="48.58354" lon="-4.43884">
        <ele>63.8</ele>
        <time>2011-04-05T15:57:23Z</time>
      </trkpt>
      <trkpt lat="48.58355" lon="-4.43885">
        <ele>63.9</ele>
        <time>2011-04-05T15:57:24Z</time>
      </trkpt>
      <trkpt lat="48.58356" lon="-4.43886">
        <ele>64.1</ele>
        <time>2011-04-05T15:57:25Z</time>
      </trkpt>
      <trkpt lat="48.58357" lon="-4.43887">
        <ele>64.5</ele>
        <time>2011-04-05T15:57:26Z</time>
      </trkpt>
      <trkpt lat="48.58359" lon="-4.43888">
        <ele>64.6</ele>
        <time>2011-04-05T15:57:27Z</time>
      </trkpt>
      <trkpt lat="48.5836" lon="-4.43889">
        <ele>64.8</ele>
        <time>2011-04-05T15:57:28Z</time>
      </trkpt>
      <trkpt lat="48.58361" lon="-4.4389">
        <ele>65</ele>
        <time>2011-04-05T15:57:29Z</time>
      </trkpt>
      <trkpt lat="48.58362" lon="-4.43891">
        <ele>65.6</ele>
        <time>2011-04-05T15:57:30Z</time>
      </trkpt>
      <trkpt lat="48.58363" lon="-4.43892">
        <ele>66</ele>
        <time>2011-04-05T15:57:31Z</time>
      </trkpt>
      <trkpt lat="48.58365" lon="-4.43893">
        <ele>66</ele>
        <time>2011-04-05T15:57:32Z</time>
      </trkpt>
      <trkpt lat="48.58366" lon="-4.43894">
        <ele>66.1</ele>
        <time>2011-04-05T15:57:33Z</time>
      </trkpt>
      <trkpt lat="48.58367" lon="-4.43896">
        <ele>65.8</ele>
        <time>2011-04-05T15:57:34Z</time>
      </trkpt>
      <trkpt lat="48.58369" lon="-4.43897">
        <ele>66.1</ele>
        <time>2011-04-05T15:57:35Z</time>
      </trkpt>
      <trkpt lat="48.5837" lon="-4.43898">
        <ele>66.3</ele>
        <time>2011-04-05T15:57:36Z</time>
      </trkpt>
      <trkpt lat="48.58373" lon="-4.43901">
        <ele>65.7</ele>
        <time>2011-04-05T15:57:37Z</time>
      </trkpt>
      <trkpt lat="48.58374" lon="-4.43901">
        <ele>66.1</ele>
        <time>2011-04-05T15:57:38Z</time>
      </trkpt>
      <trkpt lat="48.58376" lon="-4.43903">
        <ele>65.5</ele>
        <time>2011-04-05T15:57:39Z</time>
      </trkpt>
      <trkpt lat="48.58377" lon="-4.43904">
        <ele>65.3</ele>
        <time>2011-04-05T15:57:40Z</time>
      </trkpt>
      <trkpt lat="48.58378" lon="-4.43905">
        <ele>65.3</ele>
        <time>2011-04-05T15:57:41Z</time>
      </trkpt>
      <trkpt lat="48.5838" lon="-4.43906">
        <ele>65.3</ele>
        <time>2011-04-05T15:57:42Z</time>
      </trkpt>
      <trkpt lat="48.58381" lon="-4.43907">
        <ele>65.3</ele>
        <time>2011-04-05T15:57:43Z</time>
      </trkpt>
      <trkpt lat="48.58382" lon="-4.43908">
        <ele>65.5</ele>
        <time>2011-04-05T15:57:44Z</time>
      </trkpt>
      <trkpt lat="48.58384" lon="-4.4391">
        <ele>65.3</ele>
        <time>2011-04-05T15:57:45Z</time>
      </trkpt>
      <trkpt lat="48.58385" lon="-4.43911">
        <ele>65.1</ele>
        <time>2011-04-05T15:57:46Z</time>
      </trkpt>
      <trkpt lat="48.58387" lon="-4.43913">
        <ele>64.5</ele>
        <time>2011-04-05T15:57:47Z</time>
      </trkpt>
      <trkpt lat="48.58388" lon="-4.43914">
        <ele>64.8</ele>
        <time>2011-04-05T15:57:48Z</time>
      </trkpt>
      <trkpt lat="48.58389" lon="-4.43916">
        <ele>64.3</ele>
        <time>2011-04-05T15:57:49Z</time>
      </trkpt>
      <trkpt lat="48.58391" lon="-4.43917">
        <ele>64.8</ele>
        <time>2011-04-05T15:57:50Z</time>
      </trkpt>
      <trkpt lat="48.58392" lon="-4.43917">
        <ele>64.8</ele>
        <time>2011-04-05T15:57:51Z</time>
      </trkpt>
      <trkpt lat="48.58393" lon="-4.43918">
        <ele>65.2</ele>
        <time>2011-04-05T15:57:52Z</time>
      </trkpt>
      <trkpt lat="48.58395" lon="-4.43919">
        <ele>65.2</ele>
        <time>2011-04-05T15:57:53Z</time>
      </trkpt>
      <trkpt lat="48.58396" lon="-4.43921">
        <ele>65.3</ele>
        <time>2011-04-05T15:57:54Z</time>
      </trkpt>
      <trkpt lat="48.58397" lon="-4.43922">
        <ele>65.1</ele>
        <time>2011-04-05T15:57:55Z</time>
      </trkpt>
      <trkpt lat="48.58399" lon="-4.43924">
        <ele>64.9</ele>
        <time>2011-04-05T15:57:56Z</time>
      </trkpt>
      <trkpt lat="48.584" lon="-4.43925">
        <ele>65.2</ele>
        <time>2011-04-05T15:57:57Z</time>
      </trkpt>
      <trkpt lat="48.58401" lon="-4.43926">
        <ele>65.3</ele>
        <time>2011-04-05T15:57:58Z</time>
      </trkpt>
      <trkpt lat="48.58402" lon="-4.43927">
        <ele>65.5</ele>
        <time>2011-04-05T15:57:59Z</time>
      </trkpt>
      <trkpt lat="48.58404" lon="-4.43928">
        <ele>65.4</ele>
        <time>2011-04-05T15:58:00Z</time>
      </trkpt>
      <trkpt lat="48.58406" lon="-4.4393">
        <ele>65.2</ele>
        <time>2011-04-05T15:58:01Z</time>
      </trkpt>
      <trkpt lat="48.58407" lon="-4.43931">
        <ele>65.2</ele>
        <time>2011-04-05T15:58:02Z</time>
      </trkpt>
      <trkpt lat="48.58409" lon="-4.43932">
        <ele>64.8</ele>
        <time>2011-04-05T15:58:03Z</time>
      </trkpt>
      <trkpt lat="48.58411" lon="-4.43933">
        <ele>64.4</ele>
        <time>2011-04-05T15:58:04Z</time>
      </trkpt>
      <trkpt lat="48.58412" lon="-4.43934">
        <ele>64.6</ele>
        <time>2011-04-05T15:58:05Z</time>
      </trkpt>
      <trkpt lat="48.58413" lon="-4.43935">
        <ele>65</ele>
        <time>2011-04-05T15:58:06Z</time>
      </trkpt>
      <trkpt lat="48.58415" lon="-4.43936">
        <ele>65</ele>
        <time>2011-04-05T15:58:08Z</time>
      </trkpt>
      <trkpt lat="48.58416" lon="-4.43937">
        <ele>64.5</ele>
        <time>2011-04-05T15:58:08Z</time>
      </trkpt>
      <trkpt lat="48.58418" lon="-4.43939">
        <ele>64</ele>
        <time>2011-04-05T15:58:09Z</time>
      </trkpt>
      <trkpt lat="48.58419" lon="-4.4394">
        <ele>63.6</ele>
        <time>2011-04-05T15:58:10Z</time>
      </trkpt>
      <trkpt lat="48.5842" lon="-4.43941">
        <ele>63.5</ele>
        <time>2011-04-05T15:58:11Z</time>
      </trkpt>
      <trkpt lat="48.58421" lon="-4.43942">
        <ele>63.3</ele>
        <time>2011-04-05T15:58:13Z</time>
      </trkpt>
      <trkpt lat="48.58423" lon="-4.43943">
        <ele>63.2</ele>
        <time>2011-04-05T15:58:14Z</time>
      </trkpt>
      <trkpt lat="48.58424" lon="-4.43944">
        <ele>63.1</ele>
        <time>2011-04-05T15:58:15Z</time>
      </trkpt>
      <trkpt lat="48.58425" lon="-4.43945">
        <ele>63.1</ele>
        <time>2011-04-05T15:58:15Z</time>
      </trkpt>
      <trkpt lat="48.58427" lon="-4.43947">
        <ele>62.6</ele>
        <time>2011-04-05T15:58:17Z</time>
      </trkpt>
      <trkpt lat="48.58428" lon="-4.43948">
        <ele>63</ele>
        <time>2011-04-05T15:58:18Z</time>
      </trkpt>
      <trkpt lat="48.5843" lon="-4.43949">
        <ele>62.8</ele>
        <time>2011-04-05T15:58:19Z</time>
      </trkpt>
      <trkpt lat="48.58431" lon="-4.4395">
        <ele>62.9</ele>
        <time>2011-04-05T15:58:20Z</time>
      </trkpt>
      <trkpt lat="48.58433" lon="-4.43952">
        <ele>62.2</ele>
        <time>2011-04-05T15:58:21Z</time>
      </trkpt>
      <trkpt lat="48.58435" lon="-4.43954">
        <ele>61.9</ele>
        <time>2011-04-05T15:58:21Z</time>
      </trkpt>
      <trkpt lat="48.58436" lon="-4.43954">
        <ele>61.6</ele>
        <time>2011-04-05T15:58:22Z</time>
      </trkpt>
      <trkpt lat="48.58437" lon="-4.43955">
        <ele>62.2</ele>
        <time>2011-04-05T15:58:23Z</time>
      </trkpt>
      <trkpt lat="48.58439" lon="-4.43955">
        <ele>62.5</ele>
        <time>2011-04-05T15:58:24Z</time>
      </trkpt>
      <trkpt lat="48.58441" lon="-4.43957">
        <ele>62.3</ele>
        <time>2011-04-05T15:58:25Z</time>
      </trkpt>
      <trkpt lat="48.58442" lon="-4.43958">
        <ele>62</ele>
        <time>2011-04-05T15:58:26Z</time>
      </trkpt>
      <trkpt lat="48.58444" lon="-4.43959">
        <ele>61.5</ele>
        <time>2011-04-05T15:58:27Z</time>
      </trkpt>
      <trkpt lat="48.58445" lon="-4.4396">
        <ele>61.4</ele>
        <time>2011-04-05T15:58:28Z</time>
      </trkpt>
      <trkpt lat="48.58447" lon="-4.43962">
        <ele>60.8</ele>
        <time>2011-04-05T15:58:29Z</time>
      </trkpt>
      <trkpt lat="48.58448" lon="-4.43964">
        <ele>60.7</ele>
        <time>2011-04-05T15:58:30Z</time>
      </trkpt>
      <trkpt lat="48.58449" lon="-4.43964">
        <ele>61.3</ele>
        <time>2011-04-05T15:58:31Z</time>
      </trkpt>
      <trkpt lat="48.58451" lon="-4.43965">
        <ele>61</ele>
        <time>2011-04-05T15:58:32Z</time>
      </trkpt>
      <trkpt lat="48.58452" lon="-4.43965">
        <ele>60.7</ele>
        <time>2011-04-05T15:58:33Z</time>
      </trkpt>
      <trkpt lat="48.58453" lon="-4.43966">
        <ele>61</ele>
        <time>2011-04-05T15:58:34Z</time>
      </trkpt>
      <trkpt lat="48.58454" lon="-4.43968">
        <ele>61.3</ele>
        <time>2011-04-05T15:58:35Z</time>
      </trkpt>
      <trkpt lat="48.58456" lon="-4.43969">
        <ele>61.5</ele>
        <time>2011-04-05T15:58:36Z</time>
      </trkpt>
      <trkpt lat="48.58457" lon="-4.4397">
        <ele>61.6</ele>
        <time>2011-04-05T15:58:37Z</time>
      </trkpt>
      <trkpt lat="48.58458" lon="-4.4397">
        <ele>61.8</ele>
        <time>2011-04-05T15:58:38Z</time>
      </trkpt>
      <trkpt lat="48.58459" lon="-4.43971">
        <ele>61.5</ele>
        <time>2011-04-05T15:58:39Z</time>
      </trkpt>
      <trkpt lat="48.5846" lon="-4.43971">
        <ele>62.1</ele>
        <time>2011-04-05T15:58:40Z</time>
      </trkpt>
      <trkpt lat="48.58462" lon="-4.43972">
        <ele>62.3</ele>
        <time>2011-04-05T15:58:41Z</time>
      </trkpt>
      <trkpt lat="48.58463" lon="-4.43972">
        <ele>62</ele>
        <time>2011-04-05T15:58:42Z</time>
      </trkpt>
      <trkpt lat="48.58465" lon="-4.43973">
        <ele>61.9</ele>
        <time>2011-04-05T15:58:43Z</time>
      </trkpt>
      <trkpt lat="48.58466" lon="-4.43974">
        <ele>62</ele>
        <time>2011-04-05T15:58:44Z</time>
      </trkpt>
      <trkpt lat="48.58468" lon="-4.43976">
        <ele>61.8</ele>
        <time>2011-04-05T15:58:45Z</time>
      </trkpt>
      <trkpt lat="48.58469" lon="-4.43976">
        <ele>62</ele>
        <time>2011-04-05T15:58:46Z</time>
      </trkpt>
      <trkpt lat="48.5847" lon="-4.43976">
        <ele>62.3</ele>
        <time>2011-04-05T15:58:47Z</time>
      </trkpt>
      <trkpt lat="48.58472" lon="-4.43977">
        <ele>62.6</ele>
        <time>2011-04-05T15:58:48Z</time>
      </trkpt>
      <trkpt lat="48.58473" lon="-4.43977">
        <ele>62.4</ele>
        <time>2011-04-05T15:58:49Z</time>
      </trkpt>
      <trkpt lat="48.58475" lon="-4.43977">
        <ele>62.6</ele>
        <time>2011-04-05T15:58:50Z</time>
      </trkpt>
      <trkpt lat="48.58476" lon="-4.43977">
        <ele>63.1</ele>
        <time>2011-04-05T15:58:51Z</time>
      </trkpt>
      <trkpt lat="48.58477" lon="-4.43978">
        <ele>63.3</ele>
        <time>2011-04-05T15:58:53Z</time>
      </trkpt>
      <trkpt lat="48.58479" lon="-4.43979">
        <ele>62.9</ele>
        <time>2011-04-05T15:58:54Z</time>
      </trkpt>
      <trkpt lat="48.58481" lon="-4.43979">
        <ele>63</ele>
        <time>2011-04-05T15:58:54Z</time>
      </trkpt>
      <trkpt lat="48.58482" lon="-4.4398">
        <ele>62.9</ele>
        <time>2011-04-05T15:58:55Z</time>
      </trkpt>
      <trkpt lat="48.58484" lon="-4.4398">
        <ele>63.3</ele>
        <time>2011-04-05T15:58:56Z</time>
      </trkpt>
      <trkpt lat="48.58485" lon="-4.43981">
        <ele>63.2</ele>
        <time>2011-04-05T15:58:57Z</time>
      </trkpt>
      <trkpt lat="48.58487" lon="-4.43981">
        <ele>63</ele>
        <time>2011-04-05T15:58:58Z</time>
      </trkpt>
      <trkpt lat="48.58489" lon="-4.43982">
        <ele>63.1</ele>
        <time>2011-04-05T15:58:59Z</time>
      </trkpt>
      <trkpt lat="48.5849" lon="-4.43983">
        <ele>63.5</ele>
        <time>2011-04-05T15:59:00Z</time>
      </trkpt>
      <trkpt lat="48.58492" lon="-4.43983">
        <ele>63.5</ele>
        <time>2011-04-05T15:59:01Z</time>
      </trkpt>
      <trkpt lat="48.58493" lon="-4.43984">
        <ele>63.5</ele>
        <time>2011-04-05T15:59:02Z</time>
      </trkpt>
      <trkpt lat="48.58495" lon="-4.43985">
        <ele>63.6</ele>
        <time>2011-04-05T15:59:03Z</time>
      </trkpt>
      <trkpt lat="48.58497" lon="-4.43985">
        <ele>63.4</ele>
        <time>2011-04-05T15:59:04Z</time>
      </trkpt>
      <trkpt lat="48.58499" lon="-4.43986">
        <ele>63.2</ele>
        <time>2011-04-05T15:59:05Z</time>
      </trkpt>
      <trkpt lat="48.58501" lon="-4.43987">
        <ele>63.2</ele>
        <time>2011-04-05T15:59:06Z</time>
      </trkpt>
      <trkpt lat="48.58503" lon="-4.43988">
        <ele>62.9</ele>
        <time>2011-04-05T15:59:08Z</time>
      </trkpt>
      <trkpt lat="48.58504" lon="-4.43988">
        <ele>62.6</ele>
        <time>2011-04-05T15:59:08Z</time>
      </trkpt>
      <trkpt lat="48.58506" lon="-4.43989">
        <ele>62.4</ele>
        <time>2011-04-05T15:59:09Z</time>
      </trkpt>
      <trkpt lat="48.58508" lon="-4.43989">
        <ele>62.2</ele>
        <time>2011-04-05T15:59:10Z</time>
      </trkpt>
      <trkpt lat="48.5851" lon="-4.4399">
        <ele>62.1</ele>
        <time>2011-04-05T15:59:11Z</time>
      </trkpt>
      <trkpt lat="48.58511" lon="-4.4399">
        <ele>62.1</ele>
        <time>2011-04-05T15:59:13Z</time>
      </trkpt>
      <trkpt lat="48.58513" lon="-4.4399">
        <ele>61.9</ele>
        <time>2011-04-05T15:59:14Z</time>
      </trkpt>
      <trkpt lat="48.58515" lon="-4.43991">
        <ele>61.8</ele>
        <time>2011-04-05T15:59:15Z</time>
      </trkpt>
      <trkpt lat="48.58516" lon="-4.43992">
        <ele>61.7</ele>
        <time>2011-04-05T15:59:15Z</time>
      </trkpt>
      <trkpt lat="48.58518" lon="-4.43992">
        <ele>61.5</ele>
        <time>2011-04-05T15:59:17Z</time>
      </trkpt>
      <trkpt lat="48.5852" lon="-4.43992">
        <ele>61.5</ele>
        <time>2011-04-05T15:59:18Z</time>
      </trkpt>
      <trkpt lat="48.58521" lon="-4.43992">
        <ele>61.6</ele>
        <time>2011-04-05T15:59:19Z</time>
      </trkpt>
      <trkpt lat="48.58523" lon="-4.43992">
        <ele>61.5</ele>
        <time>2011-04-05T15:59:20Z</time>
      </trkpt>
      <trkpt lat="48.58524" lon="-4.43992">
        <ele>61.5</ele>
        <time>2011-04-05T15:59:21Z</time>
      </trkpt>
      <trkpt lat="48.58526" lon="-4.43992">
        <ele>61.5</ele>
        <time>2011-04-05T15:59:21Z</time>
      </trkpt>
      <trkpt lat="48.58528" lon="-4.43993">
        <ele>61.2</ele>
        <time>2011-04-05T15:59:22Z</time>
      </trkpt>
      <trkpt lat="48.58529" lon="-4.43993">
        <ele>61.3</ele>
        <time>2011-04-05T15:59:23Z</time>
      </trkpt>
      <trkpt lat="48.58531" lon="-4.43994">
        <ele>61.1</ele>
        <time>2011-04-05T15:59:24Z</time>
      </trkpt>
      <trkpt lat="48.58532" lon="-4.43995">
        <ele>60.8</ele>
        <time>2011-04-05T15:59:25Z</time>
      </trkpt>
      <trkpt lat="48.58534" lon="-4.43995">
        <ele>60.5</ele>
        <time>2011-04-05T15:59:26Z</time>
      </trkpt>
      <trkpt lat="48.58535" lon="-4.43996">
        <ele>60.5</ele>
        <time>2011-04-05T15:59:27Z</time>
      </trkpt>
      <trkpt lat="48.58537" lon="-4.43996">
        <ele>60.4</ele>
        <time>2011-04-05T15:59:28Z</time>
      </trkpt>
      <trkpt lat="48.58538" lon="-4.43996">
        <ele>60.2</ele>
        <time>2011-04-05T15:59:29Z</time>
      </trkpt>
      <trkpt lat="48.5854" lon="-4.43996">
        <ele>60.1</ele>
        <time>2011-04-05T15:59:30Z</time>
      </trkpt>
      <trkpt lat="48.58541" lon="-4.43997">
        <ele>60</ele>
        <time>2011-04-05T15:59:31Z</time>
      </trkpt>
      <trkpt lat="48.58542" lon="-4.43996">
        <ele>59.8</ele>
        <time>2011-04-05T15:59:32Z</time>
      </trkpt>
      <trkpt lat="48.58544" lon="-4.43996">
        <ele>59.7</ele>
        <time>2011-04-05T15:59:33Z</time>
      </trkpt>
      <trkpt lat="48.58545" lon="-4.43996">
        <ele>59.7</ele>
        <time>2011-04-05T15:59:34Z</time>
      </trkpt>
      <trkpt lat="48.58547" lon="-4.43996">
        <ele>59.6</ele>
        <time>2011-04-05T15:59:35Z</time>
      </trkpt>
      <trkpt lat="48.58548" lon="-4.43996">
        <ele>59.7</ele>
        <time>2011-04-05T15:59:36Z</time>
      </trkpt>
      <trkpt lat="48.5855" lon="-4.43997">
        <ele>59.5</ele>
        <time>2011-04-05T15:59:37Z</time>
      </trkpt>
      <trkpt lat="48.58551" lon="-4.43997">
        <ele>59.6</ele>
        <time>2011-04-05T15:59:38Z</time>
      </trkpt>
      <trkpt lat="48.58553" lon="-4.43998">
        <ele>59.4</ele>
        <time>2011-04-05T15:59:39Z</time>
      </trkpt>
      <trkpt lat="48.58555" lon="-4.43998">
        <ele>59.2</ele>
        <time>2011-04-05T15:59:40Z</time>
      </trkpt>
      <trkpt lat="48.58556" lon="-4.43999">
        <ele>59</ele>
        <time>2011-04-05T15:59:41Z</time>
      </trkpt>
      <trkpt lat="48.58558" lon="-4.43999">
        <ele>58.9</ele>
        <time>2011-04-05T15:59:42Z</time>
      </trkpt>
      <trkpt lat="48.58559" lon="-4.43999">
        <ele>58.8</ele>
        <time>2011-04-05T15:59:43Z</time>
      </trkpt>
      <trkpt lat="48.58561" lon="-4.44">
        <ele>58.5</ele>
        <time>2011-04-05T15:59:44Z</time>
      </trkpt>
      <trkpt lat="48.58562" lon="-4.43999">
        <ele>58.5</ele>
        <time>2011-04-05T15:59:45Z</time>
      </trkpt>
      <trkpt lat="48.58563" lon="-4.44">
        <ele>58.5</ele>
        <time>2011-04-05T15:59:46Z</time>
      </trkpt>
      <trkpt lat="48.58565" lon="-4.44">
        <ele>58.3</ele>
        <time>2011-04-05T15:59:47Z</time>
      </trkpt>
      <trkpt lat="48.58566" lon="-4.43999">
        <ele>59.7</ele>
        <time>2011-04-05T15:59:48Z</time>
      </trkpt>
      <trkpt lat="48.58567" lon="-4.43998">
        <ele>60.7</ele>
        <time>2011-04-05T15:59:49Z</time>
      </trkpt>
      <trkpt lat="48.58569" lon="-4.43999">
        <ele>60.5</ele>
        <time>2011-04-05T15:59:50Z</time>
      </trkpt>
      <trkpt lat="48.5857" lon="-4.43999">
        <ele>60.8</ele>
        <time>2011-04-05T15:59:51Z</time>
      </trkpt>
      <trkpt lat="48.58572" lon="-4.43997">
        <ele>62.3</ele>
        <time>2011-04-05T15:59:53Z</time>
      </trkpt>
      <trkpt lat="48.58573" lon="-4.43998">
        <ele>62</ele>
        <time>2011-04-05T15:59:53Z</time>
      </trkpt>
      <trkpt lat="48.58575" lon="-4.43999">
        <ele>61.5</ele>
        <time>2011-04-05T15:59:54Z</time>
      </trkpt>
      <trkpt lat="48.58576" lon="-4.43999">
        <ele>61.3</ele>
        <time>2011-04-05T15:59:55Z</time>
      </trkpt>
      <trkpt lat="48.58577" lon="-4.43998">
        <ele>62.3</ele>
        <time>2011-04-05T15:59:56Z</time>
      </trkpt>
      <trkpt lat="48.58579" lon="-4.43999">
        <ele>62</ele>
        <time>2011-04-05T15:59:57Z</time>
      </trkpt>
      <trkpt lat="48.5858" lon="-4.43998">
        <ele>62.4</ele>
        <time>2011-04-05T15:59:58Z</time>
      </trkpt>
      <trkpt lat="48.58581" lon="-4.43998">
        <ele>62.9</ele>
        <time>2011-04-05T15:59:59Z</time>
      </trkpt>
      <trkpt lat="48.58583" lon="-4.43998">
        <ele>63.3</ele>
        <time>2011-04-05T16:00:00Z</time>
      </trkpt>
      <trkpt lat="48.58584" lon="-4.43998">
        <ele>63.4</ele>
        <time>2011-04-05T16:00:01Z</time>
      </trkpt>
      <trkpt lat="48.58586" lon="-4.43999">
        <ele>63.3</ele>
        <time>2011-04-05T16:00:03Z</time>
      </trkpt>
      <trkpt lat="48.58587" lon="-4.43999">
        <ele>63.2</ele>
        <time>2011-04-05T16:00:03Z</time>
      </trkpt>
      <trkpt lat="48.58588" lon="-4.43999">
        <ele>63.4</ele>
        <time>2011-04-05T16:00:04Z</time>
      </trkpt>
      <trkpt lat="48.5859" lon="-4.44">
        <ele>63.3</ele>
        <time>2011-04-05T16:00:05Z</time>
      </trkpt>
      <trkpt lat="48.58591" lon="-4.43999">
        <ele>63.8</ele>
        <time>2011-04-05T16:00:06Z</time>
      </trkpt>
      <trkpt lat="48.58592" lon="-4.43999">
        <ele>64.1</ele>
        <time>2011-04-05T16:00:08Z</time>
      </trkpt>
      <trkpt lat="48.58594" lon="-4.44">
        <ele>63.7</ele>
        <time>2011-04-05T16:00:08Z</time>
      </trkpt>
      <trkpt lat="48.58595" lon="-4.44">
        <ele>63.8</ele>
        <time>2011-04-05T16:00:09Z</time>
      </trkpt>
      <trkpt lat="48.58597" lon="-4.43999">
        <ele>64.2</ele>
        <time>2011-04-05T16:00:10Z</time>
      </trkpt>
      <trkpt lat="48.58598" lon="-4.44">
        <ele>63.8</ele>
        <time>2011-04-05T16:00:11Z</time>
      </trkpt>
      <trkpt lat="48.586" lon="-4.44002">
        <ele>63.4</ele>
        <time>2011-04-05T16:00:12Z</time>
      </trkpt>
      <trkpt lat="48.58601" lon="-4.44002">
        <ele>63.4</ele>
        <time>2011-04-05T16:00:13Z</time>
      </trkpt>
      <trkpt lat="48.58603" lon="-4.44003">
        <ele>63.4</ele>
        <time>2011-04-05T16:00:14Z</time>
      </trkpt>
      <trkpt lat="48.58604" lon="-4.44003">
        <ele>63.7</ele>
        <time>2011-04-05T16:00:15Z</time>
      </trkpt>
      <trkpt lat="48.58605" lon="-4.44002">
        <ele>64.2</ele>
        <time>2011-04-05T16:00:16Z</time>
      </trkpt>
      <trkpt lat="48.58607" lon="-4.44002">
        <ele>64</ele>
        <time>2011-04-05T16:00:18Z</time>
      </trkpt>
      <trkpt lat="48.58608" lon="-4.44002">
        <ele>64.5</ele>
        <time>2011-04-05T16:00:19Z</time>
      </trkpt>
      <trkpt lat="48.58609" lon="-4.44001">
        <ele>64.9</ele>
        <time>2011-04-05T16:00:19Z</time>
      </trkpt>
      <trkpt lat="48.5861" lon="-4.44">
        <ele>65.8</ele>
        <time>2011-04-05T16:00:20Z</time>
      </trkpt>
      <trkpt lat="48.58611" lon="-4.43999">
        <ele>65.7</ele>
        <time>2011-04-05T16:00:21Z</time>
      </trkpt>
      <trkpt lat="48.58611" lon="-4.43997">
        <ele>65.6</ele>
        <time>2011-04-05T16:00:22Z</time>
      </trkpt>
      <trkpt lat="48.58612" lon="-4.43995">
        <ele>65.2</ele>
        <time>2011-04-05T16:00:23Z</time>
      </trkpt>
      <trkpt lat="48.58611" lon="-4.43993">
        <ele>64.8</ele>
        <time>2011-04-05T16:00:24Z</time>
      </trkpt>
      <trkpt lat="48.58611" lon="-4.43991">
        <ele>64.3</ele>
        <time>2011-04-05T16:00:25Z</time>
      </trkpt>
      <trkpt lat="48.58611" lon="-4.43989">
        <ele>64.1</ele>
        <time>2011-04-05T16:00:26Z</time>
      </trkpt>
      <trkpt lat="48.58611" lon="-4.43987">
        <ele>64</ele>
        <time>2011-04-05T16:00:27Z</time>
      </trkpt>
      <trkpt lat="48.58611" lon="-4.43985">
        <ele>63.9</ele>
        <time>2011-04-05T16:00:28Z</time>
      </trkpt>
      <trkpt lat="48.58611" lon="-4.43983">
        <ele>63.8</ele>
        <time>2011-04-05T16:00:29Z</time>
      </trkpt>
      <trkpt lat="48.58611" lon="-4.43981">
        <ele>63.6</ele>
        <time>2011-04-05T16:00:30Z</time>
      </trkpt>
      <trkpt lat="48.58611" lon="-4.43979">
        <ele>63.7</ele>
        <time>2011-04-05T16:00:31Z</time>
      </trkpt>
      <trkpt lat="48.58611" lon="-4.43977">
        <ele>63.6</ele>
        <time>2011-04-05T16:00:33Z</time>
      </trkpt>
      <trkpt lat="48.5861" lon="-4.43975">
        <ele>63.7</ele>
        <time>2011-04-05T16:00:33Z</time>
      </trkpt>
      <trkpt lat="48.5861" lon="-4.43973">
        <ele>63.6</ele>
        <time>2011-04-05T16:00:34Z</time>
      </trkpt>
      <trkpt lat="48.5861" lon="-4.43971">
        <ele>63.6</ele>
        <time>2011-04-05T16:00:35Z</time>
      </trkpt>
      <trkpt lat="48.5861" lon="-4.43969">
        <ele>63.7</ele>
        <time>2011-04-05T16:00:36Z</time>
      </trkpt>
      <trkpt lat="48.58609" lon="-4.43967">
        <ele>63.8</ele>
        <time>2011-04-05T16:00:38Z</time>
      </trkpt>
      <trkpt lat="48.58609" lon="-4.43965">
        <ele>63.9</ele>
        <time>2011-04-05T16:00:39Z</time>
      </trkpt>
      <trkpt lat="48.58608" lon="-4.43963">
        <ele>63.9</ele>
        <time>2011-04-05T16:00:39Z</time>
      </trkpt>
      <trkpt lat="48.58608" lon="-4.43961">
        <ele>63.9</ele>
        <time>2011-04-05T16:00:40Z</time>
      </trkpt>
      <trkpt lat="48.58608" lon="-4.43959">
        <ele>64</ele>
        <time>2011-04-05T16:00:41Z</time>
      </trkpt>
      <trkpt lat="48.58608" lon="-4.43956">
        <ele>63.9</ele>
        <time>2011-04-05T16:00:42Z</time>
      </trkpt>
      <trkpt lat="48.58608" lon="-4.43954">
        <ele>63.7</ele>
        <time>2011-04-05T16:00:43Z</time>
      </trkpt>
      <trkpt lat="48.58607" lon="-4.43952">
        <ele>63.5</ele>
        <time>2011-04-05T16:00:44Z</time>
      </trkpt>
      <trkpt lat="48.58608" lon="-4.4395">
        <ele>63.3</ele>
        <time>2011-04-05T16:00:45Z</time>
      </trkpt>
      <trkpt lat="48.58608" lon="-4.43948">
        <ele>62.9</ele>
        <time>2011-04-05T16:00:46Z</time>
      </trkpt>
      <trkpt lat="48.58608" lon="-4.43946">
        <ele>62.7</ele>
        <time>2011-04-05T16:00:48Z</time>
      </trkpt>
      <trkpt lat="48.58608" lon="-4.43944">
        <ele>62.6</ele>
        <time>2011-04-05T16:00:49Z</time>
      </trkpt>
      <trkpt lat="48.58607" lon="-4.43941">
        <ele>62.6</ele>
        <time>2011-04-05T16:00:49Z</time>
      </trkpt>
      <trkpt lat="48.58607" lon="-4.43939">
        <ele>62.5</ele>
        <time>2011-04-05T16:00:50Z</time>
      </trkpt>
      <trkpt lat="48.58607" lon="-4.43937">
        <ele>62.2</ele>
        <time>2011-04-05T16:00:51Z</time>
      </trkpt>
      <trkpt lat="48.58607" lon="-4.43935">
        <ele>62.2</ele>
        <time>2011-04-05T16:00:52Z</time>
      </trkpt>
      <trkpt lat="48.58607" lon="-4.43933">
        <ele>62.1</ele>
        <time>2011-04-05T16:00:53Z</time>
      </trkpt>
      <trkpt lat="48.58607" lon="-4.43931">
        <ele>62.1</ele>
        <time>2011-04-05T16:00:54Z</time>
      </trkpt>
      <trkpt lat="48.58607" lon="-4.43928">
        <ele>62</ele>
        <time>2011-04-05T16:00:55Z</time>
      </trkpt>
      <trkpt lat="48.58607" lon="-4.43926">
        <ele>61.9</ele>
        <time>2011-04-05T16:00:56Z</time>
      </trkpt>
      <trkpt lat="48.58607" lon="-4.43924">
        <ele>61.7</ele>
        <time>2011-04-05T16:00:57Z</time>
      </trkpt>
      <trkpt lat="48.58607" lon="-4.43921">
        <ele>61.1</ele>
        <time>2011-04-05T16:00:58Z</time>
      </trkpt>
      <trkpt lat="48.58607" lon="-4.43919">
        <ele>61.2</ele>
        <time>2011-04-05T16:00:59Z</time>
      </trkpt>
      <trkpt lat="48.58607" lon="-4.43917">
        <ele>61.5</ele>
        <time>2011-04-05T16:01:00Z</time>
      </trkpt>
      <trkpt lat="48.58607" lon="-4.43914">
        <ele>61.3</ele>
        <time>2011-04-05T16:01:01Z</time>
      </trkpt>
      <trkpt lat="48.58607" lon="-4.43912">
        <ele>60.8</ele>
        <time>2011-04-05T16:01:03Z</time>
      </trkpt>
      <trkpt lat="48.58606" lon="-4.4391">
        <ele>60.6</ele>
        <time>2011-04-05T16:01:03Z</time>
      </trkpt>
      <trkpt lat="48.58606" lon="-4.43907">
        <ele>60.7</ele>
        <time>2011-04-05T16:01:04Z</time>
      </trkpt>
      <trkpt lat="48.58606" lon="-4.43905">
        <ele>60.9</ele>
        <time>2011-04-05T16:01:05Z</time>
      </trkpt>
      <trkpt lat="48.58606" lon="-4.43903">
        <ele>60.8</ele>
        <time>2011-04-05T16:01:06Z</time>
      </trkpt>
      <trkpt lat="48.58605" lon="-4.43901">
        <ele>61.1</ele>
        <time>2011-04-05T16:01:07Z</time>
      </trkpt>
      <trkpt lat="48.58605" lon="-4.43898">
        <ele>61.2</ele>
        <time>2011-04-05T16:01:08Z</time>
      </trkpt>
      <trkpt lat="48.58605" lon="-4.43896">
        <ele>61.1</ele>
        <time>2011-04-05T16:01:09Z</time>
      </trkpt>
      <trkpt lat="48.58605" lon="-4.43894">
        <ele>61.6</ele>
        <time>2011-04-05T16:01:10Z</time>
      </trkpt>
      <trkpt lat="48.58604" lon="-4.43892">
        <ele>61.6</ele>
        <time>2011-04-05T16:01:11Z</time>
      </trkpt>
      <trkpt lat="48.58604" lon="-4.43889">
        <ele>61.8</ele>
        <time>2011-04-05T16:01:12Z</time>
      </trkpt>
      <trkpt lat="48.58604" lon="-4.43887">
        <ele>61.7</ele>
        <time>2011-04-05T16:01:13Z</time>
      </trkpt>
      <trkpt lat="48.58603" lon="-4.43885">
        <ele>61.6</ele>
        <time>2011-04-05T16:01:14Z</time>
      </trkpt>
      <trkpt lat="48.58603" lon="-4.43882">
        <ele>61.6</ele>
        <time>2011-04-05T16:01:15Z</time>
      </trkpt>
      <trkpt lat="48.58602" lon="-4.4388">
        <ele>61.5</ele>
        <time>2011-04-05T16:01:16Z</time>
      </trkpt>
      <trkpt lat="48.58602" lon="-4.43878">
        <ele>61.5</ele>
        <time>2011-04-05T16:01:18Z</time>
      </trkpt>
      <trkpt lat="48.58602" lon="-4.43875">
        <ele>61.4</ele>
        <time>2011-04-05T16:01:19Z</time>
      </trkpt>
      <trkpt lat="48.58602" lon="-4.43873">
        <ele>61.3</ele>
        <time>2011-04-05T16:01:19Z</time>
      </trkpt>
      <trkpt lat="48.58602" lon="-4.43871">
        <ele>61.3</ele>
        <time>2011-04-05T16:01:20Z</time>
      </trkpt>
      <trkpt lat="48.58601" lon="-4.43868">
        <ele>61.2</ele>
        <time>2011-04-05T16:01:21Z</time>
      </trkpt>
      <trkpt lat="48.58601" lon="-4.43866">
        <ele>61.2</ele>
        <time>2011-04-05T16:01:22Z</time>
      </trkpt>
      <trkpt lat="48.58602" lon="-4.43864">
        <ele>61.2</ele>
        <time>2011-04-05T16:01:23Z</time>
      </trkpt>
      <trkpt lat="48.58602" lon="-4.43861">
        <ele>61.2</ele>
        <time>2011-04-05T16:01:24Z</time>
      </trkpt>
      <trkpt lat="48.58602" lon="-4.43859">
        <ele>61.3</ele>
        <time>2011-04-05T16:01:25Z</time>
      </trkpt>
      <trkpt lat="48.58603" lon="-4.43857">
        <ele>61.4</ele>
        <time>2011-04-05T16:01:26Z</time>
      </trkpt>
      <trkpt lat="48.58603" lon="-4.43855">
        <ele>61.6</ele>
        <time>2011-04-05T16:01:28Z</time>
      </trkpt>
      <trkpt lat="48.58604" lon="-4.43853">
        <ele>61.8</ele>
        <time>2011-04-05T16:01:29Z</time>
      </trkpt>
      <trkpt lat="48.58604" lon="-4.43851">
        <ele>62</ele>
        <time>2011-04-05T16:01:29Z</time>
      </trkpt>
      <trkpt lat="48.58604" lon="-4.43849">
        <ele>61.9</ele>
        <time>2011-04-05T16:01:30Z</time>
      </trkpt>
      <trkpt lat="48.58605" lon="-4.43846">
        <ele>61.7</ele>
        <time>2011-04-05T16:01:31Z</time>
      </trkpt>
      <trkpt lat="48.58605" lon="-4.43844">
        <ele>61.7</ele>
        <time>2011-04-05T16:01:32Z</time>
      </trkpt>
      <trkpt lat="48.58605" lon="-4.43842">
        <ele>61.7</ele>
        <time>2011-04-05T16:01:33Z</time>
      </trkpt>
      <trkpt lat="48.58605" lon="-4.43839">
        <ele>61.9</ele>
        <time>2011-04-05T16:01:34Z</time>
      </trkpt>
      <trkpt lat="48.58605" lon="-4.43837">
        <ele>62.1</ele>
        <time>2011-04-05T16:01:35Z</time>
      </trkpt>
      <trkpt lat="48.58606" lon="-4.43835">
        <ele>62</ele>
        <time>2011-04-05T16:01:36Z</time>
      </trkpt>
      <trkpt lat="48.58606" lon="-4.43833">
        <ele>62</ele>
        <time>2011-04-05T16:01:37Z</time>
      </trkpt>
      <trkpt lat="48.58606" lon="-4.43831">
        <ele>61.8</ele>
        <time>2011-04-05T16:01:38Z</time>
      </trkpt>
      <trkpt lat="48.58606" lon="-4.43829">
        <ele>61.8</ele>
        <time>2011-04-05T16:01:39Z</time>
      </trkpt>
      <trkpt lat="48.58606" lon="-4.43827">
        <ele>61.7</ele>
        <time>2011-04-05T16:01:40Z</time>
      </trkpt>
      <trkpt lat="48.58606" lon="-4.43825">
        <ele>61.7</ele>
        <time>2011-04-05T16:01:41Z</time>
      </trkpt>
      <trkpt lat="48.58606" lon="-4.43823">
        <ele>61.5</ele>
        <time>2011-04-05T16:01:42Z</time>
      </trkpt>
      <trkpt lat="48.58606" lon="-4.4382">
        <ele>61.3</ele>
        <time>2011-04-05T16:01:43Z</time>
      </trkpt>
      <trkpt lat="48.58606" lon="-4.43818">
        <ele>61.4</ele>
        <time>2011-04-05T16:01:44Z</time>
      </trkpt>
      <trkpt lat="48.58606" lon="-4.43816">
        <ele>61.7</ele>
        <time>2011-04-05T16:01:45Z</time>
      </trkpt>
      <trkpt lat="48.58606" lon="-4.43814">
        <ele>61.7</ele>
        <time>2011-04-05T16:01:46Z</time>
      </trkpt>
      <trkpt lat="48.58606" lon="-4.43812">
        <ele>61.8</ele>
        <time>2011-04-05T16:01:47Z</time>
      </trkpt>
      <trkpt lat="48.58606" lon="-4.4381">
        <ele>61.8</ele>
        <time>2011-04-05T16:01:48Z</time>
      </trkpt>
      <trkpt lat="48.58606" lon="-4.43808">
        <ele>62.1</ele>
        <time>2011-04-05T16:01:49Z</time>
      </trkpt>
      <trkpt lat="48.58606" lon="-4.43806">
        <ele>62.2</ele>
        <time>2011-04-05T16:01:51Z</time>
      </trkpt>
      <trkpt lat="48.58606" lon="-4.43804">
        <ele>62</ele>
        <time>2011-04-05T16:01:51Z</time>
      </trkpt>
      <trkpt lat="48.58606" lon="-4.43802">
        <ele>62.1</ele>
        <time>2011-04-05T16:01:52Z</time>
      </trkpt>
      <trkpt lat="48.58606" lon="-4.438">
        <ele>62.1</ele>
        <time>2011-04-05T16:01:53Z</time>
      </trkpt>
      <trkpt lat="48.58606" lon="-4.43798">
        <ele>62.2</ele>
        <time>2011-04-05T16:01:54Z</time>
      </trkpt>
      <trkpt lat="48.58605" lon="-4.43795">
        <ele>62.6</ele>
        <time>2011-04-05T16:01:55Z</time>
      </trkpt>
      <trkpt lat="48.58605" lon="-4.43793">
        <ele>63.4</ele>
        <time>2011-04-05T16:01:56Z</time>
      </trkpt>
      <trkpt lat="48.58604" lon="-4.43791">
        <ele>64.4</ele>
        <time>2011-04-05T16:01:58Z</time>
      </trkpt>
      <trkpt lat="48.58604" lon="-4.43789">
        <ele>65</ele>
        <time>2011-04-05T16:01:59Z</time>
      </trkpt>
      <trkpt lat="48.58603" lon="-4.43786">
        <ele>65</ele>
        <time>2011-04-05T16:01:59Z</time>
      </trkpt>
      <trkpt lat="48.58602" lon="-4.43783">
        <ele>66.2</ele>
        <time>2011-04-05T16:02:00Z</time>
      </trkpt>
      <trkpt lat="48.58602" lon="-4.43781">
        <ele>65.3</ele>
        <time>2011-04-05T16:02:01Z</time>
      </trkpt>
      <trkpt lat="48.58602" lon="-4.43778">
        <ele>65.2</ele>
        <time>2011-04-05T16:02:02Z</time>
      </trkpt>
      <trkpt lat="48.58602" lon="-4.43776">
        <ele>65.6</ele>
        <time>2011-04-05T16:02:03Z</time>
      </trkpt>
      <trkpt lat="48.58602" lon="-4.43774">
        <ele>65.7</ele>
        <time>2011-04-05T16:02:04Z</time>
      </trkpt>
      <trkpt lat="48.58601" lon="-4.43771">
        <ele>65.4</ele>
        <time>2011-04-05T16:02:05Z</time>
      </trkpt>
      <trkpt lat="48.58601" lon="-4.43769">
        <ele>65.4</ele>
        <time>2011-04-05T16:02:06Z</time>
      </trkpt>
      <trkpt lat="48.58601" lon="-4.43767">
        <ele>65.4</ele>
        <time>2011-04-05T16:02:07Z</time>
      </trkpt>
      <trkpt lat="48.58601" lon="-4.43765">
        <ele>65.5</ele>
        <time>2011-04-05T16:02:08Z</time>
      </trkpt>
      <trkpt lat="48.586" lon="-4.43762">
        <ele>66</ele>
        <time>2011-04-05T16:02:09Z</time>
      </trkpt>
      <trkpt lat="48.58601" lon="-4.43761">
        <ele>65.3</ele>
        <time>2011-04-05T16:02:10Z</time>
      </trkpt>
      <trkpt lat="48.58601" lon="-4.43759">
        <ele>65.2</ele>
        <time>2011-04-05T16:02:12Z</time>
      </trkpt>
      <trkpt lat="48.586" lon="-4.43757">
        <ele>65.3</ele>
        <time>2011-04-05T16:02:13Z</time>
      </trkpt>
      <trkpt lat="48.586" lon="-4.43754">
        <ele>64.8</ele>
        <time>2011-04-05T16:02:13Z</time>
      </trkpt>
      <trkpt lat="48.586" lon="-4.43752">
        <ele>65.1</ele>
        <time>2011-04-05T16:02:14Z</time>
      </trkpt>
      <trkpt lat="48.58599" lon="-4.4375">
        <ele>65.7</ele>
        <time>2011-04-05T16:02:15Z</time>
      </trkpt>
      <trkpt lat="48.58599" lon="-4.43747">
        <ele>66.1</ele>
        <time>2011-04-05T16:02:16Z</time>
      </trkpt>
      <trkpt lat="48.58599" lon="-4.43745">
        <ele>65.6</ele>
        <time>2011-04-05T16:02:17Z</time>
      </trkpt>
      <trkpt lat="48.58598" lon="-4.43743">
        <ele>65.7</ele>
        <time>2011-04-05T16:02:18Z</time>
      </trkpt>
      <trkpt lat="48.58598" lon="-4.43741">
        <ele>65.2</ele>
        <time>2011-04-05T16:02:19Z</time>
      </trkpt>
      <trkpt lat="48.58599" lon="-4.43738">
        <ele>64.6</ele>
        <time>2011-04-05T16:02:20Z</time>
      </trkpt>
      <trkpt lat="48.58599" lon="-4.43736">
        <ele>64.4</ele>
        <time>2011-04-05T16:02:21Z</time>
      </trkpt>
      <trkpt lat="48.586" lon="-4.43734">
        <ele>63.8</ele>
        <time>2011-04-05T16:02:22Z</time>
      </trkpt>
      <trkpt lat="48.58599" lon="-4.43732">
        <ele>63.6</ele>
        <time>2011-04-05T16:02:23Z</time>
      </trkpt>
      <trkpt lat="48.58599" lon="-4.4373">
        <ele>63.6</ele>
        <time>2011-04-05T16:02:24Z</time>
      </trkpt>
      <trkpt lat="48.58599" lon="-4.43728">
        <ele>63.6</ele>
        <time>2011-04-05T16:02:25Z</time>
      </trkpt>
      <trkpt lat="48.58599" lon="-4.43725">
        <ele>63.7</ele>
        <time>2011-04-05T16:02:25Z</time>
      </trkpt>
      <trkpt lat="48.58599" lon="-4.43723">
        <ele>63.5</ele>
        <time>2011-04-05T16:02:27Z</time>
      </trkpt>
      <trkpt lat="48.58599" lon="-4.43721">
        <ele>63.7</ele>
        <time>2011-04-05T16:02:28Z</time>
      </trkpt>
      <trkpt lat="48.58599" lon="-4.43719">
        <ele>63.8</ele>
        <time>2011-04-05T16:02:29Z</time>
      </trkpt>
      <trkpt lat="48.58599" lon="-4.43717">
        <ele>63.8</ele>
        <time>2011-04-05T16:02:30Z</time>
      </trkpt>
      <trkpt lat="48.58599" lon="-4.43714">
        <ele>63.9</ele>
        <time>2011-04-05T16:02:31Z</time>
      </trkpt>
      <trkpt lat="48.58599" lon="-4.43712">
        <ele>64.2</ele>
        <time>2011-04-05T16:02:32Z</time>
      </trkpt>
      <trkpt lat="48.58598" lon="-4.43709">
        <ele>64.7</ele>
        <time>2011-04-05T16:02:33Z</time>
      </trkpt>
      <trkpt lat="48.58598" lon="-4.43707">
        <ele>64.8</ele>
        <time>2011-04-05T16:02:34Z</time>
      </trkpt>
      <trkpt lat="48.58598" lon="-4.43705">
        <ele>64.5</ele>
        <time>2011-04-05T16:02:35Z</time>
      </trkpt>
      <trkpt lat="48.58598" lon="-4.43703">
        <ele>64.8</ele>
        <time>2011-04-05T16:02:37Z</time>
      </trkpt>
      <trkpt lat="48.58598" lon="-4.43701">
        <ele>64.8</ele>
        <time>2011-04-05T16:02:38Z</time>
      </trkpt>
      <trkpt lat="48.58598" lon="-4.43699">
        <ele>64.8</ele>
        <time>2011-04-05T16:02:38Z</time>
      </trkpt>
      <trkpt lat="48.58598" lon="-4.43697">
        <ele>65</ele>
        <time>2011-04-05T16:02:39Z</time>
      </trkpt>
      <trkpt lat="48.58598" lon="-4.43695">
        <ele>64.7</ele>
        <time>2011-04-05T16:02:40Z</time>
      </trkpt>
      <trkpt lat="48.58598" lon="-4.43693">
        <ele>64.8</ele>
        <time>2011-04-05T16:02:41Z</time>
      </trkpt>
      <trkpt lat="48.58598" lon="-4.4369">
        <ele>64.7</ele>
        <time>2011-04-05T16:02:42Z</time>
      </trkpt>
      <trkpt lat="48.58598" lon="-4.43688">
        <ele>64.8</ele>
        <time>2011-04-05T16:02:43Z</time>
      </trkpt>
      <trkpt lat="48.58597" lon="-4.43686">
        <ele>65.3</ele>
        <time>2011-04-05T16:02:44Z</time>
      </trkpt>
      <trkpt lat="48.58597" lon="-4.43683">
        <ele>66.3</ele>
        <time>2011-04-05T16:02:45Z</time>
      </trkpt>
      <trkpt lat="48.58597" lon="-4.43681">
        <ele>66.5</ele>
        <time>2011-04-05T16:02:47Z</time>
      </trkpt>
      <trkpt lat="48.58597" lon="-4.43679">
        <ele>66.3</ele>
        <time>2011-04-05T16:02:48Z</time>
      </trkpt>
      <trkpt lat="48.58597" lon="-4.43677">
        <ele>65.6</ele>
        <time>2011-04-05T16:02:48Z</time>
      </trkpt>
      <trkpt lat="48.58598" lon="-4.43674">
        <ele>65.2</ele>
        <time>2011-04-05T16:02:49Z</time>
      </trkpt>
      <trkpt lat="48.58597" lon="-4.43672">
        <ele>65.5</ele>
        <time>2011-04-05T16:02:50Z</time>
      </trkpt>
      <trkpt lat="48.58598" lon="-4.4367">
        <ele>65.3</ele>
        <time>2011-04-05T16:02:51Z</time>
      </trkpt>
      <trkpt lat="48.58598" lon="-4.43668">
        <ele>65.2</ele>
        <time>2011-04-05T16:02:52Z</time>
      </trkpt>
      <trkpt lat="48.58598" lon="-4.43665">
        <ele>64.9</ele>
        <time>2011-04-05T16:02:53Z</time>
      </trkpt>
      <trkpt lat="48.58598" lon="-4.43663">
        <ele>64.6</ele>
        <time>2011-04-05T16:02:54Z</time>
      </trkpt>
      <trkpt lat="48.58599" lon="-4.43661">
        <ele>64.3</ele>
        <time>2011-04-05T16:02:55Z</time>
      </trkpt>
      <trkpt lat="48.58599" lon="-4.43659">
        <ele>64.4</ele>
        <time>2011-04-05T16:02:57Z</time>
      </trkpt>
      <trkpt lat="48.58599" lon="-4.43657">
        <ele>64.3</ele>
        <time>2011-04-05T16:02:58Z</time>
      </trkpt>
      <trkpt lat="48.58599" lon="-4.43654">
        <ele>64.2</ele>
        <time>2011-04-05T16:02:58Z</time>
      </trkpt>
      <trkpt lat="48.58599" lon="-4.43652">
        <ele>64</ele>
        <time>2011-04-05T16:02:59Z</time>
      </trkpt>
      <trkpt lat="48.58599" lon="-4.4365">
        <ele>63.8</ele>
        <time>2011-04-05T16:03:00Z</time>
      </trkpt>
      <trkpt lat="48.58599" lon="-4.43647">
        <ele>63.7</ele>
        <time>2011-04-05T16:03:01Z</time>
      </trkpt>
      <trkpt lat="48.586" lon="-4.43645">
        <ele>63.6</ele>
        <time>2011-04-05T16:03:02Z</time>
      </trkpt>
      <trkpt lat="48.586" lon="-4.43643">
        <ele>63.4</ele>
        <time>2011-04-05T16:03:03Z</time>
      </trkpt>
      <trkpt lat="48.586" lon="-4.43641">
        <ele>63.2</ele>
        <time>2011-04-05T16:03:04Z</time>
      </trkpt>
      <trkpt lat="48.586" lon="-4.43638">
        <ele>63.1</ele>
        <time>2011-04-05T16:03:05Z</time>
      </trkpt>
      <trkpt lat="48.586" lon="-4.43636">
        <ele>63.1</ele>
        <time>2011-04-05T16:03:07Z</time>
      </trkpt>
      <trkpt lat="48.586" lon="-4.43634">
        <ele>62.9</ele>
        <time>2011-04-05T16:03:08Z</time>
      </trkpt>
      <trkpt lat="48.58601" lon="-4.43632">
        <ele>62.8</ele>
        <time>2011-04-05T16:03:08Z</time>
      </trkpt>
      <trkpt lat="48.58601" lon="-4.4363">
        <ele>62.6</ele>
        <time>2011-04-05T16:03:09Z</time>
      </trkpt>
      <trkpt lat="48.58601" lon="-4.43627">
        <ele>62.4</ele>
        <time>2011-04-05T16:03:10Z</time>
      </trkpt>
      <trkpt lat="48.58601" lon="-4.43625">
        <ele>62.4</ele>
        <time>2011-04-05T16:03:10Z</time>
      </trkpt>
      <trkpt lat="48.58602" lon="-4.43623">
        <ele>62.5</ele>
        <time>2011-04-05T16:03:12Z</time>
      </trkpt>
      <trkpt lat="48.58602" lon="-4.43621">
        <ele>62.5</ele>
        <time>2011-04-05T16:03:13Z</time>
      </trkpt>
      <trkpt lat="48.58602" lon="-4.43619">
        <ele>62.3</ele>
        <time>2011-04-05T16:03:14Z</time>
      </trkpt>
      <trkpt lat="48.58602" lon="-4.43616">
        <ele>62.2</ele>
        <time>2011-04-05T16:03:15Z</time>
      </trkpt>
      <trkpt lat="48.58602" lon="-4.43614">
        <ele>62.1</ele>
        <time>2011-04-05T16:03:16Z</time>
      </trkpt>
      <trkpt lat="48.58602" lon="-4.43611">
        <ele>62.2</ele>
        <time>2011-04-05T16:03:17Z</time>
      </trkpt>
      <trkpt lat="48.58603" lon="-4.43609">
        <ele>62.4</ele>
        <time>2011-04-05T16:03:18Z</time>
      </trkpt>
      <trkpt lat="48.58603" lon="-4.43607">
        <ele>62.4</ele>
        <time>2011-04-05T16:03:19Z</time>
      </trkpt>
      <trkpt lat="48.58603" lon="-4.43605">
        <ele>62.4</ele>
        <time>2011-04-05T16:03:20Z</time>
      </trkpt>
      <trkpt lat="48.58603" lon="-4.43602">
        <ele>62.5</ele>
        <time>2011-04-05T16:03:22Z</time>
      </trkpt>
      <trkpt lat="48.58604" lon="-4.436">
        <ele>62.7</ele>
        <time>2011-04-05T16:03:22Z</time>
      </trkpt>
      <trkpt lat="48.58604" lon="-4.43598">
        <ele>62.9</ele>
        <time>2011-04-05T16:03:23Z</time>
      </trkpt>
      <trkpt lat="48.58605" lon="-4.43596">
        <ele>62.9</ele>
        <time>2011-04-05T16:03:24Z</time>
      </trkpt>
      <trkpt lat="48.58605" lon="-4.43594">
        <ele>62.8</ele>
        <time>2011-04-05T16:03:25Z</time>
      </trkpt>
      <trkpt lat="48.58606" lon="-4.43592">
        <ele>62.9</ele>
        <time>2011-04-05T16:03:26Z</time>
      </trkpt>
      <trkpt lat="48.58607" lon="-4.4359">
        <ele>62.9</ele>
        <time>2011-04-05T16:03:27Z</time>
      </trkpt>
      <trkpt lat="48.58608" lon="-4.43588">
        <ele>62.7</ele>
        <time>2011-04-05T16:03:28Z</time>
      </trkpt>
      <trkpt lat="48.58609" lon="-4.43587">
        <ele>62.8</ele>
        <time>2011-04-05T16:03:29Z</time>
      </trkpt>
      <trkpt lat="48.5861" lon="-4.43585">
        <ele>62.7</ele>
        <time>2011-04-05T16:03:30Z</time>
      </trkpt>
      <trkpt lat="48.5861" lon="-4.43583">
        <ele>62.6</ele>
        <time>2011-04-05T16:03:31Z</time>
      </trkpt>
      <trkpt lat="48.58611" lon="-4.43582">
        <ele>62.4</ele>
        <time>2011-04-05T16:03:32Z</time>
      </trkpt>
      <trkpt lat="48.58612" lon="-4.4358">
        <ele>62.2</ele>
        <time>2011-04-05T16:03:33Z</time>
      </trkpt>
      <trkpt lat="48.58614" lon="-4.43579">
        <ele>62.2</ele>
        <time>2011-04-05T16:03:34Z</time>
      </trkpt>
      <trkpt lat="48.58615" lon="-4.43578">
        <ele>62.1</ele>
        <time>2011-04-05T16:03:35Z</time>
      </trkpt>
      <trkpt lat="48.58616" lon="-4.43577">
        <ele>62.1</ele>
        <time>2011-04-05T16:03:37Z</time>
      </trkpt>
      <trkpt lat="48.58617" lon="-4.43576">
        <ele>62</ele>
        <time>2011-04-05T16:03:37Z</time>
      </trkpt>
      <trkpt lat="48.58618" lon="-4.43575">
        <ele>61.9</ele>
        <time>2011-04-05T16:03:38Z</time>
      </trkpt>
      <trkpt lat="48.58619" lon="-4.43574">
        <ele>62</ele>
        <time>2011-04-05T16:03:39Z</time>
      </trkpt>
      <trkpt lat="48.58621" lon="-4.43572">
        <ele>61.9</ele>
        <time>2011-04-05T16:03:40Z</time>
      </trkpt>
      <trkpt lat="48.58622" lon="-4.43571">
        <ele>61.8</ele>
        <time>2011-04-05T16:03:42Z</time>
      </trkpt>
      <trkpt lat="48.58623" lon="-4.4357">
        <ele>61.9</ele>
        <time>2011-04-05T16:03:43Z</time>
      </trkpt>
      <trkpt lat="48.58625" lon="-4.43569">
        <ele>61.8</ele>
        <time>2011-04-05T16:03:43Z</time>
      </trkpt>
      <trkpt lat="48.58626" lon="-4.43568">
        <ele>61.8</ele>
        <time>2011-04-05T16:03:44Z</time>
      </trkpt>
      <trkpt lat="48.58628" lon="-4.43567">
        <ele>61.8</ele>
        <time>2011-04-05T16:03:45Z</time>
      </trkpt>
      <trkpt lat="48.58629" lon="-4.43565">
        <ele>61.8</ele>
        <time>2011-04-05T16:03:46Z</time>
      </trkpt>
      <trkpt lat="48.5863" lon="-4.43564">
        <ele>61.7</ele>
        <time>2011-04-05T16:03:47Z</time>
      </trkpt>
      <trkpt lat="48.58631" lon="-4.43563">
        <ele>61.7</ele>
        <time>2011-04-05T16:03:48Z</time>
      </trkpt>
      <trkpt lat="48.58633" lon="-4.43562">
        <ele>61.7</ele>
        <time>2011-04-05T16:03:49Z</time>
      </trkpt>
      <trkpt lat="48.58634" lon="-4.43561">
        <ele>61.7</ele>
        <time>2011-04-05T16:03:50Z</time>
      </trkpt>
      <trkpt lat="48.58635" lon="-4.4356">
        <ele>61.5</ele>
        <time>2011-04-05T16:03:52Z</time>
      </trkpt>
      <trkpt lat="48.58637" lon="-4.43559">
        <ele>61.6</ele>
        <time>2011-04-05T16:03:53Z</time>
      </trkpt>
      <trkpt lat="48.58638" lon="-4.43558">
        <ele>61.6</ele>
        <time>2011-04-05T16:03:53Z</time>
      </trkpt>
      <trkpt lat="48.58639" lon="-4.43556">
        <ele>61.4</ele>
        <time>2011-04-05T16:03:54Z</time>
      </trkpt>
      <trkpt lat="48.58641" lon="-4.43555">
        <ele>61.1</ele>
        <time>2011-04-05T16:03:55Z</time>
      </trkpt>
      <trkpt lat="48.58642" lon="-4.43554">
        <ele>61.4</ele>
        <time>2011-04-05T16:03:56Z</time>
      </trkpt>
      <trkpt lat="48.58643" lon="-4.43553">
        <ele>61.4</ele>
        <time>2011-04-05T16:03:57Z</time>
      </trkpt>
      <trkpt lat="48.58645" lon="-4.43552">
        <ele>61.7</ele>
        <time>2011-04-05T16:03:58Z</time>
      </trkpt>
      <trkpt lat="48.58646" lon="-4.43551">
        <ele>61.4</ele>
        <time>2011-04-05T16:03:59Z</time>
      </trkpt>
      <trkpt lat="48.58648" lon="-4.43551">
        <ele>61.2</ele>
        <time>2011-04-05T16:04:00Z</time>
      </trkpt>
      <trkpt lat="48.58649" lon="-4.4355">
        <ele>61.1</ele>
        <time>2011-04-05T16:04:02Z</time>
      </trkpt>
      <trkpt lat="48.5865" lon="-4.43549">
        <ele>61.5</ele>
        <time>2011-04-05T16:04:03Z</time>
      </trkpt>
      <trkpt lat="48.58652" lon="-4.43548">
        <ele>61.4</ele>
        <time>2011-04-05T16:04:03Z</time>
      </trkpt>
      <trkpt lat="48.58653" lon="-4.43547">
        <ele>61.4</ele>
        <time>2011-04-05T16:04:04Z</time>
      </trkpt>
      <trkpt lat="48.58655" lon="-4.43546">
        <ele>61.4</ele>
        <time>2011-04-05T16:04:05Z</time>
      </trkpt>
      <trkpt lat="48.58656" lon="-4.43545">
        <ele>61.4</ele>
        <time>2011-04-05T16:04:06Z</time>
      </trkpt>
      <trkpt lat="48.58657" lon="-4.43545">
        <ele>61</ele>
        <time>2011-04-05T16:04:07Z</time>
      </trkpt>
      <trkpt lat="48.58659" lon="-4.43544">
        <ele>60.5</ele>
        <time>2011-04-05T16:04:08Z</time>
      </trkpt>
      <trkpt lat="48.5866" lon="-4.43544">
        <ele>60.6</ele>
        <time>2011-04-05T16:04:09Z</time>
      </trkpt>
      <trkpt lat="48.58662" lon="-4.43543">
        <ele>60.8</ele>
        <time>2011-04-05T16:04:10Z</time>
      </trkpt>
      <trkpt lat="48.58663" lon="-4.43543">
        <ele>60.6</ele>
        <time>2011-04-05T16:04:12Z</time>
      </trkpt>
      <trkpt lat="48.58665" lon="-4.43542">
        <ele>60.3</ele>
        <time>2011-04-05T16:04:13Z</time>
      </trkpt>
      <trkpt lat="48.58666" lon="-4.43542">
        <ele>60</ele>
        <time>2011-04-05T16:04:13Z</time>
      </trkpt>
      <trkpt lat="48.58668" lon="-4.43542">
        <ele>59.6</ele>
        <time>2011-04-05T16:04:14Z</time>
      </trkpt>
      <trkpt lat="48.58669" lon="-4.43541">
        <ele>59.6</ele>
        <time>2011-04-05T16:04:15Z</time>
      </trkpt>
      <trkpt lat="48.5867" lon="-4.4354">
        <ele>59.7</ele>
        <time>2011-04-05T16:04:16Z</time>
      </trkpt>
      <trkpt lat="48.58671" lon="-4.43538">
        <ele>60.1</ele>
        <time>2011-04-05T16:04:17Z</time>
      </trkpt>
      <trkpt lat="48.58673" lon="-4.43537">
        <ele>60.3</ele>
        <time>2011-04-05T16:04:18Z</time>
      </trkpt>
      <trkpt lat="48.58674" lon="-4.43536">
        <ele>60.2</ele>
        <time>2011-04-05T16:04:19Z</time>
      </trkpt>
      <trkpt lat="48.58675" lon="-4.43535">
        <ele>59.9</ele>
        <time>2011-04-05T16:04:20Z</time>
      </trkpt>
      <trkpt lat="48.58677" lon="-4.43534">
        <ele>59.9</ele>
        <time>2011-04-05T16:04:22Z</time>
      </trkpt>
      <trkpt lat="48.58678" lon="-4.43533">
        <ele>59.6</ele>
        <time>2011-04-05T16:04:23Z</time>
      </trkpt>
      <trkpt lat="48.5868" lon="-4.43531">
        <ele>60</ele>
        <time>2011-04-05T16:04:23Z</time>
      </trkpt>
      <trkpt lat="48.58682" lon="-4.4353">
        <ele>59.9</ele>
        <time>2011-04-05T16:04:24Z</time>
      </trkpt>
      <trkpt lat="48.58683" lon="-4.4353">
        <ele>59.6</ele>
        <time>2011-04-05T16:04:25Z</time>
      </trkpt>
      <trkpt lat="48.58684" lon="-4.43528">
        <ele>59.8</ele>
        <time>2011-04-05T16:04:26Z</time>
      </trkpt>
      <trkpt lat="48.58686" lon="-4.43527">
        <ele>59.3</ele>
        <time>2011-04-05T16:04:27Z</time>
      </trkpt>
      <trkpt lat="48.58687" lon="-4.43526">
        <ele>59.5</ele>
        <time>2011-04-05T16:04:28Z</time>
      </trkpt>
      <trkpt lat="48.58688" lon="-4.43525">
        <ele>59.5</ele>
        <time>2011-04-05T16:04:29Z</time>
      </trkpt>
      <trkpt lat="48.5869" lon="-4.43524">
        <ele>59.6</ele>
        <time>2011-04-05T16:04:30Z</time>
      </trkpt>
      <trkpt lat="48.58691" lon="-4.43523">
        <ele>59.7</ele>
        <time>2011-04-05T16:04:31Z</time>
      </trkpt>
      <trkpt lat="48.58692" lon="-4.43521">
        <ele>60.1</ele>
        <time>2011-04-05T16:04:32Z</time>
      </trkpt>
      <trkpt lat="48.58693" lon="-4.4352">
        <ele>60.4</ele>
        <time>2011-04-05T16:04:33Z</time>
      </trkpt>
      <trkpt lat="48.58695" lon="-4.43519">
        <ele>60.2</ele>
        <time>2011-04-05T16:04:34Z</time>
      </trkpt>
      <trkpt lat="48.58696" lon="-4.43517">
        <ele>60.6</ele>
        <time>2011-04-05T16:04:35Z</time>
      </trkpt>
      <trkpt lat="48.58697" lon="-4.43516">
        <ele>60.8</ele>
        <time>2011-04-05T16:04:36Z</time>
      </trkpt>
      <trkpt lat="48.58698" lon="-4.43514">
        <ele>60.9</ele>
        <time>2011-04-05T16:04:37Z</time>
      </trkpt>
      <trkpt lat="48.58699" lon="-4.43513">
        <ele>61</ele>
        <time>2011-04-05T16:04:38Z</time>
      </trkpt>
      <trkpt lat="48.587" lon="-4.43511">
        <ele>61</ele>
        <time>2011-04-05T16:04:39Z</time>
      </trkpt>
      <trkpt lat="48.58701" lon="-4.43509">
        <ele>61</ele>
        <time>2011-04-05T16:04:40Z</time>
      </trkpt>
      <trkpt lat="48.58702" lon="-4.43508">
        <ele>60.4</ele>
        <time>2011-04-05T16:04:42Z</time>
      </trkpt>
      <trkpt lat="48.58703" lon="-4.43506">
        <ele>60.6</ele>
        <time>2011-04-05T16:04:43Z</time>
      </trkpt>
      <trkpt lat="48.58704" lon="-4.43503">
        <ele>60.4</ele>
        <time>2011-04-05T16:04:43Z</time>
      </trkpt>
      <trkpt lat="48.58704" lon="-4.43501">
        <ele>60.2</ele>
        <time>2011-04-05T16:04:44Z</time>
      </trkpt>
      <trkpt lat="48.58705" lon="-4.43499">
        <ele>60</ele>
        <time>2011-04-05T16:04:45Z</time>
      </trkpt>
      <trkpt lat="48.58705" lon="-4.43496">
        <ele>59.9</ele>
        <time>2011-04-05T16:04:45Z</time>
      </trkpt>
      <trkpt lat="48.58705" lon="-4.43494">
        <ele>60.1</ele>
        <time>2011-04-05T16:04:47Z</time>
      </trkpt>
      <trkpt lat="48.58705" lon="-4.43491">
        <ele>60</ele>
        <time>2011-04-05T16:04:48Z</time>
      </trkpt>
      <trkpt lat="48.58705" lon="-4.43489">
        <ele>59.9</ele>
        <time>2011-04-05T16:04:49Z</time>
      </trkpt>
      <trkpt lat="48.58704" lon="-4.43486">
        <ele>59.9</ele>
        <time>2011-04-05T16:04:50Z</time>
      </trkpt>
      <trkpt lat="48.58704" lon="-4.43483">
        <ele>60.2</ele>
        <time>2011-04-05T16:04:51Z</time>
      </trkpt>
      <trkpt lat="48.58704" lon="-4.43481">
        <ele>60.4</ele>
        <time>2011-04-05T16:04:52Z</time>
      </trkpt>
      <trkpt lat="48.58704" lon="-4.43479">
        <ele>60.8</ele>
        <time>2011-04-05T16:04:53Z</time>
      </trkpt>
      <trkpt lat="48.58704" lon="-4.43476">
        <ele>61</ele>
        <time>2011-04-05T16:04:54Z</time>
      </trkpt>
      <trkpt lat="48.58703" lon="-4.43473">
        <ele>61.3</ele>
        <time>2011-04-05T16:04:55Z</time>
      </trkpt>
      <trkpt lat="48.58702" lon="-4.43471">
        <ele>61.6</ele>
        <time>2011-04-05T16:04:57Z</time>
      </trkpt>
      <trkpt lat="48.58702" lon="-4.43468">
        <ele>61.9</ele>
        <time>2011-04-05T16:04:58Z</time>
      </trkpt>
      <trkpt lat="48.58701" lon="-4.43466">
        <ele>62.2</ele>
        <time>2011-04-05T16:04:59Z</time>
      </trkpt>
      <trkpt lat="48.58701" lon="-4.43463">
        <ele>62.2</ele>
        <time>2011-04-05T16:04:59Z</time>
      </trkpt>
      <trkpt lat="48.58701" lon="-4.43461">
        <ele>62</ele>
        <time>2011-04-05T16:05:00Z</time>
      </trkpt>
      <trkpt lat="48.587" lon="-4.43459">
        <ele>62</ele>
        <time>2011-04-05T16:05:01Z</time>
      </trkpt>
      <trkpt lat="48.587" lon="-4.43456">
        <ele>62</ele>
        <time>2011-04-05T16:05:02Z</time>
      </trkpt>
      <trkpt lat="48.587" lon="-4.43454">
        <ele>61.7</ele>
        <time>2011-04-05T16:05:03Z</time>
      </trkpt>
      <trkpt lat="48.587" lon="-4.43451">
        <ele>61.6</ele>
        <time>2011-04-05T16:05:04Z</time>
      </trkpt>
      <trkpt lat="48.587" lon="-4.43449">
        <ele>61.8</ele>
        <time>2011-04-05T16:05:05Z</time>
      </trkpt>
      <trkpt lat="48.58699" lon="-4.43447">
        <ele>61.6</ele>
        <time>2011-04-05T16:05:07Z</time>
      </trkpt>
      <trkpt lat="48.58699" lon="-4.43444">
        <ele>61.3</ele>
        <time>2011-04-05T16:05:08Z</time>
      </trkpt>
      <trkpt lat="48.58699" lon="-4.43442">
        <ele>61.5</ele>
        <time>2011-04-05T16:05:08Z</time>
      </trkpt>
      <trkpt lat="48.58698" lon="-4.4344">
        <ele>61.9</ele>
        <time>2011-04-05T16:05:09Z</time>
      </trkpt>
      <trkpt lat="48.58698" lon="-4.43437">
        <ele>62.2</ele>
        <time>2011-04-05T16:05:10Z</time>
      </trkpt>
      <trkpt lat="48.58697" lon="-4.43434">
        <ele>63</ele>
        <time>2011-04-05T16:05:11Z</time>
      </trkpt>
      <trkpt lat="48.58697" lon="-4.43432">
        <ele>63</ele>
        <time>2011-04-05T16:05:12Z</time>
      </trkpt>
      <trkpt lat="48.58697" lon="-4.43429">
        <ele>63.1</ele>
        <time>2011-04-05T16:05:13Z</time>
      </trkpt>
      <trkpt lat="48.58697" lon="-4.43427">
        <ele>63.7</ele>
        <time>2011-04-05T16:05:14Z</time>
      </trkpt>
      <trkpt lat="48.58696" lon="-4.43424">
        <ele>64.7</ele>
        <time>2011-04-05T16:05:15Z</time>
      </trkpt>
      <trkpt lat="48.58695" lon="-4.43421">
        <ele>64.7</ele>
        <time>2011-04-05T16:05:17Z</time>
      </trkpt>
      <trkpt lat="48.58695" lon="-4.43419">
        <ele>64.6</ele>
        <time>2011-04-05T16:05:18Z</time>
      </trkpt>
      <trkpt lat="48.58695" lon="-4.43417">
        <ele>64.5</ele>
        <time>2011-04-05T16:05:19Z</time>
      </trkpt>
      <trkpt lat="48.58695" lon="-4.43415">
        <ele>64.6</ele>
        <time>2011-04-05T16:05:19Z</time>
      </trkpt>
      <trkpt lat="48.58695" lon="-4.43412">
        <ele>64.8</ele>
        <time>2011-04-05T16:05:20Z</time>
      </trkpt>
      <trkpt lat="48.58695" lon="-4.4341">
        <ele>65</ele>
        <time>2011-04-05T16:05:21Z</time>
      </trkpt>
      <trkpt lat="48.58695" lon="-4.43408">
        <ele>64.9</ele>
        <time>2011-04-05T16:05:22Z</time>
      </trkpt>
      <trkpt lat="48.58695" lon="-4.43406">
        <ele>64.8</ele>
        <time>2011-04-05T16:05:23Z</time>
      </trkpt>
      <trkpt lat="48.58695" lon="-4.43403">
        <ele>64.7</ele>
        <time>2011-04-05T16:05:24Z</time>
      </trkpt>
      <trkpt lat="48.58694" lon="-4.43401">
        <ele>65.1</ele>
        <time>2011-04-05T16:05:25Z</time>
      </trkpt>
      <trkpt lat="48.58694" lon="-4.43399">
        <ele>65.4</ele>
        <time>2011-04-05T16:05:27Z</time>
      </trkpt>
      <trkpt lat="48.58694" lon="-4.43397">
        <ele>65</ele>
        <time>2011-04-05T16:05:27Z</time>
      </trkpt>
      <trkpt lat="48.58694" lon="-4.43394">
        <ele>64.9</ele>
        <time>2011-04-05T16:05:28Z</time>
      </trkpt>
      <trkpt lat="48.58694" lon="-4.43392">
        <ele>64.5</ele>
        <time>2011-04-05T16:05:29Z</time>
      </trkpt>
      <trkpt lat="48.58694" lon="-4.4339">
        <ele>64.4</ele>
        <time>2011-04-05T16:05:30Z</time>
      </trkpt>
      <trkpt lat="48.58693" lon="-4.43388">
        <ele>64.7</ele>
        <time>2011-04-05T16:05:32Z</time>
      </trkpt>
      <trkpt lat="48.58693" lon="-4.43385">
        <ele>64.7</ele>
        <time>2011-04-05T16:05:32Z</time>
      </trkpt>
      <trkpt lat="48.58692" lon="-4.43383">
        <ele>65.2</ele>
        <time>2011-04-05T16:05:33Z</time>
      </trkpt>
      <trkpt lat="48.58692" lon="-4.4338">
        <ele>65.6</ele>
        <time>2011-04-05T16:05:34Z</time>
      </trkpt>
      <trkpt lat="48.58692" lon="-4.43378">
        <ele>65.6</ele>
        <time>2011-04-05T16:05:35Z</time>
      </trkpt>
      <trkpt lat="48.58692" lon="-4.43376">
        <ele>65.6</ele>
        <time>2011-04-05T16:05:37Z</time>
      </trkpt>
      <trkpt lat="48.58692" lon="-4.43374">
        <ele>65.8</ele>
        <time>2011-04-05T16:05:37Z</time>
      </trkpt>
      <trkpt lat="48.58692" lon="-4.43371">
        <ele>65.3</ele>
        <time>2011-04-05T16:05:38Z</time>
      </trkpt>
      <trkpt lat="48.58692" lon="-4.43369">
        <ele>65.4</ele>
        <time>2011-04-05T16:05:39Z</time>
      </trkpt>
      <trkpt lat="48.58692" lon="-4.43367">
        <ele>65</ele>
        <time>2011-04-05T16:05:40Z</time>
      </trkpt>
      <trkpt lat="48.58692" lon="-4.43365">
        <ele>64.7</ele>
        <time>2011-04-05T16:05:42Z</time>
      </trkpt>
      <trkpt lat="48.58692" lon="-4.43363">
        <ele>64.7</ele>
        <time>2011-04-05T16:05:43Z</time>
      </trkpt>
      <trkpt lat="48.58691" lon="-4.4336">
        <ele>64.9</ele>
        <time>2011-04-05T16:05:43Z</time>
      </trkpt>
      <trkpt lat="48.58691" lon="-4.43358">
        <ele>65</ele>
        <time>2011-04-05T16:05:44Z</time>
      </trkpt>
      <trkpt lat="48.58691" lon="-4.43355">
        <ele>65</ele>
        <time>2011-04-05T16:05:45Z</time>
      </trkpt>
      <trkpt lat="48.5869" lon="-4.43353">
        <ele>65.1</ele>
        <time>2011-04-05T16:05:46Z</time>
      </trkpt>
      <trkpt lat="48.5869" lon="-4.4335">
        <ele>65.1</ele>
        <time>2011-04-05T16:05:47Z</time>
      </trkpt>
      <trkpt lat="48.5869" lon="-4.43348">
        <ele>65</ele>
        <time>2011-04-05T16:05:48Z</time>
      </trkpt>
      <trkpt lat="48.58689" lon="-4.43346">
        <ele>65</ele>
        <time>2011-04-05T16:05:49Z</time>
      </trkpt>
      <trkpt lat="48.58688" lon="-4.43344">
        <ele>65.1</ele>
        <time>2011-04-05T16:05:50Z</time>
      </trkpt>
      <trkpt lat="48.58688" lon="-4.43341">
        <ele>65.1</ele>
        <time>2011-04-05T16:05:51Z</time>
      </trkpt>
      <trkpt lat="48.58687" lon="-4.43339">
        <ele>64.8</ele>
        <time>2011-04-05T16:05:52Z</time>
      </trkpt>
      <trkpt lat="48.58687" lon="-4.43338">
        <ele>64.5</ele>
        <time>2011-04-05T16:05:53Z</time>
      </trkpt>
      <trkpt lat="48.58686" lon="-4.43336">
        <ele>64.2</ele>
        <time>2011-04-05T16:05:54Z</time>
      </trkpt>
      <trkpt lat="48.58685" lon="-4.43333">
        <ele>64</ele>
        <time>2011-04-05T16:05:55Z</time>
      </trkpt>
      <trkpt lat="48.58685" lon="-4.43331">
        <ele>64.2</ele>
        <time>2011-04-05T16:05:56Z</time>
      </trkpt>
      <trkpt lat="48.58684" lon="-4.43329">
        <ele>64.6</ele>
        <time>2011-04-05T16:05:58Z</time>
      </trkpt>
      <trkpt lat="48.58683" lon="-4.43326">
        <ele>64.6</ele>
        <time>2011-04-05T16:05:59Z</time>
      </trkpt>
      <trkpt lat="48.58683" lon="-4.43324">
        <ele>64.6</ele>
        <time>2011-04-05T16:05:59Z</time>
      </trkpt>
      <trkpt lat="48.58682" lon="-4.43322">
        <ele>64.6</ele>
        <time>2011-04-05T16:06:00Z</time>
      </trkpt>
      <trkpt lat="48.58682" lon="-4.4332">
        <ele>64.5</ele>
        <time>2011-04-05T16:06:01Z</time>
      </trkpt>
      <trkpt lat="48.58681" lon="-4.43318">
        <ele>64.5</ele>
        <time>2011-04-05T16:06:02Z</time>
      </trkpt>
      <trkpt lat="48.5868" lon="-4.43315">
        <ele>64.8</ele>
        <time>2011-04-05T16:06:03Z</time>
      </trkpt>
      <trkpt lat="48.58679" lon="-4.43313">
        <ele>65</ele>
        <time>2011-04-05T16:06:04Z</time>
      </trkpt>
      <trkpt lat="48.58679" lon="-4.43311">
        <ele>65.1</ele>
        <time>2011-04-05T16:06:05Z</time>
      </trkpt>
      <trkpt lat="48.58678" lon="-4.43309">
        <ele>64.9</ele>
        <time>2011-04-05T16:06:06Z</time>
      </trkpt>
      <trkpt lat="48.58678" lon="-4.43307">
        <ele>64.7</ele>
        <time>2011-04-05T16:06:07Z</time>
      </trkpt>
      <trkpt lat="48.58677" lon="-4.43305">
        <ele>64.9</ele>
        <time>2011-04-05T16:06:08Z</time>
      </trkpt>
      <trkpt lat="48.58676" lon="-4.43303">
        <ele>64.6</ele>
        <time>2011-04-05T16:06:09Z</time>
      </trkpt>
      <trkpt lat="48.58676" lon="-4.43301">
        <ele>65</ele>
        <time>2011-04-05T16:06:10Z</time>
      </trkpt>
      <trkpt lat="48.58675" lon="-4.43299">
        <ele>64.8</ele>
        <time>2011-04-05T16:06:11Z</time>
      </trkpt>
      <trkpt lat="48.58675" lon="-4.43297">
        <ele>64.8</ele>
        <time>2011-04-05T16:06:12Z</time>
      </trkpt>
      <trkpt lat="48.58675" lon="-4.43294">
        <ele>64.7</ele>
        <time>2011-04-05T16:06:13Z</time>
      </trkpt>
      <trkpt lat="48.58674" lon="-4.43292">
        <ele>64.6</ele>
        <time>2011-04-05T16:06:14Z</time>
      </trkpt>
      <trkpt lat="48.58674" lon="-4.4329">
        <ele>64.6</ele>
        <time>2011-04-05T16:06:15Z</time>
      </trkpt>
      <trkpt lat="48.58673" lon="-4.43288">
        <ele>64.5</ele>
        <time>2011-04-05T16:06:16Z</time>
      </trkpt>
      <trkpt lat="48.58673" lon="-4.43286">
        <ele>64.3</ele>
        <time>2011-04-05T16:06:17Z</time>
      </trkpt>
      <trkpt lat="48.58672" lon="-4.43284">
        <ele>64.7</ele>
        <time>2011-04-05T16:06:18Z</time>
      </trkpt>
      <trkpt lat="48.58671" lon="-4.43282">
        <ele>64.7</ele>
        <time>2011-04-05T16:06:19Z</time>
      </trkpt>
      <trkpt lat="48.58671" lon="-4.4328">
        <ele>64.7</ele>
        <time>2011-04-05T16:06:20Z</time>
      </trkpt>
      <trkpt lat="48.5867" lon="-4.43278">
        <ele>64.9</ele>
        <time>2011-04-05T16:06:21Z</time>
      </trkpt>
      <trkpt lat="48.5867" lon="-4.43276">
        <ele>65.1</ele>
        <time>2011-04-05T16:06:22Z</time>
      </trkpt>
      <trkpt lat="48.58669" lon="-4.43274">
        <ele>65.2</ele>
        <time>2011-04-05T16:06:23Z</time>
      </trkpt>
      <trkpt lat="48.58668" lon="-4.43272">
        <ele>65</ele>
        <time>2011-04-05T16:06:24Z</time>
      </trkpt>
      <trkpt lat="48.58668" lon="-4.4327">
        <ele>64.9</ele>
        <time>2011-04-05T16:06:25Z</time>
      </trkpt>
      <trkpt lat="48.58667" lon="-4.43268">
        <ele>65.2</ele>
        <time>2011-04-05T16:06:26Z</time>
      </trkpt>
      <trkpt lat="48.58667" lon="-4.43266">
        <ele>65.2</ele>
        <time>2011-04-05T16:06:28Z</time>
      </trkpt>
      <trkpt lat="48.58666" lon="-4.43264">
        <ele>65.3</ele>
        <time>2011-04-05T16:06:29Z</time>
      </trkpt>
      <trkpt lat="48.58666" lon="-4.43262">
        <ele>64.9</ele>
        <time>2011-04-05T16:06:29Z</time>
      </trkpt>
      <trkpt lat="48.58665" lon="-4.4326">
        <ele>64.9</ele>
        <time>2011-04-05T16:06:30Z</time>
      </trkpt>
      <trkpt lat="48.58665" lon="-4.43258">
        <ele>64.5</ele>
        <time>2011-04-05T16:06:31Z</time>
      </trkpt>
      <trkpt lat="48.58664" lon="-4.43256">
        <ele>64.2</ele>
        <time>2011-04-05T16:06:32Z</time>
      </trkpt>
      <trkpt lat="48.58664" lon="-4.43253">
        <ele>64.5</ele>
        <time>2011-04-05T16:06:33Z</time>
      </trkpt>
      <trkpt lat="48.58663" lon="-4.43251">
        <ele>64.7</ele>
        <time>2011-04-05T16:06:34Z</time>
      </trkpt>
      <trkpt lat="48.58662" lon="-4.43249">
        <ele>64.8</ele>
        <time>2011-04-05T16:06:35Z</time>
      </trkpt>
      <trkpt lat="48.58661" lon="-4.43247">
        <ele>64.9</ele>
        <time>2011-04-05T16:06:36Z</time>
      </trkpt>
      <trkpt lat="48.58661" lon="-4.43245">
        <ele>65</ele>
        <time>2011-04-05T16:06:38Z</time>
      </trkpt>
      <trkpt lat="48.5866" lon="-4.43242">
        <ele>65</ele>
        <time>2011-04-05T16:06:39Z</time>
      </trkpt>
      <trkpt lat="48.5866" lon="-4.4324">
        <ele>65.2</ele>
        <time>2011-04-05T16:06:40Z</time>
      </trkpt>
      <trkpt lat="48.5866" lon="-4.43238">
        <ele>65.2</ele>
        <time>2011-04-05T16:06:40Z</time>
      </trkpt>
      <trkpt lat="48.58659" lon="-4.43236">
        <ele>65.3</ele>
        <time>2011-04-05T16:06:42Z</time>
      </trkpt>
      <trkpt lat="48.58658" lon="-4.43234">
        <ele>65.7</ele>
        <time>2011-04-05T16:06:43Z</time>
      </trkpt>
      <trkpt lat="48.58658" lon="-4.43231">
        <ele>66.2</ele>
        <time>2011-04-05T16:06:44Z</time>
      </trkpt>
      <trkpt lat="48.58657" lon="-4.43229">
        <ele>66.4</ele>
        <time>2011-04-05T16:06:45Z</time>
      </trkpt>
      <trkpt lat="48.58657" lon="-4.43227">
        <ele>66.5</ele>
        <time>2011-04-05T16:06:46Z</time>
      </trkpt>
      <trkpt lat="48.58656" lon="-4.43225">
        <ele>66.9</ele>
        <time>2011-04-05T16:06:47Z</time>
      </trkpt>
      <trkpt lat="48.58656" lon="-4.43222">
        <ele>67.3</ele>
        <time>2011-04-05T16:06:48Z</time>
      </trkpt>
      <trkpt lat="48.58655" lon="-4.4322">
        <ele>67.3</ele>
        <time>2011-04-05T16:06:49Z</time>
      </trkpt>
      <trkpt lat="48.58655" lon="-4.43217">
        <ele>67.2</ele>
        <time>2011-04-05T16:06:50Z</time>
      </trkpt>
      <trkpt lat="48.58654" lon="-4.43215">
        <ele>67.4</ele>
        <time>2011-04-05T16:06:51Z</time>
      </trkpt>
      <trkpt lat="48.58654" lon="-4.43213">
        <ele>67.5</ele>
        <time>2011-04-05T16:06:51Z</time>
      </trkpt>
      <trkpt lat="48.58653" lon="-4.43211">
        <ele>67.5</ele>
        <time>2011-04-05T16:06:52Z</time>
      </trkpt>
      <trkpt lat="48.58653" lon="-4.43209">
        <ele>67.1</ele>
        <time>2011-04-05T16:06:53Z</time>
      </trkpt>
      <trkpt lat="48.58652" lon="-4.43207">
        <ele>67</ele>
        <time>2011-04-05T16:06:54Z</time>
      </trkpt>
      <trkpt lat="48.58652" lon="-4.43205">
        <ele>66.7</ele>
        <time>2011-04-05T16:06:55Z</time>
      </trkpt>
      <trkpt lat="48.58652" lon="-4.43203">
        <ele>66.5</ele>
        <time>2011-04-05T16:06:56Z</time>
      </trkpt>
      <trkpt lat="48.58651" lon="-4.43201">
        <ele>66.4</ele>
        <time>2011-04-05T16:06:57Z</time>
      </trkpt>
      <trkpt lat="48.58651" lon="-4.43198">
        <ele>66.1</ele>
        <time>2011-04-05T16:06:58Z</time>
      </trkpt>
      <trkpt lat="48.58651" lon="-4.43196">
        <ele>66.3</ele>
        <time>2011-04-05T16:06:59Z</time>
      </trkpt>
      <trkpt lat="48.5865" lon="-4.43194">
        <ele>66.5</ele>
        <time>2011-04-05T16:07:00Z</time>
      </trkpt>
      <trkpt lat="48.5865" lon="-4.43192">
        <ele>66.5</ele>
        <time>2011-04-05T16:07:01Z</time>
      </trkpt>
      <trkpt lat="48.5865" lon="-4.4319">
        <ele>66.4</ele>
        <time>2011-04-05T16:07:03Z</time>
      </trkpt>
      <trkpt lat="48.58649" lon="-4.43188">
        <ele>66.4</ele>
        <time>2011-04-05T16:07:04Z</time>
      </trkpt>
      <trkpt lat="48.58649" lon="-4.43185">
        <ele>66.8</ele>
        <time>2011-04-05T16:07:04Z</time>
      </trkpt>
      <trkpt lat="48.58649" lon="-4.43184">
        <ele>66.5</ele>
        <time>2011-04-05T16:07:05Z</time>
      </trkpt>
      <trkpt lat="48.58648" lon="-4.43181">
        <ele>66.8</ele>
        <time>2011-04-05T16:07:06Z</time>
      </trkpt>
      <trkpt lat="48.58648" lon="-4.43179">
        <ele>66.8</ele>
        <time>2011-04-05T16:07:07Z</time>
      </trkpt>
      <trkpt lat="48.58648" lon="-4.43177">
        <ele>66.7</ele>
        <time>2011-04-05T16:07:08Z</time>
      </trkpt>
      <trkpt lat="48.58647" lon="-4.43175">
        <ele>66.6</ele>
        <time>2011-04-05T16:07:09Z</time>
      </trkpt>
      <trkpt lat="48.58647" lon="-4.43173">
        <ele>66.8</ele>
        <time>2011-04-05T16:07:10Z</time>
      </trkpt>
      <trkpt lat="48.58646" lon="-4.4317">
        <ele>67.1</ele>
        <time>2011-04-05T16:07:11Z</time>
      </trkpt>
      <trkpt lat="48.58646" lon="-4.43168">
        <ele>67.2</ele>
        <time>2011-04-05T16:07:12Z</time>
      </trkpt>
      <trkpt lat="48.58646" lon="-4.43166">
        <ele>67.7</ele>
        <time>2011-04-05T16:07:13Z</time>
      </trkpt>
      <trkpt lat="48.58646" lon="-4.43163">
        <ele>68.1</ele>
        <time>2011-04-05T16:07:14Z</time>
      </trkpt>
      <trkpt lat="48.58646" lon="-4.43161">
        <ele>68.5</ele>
        <time>2011-04-05T16:07:15Z</time>
      </trkpt>
      <trkpt lat="48.58646" lon="-4.43159">
        <ele>68.4</ele>
        <time>2011-04-05T16:07:16Z</time>
      </trkpt>
      <trkpt lat="48.58646" lon="-4.43157">
        <ele>68.7</ele>
        <time>2011-04-05T16:07:17Z</time>
      </trkpt>
      <trkpt lat="48.58646" lon="-4.43155">
        <ele>69</ele>
        <time>2011-04-05T16:07:18Z</time>
      </trkpt>
      <trkpt lat="48.58646" lon="-4.43153">
        <ele>69.4</ele>
        <time>2011-04-05T16:07:19Z</time>
      </trkpt>
      <trkpt lat="48.58646" lon="-4.4315">
        <ele>69.7</ele>
        <time>2011-04-05T16:07:20Z</time>
      </trkpt>
      <trkpt lat="48.58646" lon="-4.43148">
        <ele>69.8</ele>
        <time>2011-04-05T16:07:21Z</time>
      </trkpt>
      <trkpt lat="48.58646" lon="-4.43146">
        <ele>69.9</ele>
        <time>2011-04-05T16:07:23Z</time>
      </trkpt>
      <trkpt lat="48.58646" lon="-4.43143">
        <ele>69.9</ele>
        <time>2011-04-05T16:07:24Z</time>
      </trkpt>
      <trkpt lat="48.58646" lon="-4.43141">
        <ele>69.5</ele>
        <time>2011-04-05T16:07:24Z</time>
      </trkpt>
      <trkpt lat="48.58647" lon="-4.43139">
        <ele>69.3</ele>
        <time>2011-04-05T16:07:25Z</time>
      </trkpt>
      <trkpt lat="48.58647" lon="-4.43137">
        <ele>69</ele>
        <time>2011-04-05T16:07:26Z</time>
      </trkpt>
      <trkpt lat="48.58648" lon="-4.43135">
        <ele>68.7</ele>
        <time>2011-04-05T16:07:27Z</time>
      </trkpt>
      <trkpt lat="48.58648" lon="-4.43132">
        <ele>68.6</ele>
        <time>2011-04-05T16:07:28Z</time>
      </trkpt>
      <trkpt lat="48.58648" lon="-4.4313">
        <ele>68.5</ele>
        <time>2011-04-05T16:07:29Z</time>
      </trkpt>
      <trkpt lat="48.58649" lon="-4.43128">
        <ele>68</ele>
        <time>2011-04-05T16:07:30Z</time>
      </trkpt>
      <trkpt lat="48.58649" lon="-4.43126">
        <ele>67.7</ele>
        <time>2011-04-05T16:07:30Z</time>
      </trkpt>
      <trkpt lat="48.58649" lon="-4.43124">
        <ele>67.6</ele>
        <time>2011-04-05T16:07:32Z</time>
      </trkpt>
      <trkpt lat="48.5865" lon="-4.43122">
        <ele>67.5</ele>
        <time>2011-04-05T16:07:33Z</time>
      </trkpt>
      <trkpt lat="48.5865" lon="-4.43119">
        <ele>67.4</ele>
        <time>2011-04-05T16:07:34Z</time>
      </trkpt>
      <trkpt lat="48.58651" lon="-4.43117">
        <ele>67.4</ele>
        <time>2011-04-05T16:07:35Z</time>
      </trkpt>
      <trkpt lat="48.58651" lon="-4.43115">
        <ele>67.3</ele>
        <time>2011-04-05T16:07:36Z</time>
      </trkpt>
      <trkpt lat="48.58651" lon="-4.43113">
        <ele>67.2</ele>
        <time>2011-04-05T16:07:37Z</time>
      </trkpt>
      <trkpt lat="48.58652" lon="-4.43111">
        <ele>67.1</ele>
        <time>2011-04-05T16:07:38Z</time>
      </trkpt>
      <trkpt lat="48.58652" lon="-4.43109">
        <ele>66.9</ele>
        <time>2011-04-05T16:07:39Z</time>
      </trkpt>
      <trkpt lat="48.58652" lon="-4.43107">
        <ele>66.8</ele>
        <time>2011-04-05T16:07:40Z</time>
      </trkpt>
      <trkpt lat="48.58653" lon="-4.43104">
        <ele>66.4</ele>
        <time>2011-04-05T16:07:42Z</time>
      </trkpt>
      <trkpt lat="48.58653" lon="-4.43102">
        <ele>66.2</ele>
        <time>2011-04-05T16:07:43Z</time>
      </trkpt>
      <trkpt lat="48.58653" lon="-4.431">
        <ele>66.2</ele>
        <time>2011-04-05T16:07:43Z</time>
      </trkpt>
      <trkpt lat="48.58653" lon="-4.43098">
        <ele>65.6</ele>
        <time>2011-04-05T16:07:44Z</time>
      </trkpt>
      <trkpt lat="48.58652" lon="-4.43096">
        <ele>65.5</ele>
        <time>2011-04-05T16:07:45Z</time>
      </trkpt>
      <trkpt lat="48.58652" lon="-4.43093">
        <ele>65.7</ele>
        <time>2011-04-05T16:07:45Z</time>
      </trkpt>
      <trkpt lat="48.58651" lon="-4.4309">
        <ele>65.7</ele>
        <time>2011-04-05T16:07:47Z</time>
      </trkpt>
      <trkpt lat="48.5865" lon="-4.43087">
        <ele>65.7</ele>
        <time>2011-04-05T16:07:48Z</time>
      </trkpt>
      <trkpt lat="48.58649" lon="-4.43085">
        <ele>65.3</ele>
        <time>2011-04-05T16:07:49Z</time>
      </trkpt>
      <trkpt lat="48.58648" lon="-4.43084">
        <ele>65.1</ele>
        <time>2011-04-05T16:07:50Z</time>
      </trkpt>
      <trkpt lat="48.58646" lon="-4.43083">
        <ele>65.6</ele>
        <time>2011-04-05T16:07:52Z</time>
      </trkpt>
      <trkpt lat="48.58645" lon="-4.43082">
        <ele>65.8</ele>
        <time>2011-04-05T16:07:53Z</time>
      </trkpt>
      <trkpt lat="48.58643" lon="-4.43081">
        <ele>66.1</ele>
        <time>2011-04-05T16:07:53Z</time>
      </trkpt>
      <trkpt lat="48.58642" lon="-4.43081">
        <ele>66.4</ele>
        <time>2011-04-05T16:07:54Z</time>
      </trkpt>
      <trkpt lat="48.5864" lon="-4.4308">
        <ele>66.3</ele>
        <time>2011-04-05T16:07:55Z</time>
      </trkpt>
      <trkpt lat="48.58638" lon="-4.4308">
        <ele>66.1</ele>
        <time>2011-04-05T16:07:56Z</time>
      </trkpt>
      <trkpt lat="48.58637" lon="-4.4308">
        <ele>66.5</ele>
        <time>2011-04-05T16:07:58Z</time>
      </trkpt>
      <trkpt lat="48.58635" lon="-4.43079">
        <ele>66.6</ele>
        <time>2011-04-05T16:07:59Z</time>
      </trkpt>
      <trkpt lat="48.58634" lon="-4.43079">
        <ele>67</ele>
        <time>2011-04-05T16:07:59Z</time>
      </trkpt>
      <trkpt lat="48.58632" lon="-4.43078">
        <ele>66.8</ele>
        <time>2011-04-05T16:08:00Z</time>
      </trkpt>
      <trkpt lat="48.5863" lon="-4.43078">
        <ele>67</ele>
        <time>2011-04-05T16:08:01Z</time>
      </trkpt>
      <trkpt lat="48.58629" lon="-4.43077">
        <ele>67.3</ele>
        <time>2011-04-05T16:08:02Z</time>
      </trkpt>
      <trkpt lat="48.58628" lon="-4.43076">
        <ele>67.9</ele>
        <time>2011-04-05T16:08:03Z</time>
      </trkpt>
      <trkpt lat="48.58626" lon="-4.43075">
        <ele>67.9</ele>
        <time>2011-04-05T16:08:04Z</time>
      </trkpt>
      <trkpt lat="48.58625" lon="-4.43075">
        <ele>67.9</ele>
        <time>2011-04-05T16:08:05Z</time>
      </trkpt>
      <trkpt lat="48.58623" lon="-4.43075">
        <ele>67.7</ele>
        <time>2011-04-05T16:08:06Z</time>
      </trkpt>
      <trkpt lat="48.58622" lon="-4.43074">
        <ele>67.5</ele>
        <time>2011-04-05T16:08:08Z</time>
      </trkpt>
      <trkpt lat="48.5862" lon="-4.43074">
        <ele>67.3</ele>
        <time>2011-04-05T16:08:09Z</time>
      </trkpt>
      <trkpt lat="48.58619" lon="-4.43073">
        <ele>67.1</ele>
        <time>2011-04-05T16:08:10Z</time>
      </trkpt>
      <trkpt lat="48.58616" lon="-4.43074">
        <ele>69.3</ele>
        <time>2011-04-05T16:08:10Z</time>
      </trkpt>
      <trkpt lat="48.58613" lon="-4.43074">
        <ele>70.4</ele>
        <time>2011-04-05T16:08:12Z</time>
      </trkpt>
      <trkpt lat="48.58611" lon="-4.43075">
        <ele>71.3</ele>
        <time>2011-04-05T16:08:13Z</time>
      </trkpt>
      <trkpt lat="48.5861" lon="-4.43075">
        <ele>70.9</ele>
        <time>2011-04-05T16:08:14Z</time>
      </trkpt>
      <trkpt lat="48.58608" lon="-4.43075">
        <ele>70.5</ele>
        <time>2011-04-05T16:08:15Z</time>
      </trkpt>
      <trkpt lat="48.58606" lon="-4.43075">
        <ele>70.2</ele>
        <time>2011-04-05T16:08:15Z</time>
      </trkpt>
      <trkpt lat="48.58605" lon="-4.43074">
        <ele>70.2</ele>
        <time>2011-04-05T16:08:17Z</time>
      </trkpt>
      <trkpt lat="48.58603" lon="-4.43074">
        <ele>70.1</ele>
        <time>2011-04-05T16:08:18Z</time>
      </trkpt>
      <trkpt lat="48.58601" lon="-4.43074">
        <ele>70.1</ele>
        <time>2011-04-05T16:08:19Z</time>
      </trkpt>
      <trkpt lat="48.586" lon="-4.43073">
        <ele>70</ele>
        <time>2011-04-05T16:08:20Z</time>
      </trkpt>
      <trkpt lat="48.58598" lon="-4.43072">
        <ele>70.1</ele>
        <time>2011-04-05T16:08:21Z</time>
      </trkpt>
      <trkpt lat="48.58597" lon="-4.43071">
        <ele>70.1</ele>
        <time>2011-04-05T16:08:22Z</time>
      </trkpt>
      <trkpt lat="48.58595" lon="-4.43069">
        <ele>70.2</ele>
        <time>2011-04-05T16:08:23Z</time>
      </trkpt>
      <trkpt lat="48.58594" lon="-4.43068">
        <ele>70.5</ele>
        <time>2011-04-05T16:08:24Z</time>
      </trkpt>
      <trkpt lat="48.58592" lon="-4.43066">
        <ele>70.6</ele>
        <time>2011-04-05T16:08:25Z</time>
      </trkpt>
      <trkpt lat="48.58591" lon="-4.43065">
        <ele>70.6</ele>
        <time>2011-04-05T16:08:26Z</time>
      </trkpt>
      <trkpt lat="48.5859" lon="-4.43063">
        <ele>70.8</ele>
        <time>2011-04-05T16:08:26Z</time>
      </trkpt>
      <trkpt lat="48.5859" lon="-4.43061">
        <ele>70.8</ele>
        <time>2011-04-05T16:08:27Z</time>
      </trkpt>
      <trkpt lat="48.58589" lon="-4.43059">
        <ele>70.7</ele>
        <time>2011-04-05T16:08:28Z</time>
      </trkpt>
      <trkpt lat="48.58589" lon="-4.43057">
        <ele>70.7</ele>
        <time>2011-04-05T16:08:29Z</time>
      </trkpt>
      <trkpt lat="48.58588" lon="-4.43055">
        <ele>70.7</ele>
        <time>2011-04-05T16:08:30Z</time>
      </trkpt>
      <trkpt lat="48.58587" lon="-4.43053">
        <ele>70.8</ele>
        <time>2011-04-05T16:08:32Z</time>
      </trkpt>
      <trkpt lat="48.58587" lon="-4.43051">
        <ele>70.6</ele>
        <time>2011-04-05T16:08:33Z</time>
      </trkpt>
      <trkpt lat="48.58587" lon="-4.43048">
        <ele>70</ele>
        <time>2011-04-05T16:08:33Z</time>
      </trkpt>
      <trkpt lat="48.58587" lon="-4.43046">
        <ele>69.8</ele>
        <time>2011-04-05T16:08:34Z</time>
      </trkpt>
      <trkpt lat="48.58587" lon="-4.43044">
        <ele>69.8</ele>
        <time>2011-04-05T16:08:35Z</time>
      </trkpt>
      <trkpt lat="48.58586" lon="-4.43042">
        <ele>70</ele>
        <time>2011-04-05T16:08:36Z</time>
      </trkpt>
      <trkpt lat="48.58586" lon="-4.4304">
        <ele>70.2</ele>
        <time>2011-04-05T16:08:37Z</time>
      </trkpt>
      <trkpt lat="48.58586" lon="-4.43037">
        <ele>70.5</ele>
        <time>2011-04-05T16:08:38Z</time>
      </trkpt>
      <trkpt lat="48.58586" lon="-4.43035">
        <ele>70.4</ele>
        <time>2011-04-05T16:08:39Z</time>
      </trkpt>
      <trkpt lat="48.58586" lon="-4.43033">
        <ele>70.3</ele>
        <time>2011-04-05T16:08:40Z</time>
      </trkpt>
      <trkpt lat="48.58586" lon="-4.43031">
        <ele>70.3</ele>
        <time>2011-04-05T16:08:42Z</time>
      </trkpt>
      <trkpt lat="48.58586" lon="-4.43029">
        <ele>70.1</ele>
        <time>2011-04-05T16:08:43Z</time>
      </trkpt>
      <trkpt lat="48.58586" lon="-4.43027">
        <ele>70</ele>
        <time>2011-04-05T16:08:44Z</time>
      </trkpt>
      <trkpt lat="48.58585" lon="-4.43025">
        <ele>70.1</ele>
        <time>2011-04-05T16:08:44Z</time>
      </trkpt>
      <trkpt lat="48.58585" lon="-4.43023">
        <ele>70.5</ele>
        <time>2011-04-05T16:08:45Z</time>
      </trkpt>
      <trkpt lat="48.58585" lon="-4.43021">
        <ele>70.5</ele>
        <time>2011-04-05T16:08:46Z</time>
      </trkpt>
      <trkpt lat="48.58585" lon="-4.43018">
        <ele>70.4</ele>
        <time>2011-04-05T16:08:47Z</time>
      </trkpt>
      <trkpt lat="48.58585" lon="-4.43015">
        <ele>69.5</ele>
        <time>2011-04-05T16:08:48Z</time>
      </trkpt>
      <trkpt lat="48.58585" lon="-4.43013">
        <ele>69.3</ele>
        <time>2011-04-05T16:08:49Z</time>
      </trkpt>
      <trkpt lat="48.58585" lon="-4.43011">
        <ele>69.5</ele>
        <time>2011-04-05T16:08:50Z</time>
      </trkpt>
      <trkpt lat="48.58585" lon="-4.43008">
        <ele>69.1</ele>
        <time>2011-04-05T16:08:52Z</time>
      </trkpt>
      <trkpt lat="48.58585" lon="-4.43005">
        <ele>69.3</ele>
        <time>2011-04-05T16:08:53Z</time>
      </trkpt>
      <trkpt lat="48.58585" lon="-4.43002">
        <ele>68.6</ele>
        <time>2011-04-05T16:08:53Z</time>
      </trkpt>
      <trkpt lat="48.58585" lon="-4.43">
        <ele>68.5</ele>
        <time>2011-04-05T16:08:54Z</time>
      </trkpt>
      <trkpt lat="48.58585" lon="-4.42997">
        <ele>68.5</ele>
        <time>2011-04-05T16:08:55Z</time>
      </trkpt>
      <trkpt lat="48.58585" lon="-4.42995">
        <ele>68.5</ele>
        <time>2011-04-05T16:08:56Z</time>
      </trkpt>
      <trkpt lat="48.58584" lon="-4.42994">
        <ele>68.9</ele>
        <time>2011-04-05T16:08:57Z</time>
      </trkpt>
      <trkpt lat="48.58584" lon="-4.42992">
        <ele>69.1</ele>
        <time>2011-04-05T16:08:58Z</time>
      </trkpt>
      <trkpt lat="48.58584" lon="-4.4299">
        <ele>69.1</ele>
        <time>2011-04-05T16:08:59Z</time>
      </trkpt>
      <trkpt lat="48.58583" lon="-4.42988">
        <ele>69.3</ele>
        <time>2011-04-05T16:09:00Z</time>
      </trkpt>
      <trkpt lat="48.58583" lon="-4.42986">
        <ele>68.8</ele>
        <time>2011-04-05T16:09:01Z</time>
      </trkpt>
      <trkpt lat="48.58583" lon="-4.42984">
        <ele>68.8</ele>
        <time>2011-04-05T16:09:02Z</time>
      </trkpt>
      <trkpt lat="48.58583" lon="-4.42982">
        <ele>69.3</ele>
        <time>2011-04-05T16:09:03Z</time>
      </trkpt>
      <trkpt lat="48.58583" lon="-4.4298">
        <ele>69.5</ele>
        <time>2011-04-05T16:09:04Z</time>
      </trkpt>
      <trkpt lat="48.58583" lon="-4.42977">
        <ele>68.8</ele>
        <time>2011-04-05T16:09:05Z</time>
      </trkpt>
      <trkpt lat="48.58583" lon="-4.42975">
        <ele>68</ele>
        <time>2011-04-05T16:09:07Z</time>
      </trkpt>
      <trkpt lat="48.58583" lon="-4.42972">
        <ele>67.5</ele>
        <time>2011-04-05T16:09:08Z</time>
      </trkpt>
      <trkpt lat="48.58583" lon="-4.4297">
        <ele>67.5</ele>
        <time>2011-04-05T16:09:08Z</time>
      </trkpt>
      <trkpt lat="48.58583" lon="-4.42968">
        <ele>67</ele>
        <time>2011-04-05T16:09:09Z</time>
      </trkpt>
      <trkpt lat="48.58583" lon="-4.42965">
        <ele>66.6</ele>
        <time>2011-04-05T16:09:10Z</time>
      </trkpt>
      <trkpt lat="48.58583" lon="-4.42962">
        <ele>65.9</ele>
        <time>2011-04-05T16:09:11Z</time>
      </trkpt>
      <trkpt lat="48.58583" lon="-4.4296">
        <ele>65.3</ele>
        <time>2011-04-05T16:09:12Z</time>
      </trkpt>
      <trkpt lat="48.58583" lon="-4.42957">
        <ele>65.6</ele>
        <time>2011-04-05T16:09:13Z</time>
      </trkpt>
      <trkpt lat="48.58583" lon="-4.42954">
        <ele>64.7</ele>
        <time>2011-04-05T16:09:14Z</time>
      </trkpt>
      <trkpt lat="48.58583" lon="-4.42952">
        <ele>64.7</ele>
        <time>2011-04-05T16:09:15Z</time>
      </trkpt>
      <trkpt lat="48.58583" lon="-4.42951">
        <ele>65.2</ele>
        <time>2011-04-05T16:09:17Z</time>
      </trkpt>
      <trkpt lat="48.58583" lon="-4.42948">
        <ele>64.8</ele>
        <time>2011-04-05T16:09:18Z</time>
      </trkpt>
      <trkpt lat="48.58583" lon="-4.42947">
        <ele>64.7</ele>
        <time>2011-04-05T16:09:18Z</time>
      </trkpt>
      <trkpt lat="48.58582" lon="-4.42944">
        <ele>64.3</ele>
        <time>2011-04-05T16:09:19Z</time>
      </trkpt>
      <trkpt lat="48.58582" lon="-4.42942">
        <ele>64.2</ele>
        <time>2011-04-05T16:09:20Z</time>
      </trkpt>
      <trkpt lat="48.58582" lon="-4.42939">
        <ele>64.3</ele>
        <time>2011-04-05T16:09:21Z</time>
      </trkpt>
      <trkpt lat="48.58581" lon="-4.42937">
        <ele>64.4</ele>
        <time>2011-04-05T16:09:22Z</time>
      </trkpt>
      <trkpt lat="48.58581" lon="-4.42934">
        <ele>65.3</ele>
        <time>2011-04-05T16:09:23Z</time>
      </trkpt>
      <trkpt lat="48.58581" lon="-4.42932">
        <ele>64.9</ele>
        <time>2011-04-05T16:09:24Z</time>
      </trkpt>
      <trkpt lat="48.5858" lon="-4.4293">
        <ele>65</ele>
        <time>2011-04-05T16:09:25Z</time>
      </trkpt>
      <trkpt lat="48.5858" lon="-4.42929">
        <ele>65.6</ele>
        <time>2011-04-05T16:09:27Z</time>
      </trkpt>
      <trkpt lat="48.58579" lon="-4.42926">
        <ele>65.9</ele>
        <time>2011-04-05T16:09:28Z</time>
      </trkpt>
      <trkpt lat="48.58579" lon="-4.42923">
        <ele>66.3</ele>
        <time>2011-04-05T16:09:28Z</time>
      </trkpt>
      <trkpt lat="48.58579" lon="-4.42921">
        <ele>66.3</ele>
        <time>2011-04-05T16:09:29Z</time>
      </trkpt>
      <trkpt lat="48.58579" lon="-4.42918">
        <ele>66.4</ele>
        <time>2011-04-05T16:09:30Z</time>
      </trkpt>
      <trkpt lat="48.58579" lon="-4.42916">
        <ele>66.1</ele>
        <time>2011-04-05T16:09:31Z</time>
      </trkpt>
      <trkpt lat="48.58578" lon="-4.42913">
        <ele>66.9</ele>
        <time>2011-04-05T16:09:32Z</time>
      </trkpt>
      <trkpt lat="48.58578" lon="-4.42911">
        <ele>67</ele>
        <time>2011-04-05T16:09:33Z</time>
      </trkpt>
      <trkpt lat="48.58578" lon="-4.42909">
        <ele>67</ele>
        <time>2011-04-05T16:09:34Z</time>
      </trkpt>
      <trkpt lat="48.58578" lon="-4.42907">
        <ele>66.1</ele>
        <time>2011-04-05T16:09:35Z</time>
      </trkpt>
      <trkpt lat="48.58578" lon="-4.42905">
        <ele>65.7</ele>
        <time>2011-04-05T16:09:36Z</time>
      </trkpt>
      <trkpt lat="48.58578" lon="-4.42902">
        <ele>65.6</ele>
        <time>2011-04-05T16:09:37Z</time>
      </trkpt>
      <trkpt lat="48.58577" lon="-4.429">
        <ele>65.3</ele>
        <time>2011-04-05T16:09:38Z</time>
      </trkpt>
      <trkpt lat="48.58577" lon="-4.42898">
        <ele>65.3</ele>
        <time>2011-04-05T16:09:39Z</time>
      </trkpt>
      <trkpt lat="48.58577" lon="-4.42896">
        <ele>65.5</ele>
        <time>2011-04-05T16:09:40Z</time>
      </trkpt>
      <trkpt lat="48.58577" lon="-4.42894">
        <ele>65.4</ele>
        <time>2011-04-05T16:09:42Z</time>
      </trkpt>
      <trkpt lat="48.58577" lon="-4.42891">
        <ele>65.3</ele>
        <time>2011-04-05T16:09:43Z</time>
      </trkpt>
      <trkpt lat="48.58577" lon="-4.42888">
        <ele>65.2</ele>
        <time>2011-04-05T16:09:44Z</time>
      </trkpt>
      <trkpt lat="48.58577" lon="-4.42886">
        <ele>65.5</ele>
        <time>2011-04-05T16:09:44Z</time>
      </trkpt>
      <trkpt lat="48.58577" lon="-4.42884">
        <ele>64.8</ele>
        <time>2011-04-05T16:09:45Z</time>
      </trkpt>
      <trkpt lat="48.58576" lon="-4.42881">
        <ele>64.5</ele>
        <time>2011-04-05T16:09:46Z</time>
      </trkpt>
      <trkpt lat="48.58576" lon="-4.42879">
        <ele>65.5</ele>
        <time>2011-04-05T16:09:47Z</time>
      </trkpt>
      <trkpt lat="48.58576" lon="-4.42877">
        <ele>65.7</ele>
        <time>2011-04-05T16:09:48Z</time>
      </trkpt>
      <trkpt lat="48.58576" lon="-4.42874">
        <ele>66.1</ele>
        <time>2011-04-05T16:09:49Z</time>
      </trkpt>
      <trkpt lat="48.58575" lon="-4.42872">
        <ele>66.3</ele>
        <time>2011-04-05T16:09:50Z</time>
      </trkpt>
      <trkpt lat="48.58575" lon="-4.4287">
        <ele>66.5</ele>
        <time>2011-04-05T16:09:51Z</time>
      </trkpt>
      <trkpt lat="48.58574" lon="-4.42868">
        <ele>66.5</ele>
        <time>2011-04-05T16:09:52Z</time>
      </trkpt>
      <trkpt lat="48.58574" lon="-4.42865">
        <ele>65.8</ele>
        <time>2011-04-05T16:09:53Z</time>
      </trkpt>
      <trkpt lat="48.58574" lon="-4.42863">
        <ele>65.5</ele>
        <time>2011-04-05T16:09:54Z</time>
      </trkpt>
      <trkpt lat="48.58573" lon="-4.4286">
        <ele>65.2</ele>
        <time>2011-04-05T16:09:55Z</time>
      </trkpt>
      <trkpt lat="48.58573" lon="-4.42858">
        <ele>65.6</ele>
        <time>2011-04-05T16:09:56Z</time>
      </trkpt>
      <trkpt lat="48.58573" lon="-4.42855">
        <ele>65</ele>
        <time>2011-04-05T16:09:57Z</time>
      </trkpt>
      <trkpt lat="48.58572" lon="-4.42853">
        <ele>65</ele>
        <time>2011-04-05T16:09:58Z</time>
      </trkpt>
      <trkpt lat="48.58572" lon="-4.42851">
        <ele>65</ele>
        <time>2011-04-05T16:09:59Z</time>
      </trkpt>
      <trkpt lat="48.58571" lon="-4.42849">
        <ele>65</ele>
        <time>2011-04-05T16:10:00Z</time>
      </trkpt>
      <trkpt lat="48.58571" lon="-4.42846">
        <ele>65</ele>
        <time>2011-04-05T16:10:02Z</time>
      </trkpt>
      <trkpt lat="48.5857" lon="-4.42844">
        <ele>65.3</ele>
        <time>2011-04-05T16:10:03Z</time>
      </trkpt>
      <trkpt lat="48.5857" lon="-4.42842">
        <ele>65.9</ele>
        <time>2011-04-05T16:10:03Z</time>
      </trkpt>
      <trkpt lat="48.58569" lon="-4.4284">
        <ele>66.9</ele>
        <time>2011-04-05T16:10:04Z</time>
      </trkpt>
      <trkpt lat="48.58568" lon="-4.42838">
        <ele>67</ele>
        <time>2011-04-05T16:10:05Z</time>
      </trkpt>
      <trkpt lat="48.58568" lon="-4.42835">
        <ele>67.3</ele>
        <time>2011-04-05T16:10:06Z</time>
      </trkpt>
      <trkpt lat="48.58567" lon="-4.42833">
        <ele>67.6</ele>
        <time>2011-04-05T16:10:07Z</time>
      </trkpt>
      <trkpt lat="48.58566" lon="-4.42831">
        <ele>68</ele>
        <time>2011-04-05T16:10:08Z</time>
      </trkpt>
      <trkpt lat="48.58565" lon="-4.42829">
        <ele>67.4</ele>
        <time>2011-04-05T16:10:09Z</time>
      </trkpt>
      <trkpt lat="48.58565" lon="-4.42827">
        <ele>67</ele>
        <time>2011-04-05T16:10:10Z</time>
      </trkpt>
      <trkpt lat="48.58564" lon="-4.42824">
        <ele>66.6</ele>
        <time>2011-04-05T16:10:12Z</time>
      </trkpt>
      <trkpt lat="48.58564" lon="-4.42822">
        <ele>66.6</ele>
        <time>2011-04-05T16:10:13Z</time>
      </trkpt>
      <trkpt lat="48.58564" lon="-4.42819">
        <ele>67.2</ele>
        <time>2011-04-05T16:10:14Z</time>
      </trkpt>
      <trkpt lat="48.58563" lon="-4.42817">
        <ele>67</ele>
        <time>2011-04-05T16:10:14Z</time>
      </trkpt>
      <trkpt lat="48.58563" lon="-4.42815">
        <ele>66.7</ele>
        <time>2011-04-05T16:10:15Z</time>
      </trkpt>
      <trkpt lat="48.58563" lon="-4.42813">
        <ele>66.4</ele>
        <time>2011-04-05T16:10:16Z</time>
      </trkpt>
      <trkpt lat="48.58562" lon="-4.42811">
        <ele>66.4</ele>
        <time>2011-04-05T16:10:17Z</time>
      </trkpt>
      <trkpt lat="48.58561" lon="-4.42809">
        <ele>66.7</ele>
        <time>2011-04-05T16:10:18Z</time>
      </trkpt>
      <trkpt lat="48.5856" lon="-4.42807">
        <ele>66.7</ele>
        <time>2011-04-05T16:10:19Z</time>
      </trkpt>
      <trkpt lat="48.58559" lon="-4.42806">
        <ele>66.9</ele>
        <time>2011-04-05T16:10:20Z</time>
      </trkpt>
      <trkpt lat="48.58558" lon="-4.42804">
        <ele>67.1</ele>
        <time>2011-04-05T16:10:22Z</time>
      </trkpt>
      <trkpt lat="48.58557" lon="-4.42802">
        <ele>67</ele>
        <time>2011-04-05T16:10:23Z</time>
      </trkpt>
      <trkpt lat="48.58556" lon="-4.428">
        <ele>66.9</ele>
        <time>2011-04-05T16:10:23Z</time>
      </trkpt>
      <trkpt lat="48.58556" lon="-4.42798">
        <ele>66.4</ele>
        <time>2011-04-05T16:10:24Z</time>
      </trkpt>
      <trkpt lat="48.58555" lon="-4.42796">
        <ele>66.6</ele>
        <time>2011-04-05T16:10:25Z</time>
      </trkpt>
      <trkpt lat="48.58555" lon="-4.42793">
        <ele>66.6</ele>
        <time>2011-04-05T16:10:26Z</time>
      </trkpt>
      <trkpt lat="48.58554" lon="-4.42791">
        <ele>66.8</ele>
        <time>2011-04-05T16:10:27Z</time>
      </trkpt>
      <trkpt lat="48.58553" lon="-4.42789">
        <ele>66.6</ele>
        <time>2011-04-05T16:10:28Z</time>
      </trkpt>
      <trkpt lat="48.58552" lon="-4.42787">
        <ele>66.5</ele>
        <time>2011-04-05T16:10:29Z</time>
      </trkpt>
      <trkpt lat="48.58551" lon="-4.42786">
        <ele>66.4</ele>
        <time>2011-04-05T16:10:30Z</time>
      </trkpt>
      <trkpt lat="48.58551" lon="-4.42784">
        <ele>65.8</ele>
        <time>2011-04-05T16:10:32Z</time>
      </trkpt>
      <trkpt lat="48.5855" lon="-4.42782">
        <ele>65.6</ele>
        <time>2011-04-05T16:10:33Z</time>
      </trkpt>
      <trkpt lat="48.58549" lon="-4.4278">
        <ele>64.7</ele>
        <time>2011-04-05T16:10:34Z</time>
      </trkpt>
      <trkpt lat="48.58549" lon="-4.42778">
        <ele>64.2</ele>
        <time>2011-04-05T16:10:34Z</time>
      </trkpt>
      <trkpt lat="48.58548" lon="-4.42776">
        <ele>64</ele>
        <time>2011-04-05T16:10:35Z</time>
      </trkpt>
      <trkpt lat="48.58547" lon="-4.42774">
        <ele>64</ele>
        <time>2011-04-05T16:10:36Z</time>
      </trkpt>
      <trkpt lat="48.58546" lon="-4.42773">
        <ele>63.4</ele>
        <time>2011-04-05T16:10:37Z</time>
      </trkpt>
      <trkpt lat="48.58546" lon="-4.4277">
        <ele>63.2</ele>
        <time>2011-04-05T16:10:38Z</time>
      </trkpt>
      <trkpt lat="48.58545" lon="-4.42768">
        <ele>63.5</ele>
        <time>2011-04-05T16:10:39Z</time>
      </trkpt>
      <trkpt lat="48.58544" lon="-4.42766">
        <ele>63.7</ele>
        <time>2011-04-05T16:10:40Z</time>
      </trkpt>
      <trkpt lat="48.58544" lon="-4.42764">
        <ele>64.2</ele>
        <time>2011-04-05T16:10:41Z</time>
      </trkpt>
      <trkpt lat="48.58543" lon="-4.42762">
        <ele>64.2</ele>
        <time>2011-04-05T16:10:42Z</time>
      </trkpt>
      <trkpt lat="48.58543" lon="-4.4276">
        <ele>64.4</ele>
        <time>2011-04-05T16:10:43Z</time>
      </trkpt>
      <trkpt lat="48.58542" lon="-4.42757">
        <ele>64.2</ele>
        <time>2011-04-05T16:10:44Z</time>
      </trkpt>
      <trkpt lat="48.58542" lon="-4.42756">
        <ele>63.7</ele>
        <time>2011-04-05T16:10:45Z</time>
      </trkpt>
      <trkpt lat="48.58541" lon="-4.42753">
        <ele>62.9</ele>
        <time>2011-04-05T16:10:46Z</time>
      </trkpt>
      <trkpt lat="48.5854" lon="-4.42751">
        <ele>63.3</ele>
        <time>2011-04-05T16:10:47Z</time>
      </trkpt>
      <trkpt lat="48.58539" lon="-4.42749">
        <ele>63.1</ele>
        <time>2011-04-05T16:10:48Z</time>
      </trkpt>
      <trkpt lat="48.58539" lon="-4.42747">
        <ele>63.2</ele>
        <time>2011-04-05T16:10:49Z</time>
      </trkpt>
      <trkpt lat="48.58538" lon="-4.42746">
        <ele>63.8</ele>
        <time>2011-04-05T16:10:50Z</time>
      </trkpt>
      <trkpt lat="48.58537" lon="-4.42744">
        <ele>63.3</ele>
        <time>2011-04-05T16:10:51Z</time>
      </trkpt>
      <trkpt lat="48.58536" lon="-4.42743">
        <ele>62.4</ele>
        <time>2011-04-05T16:10:52Z</time>
      </trkpt>
      <trkpt lat="48.58536" lon="-4.42741">
        <ele>62.4</ele>
        <time>2011-04-05T16:10:53Z</time>
      </trkpt>
      <trkpt lat="48.58535" lon="-4.42739">
        <ele>62.2</ele>
        <time>2011-04-05T16:10:54Z</time>
      </trkpt>
      <trkpt lat="48.58535" lon="-4.42737">
        <ele>61.9</ele>
        <time>2011-04-05T16:10:55Z</time>
      </trkpt>
      <trkpt lat="48.58534" lon="-4.42735">
        <ele>61.1</ele>
        <time>2011-04-05T16:10:57Z</time>
      </trkpt>
      <trkpt lat="48.58533" lon="-4.42734">
        <ele>60.8</ele>
        <time>2011-04-05T16:10:58Z</time>
      </trkpt>
      <trkpt lat="48.58533" lon="-4.42731">
        <ele>60.9</ele>
        <time>2011-04-05T16:10:58Z</time>
      </trkpt>
      <trkpt lat="48.58532" lon="-4.4273">
        <ele>60.4</ele>
        <time>2011-04-05T16:10:59Z</time>
      </trkpt>
      <trkpt lat="48.58531" lon="-4.42728">
        <ele>60.2</ele>
        <time>2011-04-05T16:11:00Z</time>
      </trkpt>
      <trkpt lat="48.58529" lon="-4.42727">
        <ele>60.6</ele>
        <time>2011-04-05T16:11:01Z</time>
      </trkpt>
      <trkpt lat="48.58528" lon="-4.42725">
        <ele>60.5</ele>
        <time>2011-04-05T16:11:02Z</time>
      </trkpt>
      <trkpt lat="48.58526" lon="-4.42724">
        <ele>60.7</ele>
        <time>2011-04-05T16:11:03Z</time>
      </trkpt>
      <trkpt lat="48.58525" lon="-4.42724">
        <ele>60.6</ele>
        <time>2011-04-05T16:11:04Z</time>
      </trkpt>
      <trkpt lat="48.58523" lon="-4.42723">
        <ele>60.9</ele>
        <time>2011-04-05T16:11:05Z</time>
      </trkpt>
      <trkpt lat="48.58522" lon="-4.42723">
        <ele>60.8</ele>
        <time>2011-04-05T16:11:07Z</time>
      </trkpt>
      <trkpt lat="48.58521" lon="-4.42722">
        <ele>60.6</ele>
        <time>2011-04-05T16:11:08Z</time>
      </trkpt>
      <trkpt lat="48.58519" lon="-4.42722">
        <ele>60.8</ele>
        <time>2011-04-05T16:11:09Z</time>
      </trkpt>
      <trkpt lat="48.58518" lon="-4.42722">
        <ele>60.6</ele>
        <time>2011-04-05T16:11:09Z</time>
      </trkpt>
      <trkpt lat="48.58516" lon="-4.42722">
        <ele>60.5</ele>
        <time>2011-04-05T16:11:10Z</time>
      </trkpt>
      <trkpt lat="48.58515" lon="-4.42722">
        <ele>60.6</ele>
        <time>2011-04-05T16:11:11Z</time>
      </trkpt>
      <trkpt lat="48.58513" lon="-4.42722">
        <ele>60.7</ele>
        <time>2011-04-05T16:11:12Z</time>
      </trkpt>
      <trkpt lat="48.58512" lon="-4.42723">
        <ele>61.4</ele>
        <time>2011-04-05T16:11:13Z</time>
      </trkpt>
      <trkpt lat="48.5851" lon="-4.42723">
        <ele>61.5</ele>
        <time>2011-04-05T16:11:14Z</time>
      </trkpt>
      <trkpt lat="48.58509" lon="-4.42724">
        <ele>61.7</ele>
        <time>2011-04-05T16:11:15Z</time>
      </trkpt>
      <trkpt lat="48.58507" lon="-4.42724">
        <ele>61.9</ele>
        <time>2011-04-05T16:11:17Z</time>
      </trkpt>
      <trkpt lat="48.58505" lon="-4.42725">
        <ele>61.8</ele>
        <time>2011-04-05T16:11:18Z</time>
      </trkpt>
      <trkpt lat="48.58504" lon="-4.42725">
        <ele>61.8</ele>
        <time>2011-04-05T16:11:19Z</time>
      </trkpt>
      <trkpt lat="48.58503" lon="-4.42726">
        <ele>61.9</ele>
        <time>2011-04-05T16:11:19Z</time>
      </trkpt>
      <trkpt lat="48.58501" lon="-4.42726">
        <ele>61.8</ele>
        <time>2011-04-05T16:11:20Z</time>
      </trkpt>
      <trkpt lat="48.585" lon="-4.42726">
        <ele>61.7</ele>
        <time>2011-04-05T16:11:21Z</time>
      </trkpt>
      <trkpt lat="48.58498" lon="-4.42727">
        <ele>61.6</ele>
        <time>2011-04-05T16:11:22Z</time>
      </trkpt>
      <trkpt lat="48.58497" lon="-4.42727">
        <ele>61.4</ele>
        <time>2011-04-05T16:11:23Z</time>
      </trkpt>
      <trkpt lat="48.58495" lon="-4.42728">
        <ele>61.2</ele>
        <time>2011-04-05T16:11:24Z</time>
      </trkpt>
      <trkpt lat="48.58493" lon="-4.42729">
        <ele>62.1</ele>
        <time>2011-04-05T16:11:25Z</time>
      </trkpt>
      <trkpt lat="48.5849" lon="-4.42731">
        <ele>63.2</ele>
        <time>2011-04-05T16:11:27Z</time>
      </trkpt>
      <trkpt lat="48.58489" lon="-4.42732">
        <ele>63.9</ele>
        <time>2011-04-05T16:11:28Z</time>
      </trkpt>
      <trkpt lat="48.58488" lon="-4.42733">
        <ele>63.8</ele>
        <time>2011-04-05T16:11:28Z</time>
      </trkpt>
      <trkpt lat="48.58486" lon="-4.42733">
        <ele>63.8</ele>
        <time>2011-04-05T16:11:29Z</time>
      </trkpt>
      <trkpt lat="48.58485" lon="-4.42733">
        <ele>63.4</ele>
        <time>2011-04-05T16:11:30Z</time>
      </trkpt>
      <trkpt lat="48.58483" lon="-4.42734">
        <ele>63.6</ele>
        <time>2011-04-05T16:11:31Z</time>
      </trkpt>
      <trkpt lat="48.58482" lon="-4.42735">
        <ele>63.6</ele>
        <time>2011-04-05T16:11:32Z</time>
      </trkpt>
      <trkpt lat="48.58479" lon="-4.42736">
        <ele>65.2</ele>
        <time>2011-04-05T16:11:33Z</time>
      </trkpt>
      <trkpt lat="48.58477" lon="-4.42737">
        <ele>65.6</ele>
        <time>2011-04-05T16:11:34Z</time>
      </trkpt>
      <trkpt lat="48.58476" lon="-4.42737">
        <ele>65.2</ele>
        <time>2011-04-05T16:11:35Z</time>
      </trkpt>
      <trkpt lat="48.58475" lon="-4.42738">
        <ele>65</ele>
        <time>2011-04-05T16:11:37Z</time>
      </trkpt>
      <trkpt lat="48.58473" lon="-4.42738">
        <ele>64.9</ele>
        <time>2011-04-05T16:11:38Z</time>
      </trkpt>
      <trkpt lat="48.58472" lon="-4.42738">
        <ele>65.4</ele>
        <time>2011-04-05T16:11:38Z</time>
      </trkpt>
      <trkpt lat="48.58471" lon="-4.42738">
        <ele>64.4</ele>
        <time>2011-04-05T16:11:39Z</time>
      </trkpt>
      <trkpt lat="48.58469" lon="-4.42739">
        <ele>64.7</ele>
        <time>2011-04-05T16:11:40Z</time>
      </trkpt>
      <trkpt lat="48.58468" lon="-4.42739">
        <ele>64.5</ele>
        <time>2011-04-05T16:11:41Z</time>
      </trkpt>
      <trkpt lat="48.58466" lon="-4.4274">
        <ele>64.1</ele>
        <time>2011-04-05T16:11:42Z</time>
      </trkpt>
      <trkpt lat="48.58465" lon="-4.4274">
        <ele>65</ele>
        <time>2011-04-05T16:11:43Z</time>
      </trkpt>
      <trkpt lat="48.58463" lon="-4.42741">
        <ele>65.5</ele>
        <time>2011-04-05T16:11:44Z</time>
      </trkpt>
      <trkpt lat="48.58461" lon="-4.42741">
        <ele>66.1</ele>
        <time>2011-04-05T16:11:45Z</time>
      </trkpt>
      <trkpt lat="48.5846" lon="-4.42743">
        <ele>66.8</ele>
        <time>2011-04-05T16:11:47Z</time>
      </trkpt>
      <trkpt lat="48.58458" lon="-4.42743">
        <ele>66.6</ele>
        <time>2011-04-05T16:11:48Z</time>
      </trkpt>
      <trkpt lat="48.58457" lon="-4.42744">
        <ele>66.6</ele>
        <time>2011-04-05T16:11:49Z</time>
      </trkpt>
      <trkpt lat="48.58456" lon="-4.42744">
        <ele>66</ele>
        <time>2011-04-05T16:11:49Z</time>
      </trkpt>
      <trkpt lat="48.58454" lon="-4.42744">
        <ele>65.7</ele>
        <time>2011-04-05T16:11:50Z</time>
      </trkpt>
      <trkpt lat="48.58453" lon="-4.42745">
        <ele>64.9</ele>
        <time>2011-04-05T16:11:52Z</time>
      </trkpt>
      <trkpt lat="48.58452" lon="-4.42745">
        <ele>65.3</ele>
        <time>2011-04-05T16:11:53Z</time>
      </trkpt>
      <trkpt lat="48.5845" lon="-4.42746">
        <ele>65.4</ele>
        <time>2011-04-05T16:11:54Z</time>
      </trkpt>
      <trkpt lat="48.58449" lon="-4.42746">
        <ele>65.5</ele>
        <time>2011-04-05T16:11:55Z</time>
      </trkpt>
      <trkpt lat="48.58448" lon="-4.42746">
        <ele>65.6</ele>
        <time>2011-04-05T16:11:56Z</time>
      </trkpt>
      <trkpt lat="48.58446" lon="-4.42746">
        <ele>65.9</ele>
        <time>2011-04-05T16:11:57Z</time>
      </trkpt>
      <trkpt lat="48.58443" lon="-4.42748">
        <ele>67.4</ele>
        <time>2011-04-05T16:11:58Z</time>
      </trkpt>
      <trkpt lat="48.58442" lon="-4.42749">
        <ele>67.6</ele>
        <time>2011-04-05T16:11:59Z</time>
      </trkpt>
      <trkpt lat="48.5844" lon="-4.42749">
        <ele>68.4</ele>
        <time>2011-04-05T16:12:00Z</time>
      </trkpt>
      <trkpt lat="48.58438" lon="-4.42751">
        <ele>68.5</ele>
        <time>2011-04-05T16:12:01Z</time>
      </trkpt>
      <trkpt lat="48.58436" lon="-4.42752">
        <ele>68.8</ele>
        <time>2011-04-05T16:12:02Z</time>
      </trkpt>
      <trkpt lat="48.58434" lon="-4.42753">
        <ele>68.5</ele>
        <time>2011-04-05T16:12:02Z</time>
      </trkpt>
      <trkpt lat="48.58433" lon="-4.42753">
        <ele>68.4</ele>
        <time>2011-04-05T16:12:03Z</time>
      </trkpt>
      <trkpt lat="48.58431" lon="-4.42753">
        <ele>68.2</ele>
        <time>2011-04-05T16:12:04Z</time>
      </trkpt>
      <trkpt lat="48.5843" lon="-4.42753">
        <ele>67.7</ele>
        <time>2011-04-05T16:12:05Z</time>
      </trkpt>
      <trkpt lat="48.58428" lon="-4.42753">
        <ele>66.9</ele>
        <time>2011-04-05T16:12:07Z</time>
      </trkpt>
      <trkpt lat="48.58427" lon="-4.42753">
        <ele>66.6</ele>
        <time>2011-04-05T16:12:08Z</time>
      </trkpt>
      <trkpt lat="48.58426" lon="-4.42753">
        <ele>66.1</ele>
        <time>2011-04-05T16:12:09Z</time>
      </trkpt>
      <trkpt lat="48.58425" lon="-4.42753">
        <ele>65.6</ele>
        <time>2011-04-05T16:12:09Z</time>
      </trkpt>
      <trkpt lat="48.58423" lon="-4.42754">
        <ele>65.1</ele>
        <time>2011-04-05T16:12:10Z</time>
      </trkpt>
      <trkpt lat="48.58422" lon="-4.42754">
        <ele>64.8</ele>
        <time>2011-04-05T16:12:11Z</time>
      </trkpt>
      <trkpt lat="48.58421" lon="-4.42754">
        <ele>64.7</ele>
        <time>2011-04-05T16:12:12Z</time>
      </trkpt>
      <trkpt lat="48.58419" lon="-4.42755">
        <ele>64.2</ele>
        <time>2011-04-05T16:12:13Z</time>
      </trkpt>
      <trkpt lat="48.58418" lon="-4.42756">
        <ele>64.1</ele>
        <time>2011-04-05T16:12:14Z</time>
      </trkpt>
      <trkpt lat="48.58417" lon="-4.42756">
        <ele>63.7</ele>
        <time>2011-04-05T16:12:15Z</time>
      </trkpt>
      <trkpt lat="48.58416" lon="-4.42757">
        <ele>63.3</ele>
        <time>2011-04-05T16:12:17Z</time>
      </trkpt>
      <trkpt lat="48.58414" lon="-4.42758">
        <ele>62.8</ele>
        <time>2011-04-05T16:12:18Z</time>
      </trkpt>
      <trkpt lat="48.58412" lon="-4.42759">
        <ele>63.8</ele>
        <time>2011-04-05T16:12:19Z</time>
      </trkpt>
      <trkpt lat="48.58411" lon="-4.4276">
        <ele>63.4</ele>
        <time>2011-04-05T16:12:19Z</time>
      </trkpt>
      <trkpt lat="48.5841" lon="-4.42761">
        <ele>62.7</ele>
        <time>2011-04-05T16:12:20Z</time>
      </trkpt>
      <trkpt lat="48.58409" lon="-4.42762">
        <ele>61.6</ele>
        <time>2011-04-05T16:12:21Z</time>
      </trkpt>
      <trkpt lat="48.58407" lon="-4.42763">
        <ele>61.5</ele>
        <time>2011-04-05T16:12:22Z</time>
      </trkpt>
      <trkpt lat="48.58406" lon="-4.42764">
        <ele>61.3</ele>
        <time>2011-04-05T16:12:23Z</time>
      </trkpt>
      <trkpt lat="48.58404" lon="-4.42764">
        <ele>61.1</ele>
        <time>2011-04-05T16:12:24Z</time>
      </trkpt>
      <trkpt lat="48.58403" lon="-4.42765">
        <ele>61</ele>
        <time>2011-04-05T16:12:25Z</time>
      </trkpt>
      <trkpt lat="48.58402" lon="-4.42767">
        <ele>61.3</ele>
        <time>2011-04-05T16:12:27Z</time>
      </trkpt>
      <trkpt lat="48.584" lon="-4.42769">
        <ele>62</ele>
        <time>2011-04-05T16:12:27Z</time>
      </trkpt>
      <trkpt lat="48.58398" lon="-4.4277">
        <ele>62.3</ele>
        <time>2011-04-05T16:12:28Z</time>
      </trkpt>
      <trkpt lat="48.58397" lon="-4.42771">
        <ele>61.9</ele>
        <time>2011-04-05T16:12:29Z</time>
      </trkpt>
      <trkpt lat="48.58395" lon="-4.42773">
        <ele>62</ele>
        <time>2011-04-05T16:12:30Z</time>
      </trkpt>
      <trkpt lat="48.58394" lon="-4.42774">
        <ele>62</ele>
        <time>2011-04-05T16:12:32Z</time>
      </trkpt>
      <trkpt lat="48.58393" lon="-4.42775">
        <ele>61.8</ele>
        <time>2011-04-05T16:12:32Z</time>
      </trkpt>
      <trkpt lat="48.58392" lon="-4.42777">
        <ele>61.7</ele>
        <time>2011-04-05T16:12:33Z</time>
      </trkpt>
      <trkpt lat="48.5839" lon="-4.42778">
        <ele>61.7</ele>
        <time>2011-04-05T16:12:34Z</time>
      </trkpt>
      <trkpt lat="48.58389" lon="-4.42779">
        <ele>61.6</ele>
        <time>2011-04-05T16:12:35Z</time>
      </trkpt>
      <trkpt lat="48.58388" lon="-4.4278">
        <ele>61.4</ele>
        <time>2011-04-05T16:12:37Z</time>
      </trkpt>
      <trkpt lat="48.58387" lon="-4.42781">
        <ele>61</ele>
        <time>2011-04-05T16:12:38Z</time>
      </trkpt>
      <trkpt lat="48.58385" lon="-4.42782">
        <ele>60.7</ele>
        <time>2011-04-05T16:12:38Z</time>
      </trkpt>
      <trkpt lat="48.58384" lon="-4.42783">
        <ele>60.4</ele>
        <time>2011-04-05T16:12:39Z</time>
      </trkpt>
      <trkpt lat="48.58383" lon="-4.42785">
        <ele>60.5</ele>
        <time>2011-04-05T16:12:40Z</time>
      </trkpt>
      <trkpt lat="48.58382" lon="-4.42786">
        <ele>60.5</ele>
        <time>2011-04-05T16:12:41Z</time>
      </trkpt>
      <trkpt lat="48.58381" lon="-4.42788">
        <ele>60.5</ele>
        <time>2011-04-05T16:12:42Z</time>
      </trkpt>
      <trkpt lat="48.58379" lon="-4.42789">
        <ele>60.7</ele>
        <time>2011-04-05T16:12:43Z</time>
      </trkpt>
      <trkpt lat="48.58378" lon="-4.42791">
        <ele>60.6</ele>
        <time>2011-04-05T16:12:44Z</time>
      </trkpt>
      <trkpt lat="48.58377" lon="-4.42792">
        <ele>60.6</ele>
        <time>2011-04-05T16:12:45Z</time>
      </trkpt>
      <trkpt lat="48.58375" lon="-4.42794">
        <ele>60.9</ele>
        <time>2011-04-05T16:12:47Z</time>
      </trkpt>
      <trkpt lat="48.58374" lon="-4.42795">
        <ele>60.9</ele>
        <time>2011-04-05T16:12:48Z</time>
      </trkpt>
      <trkpt lat="48.58373" lon="-4.42796">
        <ele>60.9</ele>
        <time>2011-04-05T16:12:49Z</time>
      </trkpt>
      <trkpt lat="48.58371" lon="-4.42799">
        <ele>62.3</ele>
        <time>2011-04-05T16:12:50Z</time>
      </trkpt>
      <trkpt lat="48.5837" lon="-4.42801">
        <ele>62.2</ele>
        <time>2011-04-05T16:12:51Z</time>
      </trkpt>
      <trkpt lat="48.58369" lon="-4.42802">
        <ele>62.4</ele>
        <time>2011-04-05T16:12:52Z</time>
      </trkpt>
      <trkpt lat="48.58369" lon="-4.42803">
        <ele>61.7</ele>
        <time>2011-04-05T16:12:53Z</time>
      </trkpt>
      <trkpt lat="48.58368" lon="-4.42805">
        <ele>61.8</ele>
        <time>2011-04-05T16:12:54Z</time>
      </trkpt>
      <trkpt lat="48.58367" lon="-4.42806">
        <ele>61.8</ele>
        <time>2011-04-05T16:12:55Z</time>
      </trkpt>
      <trkpt lat="48.58366" lon="-4.42808">
        <ele>62</ele>
        <time>2011-04-05T16:12:56Z</time>
      </trkpt>
      <trkpt lat="48.58364" lon="-4.4281">
        <ele>62.6</ele>
        <time>2011-04-05T16:12:57Z</time>
      </trkpt>
      <trkpt lat="48.58363" lon="-4.42812">
        <ele>63</ele>
        <time>2011-04-05T16:12:58Z</time>
      </trkpt>
      <trkpt lat="48.58362" lon="-4.42814">
        <ele>63.1</ele>
        <time>2011-04-05T16:12:59Z</time>
      </trkpt>
      <trkpt lat="48.58361" lon="-4.42815">
        <ele>63.3</ele>
        <time>2011-04-05T16:13:00Z</time>
      </trkpt>
      <trkpt lat="48.5836" lon="-4.42816">
        <ele>62.8</ele>
        <time>2011-04-05T16:13:02Z</time>
      </trkpt>
      <trkpt lat="48.58359" lon="-4.42818">
        <ele>63</ele>
        <time>2011-04-05T16:13:02Z</time>
      </trkpt>
      <trkpt lat="48.58358" lon="-4.42819">
        <ele>63.3</ele>
        <time>2011-04-05T16:13:03Z</time>
      </trkpt>
      <trkpt lat="48.58356" lon="-4.42821">
        <ele>63.4</ele>
        <time>2011-04-05T16:13:05Z</time>
      </trkpt>
      <trkpt lat="48.58355" lon="-4.42823">
        <ele>63.2</ele>
        <time>2011-04-05T16:13:06Z</time>
      </trkpt>
      <trkpt lat="48.58355" lon="-4.42824">
        <ele>62.6</ele>
        <time>2011-04-05T16:13:07Z</time>
      </trkpt>
      <trkpt lat="48.58354" lon="-4.42826">
        <ele>62.2</ele>
        <time>2011-04-05T16:13:08Z</time>
      </trkpt>
      <trkpt lat="48.58353" lon="-4.42827">
        <ele>62</ele>
        <time>2011-04-05T16:13:09Z</time>
      </trkpt>
      <trkpt lat="48.58352" lon="-4.42829">
        <ele>61.6</ele>
        <time>2011-04-05T16:13:09Z</time>
      </trkpt>
      <trkpt lat="48.58351" lon="-4.42831">
        <ele>61.5</ele>
        <time>2011-04-05T16:13:10Z</time>
      </trkpt>
      <trkpt lat="48.5835" lon="-4.42832">
        <ele>61.3</ele>
        <time>2011-04-05T16:13:11Z</time>
      </trkpt>
      <trkpt lat="48.58349" lon="-4.42835">
        <ele>61.5</ele>
        <time>2011-04-05T16:13:12Z</time>
      </trkpt>
      <trkpt lat="48.58348" lon="-4.42836">
        <ele>61.6</ele>
        <time>2011-04-05T16:13:14Z</time>
      </trkpt>
      <trkpt lat="48.58347" lon="-4.42838">
        <ele>61.6</ele>
        <time>2011-04-05T16:13:15Z</time>
      </trkpt>
      <trkpt lat="48.58346" lon="-4.42839">
        <ele>62</ele>
        <time>2011-04-05T16:13:16Z</time>
      </trkpt>
      <trkpt lat="48.58346" lon="-4.42841">
        <ele>61.9</ele>
        <time>2011-04-05T16:13:17Z</time>
      </trkpt>
      <trkpt lat="48.58345" lon="-4.42843">
        <ele>62.3</ele>
        <time>2011-04-05T16:13:18Z</time>
      </trkpt>
      <trkpt lat="48.58344" lon="-4.42846">
        <ele>62.7</ele>
        <time>2011-04-05T16:13:19Z</time>
      </trkpt>
      <trkpt lat="48.58343" lon="-4.42848">
        <ele>62.7</ele>
        <time>2011-04-05T16:13:20Z</time>
      </trkpt>
      <trkpt lat="48.58342" lon="-4.4285">
        <ele>62.7</ele>
        <time>2011-04-05T16:13:21Z</time>
      </trkpt>
      <trkpt lat="48.58341" lon="-4.42853">
        <ele>62.9</ele>
        <time>2011-04-05T16:13:22Z</time>
      </trkpt>
      <trkpt lat="48.5834" lon="-4.42854">
        <ele>62.8</ele>
        <time>2011-04-05T16:13:22Z</time>
      </trkpt>
      <trkpt lat="48.58339" lon="-4.42856">
        <ele>62.6</ele>
        <time>2011-04-05T16:13:23Z</time>
      </trkpt>
      <trkpt lat="48.58338" lon="-4.42858">
        <ele>62.5</ele>
        <time>2011-04-05T16:13:24Z</time>
      </trkpt>
      <trkpt lat="48.58338" lon="-4.42861">
        <ele>62.3</ele>
        <time>2011-04-05T16:13:25Z</time>
      </trkpt>
      <trkpt lat="48.58336" lon="-4.42863">
        <ele>62.7</ele>
        <time>2011-04-05T16:13:26Z</time>
      </trkpt>
      <trkpt lat="48.58335" lon="-4.42865">
        <ele>62.7</ele>
        <time>2011-04-05T16:13:28Z</time>
      </trkpt>
      <trkpt lat="48.58334" lon="-4.42867">
        <ele>62.3</ele>
        <time>2011-04-05T16:13:29Z</time>
      </trkpt>
      <trkpt lat="48.58333" lon="-4.42869">
        <ele>62.6</ele>
        <time>2011-04-05T16:13:29Z</time>
      </trkpt>
      <trkpt lat="48.58332" lon="-4.4287">
        <ele>62.1</ele>
        <time>2011-04-05T16:13:30Z</time>
      </trkpt>
      <trkpt lat="48.58331" lon="-4.42872">
        <ele>62.1</ele>
        <time>2011-04-05T16:13:31Z</time>
      </trkpt>
      <trkpt lat="48.58331" lon="-4.42873">
        <ele>61.8</ele>
        <time>2011-04-05T16:13:32Z</time>
      </trkpt>
      <trkpt lat="48.5833" lon="-4.42875">
        <ele>61.3</ele>
        <time>2011-04-05T16:13:33Z</time>
      </trkpt>
      <trkpt lat="48.58329" lon="-4.42876">
        <ele>60.9</ele>
        <time>2011-04-05T16:13:34Z</time>
      </trkpt>
      <trkpt lat="48.58328" lon="-4.42878">
        <ele>60.1</ele>
        <time>2011-04-05T16:13:35Z</time>
      </trkpt>
      <trkpt lat="48.58328" lon="-4.42878">
        <ele>60.1</ele>
        <time>2011-04-05T16:13:40Z</time>
      </trkpt>
      <trkpt lat="48.58322" lon="-4.42889">
        <ele>61.8</ele>
        <time>2011-04-05T16:13:42Z</time>
      </trkpt>
      <trkpt lat="48.5832" lon="-4.42891">
        <ele>62.1</ele>
        <time>2011-04-05T16:13:43Z</time>
      </trkpt>
      <trkpt lat="48.58319" lon="-4.42893">
        <ele>62.3</ele>
        <time>2011-04-05T16:13:44Z</time>
      </trkpt>
      <trkpt lat="48.58318" lon="-4.42894">
        <ele>62.2</ele>
        <time>2011-04-05T16:13:45Z</time>
      </trkpt>
      <trkpt lat="48.58317" lon="-4.42896">
        <ele>62.2</ele>
        <time>2011-04-05T16:13:46Z</time>
      </trkpt>
      <trkpt lat="48.58316" lon="-4.42898">
        <ele>62</ele>
        <time>2011-04-05T16:13:47Z</time>
      </trkpt>
      <trkpt lat="48.58315" lon="-4.42899">
        <ele>61.4</ele>
        <time>2011-04-05T16:13:48Z</time>
      </trkpt>
      <trkpt lat="48.58314" lon="-4.429">
        <ele>61.1</ele>
        <time>2011-04-05T16:13:49Z</time>
      </trkpt>
      <trkpt lat="48.58313" lon="-4.42902">
        <ele>60.5</ele>
        <time>2011-04-05T16:13:50Z</time>
      </trkpt>
      <trkpt lat="48.58313" lon="-4.42903">
        <ele>60.3</ele>
        <time>2011-04-05T16:13:50Z</time>
      </trkpt>
      <trkpt lat="48.58312" lon="-4.42904">
        <ele>59.9</ele>
        <time>2011-04-05T16:13:51Z</time>
      </trkpt>
      <trkpt lat="48.5831" lon="-4.42906">
        <ele>60.5</ele>
        <time>2011-04-05T16:13:52Z</time>
      </trkpt>
      <trkpt lat="48.58309" lon="-4.42908">
        <ele>60.7</ele>
        <time>2011-04-05T16:13:53Z</time>
      </trkpt>
      <trkpt lat="48.58308" lon="-4.4291">
        <ele>60.8</ele>
        <time>2011-04-05T16:13:54Z</time>
      </trkpt>
      <trkpt lat="48.58307" lon="-4.42911">
        <ele>60.2</ele>
        <time>2011-04-05T16:13:55Z</time>
      </trkpt>
      <trkpt lat="48.58306" lon="-4.42913">
        <ele>59.9</ele>
        <time>2011-04-05T16:13:57Z</time>
      </trkpt>
      <trkpt lat="48.58306" lon="-4.42914">
        <ele>59.4</ele>
        <time>2011-04-05T16:13:57Z</time>
      </trkpt>
      <trkpt lat="48.58305" lon="-4.42915">
        <ele>58.7</ele>
        <time>2011-04-05T16:13:59Z</time>
      </trkpt>
      <trkpt lat="48.58304" lon="-4.42916">
        <ele>58.4</ele>
        <time>2011-04-05T16:14:00Z</time>
      </trkpt>
      <trkpt lat="48.58303" lon="-4.42918">
        <ele>58.2</ele>
        <time>2011-04-05T16:14:02Z</time>
      </trkpt>
      <trkpt lat="48.58302" lon="-4.4292">
        <ele>58.2</ele>
        <time>2011-04-05T16:14:03Z</time>
      </trkpt>
      <trkpt lat="48.58301" lon="-4.42922">
        <ele>58.3</ele>
        <time>2011-04-05T16:14:05Z</time>
      </trkpt>
      <trkpt lat="48.583" lon="-4.42923">
        <ele>58.1</ele>
        <time>2011-04-05T16:14:07Z</time>
      </trkpt>
      <trkpt lat="48.58299" lon="-4.42924">
        <ele>58.2</ele>
        <time>2011-04-05T16:14:09Z</time>
      </trkpt>
      <trkpt lat="48.58299" lon="-4.42924">
        <ele>58.2</ele>
        <time>2011-04-05T16:14:10Z</time>
      </trkpt>
      <trkpt lat="48.58296" lon="-4.4293">
        <ele>58.8</ele>
        <time>2011-04-05T16:14:12Z</time>
      </trkpt>
      <trkpt lat="48.58295" lon="-4.42932">
        <ele>58.8</ele>
        <time>2011-04-05T16:14:13Z</time>
      </trkpt>
      <trkpt lat="48.58294" lon="-4.42934">
        <ele>58.5</ele>
        <time>2011-04-05T16:14:15Z</time>
      </trkpt>
      <trkpt lat="48.58293" lon="-4.42934">
        <ele>58.4</ele>
        <time>2011-04-05T16:14:16Z</time>
      </trkpt>
      <trkpt lat="48.58292" lon="-4.42937">
        <ele>59.2</ele>
        <time>2011-04-05T16:14:16Z</time>
      </trkpt>
      <trkpt lat="48.58291" lon="-4.42938">
        <ele>59.8</ele>
        <time>2011-04-05T16:14:18Z</time>
      </trkpt>
      <trkpt lat="48.5829" lon="-4.4294">
        <ele>60.1</ele>
        <time>2011-04-05T16:14:19Z</time>
      </trkpt>
      <trkpt lat="48.58289" lon="-4.42941">
        <ele>60.4</ele>
        <time>2011-04-05T16:14:20Z</time>
      </trkpt>
      <trkpt lat="48.58288" lon="-4.42943">
        <ele>61.5</ele>
        <time>2011-04-05T16:14:22Z</time>
      </trkpt>
      <trkpt lat="48.58287" lon="-4.42945">
        <ele>62.2</ele>
        <time>2011-04-05T16:14:23Z</time>
      </trkpt>
      <trkpt lat="48.58285" lon="-4.42946">
        <ele>61.3</ele>
        <time>2011-04-05T16:14:25Z</time>
      </trkpt>
      <trkpt lat="48.58284" lon="-4.42947">
        <ele>60.7</ele>
        <time>2011-04-05T16:14:25Z</time>
      </trkpt>
      <trkpt lat="48.58283" lon="-4.42949">
        <ele>60.6</ele>
        <time>2011-04-05T16:14:26Z</time>
      </trkpt>
      <trkpt lat="48.58282" lon="-4.4295">
        <ele>60.2</ele>
        <time>2011-04-05T16:14:27Z</time>
      </trkpt>
      <trkpt lat="48.58281" lon="-4.42951">
        <ele>60.2</ele>
        <time>2011-04-05T16:14:28Z</time>
      </trkpt>
      <trkpt lat="48.5828" lon="-4.42952">
        <ele>60.1</ele>
        <time>2011-04-05T16:14:29Z</time>
      </trkpt>
      <trkpt lat="48.58279" lon="-4.42953">
        <ele>59.8</ele>
        <time>2011-04-05T16:14:30Z</time>
      </trkpt>
      <trkpt lat="48.58278" lon="-4.42955">
        <ele>59.6</ele>
        <time>2011-04-05T16:14:32Z</time>
      </trkpt>
      <trkpt lat="48.58276" lon="-4.42956">
        <ele>59.3</ele>
        <time>2011-04-05T16:14:33Z</time>
      </trkpt>
      <trkpt lat="48.58275" lon="-4.42957">
        <ele>58.9</ele>
        <time>2011-04-05T16:14:35Z</time>
      </trkpt>
      <trkpt lat="48.58272" lon="-4.42962">
        <ele>59.6</ele>
        <time>2011-04-05T16:14:35Z</time>
      </trkpt>
      <trkpt lat="48.58271" lon="-4.42963">
        <ele>59.6</ele>
        <time>2011-04-05T16:14:36Z</time>
      </trkpt>
      <trkpt lat="48.58269" lon="-4.42965">
        <ele>59.8</ele>
        <time>2011-04-05T16:14:38Z</time>
      </trkpt>
      <trkpt lat="48.58268" lon="-4.42967">
        <ele>59.7</ele>
        <time>2011-04-05T16:14:39Z</time>
      </trkpt>
      <trkpt lat="48.58267" lon="-4.42968">
        <ele>59.7</ele>
        <time>2011-04-05T16:14:41Z</time>
      </trkpt>
      <trkpt lat="48.58265" lon="-4.42968">
        <ele>59.4</ele>
        <time>2011-04-05T16:14:42Z</time>
      </trkpt>
      <trkpt lat="48.58264" lon="-4.42969">
        <ele>59.8</ele>
        <time>2011-04-05T16:14:43Z</time>
      </trkpt>
      <trkpt lat="48.58262" lon="-4.42971">
        <ele>60.3</ele>
        <time>2011-04-05T16:14:44Z</time>
      </trkpt>
      <trkpt lat="48.58261" lon="-4.42972">
        <ele>60</ele>
        <time>2011-04-05T16:14:44Z</time>
      </trkpt>
      <trkpt lat="48.58261" lon="-4.42973">
        <ele>59.5</ele>
        <time>2011-04-05T16:14:45Z</time>
      </trkpt>
      <trkpt lat="48.58259" lon="-4.42975">
        <ele>59.7</ele>
        <time>2011-04-05T16:14:46Z</time>
      </trkpt>
      <trkpt lat="48.58257" lon="-4.42977">
        <ele>59.6</ele>
        <time>2011-04-05T16:14:47Z</time>
      </trkpt>
      <trkpt lat="48.58256" lon="-4.42978">
        <ele>59.4</ele>
        <time>2011-04-05T16:14:48Z</time>
      </trkpt>
      <trkpt lat="48.58254" lon="-4.42979">
        <ele>59</ele>
        <time>2011-04-05T16:14:49Z</time>
      </trkpt>
      <trkpt lat="48.58254" lon="-4.42981">
        <ele>59</ele>
        <time>2011-04-05T16:14:50Z</time>
      </trkpt>
      <trkpt lat="48.58252" lon="-4.42983">
        <ele>57.7</ele>
        <time>2011-04-05T16:14:51Z</time>
      </trkpt>
      <trkpt lat="48.58251" lon="-4.42984">
        <ele>57</ele>
        <time>2011-04-05T16:14:52Z</time>
      </trkpt>
      <trkpt lat="48.58251" lon="-4.42984">
        <ele>57</ele>
        <time>2011-04-05T16:15:02Z</time>
      </trkpt>
      <trkpt lat="48.58239" lon="-4.42995">
        <ele>54.9</ele>
        <time>2011-04-05T16:15:02Z</time>
      </trkpt>
      <trkpt lat="48.58237" lon="-4.42995">
        <ele>54.7</ele>
        <time>2011-04-05T16:15:04Z</time>
      </trkpt>
      <trkpt lat="48.58236" lon="-4.42996">
        <ele>54.5</ele>
        <time>2011-04-05T16:15:05Z</time>
      </trkpt>
      <trkpt lat="48.58233" lon="-4.42998">
        <ele>55.3</ele>
        <time>2011-04-05T16:15:07Z</time>
      </trkpt>
      <trkpt lat="48.58231" lon="-4.42998">
        <ele>55.2</ele>
        <time>2011-04-05T16:15:08Z</time>
      </trkpt>
      <trkpt lat="48.5823" lon="-4.42998">
        <ele>54.9</ele>
        <time>2011-04-05T16:15:10Z</time>
      </trkpt>
      <trkpt lat="48.58229" lon="-4.42998">
        <ele>54.9</ele>
        <time>2011-04-05T16:15:11Z</time>
      </trkpt>
      <trkpt lat="48.58228" lon="-4.42999">
        <ele>54.7</ele>
        <time>2011-04-05T16:15:12Z</time>
      </trkpt>
      <trkpt lat="48.58226" lon="-4.42999">
        <ele>54.2</ele>
        <time>2011-04-05T16:15:13Z</time>
      </trkpt>
      <trkpt lat="48.58225" lon="-4.42999">
        <ele>53.9</ele>
        <time>2011-04-05T16:15:14Z</time>
      </trkpt>
      <trkpt lat="48.58223" lon="-4.43">
        <ele>54.6</ele>
        <time>2011-04-05T16:15:15Z</time>
      </trkpt>
      <trkpt lat="48.5822" lon="-4.43001">
        <ele>55.4</ele>
        <time>2011-04-05T16:15:16Z</time>
      </trkpt>
      <trkpt lat="48.58217" lon="-4.43003">
        <ele>55.9</ele>
        <time>2011-04-05T16:15:17Z</time>
      </trkpt>
      <trkpt lat="48.58215" lon="-4.43004">
        <ele>56.2</ele>
        <time>2011-04-05T16:15:17Z</time>
      </trkpt>
      <trkpt lat="48.58214" lon="-4.43004">
        <ele>55.8</ele>
        <time>2011-04-05T16:15:18Z</time>
      </trkpt>
      <trkpt lat="48.58213" lon="-4.43005">
        <ele>55.2</ele>
        <time>2011-04-05T16:15:18Z</time>
      </trkpt>
      <trkpt lat="48.58211" lon="-4.43005">
        <ele>54.9</ele>
        <time>2011-04-05T16:15:19Z</time>
      </trkpt>
      <trkpt lat="48.5821" lon="-4.43005">
        <ele>54.8</ele>
        <time>2011-04-05T16:15:20Z</time>
      </trkpt>
      <trkpt lat="48.58208" lon="-4.43005">
        <ele>54.9</ele>
        <time>2011-04-05T16:15:20Z</time>
      </trkpt>
      <trkpt lat="48.58207" lon="-4.43005">
        <ele>55</ele>
        <time>2011-04-05T16:15:21Z</time>
      </trkpt>
      <trkpt lat="48.58205" lon="-4.43005">
        <ele>55.2</ele>
        <time>2011-04-05T16:15:22Z</time>
      </trkpt>
      <trkpt lat="48.58203" lon="-4.43006">
        <ele>55.2</ele>
        <time>2011-04-05T16:15:23Z</time>
      </trkpt>
      <trkpt lat="48.58202" lon="-4.43006">
        <ele>55.3</ele>
        <time>2011-04-05T16:15:23Z</time>
      </trkpt>
      <trkpt lat="48.582" lon="-4.43006">
        <ele>55.2</ele>
        <time>2011-04-05T16:15:24Z</time>
      </trkpt>
      <trkpt lat="48.58198" lon="-4.43006">
        <ele>55.3</ele>
        <time>2011-04-05T16:15:24Z</time>
      </trkpt>
      <trkpt lat="48.58197" lon="-4.43007">
        <ele>55.3</ele>
        <time>2011-04-05T16:15:26Z</time>
      </trkpt>
      <trkpt lat="48.58195" lon="-4.43007">
        <ele>55.7</ele>
        <time>2011-04-05T16:15:27Z</time>
      </trkpt>
      <trkpt lat="48.58193" lon="-4.43007">
        <ele>55.6</ele>
        <time>2011-04-05T16:15:28Z</time>
      </trkpt>
      <trkpt lat="48.58192" lon="-4.43008">
        <ele>55.4</ele>
        <time>2011-04-05T16:15:29Z</time>
      </trkpt>
      <trkpt lat="48.5819" lon="-4.43008">
        <ele>55.6</ele>
        <time>2011-04-05T16:15:30Z</time>
      </trkpt>
      <trkpt lat="48.58189" lon="-4.43008">
        <ele>55.8</ele>
        <time>2011-04-05T16:15:31Z</time>
      </trkpt>
      <trkpt lat="48.58187" lon="-4.43007">
        <ele>55.8</ele>
        <time>2011-04-05T16:15:32Z</time>
      </trkpt>
      <trkpt lat="48.58186" lon="-4.43006">
        <ele>55.5</ele>
        <time>2011-04-05T16:15:32Z</time>
      </trkpt>
      <trkpt lat="48.58184" lon="-4.43006">
        <ele>55.1</ele>
        <time>2011-04-05T16:15:34Z</time>
      </trkpt>
      <trkpt lat="48.58183" lon="-4.43005">
        <ele>54.5</ele>
        <time>2011-04-05T16:15:35Z</time>
      </trkpt>
      <trkpt lat="48.58181" lon="-4.43005">
        <ele>54.4</ele>
        <time>2011-04-05T16:15:37Z</time>
      </trkpt>
      <trkpt lat="48.5818" lon="-4.43006">
        <ele>54.4</ele>
        <time>2011-04-05T16:15:38Z</time>
      </trkpt>
      <trkpt lat="48.58178" lon="-4.43006">
        <ele>54.8</ele>
        <time>2011-04-05T16:15:39Z</time>
      </trkpt>
      <trkpt lat="48.58176" lon="-4.43007">
        <ele>55.2</ele>
        <time>2011-04-05T16:15:40Z</time>
      </trkpt>
      <trkpt lat="48.58175" lon="-4.43007">
        <ele>55.3</ele>
        <time>2011-04-05T16:15:40Z</time>
      </trkpt>
      <trkpt lat="48.58173" lon="-4.43008">
        <ele>56</ele>
        <time>2011-04-05T16:15:42Z</time>
      </trkpt>
      <trkpt lat="48.58172" lon="-4.43008">
        <ele>55.7</ele>
        <time>2011-04-05T16:15:43Z</time>
      </trkpt>
      <trkpt lat="48.5817" lon="-4.43008">
        <ele>55.6</ele>
        <time>2011-04-05T16:15:45Z</time>
      </trkpt>
      <trkpt lat="48.58168" lon="-4.43008">
        <ele>55.3</ele>
        <time>2011-04-05T16:15:46Z</time>
      </trkpt>
      <trkpt lat="48.58167" lon="-4.43009">
        <ele>55.4</ele>
        <time>2011-04-05T16:15:47Z</time>
      </trkpt>
      <trkpt lat="48.58165" lon="-4.43009">
        <ele>55.6</ele>
        <time>2011-04-05T16:15:48Z</time>
      </trkpt>
      <trkpt lat="48.58164" lon="-4.43009">
        <ele>55.6</ele>
        <time>2011-04-05T16:15:49Z</time>
      </trkpt>
      <trkpt lat="48.58162" lon="-4.4301">
        <ele>55.1</ele>
        <time>2011-04-05T16:15:49Z</time>
      </trkpt>
      <trkpt lat="48.58161" lon="-4.4301">
        <ele>53.8</ele>
        <time>2011-04-05T16:15:50Z</time>
      </trkpt>
      <trkpt lat="48.5816" lon="-4.4301">
        <ele>53.1</ele>
        <time>2011-04-05T16:15:50Z</time>
      </trkpt>
      <trkpt lat="48.58158" lon="-4.43011">
        <ele>53</ele>
        <time>2011-04-05T16:15:52Z</time>
      </trkpt>
      <trkpt lat="48.58157" lon="-4.43011">
        <ele>52.7</ele>
        <time>2011-04-05T16:15:53Z</time>
      </trkpt>
      <trkpt lat="48.58155" lon="-4.43012">
        <ele>52.7</ele>
        <time>2011-04-05T16:15:54Z</time>
      </trkpt>
      <trkpt lat="48.58153" lon="-4.43012">
        <ele>52.7</ele>
        <time>2011-04-05T16:15:55Z</time>
      </trkpt>
      <trkpt lat="48.58152" lon="-4.43012">
        <ele>53.1</ele>
        <time>2011-04-05T16:15:55Z</time>
      </trkpt>
      <trkpt lat="48.5815" lon="-4.43013">
        <ele>53.1</ele>
        <time>2011-04-05T16:15:57Z</time>
      </trkpt>
      <trkpt lat="48.58149" lon="-4.43013">
        <ele>52.8</ele>
        <time>2011-04-05T16:15:58Z</time>
      </trkpt>
      <trkpt lat="48.58147" lon="-4.43013">
        <ele>52.8</ele>
        <time>2011-04-05T16:16:00Z</time>
      </trkpt>
      <trkpt lat="48.58145" lon="-4.43013">
        <ele>53</ele>
        <time>2011-04-05T16:16:01Z</time>
      </trkpt>
      <trkpt lat="48.58144" lon="-4.43014">
        <ele>53.2</ele>
        <time>2011-04-05T16:16:02Z</time>
      </trkpt>
      <trkpt lat="48.58142" lon="-4.43014">
        <ele>53.4</ele>
        <time>2011-04-05T16:16:03Z</time>
      </trkpt>
      <trkpt lat="48.58141" lon="-4.43015">
        <ele>53.9</ele>
        <time>2011-04-05T16:16:04Z</time>
      </trkpt>
      <trkpt lat="48.58139" lon="-4.43015">
        <ele>54</ele>
        <time>2011-04-05T16:16:04Z</time>
      </trkpt>
      <trkpt lat="48.58137" lon="-4.43016">
        <ele>54</ele>
        <time>2011-04-05T16:16:05Z</time>
      </trkpt>
      <trkpt lat="48.58136" lon="-4.43016">
        <ele>53.8</ele>
        <time>2011-04-05T16:16:05Z</time>
      </trkpt>
      <trkpt lat="48.58134" lon="-4.43017">
        <ele>53.6</ele>
        <time>2011-04-05T16:16:07Z</time>
      </trkpt>
      <trkpt lat="48.58133" lon="-4.43017">
        <ele>53.8</ele>
        <time>2011-04-05T16:16:08Z</time>
      </trkpt>
      <trkpt lat="48.58131" lon="-4.43018">
        <ele>53</ele>
        <time>2011-04-05T16:16:09Z</time>
      </trkpt>
      <trkpt lat="48.5813" lon="-4.43018">
        <ele>53</ele>
        <time>2011-04-05T16:16:10Z</time>
      </trkpt>
      <trkpt lat="48.58128" lon="-4.43018">
        <ele>53.1</ele>
        <time>2011-04-05T16:16:10Z</time>
      </trkpt>
      <trkpt lat="48.58127" lon="-4.43018">
        <ele>52.2</ele>
        <time>2011-04-05T16:16:12Z</time>
      </trkpt>
      <trkpt lat="48.58125" lon="-4.43018">
        <ele>52</ele>
        <time>2011-04-05T16:16:13Z</time>
      </trkpt>
      <trkpt lat="48.58124" lon="-4.43019">
        <ele>52.1</ele>
        <time>2011-04-05T16:16:15Z</time>
      </trkpt>
      <trkpt lat="48.58122" lon="-4.43019">
        <ele>52.1</ele>
        <time>2011-04-05T16:16:16Z</time>
      </trkpt>
      <trkpt lat="48.58121" lon="-4.4302">
        <ele>52.4</ele>
        <time>2011-04-05T16:16:17Z</time>
      </trkpt>
      <trkpt lat="48.5812" lon="-4.4302">
        <ele>51.7</ele>
        <time>2011-04-05T16:16:18Z</time>
      </trkpt>
      <trkpt lat="48.58118" lon="-4.4302">
        <ele>50.8</ele>
        <time>2011-04-05T16:16:19Z</time>
      </trkpt>
      <trkpt lat="48.58117" lon="-4.4302">
        <ele>49.6</ele>
        <time>2011-04-05T16:16:19Z</time>
      </trkpt>
      <trkpt lat="48.58116" lon="-4.43021">
        <ele>49.6</ele>
        <time>2011-04-05T16:16:20Z</time>
      </trkpt>
      <trkpt lat="48.58114" lon="-4.43022">
        <ele>49.4</ele>
        <time>2011-04-05T16:16:21Z</time>
      </trkpt>
      <trkpt lat="48.58113" lon="-4.43022">
        <ele>49.1</ele>
        <time>2011-04-05T16:16:22Z</time>
      </trkpt>
      <trkpt lat="48.58111" lon="-4.43022">
        <ele>48.8</ele>
        <time>2011-04-05T16:16:23Z</time>
      </trkpt>
      <trkpt lat="48.5811" lon="-4.43022">
        <ele>48.3</ele>
        <time>2011-04-05T16:16:24Z</time>
      </trkpt>
      <trkpt lat="48.58109" lon="-4.43023">
        <ele>48.3</ele>
        <time>2011-04-05T16:16:25Z</time>
      </trkpt>
      <trkpt lat="48.58107" lon="-4.43023">
        <ele>48.9</ele>
        <time>2011-04-05T16:16:26Z</time>
      </trkpt>
      <trkpt lat="48.58106" lon="-4.43024">
        <ele>48.9</ele>
        <time>2011-04-05T16:16:27Z</time>
      </trkpt>
      <trkpt lat="48.58104" lon="-4.43025">
        <ele>49.2</ele>
        <time>2011-04-05T16:16:27Z</time>
      </trkpt>
      <trkpt lat="48.58103" lon="-4.43025">
        <ele>49.3</ele>
        <time>2011-04-05T16:16:28Z</time>
      </trkpt>
      <trkpt lat="48.58101" lon="-4.43026">
        <ele>49.9</ele>
        <time>2011-04-05T16:16:29Z</time>
      </trkpt>
      <trkpt lat="48.58099" lon="-4.43026">
        <ele>50.6</ele>
        <time>2011-04-05T16:16:30Z</time>
      </trkpt>
      <trkpt lat="48.58098" lon="-4.43027">
        <ele>50.8</ele>
        <time>2011-04-05T16:16:32Z</time>
      </trkpt>
      <trkpt lat="48.58096" lon="-4.43027">
        <ele>51.1</ele>
        <time>2011-04-05T16:16:33Z</time>
      </trkpt>
      <trkpt lat="48.58095" lon="-4.43027">
        <ele>51.5</ele>
        <time>2011-04-05T16:16:34Z</time>
      </trkpt>
      <trkpt lat="48.58093" lon="-4.43028">
        <ele>51.6</ele>
        <time>2011-04-05T16:16:35Z</time>
      </trkpt>
      <trkpt lat="48.58092" lon="-4.43028">
        <ele>51.8</ele>
        <time>2011-04-05T16:16:35Z</time>
      </trkpt>
      <trkpt lat="48.5809" lon="-4.43028">
        <ele>52.1</ele>
        <time>2011-04-05T16:16:37Z</time>
      </trkpt>
      <trkpt lat="48.58089" lon="-4.43029">
        <ele>52.4</ele>
        <time>2011-04-05T16:16:38Z</time>
      </trkpt>
      <trkpt lat="48.58087" lon="-4.43029">
        <ele>52.6</ele>
        <time>2011-04-05T16:16:39Z</time>
      </trkpt>
      <trkpt lat="48.58086" lon="-4.43029">
        <ele>52.7</ele>
        <time>2011-04-05T16:16:40Z</time>
      </trkpt>
      <trkpt lat="48.58084" lon="-4.4303">
        <ele>52.8</ele>
        <time>2011-04-05T16:16:41Z</time>
      </trkpt>
      <trkpt lat="48.58083" lon="-4.4303">
        <ele>52.9</ele>
        <time>2011-04-05T16:16:43Z</time>
      </trkpt>
      <trkpt lat="48.58081" lon="-4.43031">
        <ele>53.3</ele>
        <time>2011-04-05T16:16:43Z</time>
      </trkpt>
      <trkpt lat="48.5808" lon="-4.43031">
        <ele>53.1</ele>
        <time>2011-04-05T16:16:44Z</time>
      </trkpt>
      <trkpt lat="48.58079" lon="-4.43031">
        <ele>53.3</ele>
        <time>2011-04-05T16:16:45Z</time>
      </trkpt>
      <trkpt lat="48.58077" lon="-4.43032">
        <ele>53.5</ele>
        <time>2011-04-05T16:16:45Z</time>
      </trkpt>
      <trkpt lat="48.58076" lon="-4.43032">
        <ele>53.6</ele>
        <time>2011-04-05T16:16:47Z</time>
      </trkpt>
      <trkpt lat="48.58074" lon="-4.43033">
        <ele>53.6</ele>
        <time>2011-04-05T16:16:48Z</time>
      </trkpt>
      <trkpt lat="48.58073" lon="-4.43033">
        <ele>53.6</ele>
        <time>2011-04-05T16:16:50Z</time>
      </trkpt>
      <trkpt lat="48.58071" lon="-4.43033">
        <ele>53.6</ele>
        <time>2011-04-05T16:16:51Z</time>
      </trkpt>
      <trkpt lat="48.58068" lon="-4.43034">
        <ele>54.4</ele>
        <time>2011-04-05T16:16:52Z</time>
      </trkpt>
      <trkpt lat="48.58067" lon="-4.43035">
        <ele>54.7</ele>
        <time>2011-04-05T16:16:53Z</time>
      </trkpt>
      <trkpt lat="48.58066" lon="-4.43035">
        <ele>54.5</ele>
        <time>2011-04-05T16:16:53Z</time>
      </trkpt>
      <trkpt lat="48.58064" lon="-4.43035">
        <ele>54.5</ele>
        <time>2011-04-05T16:16:54Z</time>
      </trkpt>
      <trkpt lat="48.58062" lon="-4.43035">
        <ele>54.3</ele>
        <time>2011-04-05T16:16:55Z</time>
      </trkpt>
      <trkpt lat="48.58061" lon="-4.43035">
        <ele>54.5</ele>
        <time>2011-04-05T16:16:56Z</time>
      </trkpt>
      <trkpt lat="48.58059" lon="-4.43036">
        <ele>54.2</ele>
        <time>2011-04-05T16:16:58Z</time>
      </trkpt>
      <trkpt lat="48.58057" lon="-4.43036">
        <ele>54.2</ele>
        <time>2011-04-05T16:16:59Z</time>
      </trkpt>
      <trkpt lat="48.58056" lon="-4.43036">
        <ele>54.4</ele>
        <time>2011-04-05T16:17:00Z</time>
      </trkpt>
      <trkpt lat="48.58054" lon="-4.43036">
        <ele>54.7</ele>
        <time>2011-04-05T16:17:02Z</time>
      </trkpt>
      <trkpt lat="48.58053" lon="-4.43037">
        <ele>55</ele>
        <time>2011-04-05T16:17:02Z</time>
      </trkpt>
      <trkpt lat="48.58051" lon="-4.43038">
        <ele>55.9</ele>
        <time>2011-04-05T16:17:03Z</time>
      </trkpt>
      <trkpt lat="48.58049" lon="-4.4304">
        <ele>56.8</ele>
        <time>2011-04-05T16:17:05Z</time>
      </trkpt>
      <trkpt lat="48.58047" lon="-4.43042">
        <ele>57.4</ele>
        <time>2011-04-05T16:17:06Z</time>
      </trkpt>
      <trkpt lat="48.58045" lon="-4.43043">
        <ele>58.1</ele>
        <time>2011-04-05T16:17:07Z</time>
      </trkpt>
      <trkpt lat="48.58044" lon="-4.43044">
        <ele>58.1</ele>
        <time>2011-04-05T16:17:08Z</time>
      </trkpt>
      <trkpt lat="48.58042" lon="-4.43044">
        <ele>58.6</ele>
        <time>2011-04-05T16:17:09Z</time>
      </trkpt>
      <trkpt lat="48.5804" lon="-4.43045">
        <ele>59.4</ele>
        <time>2011-04-05T16:17:10Z</time>
      </trkpt>
      <trkpt lat="48.58038" lon="-4.43045">
        <ele>59.3</ele>
        <time>2011-04-05T16:17:11Z</time>
      </trkpt>
      <trkpt lat="48.58037" lon="-4.43046">
        <ele>59.3</ele>
        <time>2011-04-05T16:17:11Z</time>
      </trkpt>
      <trkpt lat="48.58035" lon="-4.43047">
        <ele>59.5</ele>
        <time>2011-04-05T16:17:12Z</time>
      </trkpt>
      <trkpt lat="48.58034" lon="-4.43047">
        <ele>59.4</ele>
        <time>2011-04-05T16:17:13Z</time>
      </trkpt>
      <trkpt lat="48.58032" lon="-4.43048">
        <ele>59.8</ele>
        <time>2011-04-05T16:17:15Z</time>
      </trkpt>
      <trkpt lat="48.58032" lon="-4.43048">
        <ele>59.8</ele>
        <time>2011-04-05T16:17:26Z</time>
      </trkpt>
      <trkpt lat="48.58011" lon="-4.43054">
        <ele>58.7</ele>
        <time>2011-04-05T16:17:27Z</time>
      </trkpt>
      <trkpt lat="48.58009" lon="-4.43055">
        <ele>59</ele>
        <time>2011-04-05T16:17:28Z</time>
      </trkpt>
      <trkpt lat="48.58008" lon="-4.43055">
        <ele>58.7</ele>
        <time>2011-04-05T16:17:29Z</time>
      </trkpt>
      <trkpt lat="48.58006" lon="-4.43056">
        <ele>59.4</ele>
        <time>2011-04-05T16:17:30Z</time>
      </trkpt>
      <trkpt lat="48.58005" lon="-4.43056">
        <ele>59.3</ele>
        <time>2011-04-05T16:17:31Z</time>
      </trkpt>
      <trkpt lat="48.58005" lon="-4.43056">
        <ele>59.3</ele>
        <time>2011-04-05T16:17:38Z</time>
      </trkpt>
      <trkpt lat="48.57992" lon="-4.4306">
        <ele>56.7</ele>
        <time>2011-04-05T16:17:40Z</time>
      </trkpt>
      <trkpt lat="48.5799" lon="-4.4306">
        <ele>56.7</ele>
        <time>2011-04-05T16:17:40Z</time>
      </trkpt>
      <trkpt lat="48.57989" lon="-4.43061">
        <ele>56.9</ele>
        <time>2011-04-05T16:17:41Z</time>
      </trkpt>
      <trkpt lat="48.57988" lon="-4.43061">
        <ele>56.6</ele>
        <time>2011-04-05T16:17:43Z</time>
      </trkpt>
      <trkpt lat="48.57986" lon="-4.43062">
        <ele>56.6</ele>
        <time>2011-04-05T16:17:44Z</time>
      </trkpt>
      <trkpt lat="48.57984" lon="-4.43063">
        <ele>57.2</ele>
        <time>2011-04-05T16:17:45Z</time>
      </trkpt>
      <trkpt lat="48.57983" lon="-4.43063">
        <ele>56.9</ele>
        <time>2011-04-05T16:17:46Z</time>
      </trkpt>
      <trkpt lat="48.57981" lon="-4.43063">
        <ele>56.3</ele>
        <time>2011-04-05T16:17:47Z</time>
      </trkpt>
      <trkpt lat="48.5798" lon="-4.43063">
        <ele>56.2</ele>
        <time>2011-04-05T16:17:49Z</time>
      </trkpt>
      <trkpt lat="48.57979" lon="-4.43063">
        <ele>55.7</ele>
        <time>2011-04-05T16:17:49Z</time>
      </trkpt>
      <trkpt lat="48.57978" lon="-4.43063">
        <ele>55.5</ele>
        <time>2011-04-05T16:17:50Z</time>
      </trkpt>
      <trkpt lat="48.57976" lon="-4.43064">
        <ele>55.5</ele>
        <time>2011-04-05T16:17:50Z</time>
      </trkpt>
      <trkpt lat="48.57974" lon="-4.43064">
        <ele>55.6</ele>
        <time>2011-04-05T16:17:52Z</time>
      </trkpt>
      <trkpt lat="48.57973" lon="-4.43064">
        <ele>55.5</ele>
        <time>2011-04-05T16:17:53Z</time>
      </trkpt>
      <trkpt lat="48.57971" lon="-4.43065">
        <ele>55.2</ele>
        <time>2011-04-05T16:17:54Z</time>
      </trkpt>
      <trkpt lat="48.57969" lon="-4.43065">
        <ele>55.2</ele>
        <time>2011-04-05T16:17:56Z</time>
      </trkpt>
      <trkpt lat="48.57968" lon="-4.43065">
        <ele>54.9</ele>
        <time>2011-04-05T16:17:57Z</time>
      </trkpt>
      <trkpt lat="48.57966" lon="-4.43066">
        <ele>54.8</ele>
        <time>2011-04-05T16:17:59Z</time>
      </trkpt>
      <trkpt lat="48.57965" lon="-4.43066">
        <ele>54.7</ele>
        <time>2011-04-05T16:17:59Z</time>
      </trkpt>
      <trkpt lat="48.57964" lon="-4.43066">
        <ele>54.3</ele>
        <time>2011-04-05T16:18:00Z</time>
      </trkpt>
      <trkpt lat="48.57962" lon="-4.43067">
        <ele>54.2</ele>
        <time>2011-04-05T16:18:01Z</time>
      </trkpt>
      <trkpt lat="48.57961" lon="-4.43067">
        <ele>54</ele>
        <time>2011-04-05T16:18:02Z</time>
      </trkpt>
      <trkpt lat="48.57959" lon="-4.43067">
        <ele>53.6</ele>
        <time>2011-04-05T16:18:03Z</time>
      </trkpt>
      <trkpt lat="48.57958" lon="-4.43067">
        <ele>53.5</ele>
        <time>2011-04-05T16:18:04Z</time>
      </trkpt>
      <trkpt lat="48.57956" lon="-4.43067">
        <ele>53.4</ele>
        <time>2011-04-05T16:18:05Z</time>
      </trkpt>
      <trkpt lat="48.57955" lon="-4.43068">
        <ele>53.4</ele>
        <time>2011-04-05T16:18:05Z</time>
      </trkpt>
      <trkpt lat="48.57953" lon="-4.43069">
        <ele>53.9</ele>
        <time>2011-04-05T16:18:06Z</time>
      </trkpt>
      <trkpt lat="48.57951" lon="-4.43069">
        <ele>53.9</ele>
        <time>2011-04-05T16:18:07Z</time>
      </trkpt>
      <trkpt lat="48.57948" lon="-4.4307">
        <ele>53.6</ele>
        <time>2011-04-05T16:18:08Z</time>
      </trkpt>
      <trkpt lat="48.57947" lon="-4.4307">
        <ele>53.6</ele>
        <time>2011-04-05T16:18:09Z</time>
      </trkpt>
      <trkpt lat="48.57945" lon="-4.4307">
        <ele>53.6</ele>
        <time>2011-04-05T16:18:09Z</time>
      </trkpt>
      <trkpt lat="48.57944" lon="-4.4307">
        <ele>53.6</ele>
        <time>2011-04-05T16:18:10Z</time>
      </trkpt>
      <trkpt lat="48.57942" lon="-4.43071">
        <ele>53.6</ele>
        <time>2011-04-05T16:18:11Z</time>
      </trkpt>
      <trkpt lat="48.57941" lon="-4.43071">
        <ele>53.6</ele>
        <time>2011-04-05T16:18:13Z</time>
      </trkpt>
      <trkpt lat="48.57939" lon="-4.43071">
        <ele>53.7</ele>
        <time>2011-04-05T16:18:14Z</time>
      </trkpt>
      <trkpt lat="48.57937" lon="-4.43072">
        <ele>53.6</ele>
        <time>2011-04-05T16:18:15Z</time>
      </trkpt>
      <trkpt lat="48.57936" lon="-4.43072">
        <ele>53.5</ele>
        <time>2011-04-05T16:18:16Z</time>
      </trkpt>
      <trkpt lat="48.57934" lon="-4.43072">
        <ele>53.4</ele>
        <time>2011-04-05T16:18:16Z</time>
      </trkpt>
      <trkpt lat="48.57933" lon="-4.43073">
        <ele>53.4</ele>
        <time>2011-04-05T16:18:17Z</time>
      </trkpt>
      <trkpt lat="48.57931" lon="-4.43073">
        <ele>53.9</ele>
        <time>2011-04-05T16:18:18Z</time>
      </trkpt>
      <trkpt lat="48.57929" lon="-4.43073">
        <ele>54</ele>
        <time>2011-04-05T16:18:19Z</time>
      </trkpt>
      <trkpt lat="48.57928" lon="-4.43074">
        <ele>53.6</ele>
        <time>2011-04-05T16:18:20Z</time>
      </trkpt>
      <trkpt lat="48.57926" lon="-4.43074">
        <ele>53.5</ele>
        <time>2011-04-05T16:18:21Z</time>
      </trkpt>
      <trkpt lat="48.57924" lon="-4.43075">
        <ele>53.6</ele>
        <time>2011-04-05T16:18:23Z</time>
      </trkpt>
      <trkpt lat="48.57923" lon="-4.43075">
        <ele>53.9</ele>
        <time>2011-04-05T16:18:24Z</time>
      </trkpt>
      <trkpt lat="48.57921" lon="-4.43076">
        <ele>53.8</ele>
        <time>2011-04-05T16:18:25Z</time>
      </trkpt>
      <trkpt lat="48.5792" lon="-4.43076">
        <ele>53.5</ele>
        <time>2011-04-05T16:18:25Z</time>
      </trkpt>
      <trkpt lat="48.57918" lon="-4.43076">
        <ele>53.4</ele>
        <time>2011-04-05T16:18:26Z</time>
      </trkpt>
      <trkpt lat="48.57917" lon="-4.43077">
        <ele>52.8</ele>
        <time>2011-04-05T16:18:27Z</time>
      </trkpt>
      <trkpt lat="48.57916" lon="-4.43077">
        <ele>52.8</ele>
        <time>2011-04-05T16:18:28Z</time>
      </trkpt>
      <trkpt lat="48.57914" lon="-4.43078">
        <ele>52.7</ele>
        <time>2011-04-05T16:18:29Z</time>
      </trkpt>
      <trkpt lat="48.57912" lon="-4.43078">
        <ele>52.7</ele>
        <time>2011-04-05T16:18:30Z</time>
      </trkpt>
      <trkpt lat="48.57911" lon="-4.43078">
        <ele>52.6</ele>
        <time>2011-04-05T16:18:31Z</time>
      </trkpt>
      <trkpt lat="48.57909" lon="-4.43078">
        <ele>52.7</ele>
        <time>2011-04-05T16:18:33Z</time>
      </trkpt>
      <trkpt lat="48.57908" lon="-4.43078">
        <ele>52.7</ele>
        <time>2011-04-05T16:18:33Z</time>
      </trkpt>
      <trkpt lat="48.57906" lon="-4.43078">
        <ele>52.7</ele>
        <time>2011-04-05T16:18:34Z</time>
      </trkpt>
      <trkpt lat="48.57904" lon="-4.43079">
        <ele>53.7</ele>
        <time>2011-04-05T16:18:34Z</time>
      </trkpt>
      <trkpt lat="48.57903" lon="-4.43079">
        <ele>53.8</ele>
        <time>2011-04-05T16:18:36Z</time>
      </trkpt>
      <trkpt lat="48.57901" lon="-4.4308">
        <ele>53.5</ele>
        <time>2011-04-05T16:18:37Z</time>
      </trkpt>
      <trkpt lat="48.579" lon="-4.4308">
        <ele>53.5</ele>
        <time>2011-04-05T16:18:38Z</time>
      </trkpt>
      <trkpt lat="48.57898" lon="-4.4308">
        <ele>53.2</ele>
        <time>2011-04-05T16:18:39Z</time>
      </trkpt>
      <trkpt lat="48.57897" lon="-4.43081">
        <ele>53.3</ele>
        <time>2011-04-05T16:18:40Z</time>
      </trkpt>
      <trkpt lat="48.57895" lon="-4.43081">
        <ele>53.4</ele>
        <time>2011-04-05T16:18:41Z</time>
      </trkpt>
      <trkpt lat="48.57893" lon="-4.43081">
        <ele>53.6</ele>
        <time>2011-04-05T16:18:41Z</time>
      </trkpt>
      <trkpt lat="48.57892" lon="-4.43082">
        <ele>54.3</ele>
        <time>2011-04-05T16:18:42Z</time>
      </trkpt>
      <trkpt lat="48.5789" lon="-4.43083">
        <ele>54.6</ele>
        <time>2011-04-05T16:18:42Z</time>
      </trkpt>
      <trkpt lat="48.57888" lon="-4.43083">
        <ele>54.8</ele>
        <time>2011-04-05T16:18:43Z</time>
      </trkpt>
      <trkpt lat="48.57887" lon="-4.43083">
        <ele>54.8</ele>
        <time>2011-04-05T16:18:44Z</time>
      </trkpt>
      <trkpt lat="48.57885" lon="-4.43084">
        <ele>54.9</ele>
        <time>2011-04-05T16:18:45Z</time>
      </trkpt>
      <trkpt lat="48.57884" lon="-4.43084">
        <ele>55.1</ele>
        <time>2011-04-05T16:18:46Z</time>
      </trkpt>
      <trkpt lat="48.57883" lon="-4.43084">
        <ele>55.2</ele>
        <time>2011-04-05T16:18:47Z</time>
      </trkpt>
      <trkpt lat="48.57881" lon="-4.43084">
        <ele>55.1</ele>
        <time>2011-04-05T16:18:48Z</time>
      </trkpt>
      <trkpt lat="48.5788" lon="-4.43085">
        <ele>55.1</ele>
        <time>2011-04-05T16:18:49Z</time>
      </trkpt>
      <trkpt lat="48.57878" lon="-4.43085">
        <ele>55.1</ele>
        <time>2011-04-05T16:18:49Z</time>
      </trkpt>
      <trkpt lat="48.57877" lon="-4.43085">
        <ele>54.9</ele>
        <time>2011-04-05T16:18:50Z</time>
      </trkpt>
      <trkpt lat="48.57875" lon="-4.43085">
        <ele>54.7</ele>
        <time>2011-04-05T16:18:51Z</time>
      </trkpt>
      <trkpt lat="48.57874" lon="-4.43086">
        <ele>54.7</ele>
        <time>2011-04-05T16:18:52Z</time>
      </trkpt>
      <trkpt lat="48.57872" lon="-4.43086">
        <ele>54.5</ele>
        <time>2011-04-05T16:18:54Z</time>
      </trkpt>
      <trkpt lat="48.57871" lon="-4.43086">
        <ele>54</ele>
        <time>2011-04-05T16:18:55Z</time>
      </trkpt>
      <trkpt lat="48.57869" lon="-4.43086">
        <ele>54</ele>
        <time>2011-04-05T16:18:56Z</time>
      </trkpt>
      <trkpt lat="48.57868" lon="-4.43087">
        <ele>53.9</ele>
        <time>2011-04-05T16:18:57Z</time>
      </trkpt>
      <trkpt lat="48.57866" lon="-4.43087">
        <ele>53.9</ele>
        <time>2011-04-05T16:18:58Z</time>
      </trkpt>
      <trkpt lat="48.57865" lon="-4.43087">
        <ele>54.1</ele>
        <time>2011-04-05T16:18:59Z</time>
      </trkpt>
      <trkpt lat="48.57863" lon="-4.43088">
        <ele>54.6</ele>
        <time>2011-04-05T16:19:00Z</time>
      </trkpt>
      <trkpt lat="48.57862" lon="-4.43088">
        <ele>54.6</ele>
        <time>2011-04-05T16:19:01Z</time>
      </trkpt>
      <trkpt lat="48.5786" lon="-4.43089">
        <ele>54.7</ele>
        <time>2011-04-05T16:19:02Z</time>
      </trkpt>
      <trkpt lat="48.57859" lon="-4.43089">
        <ele>54.3</ele>
        <time>2011-04-05T16:19:03Z</time>
      </trkpt>
      <trkpt lat="48.57857" lon="-4.43089">
        <ele>54.4</ele>
        <time>2011-04-05T16:19:04Z</time>
      </trkpt>
      <trkpt lat="48.57856" lon="-4.43089">
        <ele>54.5</ele>
        <time>2011-04-05T16:19:05Z</time>
      </trkpt>
      <trkpt lat="48.57854" lon="-4.4309">
        <ele>55</ele>
        <time>2011-04-05T16:19:05Z</time>
      </trkpt>
      <trkpt lat="48.57853" lon="-4.4309">
        <ele>55</ele>
        <time>2011-04-05T16:19:06Z</time>
      </trkpt>
      <trkpt lat="48.57851" lon="-4.43091">
        <ele>55.1</ele>
        <time>2011-04-05T16:19:07Z</time>
      </trkpt>
      <trkpt lat="48.57849" lon="-4.43091">
        <ele>55.1</ele>
        <time>2011-04-05T16:19:08Z</time>
      </trkpt>
      <trkpt lat="48.57848" lon="-4.43091">
        <ele>55.1</ele>
        <time>2011-04-05T16:19:09Z</time>
      </trkpt>
      <trkpt lat="48.57846" lon="-4.43092">
        <ele>54.8</ele>
        <time>2011-04-05T16:19:10Z</time>
      </trkpt>
      <trkpt lat="48.57845" lon="-4.43092">
        <ele>54.9</ele>
        <time>2011-04-05T16:19:11Z</time>
      </trkpt>
      <trkpt lat="48.57844" lon="-4.43092">
        <ele>54.9</ele>
        <time>2011-04-05T16:19:12Z</time>
      </trkpt>
      <trkpt lat="48.57842" lon="-4.43092">
        <ele>54.7</ele>
        <time>2011-04-05T16:19:12Z</time>
      </trkpt>
      <trkpt lat="48.57841" lon="-4.43093">
        <ele>54.8</ele>
        <time>2011-04-05T16:19:13Z</time>
      </trkpt>
      <trkpt lat="48.57839" lon="-4.43093">
        <ele>54.8</ele>
        <time>2011-04-05T16:19:13Z</time>
      </trkpt>
      <trkpt lat="48.57838" lon="-4.43094">
        <ele>54.9</ele>
        <time>2011-04-05T16:19:14Z</time>
      </trkpt>
      <trkpt lat="48.57836" lon="-4.43094">
        <ele>55</ele>
        <time>2011-04-05T16:19:15Z</time>
      </trkpt>
      <trkpt lat="48.57835" lon="-4.43095">
        <ele>54.8</ele>
        <time>2011-04-05T16:19:16Z</time>
      </trkpt>
      <trkpt lat="48.57833" lon="-4.43095">
        <ele>54.8</ele>
        <time>2011-04-05T16:19:18Z</time>
      </trkpt>
      <trkpt lat="48.57832" lon="-4.43096">
        <ele>54.7</ele>
        <time>2011-04-05T16:19:19Z</time>
      </trkpt>
      <trkpt lat="48.5783" lon="-4.43096">
        <ele>55.3</ele>
        <time>2011-04-05T16:19:20Z</time>
      </trkpt>
      <trkpt lat="48.57829" lon="-4.43097">
        <ele>55.2</ele>
        <time>2011-04-05T16:19:21Z</time>
      </trkpt>
      <trkpt lat="48.57827" lon="-4.43097">
        <ele>55</ele>
        <time>2011-04-05T16:19:22Z</time>
      </trkpt>
      <trkpt lat="48.57826" lon="-4.43097">
        <ele>54.8</ele>
        <time>2011-04-05T16:19:23Z</time>
      </trkpt>
      <trkpt lat="48.57825" lon="-4.43098">
        <ele>54.5</ele>
        <time>2011-04-05T16:19:24Z</time>
      </trkpt>
      <trkpt lat="48.57823" lon="-4.43098">
        <ele>54.5</ele>
        <time>2011-04-05T16:19:25Z</time>
      </trkpt>
      <trkpt lat="48.57822" lon="-4.43099">
        <ele>54.3</ele>
        <time>2011-04-05T16:19:26Z</time>
      </trkpt>
      <trkpt lat="48.5782" lon="-4.43099">
        <ele>54.3</ele>
        <time>2011-04-05T16:19:28Z</time>
      </trkpt>
      <trkpt lat="48.57819" lon="-4.431">
        <ele>54.2</ele>
        <time>2011-04-05T16:19:29Z</time>
      </trkpt>
      <trkpt lat="48.57818" lon="-4.43101">
        <ele>54.5</ele>
        <time>2011-04-05T16:19:30Z</time>
      </trkpt>
      <trkpt lat="48.57816" lon="-4.43101">
        <ele>54.4</ele>
        <time>2011-04-05T16:19:31Z</time>
      </trkpt>
      <trkpt lat="48.57815" lon="-4.43102">
        <ele>54.3</ele>
        <time>2011-04-05T16:19:32Z</time>
      </trkpt>
      <trkpt lat="48.57814" lon="-4.43103">
        <ele>54</ele>
        <time>2011-04-05T16:19:33Z</time>
      </trkpt>
      <trkpt lat="48.57812" lon="-4.43104">
        <ele>53.9</ele>
        <time>2011-04-05T16:19:34Z</time>
      </trkpt>
      <trkpt lat="48.57811" lon="-4.43105">
        <ele>54.1</ele>
        <time>2011-04-05T16:19:35Z</time>
      </trkpt>
      <trkpt lat="48.5781" lon="-4.43106">
        <ele>54.5</ele>
        <time>2011-04-05T16:19:36Z</time>
      </trkpt>
      <trkpt lat="48.57808" lon="-4.43107">
        <ele>54.7</ele>
        <time>2011-04-05T16:19:37Z</time>
      </trkpt>
      <trkpt lat="48.57807" lon="-4.43108">
        <ele>54.8</ele>
        <time>2011-04-05T16:19:38Z</time>
      </trkpt>
      <trkpt lat="48.57806" lon="-4.4311">
        <ele>55.1</ele>
        <time>2011-04-05T16:19:39Z</time>
      </trkpt>
      <trkpt lat="48.57805" lon="-4.43111">
        <ele>55.2</ele>
        <time>2011-04-05T16:19:39Z</time>
      </trkpt>
      <trkpt lat="48.57803" lon="-4.43112">
        <ele>55.1</ele>
        <time>2011-04-05T16:19:40Z</time>
      </trkpt>
      <trkpt lat="48.57802" lon="-4.43114">
        <ele>55.2</ele>
        <time>2011-04-05T16:19:40Z</time>
      </trkpt>
      <trkpt lat="48.57801" lon="-4.43115">
        <ele>55</ele>
        <time>2011-04-05T16:19:42Z</time>
      </trkpt>
      <trkpt lat="48.57799" lon="-4.43117">
        <ele>54.8</ele>
        <time>2011-04-05T16:19:43Z</time>
      </trkpt>
      <trkpt lat="48.57798" lon="-4.43118">
        <ele>54.9</ele>
        <time>2011-04-05T16:19:44Z</time>
      </trkpt>
      <trkpt lat="48.57797" lon="-4.4312">
        <ele>55.2</ele>
        <time>2011-04-05T16:19:45Z</time>
      </trkpt>
      <trkpt lat="48.57795" lon="-4.43122">
        <ele>55.5</ele>
        <time>2011-04-05T16:19:46Z</time>
      </trkpt>
      <trkpt lat="48.57793" lon="-4.43123">
        <ele>55.1</ele>
        <time>2011-04-05T16:19:46Z</time>
      </trkpt>
      <trkpt lat="48.57792" lon="-4.43125">
        <ele>55.2</ele>
        <time>2011-04-05T16:19:47Z</time>
      </trkpt>
      <trkpt lat="48.57791" lon="-4.43127">
        <ele>55.3</ele>
        <time>2011-04-05T16:19:48Z</time>
      </trkpt>
      <trkpt lat="48.5779" lon="-4.43128">
        <ele>55.2</ele>
        <time>2011-04-05T16:19:49Z</time>
      </trkpt>
      <trkpt lat="48.57789" lon="-4.4313">
        <ele>55.5</ele>
        <time>2011-04-05T16:19:50Z</time>
      </trkpt>
      <trkpt lat="48.57787" lon="-4.43133">
        <ele>55.8</ele>
        <time>2011-04-05T16:19:51Z</time>
      </trkpt>
      <trkpt lat="48.57786" lon="-4.43135">
        <ele>55.8</ele>
        <time>2011-04-05T16:19:52Z</time>
      </trkpt>
      <trkpt lat="48.57784" lon="-4.43138">
        <ele>56.2</ele>
        <time>2011-04-05T16:19:53Z</time>
      </trkpt>
      <trkpt lat="48.57783" lon="-4.4314">
        <ele>56</ele>
        <time>2011-04-05T16:19:54Z</time>
      </trkpt>
      <trkpt lat="48.57782" lon="-4.43142">
        <ele>55.8</ele>
        <time>2011-04-05T16:19:55Z</time>
      </trkpt>
      <trkpt lat="48.57781" lon="-4.43144">
        <ele>55.9</ele>
        <time>2011-04-05T16:19:56Z</time>
      </trkpt>
      <trkpt lat="48.5778" lon="-4.43146">
        <ele>56.2</ele>
        <time>2011-04-05T16:19:57Z</time>
      </trkpt>
      <trkpt lat="48.57779" lon="-4.43148">
        <ele>56</ele>
        <time>2011-04-05T16:19:58Z</time>
      </trkpt>
      <trkpt lat="48.57778" lon="-4.4315">
        <ele>55.6</ele>
        <time>2011-04-05T16:19:59Z</time>
      </trkpt>
      <trkpt lat="48.57778" lon="-4.43152">
        <ele>55.2</ele>
        <time>2011-04-05T16:20:00Z</time>
      </trkpt>
      <trkpt lat="48.57777" lon="-4.43154">
        <ele>55.3</ele>
        <time>2011-04-05T16:20:01Z</time>
      </trkpt>
      <trkpt lat="48.57776" lon="-4.43155">
        <ele>54.7</ele>
        <time>2011-04-05T16:20:02Z</time>
      </trkpt>
      <trkpt lat="48.57776" lon="-4.43157">
        <ele>55</ele>
        <time>2011-04-05T16:20:03Z</time>
      </trkpt>
      <trkpt lat="48.57775" lon="-4.43159">
        <ele>54.8</ele>
        <time>2011-04-05T16:20:04Z</time>
      </trkpt>
      <trkpt lat="48.57775" lon="-4.43162">
        <ele>56</ele>
        <time>2011-04-05T16:20:05Z</time>
      </trkpt>
      <trkpt lat="48.57774" lon="-4.43165">
        <ele>56.1</ele>
        <time>2011-04-05T16:20:06Z</time>
      </trkpt>
      <trkpt lat="48.57774" lon="-4.43167">
        <ele>55.9</ele>
        <time>2011-04-05T16:20:08Z</time>
      </trkpt>
      <trkpt lat="48.57773" lon="-4.43169">
        <ele>55.7</ele>
        <time>2011-04-05T16:20:09Z</time>
      </trkpt>
      <trkpt lat="48.57773" lon="-4.43172">
        <ele>55.7</ele>
        <time>2011-04-05T16:20:10Z</time>
      </trkpt>
      <trkpt lat="48.57773" lon="-4.43174">
        <ele>55.3</ele>
        <time>2011-04-05T16:20:11Z</time>
      </trkpt>
      <trkpt lat="48.57772" lon="-4.43176">
        <ele>55.1</ele>
        <time>2011-04-05T16:20:12Z</time>
      </trkpt>
      <trkpt lat="48.57771" lon="-4.43178">
        <ele>55.1</ele>
        <time>2011-04-05T16:20:13Z</time>
      </trkpt>
      <trkpt lat="48.57771" lon="-4.4318">
        <ele>54.6</ele>
        <time>2011-04-05T16:20:14Z</time>
      </trkpt>
      <trkpt lat="48.5777" lon="-4.43181">
        <ele>54.3</ele>
        <time>2011-04-05T16:20:15Z</time>
      </trkpt>
      <trkpt lat="48.5777" lon="-4.43184">
        <ele>54.3</ele>
        <time>2011-04-05T16:20:16Z</time>
      </trkpt>
      <trkpt lat="48.57769" lon="-4.43187">
        <ele>54.4</ele>
        <time>2011-04-05T16:20:18Z</time>
      </trkpt>
      <trkpt lat="48.57768" lon="-4.43189">
        <ele>54.1</ele>
        <time>2011-04-05T16:20:19Z</time>
      </trkpt>
      <trkpt lat="48.57768" lon="-4.43191">
        <ele>53.8</ele>
        <time>2011-04-05T16:20:20Z</time>
      </trkpt>
      <trkpt lat="48.57767" lon="-4.43193">
        <ele>54.1</ele>
        <time>2011-04-05T16:20:21Z</time>
      </trkpt>
      <trkpt lat="48.57767" lon="-4.43195">
        <ele>53.9</ele>
        <time>2011-04-05T16:20:22Z</time>
      </trkpt>
      <trkpt lat="48.57767" lon="-4.43198">
        <ele>53.8</ele>
        <time>2011-04-05T16:20:23Z</time>
      </trkpt>
      <trkpt lat="48.57766" lon="-4.432">
        <ele>53.6</ele>
        <time>2011-04-05T16:20:24Z</time>
      </trkpt>
      <trkpt lat="48.57766" lon="-4.43202">
        <ele>53.2</ele>
        <time>2011-04-05T16:20:25Z</time>
      </trkpt>
      <trkpt lat="48.57765" lon="-4.43205">
        <ele>53.1</ele>
        <time>2011-04-05T16:20:26Z</time>
      </trkpt>
      <trkpt lat="48.57764" lon="-4.43207">
        <ele>52.6</ele>
        <time>2011-04-05T16:20:27Z</time>
      </trkpt>
      <trkpt lat="48.57764" lon="-4.4321">
        <ele>52.8</ele>
        <time>2011-04-05T16:20:28Z</time>
      </trkpt>
      <trkpt lat="48.57763" lon="-4.43213">
        <ele>52.8</ele>
        <time>2011-04-05T16:20:29Z</time>
      </trkpt>
      <trkpt lat="48.57763" lon="-4.43216">
        <ele>52.9</ele>
        <time>2011-04-05T16:20:29Z</time>
      </trkpt>
      <trkpt lat="48.57762" lon="-4.43219">
        <ele>52.9</ele>
        <time>2011-04-05T16:20:30Z</time>
      </trkpt>
      <trkpt lat="48.57762" lon="-4.43221">
        <ele>52.6</ele>
        <time>2011-04-05T16:20:30Z</time>
      </trkpt>
      <trkpt lat="48.57761" lon="-4.43224">
        <ele>52.7</ele>
        <time>2011-04-05T16:20:32Z</time>
      </trkpt>
      <trkpt lat="48.5776" lon="-4.43226">
        <ele>52.8</ele>
        <time>2011-04-05T16:20:33Z</time>
      </trkpt>
      <trkpt lat="48.5776" lon="-4.43228">
        <ele>52.3</ele>
        <time>2011-04-05T16:20:34Z</time>
      </trkpt>
      <trkpt lat="48.5776" lon="-4.43231">
        <ele>52</ele>
        <time>2011-04-05T16:20:35Z</time>
      </trkpt>
      <trkpt lat="48.57759" lon="-4.43233">
        <ele>52</ele>
        <time>2011-04-05T16:20:36Z</time>
      </trkpt>
      <trkpt lat="48.57759" lon="-4.43235">
        <ele>51.8</ele>
        <time>2011-04-05T16:20:36Z</time>
      </trkpt>
      <trkpt lat="48.57758" lon="-4.43237">
        <ele>51.5</ele>
        <time>2011-04-05T16:20:37Z</time>
      </trkpt>
      <trkpt lat="48.57758" lon="-4.4324">
        <ele>51.1</ele>
        <time>2011-04-05T16:20:38Z</time>
      </trkpt>
      <trkpt lat="48.57757" lon="-4.43242">
        <ele>50.9</ele>
        <time>2011-04-05T16:20:39Z</time>
      </trkpt>
      <trkpt lat="48.57757" lon="-4.43245">
        <ele>50.6</ele>
        <time>2011-04-05T16:20:40Z</time>
      </trkpt>
      <trkpt lat="48.57756" lon="-4.43247">
        <ele>50.2</ele>
        <time>2011-04-05T16:20:42Z</time>
      </trkpt>
      <trkpt lat="48.57756" lon="-4.43249">
        <ele>49.7</ele>
        <time>2011-04-05T16:20:43Z</time>
      </trkpt>
      <trkpt lat="48.57755" lon="-4.43251">
        <ele>49.4</ele>
        <time>2011-04-05T16:20:44Z</time>
      </trkpt>
      <trkpt lat="48.57754" lon="-4.43254">
        <ele>49.2</ele>
        <time>2011-04-05T16:20:45Z</time>
      </trkpt>
      <trkpt lat="48.57754" lon="-4.43256">
        <ele>49.1</ele>
        <time>2011-04-05T16:20:45Z</time>
      </trkpt>
      <trkpt lat="48.57753" lon="-4.43258">
        <ele>49</ele>
        <time>2011-04-05T16:20:47Z</time>
      </trkpt>
      <trkpt lat="48.57752" lon="-4.43259">
        <ele>48.9</ele>
        <time>2011-04-05T16:20:48Z</time>
      </trkpt>
      <trkpt lat="48.57751" lon="-4.43261">
        <ele>48.5</ele>
        <time>2011-04-05T16:20:49Z</time>
      </trkpt>
      <trkpt lat="48.57751" lon="-4.43263">
        <ele>48.2</ele>
        <time>2011-04-05T16:20:50Z</time>
      </trkpt>
      <trkpt lat="48.5775" lon="-4.43266">
        <ele>48.1</ele>
        <time>2011-04-05T16:20:51Z</time>
      </trkpt>
      <trkpt lat="48.5775" lon="-4.43268">
        <ele>48.2</ele>
        <time>2011-04-05T16:20:52Z</time>
      </trkpt>
      <trkpt lat="48.57749" lon="-4.4327">
        <ele>48.1</ele>
        <time>2011-04-05T16:20:52Z</time>
      </trkpt>
      <trkpt lat="48.57749" lon="-4.43272">
        <ele>48.1</ele>
        <time>2011-04-05T16:20:53Z</time>
      </trkpt>
      <trkpt lat="48.57749" lon="-4.43274">
        <ele>48</ele>
        <time>2011-04-05T16:20:54Z</time>
      </trkpt>
      <trkpt lat="48.57748" lon="-4.43276">
        <ele>48.2</ele>
        <time>2011-04-05T16:20:55Z</time>
      </trkpt>
      <trkpt lat="48.57748" lon="-4.43279">
        <ele>48.4</ele>
        <time>2011-04-05T16:20:57Z</time>
      </trkpt>
      <trkpt lat="48.57748" lon="-4.43281">
        <ele>48.5</ele>
        <time>2011-04-05T16:20:58Z</time>
      </trkpt>
      <trkpt lat="48.57748" lon="-4.43283">
        <ele>48.9</ele>
        <time>2011-04-05T16:20:59Z</time>
      </trkpt>
      <trkpt lat="48.57748" lon="-4.43285">
        <ele>49.1</ele>
        <time>2011-04-05T16:21:00Z</time>
      </trkpt>
      <trkpt lat="48.57747" lon="-4.43287">
        <ele>49.3</ele>
        <time>2011-04-05T16:21:00Z</time>
      </trkpt>
      <trkpt lat="48.57747" lon="-4.4329">
        <ele>49.6</ele>
        <time>2011-04-05T16:21:02Z</time>
      </trkpt>
      <trkpt lat="48.57747" lon="-4.43292">
        <ele>49.8</ele>
        <time>2011-04-05T16:21:03Z</time>
      </trkpt>
      <trkpt lat="48.57746" lon="-4.43295">
        <ele>49.5</ele>
        <time>2011-04-05T16:21:04Z</time>
      </trkpt>
      <trkpt lat="48.57746" lon="-4.43298">
        <ele>49.1</ele>
        <time>2011-04-05T16:21:05Z</time>
      </trkpt>
      <trkpt lat="48.57745" lon="-4.433">
        <ele>48.5</ele>
        <time>2011-04-05T16:21:06Z</time>
      </trkpt>
      <trkpt lat="48.57745" lon="-4.43303">
        <ele>48.6</ele>
        <time>2011-04-05T16:21:07Z</time>
      </trkpt>
      <trkpt lat="48.57744" lon="-4.43305">
        <ele>48.5</ele>
        <time>2011-04-05T16:21:07Z</time>
      </trkpt>
      <trkpt lat="48.57744" lon="-4.43307">
        <ele>48.8</ele>
        <time>2011-04-05T16:21:08Z</time>
      </trkpt>
      <trkpt lat="48.57744" lon="-4.43308">
        <ele>48.7</ele>
        <time>2011-04-05T16:21:09Z</time>
      </trkpt>
      <trkpt lat="48.57744" lon="-4.4331">
        <ele>48.7</ele>
        <time>2011-04-05T16:21:10Z</time>
      </trkpt>
      <trkpt lat="48.57743" lon="-4.43313">
        <ele>49.1</ele>
        <time>2011-04-05T16:21:12Z</time>
      </trkpt>
      <trkpt lat="48.57742" lon="-4.43315">
        <ele>49.6</ele>
        <time>2011-04-05T16:21:13Z</time>
      </trkpt>
      <trkpt lat="48.57742" lon="-4.43318">
        <ele>50</ele>
        <time>2011-04-05T16:21:14Z</time>
      </trkpt>
      <trkpt lat="48.57741" lon="-4.4332">
        <ele>50.2</ele>
        <time>2011-04-05T16:21:15Z</time>
      </trkpt>
      <trkpt lat="48.57741" lon="-4.43322">
        <ele>50.6</ele>
        <time>2011-04-05T16:21:15Z</time>
      </trkpt>
      <trkpt lat="48.5774" lon="-4.43324">
        <ele>50.9</ele>
        <time>2011-04-05T16:21:17Z</time>
      </trkpt>
      <trkpt lat="48.5774" lon="-4.43327">
        <ele>51.1</ele>
        <time>2011-04-05T16:21:18Z</time>
      </trkpt>
      <trkpt lat="48.57739" lon="-4.43329">
        <ele>51.3</ele>
        <time>2011-04-05T16:21:19Z</time>
      </trkpt>
      <trkpt lat="48.57739" lon="-4.43332">
        <ele>51.7</ele>
        <time>2011-04-05T16:21:20Z</time>
      </trkpt>
      <trkpt lat="48.57738" lon="-4.43335">
        <ele>51.9</ele>
        <time>2011-04-05T16:21:21Z</time>
      </trkpt>
      <trkpt lat="48.57737" lon="-4.43337">
        <ele>52</ele>
        <time>2011-04-05T16:21:22Z</time>
      </trkpt>
      <trkpt lat="48.57737" lon="-4.43339">
        <ele>52.2</ele>
        <time>2011-04-05T16:21:22Z</time>
      </trkpt>
      <trkpt lat="48.57736" lon="-4.43341">
        <ele>52.3</ele>
        <time>2011-04-05T16:21:23Z</time>
      </trkpt>
      <trkpt lat="48.57735" lon="-4.43344">
        <ele>53.2</ele>
        <time>2011-04-05T16:21:24Z</time>
      </trkpt>
      <trkpt lat="48.57734" lon="-4.43346">
        <ele>53.5</ele>
        <time>2011-04-05T16:21:25Z</time>
      </trkpt>
      <trkpt lat="48.57734" lon="-4.43348">
        <ele>53.8</ele>
        <time>2011-04-05T16:21:27Z</time>
      </trkpt>
      <trkpt lat="48.57733" lon="-4.43351">
        <ele>54.1</ele>
        <time>2011-04-05T16:21:28Z</time>
      </trkpt>
      <trkpt lat="48.57732" lon="-4.43353">
        <ele>54.6</ele>
        <time>2011-04-05T16:21:29Z</time>
      </trkpt>
      <trkpt lat="48.57732" lon="-4.43355">
        <ele>54.3</ele>
        <time>2011-04-05T16:21:30Z</time>
      </trkpt>
      <trkpt lat="48.57731" lon="-4.43357">
        <ele>54.5</ele>
        <time>2011-04-05T16:21:30Z</time>
      </trkpt>
      <trkpt lat="48.5773" lon="-4.43359">
        <ele>54.7</ele>
        <time>2011-04-05T16:21:32Z</time>
      </trkpt>
      <trkpt lat="48.5773" lon="-4.43361">
        <ele>54.9</ele>
        <time>2011-04-05T16:21:33Z</time>
      </trkpt>
      <trkpt lat="48.57729" lon="-4.43363">
        <ele>54.7</ele>
        <time>2011-04-05T16:21:34Z</time>
      </trkpt>
      <trkpt lat="48.57728" lon="-4.43365">
        <ele>54.5</ele>
        <time>2011-04-05T16:21:35Z</time>
      </trkpt>
      <trkpt lat="48.57728" lon="-4.43367">
        <ele>54.6</ele>
        <time>2011-04-05T16:21:36Z</time>
      </trkpt>
      <trkpt lat="48.57727" lon="-4.43369">
        <ele>54.7</ele>
        <time>2011-04-05T16:21:37Z</time>
      </trkpt>
      <trkpt lat="48.57726" lon="-4.43371">
        <ele>54.5</ele>
        <time>2011-04-05T16:21:37Z</time>
      </trkpt>
      <trkpt lat="48.57725" lon="-4.43373">
        <ele>54.4</ele>
        <time>2011-04-05T16:21:38Z</time>
      </trkpt>
      <trkpt lat="48.57725" lon="-4.43375">
        <ele>54.2</ele>
        <time>2011-04-05T16:21:39Z</time>
      </trkpt>
      <trkpt lat="48.57724" lon="-4.43377">
        <ele>54.1</ele>
        <time>2011-04-05T16:21:40Z</time>
      </trkpt>
      <trkpt lat="48.57724" lon="-4.43378">
        <ele>53.8</ele>
        <time>2011-04-05T16:21:42Z</time>
      </trkpt>
      <trkpt lat="48.57723" lon="-4.43379">
        <ele>53.7</ele>
        <time>2011-04-05T16:21:43Z</time>
      </trkpt>
      <trkpt lat="48.57723" lon="-4.43381">
        <ele>53.7</ele>
        <time>2011-04-05T16:21:44Z</time>
      </trkpt>
      <trkpt lat="48.57722" lon="-4.43383">
        <ele>53.7</ele>
        <time>2011-04-05T16:21:45Z</time>
      </trkpt>
      <trkpt lat="48.57721" lon="-4.43385">
        <ele>53.7</ele>
        <time>2011-04-05T16:21:45Z</time>
      </trkpt>
      <trkpt lat="48.57721" lon="-4.43387">
        <ele>53.7</ele>
        <time>2011-04-05T16:21:47Z</time>
      </trkpt>
      <trkpt lat="48.5772" lon="-4.43389">
        <ele>53.4</ele>
        <time>2011-04-05T16:21:48Z</time>
      </trkpt>
      <trkpt lat="48.5772" lon="-4.43391">
        <ele>53.3</ele>
        <time>2011-04-05T16:21:49Z</time>
      </trkpt>
      <trkpt lat="48.57719" lon="-4.43394">
        <ele>53.2</ele>
        <time>2011-04-05T16:21:50Z</time>
      </trkpt>
      <trkpt lat="48.57718" lon="-4.43396">
        <ele>53.4</ele>
        <time>2011-04-05T16:21:52Z</time>
      </trkpt>
      <trkpt lat="48.57717" lon="-4.43398">
        <ele>53.3</ele>
        <time>2011-04-05T16:21:53Z</time>
      </trkpt>
      <trkpt lat="48.57717" lon="-4.434">
        <ele>52.8</ele>
        <time>2011-04-05T16:21:54Z</time>
      </trkpt>
      <trkpt lat="48.57716" lon="-4.43402">
        <ele>52.5</ele>
        <time>2011-04-05T16:21:54Z</time>
      </trkpt>
      <trkpt lat="48.57715" lon="-4.43405">
        <ele>53</ele>
        <time>2011-04-05T16:21:55Z</time>
      </trkpt>
      <trkpt lat="48.57714" lon="-4.43407">
        <ele>52.8</ele>
        <time>2011-04-05T16:21:56Z</time>
      </trkpt>
      <trkpt lat="48.57714" lon="-4.43409">
        <ele>53.3</ele>
        <time>2011-04-05T16:21:57Z</time>
      </trkpt>
      <trkpt lat="48.57713" lon="-4.43411">
        <ele>53.1</ele>
        <time>2011-04-05T16:21:58Z</time>
      </trkpt>
      <trkpt lat="48.57712" lon="-4.43413">
        <ele>52.9</ele>
        <time>2011-04-05T16:21:59Z</time>
      </trkpt>
      <trkpt lat="48.57712" lon="-4.43414">
        <ele>52.7</ele>
        <time>2011-04-05T16:22:00Z</time>
      </trkpt>
      <trkpt lat="48.57711" lon="-4.43416">
        <ele>52.3</ele>
        <time>2011-04-05T16:22:01Z</time>
      </trkpt>
      <trkpt lat="48.5771" lon="-4.43419">
        <ele>52.3</ele>
        <time>2011-04-05T16:22:01Z</time>
      </trkpt>
      <trkpt lat="48.57709" lon="-4.43421">
        <ele>51.6</ele>
        <time>2011-04-05T16:22:02Z</time>
      </trkpt>
      <trkpt lat="48.57708" lon="-4.43423">
        <ele>52.3</ele>
        <time>2011-04-05T16:22:03Z</time>
      </trkpt>
      <trkpt lat="48.57707" lon="-4.43424">
        <ele>51.6</ele>
        <time>2011-04-05T16:22:04Z</time>
      </trkpt>
      <trkpt lat="48.57707" lon="-4.43426">
        <ele>52</ele>
        <time>2011-04-05T16:22:05Z</time>
      </trkpt>
      <trkpt lat="48.57706" lon="-4.43429">
        <ele>52.5</ele>
        <time>2011-04-05T16:22:06Z</time>
      </trkpt>
      <trkpt lat="48.57706" lon="-4.43429">
        <ele>52.5</ele>
        <time>2011-04-05T16:22:30Z</time>
      </trkpt>
      <trkpt lat="48.577" lon="-4.43458">
        <ele>52.4</ele>
        <time>2011-04-05T16:22:32Z</time>
      </trkpt>
      <trkpt lat="48.57699" lon="-4.43459">
        <ele>52.1</ele>
        <time>2011-04-05T16:22:33Z</time>
      </trkpt>
      <trkpt lat="48.57699" lon="-4.43461">
        <ele>51.8</ele>
        <time>2011-04-05T16:22:34Z</time>
      </trkpt>
      <trkpt lat="48.57698" lon="-4.43462">
        <ele>51.4</ele>
        <time>2011-04-05T16:22:35Z</time>
      </trkpt>
      <trkpt lat="48.57698" lon="-4.43465">
        <ele>51.4</ele>
        <time>2011-04-05T16:22:36Z</time>
      </trkpt>
      <trkpt lat="48.57697" lon="-4.43467">
        <ele>51</ele>
        <time>2011-04-05T16:22:37Z</time>
      </trkpt>
      <trkpt lat="48.57696" lon="-4.43469">
        <ele>50.9</ele>
        <time>2011-04-05T16:22:38Z</time>
      </trkpt>
      <trkpt lat="48.57695" lon="-4.43471">
        <ele>50.7</ele>
        <time>2011-04-05T16:22:39Z</time>
      </trkpt>
      <trkpt lat="48.57694" lon="-4.43473">
        <ele>50.5</ele>
        <time>2011-04-05T16:22:40Z</time>
      </trkpt>
      <trkpt lat="48.57693" lon="-4.43475">
        <ele>50.3</ele>
        <time>2011-04-05T16:22:41Z</time>
      </trkpt>
      <trkpt lat="48.57693" lon="-4.43477">
        <ele>51.6</ele>
        <time>2011-04-05T16:22:42Z</time>
      </trkpt>
      <trkpt lat="48.57693" lon="-4.43479">
        <ele>52.3</ele>
        <time>2011-04-05T16:22:43Z</time>
      </trkpt>
      <trkpt lat="48.57692" lon="-4.43481">
        <ele>52.6</ele>
        <time>2011-04-05T16:22:43Z</time>
      </trkpt>
      <trkpt lat="48.57692" lon="-4.43484">
        <ele>53</ele>
        <time>2011-04-05T16:22:44Z</time>
      </trkpt>
      <trkpt lat="48.57691" lon="-4.43486">
        <ele>52.9</ele>
        <time>2011-04-05T16:22:45Z</time>
      </trkpt>
      <trkpt lat="48.5769" lon="-4.43488">
        <ele>52.3</ele>
        <time>2011-04-05T16:22:46Z</time>
      </trkpt>
      <trkpt lat="48.5769" lon="-4.4349">
        <ele>52.9</ele>
        <time>2011-04-05T16:22:47Z</time>
      </trkpt>
      <trkpt lat="48.57689" lon="-4.43492">
        <ele>52.9</ele>
        <time>2011-04-05T16:22:48Z</time>
      </trkpt>
      <trkpt lat="48.57689" lon="-4.43494">
        <ele>52.7</ele>
        <time>2011-04-05T16:22:49Z</time>
      </trkpt>
      <trkpt lat="48.57689" lon="-4.43495">
        <ele>52.2</ele>
        <time>2011-04-05T16:22:50Z</time>
      </trkpt>
      <trkpt lat="48.57688" lon="-4.43498">
        <ele>51.3</ele>
        <time>2011-04-05T16:22:52Z</time>
      </trkpt>
      <trkpt lat="48.57686" lon="-4.435">
        <ele>50.4</ele>
        <time>2011-04-05T16:22:53Z</time>
      </trkpt>
      <trkpt lat="48.57685" lon="-4.43502">
        <ele>49.9</ele>
        <time>2011-04-05T16:22:54Z</time>
      </trkpt>
      <trkpt lat="48.57684" lon="-4.43504">
        <ele>49.3</ele>
        <time>2011-04-05T16:22:55Z</time>
      </trkpt>
      <trkpt lat="48.57684" lon="-4.43506">
        <ele>48.5</ele>
        <time>2011-04-05T16:22:56Z</time>
      </trkpt>
      <trkpt lat="48.57683" lon="-4.43508">
        <ele>48.4</ele>
        <time>2011-04-05T16:22:57Z</time>
      </trkpt>
      <trkpt lat="48.57682" lon="-4.4351">
        <ele>48.3</ele>
        <time>2011-04-05T16:22:58Z</time>
      </trkpt>
      <trkpt lat="48.57681" lon="-4.43512">
        <ele>47.9</ele>
        <time>2011-04-05T16:22:59Z</time>
      </trkpt>
      <trkpt lat="48.57681" lon="-4.43514">
        <ele>48</ele>
        <time>2011-04-05T16:23:00Z</time>
      </trkpt>
      <trkpt lat="48.5768" lon="-4.43516">
        <ele>47.8</ele>
        <time>2011-04-05T16:23:01Z</time>
      </trkpt>
      <trkpt lat="48.5768" lon="-4.43518">
        <ele>47.9</ele>
        <time>2011-04-05T16:23:01Z</time>
      </trkpt>
      <trkpt lat="48.5768" lon="-4.4352">
        <ele>47.9</ele>
        <time>2011-04-05T16:23:02Z</time>
      </trkpt>
      <trkpt lat="48.57679" lon="-4.43522">
        <ele>48.2</ele>
        <time>2011-04-05T16:23:03Z</time>
      </trkpt>
      <trkpt lat="48.57679" lon="-4.43525">
        <ele>48.4</ele>
        <time>2011-04-05T16:23:04Z</time>
      </trkpt>
      <trkpt lat="48.57679" lon="-4.43526">
        <ele>48.5</ele>
        <time>2011-04-05T16:23:05Z</time>
      </trkpt>
      <trkpt lat="48.57679" lon="-4.43529">
        <ele>49.1</ele>
        <time>2011-04-05T16:23:06Z</time>
      </trkpt>
      <trkpt lat="48.57678" lon="-4.43532">
        <ele>49.6</ele>
        <time>2011-04-05T16:23:08Z</time>
      </trkpt>
      <trkpt lat="48.57678" lon="-4.43534">
        <ele>49.9</ele>
        <time>2011-04-05T16:23:09Z</time>
      </trkpt>
      <trkpt lat="48.57677" lon="-4.43536">
        <ele>50.1</ele>
        <time>2011-04-05T16:23:10Z</time>
      </trkpt>
      <trkpt lat="48.57677" lon="-4.43538">
        <ele>50.3</ele>
        <time>2011-04-05T16:23:11Z</time>
      </trkpt>
      <trkpt lat="48.57676" lon="-4.43541">
        <ele>50.1</ele>
        <time>2011-04-05T16:23:12Z</time>
      </trkpt>
      <trkpt lat="48.57676" lon="-4.43543">
        <ele>49.7</ele>
        <time>2011-04-05T16:23:13Z</time>
      </trkpt>
      <trkpt lat="48.57676" lon="-4.43545">
        <ele>49.1</ele>
        <time>2011-04-05T16:23:14Z</time>
      </trkpt>
      <trkpt lat="48.57676" lon="-4.43548">
        <ele>49.2</ele>
        <time>2011-04-05T16:23:15Z</time>
      </trkpt>
      <trkpt lat="48.57675" lon="-4.4355">
        <ele>49.4</ele>
        <time>2011-04-05T16:23:16Z</time>
      </trkpt>
      <trkpt lat="48.57675" lon="-4.43553">
        <ele>49.8</ele>
        <time>2011-04-05T16:23:16Z</time>
      </trkpt>
      <trkpt lat="48.57675" lon="-4.43555">
        <ele>49.1</ele>
        <time>2011-04-05T16:23:17Z</time>
      </trkpt>
      <trkpt lat="48.57674" lon="-4.43558">
        <ele>49.5</ele>
        <time>2011-04-05T16:23:18Z</time>
      </trkpt>
      <trkpt lat="48.57674" lon="-4.4356">
        <ele>50</ele>
        <time>2011-04-05T16:23:19Z</time>
      </trkpt>
      <trkpt lat="48.57674" lon="-4.43563">
        <ele>51</ele>
        <time>2011-04-05T16:23:20Z</time>
      </trkpt>
      <trkpt lat="48.57674" lon="-4.43565">
        <ele>51.5</ele>
        <time>2011-04-05T16:23:21Z</time>
      </trkpt>
      <trkpt lat="48.57673" lon="-4.43567">
        <ele>51.7</ele>
        <time>2011-04-05T16:23:23Z</time>
      </trkpt>
      <trkpt lat="48.57673" lon="-4.4357">
        <ele>52</ele>
        <time>2011-04-05T16:23:23Z</time>
      </trkpt>
      <trkpt lat="48.57673" lon="-4.43572">
        <ele>52.1</ele>
        <time>2011-04-05T16:23:24Z</time>
      </trkpt>
      <trkpt lat="48.57673" lon="-4.43574">
        <ele>52.8</ele>
        <time>2011-04-05T16:23:25Z</time>
      </trkpt>
      <trkpt lat="48.57673" lon="-4.43577">
        <ele>52.7</ele>
        <time>2011-04-05T16:23:25Z</time>
      </trkpt>
      <trkpt lat="48.57673" lon="-4.43579">
        <ele>53.3</ele>
        <time>2011-04-05T16:23:27Z</time>
      </trkpt>
      <trkpt lat="48.57673" lon="-4.43581">
        <ele>54</ele>
        <time>2011-04-05T16:23:28Z</time>
      </trkpt>
      <trkpt lat="48.57673" lon="-4.43583">
        <ele>54.2</ele>
        <time>2011-04-05T16:23:29Z</time>
      </trkpt>
      <trkpt lat="48.57673" lon="-4.43586">
        <ele>54.1</ele>
        <time>2011-04-05T16:23:30Z</time>
      </trkpt>
      <trkpt lat="48.57673" lon="-4.43588">
        <ele>53.9</ele>
        <time>2011-04-05T16:23:31Z</time>
      </trkpt>
      <trkpt lat="48.57673" lon="-4.4359">
        <ele>53.8</ele>
        <time>2011-04-05T16:23:32Z</time>
      </trkpt>
      <trkpt lat="48.57674" lon="-4.43592">
        <ele>53.1</ele>
        <time>2011-04-05T16:23:33Z</time>
      </trkpt>
      <trkpt lat="48.57674" lon="-4.43594">
        <ele>52.8</ele>
        <time>2011-04-05T16:23:34Z</time>
      </trkpt>
      <trkpt lat="48.57674" lon="-4.43594">
        <ele>52.8</ele>
        <time>2011-04-05T16:23:39Z</time>
      </trkpt>
      <trkpt lat="48.57675" lon="-4.43607">
        <ele>53.5</ele>
        <time>2011-04-05T16:23:39Z</time>
      </trkpt>
      <trkpt lat="48.57675" lon="-4.4361">
        <ele>53.1</ele>
        <time>2011-04-05T16:23:41Z</time>
      </trkpt>
      <trkpt lat="48.57674" lon="-4.43613">
        <ele>53</ele>
        <time>2011-04-05T16:23:42Z</time>
      </trkpt>
      <trkpt lat="48.57674" lon="-4.43616">
        <ele>53.1</ele>
        <time>2011-04-05T16:23:43Z</time>
      </trkpt>
      <trkpt lat="48.57674" lon="-4.43618">
        <ele>53</ele>
        <time>2011-04-05T16:23:44Z</time>
      </trkpt>
      <trkpt lat="48.57675" lon="-4.4362">
        <ele>52.2</ele>
        <time>2011-04-05T16:23:45Z</time>
      </trkpt>
      <trkpt lat="48.57675" lon="-4.43623">
        <ele>51.8</ele>
        <time>2011-04-05T16:23:46Z</time>
      </trkpt>
      <trkpt lat="48.57675" lon="-4.43625">
        <ele>52.3</ele>
        <time>2011-04-05T16:23:47Z</time>
      </trkpt>
      <trkpt lat="48.57676" lon="-4.43627">
        <ele>52.3</ele>
        <time>2011-04-05T16:23:48Z</time>
      </trkpt>
      <trkpt lat="48.57676" lon="-4.43629">
        <ele>52.2</ele>
        <time>2011-04-05T16:23:49Z</time>
      </trkpt>
      <trkpt lat="48.57676" lon="-4.43631">
        <ele>52.6</ele>
        <time>2011-04-05T16:23:50Z</time>
      </trkpt>
      <trkpt lat="48.57676" lon="-4.43631">
        <ele>52.6</ele>
        <time>2011-04-05T16:24:05Z</time>
      </trkpt>
      <trkpt lat="48.57676" lon="-4.43666">
        <ele>55.2</ele>
        <time>2011-04-05T16:24:07Z</time>
      </trkpt>
      <trkpt lat="48.57675" lon="-4.43668">
        <ele>55.9</ele>
        <time>2011-04-05T16:24:08Z</time>
      </trkpt>
      <trkpt lat="48.57674" lon="-4.43669">
        <ele>55.3</ele>
        <time>2011-04-05T16:24:09Z</time>
      </trkpt>
      <trkpt lat="48.57674" lon="-4.43671">
        <ele>55.4</ele>
        <time>2011-04-05T16:24:09Z</time>
      </trkpt>
      <trkpt lat="48.57673" lon="-4.43673">
        <ele>55.7</ele>
        <time>2011-04-05T16:24:10Z</time>
      </trkpt>
      <trkpt lat="48.57673" lon="-4.43675">
        <ele>56.9</ele>
        <time>2011-04-05T16:24:11Z</time>
      </trkpt>
      <trkpt lat="48.57672" lon="-4.43676">
        <ele>56.6</ele>
        <time>2011-04-05T16:24:12Z</time>
      </trkpt>
      <trkpt lat="48.57671" lon="-4.43677">
        <ele>56.2</ele>
        <time>2011-04-05T16:24:13Z</time>
      </trkpt>
      <trkpt lat="48.57671" lon="-4.43679">
        <ele>55.5</ele>
        <time>2011-04-05T16:24:14Z</time>
      </trkpt>
      <trkpt lat="48.5767" lon="-4.43681">
        <ele>55.2</ele>
        <time>2011-04-05T16:24:15Z</time>
      </trkpt>
      <trkpt lat="48.5767" lon="-4.43683">
        <ele>54.6</ele>
        <time>2011-04-05T16:24:16Z</time>
      </trkpt>
      <trkpt lat="48.5767" lon="-4.43685">
        <ele>53.9</ele>
        <time>2011-04-05T16:24:18Z</time>
      </trkpt>
      <trkpt lat="48.5767" lon="-4.43685">
        <ele>53.9</ele>
        <time>2011-04-05T16:24:27Z</time>
      </trkpt>
      <trkpt lat="48.57664" lon="-4.43712">
        <ele>54.4</ele>
        <time>2011-04-05T16:24:28Z</time>
      </trkpt>
      <trkpt lat="48.57663" lon="-4.43714">
        <ele>54.3</ele>
        <time>2011-04-05T16:24:30Z</time>
      </trkpt>
      <trkpt lat="48.57662" lon="-4.43718">
        <ele>54.7</ele>
        <time>2011-04-05T16:24:31Z</time>
      </trkpt>
      <trkpt lat="48.57661" lon="-4.4372">
        <ele>55.2</ele>
        <time>2011-04-05T16:24:32Z</time>
      </trkpt>
      <trkpt lat="48.57661" lon="-4.43723">
        <ele>55.2</ele>
        <time>2011-04-05T16:24:33Z</time>
      </trkpt>
      <trkpt lat="48.5766" lon="-4.43724">
        <ele>55.5</ele>
        <time>2011-04-05T16:24:34Z</time>
      </trkpt>
      <trkpt lat="48.57659" lon="-4.43726">
        <ele>54.8</ele>
        <time>2011-04-05T16:24:35Z</time>
      </trkpt>
      <trkpt lat="48.57659" lon="-4.43726">
        <ele>54.8</ele>
        <time>2011-04-05T16:24:47Z</time>
      </trkpt>
      <trkpt lat="48.57656" lon="-4.43759">
        <ele>52.7</ele>
        <time>2011-04-05T16:24:48Z</time>
      </trkpt>
      <trkpt lat="48.57656" lon="-4.43761">
        <ele>51.8</ele>
        <time>2011-04-05T16:24:49Z</time>
      </trkpt>
      <trkpt lat="48.57656" lon="-4.43764">
        <ele>52.7</ele>
        <time>2011-04-05T16:24:50Z</time>
      </trkpt>
      <trkpt lat="48.57655" lon="-4.43766">
        <ele>51.7</ele>
        <time>2011-04-05T16:24:51Z</time>
      </trkpt>
      <trkpt lat="48.57655" lon="-4.43766">
        <ele>51.7</ele>
        <time>2011-04-05T16:25:08Z</time>
      </trkpt>
      <trkpt lat="48.57646" lon="-4.43805">
        <ele>55</ele>
        <time>2011-04-05T16:25:08Z</time>
      </trkpt>
      <trkpt lat="48.57646" lon="-4.43807">
        <ele>54.3</ele>
        <time>2011-04-05T16:25:10Z</time>
      </trkpt>
      <trkpt lat="48.57644" lon="-4.43809">
        <ele>54.4</ele>
        <time>2011-04-05T16:25:11Z</time>
      </trkpt>
      <trkpt lat="48.57642" lon="-4.43812">
        <ele>54.8</ele>
        <time>2011-04-05T16:25:13Z</time>
      </trkpt>
      <trkpt lat="48.57642" lon="-4.43813">
        <ele>54.3</ele>
        <time>2011-04-05T16:25:14Z</time>
      </trkpt>
      <trkpt lat="48.57641" lon="-4.43814">
        <ele>54.5</ele>
        <time>2011-04-05T16:25:15Z</time>
      </trkpt>
      <trkpt lat="48.57641" lon="-4.43814">
        <ele>54.5</ele>
        <time>2011-04-05T16:25:16Z</time>
      </trkpt>
      <trkpt lat="48.57638" lon="-4.43818">
        <ele>54.1</ele>
        <time>2011-04-05T16:25:18Z</time>
      </trkpt>
      <trkpt lat="48.57636" lon="-4.43819">
        <ele>53.54</ele>
        <time>2011-04-05T16:25:20Z</time>
      </trkpt>
      <trkpt lat="48.57638" lon="-4.43817">
        <ele>52.47</ele>
        <time>2011-04-05T16:25:22Z</time>
      </trkpt>
      <trkpt lat="48.57638" lon="-4.43816">
        <ele>52.1</ele>
        <time>2011-04-05T16:25:24Z</time>
      </trkpt>
      <trkpt lat="48.57638" lon="-4.43814">
        <ele>51.8</ele>
        <time>2011-04-05T16:25:25Z</time>
      </trkpt>
      <trkpt lat="48.57638" lon="-4.43812">
        <ele>51.7</ele>
        <time>2011-04-05T16:25:26Z</time>
      </trkpt>
      <trkpt lat="48.57637" lon="-4.43812">
        <ele>51.5</ele>
        <time>2011-04-05T16:25:26Z</time>
      </trkpt>
      <trkpt lat="48.57636" lon="-4.43811">
        <ele>51.4</ele>
        <time>2011-04-05T16:25:28Z</time>
      </trkpt>
      <trkpt lat="48.57636" lon="-4.43811">
        <ele>51.4</ele>
        <time>2011-04-05T16:25:52Z</time>
      </trkpt>
      <trkpt lat="48.57609" lon="-4.4381">
        <ele>51.5</ele>
        <time>2011-04-05T16:25:53Z</time>
      </trkpt>
      <trkpt lat="48.57609" lon="-4.4381">
        <ele>51.5</ele>
        <time>2011-04-05T16:25:53Z</time>
      </trkpt>
      <trkpt lat="48.57608" lon="-4.43811">
        <ele>52</ele>
        <time>2011-04-05T16:25:55Z</time>
      </trkpt>
      <trkpt lat="48.57605" lon="-4.43811">
        <ele>51.43</ele>
        <time>2011-04-05T16:25:56Z</time>
      </trkpt>
      <trkpt lat="48.57605" lon="-4.43811">
        <ele>51.43</ele>
        <time>2011-04-05T16:26:12Z</time>
      </trkpt>
      <trkpt lat="48.57591" lon="-4.43821">
        <ele>42</ele>
        <time>2011-04-05T16:26:13Z</time>
      </trkpt>
      <trkpt lat="48.5759" lon="-4.43822">
        <ele>42.9</ele>
        <time>2011-04-05T16:26:14Z</time>
      </trkpt>
      <trkpt lat="48.57588" lon="-4.43822">
        <ele>43</ele>
        <time>2011-04-05T16:26:15Z</time>
      </trkpt>
      <trkpt lat="48.57588" lon="-4.43822">
        <ele>43</ele>
        <time>2011-04-05T16:26:22Z</time>
      </trkpt>
      <trkpt lat="48.57578" lon="-4.43832">
        <ele>40.5</ele>
        <time>2011-04-05T16:26:22Z</time>
      </trkpt>
      <trkpt lat="48.57577" lon="-4.43835">
        <ele>40.3</ele>
        <time>2011-04-05T16:26:24Z</time>
      </trkpt>
      <trkpt lat="48.57576" lon="-4.43837">
        <ele>39.6</ele>
        <time>2011-04-05T16:26:25Z</time>
      </trkpt>
      <trkpt lat="48.57574" lon="-4.43838">
        <ele>39.5</ele>
        <time>2011-04-05T16:26:26Z</time>
      </trkpt>
      <trkpt lat="48.57573" lon="-4.43839">
        <ele>39.5</ele>
        <time>2011-04-05T16:26:28Z</time>
      </trkpt>
      <trkpt lat="48.57573" lon="-4.43839">
        <ele>39.5</ele>
        <time>2011-04-05T16:26:56Z</time>
      </trkpt>
      <trkpt lat="48.57553" lon="-4.43866">
        <ele>43.9</ele>
        <time>2011-04-05T16:26:57Z</time>
      </trkpt>
      <trkpt lat="48.57552" lon="-4.43868">
        <ele>44.1</ele>
        <time>2011-04-05T16:26:59Z</time>
      </trkpt>
      <trkpt lat="48.5755" lon="-4.43869">
        <ele>44.3</ele>
        <time>2011-04-05T16:27:00Z</time>
      </trkpt>
      <trkpt lat="48.5755" lon="-4.43871">
        <ele>45.1</ele>
        <time>2011-04-05T16:27:01Z</time>
      </trkpt>
      <trkpt lat="48.5755" lon="-4.43871">
        <ele>45.1</ele>
        <time>2011-04-05T16:27:28Z</time>
      </trkpt>
      <trkpt lat="48.57524" lon="-4.43886">
        <ele>38.9</ele>
        <time>2011-04-05T16:27:29Z</time>
      </trkpt>
      <trkpt lat="48.57524" lon="-4.43886">
        <ele>37.9</ele>
        <time>2011-04-05T16:27:31Z</time>
      </trkpt>
      <trkpt lat="48.57524" lon="-4.43886">
        <ele>37.9</ele>
        <time>2011-04-05T16:27:31Z</time>
      </trkpt>
      <trkpt lat="48.57524" lon="-4.43888">
        <ele>38.1</ele>
        <time>2011-04-05T16:27:32Z</time>
      </trkpt>
      <trkpt lat="48.57524" lon="-4.43888">
        <ele>38.1</ele>
        <time>2011-04-05T16:28:08Z</time>
      </trkpt>
      <trkpt lat="48.57511" lon="-4.43919">
        <ele>53.43</ele>
        <time>2011-04-05T16:28:10Z</time>
      </trkpt>
      <trkpt lat="48.5751" lon="-4.4392">
        <ele>54.75</ele>
        <time>2011-04-05T16:28:12Z</time>
      </trkpt>
      <trkpt lat="48.5751" lon="-4.4392">
        <ele>54.75</ele>
        <time>2011-04-05T16:28:24Z</time>
      </trkpt>
      <trkpt lat="48.57507" lon="-4.43931">
        <ele>59.7</ele>
        <time>2011-04-05T16:28:25Z</time>
      </trkpt>
      <trkpt lat="48.57507" lon="-4.43933">
        <ele>58.8</ele>
        <time>2011-04-05T16:28:27Z</time>
      </trkpt>
      <trkpt lat="48.57505" lon="-4.43935">
        <ele>58.2</ele>
        <time>2011-04-05T16:28:27Z</time>
      </trkpt>
      <trkpt lat="48.57504" lon="-4.43936">
        <ele>57.4</ele>
        <time>2011-04-05T16:28:28Z</time>
      </trkpt>
      <trkpt lat="48.57504" lon="-4.43937">
        <ele>56.6</ele>
        <time>2011-04-05T16:28:29Z</time>
      </trkpt>
      <trkpt lat="48.57503" lon="-4.43939">
        <ele>56.1</ele>
        <time>2011-04-05T16:28:30Z</time>
      </trkpt>
      <trkpt lat="48.57502" lon="-4.43941">
        <ele>54.1</ele>
        <time>2011-04-05T16:28:32Z</time>
      </trkpt>
      <trkpt lat="48.57502" lon="-4.43941">
        <ele>54.1</ele>
        <time>2011-04-05T16:28:35Z</time>
      </trkpt>
      <trkpt lat="48.57499" lon="-4.43951">
        <ele>50.2</ele>
        <time>2011-04-05T16:28:37Z</time>
      </trkpt>
      <trkpt lat="48.57498" lon="-4.43954">
        <ele>49.5</ele>
        <time>2011-04-05T16:28:38Z</time>
      </trkpt>
      <trkpt lat="48.57498" lon="-4.43955">
        <ele>47.8</ele>
        <time>2011-04-05T16:28:39Z</time>
      </trkpt>
      <trkpt lat="48.57498" lon="-4.43958">
        <ele>47.7</ele>
        <time>2011-04-05T16:28:40Z</time>
      </trkpt>
      <trkpt lat="48.57498" lon="-4.43958">
        <ele>47.7</ele>
        <time>2011-04-05T16:28:57Z</time>
      </trkpt>
      <trkpt lat="48.5748" lon="-4.4399">
        <ele>54.2</ele>
        <time>2011-04-05T16:28:58Z</time>
      </trkpt>
      <trkpt lat="48.57478" lon="-4.43992">
        <ele>53.1</ele>
        <time>2011-04-05T16:28:59Z</time>
      </trkpt>
      <trkpt lat="48.57476" lon="-4.43995">
        <ele>53.3</ele>
        <time>2011-04-05T16:29:00Z</time>
      </trkpt>
      <trkpt lat="48.57476" lon="-4.43996">
        <ele>53.2</ele>
        <time>2011-04-05T16:29:01Z</time>
      </trkpt>
      <trkpt lat="48.57476" lon="-4.43998">
        <ele>52.11</ele>
        <time>2011-04-05T16:29:02Z</time>
      </trkpt>
      <trkpt lat="48.57476" lon="-4.43998">
        <ele>52.11</ele>
        <time>2011-04-05T16:29:27Z</time>
      </trkpt>
      <trkpt lat="48.57469" lon="-4.44039">
        <ele>47.5</ele>
        <time>2011-04-05T16:29:28Z</time>
      </trkpt>
      <trkpt lat="48.57468" lon="-4.4404">
        <ele>47</ele>
        <time>2011-04-05T16:29:30Z</time>
      </trkpt>
      <trkpt lat="48.57466" lon="-4.44042">
        <ele>46.5</ele>
        <time>2011-04-05T16:29:31Z</time>
      </trkpt>
      <trkpt lat="48.57464" lon="-4.44043">
        <ele>47.4</ele>
        <time>2011-04-05T16:29:32Z</time>
      </trkpt>
      <trkpt lat="48.57464" lon="-4.44043">
        <ele>47.4</ele>
        <time>2011-04-05T16:29:49Z</time>
      </trkpt>
      <trkpt lat="48.57452" lon="-4.44082">
        <ele>50.7</ele>
        <time>2011-04-05T16:29:50Z</time>
      </trkpt>
      <trkpt lat="48.5745" lon="-4.44084">
        <ele>51.9</ele>
        <time>2011-04-05T16:29:52Z</time>
      </trkpt>
      <trkpt lat="48.5745" lon="-4.44085">
        <ele>51.8</ele>
        <time>2011-04-05T16:29:53Z</time>
      </trkpt>
      <trkpt lat="48.5745" lon="-4.44087">
        <ele>51.6</ele>
        <time>2011-04-05T16:29:54Z</time>
      </trkpt>
      <trkpt lat="48.5745" lon="-4.44087">
        <ele>51.6</ele>
        <time>2011-04-05T16:30:10Z</time>
      </trkpt>
      <trkpt lat="48.57422" lon="-4.44097">
        <ele>46.4</ele>
        <time>2011-04-05T16:30:11Z</time>
      </trkpt>
      <trkpt lat="48.57421" lon="-4.44098">
        <ele>46.4</ele>
        <time>2011-04-05T16:30:13Z</time>
      </trkpt>
      <trkpt lat="48.57421" lon="-4.44098">
        <ele>46.4</ele>
        <time>2011-04-05T16:30:13Z</time>
      </trkpt>
      <trkpt lat="48.5742" lon="-4.441">
        <ele>46.7</ele>
        <time>2011-04-05T16:30:14Z</time>
      </trkpt>
      <trkpt lat="48.57419" lon="-4.44101">
        <ele>47.1</ele>
        <time>2011-04-05T16:30:16Z</time>
      </trkpt>
      <trkpt lat="48.57419" lon="-4.44101">
        <ele>47.1</ele>
        <time>2011-04-05T16:30:30Z</time>
      </trkpt>
      <trkpt lat="48.57398" lon="-4.44128">
        <ele>40.1</ele>
        <time>2011-04-05T16:30:31Z</time>
      </trkpt>
      <trkpt lat="48.57397" lon="-4.4413">
        <ele>40.8</ele>
        <time>2011-04-05T16:30:33Z</time>
      </trkpt>
      <trkpt lat="48.57395" lon="-4.44132">
        <ele>41.2</ele>
        <time>2011-04-05T16:30:34Z</time>
      </trkpt>
      <trkpt lat="48.57393" lon="-4.44134">
        <ele>41.9</ele>
        <time>2011-04-05T16:30:35Z</time>
      </trkpt>
      <trkpt lat="48.57393" lon="-4.44134">
        <ele>41.9</ele>
        <time>2011-04-05T16:31:10Z</time>
      </trkpt>
      <trkpt lat="48.57376" lon="-4.44166">
        <ele>41.7</ele>
        <time>2011-04-05T16:31:11Z</time>
      </trkpt>
      <trkpt lat="48.57375" lon="-4.44166">
        <ele>40.6</ele>
        <time>2011-04-05T16:31:13Z</time>
      </trkpt>
      <trkpt lat="48.57373" lon="-4.44167">
        <ele>39</ele>
        <time>2011-04-05T16:31:14Z</time>
      </trkpt>
      <trkpt lat="48.57371" lon="-4.44167">
        <ele>37.6</ele>
        <time>2011-04-05T16:31:15Z</time>
      </trkpt>
      <trkpt lat="48.57371" lon="-4.44167">
        <ele>37.6</ele>
        <time>2011-04-05T16:31:36Z</time>
      </trkpt>
      <trkpt lat="48.57353" lon="-4.44193">
        <ele>50.5</ele>
        <time>2011-04-05T16:31:37Z</time>
      </trkpt>
      <trkpt lat="48.57352" lon="-4.44195">
        <ele>49.6</ele>
        <time>2011-04-05T16:31:39Z</time>
      </trkpt>
      <trkpt lat="48.57351" lon="-4.44197">
        <ele>47.5</ele>
        <time>2011-04-05T16:31:40Z</time>
      </trkpt>
      <trkpt lat="48.5735" lon="-4.442">
        <ele>47</ele>
        <time>2011-04-05T16:31:41Z</time>
      </trkpt>
      <trkpt lat="48.57349" lon="-4.44202">
        <ele>46.2</ele>
        <time>2011-04-05T16:31:41Z</time>
      </trkpt>
      <trkpt lat="48.57347" lon="-4.44205">
        <ele>45.8</ele>
        <time>2011-04-05T16:31:42Z</time>
      </trkpt>
      <trkpt lat="48.57345" lon="-4.44207">
        <ele>44.5</ele>
        <time>2011-04-05T16:31:44Z</time>
      </trkpt>
      <trkpt lat="48.57345" lon="-4.44207">
        <ele>44.5</ele>
        <time>2011-04-05T16:31:50Z</time>
      </trkpt>
      <trkpt lat="48.57336" lon="-4.44221">
        <ele>44</ele>
        <time>2011-04-05T16:31:52Z</time>
      </trkpt>
      <trkpt lat="48.57334" lon="-4.44223">
        <ele>43.7</ele>
        <time>2011-04-05T16:31:53Z</time>
      </trkpt>
      <trkpt lat="48.57333" lon="-4.44225">
        <ele>44.2</ele>
        <time>2011-04-05T16:31:54Z</time>
      </trkpt>
      <trkpt lat="48.57331" lon="-4.44227">
        <ele>44</ele>
        <time>2011-04-05T16:31:54Z</time>
      </trkpt>
      <trkpt lat="48.57331" lon="-4.44228">
        <ele>43.8</ele>
        <time>2011-04-05T16:31:55Z</time>
      </trkpt>
      <trkpt lat="48.57329" lon="-4.44229">
        <ele>43.9</ele>
        <time>2011-04-05T16:31:56Z</time>
      </trkpt>
      <trkpt lat="48.57328" lon="-4.44232">
        <ele>43.8</ele>
        <time>2011-04-05T16:31:57Z</time>
      </trkpt>
      <trkpt lat="48.57327" lon="-4.44233">
        <ele>44.3</ele>
        <time>2011-04-05T16:31:58Z</time>
      </trkpt>
      <trkpt lat="48.57326" lon="-4.44234">
        <ele>44.7</ele>
        <time>2011-04-05T16:31:59Z</time>
      </trkpt>
      <trkpt lat="48.57325" lon="-4.44235">
        <ele>45.2</ele>
        <time>2011-04-05T16:32:01Z</time>
      </trkpt>
      <trkpt lat="48.57325" lon="-4.44235">
        <ele>45.2</ele>
        <time>2011-04-05T16:32:23Z</time>
      </trkpt>
      <trkpt lat="48.57301" lon="-4.44256">
        <ele>44.63</ele>
        <time>2011-04-05T16:32:25Z</time>
      </trkpt>
      <trkpt lat="48.57301" lon="-4.44258">
        <ele>45.4</ele>
        <time>2011-04-05T16:32:27Z</time>
      </trkpt>
      <trkpt lat="48.573" lon="-4.4426">
        <ele>47</ele>
        <time>2011-04-05T16:32:28Z</time>
      </trkpt>
      <trkpt lat="48.573" lon="-4.4426">
        <ele>47</ele>
        <time>2011-04-05T16:32:44Z</time>
      </trkpt>
      <trkpt lat="48.57286" lon="-4.44297">
        <ele>46.1</ele>
        <time>2011-04-05T16:32:44Z</time>
      </trkpt>
      <trkpt lat="48.57285" lon="-4.44299">
        <ele>45.7</ele>
        <time>2011-04-05T16:32:46Z</time>
      </trkpt>
      <trkpt lat="48.57285" lon="-4.44301">
        <ele>45</ele>
        <time>2011-04-05T16:32:47Z</time>
      </trkpt>
      <trkpt lat="48.57284" lon="-4.44302">
        <ele>43.9</ele>
        <time>2011-04-05T16:32:49Z</time>
      </trkpt>
      <trkpt lat="48.57284" lon="-4.44302">
        <ele>43.9</ele>
        <time>2011-04-05T16:33:08Z</time>
      </trkpt>
      <trkpt lat="48.57268" lon="-4.44338">
        <ele>46.4</ele>
        <time>2011-04-05T16:33:09Z</time>
      </trkpt>
      <trkpt lat="48.57267" lon="-4.44341">
        <ele>46.4</ele>
        <time>2011-04-05T16:33:10Z</time>
      </trkpt>
      <trkpt lat="48.57266" lon="-4.44343">
        <ele>46.4</ele>
        <time>2011-04-05T16:33:11Z</time>
      </trkpt>
      <trkpt lat="48.57265" lon="-4.44346">
        <ele>46.8</ele>
        <time>2011-04-05T16:33:12Z</time>
      </trkpt>
      <trkpt lat="48.57263" lon="-4.44348">
        <ele>46.5</ele>
        <time>2011-04-05T16:33:13Z</time>
      </trkpt>
      <trkpt lat="48.57262" lon="-4.4435">
        <ele>46.7</ele>
        <time>2011-04-05T16:33:14Z</time>
      </trkpt>
      <trkpt lat="48.57262" lon="-4.4435">
        <ele>46.7</ele>
        <time>2011-04-05T16:33:22Z</time>
      </trkpt>
      <trkpt lat="48.57251" lon="-4.44368">
        <ele>44.3</ele>
        <time>2011-04-05T16:33:23Z</time>
      </trkpt>
      <trkpt lat="48.57249" lon="-4.4437">
        <ele>43.5</ele>
        <time>2011-04-05T16:33:24Z</time>
      </trkpt>
      <trkpt lat="48.57248" lon="-4.44371">
        <ele>42.4</ele>
        <time>2011-04-05T16:33:25Z</time>
      </trkpt>
      <trkpt lat="48.57247" lon="-4.44373">
        <ele>42.2</ele>
        <time>2011-04-05T16:33:26Z</time>
      </trkpt>
      <trkpt lat="48.57246" lon="-4.44375">
        <ele>42.6</ele>
        <time>2011-04-05T16:33:27Z</time>
      </trkpt>
      <trkpt lat="48.57245" lon="-4.44376">
        <ele>43.1</ele>
        <time>2011-04-05T16:33:28Z</time>
      </trkpt>
      <trkpt lat="48.57244" lon="-4.44377">
        <ele>42.8</ele>
        <time>2011-04-05T16:33:30Z</time>
      </trkpt>
      <trkpt lat="48.57244" lon="-4.44377">
        <ele>42.8</ele>
        <time>2011-04-05T16:33:46Z</time>
      </trkpt>
      <trkpt lat="48.57226" lon="-4.44409">
        <ele>43.7</ele>
        <time>2011-04-05T16:33:47Z</time>
      </trkpt>
      <trkpt lat="48.57224" lon="-4.44411">
        <ele>44.2</ele>
        <time>2011-04-05T16:33:49Z</time>
      </trkpt>
      <trkpt lat="48.57224" lon="-4.44413">
        <ele>44.6</ele>
        <time>2011-04-05T16:33:50Z</time>
      </trkpt>
      <trkpt lat="48.57223" lon="-4.44415">
        <ele>44.3</ele>
        <time>2011-04-05T16:33:51Z</time>
      </trkpt>
      <trkpt lat="48.57221" lon="-4.44418">
        <ele>44.9</ele>
        <time>2011-04-05T16:33:52Z</time>
      </trkpt>
      <trkpt lat="48.5722" lon="-4.44419">
        <ele>45.8</ele>
        <time>2011-04-05T16:33:54Z</time>
      </trkpt>
      <trkpt lat="48.5722" lon="-4.44419">
        <ele>45.8</ele>
        <time>2011-04-05T16:34:32Z</time>
      </trkpt>
      <trkpt lat="48.57236" lon="-4.44448">
        <ele>31.9</ele>
        <time>2011-04-05T16:34:32Z</time>
      </trkpt>
      <trkpt lat="48.57236" lon="-4.4445">
        <ele>33.97</ele>
        <time>2011-04-05T16:34:34Z</time>
      </trkpt>
      <trkpt lat="48.57236" lon="-4.4445">
        <ele>33.97</ele>
        <time>2011-04-05T16:34:35Z</time>
      </trkpt>
      <trkpt lat="48.57236" lon="-4.44452">
        <ele>35.1</ele>
        <time>2011-04-05T16:34:37Z</time>
      </trkpt>
      <trkpt lat="48.57236" lon="-4.44452">
        <ele>35.1</ele>
        <time>2011-04-05T16:34:57Z</time>
      </trkpt>
      <trkpt lat="48.57235" lon="-4.44489">
        <ele>22.3</ele>
        <time>2011-04-05T16:34:57Z</time>
      </trkpt>
      <trkpt lat="48.57235" lon="-4.44491">
        <ele>23.5</ele>
        <time>2011-04-05T16:34:59Z</time>
      </trkpt>
      <trkpt lat="48.57235" lon="-4.4449">
        <ele>20.2</ele>
        <time>2011-04-05T16:35:00Z</time>
      </trkpt>
      <trkpt lat="48.57235" lon="-4.4449">
        <ele>20.2</ele>
        <time>2011-04-05T16:35:01Z</time>
      </trkpt>
      <trkpt lat="48.57238" lon="-4.44488">
        <ele>16.8</ele>
        <time>2011-04-05T16:35:03Z</time>
      </trkpt>
      <trkpt lat="48.57238" lon="-4.44488">
        <ele>16.8</ele>
        <time>2011-04-05T16:35:07Z</time>
      </trkpt>
      <trkpt lat="48.5725" lon="-4.44485">
        <ele>21.07</ele>
        <time>2011-04-05T16:35:09Z</time>
      </trkpt>
      <trkpt lat="48.57252" lon="-4.44483">
        <ele>20</ele>
        <time>2011-04-05T16:35:11Z</time>
      </trkpt>
      <trkpt lat="48.57253" lon="-4.4448">
        <ele>19.8</ele>
        <time>2011-04-05T16:35:12Z</time>
      </trkpt>
      <trkpt lat="48.57254" lon="-4.44479">
        <ele>19.9</ele>
        <time>2011-04-05T16:35:13Z</time>
      </trkpt>
      <trkpt lat="48.57256" lon="-4.44479">
        <ele>20.4</ele>
        <time>2011-04-05T16:35:14Z</time>
      </trkpt>
      <trkpt lat="48.57255" lon="-4.4448">
        <ele>22.5</ele>
        <time>2011-04-05T16:35:15Z</time>
      </trkpt>
      <trkpt lat="48.57255" lon="-4.4448">
        <ele>22.5</ele>
        <time>2011-04-05T16:35:38Z</time>
      </trkpt>
      <trkpt lat="48.57262" lon="-4.44453">
        <ele>35.1</ele>
        <time>2011-04-05T16:35:39Z</time>
      </trkpt>
      <trkpt lat="48.57264" lon="-4.4445">
        <ele>33</ele>
        <time>2011-04-05T16:35:40Z</time>
      </trkpt>
      <trkpt lat="48.57266" lon="-4.44451">
        <ele>32</ele>
        <time>2011-04-05T16:35:41Z</time>
      </trkpt>
      <trkpt lat="48.57268" lon="-4.44455">
        <ele>29.7</ele>
        <time>2011-04-05T16:35:42Z</time>
      </trkpt>
      <trkpt lat="48.57268" lon="-4.44452">
        <ele>30.2</ele>
        <time>2011-04-05T16:35:43Z</time>
      </trkpt>
      <trkpt lat="48.57269" lon="-4.44453">
        <ele>29.3</ele>
        <time>2011-04-05T16:35:44Z</time>
      </trkpt>
      <trkpt lat="48.57269" lon="-4.44456">
        <ele>27.8</ele>
        <time>2011-04-05T16:35:46Z</time>
      </trkpt>
      <trkpt lat="48.57269" lon="-4.44456">
        <ele>27.8</ele>
        <time>2011-04-05T16:36:18Z</time>
      </trkpt>
      <trkpt lat="48.57284" lon="-4.44489">
        <ele>38.5</ele>
        <time>2011-04-05T16:36:19Z</time>
      </trkpt>
      <trkpt lat="48.57285" lon="-4.4449">
        <ele>38.1</ele>
        <time>2011-04-05T16:36:20Z</time>
      </trkpt>
      <trkpt lat="48.57286" lon="-4.44492">
        <ele>36.9</ele>
        <time>2011-04-05T16:36:21Z</time>
      </trkpt>
      <trkpt lat="48.57287" lon="-4.44494">
        <ele>36.5</ele>
        <time>2011-04-05T16:36:22Z</time>
      </trkpt>
      <trkpt lat="48.57287" lon="-4.44494">
        <ele>36.5</ele>
        <time>2011-04-05T16:37:01Z</time>
      </trkpt>
      <trkpt lat="48.57293" lon="-4.44533">
        <ele>46.1</ele>
        <time>2011-04-05T16:37:02Z</time>
      </trkpt>
      <trkpt lat="48.57291" lon="-4.44536">
        <ele>45.2</ele>
        <time>2011-04-05T16:37:04Z</time>
      </trkpt>
      <trkpt lat="48.57291" lon="-4.44537">
        <ele>47.1</ele>
        <time>2011-04-05T16:37:05Z</time>
      </trkpt>
      <trkpt lat="48.57291" lon="-4.44537">
        <ele>47.1</ele>
        <time>2011-04-05T16:37:05Z</time>
      </trkpt>
      <trkpt lat="48.57291" lon="-4.4454">
        <ele>48.2</ele>
        <time>2011-04-05T16:37:06Z</time>
      </trkpt>
      <trkpt lat="48.57291" lon="-4.4454">
        <ele>48.2</ele>
        <time>2011-04-05T16:37:28Z</time>
      </trkpt>
      <trkpt lat="48.57289" lon="-4.4458">
        <ele>55.6</ele>
        <time>2011-04-05T16:37:28Z</time>
      </trkpt>
      <trkpt lat="48.57289" lon="-4.44581">
        <ele>56</ele>
        <time>2011-04-05T16:37:30Z</time>
      </trkpt>
      <trkpt lat="48.57289" lon="-4.44581">
        <ele>56</ele>
        <time>2011-04-05T16:37:30Z</time>
      </trkpt>
      <trkpt lat="48.57289" lon="-4.44584">
        <ele>57.7</ele>
        <time>2011-04-05T16:37:31Z</time>
      </trkpt>
      <trkpt lat="48.57289" lon="-4.44584">
        <ele>57.7</ele>
        <time>2011-04-05T16:37:31Z</time>
      </trkpt>
      <trkpt lat="48.57289" lon="-4.44586">
        <ele>57</ele>
        <time>2011-04-05T16:37:33Z</time>
      </trkpt>
      <trkpt lat="48.57289" lon="-4.44586">
        <ele>57</ele>
        <time>2011-04-05T16:37:53Z</time>
      </trkpt>
      <trkpt lat="48.57283" lon="-4.44625">
        <ele>63.7</ele>
        <time>2011-04-05T16:37:54Z</time>
      </trkpt>
      <trkpt lat="48.57283" lon="-4.44627">
        <ele>65.6</ele>
        <time>2011-04-05T16:37:55Z</time>
      </trkpt>
      <trkpt lat="48.57282" lon="-4.44629">
        <ele>66.5</ele>
        <time>2011-04-05T16:37:56Z</time>
      </trkpt>
      <trkpt lat="48.57281" lon="-4.44632">
        <ele>68.4</ele>
        <time>2011-04-05T16:37:57Z</time>
      </trkpt>
      <trkpt lat="48.57281" lon="-4.44632">
        <ele>68.4</ele>
        <time>2011-04-05T16:38:02Z</time>
      </trkpt>
      <trkpt lat="48.5728" lon="-4.44648">
        <ele>61</ele>
        <time>2011-04-05T16:38:03Z</time>
      </trkpt>
      <trkpt lat="48.5728" lon="-4.44652">
        <ele>58.3</ele>
        <time>2011-04-05T16:38:05Z</time>
      </trkpt>
      <trkpt lat="48.5728" lon="-4.44655">
        <ele>56.9</ele>
        <time>2011-04-05T16:38:06Z</time>
      </trkpt>
      <trkpt lat="48.5728" lon="-4.44657">
        <ele>56.2</ele>
        <time>2011-04-05T16:38:07Z</time>
      </trkpt>
      <trkpt lat="48.5728" lon="-4.44657">
        <ele>56.2</ele>
        <time>2011-04-05T16:38:38Z</time>
      </trkpt>
      <trkpt lat="48.57294" lon="-4.44691">
        <ele>49.9</ele>
        <time>2011-04-05T16:38:38Z</time>
      </trkpt>
      <trkpt lat="48.57296" lon="-4.44693">
        <ele>49.6</ele>
        <time>2011-04-05T16:38:40Z</time>
      </trkpt>
      <trkpt lat="48.57297" lon="-4.44694">
        <ele>48.6</ele>
        <time>2011-04-05T16:38:41Z</time>
      </trkpt>
      <trkpt lat="48.57298" lon="-4.44696">
        <ele>48.3</ele>
        <time>2011-04-05T16:38:42Z</time>
      </trkpt>
      <trkpt lat="48.57299" lon="-4.44697">
        <ele>47.7</ele>
        <time>2011-04-05T16:38:43Z</time>
      </trkpt>
      <trkpt lat="48.573" lon="-4.447">
        <ele>46.9</ele>
        <time>2011-04-05T16:38:44Z</time>
      </trkpt>
      <trkpt lat="48.57301" lon="-4.44701">
        <ele>47</ele>
        <time>2011-04-05T16:38:45Z</time>
      </trkpt>
      <trkpt lat="48.57303" lon="-4.44703">
        <ele>44.99</ele>
        <time>2011-04-05T16:38:47Z</time>
      </trkpt>
      <trkpt lat="48.57303" lon="-4.44703">
        <ele>44.99</ele>
        <time>2011-04-05T16:39:36Z</time>
      </trkpt>
      <trkpt lat="48.57329" lon="-4.44697">
        <ele>51.6</ele>
        <time>2011-04-05T16:39:38Z</time>
      </trkpt>
      <trkpt lat="48.5733" lon="-4.44696">
        <ele>51.7</ele>
        <time>2011-04-05T16:39:39Z</time>
      </trkpt>
      <trkpt lat="48.57331" lon="-4.44696">
        <ele>51.9</ele>
        <time>2011-04-05T16:39:40Z</time>
      </trkpt>
      <trkpt lat="48.57332" lon="-4.44695">
        <ele>51.3</ele>
        <time>2011-04-05T16:39:41Z</time>
      </trkpt>
      <trkpt lat="48.57333" lon="-4.44694">
        <ele>51</ele>
        <time>2011-04-05T16:39:42Z</time>
      </trkpt>
      <trkpt lat="48.57333" lon="-4.44694">
        <ele>51</ele>
        <time>2011-04-05T16:39:43Z</time>
      </trkpt>
      <trkpt lat="48.57336" lon="-4.44694">
        <ele>50.8</ele>
        <time>2011-04-05T16:39:45Z</time>
      </trkpt>
      <trkpt lat="48.57337" lon="-4.44695">
        <ele>50.7</ele>
        <time>2011-04-05T16:39:46Z</time>
      </trkpt>
      <trkpt lat="48.57338" lon="-4.44696">
        <ele>50.5</ele>
        <time>2011-04-05T16:39:48Z</time>
      </trkpt>
      <trkpt lat="48.57338" lon="-4.44698">
        <ele>49.9</ele>
        <time>2011-04-05T16:39:49Z</time>
      </trkpt>
      <trkpt lat="48.57339" lon="-4.447">
        <ele>49</ele>
        <time>2011-04-05T16:39:50Z</time>
      </trkpt>
      <trkpt lat="48.57339" lon="-4.44702">
        <ele>48.8</ele>
        <time>2011-04-05T16:39:52Z</time>
      </trkpt>
      <trkpt lat="48.57339" lon="-4.44702">
        <ele>48.8</ele>
        <time>2011-04-05T16:40:16Z</time>
      </trkpt>
      <trkpt lat="48.57365" lon="-4.44713">
        <ele>53</ele>
        <time>2011-04-05T16:40:17Z</time>
      </trkpt>
      <trkpt lat="48.57365" lon="-4.44715">
        <ele>53</ele>
        <time>2011-04-05T16:40:19Z</time>
      </trkpt>
      <trkpt lat="48.57366" lon="-4.44717">
        <ele>54</ele>
        <time>2011-04-05T16:40:20Z</time>
      </trkpt>
      <trkpt lat="48.57366" lon="-4.44718">
        <ele>54.4</ele>
        <time>2011-04-05T16:40:22Z</time>
      </trkpt>
      <trkpt lat="48.57366" lon="-4.44718">
        <ele>54.4</ele>
        <time>2011-04-05T16:40:54Z</time>
      </trkpt>
      <trkpt lat="48.57371" lon="-4.44715">
        <ele>59.5</ele>
        <time>2011-04-05T16:40:54Z</time>
      </trkpt>
      <trkpt lat="48.57373" lon="-4.44714">
        <ele>59.3</ele>
        <time>2011-04-05T16:40:56Z</time>
      </trkpt>
      <trkpt lat="48.57374" lon="-4.44713">
        <ele>59.4</ele>
        <time>2011-04-05T16:40:57Z</time>
      </trkpt>
      <trkpt lat="48.57375" lon="-4.44713">
        <ele>59.3</ele>
        <time>2011-04-05T16:40:58Z</time>
      </trkpt>
      <trkpt lat="48.57376" lon="-4.44712">
        <ele>59.3</ele>
        <time>2011-04-05T16:40:59Z</time>
      </trkpt>
      <trkpt lat="48.57378" lon="-4.44712">
        <ele>59.3</ele>
        <time>2011-04-05T16:40:59Z</time>
      </trkpt>
      <trkpt lat="48.57379" lon="-4.44711">
        <ele>59.6</ele>
        <time>2011-04-05T16:41:00Z</time>
      </trkpt>
      <trkpt lat="48.5738" lon="-4.44711">
        <ele>59.7</ele>
        <time>2011-04-05T16:41:01Z</time>
      </trkpt>
      <trkpt lat="48.57382" lon="-4.44711">
        <ele>59.8</ele>
        <time>2011-04-05T16:41:02Z</time>
      </trkpt>
      <trkpt lat="48.57383" lon="-4.4471">
        <ele>60.1</ele>
        <time>2011-04-05T16:41:02Z</time>
      </trkpt>
      <trkpt lat="48.57384" lon="-4.4471">
        <ele>59.9</ele>
        <time>2011-04-05T16:41:03Z</time>
      </trkpt>
      <trkpt lat="48.57386" lon="-4.44709">
        <ele>59.9</ele>
        <time>2011-04-05T16:41:04Z</time>
      </trkpt>
      <trkpt lat="48.57387" lon="-4.44709">
        <ele>60.2</ele>
        <time>2011-04-05T16:41:05Z</time>
      </trkpt>
      <trkpt lat="48.57388" lon="-4.44709">
        <ele>59.9</ele>
        <time>2011-04-05T16:41:06Z</time>
      </trkpt>
      <trkpt lat="48.5739" lon="-4.44708">
        <ele>59.9</ele>
        <time>2011-04-05T16:41:07Z</time>
      </trkpt>
      <trkpt lat="48.57391" lon="-4.44707">
        <ele>59.9</ele>
        <time>2011-04-05T16:41:07Z</time>
      </trkpt>
      <trkpt lat="48.57392" lon="-4.44706">
        <ele>60.3</ele>
        <time>2011-04-05T16:41:08Z</time>
      </trkpt>
      <trkpt lat="48.57394" lon="-4.44707">
        <ele>61.7</ele>
        <time>2011-04-05T16:41:09Z</time>
      </trkpt>
      <trkpt lat="48.57395" lon="-4.44707">
        <ele>61.9</ele>
        <time>2011-04-05T16:41:10Z</time>
      </trkpt>
      <trkpt lat="48.57396" lon="-4.44706">
        <ele>61.8</ele>
        <time>2011-04-05T16:41:11Z</time>
      </trkpt>
      <trkpt lat="48.57398" lon="-4.44706">
        <ele>61.7</ele>
        <time>2011-04-05T16:41:11Z</time>
      </trkpt>
      <trkpt lat="48.57399" lon="-4.44706">
        <ele>61.3</ele>
        <time>2011-04-05T16:41:12Z</time>
      </trkpt>
      <trkpt lat="48.574" lon="-4.44705">
        <ele>61.7</ele>
        <time>2011-04-05T16:41:14Z</time>
      </trkpt>
      <trkpt lat="48.57402" lon="-4.44705">
        <ele>61.5</ele>
        <time>2011-04-05T16:41:15Z</time>
      </trkpt>
      <trkpt lat="48.57403" lon="-4.44705">
        <ele>61</ele>
        <time>2011-04-05T16:41:17Z</time>
      </trkpt>
      <trkpt lat="48.57404" lon="-4.44705">
        <ele>61.2</ele>
        <time>2011-04-05T16:41:17Z</time>
      </trkpt>
      <trkpt lat="48.57406" lon="-4.44704">
        <ele>60.2</ele>
        <time>2011-04-05T16:41:18Z</time>
      </trkpt>
      <trkpt lat="48.57407" lon="-4.44704">
        <ele>60.6</ele>
        <time>2011-04-05T16:41:20Z</time>
      </trkpt>
      <trkpt lat="48.57409" lon="-4.44704">
        <ele>60.3</ele>
        <time>2011-04-05T16:41:21Z</time>
      </trkpt>
      <trkpt lat="48.5741" lon="-4.44704">
        <ele>59.7</ele>
        <time>2011-04-05T16:41:22Z</time>
      </trkpt>
      <trkpt lat="48.57412" lon="-4.44703">
        <ele>59.7</ele>
        <time>2011-04-05T16:41:24Z</time>
      </trkpt>
      <trkpt lat="48.57413" lon="-4.44703">
        <ele>59.6</ele>
        <time>2011-04-05T16:41:25Z</time>
      </trkpt>
      <trkpt lat="48.57415" lon="-4.44703">
        <ele>59.6</ele>
        <time>2011-04-05T16:41:27Z</time>
      </trkpt>
      <trkpt lat="48.57416" lon="-4.44703">
        <ele>59.4</ele>
        <time>2011-04-05T16:41:28Z</time>
      </trkpt>
      <trkpt lat="48.57418" lon="-4.44703">
        <ele>59.4</ele>
        <time>2011-04-05T16:41:29Z</time>
      </trkpt>
      <trkpt lat="48.57419" lon="-4.44703">
        <ele>59.3</ele>
        <time>2011-04-05T16:41:30Z</time>
      </trkpt>
      <trkpt lat="48.5742" lon="-4.44704">
        <ele>59</ele>
        <time>2011-04-05T16:41:31Z</time>
      </trkpt>
      <trkpt lat="48.57422" lon="-4.44704">
        <ele>59.1</ele>
        <time>2011-04-05T16:41:32Z</time>
      </trkpt>
      <trkpt lat="48.57423" lon="-4.44704">
        <ele>58.8</ele>
        <time>2011-04-05T16:41:34Z</time>
      </trkpt>
      <trkpt lat="48.57425" lon="-4.44703">
        <ele>58.8</ele>
        <time>2011-04-05T16:41:35Z</time>
      </trkpt>
      <trkpt lat="48.57427" lon="-4.44703">
        <ele>58.9</ele>
        <time>2011-04-05T16:41:37Z</time>
      </trkpt>
      <trkpt lat="48.57428" lon="-4.44702">
        <ele>58.9</ele>
        <time>2011-04-05T16:41:38Z</time>
      </trkpt>
      <trkpt lat="48.5743" lon="-4.44702">
        <ele>58.6</ele>
        <time>2011-04-05T16:41:39Z</time>
      </trkpt>
      <trkpt lat="48.57432" lon="-4.44702">
        <ele>58.2</ele>
        <time>2011-04-05T16:41:40Z</time>
      </trkpt>
      <trkpt lat="48.57433" lon="-4.44701">
        <ele>58.2</ele>
        <time>2011-04-05T16:41:41Z</time>
      </trkpt>
      <trkpt lat="48.57435" lon="-4.447">
        <ele>58.3</ele>
        <time>2011-04-05T16:41:42Z</time>
      </trkpt>
      <trkpt lat="48.57437" lon="-4.44699">
        <ele>58.3</ele>
        <time>2011-04-05T16:41:44Z</time>
      </trkpt>
      <trkpt lat="48.57438" lon="-4.44699">
        <ele>58.7</ele>
        <time>2011-04-05T16:41:44Z</time>
      </trkpt>
      <trkpt lat="48.5744" lon="-4.44698">
        <ele>58.6</ele>
        <time>2011-04-05T16:41:46Z</time>
      </trkpt>
      <trkpt lat="48.57441" lon="-4.44697">
        <ele>58.6</ele>
        <time>2011-04-05T16:41:47Z</time>
      </trkpt>
      <trkpt lat="48.57443" lon="-4.44697">
        <ele>58.4</ele>
        <time>2011-04-05T16:41:48Z</time>
      </trkpt>
      <trkpt lat="48.57444" lon="-4.44696">
        <ele>58</ele>
        <time>2011-04-05T16:41:49Z</time>
      </trkpt>
      <trkpt lat="48.57445" lon="-4.44695">
        <ele>58</ele>
        <time>2011-04-05T16:41:49Z</time>
      </trkpt>
      <trkpt lat="48.57447" lon="-4.44695">
        <ele>57.8</ele>
        <time>2011-04-05T16:41:51Z</time>
      </trkpt>
      <trkpt lat="48.57448" lon="-4.44694">
        <ele>58.2</ele>
        <time>2011-04-05T16:41:51Z</time>
      </trkpt>
      <trkpt lat="48.5745" lon="-4.44694">
        <ele>58.7</ele>
        <time>2011-04-05T16:41:52Z</time>
      </trkpt>
      <trkpt lat="48.57452" lon="-4.44694">
        <ele>59.2</ele>
        <time>2011-04-05T16:41:53Z</time>
      </trkpt>
      <trkpt lat="48.57455" lon="-4.44693">
        <ele>59.9</ele>
        <time>2011-04-05T16:41:54Z</time>
      </trkpt>
      <trkpt lat="48.57456" lon="-4.44693">
        <ele>60.48</ele>
        <time>2011-04-05T16:41:55Z</time>
      </trkpt>
      <trkpt lat="48.57456" lon="-4.44693">
        <ele>60.48</ele>
        <time>2011-04-05T16:42:08Z</time>
      </trkpt>
      <trkpt lat="48.57454" lon="-4.44692">
        <ele>62.8</ele>
        <time>2011-04-05T16:42:08Z</time>
      </trkpt>
      <trkpt lat="48.57456" lon="-4.44691">
        <ele>62.8</ele>
        <time>2011-04-05T16:42:10Z</time>
      </trkpt>
      <trkpt lat="48.57457" lon="-4.44691">
        <ele>62.8</ele>
        <time>2011-04-05T16:42:11Z</time>
      </trkpt>
      <trkpt lat="48.57458" lon="-4.4469">
        <ele>62.8</ele>
        <time>2011-04-05T16:42:12Z</time>
      </trkpt>
      <trkpt lat="48.57459" lon="-4.4469">
        <ele>62.9</ele>
        <time>2011-04-05T16:42:13Z</time>
      </trkpt>
      <trkpt lat="48.5746" lon="-4.44689">
        <ele>62.7</ele>
        <time>2011-04-05T16:42:14Z</time>
      </trkpt>
      <trkpt lat="48.57462" lon="-4.44689">
        <ele>62.7</ele>
        <time>2011-04-05T16:42:15Z</time>
      </trkpt>
      <trkpt lat="48.57463" lon="-4.44688">
        <ele>62.8</ele>
        <time>2011-04-05T16:42:16Z</time>
      </trkpt>
      <trkpt lat="48.57464" lon="-4.44688">
        <ele>62.6</ele>
        <time>2011-04-05T16:42:18Z</time>
      </trkpt>
      <trkpt lat="48.57466" lon="-4.44687">
        <ele>62.7</ele>
        <time>2011-04-05T16:42:19Z</time>
      </trkpt>
      <trkpt lat="48.57467" lon="-4.44687">
        <ele>62.9</ele>
        <time>2011-04-05T16:42:19Z</time>
      </trkpt>
      <trkpt lat="48.57468" lon="-4.44686">
        <ele>62.9</ele>
        <time>2011-04-05T16:42:20Z</time>
      </trkpt>
      <trkpt lat="48.5747" lon="-4.44686">
        <ele>63</ele>
        <time>2011-04-05T16:42:21Z</time>
      </trkpt>
      <trkpt lat="48.57471" lon="-4.44686">
        <ele>62.9</ele>
        <time>2011-04-05T16:42:22Z</time>
      </trkpt>
      <trkpt lat="48.57473" lon="-4.44685">
        <ele>62.9</ele>
        <time>2011-04-05T16:42:23Z</time>
      </trkpt>
      <trkpt lat="48.57474" lon="-4.44685">
        <ele>62.8</ele>
        <time>2011-04-05T16:42:23Z</time>
      </trkpt>
      <trkpt lat="48.57475" lon="-4.44685">
        <ele>62.7</ele>
        <time>2011-04-05T16:42:24Z</time>
      </trkpt>
      <trkpt lat="48.57477" lon="-4.44685">
        <ele>62.6</ele>
        <time>2011-04-05T16:42:25Z</time>
      </trkpt>
      <trkpt lat="48.57478" lon="-4.44684">
        <ele>62.9</ele>
        <time>2011-04-05T16:42:26Z</time>
      </trkpt>
      <trkpt lat="48.57479" lon="-4.44683">
        <ele>63.3</ele>
        <time>2011-04-05T16:42:28Z</time>
      </trkpt>
      <trkpt lat="48.5748" lon="-4.44683">
        <ele>63.5</ele>
        <time>2011-04-05T16:42:29Z</time>
      </trkpt>
      <trkpt lat="48.57481" lon="-4.44683">
        <ele>63.6</ele>
        <time>2011-04-05T16:42:30Z</time>
      </trkpt>
      <trkpt lat="48.57482" lon="-4.44683">
        <ele>64.1</ele>
        <time>2011-04-05T16:42:30Z</time>
      </trkpt>
      <trkpt lat="48.57484" lon="-4.44683">
        <ele>63.6</ele>
        <time>2011-04-05T16:42:32Z</time>
      </trkpt>
      <trkpt lat="48.57485" lon="-4.44682">
        <ele>63.6</ele>
        <time>2011-04-05T16:42:33Z</time>
      </trkpt>
      <trkpt lat="48.57486" lon="-4.44682">
        <ele>63.6</ele>
        <time>2011-04-05T16:42:34Z</time>
      </trkpt>
      <trkpt lat="48.57487" lon="-4.44681">
        <ele>63.1</ele>
        <time>2011-04-05T16:42:35Z</time>
      </trkpt>
      <trkpt lat="48.57489" lon="-4.4468">
        <ele>63.1</ele>
        <time>2011-04-05T16:42:35Z</time>
      </trkpt>
      <trkpt lat="48.57491" lon="-4.44679">
        <ele>63</ele>
        <time>2011-04-05T16:42:37Z</time>
      </trkpt>
      <trkpt lat="48.57492" lon="-4.44679">
        <ele>62.9</ele>
        <time>2011-04-05T16:42:39Z</time>
      </trkpt>
      <trkpt lat="48.57494" lon="-4.44678">
        <ele>63.2</ele>
        <time>2011-04-05T16:42:40Z</time>
      </trkpt>
      <trkpt lat="48.57495" lon="-4.44677">
        <ele>63.1</ele>
        <time>2011-04-05T16:42:41Z</time>
      </trkpt>
      <trkpt lat="48.57497" lon="-4.44677">
        <ele>63.4</ele>
        <time>2011-04-05T16:42:43Z</time>
      </trkpt>
      <trkpt lat="48.57498" lon="-4.44676">
        <ele>63.2</ele>
        <time>2011-04-05T16:42:43Z</time>
      </trkpt>
      <trkpt lat="48.575" lon="-4.44675">
        <ele>63</ele>
        <time>2011-04-05T16:42:45Z</time>
      </trkpt>
      <trkpt lat="48.57501" lon="-4.44675">
        <ele>62.9</ele>
        <time>2011-04-05T16:42:46Z</time>
      </trkpt>
      <trkpt lat="48.57502" lon="-4.44674">
        <ele>63</ele>
        <time>2011-04-05T16:42:48Z</time>
      </trkpt>
      <trkpt lat="48.57504" lon="-4.44674">
        <ele>63</ele>
        <time>2011-04-05T16:42:49Z</time>
      </trkpt>
      <trkpt lat="48.57505" lon="-4.44673">
        <ele>63</ele>
        <time>2011-04-05T16:42:50Z</time>
      </trkpt>
      <trkpt lat="48.57507" lon="-4.44673">
        <ele>63</ele>
        <time>2011-04-05T16:42:51Z</time>
      </trkpt>
      <trkpt lat="48.57508" lon="-4.44672">
        <ele>63</ele>
        <time>2011-04-05T16:42:52Z</time>
      </trkpt>
      <trkpt lat="48.57509" lon="-4.44671">
        <ele>62.6</ele>
        <time>2011-04-05T16:42:53Z</time>
      </trkpt>
      <trkpt lat="48.57511" lon="-4.44671">
        <ele>62.6</ele>
        <time>2011-04-05T16:42:54Z</time>
      </trkpt>
      <trkpt lat="48.57512" lon="-4.4467">
        <ele>62.5</ele>
        <time>2011-04-05T16:42:55Z</time>
      </trkpt>
      <trkpt lat="48.57515" lon="-4.44669">
        <ele>62.3</ele>
        <time>2011-04-05T16:42:56Z</time>
      </trkpt>
      <trkpt lat="48.57517" lon="-4.44668">
        <ele>62.2</ele>
        <time>2011-04-05T16:42:57Z</time>
      </trkpt>
      <trkpt lat="48.5752" lon="-4.44666">
        <ele>61.2</ele>
        <time>2011-04-05T16:42:58Z</time>
      </trkpt>
      <trkpt lat="48.57521" lon="-4.44666">
        <ele>61.7</ele>
        <time>2011-04-05T16:42:59Z</time>
      </trkpt>
      <trkpt lat="48.57523" lon="-4.44665">
        <ele>61.9</ele>
        <time>2011-04-05T16:43:00Z</time>
      </trkpt>
      <trkpt lat="48.57524" lon="-4.44665">
        <ele>62.1</ele>
        <time>2011-04-05T16:43:01Z</time>
      </trkpt>
      <trkpt lat="48.57526" lon="-4.44665">
        <ele>62.4</ele>
        <time>2011-04-05T16:43:02Z</time>
      </trkpt>
      <trkpt lat="48.57527" lon="-4.44665">
        <ele>62.9</ele>
        <time>2011-04-05T16:43:04Z</time>
      </trkpt>
      <trkpt lat="48.57529" lon="-4.44664">
        <ele>63</ele>
        <time>2011-04-05T16:43:05Z</time>
      </trkpt>
      <trkpt lat="48.5753" lon="-4.44663">
        <ele>61.9</ele>
        <time>2011-04-05T16:43:06Z</time>
      </trkpt>
      <trkpt lat="48.57532" lon="-4.44662">
        <ele>61.7</ele>
        <time>2011-04-05T16:43:07Z</time>
      </trkpt>
      <trkpt lat="48.57533" lon="-4.44661">
        <ele>61.7</ele>
        <time>2011-04-05T16:43:07Z</time>
      </trkpt>
      <trkpt lat="48.57535" lon="-4.44661">
        <ele>61.7</ele>
        <time>2011-04-05T16:43:09Z</time>
      </trkpt>
      <trkpt lat="48.57537" lon="-4.4466">
        <ele>61.7</ele>
        <time>2011-04-05T16:43:10Z</time>
      </trkpt>
      <trkpt lat="48.57538" lon="-4.44659">
        <ele>61.7</ele>
        <time>2011-04-05T16:43:11Z</time>
      </trkpt>
      <trkpt lat="48.5754" lon="-4.44659">
        <ele>62</ele>
        <time>2011-04-05T16:43:12Z</time>
      </trkpt>
      <trkpt lat="48.57541" lon="-4.44658">
        <ele>61.9</ele>
        <time>2011-04-05T16:43:12Z</time>
      </trkpt>
      <trkpt lat="48.57543" lon="-4.44658">
        <ele>61.3</ele>
        <time>2011-04-05T16:43:14Z</time>
      </trkpt>
      <trkpt lat="48.57545" lon="-4.44657">
        <ele>61.4</ele>
        <time>2011-04-05T16:43:14Z</time>
      </trkpt>
      <trkpt lat="48.57547" lon="-4.44656">
        <ele>61.2</ele>
        <time>2011-04-05T16:43:15Z</time>
      </trkpt>
      <trkpt lat="48.57548" lon="-4.44655">
        <ele>61</ele>
        <time>2011-04-05T16:43:17Z</time>
      </trkpt>
      <trkpt lat="48.5755" lon="-4.44655">
        <ele>60.9</ele>
        <time>2011-04-05T16:43:18Z</time>
      </trkpt>
      <trkpt lat="48.57551" lon="-4.44654">
        <ele>61.2</ele>
        <time>2011-04-05T16:43:19Z</time>
      </trkpt>
      <trkpt lat="48.57553" lon="-4.44654">
        <ele>61.2</ele>
        <time>2011-04-05T16:43:20Z</time>
      </trkpt>
      <trkpt lat="48.57554" lon="-4.44653">
        <ele>61.3</ele>
        <time>2011-04-05T16:43:20Z</time>
      </trkpt>
      <trkpt lat="48.57556" lon="-4.44653">
        <ele>61.1</ele>
        <time>2011-04-05T16:43:21Z</time>
      </trkpt>
      <trkpt lat="48.57557" lon="-4.44653">
        <ele>61.1</ele>
        <time>2011-04-05T16:43:22Z</time>
      </trkpt>
      <trkpt lat="48.57559" lon="-4.44652">
        <ele>61.1</ele>
        <time>2011-04-05T16:43:24Z</time>
      </trkpt>
      <trkpt lat="48.5756" lon="-4.44651">
        <ele>61.1</ele>
        <time>2011-04-05T16:43:25Z</time>
      </trkpt>
      <trkpt lat="48.57562" lon="-4.44651">
        <ele>61.3</ele>
        <time>2011-04-05T16:43:26Z</time>
      </trkpt>
      <trkpt lat="48.57563" lon="-4.4465">
        <ele>61.5</ele>
        <time>2011-04-05T16:43:26Z</time>
      </trkpt>
      <trkpt lat="48.57565" lon="-4.4465">
        <ele>61.4</ele>
        <time>2011-04-05T16:43:28Z</time>
      </trkpt>
      <trkpt lat="48.57566" lon="-4.44649">
        <ele>61.3</ele>
        <time>2011-04-05T16:43:29Z</time>
      </trkpt>
      <trkpt lat="48.57568" lon="-4.44648">
        <ele>61.6</ele>
        <time>2011-04-05T16:43:31Z</time>
      </trkpt>
      <trkpt lat="48.57569" lon="-4.44647">
        <ele>61.6</ele>
        <time>2011-04-05T16:43:32Z</time>
      </trkpt>
      <trkpt lat="48.57571" lon="-4.44646">
        <ele>61.8</ele>
        <time>2011-04-05T16:43:34Z</time>
      </trkpt>
      <trkpt lat="48.57572" lon="-4.44646">
        <ele>62.3</ele>
        <time>2011-04-05T16:43:35Z</time>
      </trkpt>
      <trkpt lat="48.57574" lon="-4.44645">
        <ele>62</ele>
        <time>2011-04-05T16:43:36Z</time>
      </trkpt>
      <trkpt lat="48.57575" lon="-4.44644">
        <ele>62.2</ele>
        <time>2011-04-05T16:43:37Z</time>
      </trkpt>
      <trkpt lat="48.57577" lon="-4.44643">
        <ele>62.2</ele>
        <time>2011-04-05T16:43:38Z</time>
      </trkpt>
      <trkpt lat="48.57578" lon="-4.44642">
        <ele>62</ele>
        <time>2011-04-05T16:43:39Z</time>
      </trkpt>
      <trkpt lat="48.5758" lon="-4.44641">
        <ele>61.8</ele>
        <time>2011-04-05T16:43:40Z</time>
      </trkpt>
      <trkpt lat="48.57581" lon="-4.4464">
        <ele>61.8</ele>
        <time>2011-04-05T16:43:40Z</time>
      </trkpt>
      <trkpt lat="48.57584" lon="-4.44639">
        <ele>61.6</ele>
        <time>2011-04-05T16:43:41Z</time>
      </trkpt>
      <trkpt lat="48.57585" lon="-4.44638">
        <ele>61.8</ele>
        <time>2011-04-05T16:43:42Z</time>
      </trkpt>
      <trkpt lat="48.57587" lon="-4.44637">
        <ele>61.8</ele>
        <time>2011-04-05T16:43:42Z</time>
      </trkpt>
      <trkpt lat="48.5759" lon="-4.44635">
        <ele>62</ele>
        <time>2011-04-05T16:43:43Z</time>
      </trkpt>
      <trkpt lat="48.57591" lon="-4.44634">
        <ele>61.8</ele>
        <time>2011-04-05T16:43:44Z</time>
      </trkpt>
      <trkpt lat="48.57593" lon="-4.44633">
        <ele>61.9</ele>
        <time>2011-04-05T16:43:45Z</time>
      </trkpt>
      <trkpt lat="48.57594" lon="-4.44631">
        <ele>62.2</ele>
        <time>2011-04-05T16:43:47Z</time>
      </trkpt>
      <trkpt lat="48.57595" lon="-4.4463">
        <ele>62.7</ele>
        <time>2011-04-05T16:43:48Z</time>
      </trkpt>
      <trkpt lat="48.57597" lon="-4.44629">
        <ele>62.9</ele>
        <time>2011-04-05T16:43:49Z</time>
      </trkpt>
      <trkpt lat="48.57598" lon="-4.44628">
        <ele>63.1</ele>
        <time>2011-04-05T16:43:50Z</time>
      </trkpt>
      <trkpt lat="48.576" lon="-4.44626">
        <ele>63</ele>
        <time>2011-04-05T16:43:51Z</time>
      </trkpt>
      <trkpt lat="48.57601" lon="-4.44625">
        <ele>62.7</ele>
        <time>2011-04-05T16:43:52Z</time>
      </trkpt>
      <trkpt lat="48.57603" lon="-4.44624">
        <ele>62.6</ele>
        <time>2011-04-05T16:43:54Z</time>
      </trkpt>
      <trkpt lat="48.57604" lon="-4.44623">
        <ele>62.5</ele>
        <time>2011-04-05T16:43:55Z</time>
      </trkpt>
      <trkpt lat="48.57605" lon="-4.44622">
        <ele>62.6</ele>
        <time>2011-04-05T16:43:57Z</time>
      </trkpt>
      <trkpt lat="48.57607" lon="-4.44621">
        <ele>62.9</ele>
        <time>2011-04-05T16:43:58Z</time>
      </trkpt>
      <trkpt lat="48.57608" lon="-4.44619">
        <ele>63</ele>
        <time>2011-04-05T16:43:59Z</time>
      </trkpt>
      <trkpt lat="48.57609" lon="-4.44618">
        <ele>63</ele>
        <time>2011-04-05T16:44:00Z</time>
      </trkpt>
      <trkpt lat="48.57611" lon="-4.44617">
        <ele>62.5</ele>
        <time>2011-04-05T16:44:01Z</time>
      </trkpt>
      <trkpt lat="48.57612" lon="-4.44615">
        <ele>62.7</ele>
        <time>2011-04-05T16:44:02Z</time>
      </trkpt>
      <trkpt lat="48.57613" lon="-4.44613">
        <ele>62.1</ele>
        <time>2011-04-05T16:44:04Z</time>
      </trkpt>
      <trkpt lat="48.57615" lon="-4.44611">
        <ele>61.5</ele>
        <time>2011-04-05T16:44:04Z</time>
      </trkpt>
      <trkpt lat="48.57616" lon="-4.44609">
        <ele>61.3</ele>
        <time>2011-04-05T16:44:06Z</time>
      </trkpt>
      <trkpt lat="48.57617" lon="-4.44607">
        <ele>61.3</ele>
        <time>2011-04-05T16:44:07Z</time>
      </trkpt>
      <trkpt lat="48.57618" lon="-4.44606">
        <ele>61.5</ele>
        <time>2011-04-05T16:44:08Z</time>
      </trkpt>
      <trkpt lat="48.57619" lon="-4.44606">
        <ele>61.7</ele>
        <time>2011-04-05T16:44:08Z</time>
      </trkpt>
      <trkpt lat="48.57621" lon="-4.44605">
        <ele>61.6</ele>
        <time>2011-04-05T16:44:09Z</time>
      </trkpt>
      <trkpt lat="48.57622" lon="-4.44604">
        <ele>61.1</ele>
        <time>2011-04-05T16:44:10Z</time>
      </trkpt>
      <trkpt lat="48.57624" lon="-4.44603">
        <ele>60.5</ele>
        <time>2011-04-05T16:44:10Z</time>
      </trkpt>
      <trkpt lat="48.57625" lon="-4.44601">
        <ele>60</ele>
        <time>2011-04-05T16:44:11Z</time>
      </trkpt>
      <trkpt lat="48.57626" lon="-4.44599">
        <ele>59.8</ele>
        <time>2011-04-05T16:44:12Z</time>
      </trkpt>
      <trkpt lat="48.57627" lon="-4.44598">
        <ele>59.9</ele>
        <time>2011-04-05T16:44:13Z</time>
      </trkpt>
      <trkpt lat="48.57628" lon="-4.44596">
        <ele>60</ele>
        <time>2011-04-05T16:44:14Z</time>
      </trkpt>
      <trkpt lat="48.57629" lon="-4.44595">
        <ele>59.5</ele>
        <time>2011-04-05T16:44:15Z</time>
      </trkpt>
      <trkpt lat="48.5763" lon="-4.44593">
        <ele>59.5</ele>
        <time>2011-04-05T16:44:15Z</time>
      </trkpt>
      <trkpt lat="48.57632" lon="-4.44592">
        <ele>59.7</ele>
        <time>2011-04-05T16:44:16Z</time>
      </trkpt>
      <trkpt lat="48.57633" lon="-4.44591">
        <ele>59.9</ele>
        <time>2011-04-05T16:44:17Z</time>
      </trkpt>
      <trkpt lat="48.57634" lon="-4.44589">
        <ele>59.6</ele>
        <time>2011-04-05T16:44:18Z</time>
      </trkpt>
      <trkpt lat="48.57635" lon="-4.44588">
        <ele>59.8</ele>
        <time>2011-04-05T16:44:19Z</time>
      </trkpt>
      <trkpt lat="48.57636" lon="-4.44587">
        <ele>60.5</ele>
        <time>2011-04-05T16:44:20Z</time>
      </trkpt>
      <trkpt lat="48.57638" lon="-4.44586">
        <ele>60.6</ele>
        <time>2011-04-05T16:44:21Z</time>
      </trkpt>
      <trkpt lat="48.57639" lon="-4.44585">
        <ele>60.9</ele>
        <time>2011-04-05T16:44:22Z</time>
      </trkpt>
      <trkpt lat="48.5764" lon="-4.44584">
        <ele>60.8</ele>
        <time>2011-04-05T16:44:24Z</time>
      </trkpt>
      <trkpt lat="48.57642" lon="-4.44585">
        <ele>60.9</ele>
        <time>2011-04-05T16:44:25Z</time>
      </trkpt>
      <trkpt lat="48.57643" lon="-4.44585">
        <ele>61</ele>
        <time>2011-04-05T16:44:26Z</time>
      </trkpt>
      <trkpt lat="48.57645" lon="-4.44586">
        <ele>61.5</ele>
        <time>2011-04-05T16:44:27Z</time>
      </trkpt>
      <trkpt lat="48.57645" lon="-4.44588">
        <ele>61.5</ele>
        <time>2011-04-05T16:44:27Z</time>
      </trkpt>
      <trkpt lat="48.57646" lon="-4.4459">
        <ele>61.5</ele>
        <time>2011-04-05T16:44:29Z</time>
      </trkpt>
      <trkpt lat="48.57646" lon="-4.44592">
        <ele>61.2</ele>
        <time>2011-04-05T16:44:30Z</time>
      </trkpt>
      <trkpt lat="48.57647" lon="-4.44594">
        <ele>61.3</ele>
        <time>2011-04-05T16:44:32Z</time>
      </trkpt>
      <trkpt lat="48.57647" lon="-4.44596">
        <ele>60.8</ele>
        <time>2011-04-05T16:44:33Z</time>
      </trkpt>
      <trkpt lat="48.57647" lon="-4.44598">
        <ele>60.7</ele>
        <time>2011-04-05T16:44:34Z</time>
      </trkpt>
      <trkpt lat="48.57647" lon="-4.44601">
        <ele>60.4</ele>
        <time>2011-04-05T16:44:35Z</time>
      </trkpt>
      <trkpt lat="48.57647" lon="-4.44603">
        <ele>59.7</ele>
        <time>2011-04-05T16:44:36Z</time>
      </trkpt>
      <trkpt lat="48.57647" lon="-4.44604">
        <ele>58.6</ele>
        <time>2011-04-05T16:44:37Z</time>
      </trkpt>
      <trkpt lat="48.57647" lon="-4.44607">
        <ele>57.9</ele>
        <time>2011-04-05T16:44:39Z</time>
      </trkpt>
      <trkpt lat="48.57647" lon="-4.44609">
        <ele>57.3</ele>
        <time>2011-04-05T16:44:40Z</time>
      </trkpt>
      <trkpt lat="48.57648" lon="-4.44612">
        <ele>57.6</ele>
        <time>2011-04-05T16:44:41Z</time>
      </trkpt>
      <trkpt lat="48.57648" lon="-4.44614">
        <ele>57.8</ele>
        <time>2011-04-05T16:44:42Z</time>
      </trkpt>
      <trkpt lat="48.57649" lon="-4.44618">
        <ele>57.4</ele>
        <time>2011-04-05T16:44:43Z</time>
      </trkpt>
      <trkpt lat="48.5765" lon="-4.4462">
        <ele>57.6</ele>
        <time>2011-04-05T16:44:44Z</time>
      </trkpt>
      <trkpt lat="48.5765" lon="-4.44622">
        <ele>57.4</ele>
        <time>2011-04-05T16:44:46Z</time>
      </trkpt>
      <trkpt lat="48.5765" lon="-4.44624">
        <ele>57</ele>
        <time>2011-04-05T16:44:47Z</time>
      </trkpt>
      <trkpt lat="48.57651" lon="-4.44627">
        <ele>56.9</ele>
        <time>2011-04-05T16:44:48Z</time>
      </trkpt>
      <trkpt lat="48.57651" lon="-4.44629">
        <ele>56.8</ele>
        <time>2011-04-05T16:44:49Z</time>
      </trkpt>
      <trkpt lat="48.57652" lon="-4.44634">
        <ele>57.1</ele>
        <time>2011-04-05T16:44:50Z</time>
      </trkpt>
      <trkpt lat="48.57653" lon="-4.44636">
        <ele>57.1</ele>
        <time>2011-04-05T16:44:50Z</time>
      </trkpt>
      <trkpt lat="48.57653" lon="-4.44638">
        <ele>57</ele>
        <time>2011-04-05T16:44:51Z</time>
      </trkpt>
      <trkpt lat="48.57654" lon="-4.4464">
        <ele>57.1</ele>
        <time>2011-04-05T16:44:52Z</time>
      </trkpt>
      <trkpt lat="48.57655" lon="-4.44642">
        <ele>57.5</ele>
        <time>2011-04-05T16:44:54Z</time>
      </trkpt>
      <trkpt lat="48.57656" lon="-4.44645">
        <ele>57.3</ele>
        <time>2011-04-05T16:44:55Z</time>
      </trkpt>
      <trkpt lat="48.57656" lon="-4.44649">
        <ele>58</ele>
        <time>2011-04-05T16:44:56Z</time>
      </trkpt>
      <trkpt lat="48.57657" lon="-4.44651">
        <ele>58.2</ele>
        <time>2011-04-05T16:44:57Z</time>
      </trkpt>
      <trkpt lat="48.57657" lon="-4.44654">
        <ele>58</ele>
        <time>2011-04-05T16:44:58Z</time>
      </trkpt>
      <trkpt lat="48.57658" lon="-4.44656">
        <ele>57.9</ele>
        <time>2011-04-05T16:44:59Z</time>
      </trkpt>
      <trkpt lat="48.57658" lon="-4.44658">
        <ele>58</ele>
        <time>2011-04-05T16:45:00Z</time>
      </trkpt>
      <trkpt lat="48.57659" lon="-4.4466">
        <ele>57.7</ele>
        <time>2011-04-05T16:45:01Z</time>
      </trkpt>
      <trkpt lat="48.57659" lon="-4.44662">
        <ele>57.7</ele>
        <time>2011-04-05T16:45:02Z</time>
      </trkpt>
      <trkpt lat="48.5766" lon="-4.44664">
        <ele>57.9</ele>
        <time>2011-04-05T16:45:03Z</time>
      </trkpt>
      <trkpt lat="48.5766" lon="-4.44666">
        <ele>58.1</ele>
        <time>2011-04-05T16:45:04Z</time>
      </trkpt>
      <trkpt lat="48.57661" lon="-4.44668">
        <ele>58.3</ele>
        <time>2011-04-05T16:45:05Z</time>
      </trkpt>
      <trkpt lat="48.57661" lon="-4.4467">
        <ele>58.4</ele>
        <time>2011-04-05T16:45:06Z</time>
      </trkpt>
      <trkpt lat="48.57662" lon="-4.44672">
        <ele>58.9</ele>
        <time>2011-04-05T16:45:08Z</time>
      </trkpt>
      <trkpt lat="48.57663" lon="-4.44674">
        <ele>58.9</ele>
        <time>2011-04-05T16:45:08Z</time>
      </trkpt>
      <trkpt lat="48.57664" lon="-4.44676">
        <ele>58.8</ele>
        <time>2011-04-05T16:45:09Z</time>
      </trkpt>
      <trkpt lat="48.57664" lon="-4.44678">
        <ele>58.7</ele>
        <time>2011-04-05T16:45:10Z</time>
      </trkpt>
      <trkpt lat="48.57665" lon="-4.4468">
        <ele>58.8</ele>
        <time>2011-04-05T16:45:11Z</time>
      </trkpt>
      <trkpt lat="48.57666" lon="-4.44683">
        <ele>58.9</ele>
        <time>2011-04-05T16:45:12Z</time>
      </trkpt>
      <trkpt lat="48.57666" lon="-4.44685">
        <ele>58.9</ele>
        <time>2011-04-05T16:45:14Z</time>
      </trkpt>
      <trkpt lat="48.57667" lon="-4.44687">
        <ele>58.8</ele>
        <time>2011-04-05T16:45:15Z</time>
      </trkpt>
      <trkpt lat="48.57667" lon="-4.4469">
        <ele>58.9</ele>
        <time>2011-04-05T16:45:16Z</time>
      </trkpt>
      <trkpt lat="48.57668" lon="-4.44692">
        <ele>58.9</ele>
        <time>2011-04-05T16:45:16Z</time>
      </trkpt>
      <trkpt lat="48.57668" lon="-4.44695">
        <ele>59.1</ele>
        <time>2011-04-05T16:45:17Z</time>
      </trkpt>
      <trkpt lat="48.57669" lon="-4.44697">
        <ele>59</ele>
        <time>2011-04-05T16:45:19Z</time>
      </trkpt>
      <trkpt lat="48.57669" lon="-4.44699">
        <ele>59.1</ele>
        <time>2011-04-05T16:45:20Z</time>
      </trkpt>
      <trkpt lat="48.57669" lon="-4.44702">
        <ele>58.4</ele>
        <time>2011-04-05T16:45:21Z</time>
      </trkpt>
      <trkpt lat="48.5767" lon="-4.44704">
        <ele>58.6</ele>
        <time>2011-04-05T16:45:23Z</time>
      </trkpt>
      <trkpt lat="48.5767" lon="-4.44706">
        <ele>58.8</ele>
        <time>2011-04-05T16:45:24Z</time>
      </trkpt>
      <trkpt lat="48.5767" lon="-4.44708">
        <ele>59.3</ele>
        <time>2011-04-05T16:45:25Z</time>
      </trkpt>
      <trkpt lat="48.57671" lon="-4.4471">
        <ele>59.4</ele>
        <time>2011-04-05T16:45:26Z</time>
      </trkpt>
      <trkpt lat="48.57671" lon="-4.44712">
        <ele>59.6</ele>
        <time>2011-04-05T16:45:27Z</time>
      </trkpt>
      <trkpt lat="48.57672" lon="-4.44714">
        <ele>60</ele>
        <time>2011-04-05T16:45:27Z</time>
      </trkpt>
      <trkpt lat="48.57673" lon="-4.44716">
        <ele>60.1</ele>
        <time>2011-04-05T16:45:28Z</time>
      </trkpt>
      <trkpt lat="48.57672" lon="-4.44718">
        <ele>59.7</ele>
        <time>2011-04-05T16:45:29Z</time>
      </trkpt>
      <trkpt lat="48.57672" lon="-4.4472">
        <ele>59.4</ele>
        <time>2011-04-05T16:45:30Z</time>
      </trkpt>
      <trkpt lat="48.57672" lon="-4.44721">
        <ele>58.5</ele>
        <time>2011-04-05T16:45:30Z</time>
      </trkpt>
      <trkpt lat="48.57671" lon="-4.44722">
        <ele>57.6</ele>
        <time>2011-04-05T16:45:31Z</time>
      </trkpt>
      <trkpt lat="48.57671" lon="-4.44727">
        <ele>56.4</ele>
        <time>2011-04-05T16:45:32Z</time>
      </trkpt>
      <trkpt lat="48.57672" lon="-4.4473">
        <ele>57</ele>
        <time>2011-04-05T16:45:33Z</time>
      </trkpt>
      <trkpt lat="48.57672" lon="-4.44732">
        <ele>56.6</ele>
        <time>2011-04-05T16:45:34Z</time>
      </trkpt>
      <trkpt lat="48.57673" lon="-4.44735">
        <ele>57.3</ele>
        <time>2011-04-05T16:45:36Z</time>
      </trkpt>
      <trkpt lat="48.57673" lon="-4.44737">
        <ele>57.1</ele>
        <time>2011-04-05T16:45:37Z</time>
      </trkpt>
      <trkpt lat="48.57673" lon="-4.44739">
        <ele>57</ele>
        <time>2011-04-05T16:45:38Z</time>
      </trkpt>
      <trkpt lat="48.57673" lon="-4.44742">
        <ele>57.9</ele>
        <time>2011-04-05T16:45:39Z</time>
      </trkpt>
      <trkpt lat="48.57674" lon="-4.44745">
        <ele>58.2</ele>
        <time>2011-04-05T16:45:40Z</time>
      </trkpt>
      <trkpt lat="48.57674" lon="-4.44747">
        <ele>58.5</ele>
        <time>2011-04-05T16:45:41Z</time>
      </trkpt>
      <trkpt lat="48.57674" lon="-4.44749">
        <ele>58.4</ele>
        <time>2011-04-05T16:45:42Z</time>
      </trkpt>
      <trkpt lat="48.57673" lon="-4.44751">
        <ele>58.4</ele>
        <time>2011-04-05T16:45:42Z</time>
      </trkpt>
      <trkpt lat="48.57673" lon="-4.44754">
        <ele>58.5</ele>
        <time>2011-04-05T16:45:43Z</time>
      </trkpt>
      <trkpt lat="48.57673" lon="-4.44756">
        <ele>58.4</ele>
        <time>2011-04-05T16:45:44Z</time>
      </trkpt>
      <trkpt lat="48.57673" lon="-4.44758">
        <ele>58.1</ele>
        <time>2011-04-05T16:45:45Z</time>
      </trkpt>
      <trkpt lat="48.57673" lon="-4.4476">
        <ele>58.8</ele>
        <time>2011-04-05T16:45:46Z</time>
      </trkpt>
      <trkpt lat="48.57673" lon="-4.44762">
        <ele>59.2</ele>
        <time>2011-04-05T16:45:48Z</time>
      </trkpt>
      <trkpt lat="48.57674" lon="-4.44764">
        <ele>60.5</ele>
        <time>2011-04-05T16:45:48Z</time>
      </trkpt>
      <trkpt lat="48.57675" lon="-4.44766">
        <ele>61.2</ele>
        <time>2011-04-05T16:45:49Z</time>
      </trkpt>
      <trkpt lat="48.57675" lon="-4.44768">
        <ele>61.4</ele>
        <time>2011-04-05T16:45:50Z</time>
      </trkpt>
      <trkpt lat="48.57675" lon="-4.4477">
        <ele>61.1</ele>
        <time>2011-04-05T16:45:51Z</time>
      </trkpt>
      <trkpt lat="48.57675" lon="-4.44773">
        <ele>61.1</ele>
        <time>2011-04-05T16:45:53Z</time>
      </trkpt>
      <trkpt lat="48.57674" lon="-4.44775">
        <ele>61.4</ele>
        <time>2011-04-05T16:45:54Z</time>
      </trkpt>
      <trkpt lat="48.57674" lon="-4.44777">
        <ele>61.2</ele>
        <time>2011-04-05T16:45:55Z</time>
      </trkpt>
      <trkpt lat="48.57673" lon="-4.4478">
        <ele>61</ele>
        <time>2011-04-05T16:45:55Z</time>
      </trkpt>
      <trkpt lat="48.57673" lon="-4.44782">
        <ele>61.2</ele>
        <time>2011-04-05T16:45:57Z</time>
      </trkpt>
      <trkpt lat="48.57672" lon="-4.44784">
        <ele>61.1</ele>
        <time>2011-04-05T16:45:58Z</time>
      </trkpt>
      <trkpt lat="48.57672" lon="-4.44786">
        <ele>61</ele>
        <time>2011-04-05T16:46:00Z</time>
      </trkpt>
      <trkpt lat="48.57672" lon="-4.44789">
        <ele>60.7</ele>
        <time>2011-04-05T16:46:00Z</time>
      </trkpt>
      <trkpt lat="48.57671" lon="-4.44791">
        <ele>60.5</ele>
        <time>2011-04-05T16:46:01Z</time>
      </trkpt>
      <trkpt lat="48.57671" lon="-4.44793">
        <ele>60</ele>
        <time>2011-04-05T16:46:03Z</time>
      </trkpt>
      <trkpt lat="48.57671" lon="-4.44795">
        <ele>58.7</ele>
        <time>2011-04-05T16:46:04Z</time>
      </trkpt>
      <trkpt lat="48.5767" lon="-4.44797">
        <ele>58.4</ele>
        <time>2011-04-05T16:46:06Z</time>
      </trkpt>
      <trkpt lat="48.5767" lon="-4.44799">
        <ele>59.1</ele>
        <time>2011-04-05T16:46:06Z</time>
      </trkpt>
      <trkpt lat="48.5767" lon="-4.44801">
        <ele>59.2</ele>
        <time>2011-04-05T16:46:07Z</time>
      </trkpt>
      <trkpt lat="48.5767" lon="-4.44804">
        <ele>58.9</ele>
        <time>2011-04-05T16:46:08Z</time>
      </trkpt>
      <trkpt lat="48.57669" lon="-4.44806">
        <ele>58.4</ele>
        <time>2011-04-05T16:46:09Z</time>
      </trkpt>
      <trkpt lat="48.57667" lon="-4.44811">
        <ele>57.8</ele>
        <time>2011-04-05T16:46:10Z</time>
      </trkpt>
      <trkpt lat="48.57667" lon="-4.44814">
        <ele>57.4</ele>
        <time>2011-04-05T16:46:11Z</time>
      </trkpt>
      <trkpt lat="48.57666" lon="-4.44817">
        <ele>56.3</ele>
        <time>2011-04-05T16:46:12Z</time>
      </trkpt>
      <trkpt lat="48.57665" lon="-4.44819">
        <ele>56.3</ele>
        <time>2011-04-05T16:46:12Z</time>
      </trkpt>
      <trkpt lat="48.57665" lon="-4.44824">
        <ele>56.2</ele>
        <time>2011-04-05T16:46:14Z</time>
      </trkpt>
      <trkpt lat="48.57665" lon="-4.44826">
        <ele>56.5</ele>
        <time>2011-04-05T16:46:14Z</time>
      </trkpt>
      <trkpt lat="48.57665" lon="-4.44829">
        <ele>56.1</ele>
        <time>2011-04-05T16:46:15Z</time>
      </trkpt>
      <trkpt lat="48.57665" lon="-4.44831">
        <ele>56.4</ele>
        <time>2011-04-05T16:46:16Z</time>
      </trkpt>
      <trkpt lat="48.57665" lon="-4.44834">
        <ele>56.3</ele>
        <time>2011-04-05T16:46:17Z</time>
      </trkpt>
      <trkpt lat="48.57665" lon="-4.44836">
        <ele>57.1</ele>
        <time>2011-04-05T16:46:18Z</time>
      </trkpt>
      <trkpt lat="48.57665" lon="-4.44839">
        <ele>56.6</ele>
        <time>2011-04-05T16:46:19Z</time>
      </trkpt>
      <trkpt lat="48.57664" lon="-4.44841">
        <ele>56.5</ele>
        <time>2011-04-05T16:46:19Z</time>
      </trkpt>
      <trkpt lat="48.57665" lon="-4.44843">
        <ele>57.1</ele>
        <time>2011-04-05T16:46:21Z</time>
      </trkpt>
      <trkpt lat="48.57665" lon="-4.44846">
        <ele>57.1</ele>
        <time>2011-04-05T16:46:23Z</time>
      </trkpt>
      <trkpt lat="48.57665" lon="-4.44848">
        <ele>56.8</ele>
        <time>2011-04-05T16:46:24Z</time>
      </trkpt>
      <trkpt lat="48.57664" lon="-4.4485">
        <ele>57.2</ele>
        <time>2011-04-05T16:46:25Z</time>
      </trkpt>
      <trkpt lat="48.57664" lon="-4.44853">
        <ele>56.5</ele>
        <time>2011-04-05T16:46:26Z</time>
      </trkpt>
      <trkpt lat="48.57664" lon="-4.44855">
        <ele>56.4</ele>
        <time>2011-04-05T16:46:26Z</time>
      </trkpt>
      <trkpt lat="48.57664" lon="-4.44858">
        <ele>56.9</ele>
        <time>2011-04-05T16:46:28Z</time>
      </trkpt>
      <trkpt lat="48.57664" lon="-4.4486">
        <ele>57.1</ele>
        <time>2011-04-05T16:46:29Z</time>
      </trkpt>
      <trkpt lat="48.57665" lon="-4.44863">
        <ele>57.2</ele>
        <time>2011-04-05T16:46:31Z</time>
      </trkpt>
      <trkpt lat="48.57665" lon="-4.44865">
        <ele>57.6</ele>
        <time>2011-04-05T16:46:32Z</time>
      </trkpt>
      <trkpt lat="48.57664" lon="-4.44867">
        <ele>57.1</ele>
        <time>2011-04-05T16:46:33Z</time>
      </trkpt>
      <trkpt lat="48.57663" lon="-4.4487">
        <ele>57</ele>
        <time>2011-04-05T16:46:34Z</time>
      </trkpt>
      <trkpt lat="48.57663" lon="-4.44872">
        <ele>56.9</ele>
        <time>2011-04-05T16:46:35Z</time>
      </trkpt>
      <trkpt lat="48.57663" lon="-4.44874">
        <ele>56.7</ele>
        <time>2011-04-05T16:46:36Z</time>
      </trkpt>
      <trkpt lat="48.57663" lon="-4.44877">
        <ele>56.8</ele>
        <time>2011-04-05T16:46:38Z</time>
      </trkpt>
      <trkpt lat="48.57663" lon="-4.4488">
        <ele>56.9</ele>
        <time>2011-04-05T16:46:39Z</time>
      </trkpt>
      <trkpt lat="48.57663" lon="-4.44882">
        <ele>56.9</ele>
        <time>2011-04-05T16:46:40Z</time>
      </trkpt>
      <trkpt lat="48.57663" lon="-4.44885">
        <ele>57.3</ele>
        <time>2011-04-05T16:46:41Z</time>
      </trkpt>
      <trkpt lat="48.57663" lon="-4.44887">
        <ele>57.2</ele>
        <time>2011-04-05T16:46:42Z</time>
      </trkpt>
      <trkpt lat="48.57663" lon="-4.44889">
        <ele>57.3</ele>
        <time>2011-04-05T16:46:43Z</time>
      </trkpt>
      <trkpt lat="48.57663" lon="-4.44891">
        <ele>57.5</ele>
        <time>2011-04-05T16:46:45Z</time>
      </trkpt>
      <trkpt lat="48.57663" lon="-4.44894">
        <ele>57.7</ele>
        <time>2011-04-05T16:46:46Z</time>
      </trkpt>
      <trkpt lat="48.57663" lon="-4.44896">
        <ele>58</ele>
        <time>2011-04-05T16:46:47Z</time>
      </trkpt>
      <trkpt lat="48.57663" lon="-4.44898">
        <ele>58.2</ele>
        <time>2011-04-05T16:46:48Z</time>
      </trkpt>
      <trkpt lat="48.57663" lon="-4.44901">
        <ele>58.2</ele>
        <time>2011-04-05T16:46:49Z</time>
      </trkpt>
      <trkpt lat="48.57663" lon="-4.44903">
        <ele>58.6</ele>
        <time>2011-04-05T16:46:49Z</time>
      </trkpt>
      <trkpt lat="48.57663" lon="-4.44905">
        <ele>58.8</ele>
        <time>2011-04-05T16:46:50Z</time>
      </trkpt>
      <trkpt lat="48.57663" lon="-4.44908">
        <ele>59</ele>
        <time>2011-04-05T16:46:51Z</time>
      </trkpt>
      <trkpt lat="48.57663" lon="-4.4491">
        <ele>59.1</ele>
        <time>2011-04-05T16:46:52Z</time>
      </trkpt>
      <trkpt lat="48.57663" lon="-4.44912">
        <ele>59.3</ele>
        <time>2011-04-05T16:46:53Z</time>
      </trkpt>
      <trkpt lat="48.57663" lon="-4.44915">
        <ele>59.5</ele>
        <time>2011-04-05T16:46:54Z</time>
      </trkpt>
      <trkpt lat="48.57663" lon="-4.44919">
        <ele>60</ele>
        <time>2011-04-05T16:46:55Z</time>
      </trkpt>
      <trkpt lat="48.57663" lon="-4.44922">
        <ele>60.1</ele>
        <time>2011-04-05T16:46:56Z</time>
      </trkpt>
      <trkpt lat="48.57663" lon="-4.44924">
        <ele>60.3</ele>
        <time>2011-04-05T16:46:57Z</time>
      </trkpt>
      <trkpt lat="48.57663" lon="-4.44927">
        <ele>60.5</ele>
        <time>2011-04-05T16:46:57Z</time>
      </trkpt>
      <trkpt lat="48.57663" lon="-4.44929">
        <ele>60.4</ele>
        <time>2011-04-05T16:46:58Z</time>
      </trkpt>
      <trkpt lat="48.57663" lon="-4.44931">
        <ele>60.7</ele>
        <time>2011-04-05T16:47:00Z</time>
      </trkpt>
      <trkpt lat="48.57663" lon="-4.44934">
        <ele>60.6</ele>
        <time>2011-04-05T16:47:01Z</time>
      </trkpt>
      <trkpt lat="48.57663" lon="-4.44936">
        <ele>60.3</ele>
        <time>2011-04-05T16:47:02Z</time>
      </trkpt>
      <trkpt lat="48.57663" lon="-4.44939">
        <ele>60.4</ele>
        <time>2011-04-05T16:47:03Z</time>
      </trkpt>
      <trkpt lat="48.57663" lon="-4.44941">
        <ele>60.3</ele>
        <time>2011-04-05T16:47:04Z</time>
      </trkpt>
      <trkpt lat="48.57663" lon="-4.44943">
        <ele>60.1</ele>
        <time>2011-04-05T16:47:04Z</time>
      </trkpt>
      <trkpt lat="48.57663" lon="-4.44945">
        <ele>60.2</ele>
        <time>2011-04-05T16:47:05Z</time>
      </trkpt>
      <trkpt lat="48.57663" lon="-4.44948">
        <ele>60.5</ele>
        <time>2011-04-05T16:47:06Z</time>
      </trkpt>
      <trkpt lat="48.57663" lon="-4.4495">
        <ele>60.5</ele>
        <time>2011-04-05T16:47:07Z</time>
      </trkpt>
      <trkpt lat="48.57663" lon="-4.44952">
        <ele>60.2</ele>
        <time>2011-04-05T16:47:08Z</time>
      </trkpt>
      <trkpt lat="48.57663" lon="-4.44954">
        <ele>59.9</ele>
        <time>2011-04-05T16:47:09Z</time>
      </trkpt>
      <trkpt lat="48.57663" lon="-4.44957">
        <ele>60</ele>
        <time>2011-04-05T16:47:10Z</time>
      </trkpt>
      <trkpt lat="48.57663" lon="-4.44959">
        <ele>60.5</ele>
        <time>2011-04-05T16:47:10Z</time>
      </trkpt>
      <trkpt lat="48.57662" lon="-4.44962">
        <ele>60.8</ele>
        <time>2011-04-05T16:47:11Z</time>
      </trkpt>
      <trkpt lat="48.57662" lon="-4.44964">
        <ele>60.8</ele>
        <time>2011-04-05T16:47:12Z</time>
      </trkpt>
      <trkpt lat="48.57662" lon="-4.44966">
        <ele>60.2</ele>
        <time>2011-04-05T16:47:13Z</time>
      </trkpt>
      <trkpt lat="48.57662" lon="-4.44969">
        <ele>60.3</ele>
        <time>2011-04-05T16:47:14Z</time>
      </trkpt>
      <trkpt lat="48.57662" lon="-4.44971">
        <ele>60.5</ele>
        <time>2011-04-05T16:47:16Z</time>
      </trkpt>
      <trkpt lat="48.57661" lon="-4.44974">
        <ele>60.2</ele>
        <time>2011-04-05T16:47:17Z</time>
      </trkpt>
      <trkpt lat="48.57661" lon="-4.44976">
        <ele>60.1</ele>
        <time>2011-04-05T16:47:19Z</time>
      </trkpt>
      <trkpt lat="48.57662" lon="-4.44978">
        <ele>60.4</ele>
        <time>2011-04-05T16:47:20Z</time>
      </trkpt>
      <trkpt lat="48.57662" lon="-4.44981">
        <ele>60.7</ele>
        <time>2011-04-05T16:47:21Z</time>
      </trkpt>
      <trkpt lat="48.57662" lon="-4.44983">
        <ele>60.1</ele>
        <time>2011-04-05T16:47:22Z</time>
      </trkpt>
      <trkpt lat="48.57662" lon="-4.44986">
        <ele>59.8</ele>
        <time>2011-04-05T16:47:23Z</time>
      </trkpt>
      <trkpt lat="48.57662" lon="-4.44988">
        <ele>59.7</ele>
        <time>2011-04-05T16:47:24Z</time>
      </trkpt>
      <trkpt lat="48.57662" lon="-4.4499">
        <ele>59.6</ele>
        <time>2011-04-05T16:47:25Z</time>
      </trkpt>
      <trkpt lat="48.57662" lon="-4.44992">
        <ele>59.7</ele>
        <time>2011-04-05T16:47:27Z</time>
      </trkpt>
      <trkpt lat="48.57662" lon="-4.44995">
        <ele>59.7</ele>
        <time>2011-04-05T16:47:28Z</time>
      </trkpt>
      <trkpt lat="48.57662" lon="-4.44997">
        <ele>59.7</ele>
        <time>2011-04-05T16:47:29Z</time>
      </trkpt>
      <trkpt lat="48.57662" lon="-4.44999">
        <ele>59.5</ele>
        <time>2011-04-05T16:47:30Z</time>
      </trkpt>
      <trkpt lat="48.57662" lon="-4.45002">
        <ele>59.4</ele>
        <time>2011-04-05T16:47:30Z</time>
      </trkpt>
      <trkpt lat="48.57662" lon="-4.45005">
        <ele>59.5</ele>
        <time>2011-04-05T16:47:32Z</time>
      </trkpt>
      <trkpt lat="48.57662" lon="-4.45007">
        <ele>59.7</ele>
        <time>2011-04-05T16:47:33Z</time>
      </trkpt>
      <trkpt lat="48.57662" lon="-4.4501">
        <ele>59.6</ele>
        <time>2011-04-05T16:47:35Z</time>
      </trkpt>
      <trkpt lat="48.57662" lon="-4.45012">
        <ele>60.4</ele>
        <time>2011-04-05T16:47:35Z</time>
      </trkpt>
      <trkpt lat="48.57662" lon="-4.45015">
        <ele>60.6</ele>
        <time>2011-04-05T16:47:37Z</time>
      </trkpt>
      <trkpt lat="48.57663" lon="-4.4502">
        <ele>60.9</ele>
        <time>2011-04-05T16:47:37Z</time>
      </trkpt>
      <trkpt lat="48.57663" lon="-4.45022">
        <ele>60.7</ele>
        <time>2011-04-05T16:47:39Z</time>
      </trkpt>
      <trkpt lat="48.57663" lon="-4.45025">
        <ele>60.8</ele>
        <time>2011-04-05T16:47:40Z</time>
      </trkpt>
      <trkpt lat="48.57663" lon="-4.45027">
        <ele>60.7</ele>
        <time>2011-04-05T16:47:41Z</time>
      </trkpt>
      <trkpt lat="48.57663" lon="-4.4503">
        <ele>60.9</ele>
        <time>2011-04-05T16:47:42Z</time>
      </trkpt>
      <trkpt lat="48.57664" lon="-4.45032">
        <ele>61</ele>
        <time>2011-04-05T16:47:42Z</time>
      </trkpt>
      <trkpt lat="48.57664" lon="-4.45035">
        <ele>61.3</ele>
        <time>2011-04-05T16:47:44Z</time>
      </trkpt>
      <trkpt lat="48.57664" lon="-4.45037">
        <ele>61.2</ele>
        <time>2011-04-05T16:47:45Z</time>
      </trkpt>
      <trkpt lat="48.57664" lon="-4.45039">
        <ele>61.4</ele>
        <time>2011-04-05T16:47:47Z</time>
      </trkpt>
      <trkpt lat="48.57665" lon="-4.45042">
        <ele>61.1</ele>
        <time>2011-04-05T16:47:48Z</time>
      </trkpt>
      <trkpt lat="48.57665" lon="-4.45044">
        <ele>60.8</ele>
        <time>2011-04-05T16:47:49Z</time>
      </trkpt>
      <trkpt lat="48.57665" lon="-4.45046">
        <ele>60.9</ele>
        <time>2011-04-05T16:47:50Z</time>
      </trkpt>
      <trkpt lat="48.57666" lon="-4.45051">
        <ele>60.9</ele>
        <time>2011-04-05T16:47:51Z</time>
      </trkpt>
      <trkpt lat="48.57666" lon="-4.45053">
        <ele>60.9</ele>
        <time>2011-04-05T16:47:51Z</time>
      </trkpt>
      <trkpt lat="48.57666" lon="-4.45056">
        <ele>60.6</ele>
        <time>2011-04-05T16:47:52Z</time>
      </trkpt>
      <trkpt lat="48.57667" lon="-4.45058">
        <ele>60.4</ele>
        <time>2011-04-05T16:47:53Z</time>
      </trkpt>
      <trkpt lat="48.57667" lon="-4.45061">
        <ele>60.3</ele>
        <time>2011-04-05T16:47:53Z</time>
      </trkpt>
      <trkpt lat="48.57668" lon="-4.45063">
        <ele>60.5</ele>
        <time>2011-04-05T16:47:55Z</time>
      </trkpt>
      <trkpt lat="48.57668" lon="-4.45069">
        <ele>60.6</ele>
        <time>2011-04-05T16:47:55Z</time>
      </trkpt>
      <trkpt lat="48.57668" lon="-4.45071">
        <ele>60.7</ele>
        <time>2011-04-05T16:47:57Z</time>
      </trkpt>
      <trkpt lat="48.57669" lon="-4.45074">
        <ele>60.5</ele>
        <time>2011-04-05T16:47:58Z</time>
      </trkpt>
      <trkpt lat="48.57669" lon="-4.45076">
        <ele>60.5</ele>
        <time>2011-04-05T16:47:59Z</time>
      </trkpt>
      <trkpt lat="48.57669" lon="-4.45078">
        <ele>60.4</ele>
        <time>2011-04-05T16:48:00Z</time>
      </trkpt>
      <trkpt lat="48.5767" lon="-4.4508">
        <ele>60.2</ele>
        <time>2011-04-05T16:48:01Z</time>
      </trkpt>
      <trkpt lat="48.5767" lon="-4.45083">
        <ele>60.2</ele>
        <time>2011-04-05T16:48:02Z</time>
      </trkpt>
      <trkpt lat="48.57671" lon="-4.45086">
        <ele>60.9</ele>
        <time>2011-04-05T16:48:03Z</time>
      </trkpt>
      <trkpt lat="48.57671" lon="-4.45088">
        <ele>61</ele>
        <time>2011-04-05T16:48:03Z</time>
      </trkpt>
      <trkpt lat="48.57671" lon="-4.45091">
        <ele>61</ele>
        <time>2011-04-05T16:48:04Z</time>
      </trkpt>
      <trkpt lat="48.57672" lon="-4.45093">
        <ele>61</ele>
        <time>2011-04-05T16:48:05Z</time>
      </trkpt>
      <trkpt lat="48.57672" lon="-4.45096">
        <ele>61.2</ele>
        <time>2011-04-05T16:48:06Z</time>
      </trkpt>
      <trkpt lat="48.57672" lon="-4.45098">
        <ele>60.8</ele>
        <time>2011-04-05T16:48:08Z</time>
      </trkpt>
      <trkpt lat="48.57672" lon="-4.451">
        <ele>60.7</ele>
        <time>2011-04-05T16:48:09Z</time>
      </trkpt>
      <trkpt lat="48.57673" lon="-4.45102">
        <ele>60.8</ele>
        <time>2011-04-05T16:48:10Z</time>
      </trkpt>
      <trkpt lat="48.57673" lon="-4.45105">
        <ele>60.7</ele>
        <time>2011-04-05T16:48:10Z</time>
      </trkpt>
      <trkpt lat="48.57674" lon="-4.45107">
        <ele>60.6</ele>
        <time>2011-04-05T16:48:12Z</time>
      </trkpt>
      <trkpt lat="48.57674" lon="-4.45109">
        <ele>60.5</ele>
        <time>2011-04-05T16:48:13Z</time>
      </trkpt>
      <trkpt lat="48.57674" lon="-4.45111">
        <ele>60.3</ele>
        <time>2011-04-05T16:48:15Z</time>
      </trkpt>
      <trkpt lat="48.57674" lon="-4.45113">
        <ele>60.3</ele>
        <time>2011-04-05T16:48:16Z</time>
      </trkpt>
      <trkpt lat="48.57675" lon="-4.45116">
        <ele>60.4</ele>
        <time>2011-04-05T16:48:18Z</time>
      </trkpt>
      <trkpt lat="48.57675" lon="-4.45118">
        <ele>60.4</ele>
        <time>2011-04-05T16:48:18Z</time>
      </trkpt>
      <trkpt lat="48.57675" lon="-4.4512">
        <ele>60.4</ele>
        <time>2011-04-05T16:48:20Z</time>
      </trkpt>
      <trkpt lat="48.57676" lon="-4.45123">
        <ele>60.1</ele>
        <time>2011-04-05T16:48:21Z</time>
      </trkpt>
      <trkpt lat="48.57676" lon="-4.45125">
        <ele>60.2</ele>
        <time>2011-04-05T16:48:22Z</time>
      </trkpt>
      <trkpt lat="48.57676" lon="-4.45127">
        <ele>60</ele>
        <time>2011-04-05T16:48:23Z</time>
      </trkpt>
      <trkpt lat="48.57677" lon="-4.45129">
        <ele>59.6</ele>
        <time>2011-04-05T16:48:24Z</time>
      </trkpt>
      <trkpt lat="48.57677" lon="-4.45131">
        <ele>59.6</ele>
        <time>2011-04-05T16:48:24Z</time>
      </trkpt>
      <trkpt lat="48.57678" lon="-4.45133">
        <ele>59.3</ele>
        <time>2011-04-05T16:48:25Z</time>
      </trkpt>
      <trkpt lat="48.57678" lon="-4.45135">
        <ele>59.4</ele>
        <time>2011-04-05T16:48:26Z</time>
      </trkpt>
      <trkpt lat="48.57679" lon="-4.45138">
        <ele>59.6</ele>
        <time>2011-04-05T16:48:27Z</time>
      </trkpt>
      <trkpt lat="48.5768" lon="-4.4514">
        <ele>60.1</ele>
        <time>2011-04-05T16:48:27Z</time>
      </trkpt>
      <trkpt lat="48.5768" lon="-4.45145">
        <ele>60.2</ele>
        <time>2011-04-05T16:48:29Z</time>
      </trkpt>
      <trkpt lat="48.57681" lon="-4.45147">
        <ele>60.4</ele>
        <time>2011-04-05T16:48:29Z</time>
      </trkpt>
      <trkpt lat="48.57681" lon="-4.45149">
        <ele>60.3</ele>
        <time>2011-04-05T16:48:30Z</time>
      </trkpt>
      <trkpt lat="48.57682" lon="-4.45151">
        <ele>60.6</ele>
        <time>2011-04-05T16:48:31Z</time>
      </trkpt>
      <trkpt lat="48.57682" lon="-4.45153">
        <ele>60.9</ele>
        <time>2011-04-05T16:48:33Z</time>
      </trkpt>
      <trkpt lat="48.57682" lon="-4.45155">
        <ele>60.8</ele>
        <time>2011-04-05T16:48:34Z</time>
      </trkpt>
      <trkpt lat="48.57683" lon="-4.45157">
        <ele>60.8</ele>
        <time>2011-04-05T16:48:36Z</time>
      </trkpt>
      <trkpt lat="48.57683" lon="-4.4516">
        <ele>60.6</ele>
        <time>2011-04-05T16:48:37Z</time>
      </trkpt>
      <trkpt lat="48.57683" lon="-4.45162">
        <ele>60.3</ele>
        <time>2011-04-05T16:48:38Z</time>
      </trkpt>
      <trkpt lat="48.57684" lon="-4.45164">
        <ele>60.1</ele>
        <time>2011-04-05T16:48:39Z</time>
      </trkpt>
      <trkpt lat="48.57684" lon="-4.45166">
        <ele>59.6</ele>
        <time>2011-04-05T16:48:40Z</time>
      </trkpt>
      <trkpt lat="48.57685" lon="-4.45168">
        <ele>59.7</ele>
        <time>2011-04-05T16:48:41Z</time>
      </trkpt>
      <trkpt lat="48.57686" lon="-4.4517">
        <ele>59.3</ele>
        <time>2011-04-05T16:48:42Z</time>
      </trkpt>
      <trkpt lat="48.57686" lon="-4.45172">
        <ele>58.9</ele>
        <time>2011-04-05T16:48:43Z</time>
      </trkpt>
      <trkpt lat="48.57686" lon="-4.45174">
        <ele>58.9</ele>
        <time>2011-04-05T16:48:45Z</time>
      </trkpt>
      <trkpt lat="48.57687" lon="-4.45176">
        <ele>59.1</ele>
        <time>2011-04-05T16:48:45Z</time>
      </trkpt>
      <trkpt lat="48.57688" lon="-4.45178">
        <ele>59.3</ele>
        <time>2011-04-05T16:48:46Z</time>
      </trkpt>
      <trkpt lat="48.57688" lon="-4.4518">
        <ele>59.1</ele>
        <time>2011-04-05T16:48:47Z</time>
      </trkpt>
      <trkpt lat="48.57689" lon="-4.45183">
        <ele>59.1</ele>
        <time>2011-04-05T16:48:48Z</time>
      </trkpt>
      <trkpt lat="48.57689" lon="-4.45185">
        <ele>59.2</ele>
        <time>2011-04-05T16:48:49Z</time>
      </trkpt>
      <trkpt lat="48.5769" lon="-4.45187">
        <ele>59.3</ele>
        <time>2011-04-05T16:48:50Z</time>
      </trkpt>
      <trkpt lat="48.5769" lon="-4.45189">
        <ele>59.2</ele>
        <time>2011-04-05T16:48:51Z</time>
      </trkpt>
      <trkpt lat="48.57691" lon="-4.45191">
        <ele>59.3</ele>
        <time>2011-04-05T16:48:52Z</time>
      </trkpt>
      <trkpt lat="48.57692" lon="-4.45193">
        <ele>59.3</ele>
        <time>2011-04-05T16:48:53Z</time>
      </trkpt>
      <trkpt lat="48.57692" lon="-4.45195">
        <ele>59.3</ele>
        <time>2011-04-05T16:48:54Z</time>
      </trkpt>
      <trkpt lat="48.57693" lon="-4.45197">
        <ele>59.3</ele>
        <time>2011-04-05T16:48:55Z</time>
      </trkpt>
      <trkpt lat="48.57694" lon="-4.45199">
        <ele>59.2</ele>
        <time>2011-04-05T16:48:55Z</time>
      </trkpt>
      <trkpt lat="48.57694" lon="-4.45201">
        <ele>59.1</ele>
        <time>2011-04-05T16:48:56Z</time>
      </trkpt>
      <trkpt lat="48.57695" lon="-4.45203">
        <ele>58.9</ele>
        <time>2011-04-05T16:48:57Z</time>
      </trkpt>
      <trkpt lat="48.57696" lon="-4.45206">
        <ele>58.7</ele>
        <time>2011-04-05T16:48:58Z</time>
      </trkpt>
      <trkpt lat="48.57697" lon="-4.45207">
        <ele>59.1</ele>
        <time>2011-04-05T16:49:00Z</time>
      </trkpt>
      <trkpt lat="48.57698" lon="-4.4521">
        <ele>59.6</ele>
        <time>2011-04-05T16:49:01Z</time>
      </trkpt>
      <trkpt lat="48.57698" lon="-4.45212">
        <ele>59.9</ele>
        <time>2011-04-05T16:49:02Z</time>
      </trkpt>
      <trkpt lat="48.57699" lon="-4.45214">
        <ele>60.2</ele>
        <time>2011-04-05T16:49:03Z</time>
      </trkpt>
      <trkpt lat="48.577" lon="-4.45216">
        <ele>60</ele>
        <time>2011-04-05T16:49:05Z</time>
      </trkpt>
      <trkpt lat="48.57701" lon="-4.45218">
        <ele>60.3</ele>
        <time>2011-04-05T16:49:06Z</time>
      </trkpt>
      <trkpt lat="48.57702" lon="-4.4522">
        <ele>60.4</ele>
        <time>2011-04-05T16:49:07Z</time>
      </trkpt>
      <trkpt lat="48.57703" lon="-4.45223">
        <ele>60.2</ele>
        <time>2011-04-05T16:49:08Z</time>
      </trkpt>
      <trkpt lat="48.57704" lon="-4.45225">
        <ele>60.2</ele>
        <time>2011-04-05T16:49:08Z</time>
      </trkpt>
      <trkpt lat="48.57704" lon="-4.45227">
        <ele>60</ele>
        <time>2011-04-05T16:49:09Z</time>
      </trkpt>
      <trkpt lat="48.57705" lon="-4.45228">
        <ele>59.7</ele>
        <time>2011-04-05T16:49:10Z</time>
      </trkpt>
      <trkpt lat="48.57706" lon="-4.4523">
        <ele>59.3</ele>
        <time>2011-04-05T16:49:10Z</time>
      </trkpt>
      <trkpt lat="48.57707" lon="-4.45232">
        <ele>58.9</ele>
        <time>2011-04-05T16:49:11Z</time>
      </trkpt>
      <trkpt lat="48.57708" lon="-4.45234">
        <ele>58.7</ele>
        <time>2011-04-05T16:49:11Z</time>
      </trkpt>
      <trkpt lat="48.57708" lon="-4.45236">
        <ele>58.6</ele>
        <time>2011-04-05T16:49:12Z</time>
      </trkpt>
      <trkpt lat="48.57709" lon="-4.45238">
        <ele>58.5</ele>
        <time>2011-04-05T16:49:13Z</time>
      </trkpt>
      <trkpt lat="48.5771" lon="-4.45239">
        <ele>58.5</ele>
        <time>2011-04-05T16:49:13Z</time>
      </trkpt>
      <trkpt lat="48.57711" lon="-4.45241">
        <ele>58.1</ele>
        <time>2011-04-05T16:49:14Z</time>
      </trkpt>
      <trkpt lat="48.57711" lon="-4.45243">
        <ele>57.9</ele>
        <time>2011-04-05T16:49:14Z</time>
      </trkpt>
      <trkpt lat="48.57712" lon="-4.45245">
        <ele>58.1</ele>
        <time>2011-04-05T16:49:15Z</time>
      </trkpt>
      <trkpt lat="48.57713" lon="-4.45246">
        <ele>58</ele>
        <time>2011-04-05T16:49:16Z</time>
      </trkpt>
      <trkpt lat="48.57714" lon="-4.45248">
        <ele>58.1</ele>
        <time>2011-04-05T16:49:17Z</time>
      </trkpt>
      <trkpt lat="48.57715" lon="-4.4525">
        <ele>58.3</ele>
        <time>2011-04-05T16:49:18Z</time>
      </trkpt>
      <trkpt lat="48.57716" lon="-4.45251">
        <ele>58.3</ele>
        <time>2011-04-05T16:49:19Z</time>
      </trkpt>
      <trkpt lat="48.57717" lon="-4.45253">
        <ele>57.8</ele>
        <time>2011-04-05T16:49:20Z</time>
      </trkpt>
      <trkpt lat="48.57718" lon="-4.45255">
        <ele>57.2</ele>
        <time>2011-04-05T16:49:21Z</time>
      </trkpt>
      <trkpt lat="48.57719" lon="-4.45257">
        <ele>56.8</ele>
        <time>2011-04-05T16:49:21Z</time>
      </trkpt>
      <trkpt lat="48.57719" lon="-4.45258">
        <ele>56.6</ele>
        <time>2011-04-05T16:49:22Z</time>
      </trkpt>
      <trkpt lat="48.5772" lon="-4.4526">
        <ele>56.4</ele>
        <time>2011-04-05T16:49:23Z</time>
      </trkpt>
      <trkpt lat="48.57721" lon="-4.45262">
        <ele>55.8</ele>
        <time>2011-04-05T16:49:24Z</time>
      </trkpt>
      <trkpt lat="48.57722" lon="-4.45264">
        <ele>55.2</ele>
        <time>2011-04-05T16:49:25Z</time>
      </trkpt>
      <trkpt lat="48.57723" lon="-4.45265">
        <ele>54.7</ele>
        <time>2011-04-05T16:49:26Z</time>
      </trkpt>
      <trkpt lat="48.57724" lon="-4.45266">
        <ele>54.5</ele>
        <time>2011-04-05T16:49:27Z</time>
      </trkpt>
      <trkpt lat="48.57724" lon="-4.45267">
        <ele>54.5</ele>
        <time>2011-04-05T16:49:29Z</time>
      </trkpt>
      <trkpt lat="48.57724" lon="-4.45267">
        <ele>54.5</ele>
        <time>2011-04-05T16:49:35Z</time>
      </trkpt>
      <trkpt lat="48.57735" lon="-4.45276">
        <ele>55.3</ele>
        <time>2011-04-05T16:49:37Z</time>
      </trkpt>
      <trkpt lat="48.57737" lon="-4.45276">
        <ele>55.2</ele>
        <time>2011-04-05T16:49:37Z</time>
      </trkpt>
      <trkpt lat="48.57738" lon="-4.45276">
        <ele>55.2</ele>
        <time>2011-04-05T16:49:38Z</time>
      </trkpt>
      <trkpt lat="48.57739" lon="-4.45276">
        <ele>55.5</ele>
        <time>2011-04-05T16:49:39Z</time>
      </trkpt>
      <trkpt lat="48.57741" lon="-4.45276">
        <ele>55.5</ele>
        <time>2011-04-05T16:49:40Z</time>
      </trkpt>
      <trkpt lat="48.57742" lon="-4.45276">
        <ele>55.3</ele>
        <time>2011-04-05T16:49:41Z</time>
      </trkpt>
      <trkpt lat="48.57743" lon="-4.45275">
        <ele>55.4</ele>
        <time>2011-04-05T16:49:42Z</time>
      </trkpt>
      <trkpt lat="48.57745" lon="-4.45275">
        <ele>55.4</ele>
        <time>2011-04-05T16:49:43Z</time>
      </trkpt>
      <trkpt lat="48.57746" lon="-4.45274">
        <ele>55.4</ele>
        <time>2011-04-05T16:49:44Z</time>
      </trkpt>
      <trkpt lat="48.57747" lon="-4.45274">
        <ele>55.3</ele>
        <time>2011-04-05T16:49:44Z</time>
      </trkpt>
      <trkpt lat="48.57749" lon="-4.45274">
        <ele>55.4</ele>
        <time>2011-04-05T16:49:45Z</time>
      </trkpt>
      <trkpt lat="48.5775" lon="-4.45273">
        <ele>55.3</ele>
        <time>2011-04-05T16:49:46Z</time>
      </trkpt>
      <trkpt lat="48.57752" lon="-4.45273">
        <ele>55.6</ele>
        <time>2011-04-05T16:49:47Z</time>
      </trkpt>
      <trkpt lat="48.57754" lon="-4.45273">
        <ele>55.4</ele>
        <time>2011-04-05T16:49:48Z</time>
      </trkpt>
      <trkpt lat="48.57755" lon="-4.45273">
        <ele>55.2</ele>
        <time>2011-04-05T16:49:49Z</time>
      </trkpt>
      <trkpt lat="48.57757" lon="-4.45273">
        <ele>55</ele>
        <time>2011-04-05T16:49:50Z</time>
      </trkpt>
      <trkpt lat="48.57758" lon="-4.45272">
        <ele>55.3</ele>
        <time>2011-04-05T16:49:51Z</time>
      </trkpt>
      <trkpt lat="48.5776" lon="-4.45272">
        <ele>55.1</ele>
        <time>2011-04-05T16:49:52Z</time>
      </trkpt>
      <trkpt lat="48.57761" lon="-4.45272">
        <ele>55.1</ele>
        <time>2011-04-05T16:49:53Z</time>
      </trkpt>
      <trkpt lat="48.57763" lon="-4.45271">
        <ele>55.3</ele>
        <time>2011-04-05T16:49:54Z</time>
      </trkpt>
      <trkpt lat="48.57765" lon="-4.45271">
        <ele>55.3</ele>
        <time>2011-04-05T16:49:55Z</time>
      </trkpt>
      <trkpt lat="48.57767" lon="-4.45271">
        <ele>55.1</ele>
        <time>2011-04-05T16:49:56Z</time>
      </trkpt>
      <trkpt lat="48.57768" lon="-4.45271">
        <ele>54.9</ele>
        <time>2011-04-05T16:49:57Z</time>
      </trkpt>
      <trkpt lat="48.5777" lon="-4.45271">
        <ele>55.2</ele>
        <time>2011-04-05T16:49:58Z</time>
      </trkpt>
      <trkpt lat="48.57771" lon="-4.4527">
        <ele>55.3</ele>
        <time>2011-04-05T16:49:59Z</time>
      </trkpt>
      <trkpt lat="48.57773" lon="-4.4527">
        <ele>55.6</ele>
        <time>2011-04-05T16:50:01Z</time>
      </trkpt>
      <trkpt lat="48.57774" lon="-4.4527">
        <ele>55.7</ele>
        <time>2011-04-05T16:50:01Z</time>
      </trkpt>
      <trkpt lat="48.57776" lon="-4.45269">
        <ele>55.8</ele>
        <time>2011-04-05T16:50:02Z</time>
      </trkpt>
      <trkpt lat="48.57778" lon="-4.45269">
        <ele>56.1</ele>
        <time>2011-04-05T16:50:03Z</time>
      </trkpt>
      <trkpt lat="48.57779" lon="-4.45269">
        <ele>56.2</ele>
        <time>2011-04-05T16:50:04Z</time>
      </trkpt>
      <trkpt lat="48.57781" lon="-4.45269">
        <ele>56.3</ele>
        <time>2011-04-05T16:50:05Z</time>
      </trkpt>
      <trkpt lat="48.57782" lon="-4.45269">
        <ele>56.5</ele>
        <time>2011-04-05T16:50:06Z</time>
      </trkpt>
      <trkpt lat="48.57784" lon="-4.45268">
        <ele>56.7</ele>
        <time>2011-04-05T16:50:08Z</time>
      </trkpt>
      <trkpt lat="48.57785" lon="-4.45268">
        <ele>56.7</ele>
        <time>2011-04-05T16:50:09Z</time>
      </trkpt>
      <trkpt lat="48.57787" lon="-4.45268">
        <ele>56.8</ele>
        <time>2011-04-05T16:50:09Z</time>
      </trkpt>
      <trkpt lat="48.57788" lon="-4.45268">
        <ele>56.7</ele>
        <time>2011-04-05T16:50:10Z</time>
      </trkpt>
      <trkpt lat="48.57789" lon="-4.45268">
        <ele>56.8</ele>
        <time>2011-04-05T16:50:11Z</time>
      </trkpt>
      <trkpt lat="48.57791" lon="-4.45267">
        <ele>56.7</ele>
        <time>2011-04-05T16:50:12Z</time>
      </trkpt>
      <trkpt lat="48.57792" lon="-4.45267">
        <ele>56.6</ele>
        <time>2011-04-05T16:50:13Z</time>
      </trkpt>
      <trkpt lat="48.57794" lon="-4.45267">
        <ele>56.6</ele>
        <time>2011-04-05T16:50:14Z</time>
      </trkpt>
      <trkpt lat="48.57795" lon="-4.45266">
        <ele>56.8</ele>
        <time>2011-04-05T16:50:15Z</time>
      </trkpt>
      <trkpt lat="48.57797" lon="-4.45266">
        <ele>56.9</ele>
        <time>2011-04-05T16:50:16Z</time>
      </trkpt>
      <trkpt lat="48.57798" lon="-4.45266">
        <ele>56.8</ele>
        <time>2011-04-05T16:50:18Z</time>
      </trkpt>
      <trkpt lat="48.578" lon="-4.45266">
        <ele>56.8</ele>
        <time>2011-04-05T16:50:19Z</time>
      </trkpt>
      <trkpt lat="48.57801" lon="-4.45265">
        <ele>56.8</ele>
        <time>2011-04-05T16:50:19Z</time>
      </trkpt>
      <trkpt lat="48.57803" lon="-4.45265">
        <ele>56.9</ele>
        <time>2011-04-05T16:50:20Z</time>
      </trkpt>
      <trkpt lat="48.57804" lon="-4.45266">
        <ele>57.5</ele>
        <time>2011-04-05T16:50:21Z</time>
      </trkpt>
      <trkpt lat="48.57805" lon="-4.45266">
        <ele>57.4</ele>
        <time>2011-04-05T16:50:22Z</time>
      </trkpt>
      <trkpt lat="48.57807" lon="-4.45266">
        <ele>57.8</ele>
        <time>2011-04-05T16:50:23Z</time>
      </trkpt>
      <trkpt lat="48.57809" lon="-4.45266">
        <ele>57.9</ele>
        <time>2011-04-05T16:50:24Z</time>
      </trkpt>
      <trkpt lat="48.5781" lon="-4.45266">
        <ele>58.2</ele>
        <time>2011-04-05T16:50:25Z</time>
      </trkpt>
      <trkpt lat="48.57812" lon="-4.45265">
        <ele>57.1</ele>
        <time>2011-04-05T16:50:26Z</time>
      </trkpt>
      <trkpt lat="48.57813" lon="-4.45265">
        <ele>56.3</ele>
        <time>2011-04-05T16:50:27Z</time>
      </trkpt>
      <trkpt lat="48.57815" lon="-4.45264">
        <ele>56.1</ele>
        <time>2011-04-05T16:50:28Z</time>
      </trkpt>
      <trkpt lat="48.57816" lon="-4.45264">
        <ele>56.2</ele>
        <time>2011-04-05T16:50:29Z</time>
      </trkpt>
      <trkpt lat="48.57818" lon="-4.45264">
        <ele>56.4</ele>
        <time>2011-04-05T16:50:30Z</time>
      </trkpt>
      <trkpt lat="48.5782" lon="-4.45264">
        <ele>56.6</ele>
        <time>2011-04-05T16:50:31Z</time>
      </trkpt>
      <trkpt lat="48.57821" lon="-4.45264">
        <ele>56.6</ele>
        <time>2011-04-05T16:50:33Z</time>
      </trkpt>
      <trkpt lat="48.57823" lon="-4.45263">
        <ele>56.8</ele>
        <time>2011-04-05T16:50:34Z</time>
      </trkpt>
      <trkpt lat="48.57825" lon="-4.45263">
        <ele>56.7</ele>
        <time>2011-04-05T16:50:34Z</time>
      </trkpt>
      <trkpt lat="48.57826" lon="-4.45263">
        <ele>56.6</ele>
        <time>2011-04-05T16:50:35Z</time>
      </trkpt>
      <trkpt lat="48.57828" lon="-4.45263">
        <ele>56.5</ele>
        <time>2011-04-05T16:50:36Z</time>
      </trkpt>
      <trkpt lat="48.57829" lon="-4.45262">
        <ele>56.4</ele>
        <time>2011-04-05T16:50:37Z</time>
      </trkpt>
      <trkpt lat="48.5783" lon="-4.45262">
        <ele>56.5</ele>
        <time>2011-04-05T16:50:38Z</time>
      </trkpt>
      <trkpt lat="48.57832" lon="-4.45262">
        <ele>56.5</ele>
        <time>2011-04-05T16:50:39Z</time>
      </trkpt>
      <trkpt lat="48.57833" lon="-4.45262">
        <ele>56.7</ele>
        <time>2011-04-05T16:50:40Z</time>
      </trkpt>
      <trkpt lat="48.57835" lon="-4.45262">
        <ele>56.7</ele>
        <time>2011-04-05T16:50:41Z</time>
      </trkpt>
      <trkpt lat="48.57836" lon="-4.45262">
        <ele>56.8</ele>
        <time>2011-04-05T16:50:42Z</time>
      </trkpt>
      <trkpt lat="48.57837" lon="-4.45262">
        <ele>57</ele>
        <time>2011-04-05T16:50:43Z</time>
      </trkpt>
      <trkpt lat="48.57839" lon="-4.45262">
        <ele>56.9</ele>
        <time>2011-04-05T16:50:44Z</time>
      </trkpt>
      <trkpt lat="48.5784" lon="-4.45261">
        <ele>57.3</ele>
        <time>2011-04-05T16:50:45Z</time>
      </trkpt>
      <trkpt lat="48.57841" lon="-4.45261">
        <ele>57.7</ele>
        <time>2011-04-05T16:50:46Z</time>
      </trkpt>
      <trkpt lat="48.57842" lon="-4.4526">
        <ele>58</ele>
        <time>2011-04-05T16:50:48Z</time>
      </trkpt>
      <trkpt lat="48.57843" lon="-4.45259">
        <ele>58.4</ele>
        <time>2011-04-05T16:50:49Z</time>
      </trkpt>
      <trkpt lat="48.57845" lon="-4.45258">
        <ele>59.2</ele>
        <time>2011-04-05T16:50:50Z</time>
      </trkpt>
      <trkpt lat="48.57845" lon="-4.45258">
        <ele>59.2</ele>
        <time>2011-04-05T16:51:15Z</time>
      </trkpt>
      <trkpt lat="48.57866" lon="-4.45244">
        <ele>62.9</ele>
        <time>2011-04-05T16:51:17Z</time>
      </trkpt>
      <trkpt lat="48.57867" lon="-4.45245">
        <ele>62.7</ele>
        <time>2011-04-05T16:51:18Z</time>
      </trkpt>
      <trkpt lat="48.57867" lon="-4.45246">
        <ele>62.1</ele>
        <time>2011-04-05T16:51:18Z</time>
      </trkpt>
      <trkpt lat="48.57868" lon="-4.45248">
        <ele>62.2</ele>
        <time>2011-04-05T16:51:19Z</time>
      </trkpt>
      <trkpt lat="48.57869" lon="-4.45249">
        <ele>61.7</ele>
        <time>2011-04-05T16:51:20Z</time>
      </trkpt>
      <trkpt lat="48.57869" lon="-4.4525">
        <ele>61.3</ele>
        <time>2011-04-05T16:51:21Z</time>
      </trkpt>
      <trkpt lat="48.5787" lon="-4.45251">
        <ele>61.3</ele>
        <time>2011-04-05T16:51:22Z</time>
      </trkpt>
      <trkpt lat="48.57871" lon="-4.45252">
        <ele>61.3</ele>
        <time>2011-04-05T16:54:22Z</time>
      </trkpt>
      <trkpt lat="48.57835" lon="-4.45294">
        <ele>61.3</ele>
        <time>2011-04-05T17:38:48Z</time>
      </trkpt>
      <trkpt lat="48.57831" lon="-4.45222">
        <ele>16.5</ele>
        <time>2011-04-05T17:38:48Z</time>
      </trkpt>
      <trkpt lat="48.57831" lon="-4.45229">
        <ele>42.8</ele>
        <time>2011-04-05T17:38:49Z</time>
      </trkpt>
      <trkpt lat="48.57827" lon="-4.4524">
        <ele>59.2</ele>
        <time>2011-04-05T17:38:50Z</time>
      </trkpt>
      <trkpt lat="48.57825" lon="-4.45241">
        <ele>68.3</ele>
        <time>2011-04-05T17:38:52Z</time>
      </trkpt>
      <trkpt lat="48.57825" lon="-4.45241">
        <ele>68.3</ele>
        <time>2011-04-05T17:38:52Z</time>
      </trkpt>
      <trkpt lat="48.57819" lon="-4.45238">
        <ele>78.9</ele>
        <time>2011-04-05T17:38:52Z</time>
      </trkpt>
      <trkpt lat="48.57825" lon="-4.45239">
        <ele>68.9</ele>
        <time>2011-04-05T17:38:53Z</time>
      </trkpt>
      <trkpt lat="48.57827" lon="-4.45242">
        <ele>68.3</ele>
        <time>2011-04-05T17:38:54Z</time>
      </trkpt>
      <trkpt lat="48.57826" lon="-4.45241">
        <ele>63.1</ele>
        <time>2011-04-05T17:38:56Z</time>
      </trkpt>
      <trkpt lat="48.57826" lon="-4.45241">
        <ele>63.1</ele>
        <time>2011-04-05T17:40:59Z</time>
      </trkpt>
      <trkpt lat="48.57823" lon="-4.45261">
        <ele>63.1</ele>
        <time>2011-04-05T17:41:01Z</time>
      </trkpt>
      <trkpt lat="48.57822" lon="-4.45262">
        <ele>62.4</ele>
        <time>2011-04-05T17:41:02Z</time>
      </trkpt>
      <trkpt lat="48.57821" lon="-4.45263">
        <ele>62.3</ele>
        <time>2011-04-05T17:41:03Z</time>
      </trkpt>
      <trkpt lat="48.57819" lon="-4.45264">
        <ele>62.3</ele>
        <time>2011-04-05T17:41:04Z</time>
      </trkpt>
      <trkpt lat="48.57817" lon="-4.45264">
        <ele>61.8</ele>
        <time>2011-04-05T17:41:04Z</time>
      </trkpt>
      <trkpt lat="48.57816" lon="-4.45265">
        <ele>61.3</ele>
        <time>2011-04-05T17:41:05Z</time>
      </trkpt>
      <trkpt lat="48.57814" lon="-4.45265">
        <ele>62.3</ele>
        <time>2011-04-05T17:41:07Z</time>
      </trkpt>
      <trkpt lat="48.57812" lon="-4.45266">
        <ele>63</ele>
        <time>2011-04-05T17:41:07Z</time>
      </trkpt>
      <trkpt lat="48.57811" lon="-4.45267">
        <ele>63.2</ele>
        <time>2011-04-05T17:41:08Z</time>
      </trkpt>
      <trkpt lat="48.57809" lon="-4.45267">
        <ele>63.4</ele>
        <time>2011-04-05T17:41:10Z</time>
      </trkpt>
      <trkpt lat="48.57808" lon="-4.45268">
        <ele>63</ele>
        <time>2011-04-05T17:41:11Z</time>
      </trkpt>
      <trkpt lat="48.57806" lon="-4.45268">
        <ele>62.7</ele>
        <time>2011-04-05T17:41:12Z</time>
      </trkpt>
      <trkpt lat="48.57804" lon="-4.45268">
        <ele>62.5</ele>
        <time>2011-04-05T17:41:12Z</time>
      </trkpt>
      <trkpt lat="48.57803" lon="-4.45268">
        <ele>62.7</ele>
        <time>2011-04-05T17:41:13Z</time>
      </trkpt>
      <trkpt lat="48.57801" lon="-4.45268">
        <ele>63.5</ele>
        <time>2011-04-05T17:41:14Z</time>
      </trkpt>
      <trkpt lat="48.578" lon="-4.45269">
        <ele>64.3</ele>
        <time>2011-04-05T17:41:15Z</time>
      </trkpt>
      <trkpt lat="48.57798" lon="-4.45269">
        <ele>64.7</ele>
        <time>2011-04-05T17:41:17Z</time>
      </trkpt>
      <trkpt lat="48.57796" lon="-4.45269">
        <ele>64</ele>
        <time>2011-04-05T17:41:18Z</time>
      </trkpt>
      <trkpt lat="48.57795" lon="-4.45269">
        <ele>64.3</ele>
        <time>2011-04-05T17:41:19Z</time>
      </trkpt>
      <trkpt lat="48.57793" lon="-4.4527">
        <ele>63.6</ele>
        <time>2011-04-05T17:41:19Z</time>
      </trkpt>
      <trkpt lat="48.57792" lon="-4.4527">
        <ele>64.3</ele>
        <time>2011-04-05T17:41:20Z</time>
      </trkpt>
      <trkpt lat="48.5779" lon="-4.4527">
        <ele>63.3</ele>
        <time>2011-04-05T17:41:22Z</time>
      </trkpt>
      <trkpt lat="48.57788" lon="-4.45271">
        <ele>62</ele>
        <time>2011-04-05T17:41:23Z</time>
      </trkpt>
      <trkpt lat="48.57787" lon="-4.4527">
        <ele>61</ele>
        <time>2011-04-05T17:41:24Z</time>
      </trkpt>
      <trkpt lat="48.57785" lon="-4.45271">
        <ele>60.9</ele>
        <time>2011-04-05T17:41:25Z</time>
      </trkpt>
      <trkpt lat="48.57784" lon="-4.45271">
        <ele>60.5</ele>
        <time>2011-04-05T17:41:26Z</time>
      </trkpt>
      <trkpt lat="48.57782" lon="-4.45271">
        <ele>60.4</ele>
        <time>2011-04-05T17:41:27Z</time>
      </trkpt>
      <trkpt lat="48.57781" lon="-4.45271">
        <ele>59.8</ele>
        <time>2011-04-05T17:41:28Z</time>
      </trkpt>
      <trkpt lat="48.57779" lon="-4.45271">
        <ele>59.5</ele>
        <time>2011-04-05T17:41:28Z</time>
      </trkpt>
      <trkpt lat="48.57778" lon="-4.45271">
        <ele>58.4</ele>
        <time>2011-04-05T17:41:30Z</time>
      </trkpt>
      <trkpt lat="48.57776" lon="-4.4527">
        <ele>57.2</ele>
        <time>2011-04-05T17:41:30Z</time>
      </trkpt>
      <trkpt lat="48.57775" lon="-4.4527">
        <ele>56.8</ele>
        <time>2011-04-05T17:41:32Z</time>
      </trkpt>
      <trkpt lat="48.57774" lon="-4.4527">
        <ele>55.6</ele>
        <time>2011-04-05T17:41:32Z</time>
      </trkpt>
      <trkpt lat="48.57772" lon="-4.45269">
        <ele>54.6</ele>
        <time>2011-04-05T17:41:34Z</time>
      </trkpt>
      <trkpt lat="48.5777" lon="-4.45269">
        <ele>53.3</ele>
        <time>2011-04-05T17:41:35Z</time>
      </trkpt>
      <trkpt lat="48.57769" lon="-4.45269">
        <ele>52.4</ele>
        <time>2011-04-05T17:41:36Z</time>
      </trkpt>
      <trkpt lat="48.57767" lon="-4.45269">
        <ele>52.9</ele>
        <time>2011-04-05T17:41:37Z</time>
      </trkpt>
      <trkpt lat="48.57765" lon="-4.4527">
        <ele>53.2</ele>
        <time>2011-04-05T17:41:37Z</time>
      </trkpt>
      <trkpt lat="48.57763" lon="-4.45271">
        <ele>53.2</ele>
        <time>2011-04-05T17:41:39Z</time>
      </trkpt>
      <trkpt lat="48.57762" lon="-4.45272">
        <ele>54.5</ele>
        <time>2011-04-05T17:41:40Z</time>
      </trkpt>
      <trkpt lat="48.5776" lon="-4.45273">
        <ele>55.1</ele>
        <time>2011-04-05T17:41:41Z</time>
      </trkpt>
      <trkpt lat="48.57758" lon="-4.45273">
        <ele>55.1</ele>
        <time>2011-04-05T17:41:42Z</time>
      </trkpt>
      <trkpt lat="48.57757" lon="-4.45273">
        <ele>56.9</ele>
        <time>2011-04-05T17:41:43Z</time>
      </trkpt>
      <trkpt lat="48.57755" lon="-4.45274">
        <ele>57.8</ele>
        <time>2011-04-05T17:41:44Z</time>
      </trkpt>
      <trkpt lat="48.57755" lon="-4.45274">
        <ele>57.8</ele>
        <time>2011-04-05T17:41:44Z</time>
      </trkpt>
      <trkpt lat="48.57754" lon="-4.45275">
        <ele>58.6</ele>
        <time>2011-04-05T17:41:45Z</time>
      </trkpt>
      <trkpt lat="48.57752" lon="-4.45276">
        <ele>59.3</ele>
        <time>2011-04-05T17:41:46Z</time>
      </trkpt>
      <trkpt lat="48.5775" lon="-4.45276">
        <ele>58.9</ele>
        <time>2011-04-05T17:41:47Z</time>
      </trkpt>
      <trkpt lat="48.57749" lon="-4.45277">
        <ele>58.5</ele>
        <time>2011-04-05T17:41:48Z</time>
      </trkpt>
      <trkpt lat="48.57747" lon="-4.45277">
        <ele>59</ele>
        <time>2011-04-05T17:41:48Z</time>
      </trkpt>
      <trkpt lat="48.57745" lon="-4.45278">
        <ele>59.2</ele>
        <time>2011-04-05T17:41:50Z</time>
      </trkpt>
      <trkpt lat="48.57744" lon="-4.45278">
        <ele>59.4</ele>
        <time>2011-04-05T17:41:51Z</time>
      </trkpt>
      <trkpt lat="48.57743" lon="-4.45279">
        <ele>58.6</ele>
        <time>2011-04-05T17:41:52Z</time>
      </trkpt>
      <trkpt lat="48.57741" lon="-4.4528">
        <ele>58.2</ele>
        <time>2011-04-05T17:41:53Z</time>
      </trkpt>
      <trkpt lat="48.5774" lon="-4.4528">
        <ele>58.2</ele>
        <time>2011-04-05T17:41:54Z</time>
      </trkpt>
      <trkpt lat="48.57738" lon="-4.45281">
        <ele>59.6</ele>
        <time>2011-04-05T17:41:55Z</time>
      </trkpt>
      <trkpt lat="48.57736" lon="-4.45281">
        <ele>58.5</ele>
        <time>2011-04-05T17:41:56Z</time>
      </trkpt>
      <trkpt lat="48.57735" lon="-4.45281">
        <ele>57.3</ele>
        <time>2011-04-05T17:41:57Z</time>
      </trkpt>
      <trkpt lat="48.57733" lon="-4.45281">
        <ele>56.9</ele>
        <time>2011-04-05T17:41:58Z</time>
      </trkpt>
      <trkpt lat="48.57731" lon="-4.45281">
        <ele>56</ele>
        <time>2011-04-05T17:41:59Z</time>
      </trkpt>
      <trkpt lat="48.5773" lon="-4.4528">
        <ele>55.4</ele>
        <time>2011-04-05T17:42:00Z</time>
      </trkpt>
      <trkpt lat="48.57728" lon="-4.4528">
        <ele>54.9</ele>
        <time>2011-04-05T17:42:01Z</time>
      </trkpt>
      <trkpt lat="48.57727" lon="-4.4528">
        <ele>54</ele>
        <time>2011-04-05T17:42:02Z</time>
      </trkpt>
      <trkpt lat="48.57725" lon="-4.45279">
        <ele>53.6</ele>
        <time>2011-04-05T17:42:03Z</time>
      </trkpt>
      <trkpt lat="48.57723" lon="-4.4528">
        <ele>54.3</ele>
        <time>2011-04-05T17:42:04Z</time>
      </trkpt>
      <trkpt lat="48.57721" lon="-4.4528">
        <ele>54</ele>
        <time>2011-04-05T17:42:05Z</time>
      </trkpt>
      <trkpt lat="48.5772" lon="-4.4528">
        <ele>53.5</ele>
        <time>2011-04-05T17:42:06Z</time>
      </trkpt>
      <trkpt lat="48.57718" lon="-4.4528">
        <ele>52.7</ele>
        <time>2011-04-05T17:42:07Z</time>
      </trkpt>
      <trkpt lat="48.57717" lon="-4.45279">
        <ele>52.7</ele>
        <time>2011-04-05T17:42:08Z</time>
      </trkpt>
      <trkpt lat="48.57715" lon="-4.45278">
        <ele>51.7</ele>
        <time>2011-04-05T17:42:09Z</time>
      </trkpt>
      <trkpt lat="48.57713" lon="-4.45278">
        <ele>51.8</ele>
        <time>2011-04-05T17:42:10Z</time>
      </trkpt>
      <trkpt lat="48.57711" lon="-4.45279">
        <ele>52.2</ele>
        <time>2011-04-05T17:42:11Z</time>
      </trkpt>
      <trkpt lat="48.5771" lon="-4.45279">
        <ele>51.4</ele>
        <time>2011-04-05T17:42:12Z</time>
      </trkpt>
      <trkpt lat="48.57708" lon="-4.45278">
        <ele>50.9</ele>
        <time>2011-04-05T17:42:13Z</time>
      </trkpt>
      <trkpt lat="48.57707" lon="-4.45277">
        <ele>50.1</ele>
        <time>2011-04-05T17:42:14Z</time>
      </trkpt>
      <trkpt lat="48.57705" lon="-4.45277">
        <ele>49.9</ele>
        <time>2011-04-05T17:42:15Z</time>
      </trkpt>
      <trkpt lat="48.57704" lon="-4.45277">
        <ele>50.6</ele>
        <time>2011-04-05T17:42:16Z</time>
      </trkpt>
      <trkpt lat="48.57702" lon="-4.45276">
        <ele>50.5</ele>
        <time>2011-04-05T17:42:17Z</time>
      </trkpt>
      <trkpt lat="48.57701" lon="-4.45276">
        <ele>50.2</ele>
        <time>2011-04-05T17:42:18Z</time>
      </trkpt>
      <trkpt lat="48.57699" lon="-4.45275">
        <ele>50.2</ele>
        <time>2011-04-05T17:42:19Z</time>
      </trkpt>
      <trkpt lat="48.57698" lon="-4.45275">
        <ele>49.6</ele>
        <time>2011-04-05T17:42:20Z</time>
      </trkpt>
      <trkpt lat="48.57696" lon="-4.45275">
        <ele>48.4</ele>
        <time>2011-04-05T17:42:21Z</time>
      </trkpt>
      <trkpt lat="48.57694" lon="-4.45277">
        <ele>50.6</ele>
        <time>2011-04-05T17:42:22Z</time>
      </trkpt>
      <trkpt lat="48.57692" lon="-4.45279">
        <ele>52.6</ele>
        <time>2011-04-05T17:42:23Z</time>
      </trkpt>
      <trkpt lat="48.5769" lon="-4.45282">
        <ele>54.2</ele>
        <time>2011-04-05T17:42:24Z</time>
      </trkpt>
      <trkpt lat="48.57689" lon="-4.45284">
        <ele>55</ele>
        <time>2011-04-05T17:42:25Z</time>
      </trkpt>
      <trkpt lat="48.57688" lon="-4.45287">
        <ele>56</ele>
        <time>2011-04-05T17:42:26Z</time>
      </trkpt>
      <trkpt lat="48.57687" lon="-4.4529">
        <ele>57.4</ele>
        <time>2011-04-05T17:42:27Z</time>
      </trkpt>
      <trkpt lat="48.57687" lon="-4.45293">
        <ele>57.5</ele>
        <time>2011-04-05T17:42:28Z</time>
      </trkpt>
      <trkpt lat="48.57687" lon="-4.45295">
        <ele>57.7</ele>
        <time>2011-04-05T17:42:29Z</time>
      </trkpt>
      <trkpt lat="48.57688" lon="-4.45297">
        <ele>58</ele>
        <time>2011-04-05T17:42:30Z</time>
      </trkpt>
      <trkpt lat="48.57688" lon="-4.453">
        <ele>58.2</ele>
        <time>2011-04-05T17:42:31Z</time>
      </trkpt>
      <trkpt lat="48.57688" lon="-4.45302">
        <ele>58.1</ele>
        <time>2011-04-05T17:42:32Z</time>
      </trkpt>
      <trkpt lat="48.57689" lon="-4.45304">
        <ele>58.6</ele>
        <time>2011-04-05T17:42:33Z</time>
      </trkpt>
      <trkpt lat="48.57689" lon="-4.45306">
        <ele>58.5</ele>
        <time>2011-04-05T17:42:34Z</time>
      </trkpt>
      <trkpt lat="48.5769" lon="-4.45308">
        <ele>58.9</ele>
        <time>2011-04-05T17:42:35Z</time>
      </trkpt>
      <trkpt lat="48.5769" lon="-4.4531">
        <ele>58.6</ele>
        <time>2011-04-05T17:42:36Z</time>
      </trkpt>
      <trkpt lat="48.57691" lon="-4.45312">
        <ele>58.5</ele>
        <time>2011-04-05T17:42:37Z</time>
      </trkpt>
      <trkpt lat="48.57691" lon="-4.45315">
        <ele>58.7</ele>
        <time>2011-04-05T17:42:38Z</time>
      </trkpt>
      <trkpt lat="48.57692" lon="-4.45317">
        <ele>59</ele>
        <time>2011-04-05T17:42:39Z</time>
      </trkpt>
      <trkpt lat="48.57692" lon="-4.4532">
        <ele>59.4</ele>
        <time>2011-04-05T17:42:40Z</time>
      </trkpt>
      <trkpt lat="48.57693" lon="-4.45322">
        <ele>59.1</ele>
        <time>2011-04-05T17:42:41Z</time>
      </trkpt>
      <trkpt lat="48.57693" lon="-4.45324">
        <ele>59.4</ele>
        <time>2011-04-05T17:42:42Z</time>
      </trkpt>
      <trkpt lat="48.57694" lon="-4.45326">
        <ele>59.4</ele>
        <time>2011-04-05T17:42:43Z</time>
      </trkpt>
      <trkpt lat="48.57695" lon="-4.45329">
        <ele>59.8</ele>
        <time>2011-04-05T17:42:44Z</time>
      </trkpt>
      <trkpt lat="48.57696" lon="-4.45331">
        <ele>60</ele>
        <time>2011-04-05T17:42:45Z</time>
      </trkpt>
      <trkpt lat="48.57697" lon="-4.45334">
        <ele>60.4</ele>
        <time>2011-04-05T17:42:46Z</time>
      </trkpt>
      <trkpt lat="48.57698" lon="-4.45336">
        <ele>60.5</ele>
        <time>2011-04-05T17:42:47Z</time>
      </trkpt>
      <trkpt lat="48.57699" lon="-4.45338">
        <ele>60.6</ele>
        <time>2011-04-05T17:42:48Z</time>
      </trkpt>
      <trkpt lat="48.57699" lon="-4.4534">
        <ele>60.4</ele>
        <time>2011-04-05T17:42:49Z</time>
      </trkpt>
      <trkpt lat="48.577" lon="-4.45343">
        <ele>60.5</ele>
        <time>2011-04-05T17:42:50Z</time>
      </trkpt>
      <trkpt lat="48.57701" lon="-4.45345">
        <ele>60.5</ele>
        <time>2011-04-05T17:42:51Z</time>
      </trkpt>
      <trkpt lat="48.57702" lon="-4.45347">
        <ele>60.5</ele>
        <time>2011-04-05T17:42:52Z</time>
      </trkpt>
      <trkpt lat="48.57703" lon="-4.4535">
        <ele>59.5</ele>
        <time>2011-04-05T17:42:53Z</time>
      </trkpt>
      <trkpt lat="48.57704" lon="-4.45352">
        <ele>58.6</ele>
        <time>2011-04-05T17:42:54Z</time>
      </trkpt>
      <trkpt lat="48.57704" lon="-4.45355">
        <ele>58.3</ele>
        <time>2011-04-05T17:42:55Z</time>
      </trkpt>
      <trkpt lat="48.57705" lon="-4.45357">
        <ele>58.1</ele>
        <time>2011-04-05T17:42:56Z</time>
      </trkpt>
      <trkpt lat="48.57706" lon="-4.4536">
        <ele>58.4</ele>
        <time>2011-04-05T17:42:57Z</time>
      </trkpt>
      <trkpt lat="48.57706" lon="-4.45362">
        <ele>58.2</ele>
        <time>2011-04-05T17:42:58Z</time>
      </trkpt>
      <trkpt lat="48.57707" lon="-4.45364">
        <ele>58.5</ele>
        <time>2011-04-05T17:42:59Z</time>
      </trkpt>
      <trkpt lat="48.57708" lon="-4.45366">
        <ele>57.5</ele>
        <time>2011-04-05T17:43:00Z</time>
      </trkpt>
      <trkpt lat="48.57709" lon="-4.45368">
        <ele>57.2</ele>
        <time>2011-04-05T17:43:01Z</time>
      </trkpt>
      <trkpt lat="48.5771" lon="-4.4537">
        <ele>56.8</ele>
        <time>2011-04-05T17:43:02Z</time>
      </trkpt>
      <trkpt lat="48.57711" lon="-4.45372">
        <ele>56.7</ele>
        <time>2011-04-05T17:43:03Z</time>
      </trkpt>
      <trkpt lat="48.57711" lon="-4.45375">
        <ele>56.8</ele>
        <time>2011-04-05T17:43:04Z</time>
      </trkpt>
      <trkpt lat="48.57712" lon="-4.45377">
        <ele>56.8</ele>
        <time>2011-04-05T17:43:05Z</time>
      </trkpt>
      <trkpt lat="48.57713" lon="-4.4538">
        <ele>56.9</ele>
        <time>2011-04-05T17:43:06Z</time>
      </trkpt>
      <trkpt lat="48.57714" lon="-4.45383">
        <ele>56.9</ele>
        <time>2011-04-05T17:43:07Z</time>
      </trkpt>
      <trkpt lat="48.57715" lon="-4.45386">
        <ele>57</ele>
        <time>2011-04-05T17:43:08Z</time>
      </trkpt>
      <trkpt lat="48.57716" lon="-4.45388">
        <ele>57.1</ele>
        <time>2011-04-05T17:43:09Z</time>
      </trkpt>
      <trkpt lat="48.57716" lon="-4.4539">
        <ele>56.7</ele>
        <time>2011-04-05T17:43:10Z</time>
      </trkpt>
      <trkpt lat="48.57717" lon="-4.45392">
        <ele>56.8</ele>
        <time>2011-04-05T17:43:11Z</time>
      </trkpt>
      <trkpt lat="48.57718" lon="-4.45394">
        <ele>56.3</ele>
        <time>2011-04-05T17:43:12Z</time>
      </trkpt>
      <trkpt lat="48.57718" lon="-4.45396">
        <ele>56.4</ele>
        <time>2011-04-05T17:43:13Z</time>
      </trkpt>
      <trkpt lat="48.57719" lon="-4.45399">
        <ele>56.5</ele>
        <time>2011-04-05T17:43:14Z</time>
      </trkpt>
      <trkpt lat="48.57719" lon="-4.45401">
        <ele>56.6</ele>
        <time>2011-04-05T17:43:15Z</time>
      </trkpt>
      <trkpt lat="48.5772" lon="-4.45403">
        <ele>56.7</ele>
        <time>2011-04-05T17:43:16Z</time>
      </trkpt>
      <trkpt lat="48.5772" lon="-4.45406">
        <ele>56.9</ele>
        <time>2011-04-05T17:43:17Z</time>
      </trkpt>
      <trkpt lat="48.57721" lon="-4.45408">
        <ele>57</ele>
        <time>2011-04-05T17:43:19Z</time>
      </trkpt>
      <trkpt lat="48.57721" lon="-4.4541">
        <ele>57</ele>
        <time>2011-04-05T17:43:20Z</time>
      </trkpt>
      <trkpt lat="48.57722" lon="-4.45412">
        <ele>56.7</ele>
        <time>2011-04-05T17:43:21Z</time>
      </trkpt>
      <trkpt lat="48.57722" lon="-4.45414">
        <ele>55.8</ele>
        <time>2011-04-05T17:43:21Z</time>
      </trkpt>
      <trkpt lat="48.57722" lon="-4.45417">
        <ele>55.9</ele>
        <time>2011-04-05T17:43:22Z</time>
      </trkpt>
      <trkpt lat="48.57723" lon="-4.45419">
        <ele>55.4</ele>
        <time>2011-04-05T17:43:23Z</time>
      </trkpt>
      <trkpt lat="48.57723" lon="-4.45421">
        <ele>55.7</ele>
        <time>2011-04-05T17:43:24Z</time>
      </trkpt>
      <trkpt lat="48.57723" lon="-4.45423">
        <ele>55.6</ele>
        <time>2011-04-05T17:43:25Z</time>
      </trkpt>
      <trkpt lat="48.57723" lon="-4.45425">
        <ele>56.2</ele>
        <time>2011-04-05T17:43:26Z</time>
      </trkpt>
      <trkpt lat="48.57723" lon="-4.45427">
        <ele>56.3</ele>
        <time>2011-04-05T17:43:27Z</time>
      </trkpt>
      <trkpt lat="48.57723" lon="-4.4543">
        <ele>56.6</ele>
        <time>2011-04-05T17:43:29Z</time>
      </trkpt>
      <trkpt lat="48.57723" lon="-4.45433">
        <ele>56.6</ele>
        <time>2011-04-05T17:43:30Z</time>
      </trkpt>
      <trkpt lat="48.57723" lon="-4.45435">
        <ele>56.6</ele>
        <time>2011-04-05T17:43:31Z</time>
      </trkpt>
      <trkpt lat="48.57723" lon="-4.45438">
        <ele>56.4</ele>
        <time>2011-04-05T17:43:31Z</time>
      </trkpt>
      <trkpt lat="48.57723" lon="-4.4544">
        <ele>56.6</ele>
        <time>2011-04-05T17:43:33Z</time>
      </trkpt>
      <trkpt lat="48.57722" lon="-4.45442">
        <ele>56.5</ele>
        <time>2011-04-05T17:43:34Z</time>
      </trkpt>
      <trkpt lat="48.57721" lon="-4.45444">
        <ele>56.6</ele>
        <time>2011-04-05T17:43:35Z</time>
      </trkpt>
      <trkpt lat="48.57721" lon="-4.45446">
        <ele>56.5</ele>
        <time>2011-04-05T17:43:36Z</time>
      </trkpt>
      <trkpt lat="48.5772" lon="-4.45448">
        <ele>56.7</ele>
        <time>2011-04-05T17:43:37Z</time>
      </trkpt>
      <trkpt lat="48.57719" lon="-4.45449">
        <ele>56.2</ele>
        <time>2011-04-05T17:43:37Z</time>
      </trkpt>
      <trkpt lat="48.57718" lon="-4.45451">
        <ele>56.6</ele>
        <time>2011-04-05T17:43:38Z</time>
      </trkpt>
      <trkpt lat="48.57717" lon="-4.45453">
        <ele>56.9</ele>
        <time>2011-04-05T17:43:39Z</time>
      </trkpt>
      <trkpt lat="48.57716" lon="-4.45454">
        <ele>56.7</ele>
        <time>2011-04-05T17:43:40Z</time>
      </trkpt>
      <trkpt lat="48.57716" lon="-4.45456">
        <ele>55.9</ele>
        <time>2011-04-05T17:43:41Z</time>
      </trkpt>
      <trkpt lat="48.57715" lon="-4.45457">
        <ele>54.9</ele>
        <time>2011-04-05T17:43:42Z</time>
      </trkpt>
      <trkpt lat="48.57714" lon="-4.45458">
        <ele>55</ele>
        <time>2011-04-05T17:43:44Z</time>
      </trkpt>
      <trkpt lat="48.57713" lon="-4.45459">
        <ele>54.1</ele>
        <time>2011-04-05T17:43:44Z</time>
      </trkpt>
      <trkpt lat="48.57712" lon="-4.45461">
        <ele>53.7</ele>
        <time>2011-04-05T17:43:45Z</time>
      </trkpt>
      <trkpt lat="48.57711" lon="-4.45462">
        <ele>53.6</ele>
        <time>2011-04-05T17:43:46Z</time>
      </trkpt>
      <trkpt lat="48.5771" lon="-4.45463">
        <ele>53.1</ele>
        <time>2011-04-05T17:43:47Z</time>
      </trkpt>
      <trkpt lat="48.57708" lon="-4.45465">
        <ele>53.3</ele>
        <time>2011-04-05T17:43:49Z</time>
      </trkpt>
      <trkpt lat="48.57707" lon="-4.45466">
        <ele>53.9</ele>
        <time>2011-04-05T17:43:50Z</time>
      </trkpt>
      <trkpt lat="48.57706" lon="-4.45466">
        <ele>53.7</ele>
        <time>2011-04-05T17:43:51Z</time>
      </trkpt>
      <trkpt lat="48.57704" lon="-4.45467">
        <ele>52.6</ele>
        <time>2011-04-05T17:43:51Z</time>
      </trkpt>
      <trkpt lat="48.57703" lon="-4.45467">
        <ele>51.9</ele>
        <time>2011-04-05T17:43:53Z</time>
      </trkpt>
      <trkpt lat="48.57703" lon="-4.45467">
        <ele>51.9</ele>
        <time>2011-04-05T17:43:57Z</time>
      </trkpt>
      <trkpt lat="48.57695" lon="-4.45472">
        <ele>47.6</ele>
        <time>2011-04-05T17:43:58Z</time>
      </trkpt>
      <trkpt lat="48.57694" lon="-4.45473">
        <ele>47</ele>
        <time>2011-04-05T17:44:00Z</time>
      </trkpt>
      <trkpt lat="48.57692" lon="-4.45476">
        <ele>48.7</ele>
        <time>2011-04-05T17:44:01Z</time>
      </trkpt>
      <trkpt lat="48.5769" lon="-4.45478">
        <ele>50.6</ele>
        <time>2011-04-05T17:44:02Z</time>
      </trkpt>
      <trkpt lat="48.57689" lon="-4.45479">
        <ele>52.1</ele>
        <time>2011-04-05T17:44:04Z</time>
      </trkpt>
      <trkpt lat="48.57689" lon="-4.45479">
        <ele>52.1</ele>
        <time>2011-04-05T17:44:06Z</time>
      </trkpt>
      <trkpt lat="48.57683" lon="-4.45483">
        <ele>52.2</ele>
        <time>2011-04-05T17:44:07Z</time>
      </trkpt>
      <trkpt lat="48.57682" lon="-4.45483">
        <ele>51.6</ele>
        <time>2011-04-05T17:44:08Z</time>
      </trkpt>
      <trkpt lat="48.5768" lon="-4.45484">
        <ele>51.2</ele>
        <time>2011-04-05T17:44:09Z</time>
      </trkpt>
      <trkpt lat="48.57678" lon="-4.45484">
        <ele>51.1</ele>
        <time>2011-04-05T17:44:10Z</time>
      </trkpt>
      <trkpt lat="48.57675" lon="-4.45487">
        <ele>52.8</ele>
        <time>2011-04-05T17:44:11Z</time>
      </trkpt>
      <trkpt lat="48.57673" lon="-4.45489">
        <ele>52.7</ele>
        <time>2011-04-05T17:44:12Z</time>
      </trkpt>
      <trkpt lat="48.57671" lon="-4.45491">
        <ele>54.3</ele>
        <time>2011-04-05T17:44:14Z</time>
      </trkpt>
      <trkpt lat="48.57669" lon="-4.45493">
        <ele>55.8</ele>
        <time>2011-04-05T17:44:15Z</time>
      </trkpt>
      <trkpt lat="48.57668" lon="-4.45493">
        <ele>55.6</ele>
        <time>2011-04-05T17:44:15Z</time>
      </trkpt>
      <trkpt lat="48.57666" lon="-4.45494">
        <ele>55.7</ele>
        <time>2011-04-05T17:44:16Z</time>
      </trkpt>
      <trkpt lat="48.57665" lon="-4.45495">
        <ele>54.9</ele>
        <time>2011-04-05T17:44:17Z</time>
      </trkpt>
      <trkpt lat="48.57664" lon="-4.45496">
        <ele>54.1</ele>
        <time>2011-04-05T17:44:18Z</time>
      </trkpt>
      <trkpt lat="48.57662" lon="-4.45496">
        <ele>53.4</ele>
        <time>2011-04-05T17:44:19Z</time>
      </trkpt>
      <trkpt lat="48.5766" lon="-4.45497">
        <ele>52</ele>
        <time>2011-04-05T17:44:20Z</time>
      </trkpt>
      <trkpt lat="48.57659" lon="-4.45498">
        <ele>51.7</ele>
        <time>2011-04-05T17:44:21Z</time>
      </trkpt>
      <trkpt lat="48.57658" lon="-4.45499">
        <ele>51.7</ele>
        <time>2011-04-05T17:44:22Z</time>
      </trkpt>
      <trkpt lat="48.57656" lon="-4.455">
        <ele>52.1</ele>
        <time>2011-04-05T17:44:23Z</time>
      </trkpt>
      <trkpt lat="48.57655" lon="-4.45501">
        <ele>51.8</ele>
        <time>2011-04-05T17:44:24Z</time>
      </trkpt>
      <trkpt lat="48.57653" lon="-4.45502">
        <ele>51.6</ele>
        <time>2011-04-05T17:44:25Z</time>
      </trkpt>
      <trkpt lat="48.57652" lon="-4.45503">
        <ele>51.2</ele>
        <time>2011-04-05T17:44:26Z</time>
      </trkpt>
      <trkpt lat="48.5765" lon="-4.45504">
        <ele>51.8</ele>
        <time>2011-04-05T17:44:27Z</time>
      </trkpt>
      <trkpt lat="48.57648" lon="-4.45506">
        <ele>52.8</ele>
        <time>2011-04-05T17:44:27Z</time>
      </trkpt>
      <trkpt lat="48.57646" lon="-4.45507">
        <ele>53.4</ele>
        <time>2011-04-05T17:44:29Z</time>
      </trkpt>
      <trkpt lat="48.57645" lon="-4.45508">
        <ele>53.3</ele>
        <time>2011-04-05T17:44:30Z</time>
      </trkpt>
      <trkpt lat="48.57643" lon="-4.4551">
        <ele>53.7</ele>
        <time>2011-04-05T17:44:31Z</time>
      </trkpt>
      <trkpt lat="48.57642" lon="-4.45512">
        <ele>54.1</ele>
        <time>2011-04-05T17:44:32Z</time>
      </trkpt>
      <trkpt lat="48.57641" lon="-4.45514">
        <ele>54.7</ele>
        <time>2011-04-05T17:44:33Z</time>
      </trkpt>
      <trkpt lat="48.57639" lon="-4.45516">
        <ele>55.1</ele>
        <time>2011-04-05T17:44:34Z</time>
      </trkpt>
      <trkpt lat="48.57638" lon="-4.45517">
        <ele>55.3</ele>
        <time>2011-04-05T17:44:34Z</time>
      </trkpt>
      <trkpt lat="48.57637" lon="-4.45519">
        <ele>55.3</ele>
        <time>2011-04-05T17:44:35Z</time>
      </trkpt>
      <trkpt lat="48.57636" lon="-4.45521">
        <ele>55.6</ele>
        <time>2011-04-05T17:44:36Z</time>
      </trkpt>
      <trkpt lat="48.57635" lon="-4.45524">
        <ele>55.8</ele>
        <time>2011-04-05T17:44:37Z</time>
      </trkpt>
      <trkpt lat="48.57635" lon="-4.45525">
        <ele>55.7</ele>
        <time>2011-04-05T17:44:39Z</time>
      </trkpt>
      <trkpt lat="48.57634" lon="-4.45527">
        <ele>55.8</ele>
        <time>2011-04-05T17:44:40Z</time>
      </trkpt>
      <trkpt lat="48.57633" lon="-4.4553">
        <ele>55.9</ele>
        <time>2011-04-05T17:44:41Z</time>
      </trkpt>
      <trkpt lat="48.57632" lon="-4.45532">
        <ele>56.1</ele>
        <time>2011-04-05T17:44:41Z</time>
      </trkpt>
      <trkpt lat="48.57632" lon="-4.45534">
        <ele>56.2</ele>
        <time>2011-04-05T17:44:43Z</time>
      </trkpt>
      <trkpt lat="48.57631" lon="-4.45537">
        <ele>56.4</ele>
        <time>2011-04-05T17:44:44Z</time>
      </trkpt>
      <trkpt lat="48.5763" lon="-4.45539">
        <ele>56.6</ele>
        <time>2011-04-05T17:44:45Z</time>
      </trkpt>
      <trkpt lat="48.5763" lon="-4.45541">
        <ele>56.8</ele>
        <time>2011-04-05T17:44:46Z</time>
      </trkpt>
      <trkpt lat="48.57629" lon="-4.45543">
        <ele>56.9</ele>
        <time>2011-04-05T17:44:47Z</time>
      </trkpt>
      <trkpt lat="48.57628" lon="-4.45546">
        <ele>57</ele>
        <time>2011-04-05T17:44:48Z</time>
      </trkpt>
      <trkpt lat="48.57627" lon="-4.45548">
        <ele>57.3</ele>
        <time>2011-04-05T17:44:49Z</time>
      </trkpt>
      <trkpt lat="48.57627" lon="-4.4555">
        <ele>57.3</ele>
        <time>2011-04-05T17:44:50Z</time>
      </trkpt>
      <trkpt lat="48.57626" lon="-4.45553">
        <ele>57.4</ele>
        <time>2011-04-05T17:44:51Z</time>
      </trkpt>
      <trkpt lat="48.57625" lon="-4.45555">
        <ele>57.3</ele>
        <time>2011-04-05T17:44:52Z</time>
      </trkpt>
      <trkpt lat="48.57625" lon="-4.45558">
        <ele>57.5</ele>
        <time>2011-04-05T17:44:53Z</time>
      </trkpt>
      <trkpt lat="48.57624" lon="-4.4556">
        <ele>57.4</ele>
        <time>2011-04-05T17:44:55Z</time>
      </trkpt>
      <trkpt lat="48.57624" lon="-4.45562">
        <ele>57.3</ele>
        <time>2011-04-05T17:44:55Z</time>
      </trkpt>
      <trkpt lat="48.57623" lon="-4.45564">
        <ele>57.3</ele>
        <time>2011-04-05T17:44:56Z</time>
      </trkpt>
      <trkpt lat="48.57622" lon="-4.45567">
        <ele>57.6</ele>
        <time>2011-04-05T17:44:56Z</time>
      </trkpt>
      <trkpt lat="48.57621" lon="-4.45569">
        <ele>58</ele>
        <time>2011-04-05T17:44:58Z</time>
      </trkpt>
      <trkpt lat="48.57621" lon="-4.45571">
        <ele>58.3</ele>
        <time>2011-04-05T17:44:59Z</time>
      </trkpt>
      <trkpt lat="48.5762" lon="-4.45573">
        <ele>58.6</ele>
        <time>2011-04-05T17:45:00Z</time>
      </trkpt>
      <trkpt lat="48.5762" lon="-4.45576">
        <ele>58.8</ele>
        <time>2011-04-05T17:45:01Z</time>
      </trkpt>
      <trkpt lat="48.57619" lon="-4.45578">
        <ele>58.9</ele>
        <time>2011-04-05T17:45:02Z</time>
      </trkpt>
      <trkpt lat="48.57618" lon="-4.4558">
        <ele>59.1</ele>
        <time>2011-04-05T17:45:03Z</time>
      </trkpt>
      <trkpt lat="48.57618" lon="-4.45582">
        <ele>59.3</ele>
        <time>2011-04-05T17:45:03Z</time>
      </trkpt>
      <trkpt lat="48.57617" lon="-4.45585">
        <ele>59.4</ele>
        <time>2011-04-05T17:45:04Z</time>
      </trkpt>
      <trkpt lat="48.57616" lon="-4.45587">
        <ele>59.5</ele>
        <time>2011-04-05T17:45:05Z</time>
      </trkpt>
      <trkpt lat="48.57615" lon="-4.45589">
        <ele>59.5</ele>
        <time>2011-04-05T17:45:06Z</time>
      </trkpt>
      <trkpt lat="48.57615" lon="-4.45591">
        <ele>59.6</ele>
        <time>2011-04-05T17:45:07Z</time>
      </trkpt>
      <trkpt lat="48.57614" lon="-4.45593">
        <ele>59.8</ele>
        <time>2011-04-05T17:45:09Z</time>
      </trkpt>
      <trkpt lat="48.57613" lon="-4.45595">
        <ele>59.9</ele>
        <time>2011-04-05T17:45:10Z</time>
      </trkpt>
      <trkpt lat="48.57612" lon="-4.45597">
        <ele>60</ele>
        <time>2011-04-05T17:45:11Z</time>
      </trkpt>
      <trkpt lat="48.57611" lon="-4.45599">
        <ele>60</ele>
        <time>2011-04-05T17:45:12Z</time>
      </trkpt>
      <trkpt lat="48.5761" lon="-4.45601">
        <ele>60.1</ele>
        <time>2011-04-05T17:45:13Z</time>
      </trkpt>
      <trkpt lat="48.5761" lon="-4.45603">
        <ele>60.2</ele>
        <time>2011-04-05T17:45:14Z</time>
      </trkpt>
      <trkpt lat="48.57609" lon="-4.45605">
        <ele>60.3</ele>
        <time>2011-04-05T17:45:15Z</time>
      </trkpt>
      <trkpt lat="48.57608" lon="-4.45607">
        <ele>60.4</ele>
        <time>2011-04-05T17:45:16Z</time>
      </trkpt>
      <trkpt lat="48.57607" lon="-4.45609">
        <ele>60.7</ele>
        <time>2011-04-05T17:45:17Z</time>
      </trkpt>
      <trkpt lat="48.57606" lon="-4.45611">
        <ele>60.8</ele>
        <time>2011-04-05T17:45:18Z</time>
      </trkpt>
      <trkpt lat="48.57605" lon="-4.45613">
        <ele>61</ele>
        <time>2011-04-05T17:45:18Z</time>
      </trkpt>
      <trkpt lat="48.57604" lon="-4.45615">
        <ele>61</ele>
        <time>2011-04-05T17:45:19Z</time>
      </trkpt>
      <trkpt lat="48.57603" lon="-4.45617">
        <ele>61.5</ele>
        <time>2011-04-05T17:45:20Z</time>
      </trkpt>
      <trkpt lat="48.57602" lon="-4.45618">
        <ele>61.5</ele>
        <time>2011-04-05T17:45:21Z</time>
      </trkpt>
      <trkpt lat="48.57601" lon="-4.4562">
        <ele>61.7</ele>
        <time>2011-04-05T17:45:22Z</time>
      </trkpt>
      <trkpt lat="48.576" lon="-4.45622">
        <ele>60.7</ele>
        <time>2011-04-05T17:45:23Z</time>
      </trkpt>
      <trkpt lat="48.57599" lon="-4.45623">
        <ele>60.6</ele>
        <time>2011-04-05T17:45:24Z</time>
      </trkpt>
      <trkpt lat="48.57598" lon="-4.45625">
        <ele>60.3</ele>
        <time>2011-04-05T17:45:25Z</time>
      </trkpt>
      <trkpt lat="48.57597" lon="-4.45627">
        <ele>59.7</ele>
        <time>2011-04-05T17:45:26Z</time>
      </trkpt>
      <trkpt lat="48.57596" lon="-4.45629">
        <ele>59.7</ele>
        <time>2011-04-05T17:45:27Z</time>
      </trkpt>
      <trkpt lat="48.57595" lon="-4.4563">
        <ele>59.5</ele>
        <time>2011-04-05T17:45:29Z</time>
      </trkpt>
      <trkpt lat="48.57594" lon="-4.45632">
        <ele>59.2</ele>
        <time>2011-04-05T17:45:30Z</time>
      </trkpt>
      <trkpt lat="48.57593" lon="-4.45633">
        <ele>57.9</ele>
        <time>2011-04-05T17:45:31Z</time>
      </trkpt>
      <trkpt lat="48.57591" lon="-4.45634">
        <ele>57.8</ele>
        <time>2011-04-05T17:45:32Z</time>
      </trkpt>
      <trkpt lat="48.57589" lon="-4.45636">
        <ele>58.1</ele>
        <time>2011-04-05T17:45:33Z</time>
      </trkpt>
      <trkpt lat="48.57588" lon="-4.45637">
        <ele>58.4</ele>
        <time>2011-04-05T17:45:34Z</time>
      </trkpt>
      <trkpt lat="48.57587" lon="-4.45639">
        <ele>58.6</ele>
        <time>2011-04-05T17:45:35Z</time>
      </trkpt>
      <trkpt lat="48.57585" lon="-4.45641">
        <ele>58.9</ele>
        <time>2011-04-05T17:45:36Z</time>
      </trkpt>
      <trkpt lat="48.57584" lon="-4.45643">
        <ele>59.1</ele>
        <time>2011-04-05T17:45:37Z</time>
      </trkpt>
      <trkpt lat="48.57583" lon="-4.45645">
        <ele>59.4</ele>
        <time>2011-04-05T17:45:39Z</time>
      </trkpt>
      <trkpt lat="48.57582" lon="-4.45647">
        <ele>59.6</ele>
        <time>2011-04-05T17:45:39Z</time>
      </trkpt>
      <trkpt lat="48.57581" lon="-4.45648">
        <ele>59.8</ele>
        <time>2011-04-05T17:45:40Z</time>
      </trkpt>
      <trkpt lat="48.57579" lon="-4.4565">
        <ele>60.1</ele>
        <time>2011-04-05T17:45:40Z</time>
      </trkpt>
      <trkpt lat="48.57578" lon="-4.45652">
        <ele>60.4</ele>
        <time>2011-04-05T17:45:41Z</time>
      </trkpt>
      <trkpt lat="48.57577" lon="-4.45654">
        <ele>60.5</ele>
        <time>2011-04-05T17:45:42Z</time>
      </trkpt>
      <trkpt lat="48.57575" lon="-4.45656">
        <ele>60.7</ele>
        <time>2011-04-05T17:45:43Z</time>
      </trkpt>
      <trkpt lat="48.57574" lon="-4.45657">
        <ele>60.9</ele>
        <time>2011-04-05T17:45:44Z</time>
      </trkpt>
      <trkpt lat="48.57572" lon="-4.45659">
        <ele>60.9</ele>
        <time>2011-04-05T17:45:45Z</time>
      </trkpt>
      <trkpt lat="48.57571" lon="-4.45661">
        <ele>60.9</ele>
        <time>2011-04-05T17:45:46Z</time>
      </trkpt>
      <trkpt lat="48.5757" lon="-4.45663">
        <ele>61.1</ele>
        <time>2011-04-05T17:45:47Z</time>
      </trkpt>
      <trkpt lat="48.57569" lon="-4.45664">
        <ele>61.1</ele>
        <time>2011-04-05T17:45:48Z</time>
      </trkpt>
      <trkpt lat="48.57568" lon="-4.45666">
        <ele>61.2</ele>
        <time>2011-04-05T17:45:49Z</time>
      </trkpt>
      <trkpt lat="48.57567" lon="-4.45668">
        <ele>61.3</ele>
        <time>2011-04-05T17:45:50Z</time>
      </trkpt>
      <trkpt lat="48.57566" lon="-4.4567">
        <ele>61.4</ele>
        <time>2011-04-05T17:45:51Z</time>
      </trkpt>
      <trkpt lat="48.57565" lon="-4.45672">
        <ele>61.4</ele>
        <time>2011-04-05T17:45:52Z</time>
      </trkpt>
      <trkpt lat="48.57565" lon="-4.45674">
        <ele>61.7</ele>
        <time>2011-04-05T17:45:53Z</time>
      </trkpt>
      <trkpt lat="48.57564" lon="-4.45676">
        <ele>61.7</ele>
        <time>2011-04-05T17:45:54Z</time>
      </trkpt>
      <trkpt lat="48.57563" lon="-4.45679">
        <ele>61.7</ele>
        <time>2011-04-05T17:45:55Z</time>
      </trkpt>
      <trkpt lat="48.57563" lon="-4.45681">
        <ele>61.8</ele>
        <time>2011-04-05T17:45:56Z</time>
      </trkpt>
      <trkpt lat="48.57562" lon="-4.45683">
        <ele>61.8</ele>
        <time>2011-04-05T17:45:57Z</time>
      </trkpt>
      <trkpt lat="48.57562" lon="-4.45685">
        <ele>62</ele>
        <time>2011-04-05T17:45:58Z</time>
      </trkpt>
      <trkpt lat="48.57561" lon="-4.45688">
        <ele>61.9</ele>
        <time>2011-04-05T17:45:59Z</time>
      </trkpt>
      <trkpt lat="48.5756" lon="-4.4569">
        <ele>62.1</ele>
        <time>2011-04-05T17:46:00Z</time>
      </trkpt>
      <trkpt lat="48.5756" lon="-4.45692">
        <ele>62.1</ele>
        <time>2011-04-05T17:46:01Z</time>
      </trkpt>
      <trkpt lat="48.57559" lon="-4.45693">
        <ele>61.9</ele>
        <time>2011-04-05T17:46:02Z</time>
      </trkpt>
      <trkpt lat="48.57559" lon="-4.45695">
        <ele>61.9</ele>
        <time>2011-04-05T17:46:03Z</time>
      </trkpt>
      <trkpt lat="48.57558" lon="-4.45698">
        <ele>62.1</ele>
        <time>2011-04-05T17:46:04Z</time>
      </trkpt>
      <trkpt lat="48.57558" lon="-4.457">
        <ele>62</ele>
        <time>2011-04-05T17:46:05Z</time>
      </trkpt>
      <trkpt lat="48.57557" lon="-4.45702">
        <ele>62</ele>
        <time>2011-04-05T17:46:06Z</time>
      </trkpt>
      <trkpt lat="48.57557" lon="-4.45704">
        <ele>62</ele>
        <time>2011-04-05T17:46:07Z</time>
      </trkpt>
      <trkpt lat="48.57557" lon="-4.45707">
        <ele>62</ele>
        <time>2011-04-05T17:46:08Z</time>
      </trkpt>
      <trkpt lat="48.57556" lon="-4.45709">
        <ele>62.4</ele>
        <time>2011-04-05T17:46:09Z</time>
      </trkpt>
      <trkpt lat="48.57556" lon="-4.45711">
        <ele>62.5</ele>
        <time>2011-04-05T17:46:10Z</time>
      </trkpt>
      <trkpt lat="48.57555" lon="-4.45714">
        <ele>62.4</ele>
        <time>2011-04-05T17:46:11Z</time>
      </trkpt>
      <trkpt lat="48.57555" lon="-4.45716">
        <ele>62.9</ele>
        <time>2011-04-05T17:46:12Z</time>
      </trkpt>
      <trkpt lat="48.57554" lon="-4.45718">
        <ele>63.1</ele>
        <time>2011-04-05T17:46:13Z</time>
      </trkpt>
      <trkpt lat="48.57554" lon="-4.45721">
        <ele>63.4</ele>
        <time>2011-04-05T17:46:14Z</time>
      </trkpt>
      <trkpt lat="48.57553" lon="-4.45724">
        <ele>63.8</ele>
        <time>2011-04-05T17:46:15Z</time>
      </trkpt>
      <trkpt lat="48.57553" lon="-4.45726">
        <ele>64.1</ele>
        <time>2011-04-05T17:46:16Z</time>
      </trkpt>
      <trkpt lat="48.57552" lon="-4.45729">
        <ele>64.3</ele>
        <time>2011-04-05T17:46:17Z</time>
      </trkpt>
      <trkpt lat="48.57552" lon="-4.45731">
        <ele>64.5</ele>
        <time>2011-04-05T17:46:18Z</time>
      </trkpt>
      <trkpt lat="48.57552" lon="-4.45733">
        <ele>64.4</ele>
        <time>2011-04-05T17:46:19Z</time>
      </trkpt>
      <trkpt lat="48.57551" lon="-4.45736">
        <ele>64.6</ele>
        <time>2011-04-05T17:46:20Z</time>
      </trkpt>
      <trkpt lat="48.57551" lon="-4.45738">
        <ele>64.5</ele>
        <time>2011-04-05T17:46:21Z</time>
      </trkpt>
      <trkpt lat="48.57551" lon="-4.4574">
        <ele>64.5</ele>
        <time>2011-04-05T17:46:22Z</time>
      </trkpt>
      <trkpt lat="48.57551" lon="-4.45743">
        <ele>64.4</ele>
        <time>2011-04-05T17:46:23Z</time>
      </trkpt>
      <trkpt lat="48.5755" lon="-4.45745">
        <ele>64.4</ele>
        <time>2011-04-05T17:46:24Z</time>
      </trkpt>
      <trkpt lat="48.5755" lon="-4.45747">
        <ele>64.5</ele>
        <time>2011-04-05T17:46:25Z</time>
      </trkpt>
      <trkpt lat="48.5755" lon="-4.4575">
        <ele>64.3</ele>
        <time>2011-04-05T17:46:26Z</time>
      </trkpt>
      <trkpt lat="48.57549" lon="-4.45752">
        <ele>64.4</ele>
        <time>2011-04-05T17:46:27Z</time>
      </trkpt>
      <trkpt lat="48.57549" lon="-4.45754">
        <ele>64.6</ele>
        <time>2011-04-05T17:46:28Z</time>
      </trkpt>
      <trkpt lat="48.57549" lon="-4.45757">
        <ele>64.7</ele>
        <time>2011-04-05T17:46:29Z</time>
      </trkpt>
      <trkpt lat="48.57548" lon="-4.45759">
        <ele>64.5</ele>
        <time>2011-04-05T17:46:30Z</time>
      </trkpt>
      <trkpt lat="48.57548" lon="-4.45762">
        <ele>64.6</ele>
        <time>2011-04-05T17:46:31Z</time>
      </trkpt>
      <trkpt lat="48.57548" lon="-4.45765">
        <ele>64.7</ele>
        <time>2011-04-05T17:46:32Z</time>
      </trkpt>
      <trkpt lat="48.57547" lon="-4.45767">
        <ele>64.5</ele>
        <time>2011-04-05T17:46:33Z</time>
      </trkpt>
      <trkpt lat="48.57547" lon="-4.45769">
        <ele>64.4</ele>
        <time>2011-04-05T17:46:34Z</time>
      </trkpt>
      <trkpt lat="48.57547" lon="-4.45771">
        <ele>64.3</ele>
        <time>2011-04-05T17:46:35Z</time>
      </trkpt>
      <trkpt lat="48.57547" lon="-4.45774">
        <ele>64.2</ele>
        <time>2011-04-05T17:46:36Z</time>
      </trkpt>
      <trkpt lat="48.57547" lon="-4.45776">
        <ele>64.1</ele>
        <time>2011-04-05T17:46:37Z</time>
      </trkpt>
      <trkpt lat="48.57546" lon="-4.45779">
        <ele>63.4</ele>
        <time>2011-04-05T17:46:38Z</time>
      </trkpt>
      <trkpt lat="48.57546" lon="-4.45781">
        <ele>63.4</ele>
        <time>2011-04-05T17:46:39Z</time>
      </trkpt>
      <trkpt lat="48.57546" lon="-4.45784">
        <ele>63.6</ele>
        <time>2011-04-05T17:46:40Z</time>
      </trkpt>
      <trkpt lat="48.57545" lon="-4.45786">
        <ele>63.4</ele>
        <time>2011-04-05T17:46:41Z</time>
      </trkpt>
      <trkpt lat="48.57545" lon="-4.45788">
        <ele>63.3</ele>
        <time>2011-04-05T17:46:42Z</time>
      </trkpt>
      <trkpt lat="48.57545" lon="-4.4579">
        <ele>62.8</ele>
        <time>2011-04-05T17:46:43Z</time>
      </trkpt>
      <trkpt lat="48.57545" lon="-4.45792">
        <ele>62.8</ele>
        <time>2011-04-05T17:46:44Z</time>
      </trkpt>
      <trkpt lat="48.57544" lon="-4.45795">
        <ele>62.9</ele>
        <time>2011-04-05T17:46:45Z</time>
      </trkpt>
      <trkpt lat="48.57544" lon="-4.45797">
        <ele>63.2</ele>
        <time>2011-04-05T17:46:46Z</time>
      </trkpt>
      <trkpt lat="48.57543" lon="-4.458">
        <ele>63.2</ele>
        <time>2011-04-05T17:46:47Z</time>
      </trkpt>
      <trkpt lat="48.57543" lon="-4.45802">
        <ele>63.1</ele>
        <time>2011-04-05T17:46:48Z</time>
      </trkpt>
      <trkpt lat="48.57543" lon="-4.45805">
        <ele>62.8</ele>
        <time>2011-04-05T17:46:49Z</time>
      </trkpt>
      <trkpt lat="48.57543" lon="-4.45807">
        <ele>62.7</ele>
        <time>2011-04-05T17:46:50Z</time>
      </trkpt>
      <trkpt lat="48.57543" lon="-4.45809">
        <ele>63</ele>
        <time>2011-04-05T17:46:51Z</time>
      </trkpt>
      <trkpt lat="48.57542" lon="-4.45812">
        <ele>63.1</ele>
        <time>2011-04-05T17:46:52Z</time>
      </trkpt>
      <trkpt lat="48.57542" lon="-4.45814">
        <ele>63.1</ele>
        <time>2011-04-05T17:46:53Z</time>
      </trkpt>
      <trkpt lat="48.57542" lon="-4.45816">
        <ele>62.9</ele>
        <time>2011-04-05T17:46:54Z</time>
      </trkpt>
      <trkpt lat="48.57542" lon="-4.45819">
        <ele>62.9</ele>
        <time>2011-04-05T17:46:55Z</time>
      </trkpt>
      <trkpt lat="48.57542" lon="-4.45822">
        <ele>63.1</ele>
        <time>2011-04-05T17:46:56Z</time>
      </trkpt>
      <trkpt lat="48.57541" lon="-4.45824">
        <ele>63.2</ele>
        <time>2011-04-05T17:46:57Z</time>
      </trkpt>
      <trkpt lat="48.57541" lon="-4.45826">
        <ele>63.3</ele>
        <time>2011-04-05T17:46:58Z</time>
      </trkpt>
      <trkpt lat="48.57541" lon="-4.45829">
        <ele>63.1</ele>
        <time>2011-04-05T17:46:59Z</time>
      </trkpt>
      <trkpt lat="48.57541" lon="-4.45831">
        <ele>62.9</ele>
        <time>2011-04-05T17:47:00Z</time>
      </trkpt>
      <trkpt lat="48.5754" lon="-4.45834">
        <ele>62.9</ele>
        <time>2011-04-05T17:47:01Z</time>
      </trkpt>
      <trkpt lat="48.5754" lon="-4.45836">
        <ele>62.9</ele>
        <time>2011-04-05T17:47:02Z</time>
      </trkpt>
      <trkpt lat="48.5754" lon="-4.45838">
        <ele>62.9</ele>
        <time>2011-04-05T17:47:03Z</time>
      </trkpt>
      <trkpt lat="48.57539" lon="-4.4584">
        <ele>62.8</ele>
        <time>2011-04-05T17:47:04Z</time>
      </trkpt>
      <trkpt lat="48.57539" lon="-4.45843">
        <ele>62.9</ele>
        <time>2011-04-05T17:47:05Z</time>
      </trkpt>
      <trkpt lat="48.57539" lon="-4.45845">
        <ele>63</ele>
        <time>2011-04-05T17:47:06Z</time>
      </trkpt>
      <trkpt lat="48.57538" lon="-4.45847">
        <ele>63</ele>
        <time>2011-04-05T17:47:07Z</time>
      </trkpt>
      <trkpt lat="48.57538" lon="-4.45849">
        <ele>63</ele>
        <time>2011-04-05T17:47:08Z</time>
      </trkpt>
      <trkpt lat="48.57538" lon="-4.45851">
        <ele>63.1</ele>
        <time>2011-04-05T17:47:09Z</time>
      </trkpt>
      <trkpt lat="48.57538" lon="-4.45854">
        <ele>63</ele>
        <time>2011-04-05T17:47:10Z</time>
      </trkpt>
      <trkpt lat="48.57538" lon="-4.45856">
        <ele>63.2</ele>
        <time>2011-04-05T17:47:11Z</time>
      </trkpt>
      <trkpt lat="48.57537" lon="-4.45859">
        <ele>63.2</ele>
        <time>2011-04-05T17:47:12Z</time>
      </trkpt>
      <trkpt lat="48.57537" lon="-4.45861">
        <ele>63.3</ele>
        <time>2011-04-05T17:47:13Z</time>
      </trkpt>
      <trkpt lat="48.57536" lon="-4.45863">
        <ele>63.4</ele>
        <time>2011-04-05T17:47:14Z</time>
      </trkpt>
      <trkpt lat="48.57536" lon="-4.45866">
        <ele>63.4</ele>
        <time>2011-04-05T17:47:15Z</time>
      </trkpt>
      <trkpt lat="48.57536" lon="-4.45868">
        <ele>63.1</ele>
        <time>2011-04-05T17:47:16Z</time>
      </trkpt>
      <trkpt lat="48.57536" lon="-4.4587">
        <ele>62.7</ele>
        <time>2011-04-05T17:47:17Z</time>
      </trkpt>
      <trkpt lat="48.57535" lon="-4.45872">
        <ele>62.5</ele>
        <time>2011-04-05T17:47:18Z</time>
      </trkpt>
      <trkpt lat="48.57535" lon="-4.45875">
        <ele>62.5</ele>
        <time>2011-04-05T17:47:19Z</time>
      </trkpt>
      <trkpt lat="48.57535" lon="-4.45877">
        <ele>62.5</ele>
        <time>2011-04-05T17:47:20Z</time>
      </trkpt>
      <trkpt lat="48.57534" lon="-4.4588">
        <ele>62.3</ele>
        <time>2011-04-05T17:47:21Z</time>
      </trkpt>
      <trkpt lat="48.57534" lon="-4.45882">
        <ele>61.7</ele>
        <time>2011-04-05T17:47:22Z</time>
      </trkpt>
      <trkpt lat="48.57534" lon="-4.45885">
        <ele>61.9</ele>
        <time>2011-04-05T17:47:23Z</time>
      </trkpt>
      <trkpt lat="48.57533" lon="-4.45887">
        <ele>61.8</ele>
        <time>2011-04-05T17:47:24Z</time>
      </trkpt>
      <trkpt lat="48.57533" lon="-4.4589">
        <ele>61.6</ele>
        <time>2011-04-05T17:47:25Z</time>
      </trkpt>
      <trkpt lat="48.57532" lon="-4.45892">
        <ele>61.1</ele>
        <time>2011-04-05T17:47:26Z</time>
      </trkpt>
      <trkpt lat="48.57532" lon="-4.45895">
        <ele>60.5</ele>
        <time>2011-04-05T17:47:27Z</time>
      </trkpt>
      <trkpt lat="48.57532" lon="-4.45897">
        <ele>60.7</ele>
        <time>2011-04-05T17:47:28Z</time>
      </trkpt>
      <trkpt lat="48.5753" lon="-4.45899">
        <ele>60.6</ele>
        <time>2011-04-05T17:47:29Z</time>
      </trkpt>
      <trkpt lat="48.5753" lon="-4.45901">
        <ele>60.3</ele>
        <time>2011-04-05T17:47:30Z</time>
      </trkpt>
      <trkpt lat="48.57529" lon="-4.45904">
        <ele>60.5</ele>
        <time>2011-04-05T17:47:31Z</time>
      </trkpt>
      <trkpt lat="48.57529" lon="-4.45906">
        <ele>60.1</ele>
        <time>2011-04-05T17:47:32Z</time>
      </trkpt>
      <trkpt lat="48.57529" lon="-4.45909">
        <ele>60.3</ele>
        <time>2011-04-05T17:47:33Z</time>
      </trkpt>
      <trkpt lat="48.57528" lon="-4.45911">
        <ele>60.4</ele>
        <time>2011-04-05T17:47:34Z</time>
      </trkpt>
      <trkpt lat="48.57528" lon="-4.45914">
        <ele>60.1</ele>
        <time>2011-04-05T17:47:35Z</time>
      </trkpt>
      <trkpt lat="48.57527" lon="-4.45916">
        <ele>60.1</ele>
        <time>2011-04-05T17:47:36Z</time>
      </trkpt>
      <trkpt lat="48.57527" lon="-4.45919">
        <ele>60</ele>
        <time>2011-04-05T17:47:37Z</time>
      </trkpt>
      <trkpt lat="48.57527" lon="-4.45921">
        <ele>59.7</ele>
        <time>2011-04-05T17:47:38Z</time>
      </trkpt>
      <trkpt lat="48.57527" lon="-4.45923">
        <ele>59.4</ele>
        <time>2011-04-05T17:47:39Z</time>
      </trkpt>
      <trkpt lat="48.57526" lon="-4.45926">
        <ele>59.6</ele>
        <time>2011-04-05T17:47:40Z</time>
      </trkpt>
      <trkpt lat="48.57526" lon="-4.45928">
        <ele>60</ele>
        <time>2011-04-05T17:47:41Z</time>
      </trkpt>
      <trkpt lat="48.57526" lon="-4.45931">
        <ele>60.7</ele>
        <time>2011-04-05T17:47:42Z</time>
      </trkpt>
      <trkpt lat="48.57525" lon="-4.45934">
        <ele>60.6</ele>
        <time>2011-04-05T17:47:43Z</time>
      </trkpt>
      <trkpt lat="48.57524" lon="-4.45937">
        <ele>60.2</ele>
        <time>2011-04-05T17:47:44Z</time>
      </trkpt>
      <trkpt lat="48.57524" lon="-4.45939">
        <ele>60.7</ele>
        <time>2011-04-05T17:47:45Z</time>
      </trkpt>
      <trkpt lat="48.57522" lon="-4.45941">
        <ele>61.2</ele>
        <time>2011-04-05T17:47:46Z</time>
      </trkpt>
      <trkpt lat="48.57522" lon="-4.45942">
        <ele>61.2</ele>
        <time>2011-04-05T17:47:47Z</time>
      </trkpt>
      <trkpt lat="48.57521" lon="-4.45945">
        <ele>61.7</ele>
        <time>2011-04-05T17:47:48Z</time>
      </trkpt>
      <trkpt lat="48.57521" lon="-4.45947">
        <ele>62.4</ele>
        <time>2011-04-05T17:47:49Z</time>
      </trkpt>
      <trkpt lat="48.5752" lon="-4.45949">
        <ele>62.9</ele>
        <time>2011-04-05T17:47:50Z</time>
      </trkpt>
      <trkpt lat="48.5752" lon="-4.45951">
        <ele>63.4</ele>
        <time>2011-04-05T17:47:51Z</time>
      </trkpt>
      <trkpt lat="48.5752" lon="-4.45953">
        <ele>63.9</ele>
        <time>2011-04-05T17:47:52Z</time>
      </trkpt>
      <trkpt lat="48.57519" lon="-4.45956">
        <ele>63.9</ele>
        <time>2011-04-05T17:47:53Z</time>
      </trkpt>
      <trkpt lat="48.57519" lon="-4.45958">
        <ele>62</ele>
        <time>2011-04-05T17:47:54Z</time>
      </trkpt>
      <trkpt lat="48.57519" lon="-4.4596">
        <ele>62</ele>
        <time>2011-04-05T17:47:55Z</time>
      </trkpt>
      <trkpt lat="48.57519" lon="-4.45963">
        <ele>62.4</ele>
        <time>2011-04-05T17:47:56Z</time>
      </trkpt>
      <trkpt lat="48.57519" lon="-4.45965">
        <ele>62.8</ele>
        <time>2011-04-05T17:47:58Z</time>
      </trkpt>
      <trkpt lat="48.57519" lon="-4.45968">
        <ele>63.1</ele>
        <time>2011-04-05T17:47:58Z</time>
      </trkpt>
      <trkpt lat="48.57519" lon="-4.4597">
        <ele>62.3</ele>
        <time>2011-04-05T17:47:59Z</time>
      </trkpt>
      <trkpt lat="48.57518" lon="-4.45972">
        <ele>61.9</ele>
        <time>2011-04-05T17:48:00Z</time>
      </trkpt>
      <trkpt lat="48.57518" lon="-4.45974">
        <ele>60.4</ele>
        <time>2011-04-05T17:48:01Z</time>
      </trkpt>
      <trkpt lat="48.57518" lon="-4.45976">
        <ele>59.4</ele>
        <time>2011-04-05T17:48:03Z</time>
      </trkpt>
      <trkpt lat="48.57516" lon="-4.45979">
        <ele>60.3</ele>
        <time>2011-04-05T17:48:04Z</time>
      </trkpt>
      <trkpt lat="48.57515" lon="-4.45981">
        <ele>61.1</ele>
        <time>2011-04-05T17:48:05Z</time>
      </trkpt>
      <trkpt lat="48.57513" lon="-4.45983">
        <ele>62.1</ele>
        <time>2011-04-05T17:48:06Z</time>
      </trkpt>
      <trkpt lat="48.57511" lon="-4.45984">
        <ele>63.1</ele>
        <time>2011-04-05T17:48:07Z</time>
      </trkpt>
      <trkpt lat="48.57509" lon="-4.45984">
        <ele>62.2</ele>
        <time>2011-04-05T17:48:08Z</time>
      </trkpt>
      <trkpt lat="48.57508" lon="-4.45984">
        <ele>61.7</ele>
        <time>2011-04-05T17:48:09Z</time>
      </trkpt>
      <trkpt lat="48.57506" lon="-4.45983">
        <ele>61.3</ele>
        <time>2011-04-05T17:48:10Z</time>
      </trkpt>
      <trkpt lat="48.57505" lon="-4.45983">
        <ele>61.6</ele>
        <time>2011-04-05T17:48:11Z</time>
      </trkpt>
      <trkpt lat="48.57503" lon="-4.45982">
        <ele>62</ele>
        <time>2011-04-05T17:48:12Z</time>
      </trkpt>
      <trkpt lat="48.57501" lon="-4.45981">
        <ele>62.2</ele>
        <time>2011-04-05T17:48:12Z</time>
      </trkpt>
      <trkpt lat="48.57499" lon="-4.4598">
        <ele>62.7</ele>
        <time>2011-04-05T17:48:13Z</time>
      </trkpt>
      <trkpt lat="48.57498" lon="-4.45979">
        <ele>62.1</ele>
        <time>2011-04-05T17:48:14Z</time>
      </trkpt>
      <trkpt lat="48.57496" lon="-4.45977">
        <ele>61.6</ele>
        <time>2011-04-05T17:48:15Z</time>
      </trkpt>
      <trkpt lat="48.57494" lon="-4.45976">
        <ele>61.6</ele>
        <time>2011-04-05T17:48:16Z</time>
      </trkpt>
      <trkpt lat="48.57493" lon="-4.45974">
        <ele>60.1</ele>
        <time>2011-04-05T17:48:18Z</time>
      </trkpt>
      <trkpt lat="48.57491" lon="-4.45973">
        <ele>60.3</ele>
        <time>2011-04-05T17:48:18Z</time>
      </trkpt>
      <trkpt lat="48.5749" lon="-4.45971">
        <ele>59.5</ele>
        <time>2011-04-05T17:48:19Z</time>
      </trkpt>
      <trkpt lat="48.57488" lon="-4.45969">
        <ele>58.5</ele>
        <time>2011-04-05T17:48:20Z</time>
      </trkpt>
      <trkpt lat="48.57487" lon="-4.45967">
        <ele>57.5</ele>
        <time>2011-04-05T17:48:21Z</time>
      </trkpt>
      <trkpt lat="48.57485" lon="-4.45966">
        <ele>57</ele>
        <time>2011-04-05T17:48:23Z</time>
      </trkpt>
      <trkpt lat="48.57484" lon="-4.45964">
        <ele>57</ele>
        <time>2011-04-05T17:48:24Z</time>
      </trkpt>
      <trkpt lat="48.57483" lon="-4.45963">
        <ele>57</ele>
        <time>2011-04-05T17:48:25Z</time>
      </trkpt>
      <trkpt lat="48.57482" lon="-4.45961">
        <ele>56.2</ele>
        <time>2011-04-05T17:48:26Z</time>
      </trkpt>
      <trkpt lat="48.5748" lon="-4.45959">
        <ele>55.5</ele>
        <time>2011-04-05T17:48:27Z</time>
      </trkpt>
      <trkpt lat="48.57479" lon="-4.45957">
        <ele>55.3</ele>
        <time>2011-04-05T17:48:28Z</time>
      </trkpt>
      <trkpt lat="48.57478" lon="-4.45956">
        <ele>55.3</ele>
        <time>2011-04-05T17:48:29Z</time>
      </trkpt>
      <trkpt lat="48.57477" lon="-4.45954">
        <ele>54.9</ele>
        <time>2011-04-05T17:48:30Z</time>
      </trkpt>
      <trkpt lat="48.57475" lon="-4.45952">
        <ele>54.3</ele>
        <time>2011-04-05T17:48:31Z</time>
      </trkpt>
      <trkpt lat="48.57474" lon="-4.45951">
        <ele>53.7</ele>
        <time>2011-04-05T17:48:32Z</time>
      </trkpt>
      <trkpt lat="48.57473" lon="-4.45949">
        <ele>53.4</ele>
        <time>2011-04-05T17:48:32Z</time>
      </trkpt>
      <trkpt lat="48.57472" lon="-4.45948">
        <ele>53.3</ele>
        <time>2011-04-05T17:48:33Z</time>
      </trkpt>
      <trkpt lat="48.57471" lon="-4.45946">
        <ele>52.8</ele>
        <time>2011-04-05T17:48:34Z</time>
      </trkpt>
      <trkpt lat="48.5747" lon="-4.45945">
        <ele>52.4</ele>
        <time>2011-04-05T17:48:35Z</time>
      </trkpt>
      <trkpt lat="48.57468" lon="-4.45943">
        <ele>51.5</ele>
        <time>2011-04-05T17:48:36Z</time>
      </trkpt>
      <trkpt lat="48.57467" lon="-4.45941">
        <ele>51</ele>
        <time>2011-04-05T17:48:37Z</time>
      </trkpt>
      <trkpt lat="48.57466" lon="-4.45939">
        <ele>50.8</ele>
        <time>2011-04-05T17:48:39Z</time>
      </trkpt>
      <trkpt lat="48.57465" lon="-4.45938">
        <ele>50.6</ele>
        <time>2011-04-05T17:48:40Z</time>
      </trkpt>
      <trkpt lat="48.57464" lon="-4.45936">
        <ele>50.3</ele>
        <time>2011-04-05T17:48:41Z</time>
      </trkpt>
      <trkpt lat="48.57463" lon="-4.45934">
        <ele>49.7</ele>
        <time>2011-04-05T17:48:42Z</time>
      </trkpt>
      <trkpt lat="48.57462" lon="-4.45932">
        <ele>49.5</ele>
        <time>2011-04-05T17:48:43Z</time>
      </trkpt>
      <trkpt lat="48.5746" lon="-4.45931">
        <ele>49.2</ele>
        <time>2011-04-05T17:48:44Z</time>
      </trkpt>
      <trkpt lat="48.57459" lon="-4.45929">
        <ele>48.9</ele>
        <time>2011-04-05T17:48:45Z</time>
      </trkpt>
      <trkpt lat="48.57458" lon="-4.45927">
        <ele>48.5</ele>
        <time>2011-04-05T17:48:46Z</time>
      </trkpt>
      <trkpt lat="48.57456" lon="-4.45926">
        <ele>48.3</ele>
        <time>2011-04-05T17:48:47Z</time>
      </trkpt>
      <trkpt lat="48.57455" lon="-4.45924">
        <ele>47.9</ele>
        <time>2011-04-05T17:48:49Z</time>
      </trkpt>
      <trkpt lat="48.57454" lon="-4.45922">
        <ele>47.6</ele>
        <time>2011-04-05T17:48:49Z</time>
      </trkpt>
      <trkpt lat="48.57453" lon="-4.4592">
        <ele>46.9</ele>
        <time>2011-04-05T17:48:50Z</time>
      </trkpt>
      <trkpt lat="48.57451" lon="-4.45919">
        <ele>46.5</ele>
        <time>2011-04-05T17:48:51Z</time>
      </trkpt>
      <trkpt lat="48.5745" lon="-4.45917">
        <ele>46.5</ele>
        <time>2011-04-05T17:48:52Z</time>
      </trkpt>
      <trkpt lat="48.57448" lon="-4.45916">
        <ele>46.4</ele>
        <time>2011-04-05T17:48:53Z</time>
      </trkpt>
      <trkpt lat="48.57447" lon="-4.45914">
        <ele>46.3</ele>
        <time>2011-04-05T17:48:55Z</time>
      </trkpt>
      <trkpt lat="48.57446" lon="-4.45913">
        <ele>45.9</ele>
        <time>2011-04-05T17:48:56Z</time>
      </trkpt>
      <trkpt lat="48.57445" lon="-4.45911">
        <ele>45.7</ele>
        <time>2011-04-05T17:48:57Z</time>
      </trkpt>
      <trkpt lat="48.57443" lon="-4.4591">
        <ele>45.6</ele>
        <time>2011-04-05T17:48:58Z</time>
      </trkpt>
      <trkpt lat="48.57442" lon="-4.45909">
        <ele>46.8</ele>
        <time>2011-04-05T17:48:59Z</time>
      </trkpt>
      <trkpt lat="48.57441" lon="-4.45907">
        <ele>47.2</ele>
        <time>2011-04-05T17:49:00Z</time>
      </trkpt>
      <trkpt lat="48.5744" lon="-4.45906">
        <ele>47.9</ele>
        <time>2011-04-05T17:49:01Z</time>
      </trkpt>
      <trkpt lat="48.57439" lon="-4.45905">
        <ele>48.2</ele>
        <time>2011-04-05T17:49:02Z</time>
      </trkpt>
      <trkpt lat="48.57438" lon="-4.45903">
        <ele>48.6</ele>
        <time>2011-04-05T17:49:03Z</time>
      </trkpt>
      <trkpt lat="48.57437" lon="-4.45902">
        <ele>48.5</ele>
        <time>2011-04-05T17:49:03Z</time>
      </trkpt>
      <trkpt lat="48.57436" lon="-4.459">
        <ele>49.3</ele>
        <time>2011-04-05T17:49:04Z</time>
      </trkpt>
      <trkpt lat="48.57435" lon="-4.45898">
        <ele>50.1</ele>
        <time>2011-04-05T17:49:05Z</time>
      </trkpt>
      <trkpt lat="48.57433" lon="-4.45896">
        <ele>50.5</ele>
        <time>2011-04-05T17:49:06Z</time>
      </trkpt>
      <trkpt lat="48.57432" lon="-4.45895">
        <ele>50.3</ele>
        <time>2011-04-05T17:49:07Z</time>
      </trkpt>
      <trkpt lat="48.57431" lon="-4.45893">
        <ele>50</ele>
        <time>2011-04-05T17:49:08Z</time>
      </trkpt>
      <trkpt lat="48.5743" lon="-4.45892">
        <ele>50.3</ele>
        <time>2011-04-05T17:49:09Z</time>
      </trkpt>
      <trkpt lat="48.57429" lon="-4.4589">
        <ele>50.3</ele>
        <time>2011-04-05T17:49:10Z</time>
      </trkpt>
      <trkpt lat="48.57427" lon="-4.45889">
        <ele>50.2</ele>
        <time>2011-04-05T17:49:10Z</time>
      </trkpt>
      <trkpt lat="48.57426" lon="-4.45887">
        <ele>49</ele>
        <time>2011-04-05T17:49:11Z</time>
      </trkpt>
      <trkpt lat="48.57425" lon="-4.45886">
        <ele>49.7</ele>
        <time>2011-04-05T17:49:12Z</time>
      </trkpt>
      <trkpt lat="48.57423" lon="-4.45884">
        <ele>49.4</ele>
        <time>2011-04-05T17:49:13Z</time>
      </trkpt>
      <trkpt lat="48.57422" lon="-4.45882">
        <ele>49.2</ele>
        <time>2011-04-05T17:49:15Z</time>
      </trkpt>
      <trkpt lat="48.57421" lon="-4.45881">
        <ele>48.9</ele>
        <time>2011-04-05T17:49:16Z</time>
      </trkpt>
      <trkpt lat="48.57419" lon="-4.45879">
        <ele>48.6</ele>
        <time>2011-04-05T17:49:17Z</time>
      </trkpt>
      <trkpt lat="48.57418" lon="-4.45878">
        <ele>48.1</ele>
        <time>2011-04-05T17:49:19Z</time>
      </trkpt>
      <trkpt lat="48.57417" lon="-4.45876">
        <ele>47.7</ele>
        <time>2011-04-05T17:49:19Z</time>
      </trkpt>
      <trkpt lat="48.57415" lon="-4.45875">
        <ele>47.5</ele>
        <time>2011-04-05T17:49:20Z</time>
      </trkpt>
      <trkpt lat="48.57414" lon="-4.45874">
        <ele>47.6</ele>
        <time>2011-04-05T17:49:21Z</time>
      </trkpt>
      <trkpt lat="48.57412" lon="-4.45873">
        <ele>48.5</ele>
        <time>2011-04-05T17:49:22Z</time>
      </trkpt>
      <trkpt lat="48.57411" lon="-4.45871">
        <ele>48.4</ele>
        <time>2011-04-05T17:49:23Z</time>
      </trkpt>
      <trkpt lat="48.5741" lon="-4.4587">
        <ele>48.9</ele>
        <time>2011-04-05T17:49:25Z</time>
      </trkpt>
      <trkpt lat="48.57409" lon="-4.45868">
        <ele>48</ele>
        <time>2011-04-05T17:49:26Z</time>
      </trkpt>
      <trkpt lat="48.57407" lon="-4.45867">
        <ele>47.5</ele>
        <time>2011-04-05T17:49:28Z</time>
      </trkpt>
      <trkpt lat="48.57406" lon="-4.45865">
        <ele>47.4</ele>
        <time>2011-04-05T17:49:28Z</time>
      </trkpt>
      <trkpt lat="48.57404" lon="-4.45864">
        <ele>47.8</ele>
        <time>2011-04-05T17:49:30Z</time>
      </trkpt>
      <trkpt lat="48.57403" lon="-4.45862">
        <ele>47.6</ele>
        <time>2011-04-05T17:49:31Z</time>
      </trkpt>
      <trkpt lat="48.57402" lon="-4.45861">
        <ele>47.4</ele>
        <time>2011-04-05T17:49:33Z</time>
      </trkpt>
      <trkpt lat="48.574" lon="-4.4586">
        <ele>47.5</ele>
        <time>2011-04-05T17:49:34Z</time>
      </trkpt>
      <trkpt lat="48.57399" lon="-4.45859">
        <ele>46.9</ele>
        <time>2011-04-05T17:49:35Z</time>
      </trkpt>
      <trkpt lat="48.57397" lon="-4.45858">
        <ele>47</ele>
        <time>2011-04-05T17:49:36Z</time>
      </trkpt>
      <trkpt lat="48.57396" lon="-4.45857">
        <ele>47.1</ele>
        <time>2011-04-05T17:49:36Z</time>
      </trkpt>
      <trkpt lat="48.57394" lon="-4.45856">
        <ele>46.8</ele>
        <time>2011-04-05T17:49:37Z</time>
      </trkpt>
      <trkpt lat="48.57393" lon="-4.45855">
        <ele>46.8</ele>
        <time>2011-04-05T17:49:38Z</time>
      </trkpt>
      <trkpt lat="48.57392" lon="-4.45854">
        <ele>47</ele>
        <time>2011-04-05T17:49:39Z</time>
      </trkpt>
      <trkpt lat="48.57391" lon="-4.45852">
        <ele>47.2</ele>
        <time>2011-04-05T17:49:41Z</time>
      </trkpt>
      <trkpt lat="48.57389" lon="-4.45851">
        <ele>47.1</ele>
        <time>2011-04-05T17:49:42Z</time>
      </trkpt>
      <trkpt lat="48.57388" lon="-4.45849">
        <ele>46.9</ele>
        <time>2011-04-05T17:49:43Z</time>
      </trkpt>
      <trkpt lat="48.57387" lon="-4.45848">
        <ele>46.5</ele>
        <time>2011-04-05T17:49:44Z</time>
      </trkpt>
      <trkpt lat="48.57385" lon="-4.45847">
        <ele>45.6</ele>
        <time>2011-04-05T17:49:44Z</time>
      </trkpt>
      <trkpt lat="48.57384" lon="-4.45846">
        <ele>45.6</ele>
        <time>2011-04-05T17:49:46Z</time>
      </trkpt>
      <trkpt lat="48.57382" lon="-4.45845">
        <ele>45.7</ele>
        <time>2011-04-05T17:49:47Z</time>
      </trkpt>
      <trkpt lat="48.57381" lon="-4.45844">
        <ele>45.6</ele>
        <time>2011-04-05T17:49:48Z</time>
      </trkpt>
      <trkpt lat="48.5738" lon="-4.45843">
        <ele>45.9</ele>
        <time>2011-04-05T17:49:50Z</time>
      </trkpt>
      <trkpt lat="48.57378" lon="-4.45842">
        <ele>45.7</ele>
        <time>2011-04-05T17:49:51Z</time>
      </trkpt>
      <trkpt lat="48.57377" lon="-4.45841">
        <ele>45.8</ele>
        <time>2011-04-05T17:49:52Z</time>
      </trkpt>
      <trkpt lat="48.57376" lon="-4.4584">
        <ele>45.9</ele>
        <time>2011-04-05T17:49:53Z</time>
      </trkpt>
      <trkpt lat="48.57374" lon="-4.45839">
        <ele>45.5</ele>
        <time>2011-04-05T17:49:54Z</time>
      </trkpt>
      <trkpt lat="48.57373" lon="-4.45838">
        <ele>45.6</ele>
        <time>2011-04-05T17:49:55Z</time>
      </trkpt>
      <trkpt lat="48.57371" lon="-4.45837">
        <ele>46.2</ele>
        <time>2011-04-05T17:49:56Z</time>
      </trkpt>
      <trkpt lat="48.5737" lon="-4.45836">
        <ele>46.3</ele>
        <time>2011-04-05T17:49:57Z</time>
      </trkpt>
      <trkpt lat="48.57369" lon="-4.45835">
        <ele>45.9</ele>
        <time>2011-04-05T17:49:59Z</time>
      </trkpt>
      <trkpt lat="48.57367" lon="-4.45834">
        <ele>45.3</ele>
        <time>2011-04-05T17:49:59Z</time>
      </trkpt>
      <trkpt lat="48.57366" lon="-4.45833">
        <ele>45.1</ele>
        <time>2011-04-05T17:50:00Z</time>
      </trkpt>
      <trkpt lat="48.57364" lon="-4.45832">
        <ele>45</ele>
        <time>2011-04-05T17:50:01Z</time>
      </trkpt>
      <trkpt lat="48.57363" lon="-4.45831">
        <ele>45</ele>
        <time>2011-04-05T17:50:02Z</time>
      </trkpt>
      <trkpt lat="48.57361" lon="-4.45829">
        <ele>44.8</ele>
        <time>2011-04-05T17:50:04Z</time>
      </trkpt>
      <trkpt lat="48.5736" lon="-4.45828">
        <ele>44.7</ele>
        <time>2011-04-05T17:50:05Z</time>
      </trkpt>
      <trkpt lat="48.57358" lon="-4.45826">
        <ele>44.5</ele>
        <time>2011-04-05T17:50:06Z</time>
      </trkpt>
      <trkpt lat="48.57357" lon="-4.45825">
        <ele>44.4</ele>
        <time>2011-04-05T17:50:07Z</time>
      </trkpt>
      <trkpt lat="48.57356" lon="-4.45824">
        <ele>43.9</ele>
        <time>2011-04-05T17:50:07Z</time>
      </trkpt>
      <trkpt lat="48.57355" lon="-4.45822">
        <ele>44</ele>
        <time>2011-04-05T17:50:09Z</time>
      </trkpt>
      <trkpt lat="48.57353" lon="-4.45821">
        <ele>43.7</ele>
        <time>2011-04-05T17:50:10Z</time>
      </trkpt>
      <trkpt lat="48.57352" lon="-4.4582">
        <ele>43.7</ele>
        <time>2011-04-05T17:50:12Z</time>
      </trkpt>
      <trkpt lat="48.5735" lon="-4.45819">
        <ele>42.7</ele>
        <time>2011-04-05T17:50:13Z</time>
      </trkpt>
      <trkpt lat="48.57349" lon="-4.45818">
        <ele>41.5</ele>
        <time>2011-04-05T17:50:15Z</time>
      </trkpt>
      <trkpt lat="48.57347" lon="-4.45818">
        <ele>42.1</ele>
        <time>2011-04-05T17:50:15Z</time>
      </trkpt>
      <trkpt lat="48.57345" lon="-4.45817">
        <ele>42.1</ele>
        <time>2011-04-05T17:50:16Z</time>
      </trkpt>
      <trkpt lat="48.57344" lon="-4.45816">
        <ele>41.6</ele>
        <time>2011-04-05T17:50:17Z</time>
      </trkpt>
      <trkpt lat="48.57342" lon="-4.45815">
        <ele>41</ele>
        <time>2011-04-05T17:50:18Z</time>
      </trkpt>
      <trkpt lat="48.57341" lon="-4.45814">
        <ele>40.7</ele>
        <time>2011-04-05T17:50:19Z</time>
      </trkpt>
      <trkpt lat="48.5734" lon="-4.45813">
        <ele>40.2</ele>
        <time>2011-04-05T17:50:21Z</time>
      </trkpt>
      <trkpt lat="48.57338" lon="-4.45812">
        <ele>39.8</ele>
        <time>2011-04-05T17:50:22Z</time>
      </trkpt>
      <trkpt lat="48.57337" lon="-4.45811">
        <ele>39.7</ele>
        <time>2011-04-05T17:50:24Z</time>
      </trkpt>
      <trkpt lat="48.57336" lon="-4.4581">
        <ele>39.5</ele>
        <time>2011-04-05T17:50:24Z</time>
      </trkpt>
      <trkpt lat="48.57334" lon="-4.45809">
        <ele>38.7</ele>
        <time>2011-04-05T17:50:26Z</time>
      </trkpt>
      <trkpt lat="48.57333" lon="-4.45808">
        <ele>38.6</ele>
        <time>2011-04-05T17:50:27Z</time>
      </trkpt>
      <trkpt lat="48.57331" lon="-4.45807">
        <ele>38.7</ele>
        <time>2011-04-05T17:50:29Z</time>
      </trkpt>
      <trkpt lat="48.5733" lon="-4.45806">
        <ele>38.2</ele>
        <time>2011-04-05T17:50:30Z</time>
      </trkpt>
      <trkpt lat="48.57328" lon="-4.45805">
        <ele>38.3</ele>
        <time>2011-04-05T17:50:32Z</time>
      </trkpt>
      <trkpt lat="48.57327" lon="-4.45804">
        <ele>38.1</ele>
        <time>2011-04-05T17:50:33Z</time>
      </trkpt>
      <trkpt lat="48.57324" lon="-4.45803">
        <ele>37.2</ele>
        <time>2011-04-05T17:50:34Z</time>
      </trkpt>
      <trkpt lat="48.57322" lon="-4.45802">
        <ele>37.1</ele>
        <time>2011-04-05T17:50:35Z</time>
      </trkpt>
      <trkpt lat="48.57319" lon="-4.45799">
        <ele>37.3</ele>
        <time>2011-04-05T17:50:37Z</time>
      </trkpt>
      <trkpt lat="48.57316" lon="-4.45797">
        <ele>36.8</ele>
        <time>2011-04-05T17:50:37Z</time>
      </trkpt>
      <trkpt lat="48.57315" lon="-4.45796">
        <ele>36.9</ele>
        <time>2011-04-05T17:50:38Z</time>
      </trkpt>
      <trkpt lat="48.57311" lon="-4.45795">
        <ele>36.6</ele>
        <time>2011-04-05T17:50:39Z</time>
      </trkpt>
      <trkpt lat="48.57308" lon="-4.45794">
        <ele>36.5</ele>
        <time>2011-04-05T17:50:40Z</time>
      </trkpt>
      <trkpt lat="48.57307" lon="-4.45794">
        <ele>36.5</ele>
        <time>2011-04-05T17:50:40Z</time>
      </trkpt>
      <trkpt lat="48.57305" lon="-4.45793">
        <ele>36.2</ele>
        <time>2011-04-05T17:50:41Z</time>
      </trkpt>
      <trkpt lat="48.57304" lon="-4.45793">
        <ele>35.7</ele>
        <time>2011-04-05T17:50:42Z</time>
      </trkpt>
      <trkpt lat="48.57302" lon="-4.45792">
        <ele>35.4</ele>
        <time>2011-04-05T17:50:44Z</time>
      </trkpt>
      <trkpt lat="48.573" lon="-4.45792">
        <ele>34.7</ele>
        <time>2011-04-05T17:50:45Z</time>
      </trkpt>
      <trkpt lat="48.57298" lon="-4.45791">
        <ele>34.3</ele>
        <time>2011-04-05T17:50:46Z</time>
      </trkpt>
      <trkpt lat="48.57297" lon="-4.4579">
        <ele>34.6</ele>
        <time>2011-04-05T17:50:47Z</time>
      </trkpt>
      <trkpt lat="48.57296" lon="-4.45789">
        <ele>35.2</ele>
        <time>2011-04-05T17:50:47Z</time>
      </trkpt>
      <trkpt lat="48.57294" lon="-4.45788">
        <ele>34.8</ele>
        <time>2011-04-05T17:50:49Z</time>
      </trkpt>
      <trkpt lat="48.57293" lon="-4.45788">
        <ele>35</ele>
        <time>2011-04-05T17:50:50Z</time>
      </trkpt>
      <trkpt lat="48.57291" lon="-4.45787">
        <ele>34.7</ele>
        <time>2011-04-05T17:50:52Z</time>
      </trkpt>
      <trkpt lat="48.57289" lon="-4.45786">
        <ele>34.2</ele>
        <time>2011-04-05T17:50:53Z</time>
      </trkpt>
      <trkpt lat="48.57288" lon="-4.45786">
        <ele>33.6</ele>
        <time>2011-04-05T17:50:55Z</time>
      </trkpt>
      <trkpt lat="48.57286" lon="-4.45786">
        <ele>33.8</ele>
        <time>2011-04-05T17:50:55Z</time>
      </trkpt>
      <trkpt lat="48.57285" lon="-4.45785">
        <ele>34</ele>
        <time>2011-04-05T17:50:56Z</time>
      </trkpt>
      <trkpt lat="48.57283" lon="-4.45784">
        <ele>34.1</ele>
        <time>2011-04-05T17:50:57Z</time>
      </trkpt>
      <trkpt lat="48.57282" lon="-4.45783">
        <ele>34.4</ele>
        <time>2011-04-05T17:50:58Z</time>
      </trkpt>
      <trkpt lat="48.5728" lon="-4.45783">
        <ele>34.1</ele>
        <time>2011-04-05T17:51:00Z</time>
      </trkpt>
      <trkpt lat="48.57279" lon="-4.45782">
        <ele>33.7</ele>
        <time>2011-04-05T17:51:01Z</time>
      </trkpt>
      <trkpt lat="48.57277" lon="-4.45783">
        <ele>35.4</ele>
        <time>2011-04-05T17:51:02Z</time>
      </trkpt>
      <trkpt lat="48.57275" lon="-4.45784">
        <ele>36.4</ele>
        <time>2011-04-05T17:51:03Z</time>
      </trkpt>
      <trkpt lat="48.57274" lon="-4.45784">
        <ele>37.4</ele>
        <time>2011-04-05T17:51:03Z</time>
      </trkpt>
      <trkpt lat="48.57272" lon="-4.45783">
        <ele>38</ele>
        <time>2011-04-05T17:51:05Z</time>
      </trkpt>
      <trkpt lat="48.5727" lon="-4.45784">
        <ele>39.4</ele>
        <time>2011-04-05T17:51:06Z</time>
      </trkpt>
      <trkpt lat="48.57268" lon="-4.45783">
        <ele>39.7</ele>
        <time>2011-04-05T17:51:07Z</time>
      </trkpt>
      <trkpt lat="48.57267" lon="-4.45782">
        <ele>39.3</ele>
        <time>2011-04-05T17:51:09Z</time>
      </trkpt>
      <trkpt lat="48.57266" lon="-4.45781">
        <ele>38.5</ele>
        <time>2011-04-05T17:51:10Z</time>
      </trkpt>
      <trkpt lat="48.57264" lon="-4.4578">
        <ele>38.6</ele>
        <time>2011-04-05T17:51:12Z</time>
      </trkpt>
      <trkpt lat="48.57262" lon="-4.45778">
        <ele>38.3</ele>
        <time>2011-04-05T17:51:13Z</time>
      </trkpt>
      <trkpt lat="48.57261" lon="-4.45777">
        <ele>37.9</ele>
        <time>2011-04-05T17:51:15Z</time>
      </trkpt>
      <trkpt lat="48.57259" lon="-4.45776">
        <ele>37.2</ele>
        <time>2011-04-05T17:51:16Z</time>
      </trkpt>
      <trkpt lat="48.57258" lon="-4.45775">
        <ele>36.3</ele>
        <time>2011-04-05T17:51:17Z</time>
      </trkpt>
      <trkpt lat="48.57256" lon="-4.45774">
        <ele>35.8</ele>
        <time>2011-04-05T17:51:18Z</time>
      </trkpt>
      <trkpt lat="48.57254" lon="-4.45775">
        <ele>36.8</ele>
        <time>2011-04-05T17:51:18Z</time>
      </trkpt>
      <trkpt lat="48.57253" lon="-4.45773">
        <ele>35.5</ele>
        <time>2011-04-05T17:51:20Z</time>
      </trkpt>
      <trkpt lat="48.5725" lon="-4.45771">
        <ele>34.2</ele>
        <time>2011-04-05T17:51:21Z</time>
      </trkpt>
      <trkpt lat="48.57249" lon="-4.4577">
        <ele>33.2</ele>
        <time>2011-04-05T17:51:22Z</time>
      </trkpt>
      <trkpt lat="48.57247" lon="-4.4577">
        <ele>33.8</ele>
        <time>2011-04-05T17:51:23Z</time>
      </trkpt>
      <trkpt lat="48.57245" lon="-4.4577">
        <ele>34.6</ele>
        <time>2011-04-05T17:51:24Z</time>
      </trkpt>
      <trkpt lat="48.57243" lon="-4.45771">
        <ele>36.1</ele>
        <time>2011-04-05T17:51:25Z</time>
      </trkpt>
      <trkpt lat="48.57238" lon="-4.4577">
        <ele>36.1</ele>
        <time>2011-04-05T17:51:26Z</time>
      </trkpt>
      <trkpt lat="48.57237" lon="-4.45769">
        <ele>36.1</ele>
        <time>2011-04-05T17:51:27Z</time>
      </trkpt>
      <trkpt lat="48.57236" lon="-4.45768">
        <ele>37</ele>
        <time>2011-04-05T17:51:28Z</time>
      </trkpt>
      <trkpt lat="48.57234" lon="-4.45768">
        <ele>38</ele>
        <time>2011-04-05T17:51:29Z</time>
      </trkpt>
      <trkpt lat="48.57233" lon="-4.45768">
        <ele>38.4</ele>
        <time>2011-04-05T17:51:31Z</time>
      </trkpt>
      <trkpt lat="48.57231" lon="-4.45768">
        <ele>39.5</ele>
        <time>2011-04-05T17:51:32Z</time>
      </trkpt>
      <trkpt lat="48.57229" lon="-4.45767">
        <ele>39.9</ele>
        <time>2011-04-05T17:51:34Z</time>
      </trkpt>
      <trkpt lat="48.57228" lon="-4.45767">
        <ele>40.1</ele>
        <time>2011-04-05T17:51:34Z</time>
      </trkpt>
      <trkpt lat="48.57226" lon="-4.45767">
        <ele>40.8</ele>
        <time>2011-04-05T17:51:36Z</time>
      </trkpt>
      <trkpt lat="48.57224" lon="-4.45768">
        <ele>42.3</ele>
        <time>2011-04-05T17:51:37Z</time>
      </trkpt>
      <trkpt lat="48.57223" lon="-4.45767">
        <ele>42.4</ele>
        <time>2011-04-05T17:51:39Z</time>
      </trkpt>
      <trkpt lat="48.57221" lon="-4.45767">
        <ele>43.1</ele>
        <time>2011-04-05T17:51:40Z</time>
      </trkpt>
      <trkpt lat="48.57219" lon="-4.45767">
        <ele>43.6</ele>
        <time>2011-04-05T17:51:41Z</time>
      </trkpt>
      <trkpt lat="48.57218" lon="-4.45767">
        <ele>42.8</ele>
        <time>2011-04-05T17:51:42Z</time>
      </trkpt>
      <trkpt lat="48.57215" lon="-4.45767">
        <ele>42.2</ele>
        <time>2011-04-05T17:51:43Z</time>
      </trkpt>
      <trkpt lat="48.57214" lon="-4.45768">
        <ele>42.6</ele>
        <time>2011-04-05T17:51:44Z</time>
      </trkpt>
      <trkpt lat="48.57213" lon="-4.45769">
        <ele>42.8</ele>
        <time>2011-04-05T17:51:46Z</time>
      </trkpt>
      <trkpt lat="48.57213" lon="-4.45769">
        <ele>42.8</ele>
        <time>2011-04-05T17:51:47Z</time>
      </trkpt>
      <trkpt lat="48.57205" lon="-4.4578">
        <ele>47.7</ele>
        <time>2011-04-05T17:51:49Z</time>
      </trkpt>
      <trkpt lat="48.57205" lon="-4.45784">
        <ele>47.2</ele>
        <time>2011-04-05T17:51:50Z</time>
      </trkpt>
      <trkpt lat="48.57204" lon="-4.45786">
        <ele>47.2</ele>
        <time>2011-04-05T17:51:51Z</time>
      </trkpt>
      <trkpt lat="48.57204" lon="-4.45788">
        <ele>46.8</ele>
        <time>2011-04-05T17:51:52Z</time>
      </trkpt>
      <trkpt lat="48.57204" lon="-4.45791">
        <ele>46.9</ele>
        <time>2011-04-05T17:51:53Z</time>
      </trkpt>
      <trkpt lat="48.57204" lon="-4.45794">
        <ele>47.3</ele>
        <time>2011-04-05T17:51:55Z</time>
      </trkpt>
      <trkpt lat="48.57205" lon="-4.45797">
        <ele>47.3</ele>
        <time>2011-04-05T17:51:57Z</time>
      </trkpt>
      <trkpt lat="48.57205" lon="-4.45799">
        <ele>46.9</ele>
        <time>2011-04-05T17:51:57Z</time>
      </trkpt>
      <trkpt lat="48.57205" lon="-4.45801">
        <ele>46.6</ele>
        <time>2011-04-05T17:51:58Z</time>
      </trkpt>
      <trkpt lat="48.57204" lon="-4.45804">
        <ele>46.6</ele>
        <time>2011-04-05T17:51:59Z</time>
      </trkpt>
      <trkpt lat="48.57204" lon="-4.45806">
        <ele>46.3</ele>
        <time>2011-04-05T17:52:00Z</time>
      </trkpt>
      <trkpt lat="48.57204" lon="-4.45808">
        <ele>46.3</ele>
        <time>2011-04-05T17:52:01Z</time>
      </trkpt>
      <trkpt lat="48.57204" lon="-4.45811">
        <ele>46.4</ele>
        <time>2011-04-05T17:52:03Z</time>
      </trkpt>
      <trkpt lat="48.57204" lon="-4.45813">
        <ele>46.7</ele>
        <time>2011-04-05T17:52:04Z</time>
      </trkpt>
      <trkpt lat="48.57204" lon="-4.45816">
        <ele>46.7</ele>
        <time>2011-04-05T17:52:04Z</time>
      </trkpt>
      <trkpt lat="48.57204" lon="-4.45818">
        <ele>46.5</ele>
        <time>2011-04-05T17:52:06Z</time>
      </trkpt>
      <trkpt lat="48.57204" lon="-4.4582">
        <ele>46.2</ele>
        <time>2011-04-05T17:52:06Z</time>
      </trkpt>
      <trkpt lat="48.57203" lon="-4.45823">
        <ele>46.5</ele>
        <time>2011-04-05T17:52:07Z</time>
      </trkpt>
      <trkpt lat="48.57203" lon="-4.45825">
        <ele>46.3</ele>
        <time>2011-04-05T17:52:07Z</time>
      </trkpt>
      <trkpt lat="48.57202" lon="-4.45827">
        <ele>46.2</ele>
        <time>2011-04-05T17:52:09Z</time>
      </trkpt>
      <trkpt lat="48.57202" lon="-4.45829">
        <ele>46</ele>
        <time>2011-04-05T17:52:10Z</time>
      </trkpt>
      <trkpt lat="48.57203" lon="-4.45831">
        <ele>46.1</ele>
        <time>2011-04-05T17:52:11Z</time>
      </trkpt>
      <trkpt lat="48.57203" lon="-4.45833">
        <ele>46</ele>
        <time>2011-04-05T17:52:11Z</time>
      </trkpt>
      <trkpt lat="48.57203" lon="-4.45835">
        <ele>46</ele>
        <time>2011-04-05T17:52:12Z</time>
      </trkpt>
      <trkpt lat="48.57203" lon="-4.45838">
        <ele>45.9</ele>
        <time>2011-04-05T17:52:13Z</time>
      </trkpt>
      <trkpt lat="48.57203" lon="-4.4584">
        <ele>46.3</ele>
        <time>2011-04-05T17:52:14Z</time>
      </trkpt>
      <trkpt lat="48.57203" lon="-4.45842">
        <ele>46.4</ele>
        <time>2011-04-05T17:52:14Z</time>
      </trkpt>
      <trkpt lat="48.57203" lon="-4.45844">
        <ele>47</ele>
        <time>2011-04-05T17:52:15Z</time>
      </trkpt>
      <trkpt lat="48.57203" lon="-4.45847">
        <ele>46.3</ele>
        <time>2011-04-05T17:52:15Z</time>
      </trkpt>
      <trkpt lat="48.57203" lon="-4.45849">
        <ele>46.3</ele>
        <time>2011-04-05T17:52:17Z</time>
      </trkpt>
      <trkpt lat="48.57203" lon="-4.45851">
        <ele>46.4</ele>
        <time>2011-04-05T17:52:18Z</time>
      </trkpt>
      <trkpt lat="48.57203" lon="-4.45853">
        <ele>45.7</ele>
        <time>2011-04-05T17:52:20Z</time>
      </trkpt>
      <trkpt lat="48.57203" lon="-4.45855">
        <ele>45.8</ele>
        <time>2011-04-05T17:52:21Z</time>
      </trkpt>
      <trkpt lat="48.57203" lon="-4.45857">
        <ele>43.7</ele>
        <time>2011-04-05T17:52:23Z</time>
      </trkpt>
      <trkpt lat="48.57204" lon="-4.4586">
        <ele>42.3</ele>
        <time>2011-04-05T17:52:23Z</time>
      </trkpt>
      <trkpt lat="48.57204" lon="-4.45863">
        <ele>42.3</ele>
        <time>2011-04-05T17:52:25Z</time>
      </trkpt>
      <trkpt lat="48.57204" lon="-4.45865">
        <ele>42.2</ele>
        <time>2011-04-05T17:52:26Z</time>
      </trkpt>
      <trkpt lat="48.57203" lon="-4.45868">
        <ele>42.5</ele>
        <time>2011-04-05T17:52:28Z</time>
      </trkpt>
      <trkpt lat="48.57203" lon="-4.4587">
        <ele>42.5</ele>
        <time>2011-04-05T17:52:29Z</time>
      </trkpt>
      <trkpt lat="48.57203" lon="-4.45872">
        <ele>41.9</ele>
        <time>2011-04-05T17:52:31Z</time>
      </trkpt>
      <trkpt lat="48.57203" lon="-4.45873">
        <ele>41.6</ele>
        <time>2011-04-05T17:52:32Z</time>
      </trkpt>
      <trkpt lat="48.57203" lon="-4.45873">
        <ele>41.6</ele>
        <time>2011-04-05T17:52:37Z</time>
      </trkpt>
      <trkpt lat="48.57207" lon="-4.45884">
        <ele>41.8</ele>
        <time>2011-04-05T17:52:38Z</time>
      </trkpt>
      <trkpt lat="48.57207" lon="-4.45886">
        <ele>41.6</ele>
        <time>2011-04-05T17:52:39Z</time>
      </trkpt>
      <trkpt lat="48.57208" lon="-4.45888">
        <ele>41.4</ele>
        <time>2011-04-05T17:52:40Z</time>
      </trkpt>
      <trkpt lat="48.57208" lon="-4.45893">
        <ele>42</ele>
        <time>2011-04-05T17:52:41Z</time>
      </trkpt>
      <trkpt lat="48.57208" lon="-4.45895">
        <ele>42</ele>
        <time>2011-04-05T17:52:42Z</time>
      </trkpt>
      <trkpt lat="48.57209" lon="-4.45898">
        <ele>41.4</ele>
        <time>2011-04-05T17:52:43Z</time>
      </trkpt>
      <trkpt lat="48.57209" lon="-4.45901">
        <ele>42.1</ele>
        <time>2011-04-05T17:52:45Z</time>
      </trkpt>
      <trkpt lat="48.5721" lon="-4.45903">
        <ele>42.6</ele>
        <time>2011-04-05T17:52:45Z</time>
      </trkpt>
      <trkpt lat="48.5721" lon="-4.45905">
        <ele>42.6</ele>
        <time>2011-04-05T17:52:46Z</time>
      </trkpt>
      <trkpt lat="48.5721" lon="-4.45907">
        <ele>42.8</ele>
        <time>2011-04-05T17:52:47Z</time>
      </trkpt>
      <trkpt lat="48.5721" lon="-4.45909">
        <ele>42.7</ele>
        <time>2011-04-05T17:52:47Z</time>
      </trkpt>
      <trkpt lat="48.5721" lon="-4.45911">
        <ele>41.9</ele>
        <time>2011-04-05T17:52:49Z</time>
      </trkpt>
      <trkpt lat="48.5721" lon="-4.45911">
        <ele>41.9</ele>
        <time>2011-04-05T17:52:51Z</time>
      </trkpt>
      <trkpt lat="48.57211" lon="-4.45918">
        <ele>40.3</ele>
        <time>2011-04-05T17:52:51Z</time>
      </trkpt>
      <trkpt lat="48.57211" lon="-4.45921">
        <ele>40.6</ele>
        <time>2011-04-05T17:52:53Z</time>
      </trkpt>
      <trkpt lat="48.5721" lon="-4.45923">
        <ele>40.8</ele>
        <time>2011-04-05T17:52:54Z</time>
      </trkpt>
      <trkpt lat="48.5721" lon="-4.45925">
        <ele>40.9</ele>
        <time>2011-04-05T17:52:56Z</time>
      </trkpt>
      <trkpt lat="48.5721" lon="-4.45928">
        <ele>41.4</ele>
        <time>2011-04-05T17:52:57Z</time>
      </trkpt>
      <trkpt lat="48.57211" lon="-4.4593">
        <ele>41.2</ele>
        <time>2011-04-05T17:52:58Z</time>
      </trkpt>
      <trkpt lat="48.57211" lon="-4.45932">
        <ele>41.1</ele>
        <time>2011-04-05T17:52:59Z</time>
      </trkpt>
      <trkpt lat="48.57211" lon="-4.45935">
        <ele>42</ele>
        <time>2011-04-05T17:53:00Z</time>
      </trkpt>
      <trkpt lat="48.57211" lon="-4.45935">
        <ele>42</ele>
        <time>2011-04-05T17:53:05Z</time>
      </trkpt>
      <trkpt lat="48.57211" lon="-4.45951">
        <ele>41.2</ele>
        <time>2011-04-05T17:53:06Z</time>
      </trkpt>
      <trkpt lat="48.57212" lon="-4.45954">
        <ele>40.7</ele>
        <time>2011-04-05T17:53:08Z</time>
      </trkpt>
      <trkpt lat="48.57212" lon="-4.45956">
        <ele>41.5</ele>
        <time>2011-04-05T17:53:09Z</time>
      </trkpt>
      <trkpt lat="48.57213" lon="-4.45958">
        <ele>41.3</ele>
        <time>2011-04-05T17:53:10Z</time>
      </trkpt>
      <trkpt lat="48.57214" lon="-4.45961">
        <ele>41.3</ele>
        <time>2011-04-05T17:53:11Z</time>
      </trkpt>
      <trkpt lat="48.57214" lon="-4.45962">
        <ele>41</ele>
        <time>2011-04-05T17:53:12Z</time>
      </trkpt>
      <trkpt lat="48.57216" lon="-4.45964">
        <ele>41.2</ele>
        <time>2011-04-05T17:53:13Z</time>
      </trkpt>
      <trkpt lat="48.57216" lon="-4.45964">
        <ele>41.2</ele>
        <time>2011-04-05T17:54:11Z</time>
      </trkpt>
      <trkpt lat="48.57218" lon="-4.45982">
        <ele>34.8</ele>
        <time>2011-04-05T17:54:13Z</time>
      </trkpt>
      <trkpt lat="48.57219" lon="-4.45984">
        <ele>34.7</ele>
        <time>2011-04-05T17:54:14Z</time>
      </trkpt>
      <trkpt lat="48.57219" lon="-4.45987">
        <ele>34.4</ele>
        <time>2011-04-05T17:54:15Z</time>
      </trkpt>
      <trkpt lat="48.5722" lon="-4.45989">
        <ele>34.1</ele>
        <time>2011-04-05T17:54:16Z</time>
      </trkpt>
      <trkpt lat="48.5722" lon="-4.45991">
        <ele>34.8</ele>
        <time>2011-04-05T17:54:17Z</time>
      </trkpt>
      <trkpt lat="48.57221" lon="-4.45994">
        <ele>34.5</ele>
        <time>2011-04-05T17:54:18Z</time>
      </trkpt>
      <trkpt lat="48.57222" lon="-4.45996">
        <ele>34.2</ele>
        <time>2011-04-05T17:54:20Z</time>
      </trkpt>
      <trkpt lat="48.57223" lon="-4.45998">
        <ele>34.1</ele>
        <time>2011-04-05T17:54:21Z</time>
      </trkpt>
      <trkpt lat="48.57224" lon="-4.46001">
        <ele>34.1</ele>
        <time>2011-04-05T17:54:22Z</time>
      </trkpt>
      <trkpt lat="48.57225" lon="-4.46003">
        <ele>34.2</ele>
        <time>2011-04-05T17:54:23Z</time>
      </trkpt>
      <trkpt lat="48.57226" lon="-4.46006">
        <ele>34.2</ele>
        <time>2011-04-05T17:54:23Z</time>
      </trkpt>
      <trkpt lat="48.57226" lon="-4.46008">
        <ele>34.4</ele>
        <time>2011-04-05T17:54:25Z</time>
      </trkpt>
      <trkpt lat="48.57227" lon="-4.4601">
        <ele>34.8</ele>
        <time>2011-04-05T17:54:26Z</time>
      </trkpt>
      <trkpt lat="48.57227" lon="-4.46012">
        <ele>35.1</ele>
        <time>2011-04-05T17:54:27Z</time>
      </trkpt>
      <trkpt lat="48.57228" lon="-4.46014">
        <ele>34.9</ele>
        <time>2011-04-05T17:54:28Z</time>
      </trkpt>
      <trkpt lat="48.57228" lon="-4.46016">
        <ele>35.6</ele>
        <time>2011-04-05T17:54:28Z</time>
      </trkpt>
      <trkpt lat="48.57229" lon="-4.46018">
        <ele>35.8</ele>
        <time>2011-04-05T17:54:30Z</time>
      </trkpt>
      <trkpt lat="48.57231" lon="-4.46022">
        <ele>35.7</ele>
        <time>2011-04-05T17:54:30Z</time>
      </trkpt>
      <trkpt lat="48.57232" lon="-4.46024">
        <ele>35.3</ele>
        <time>2011-04-05T17:54:31Z</time>
      </trkpt>
      <trkpt lat="48.57233" lon="-4.46026">
        <ele>35.7</ele>
        <time>2011-04-05T17:54:32Z</time>
      </trkpt>
      <trkpt lat="48.57234" lon="-4.46028">
        <ele>35.7</ele>
        <time>2011-04-05T17:54:33Z</time>
      </trkpt>
      <trkpt lat="48.57234" lon="-4.46031">
        <ele>35.6</ele>
        <time>2011-04-05T17:54:33Z</time>
      </trkpt>
      <trkpt lat="48.57235" lon="-4.46032">
        <ele>35.5</ele>
        <time>2011-04-05T17:54:34Z</time>
      </trkpt>
      <trkpt lat="48.57234" lon="-4.46034">
        <ele>35.2</ele>
        <time>2011-04-05T17:54:35Z</time>
      </trkpt>
      <trkpt lat="48.57234" lon="-4.46036">
        <ele>34.8</ele>
        <time>2011-04-05T17:54:36Z</time>
      </trkpt>
      <trkpt lat="48.57234" lon="-4.46038">
        <ele>33.8</ele>
        <time>2011-04-05T17:54:37Z</time>
      </trkpt>
      <trkpt lat="48.57234" lon="-4.46041">
        <ele>33.1</ele>
        <time>2011-04-05T17:54:38Z</time>
      </trkpt>
      <trkpt lat="48.57234" lon="-4.46044">
        <ele>30.7</ele>
        <time>2011-04-05T17:54:39Z</time>
      </trkpt>
      <trkpt lat="48.57234" lon="-4.46047">
        <ele>29.9</ele>
        <time>2011-04-05T17:54:39Z</time>
      </trkpt>
      <trkpt lat="48.57235" lon="-4.46049">
        <ele>31.8</ele>
        <time>2011-04-05T17:54:40Z</time>
      </trkpt>
      <trkpt lat="48.57235" lon="-4.46052">
        <ele>31.6</ele>
        <time>2011-04-05T17:54:41Z</time>
      </trkpt>
      <trkpt lat="48.57235" lon="-4.46055">
        <ele>31.4</ele>
        <time>2011-04-05T17:54:42Z</time>
      </trkpt>
      <trkpt lat="48.57234" lon="-4.46057">
        <ele>29.6</ele>
        <time>2011-04-05T17:54:43Z</time>
      </trkpt>
      <trkpt lat="48.57233" lon="-4.46059">
        <ele>28.8</ele>
        <time>2011-04-05T17:54:44Z</time>
      </trkpt>
      <trkpt lat="48.57233" lon="-4.46062">
        <ele>28.5</ele>
        <time>2011-04-05T17:54:45Z</time>
      </trkpt>
      <trkpt lat="48.57231" lon="-4.46063">
        <ele>27.9</ele>
        <time>2011-04-05T17:54:46Z</time>
      </trkpt>
      <trkpt lat="48.57231" lon="-4.46065">
        <ele>26.9</ele>
        <time>2011-04-05T17:54:47Z</time>
      </trkpt>
      <trkpt lat="48.5723" lon="-4.46066">
        <ele>26.2</ele>
        <time>2011-04-05T17:54:48Z</time>
      </trkpt>
      <trkpt lat="48.5723" lon="-4.46069">
        <ele>26.3</ele>
        <time>2011-04-05T17:54:49Z</time>
      </trkpt>
      <trkpt lat="48.57231" lon="-4.46072">
        <ele>26.3</ele>
        <time>2011-04-05T17:54:50Z</time>
      </trkpt>
      <trkpt lat="48.57231" lon="-4.46074">
        <ele>26.4</ele>
        <time>2011-04-05T17:54:50Z</time>
      </trkpt>
      <trkpt lat="48.5723" lon="-4.46077">
        <ele>25.5</ele>
        <time>2011-04-05T17:54:51Z</time>
      </trkpt>
      <trkpt lat="48.5723" lon="-4.46079">
        <ele>26.3</ele>
        <time>2011-04-05T17:54:52Z</time>
      </trkpt>
      <trkpt lat="48.57229" lon="-4.4608">
        <ele>25.7</ele>
        <time>2011-04-05T17:54:53Z</time>
      </trkpt>
      <trkpt lat="48.57229" lon="-4.4608">
        <ele>25.7</ele>
        <time>2011-04-05T17:55:08Z</time>
      </trkpt>
      <trkpt lat="48.57232" lon="-4.46118">
        <ele>34</ele>
        <time>2011-04-05T17:55:09Z</time>
      </trkpt>
      <trkpt lat="48.57234" lon="-4.46119">
        <ele>33.4</ele>
        <time>2011-04-05T17:55:11Z</time>
      </trkpt>
      <trkpt lat="48.57237" lon="-4.46121">
        <ele>33.6</ele>
        <time>2011-04-05T17:55:12Z</time>
      </trkpt>
      <trkpt lat="48.57238" lon="-4.46123">
        <ele>34.2</ele>
        <time>2011-04-05T17:55:12Z</time>
      </trkpt>
      <trkpt lat="48.5724" lon="-4.46125">
        <ele>35</ele>
        <time>2011-04-05T17:55:13Z</time>
      </trkpt>
      <trkpt lat="48.57243" lon="-4.46127">
        <ele>36</ele>
        <time>2011-04-05T17:55:14Z</time>
      </trkpt>
      <trkpt lat="48.57245" lon="-4.46129">
        <ele>36.6</ele>
        <time>2011-04-05T17:55:15Z</time>
      </trkpt>
      <trkpt lat="48.57246" lon="-4.4613">
        <ele>37.4</ele>
        <time>2011-04-05T17:55:16Z</time>
      </trkpt>
      <trkpt lat="48.57247" lon="-4.46131">
        <ele>37.8</ele>
        <time>2011-04-05T17:55:18Z</time>
      </trkpt>
      <trkpt lat="48.57247" lon="-4.46131">
        <ele>37.8</ele>
        <time>2011-04-05T17:55:21Z</time>
      </trkpt>
      <trkpt lat="48.57252" lon="-4.46139">
        <ele>39.1</ele>
        <time>2011-04-05T17:55:23Z</time>
      </trkpt>
      <trkpt lat="48.57254" lon="-4.46142">
        <ele>39.6</ele>
        <time>2011-04-05T17:55:24Z</time>
      </trkpt>
      <trkpt lat="48.57255" lon="-4.46145">
        <ele>38.5</ele>
        <time>2011-04-05T17:55:25Z</time>
      </trkpt>
      <trkpt lat="48.57257" lon="-4.46147">
        <ele>38.2</ele>
        <time>2011-04-05T17:55:25Z</time>
      </trkpt>
      <trkpt lat="48.57258" lon="-4.4615">
        <ele>36.7</ele>
        <time>2011-04-05T17:55:26Z</time>
      </trkpt>
      <trkpt lat="48.57257" lon="-4.46152">
        <ele>35.5</ele>
        <time>2011-04-05T17:55:27Z</time>
      </trkpt>
      <trkpt lat="48.57257" lon="-4.46154">
        <ele>35.1</ele>
        <time>2011-04-05T17:55:29Z</time>
      </trkpt>
      <trkpt lat="48.57257" lon="-4.46154">
        <ele>35.1</ele>
        <time>2011-04-05T17:55:31Z</time>
      </trkpt>
      <trkpt lat="48.57255" lon="-4.46161">
        <ele>27.8</ele>
        <time>2011-04-05T17:55:33Z</time>
      </trkpt>
      <trkpt lat="48.57255" lon="-4.46164">
        <ele>27.1</ele>
        <time>2011-04-05T17:55:34Z</time>
      </trkpt>
      <trkpt lat="48.57253" lon="-4.46165">
        <ele>25.8</ele>
        <time>2011-04-05T17:55:35Z</time>
      </trkpt>
      <trkpt lat="48.57252" lon="-4.46167">
        <ele>26.1</ele>
        <time>2011-04-05T17:55:36Z</time>
      </trkpt>
      <trkpt lat="48.5725" lon="-4.4617">
        <ele>24.5</ele>
        <time>2011-04-05T17:55:37Z</time>
      </trkpt>
      <trkpt lat="48.57249" lon="-4.46173">
        <ele>24.7</ele>
        <time>2011-04-05T17:55:38Z</time>
      </trkpt>
      <trkpt lat="48.57249" lon="-4.46175">
        <ele>24.3</ele>
        <time>2011-04-05T17:55:39Z</time>
      </trkpt>
      <trkpt lat="48.57248" lon="-4.46178">
        <ele>24</ele>
        <time>2011-04-05T17:55:40Z</time>
      </trkpt>
      <trkpt lat="48.57247" lon="-4.4618">
        <ele>26</ele>
        <time>2011-04-05T17:55:41Z</time>
      </trkpt>
      <trkpt lat="48.57246" lon="-4.46182">
        <ele>26.6</ele>
        <time>2011-04-05T17:55:42Z</time>
      </trkpt>
      <trkpt lat="48.57246" lon="-4.46182">
        <ele>26.6</ele>
        <time>2011-04-05T17:55:46Z</time>
      </trkpt>
      <trkpt lat="48.57243" lon="-4.46194">
        <ele>23.9</ele>
        <time>2011-04-05T17:55:48Z</time>
      </trkpt>
      <trkpt lat="48.57244" lon="-4.46196">
        <ele>24.3</ele>
        <time>2011-04-05T17:55:49Z</time>
      </trkpt>
      <trkpt lat="48.57244" lon="-4.46199">
        <ele>23.1</ele>
        <time>2011-04-05T17:55:50Z</time>
      </trkpt>
      <trkpt lat="48.57244" lon="-4.46202">
        <ele>22.5</ele>
        <time>2011-04-05T17:55:51Z</time>
      </trkpt>
      <trkpt lat="48.57243" lon="-4.46204">
        <ele>22.6</ele>
        <time>2011-04-05T17:55:52Z</time>
      </trkpt>
      <trkpt lat="48.57244" lon="-4.46206">
        <ele>21.8</ele>
        <time>2011-04-05T17:55:52Z</time>
      </trkpt>
      <trkpt lat="48.57244" lon="-4.46209">
        <ele>19.5</ele>
        <time>2011-04-05T17:55:53Z</time>
      </trkpt>
      <trkpt lat="48.57245" lon="-4.46212">
        <ele>18.5</ele>
        <time>2011-04-05T17:55:54Z</time>
      </trkpt>
      <trkpt lat="48.57244" lon="-4.46214">
        <ele>18.5</ele>
        <time>2011-04-05T17:55:55Z</time>
      </trkpt>
      <trkpt lat="48.57245" lon="-4.46216">
        <ele>18.6</ele>
        <time>2011-04-05T17:55:56Z</time>
      </trkpt>
      <trkpt lat="48.57246" lon="-4.46217">
        <ele>18.8</ele>
        <time>2011-04-05T17:55:58Z</time>
      </trkpt>
      <trkpt lat="48.57245" lon="-4.46219">
        <ele>19.9</ele>
        <time>2011-04-05T17:55:58Z</time>
      </trkpt>
      <trkpt lat="48.57245" lon="-4.46222">
        <ele>19.8</ele>
        <time>2011-04-05T17:55:59Z</time>
      </trkpt>
      <trkpt lat="48.57244" lon="-4.46224">
        <ele>20.2</ele>
        <time>2011-04-05T17:56:00Z</time>
      </trkpt>
      <trkpt lat="48.57243" lon="-4.46226">
        <ele>18.9</ele>
        <time>2011-04-05T17:56:01Z</time>
      </trkpt>
      <trkpt lat="48.57242" lon="-4.46228">
        <ele>19.7</ele>
        <time>2011-04-05T17:56:03Z</time>
      </trkpt>
      <trkpt lat="48.57242" lon="-4.46228">
        <ele>19.7</ele>
        <time>2011-04-05T17:56:05Z</time>
      </trkpt>
      <trkpt lat="48.57241" lon="-4.46237">
        <ele>22.3</ele>
        <time>2011-04-05T17:56:06Z</time>
      </trkpt>
      <trkpt lat="48.57241" lon="-4.46239">
        <ele>22.5</ele>
        <time>2011-04-05T17:56:08Z</time>
      </trkpt>
      <trkpt lat="48.5724" lon="-4.46242">
        <ele>23.5</ele>
        <time>2011-04-05T17:56:09Z</time>
      </trkpt>
      <trkpt lat="48.5724" lon="-4.46244">
        <ele>23.8</ele>
        <time>2011-04-05T17:56:10Z</time>
      </trkpt>
      <trkpt lat="48.5724" lon="-4.46244">
        <ele>23.8</ele>
        <time>2011-04-05T17:56:25Z</time>
      </trkpt>
      <trkpt lat="48.5724" lon="-4.46283">
        <ele>36.2</ele>
        <time>2011-04-05T17:56:26Z</time>
      </trkpt>
      <trkpt lat="48.5724" lon="-4.46284">
        <ele>37</ele>
        <time>2011-04-05T17:56:28Z</time>
      </trkpt>
      <trkpt lat="48.57241" lon="-4.46286">
        <ele>36.7</ele>
        <time>2011-04-05T17:56:29Z</time>
      </trkpt>
      <trkpt lat="48.57242" lon="-4.46287">
        <ele>36.7</ele>
        <time>2011-04-05T17:56:30Z</time>
      </trkpt>
      <trkpt lat="48.57242" lon="-4.46287">
        <ele>36.7</ele>
        <time>2011-04-05T17:56:44Z</time>
      </trkpt>
      <trkpt lat="48.57246" lon="-4.46328">
        <ele>31.3</ele>
        <time>2011-04-05T17:56:45Z</time>
      </trkpt>
      <trkpt lat="48.57247" lon="-4.4633">
        <ele>28.6</ele>
        <time>2011-04-05T17:56:47Z</time>
      </trkpt>
      <trkpt lat="48.57247" lon="-4.46333">
        <ele>28.3</ele>
        <time>2011-04-05T17:56:48Z</time>
      </trkpt>
      <trkpt lat="48.57248" lon="-4.46335">
        <ele>25.6</ele>
        <time>2011-04-05T17:56:49Z</time>
      </trkpt>
      <trkpt lat="48.57248" lon="-4.46335">
        <ele>25.6</ele>
        <time>2011-04-05T17:56:51Z</time>
      </trkpt>
      <trkpt lat="48.57248" lon="-4.46346">
        <ele>21.8</ele>
        <time>2011-04-05T17:56:52Z</time>
      </trkpt>
      <trkpt lat="48.57249" lon="-4.46347">
        <ele>19.6</ele>
        <time>2011-04-05T17:56:53Z</time>
      </trkpt>
      <trkpt lat="48.57249" lon="-4.4635">
        <ele>19.8</ele>
        <time>2011-04-05T17:56:54Z</time>
      </trkpt>
      <trkpt lat="48.5725" lon="-4.46353">
        <ele>20.9</ele>
        <time>2011-04-05T17:56:55Z</time>
      </trkpt>
      <trkpt lat="48.5725" lon="-4.46353">
        <ele>20.9</ele>
        <time>2011-04-05T17:57:11Z</time>
      </trkpt>
      <trkpt lat="48.57246" lon="-4.46395">
        <ele>26.6</ele>
        <time>2011-04-05T17:57:13Z</time>
      </trkpt>
      <trkpt lat="48.57246" lon="-4.46397">
        <ele>26.4</ele>
        <time>2011-04-05T17:57:14Z</time>
      </trkpt>
      <trkpt lat="48.57245" lon="-4.46401">
        <ele>26.5</ele>
        <time>2011-04-05T17:57:15Z</time>
      </trkpt>
      <trkpt lat="48.57245" lon="-4.46403">
        <ele>25.8</ele>
        <time>2011-04-05T17:57:15Z</time>
      </trkpt>
      <trkpt lat="48.57244" lon="-4.46405">
        <ele>25.2</ele>
        <time>2011-04-05T17:57:16Z</time>
      </trkpt>
      <trkpt lat="48.57243" lon="-4.46407">
        <ele>24.9</ele>
        <time>2011-04-05T17:57:18Z</time>
      </trkpt>
      <trkpt lat="48.57243" lon="-4.46407">
        <ele>24.9</ele>
        <time>2011-04-05T17:57:33Z</time>
      </trkpt>
      <trkpt lat="48.57225" lon="-4.46437">
        <ele>19.3</ele>
        <time>2011-04-05T17:57:34Z</time>
      </trkpt>
      <trkpt lat="48.57225" lon="-4.4644">
        <ele>18.1</ele>
        <time>2011-04-05T17:57:35Z</time>
      </trkpt>
      <trkpt lat="48.57224" lon="-4.46444">
        <ele>17.7</ele>
        <time>2011-04-05T17:57:36Z</time>
      </trkpt>
      <trkpt lat="48.57224" lon="-4.46447">
        <ele>17.4</ele>
        <time>2011-04-05T17:57:37Z</time>
      </trkpt>
      <trkpt lat="48.57224" lon="-4.46449">
        <ele>16</ele>
        <time>2011-04-05T17:57:38Z</time>
      </trkpt>
      <trkpt lat="48.57224" lon="-4.46449">
        <ele>16</ele>
        <time>2011-04-05T17:57:55Z</time>
      </trkpt>
      <trkpt lat="48.57213" lon="-4.46488">
        <ele>13.9</ele>
        <time>2011-04-05T17:57:56Z</time>
      </trkpt>
      <trkpt lat="48.57212" lon="-4.46491">
        <ele>16.9</ele>
        <time>2011-04-05T17:57:58Z</time>
      </trkpt>
      <trkpt lat="48.57211" lon="-4.46494">
        <ele>19.5</ele>
        <time>2011-04-05T17:57:59Z</time>
      </trkpt>
      <trkpt lat="48.57211" lon="-4.46497">
        <ele>22</ele>
        <time>2011-04-05T17:58:00Z</time>
      </trkpt>
      <trkpt lat="48.57211" lon="-4.46497">
        <ele>22</ele>
        <time>2011-04-05T17:58:06Z</time>
      </trkpt>
      <trkpt lat="48.57209" lon="-4.46518">
        <ele>35.3</ele>
        <time>2011-04-05T17:58:08Z</time>
      </trkpt>
      <trkpt lat="48.5721" lon="-4.4652">
        <ele>35</ele>
        <time>2011-04-05T17:58:09Z</time>
      </trkpt>
      <trkpt lat="48.57211" lon="-4.46522">
        <ele>32.6</ele>
        <time>2011-04-05T17:58:10Z</time>
      </trkpt>
      <trkpt lat="48.57211" lon="-4.46524">
        <ele>31.5</ele>
        <time>2011-04-05T17:58:10Z</time>
      </trkpt>
      <trkpt lat="48.57211" lon="-4.46527">
        <ele>31.4</ele>
        <time>2011-04-05T17:58:11Z</time>
      </trkpt>
      <trkpt lat="48.57212" lon="-4.46529">
        <ele>28.9</ele>
        <time>2011-04-05T17:58:12Z</time>
      </trkpt>
      <trkpt lat="48.57211" lon="-4.46532">
        <ele>27.5</ele>
        <time>2011-04-05T17:58:13Z</time>
      </trkpt>
      <trkpt lat="48.57211" lon="-4.46534">
        <ele>26.1</ele>
        <time>2011-04-05T17:58:14Z</time>
      </trkpt>
      <trkpt lat="48.57211" lon="-4.46536">
        <ele>24.9</ele>
        <time>2011-04-05T17:58:15Z</time>
      </trkpt>
      <trkpt lat="48.57211" lon="-4.46537">
        <ele>24.7</ele>
        <time>2011-04-05T17:58:16Z</time>
      </trkpt>
      <trkpt lat="48.5721" lon="-4.4654">
        <ele>24.9</ele>
        <time>2011-04-05T17:58:17Z</time>
      </trkpt>
      <trkpt lat="48.5721" lon="-4.46543">
        <ele>26.1</ele>
        <time>2011-04-05T17:58:18Z</time>
      </trkpt>
      <trkpt lat="48.5721" lon="-4.46545">
        <ele>26.4</ele>
        <time>2011-04-05T17:58:19Z</time>
      </trkpt>
      <trkpt lat="48.57209" lon="-4.46548">
        <ele>27.1</ele>
        <time>2011-04-05T17:58:20Z</time>
      </trkpt>
      <trkpt lat="48.57209" lon="-4.4655">
        <ele>27.1</ele>
        <time>2011-04-05T17:58:21Z</time>
      </trkpt>
      <trkpt lat="48.57209" lon="-4.46552">
        <ele>26.7</ele>
        <time>2011-04-05T17:58:23Z</time>
      </trkpt>
      <trkpt lat="48.57208" lon="-4.46553">
        <ele>26.1</ele>
        <time>2011-04-05T17:58:23Z</time>
      </trkpt>
      <trkpt lat="48.57208" lon="-4.46555">
        <ele>24.7</ele>
        <time>2011-04-05T17:58:25Z</time>
      </trkpt>
      <trkpt lat="48.57208" lon="-4.46555">
        <ele>24.7</ele>
        <time>2011-04-05T17:58:40Z</time>
      </trkpt>
      <trkpt lat="48.57199" lon="-4.46586">
        <ele>6.3</ele>
        <time>2011-04-05T17:58:41Z</time>
      </trkpt>
      <trkpt lat="48.572" lon="-4.46588">
        <ele>4.6</ele>
        <time>2011-04-05T17:58:43Z</time>
      </trkpt>
      <trkpt lat="48.572" lon="-4.46591">
        <ele>4.1</ele>
        <time>2011-04-05T17:58:43Z</time>
      </trkpt>
      <trkpt lat="48.57199" lon="-4.46593">
        <ele>3.3</ele>
        <time>2011-04-05T17:58:45Z</time>
      </trkpt>
      <trkpt lat="48.57199" lon="-4.46593">
        <ele>3.3</ele>
        <time>2011-04-05T17:58:59Z</time>
      </trkpt>
      <trkpt lat="48.57198" lon="-4.46631">
        <ele>5.4</ele>
        <time>2011-04-05T17:59:00Z</time>
      </trkpt>
      <trkpt lat="48.57198" lon="-4.46633">
        <ele>5.5</ele>
        <time>2011-04-05T17:59:01Z</time>
      </trkpt>
      <trkpt lat="48.57198" lon="-4.46635">
        <ele>3.8</ele>
        <time>2011-04-05T17:59:02Z</time>
      </trkpt>
      <trkpt lat="48.57198" lon="-4.46637">
        <ele>2.4</ele>
        <time>2011-04-05T17:59:03Z</time>
      </trkpt>
      <trkpt lat="48.57198" lon="-4.46637">
        <ele>2.4</ele>
        <time>2011-04-05T17:59:03Z</time>
      </trkpt>
      <trkpt lat="48.57199" lon="-4.46641">
        <ele>0.1</ele>
        <time>2011-04-05T17:59:04Z</time>
      </trkpt>
      <trkpt lat="48.572" lon="-4.46644">
        <ele>-1.7</ele>
        <time>2011-04-05T17:59:06Z</time>
      </trkpt>
      <trkpt lat="48.572" lon="-4.46647">
        <ele>-1.3</ele>
        <time>2011-04-05T17:59:07Z</time>
      </trkpt>
      <trkpt lat="48.572" lon="-4.4665">
        <ele>-2.1</ele>
        <time>2011-04-05T17:59:07Z</time>
      </trkpt>
      <trkpt lat="48.572" lon="-4.46652">
        <ele>-2.4</ele>
        <time>2011-04-05T17:59:09Z</time>
      </trkpt>
      <trkpt lat="48.57199" lon="-4.46655">
        <ele>-2.7</ele>
        <time>2011-04-05T17:59:10Z</time>
      </trkpt>
      <trkpt lat="48.57198" lon="-4.46657">
        <ele>-2</ele>
        <time>2011-04-05T17:59:11Z</time>
      </trkpt>
      <trkpt lat="48.57198" lon="-4.46658">
        <ele>-2.8</ele>
        <time>2011-04-05T17:59:12Z</time>
      </trkpt>
      <trkpt lat="48.57198" lon="-4.4666">
        <ele>-1.1</ele>
        <time>2011-04-05T17:59:12Z</time>
      </trkpt>
      <trkpt lat="48.57197" lon="-4.46662">
        <ele>2.1</ele>
        <time>2011-04-05T17:59:14Z</time>
      </trkpt>
      <trkpt lat="48.57197" lon="-4.46662">
        <ele>2.1</ele>
        <time>2011-04-05T17:59:18Z</time>
      </trkpt>
      <trkpt lat="48.57191" lon="-4.46677">
        <ele>6.5</ele>
        <time>2011-04-05T17:59:18Z</time>
      </trkpt>
      <trkpt lat="48.57191" lon="-4.4668">
        <ele>7.2</ele>
        <time>2011-04-05T17:59:20Z</time>
      </trkpt>
      <trkpt lat="48.57189" lon="-4.46684">
        <ele>9.9</ele>
        <time>2011-04-05T17:59:21Z</time>
      </trkpt>
      <trkpt lat="48.57188" lon="-4.46686">
        <ele>10.7</ele>
        <time>2011-04-05T17:59:22Z</time>
      </trkpt>
      <trkpt lat="48.57187" lon="-4.46687">
        <ele>11.1</ele>
        <time>2011-04-05T17:59:24Z</time>
      </trkpt>
      <trkpt lat="48.57186" lon="-4.4669">
        <ele>12</ele>
        <time>2011-04-05T17:59:25Z</time>
      </trkpt>
      <trkpt lat="48.57185" lon="-4.46692">
        <ele>12.9</ele>
        <time>2011-04-05T17:59:25Z</time>
      </trkpt>
      <trkpt lat="48.57183" lon="-4.46695">
        <ele>15</ele>
        <time>2011-04-05T17:59:26Z</time>
      </trkpt>
      <trkpt lat="48.57181" lon="-4.46699">
        <ele>17.4</ele>
        <time>2011-04-05T17:59:27Z</time>
      </trkpt>
      <trkpt lat="48.5718" lon="-4.46701">
        <ele>18.3</ele>
        <time>2011-04-05T17:59:28Z</time>
      </trkpt>
      <trkpt lat="48.57179" lon="-4.46703">
        <ele>19.5</ele>
        <time>2011-04-05T17:59:29Z</time>
      </trkpt>
      <trkpt lat="48.57178" lon="-4.46705">
        <ele>20.7</ele>
        <time>2011-04-05T17:59:30Z</time>
      </trkpt>
      <trkpt lat="48.57177" lon="-4.46707">
        <ele>20.9</ele>
        <time>2011-04-05T17:59:31Z</time>
      </trkpt>
      <trkpt lat="48.57176" lon="-4.46708">
        <ele>20.3</ele>
        <time>2011-04-05T17:59:32Z</time>
      </trkpt>
      <trkpt lat="48.57176" lon="-4.46709">
        <ele>20.8</ele>
        <time>2011-04-05T17:59:33Z</time>
      </trkpt>
      <trkpt lat="48.57177" lon="-4.46711">
        <ele>20.2</ele>
        <time>2011-04-05T17:59:34Z</time>
      </trkpt>
      <trkpt lat="48.57176" lon="-4.46712">
        <ele>20.4</ele>
        <time>2011-04-05T17:59:35Z</time>
      </trkpt>
      <trkpt lat="48.57176" lon="-4.46714">
        <ele>18.7</ele>
        <time>2011-04-05T17:59:36Z</time>
      </trkpt>
      <trkpt lat="48.57175" lon="-4.46716">
        <ele>18</ele>
        <time>2011-04-05T17:59:37Z</time>
      </trkpt>
      <trkpt lat="48.57175" lon="-4.46718">
        <ele>16.6</ele>
        <time>2011-04-05T17:59:38Z</time>
      </trkpt>
      <trkpt lat="48.57173" lon="-4.46721">
        <ele>18.5</ele>
        <time>2011-04-05T17:59:39Z</time>
      </trkpt>
      <trkpt lat="48.57173" lon="-4.46724">
        <ele>17.5</ele>
        <time>2011-04-05T17:59:40Z</time>
      </trkpt>
      <trkpt lat="48.57172" lon="-4.46726">
        <ele>16.3</ele>
        <time>2011-04-05T17:59:41Z</time>
      </trkpt>
      <trkpt lat="48.57172" lon="-4.46729">
        <ele>16.2</ele>
        <time>2011-04-05T17:59:42Z</time>
      </trkpt>
      <trkpt lat="48.57173" lon="-4.46731">
        <ele>15.2</ele>
        <time>2011-04-05T17:59:44Z</time>
      </trkpt>
      <trkpt lat="48.57172" lon="-4.46734">
        <ele>16.5</ele>
        <time>2011-04-05T17:59:45Z</time>
      </trkpt>
      <trkpt lat="48.5717" lon="-4.46737">
        <ele>18.5</ele>
        <time>2011-04-05T17:59:45Z</time>
      </trkpt>
      <trkpt lat="48.57168" lon="-4.46738">
        <ele>20.7</ele>
        <time>2011-04-05T17:59:46Z</time>
      </trkpt>
      <trkpt lat="48.57166" lon="-4.46739">
        <ele>21.8</ele>
        <time>2011-04-05T17:59:47Z</time>
      </trkpt>
      <trkpt lat="48.57164" lon="-4.4674">
        <ele>22.7</ele>
        <time>2011-04-05T17:59:48Z</time>
      </trkpt>
      <trkpt lat="48.57162" lon="-4.46742">
        <ele>22.2</ele>
        <time>2011-04-05T17:59:49Z</time>
      </trkpt>
      <trkpt lat="48.5716" lon="-4.46745">
        <ele>23.3</ele>
        <time>2011-04-05T17:59:50Z</time>
      </trkpt>
      <trkpt lat="48.57159" lon="-4.46748">
        <ele>24.7</ele>
        <time>2011-04-05T17:59:51Z</time>
      </trkpt>
      <trkpt lat="48.57157" lon="-4.46749">
        <ele>26</ele>
        <time>2011-04-05T17:59:52Z</time>
      </trkpt>
      <trkpt lat="48.57155" lon="-4.46751">
        <ele>24.6</ele>
        <time>2011-04-05T17:59:53Z</time>
      </trkpt>
      <trkpt lat="48.57154" lon="-4.46753">
        <ele>24.9</ele>
        <time>2011-04-05T17:59:54Z</time>
      </trkpt>
      <trkpt lat="48.57154" lon="-4.46756">
        <ele>25.2</ele>
        <time>2011-04-05T17:59:55Z</time>
      </trkpt>
      <trkpt lat="48.57154" lon="-4.46759">
        <ele>22.2</ele>
        <time>2011-04-05T17:59:56Z</time>
      </trkpt>
      <trkpt lat="48.57153" lon="-4.46761">
        <ele>21.5</ele>
        <time>2011-04-05T17:59:57Z</time>
      </trkpt>
      <trkpt lat="48.57152" lon="-4.46764">
        <ele>20.2</ele>
        <time>2011-04-05T17:59:58Z</time>
      </trkpt>
      <trkpt lat="48.57152" lon="-4.46766">
        <ele>19.4</ele>
        <time>2011-04-05T17:59:59Z</time>
      </trkpt>
      <trkpt lat="48.57152" lon="-4.46768">
        <ele>17.2</ele>
        <time>2011-04-05T18:00:00Z</time>
      </trkpt>
      <trkpt lat="48.57152" lon="-4.4677">
        <ele>15.5</ele>
        <time>2011-04-05T18:00:01Z</time>
      </trkpt>
      <trkpt lat="48.57152" lon="-4.46773">
        <ele>15</ele>
        <time>2011-04-05T18:00:03Z</time>
      </trkpt>
      <trkpt lat="48.57152" lon="-4.46775">
        <ele>15.3</ele>
        <time>2011-04-05T18:00:04Z</time>
      </trkpt>
      <trkpt lat="48.57152" lon="-4.46777">
        <ele>15.4</ele>
        <time>2011-04-05T18:00:04Z</time>
      </trkpt>
      <trkpt lat="48.57152" lon="-4.46778">
        <ele>14.1</ele>
        <time>2011-04-05T18:00:05Z</time>
      </trkpt>
      <trkpt lat="48.57153" lon="-4.46779">
        <ele>13.3</ele>
        <time>2011-04-05T18:00:06Z</time>
      </trkpt>
      <trkpt lat="48.57154" lon="-4.46781">
        <ele>12.2</ele>
        <time>2011-04-05T18:00:07Z</time>
      </trkpt>
      <trkpt lat="48.57154" lon="-4.46781">
        <ele>12.2</ele>
        <time>2011-04-05T18:00:11Z</time>
      </trkpt>
      <trkpt lat="48.57151" lon="-4.46791">
        <ele>11.7</ele>
        <time>2011-04-05T18:00:13Z</time>
      </trkpt>
      <trkpt lat="48.57151" lon="-4.46793">
        <ele>11.3</ele>
        <time>2011-04-05T18:00:14Z</time>
      </trkpt>
      <trkpt lat="48.57151" lon="-4.46796">
        <ele>10.1</ele>
        <time>2011-04-05T18:00:15Z</time>
      </trkpt>
      <trkpt lat="48.5715" lon="-4.46798">
        <ele>10</ele>
        <time>2011-04-05T18:00:16Z</time>
      </trkpt>
      <trkpt lat="48.5715" lon="-4.46798">
        <ele>10</ele>
        <time>2011-04-05T18:00:26Z</time>
      </trkpt>
      <trkpt lat="48.57146" lon="-4.46825">
        <ele>9.5</ele>
        <time>2011-04-05T18:00:27Z</time>
      </trkpt>
      <trkpt lat="48.57145" lon="-4.46827">
        <ele>9.6</ele>
        <time>2011-04-05T18:00:29Z</time>
      </trkpt>
      <trkpt lat="48.57144" lon="-4.46829">
        <ele>9.3</ele>
        <time>2011-04-05T18:00:30Z</time>
      </trkpt>
      <trkpt lat="48.57144" lon="-4.4683">
        <ele>6.6</ele>
        <time>2011-04-05T18:00:31Z</time>
      </trkpt>
      <trkpt lat="48.57143" lon="-4.46832">
        <ele>7.5</ele>
        <time>2011-04-05T18:00:32Z</time>
      </trkpt>
      <trkpt lat="48.57144" lon="-4.46833">
        <ele>6</ele>
        <time>2011-04-05T18:00:33Z</time>
      </trkpt>
      <trkpt lat="48.57144" lon="-4.46833">
        <ele>6</ele>
        <time>2011-04-05T18:00:39Z</time>
      </trkpt>
      <trkpt lat="48.57141" lon="-4.46852">
        <ele>3.7</ele>
        <time>2011-04-05T18:00:40Z</time>
      </trkpt>
      <trkpt lat="48.57141" lon="-4.46855">
        <ele>3.3</ele>
        <time>2011-04-05T18:00:42Z</time>
      </trkpt>
      <trkpt lat="48.5714" lon="-4.46857">
        <ele>3.1</ele>
        <time>2011-04-05T18:00:43Z</time>
      </trkpt>
      <trkpt lat="48.5714" lon="-4.4686">
        <ele>3.2</ele>
        <time>2011-04-05T18:00:44Z</time>
      </trkpt>
      <trkpt lat="48.5714" lon="-4.46862">
        <ele>3.8</ele>
        <time>2011-04-05T18:00:45Z</time>
      </trkpt>
      <trkpt lat="48.5714" lon="-4.46862">
        <ele>3.8</ele>
        <time>2011-04-05T18:00:59Z</time>
      </trkpt>
      <trkpt lat="48.57137" lon="-4.46895">
        <ele>6</ele>
        <time>2011-04-05T18:00:59Z</time>
      </trkpt>
      <trkpt lat="48.57136" lon="-4.46897">
        <ele>4.4</ele>
        <time>2011-04-05T18:01:01Z</time>
      </trkpt>
      <trkpt lat="48.57135" lon="-4.469">
        <ele>4.2</ele>
        <time>2011-04-05T18:01:02Z</time>
      </trkpt>
      <trkpt lat="48.57135" lon="-4.46902">
        <ele>4.1</ele>
        <time>2011-04-05T18:01:03Z</time>
      </trkpt>
      <trkpt lat="48.57136" lon="-4.46904">
        <ele>3.9</ele>
        <time>2011-04-05T18:01:04Z</time>
      </trkpt>
      <trkpt lat="48.57135" lon="-4.46906">
        <ele>3.4</ele>
        <time>2011-04-05T18:01:05Z</time>
      </trkpt>
      <trkpt lat="48.57137" lon="-4.46907">
        <ele>0.8</ele>
        <time>2011-04-05T18:01:06Z</time>
      </trkpt>
      <trkpt lat="48.57137" lon="-4.46907">
        <ele>0.8</ele>
        <time>2011-04-05T18:01:11Z</time>
      </trkpt>
      <trkpt lat="48.57133" lon="-4.46923">
        <ele>2.1</ele>
        <time>2011-04-05T18:01:12Z</time>
      </trkpt>
      <trkpt lat="48.57132" lon="-4.46927">
        <ele>2.7</ele>
        <time>2011-04-05T18:01:14Z</time>
      </trkpt>
      <trkpt lat="48.57131" lon="-4.46929">
        <ele>3.4</ele>
        <time>2011-04-05T18:01:15Z</time>
      </trkpt>
      <trkpt lat="48.57131" lon="-4.46933">
        <ele>4.5</ele>
        <time>2011-04-05T18:01:16Z</time>
      </trkpt>
      <trkpt lat="48.57131" lon="-4.46935">
        <ele>4.1</ele>
        <time>2011-04-05T18:01:17Z</time>
      </trkpt>
      <trkpt lat="48.57131" lon="-4.46936">
        <ele>2.9</ele>
        <time>2011-04-05T18:01:18Z</time>
      </trkpt>
      <trkpt lat="48.57131" lon="-4.46939">
        <ele>2.2</ele>
        <time>2011-04-05T18:01:19Z</time>
      </trkpt>
      <trkpt lat="48.57132" lon="-4.46941">
        <ele>0.4</ele>
        <time>2011-04-05T18:01:20Z</time>
      </trkpt>
      <trkpt lat="48.57132" lon="-4.46944">
        <ele>1.6</ele>
        <time>2011-04-05T18:01:21Z</time>
      </trkpt>
      <trkpt lat="48.57131" lon="-4.46947">
        <ele>3</ele>
        <time>2011-04-05T18:01:22Z</time>
      </trkpt>
      <trkpt lat="48.5713" lon="-4.46949">
        <ele>1.9</ele>
        <time>2011-04-05T18:01:23Z</time>
      </trkpt>
      <trkpt lat="48.57129" lon="-4.46952">
        <ele>2.7</ele>
        <time>2011-04-05T18:01:24Z</time>
      </trkpt>
      <trkpt lat="48.5713" lon="-4.46954">
        <ele>1.5</ele>
        <time>2011-04-05T18:01:25Z</time>
      </trkpt>
      <trkpt lat="48.57129" lon="-4.46957">
        <ele>1.4</ele>
        <time>2011-04-05T18:01:26Z</time>
      </trkpt>
      <trkpt lat="48.57129" lon="-4.4696">
        <ele>1.3</ele>
        <time>2011-04-05T18:01:27Z</time>
      </trkpt>
      <trkpt lat="48.57128" lon="-4.46962">
        <ele>1.2</ele>
        <time>2011-04-05T18:01:28Z</time>
      </trkpt>
      <trkpt lat="48.57129" lon="-4.46964">
        <ele>2.1</ele>
        <time>2011-04-05T18:01:29Z</time>
      </trkpt>
      <trkpt lat="48.57129" lon="-4.46972">
        <ele>1.1</ele>
        <time>2011-04-05T18:01:31Z</time>
      </trkpt>
      <trkpt lat="48.57129" lon="-4.46974">
        <ele>-0.1</ele>
        <time>2011-04-05T18:01:32Z</time>
      </trkpt>
      <trkpt lat="48.57131" lon="-4.46975">
        <ele>0.2</ele>
        <time>2011-04-05T18:01:33Z</time>
      </trkpt>
      <trkpt lat="48.57131" lon="-4.46977">
        <ele>0.5</ele>
        <time>2011-04-05T18:01:35Z</time>
      </trkpt>
      <trkpt lat="48.57131" lon="-4.46977">
        <ele>0.5</ele>
        <time>2011-04-05T18:01:39Z</time>
      </trkpt>
      <trkpt lat="48.57128" lon="-4.46992">
        <ele>1.3</ele>
        <time>2011-04-05T18:01:40Z</time>
      </trkpt>
      <trkpt lat="48.57128" lon="-4.46995">
        <ele>3</ele>
        <time>2011-04-05T18:01:41Z</time>
      </trkpt>
      <trkpt lat="48.57129" lon="-4.46997">
        <ele>2.4</ele>
        <time>2011-04-05T18:01:42Z</time>
      </trkpt>
      <trkpt lat="48.57129" lon="-4.47">
        <ele>2.4</ele>
        <time>2011-04-05T18:01:43Z</time>
      </trkpt>
      <trkpt lat="48.57129" lon="-4.47002">
        <ele>3.1</ele>
        <time>2011-04-05T18:01:44Z</time>
      </trkpt>
      <trkpt lat="48.57128" lon="-4.47005">
        <ele>4.4</ele>
        <time>2011-04-05T18:01:45Z</time>
      </trkpt>
      <trkpt lat="48.57127" lon="-4.47008">
        <ele>5.3</ele>
        <time>2011-04-05T18:01:46Z</time>
      </trkpt>
      <trkpt lat="48.57128" lon="-4.4701">
        <ele>4.9</ele>
        <time>2011-04-05T18:01:47Z</time>
      </trkpt>
      <trkpt lat="48.57127" lon="-4.47013">
        <ele>5.7</ele>
        <time>2011-04-05T18:01:48Z</time>
      </trkpt>
      <trkpt lat="48.57126" lon="-4.47016">
        <ele>6.2</ele>
        <time>2011-04-05T18:01:49Z</time>
      </trkpt>
      <trkpt lat="48.57125" lon="-4.47018">
        <ele>6.2</ele>
        <time>2011-04-05T18:01:50Z</time>
      </trkpt>
      <trkpt lat="48.57126" lon="-4.47019">
        <ele>4.7</ele>
        <time>2011-04-05T18:01:51Z</time>
      </trkpt>
      <trkpt lat="48.57126" lon="-4.47022">
        <ele>4.1</ele>
        <time>2011-04-05T18:01:53Z</time>
      </trkpt>
      <trkpt lat="48.57126" lon="-4.47025">
        <ele>5</ele>
        <time>2011-04-05T18:01:54Z</time>
      </trkpt>
      <trkpt lat="48.57126" lon="-4.47025">
        <ele>5</ele>
        <time>2011-04-05T18:02:00Z</time>
      </trkpt>
      <trkpt lat="48.57126" lon="-4.47041">
        <ele>5.1</ele>
        <time>2011-04-05T18:02:01Z</time>
      </trkpt>
      <trkpt lat="48.57127" lon="-4.47043">
        <ele>4.2</ele>
        <time>2011-04-05T18:02:03Z</time>
      </trkpt>
      <trkpt lat="48.57128" lon="-4.47045">
        <ele>3.7</ele>
        <time>2011-04-05T18:02:04Z</time>
      </trkpt>
      <trkpt lat="48.57128" lon="-4.47048">
        <ele>3.8</ele>
        <time>2011-04-05T18:02:04Z</time>
      </trkpt>
      <trkpt lat="48.5713" lon="-4.4705">
        <ele>2.6</ele>
        <time>2011-04-05T18:02:05Z</time>
      </trkpt>
      <trkpt lat="48.5713" lon="-4.47051">
        <ele>1.6</ele>
        <time>2011-04-05T18:02:06Z</time>
      </trkpt>
      <trkpt lat="48.57131" lon="-4.47052">
        <ele>-0.8</ele>
        <time>2011-04-05T18:02:07Z</time>
      </trkpt>
      <trkpt lat="48.57132" lon="-4.47053">
        <ele>-2.4</ele>
        <time>2011-04-05T18:02:08Z</time>
      </trkpt>
      <trkpt lat="48.57132" lon="-4.47053">
        <ele>-2.4</ele>
        <time>2011-04-05T18:02:17Z</time>
      </trkpt>
      <trkpt lat="48.57137" lon="-4.47074">
        <ele>-4.1</ele>
        <time>2011-04-05T18:02:18Z</time>
      </trkpt>
      <trkpt lat="48.57138" lon="-4.47077">
        <ele>-2.9</ele>
        <time>2011-04-05T18:02:20Z</time>
      </trkpt>
      <trkpt lat="48.57138" lon="-4.47081">
        <ele>-1.8</ele>
        <time>2011-04-05T18:02:21Z</time>
      </trkpt>
      <trkpt lat="48.57137" lon="-4.47083">
        <ele>-0.7</ele>
        <time>2011-04-05T18:02:22Z</time>
      </trkpt>
      <trkpt lat="48.57137" lon="-4.47085">
        <ele>-0.9</ele>
        <time>2011-04-05T18:02:24Z</time>
      </trkpt>
      <trkpt lat="48.57137" lon="-4.47085">
        <ele>-0.9</ele>
        <time>2011-04-05T18:02:26Z</time>
      </trkpt>
      <trkpt lat="48.57138" lon="-4.47095">
        <ele>1.6</ele>
        <time>2011-04-05T18:02:28Z</time>
      </trkpt>
      <trkpt lat="48.57138" lon="-4.47098">
        <ele>2.3</ele>
        <time>2011-04-05T18:02:29Z</time>
      </trkpt>
      <trkpt lat="48.57138" lon="-4.47101">
        <ele>2.7</ele>
        <time>2011-04-05T18:02:30Z</time>
      </trkpt>
      <trkpt lat="48.57137" lon="-4.47103">
        <ele>3.8</ele>
        <time>2011-04-05T18:02:31Z</time>
      </trkpt>
      <trkpt lat="48.57137" lon="-4.47103">
        <ele>3.8</ele>
        <time>2011-04-05T18:02:49Z</time>
      </trkpt>
      <trkpt lat="48.57139" lon="-4.47145">
        <ele>9.1</ele>
        <time>2011-04-05T18:02:50Z</time>
      </trkpt>
      <trkpt lat="48.57139" lon="-4.47147">
        <ele>8.9</ele>
        <time>2011-04-05T18:02:52Z</time>
      </trkpt>
      <trkpt lat="48.5714" lon="-4.47149">
        <ele>9.1</ele>
        <time>2011-04-05T18:02:53Z</time>
      </trkpt>
      <trkpt lat="48.5714" lon="-4.47152">
        <ele>10.2</ele>
        <time>2011-04-05T18:02:54Z</time>
      </trkpt>
      <trkpt lat="48.5714" lon="-4.47154">
        <ele>11.4</ele>
        <time>2011-04-05T18:02:55Z</time>
      </trkpt>
      <trkpt lat="48.57139" lon="-4.47158">
        <ele>12.7</ele>
        <time>2011-04-05T18:02:55Z</time>
      </trkpt>
      <trkpt lat="48.57139" lon="-4.47161">
        <ele>11.5</ele>
        <time>2011-04-05T18:02:56Z</time>
      </trkpt>
      <trkpt lat="48.57139" lon="-4.47164">
        <ele>11.6</ele>
        <time>2011-04-05T18:02:57Z</time>
      </trkpt>
      <trkpt lat="48.57139" lon="-4.47166">
        <ele>11</ele>
        <time>2011-04-05T18:02:58Z</time>
      </trkpt>
      <trkpt lat="48.5714" lon="-4.47168">
        <ele>12.1</ele>
        <time>2011-04-05T18:03:00Z</time>
      </trkpt>
      <trkpt lat="48.5714" lon="-4.47168">
        <ele>12.1</ele>
        <time>2011-04-05T18:03:05Z</time>
      </trkpt>
      <trkpt lat="48.57144" lon="-4.47182">
        <ele>8.3</ele>
        <time>2011-04-05T18:03:06Z</time>
      </trkpt>
      <trkpt lat="48.57144" lon="-4.47185">
        <ele>10</ele>
        <time>2011-04-05T18:03:08Z</time>
      </trkpt>
      <trkpt lat="48.57142" lon="-4.47188">
        <ele>10.8</ele>
        <time>2011-04-05T18:03:09Z</time>
      </trkpt>
      <trkpt lat="48.57142" lon="-4.47191">
        <ele>11.7</ele>
        <time>2011-04-05T18:03:09Z</time>
      </trkpt>
      <trkpt lat="48.57141" lon="-4.47193">
        <ele>12.3</ele>
        <time>2011-04-05T18:03:10Z</time>
      </trkpt>
      <trkpt lat="48.57139" lon="-4.47197">
        <ele>14.7</ele>
        <time>2011-04-05T18:03:11Z</time>
      </trkpt>
      <trkpt lat="48.57138" lon="-4.47199">
        <ele>15.5</ele>
        <time>2011-04-05T18:03:12Z</time>
      </trkpt>
      <trkpt lat="48.57137" lon="-4.47202">
        <ele>16.5</ele>
        <time>2011-04-05T18:03:13Z</time>
      </trkpt>
      <trkpt lat="48.57138" lon="-4.47204">
        <ele>13.8</ele>
        <time>2011-04-05T18:03:15Z</time>
      </trkpt>
      <trkpt lat="48.57138" lon="-4.47204">
        <ele>13.8</ele>
        <time>2011-04-05T18:03:40Z</time>
      </trkpt>
      <trkpt lat="48.57146" lon="-4.47241">
        <ele>1.6</ele>
        <time>2011-04-05T18:03:41Z</time>
      </trkpt>
      <trkpt lat="48.57146" lon="-4.47244">
        <ele>1</ele>
        <time>2011-04-05T18:03:43Z</time>
      </trkpt>
      <trkpt lat="48.57146" lon="-4.47246">
        <ele>-0.3</ele>
        <time>2011-04-05T18:03:44Z</time>
      </trkpt>
      <trkpt lat="48.57146" lon="-4.47248">
        <ele>-1.3</ele>
        <time>2011-04-05T18:03:45Z</time>
      </trkpt>
      <trkpt lat="48.57146" lon="-4.47248">
        <ele>-1.3</ele>
        <time>2011-04-05T18:04:04Z</time>
      </trkpt>
      <trkpt lat="48.5715" lon="-4.4729">
        <ele>-1.2</ele>
        <time>2011-04-05T18:04:05Z</time>
      </trkpt>
      <trkpt lat="48.5715" lon="-4.47292">
        <ele>-0.7</ele>
        <time>2011-04-05T18:04:07Z</time>
      </trkpt>
      <trkpt lat="48.5715" lon="-4.47293">
        <ele>7.7</ele>
        <time>2011-04-05T18:04:08Z</time>
      </trkpt>
      <trkpt lat="48.57152" lon="-4.47295">
        <ele>0.6</ele>
        <time>2011-04-05T18:04:09Z</time>
      </trkpt>
      <trkpt lat="48.57152" lon="-4.47295">
        <ele>0.6</ele>
        <time>2011-04-05T18:04:14Z</time>
      </trkpt>
      <trkpt lat="48.57158" lon="-4.47304">
        <ele>1.8</ele>
        <time>2011-04-05T18:04:15Z</time>
      </trkpt>
      <trkpt lat="48.57158" lon="-4.47307">
        <ele>2.1</ele>
        <time>2011-04-05T18:04:17Z</time>
      </trkpt>
      <trkpt lat="48.57159" lon="-4.47308">
        <ele>1.1</ele>
        <time>2011-04-05T18:04:18Z</time>
      </trkpt>
      <trkpt lat="48.5716" lon="-4.4731">
        <ele>1.3</ele>
        <time>2011-04-05T18:04:19Z</time>
      </trkpt>
      <trkpt lat="48.5716" lon="-4.4731">
        <ele>1.3</ele>
        <time>2011-04-05T18:04:23Z</time>
      </trkpt>
      <trkpt lat="48.5716" lon="-4.47323">
        <ele>-2.2</ele>
        <time>2011-04-05T18:04:24Z</time>
      </trkpt>
      <trkpt lat="48.5716" lon="-4.47326">
        <ele>-2.2</ele>
        <time>2011-04-05T18:04:25Z</time>
      </trkpt>
      <trkpt lat="48.57159" lon="-4.47329">
        <ele>-0.8</ele>
        <time>2011-04-05T18:04:25Z</time>
      </trkpt>
      <trkpt lat="48.57158" lon="-4.47332">
        <ele>1.1</ele>
        <time>2011-04-05T18:04:26Z</time>
      </trkpt>
      <trkpt lat="48.57158" lon="-4.47334">
        <ele>2.3</ele>
        <time>2011-04-05T18:04:27Z</time>
      </trkpt>
      <trkpt lat="48.57158" lon="-4.47334">
        <ele>2.3</ele>
        <time>2011-04-05T18:04:50Z</time>
      </trkpt>
      <trkpt lat="48.57162" lon="-4.47374">
        <ele>-1.6</ele>
        <time>2011-04-05T18:04:50Z</time>
      </trkpt>
      <trkpt lat="48.57161" lon="-4.47376">
        <ele>-1.3</ele>
        <time>2011-04-05T18:04:52Z</time>
      </trkpt>
      <trkpt lat="48.57159" lon="-4.47378">
        <ele>-1.2</ele>
        <time>2011-04-05T18:04:53Z</time>
      </trkpt>
      <trkpt lat="48.57158" lon="-4.4738">
        <ele>-2.1</ele>
        <time>2011-04-05T18:04:54Z</time>
      </trkpt>
      <trkpt lat="48.57158" lon="-4.47383">
        <ele>-2.2</ele>
        <time>2011-04-05T18:04:55Z</time>
      </trkpt>
      <trkpt lat="48.57158" lon="-4.47385">
        <ele>-2.4</ele>
        <time>2011-04-05T18:04:56Z</time>
      </trkpt>
      <trkpt lat="48.57159" lon="-4.47386">
        <ele>-3.5</ele>
        <time>2011-04-05T18:04:57Z</time>
      </trkpt>
      <trkpt lat="48.57159" lon="-4.47386">
        <ele>-3.5</ele>
        <time>2011-04-05T18:05:10Z</time>
      </trkpt>
      <trkpt lat="48.57164" lon="-4.47415">
        <ele>4.6</ele>
        <time>2011-04-05T18:05:11Z</time>
      </trkpt>
      <trkpt lat="48.57165" lon="-4.47418">
        <ele>6.7</ele>
        <time>2011-04-05T18:05:13Z</time>
      </trkpt>
      <trkpt lat="48.57165" lon="-4.4742">
        <ele>7.2</ele>
        <time>2011-04-05T18:05:14Z</time>
      </trkpt>
      <trkpt lat="48.57165" lon="-4.47421">
        <ele>6.5</ele>
        <time>2011-04-05T18:05:15Z</time>
      </trkpt>
      <trkpt lat="48.57165" lon="-4.47421">
        <ele>6.5</ele>
        <time>2011-04-05T18:05:19Z</time>
      </trkpt>
      <trkpt lat="48.57169" lon="-4.47436">
        <ele>5.7</ele>
        <time>2011-04-05T18:05:21Z</time>
      </trkpt>
      <trkpt lat="48.57169" lon="-4.47439">
        <ele>6.4</ele>
        <time>2011-04-05T18:05:22Z</time>
      </trkpt>
      <trkpt lat="48.5717" lon="-4.47442">
        <ele>5.3</ele>
        <time>2011-04-05T18:05:22Z</time>
      </trkpt>
      <trkpt lat="48.5717" lon="-4.47444">
        <ele>5.5</ele>
        <time>2011-04-05T18:05:23Z</time>
      </trkpt>
      <trkpt lat="48.57172" lon="-4.47445">
        <ele>5.6</ele>
        <time>2011-04-05T18:05:25Z</time>
      </trkpt>
      <trkpt lat="48.57172" lon="-4.47445">
        <ele>5.6</ele>
        <time>2011-04-05T18:05:43Z</time>
      </trkpt>
      <trkpt lat="48.57174" lon="-4.47486">
        <ele>11.5</ele>
        <time>2011-04-05T18:05:44Z</time>
      </trkpt>
      <trkpt lat="48.57173" lon="-4.47489">
        <ele>11.2</ele>
        <time>2011-04-05T18:05:45Z</time>
      </trkpt>
      <trkpt lat="48.57174" lon="-4.47492">
        <ele>9.7</ele>
        <time>2011-04-05T18:05:46Z</time>
      </trkpt>
      <trkpt lat="48.57174" lon="-4.47494">
        <ele>8.2</ele>
        <time>2011-04-05T18:05:47Z</time>
      </trkpt>
      <trkpt lat="48.57174" lon="-4.47496">
        <ele>7.2</ele>
        <time>2011-04-05T18:05:48Z</time>
      </trkpt>
      <trkpt lat="48.57174" lon="-4.47496">
        <ele>7.2</ele>
        <time>2011-04-05T18:05:49Z</time>
      </trkpt>
      <trkpt lat="48.57174" lon="-4.475">
        <ele>6.5</ele>
        <time>2011-04-05T18:05:51Z</time>
      </trkpt>
      <trkpt lat="48.57174" lon="-4.47503">
        <ele>6.5</ele>
        <time>2011-04-05T18:05:52Z</time>
      </trkpt>
      <trkpt lat="48.57175" lon="-4.47505">
        <ele>6.4</ele>
        <time>2011-04-05T18:05:52Z</time>
      </trkpt>
      <trkpt lat="48.57177" lon="-4.47507">
        <ele>7.4</ele>
        <time>2011-04-05T18:05:54Z</time>
      </trkpt>
      <trkpt lat="48.57177" lon="-4.47507">
        <ele>7.4</ele>
        <time>2011-04-05T18:06:12Z</time>
      </trkpt>
      <trkpt lat="48.57193" lon="-4.47538">
        <ele>16.4</ele>
        <time>2011-04-05T18:06:13Z</time>
      </trkpt>
      <trkpt lat="48.57194" lon="-4.47541">
        <ele>16</ele>
        <time>2011-04-05T18:06:15Z</time>
      </trkpt>
      <trkpt lat="48.57194" lon="-4.47542">
        <ele>16.2</ele>
        <time>2011-04-05T18:06:16Z</time>
      </trkpt>
      <trkpt lat="48.57195" lon="-4.47545">
        <ele>16.6</ele>
        <time>2011-04-05T18:06:17Z</time>
      </trkpt>
      <trkpt lat="48.57196" lon="-4.47547">
        <ele>15.6</ele>
        <time>2011-04-05T18:06:18Z</time>
      </trkpt>
      <trkpt lat="48.57197" lon="-4.47549">
        <ele>15.1</ele>
        <time>2011-04-05T18:06:19Z</time>
      </trkpt>
      <trkpt lat="48.57197" lon="-4.47551">
        <ele>13.8</ele>
        <time>2011-04-05T18:06:21Z</time>
      </trkpt>
      <trkpt lat="48.57197" lon="-4.47551">
        <ele>13.8</ele>
        <time>2011-04-05T18:06:42Z</time>
      </trkpt>
      <trkpt lat="48.57208" lon="-4.47589">
        <ele>4.1</ele>
        <time>2011-04-05T18:06:43Z</time>
      </trkpt>
      <trkpt lat="48.57208" lon="-4.47591">
        <ele>3.1</ele>
        <time>2011-04-05T18:06:45Z</time>
      </trkpt>
      <trkpt lat="48.57209" lon="-4.47593">
        <ele>1.9</ele>
        <time>2011-04-05T18:06:46Z</time>
      </trkpt>
      <trkpt lat="48.57208" lon="-4.47594">
        <ele>2.5</ele>
        <time>2011-04-05T18:06:47Z</time>
      </trkpt>
      <trkpt lat="48.57208" lon="-4.47594">
        <ele>2.5</ele>
        <time>2011-04-05T18:06:53Z</time>
      </trkpt>
      <trkpt lat="48.57217" lon="-4.47599">
        <ele>7.8</ele>
        <time>2011-04-05T18:06:54Z</time>
      </trkpt>
      <trkpt lat="48.57218" lon="-4.47601">
        <ele>8.9</ele>
        <time>2011-04-05T18:06:56Z</time>
      </trkpt>
      <trkpt lat="48.57219" lon="-4.47602">
        <ele>8.9</ele>
        <time>2011-04-05T18:06:57Z</time>
      </trkpt>
      <trkpt lat="48.5722" lon="-4.47603">
        <ele>10.1</ele>
        <time>2011-04-05T18:06:58Z</time>
      </trkpt>
      <trkpt lat="48.57221" lon="-4.47603">
        <ele>10.4</ele>
        <time>2011-04-05T18:07:00Z</time>
      </trkpt>
      <trkpt lat="48.57221" lon="-4.47603">
        <ele>10.4</ele>
        <time>2011-04-05T18:07:03Z</time>
      </trkpt>
      <trkpt lat="48.57229" lon="-4.47607">
        <ele>12.8</ele>
        <time>2011-04-05T18:07:04Z</time>
      </trkpt>
      <trkpt lat="48.5723" lon="-4.47608">
        <ele>12.8</ele>
        <time>2011-04-05T18:07:06Z</time>
      </trkpt>
      <trkpt lat="48.57231" lon="-4.4761">
        <ele>12.4</ele>
        <time>2011-04-05T18:07:07Z</time>
      </trkpt>
      <trkpt lat="48.57231" lon="-4.47611">
        <ele>11.9</ele>
        <time>2011-04-05T18:07:08Z</time>
      </trkpt>
      <trkpt lat="48.57231" lon="-4.47611">
        <ele>11.9</ele>
        <time>2011-04-05T18:07:25Z</time>
      </trkpt>
      <trkpt lat="48.5725" lon="-4.47631">
        <ele>9</ele>
        <time>2011-04-05T18:07:26Z</time>
      </trkpt>
      <trkpt lat="48.57251" lon="-4.47633">
        <ele>9.4</ele>
        <time>2011-04-05T18:07:28Z</time>
      </trkpt>
      <trkpt lat="48.57252" lon="-4.47635">
        <ele>8.2</ele>
        <time>2011-04-05T18:07:29Z</time>
      </trkpt>
      <trkpt lat="48.57252" lon="-4.47637">
        <ele>8.1</ele>
        <time>2011-04-05T18:07:30Z</time>
      </trkpt>
      <trkpt lat="48.57252" lon="-4.47637">
        <ele>8.1</ele>
        <time>2011-04-05T18:07:42Z</time>
      </trkpt>
      <trkpt lat="48.57258" lon="-4.47666">
        <ele>8.1</ele>
        <time>2011-04-05T18:07:43Z</time>
      </trkpt>
      <trkpt lat="48.57258" lon="-4.47668">
        <ele>8.5</ele>
        <time>2011-04-05T18:07:45Z</time>
      </trkpt>
      <trkpt lat="48.5726" lon="-4.4767">
        <ele>9</ele>
        <time>2011-04-05T18:07:46Z</time>
      </trkpt>
      <trkpt lat="48.57261" lon="-4.47672">
        <ele>9.8</ele>
        <time>2011-04-05T18:07:47Z</time>
      </trkpt>
      <trkpt lat="48.57261" lon="-4.47672">
        <ele>9.8</ele>
        <time>2011-04-05T18:07:55Z</time>
      </trkpt>
      <trkpt lat="48.57272" lon="-4.47684">
        <ele>6.97</ele>
        <time>2011-04-05T18:07:57Z</time>
      </trkpt>
      <trkpt lat="48.57272" lon="-4.47687">
        <ele>5.8</ele>
        <time>2011-04-05T18:07:59Z</time>
      </trkpt>
      <trkpt lat="48.57272" lon="-4.47689">
        <ele>6.3</ele>
        <time>2011-04-05T18:07:59Z</time>
      </trkpt>
      <trkpt lat="48.57272" lon="-4.4769">
        <ele>6.7</ele>
        <time>2011-04-05T18:08:01Z</time>
      </trkpt>
      <trkpt lat="48.57272" lon="-4.4769">
        <ele>6.7</ele>
        <time>2011-04-05T18:08:04Z</time>
      </trkpt>
      <trkpt lat="48.57275" lon="-4.47699">
        <ele>10.4</ele>
        <time>2011-04-05T18:08:04Z</time>
      </trkpt>
      <trkpt lat="48.57276" lon="-4.477">
        <ele>10.3</ele>
        <time>2011-04-05T18:08:06Z</time>
      </trkpt>
      <trkpt lat="48.57276" lon="-4.47702">
        <ele>10.8</ele>
        <time>2011-04-05T18:08:07Z</time>
      </trkpt>
      <trkpt lat="48.57277" lon="-4.47703">
        <ele>11.7</ele>
        <time>2011-04-05T18:08:09Z</time>
      </trkpt>
      <trkpt lat="48.57277" lon="-4.47703">
        <ele>11.7</ele>
        <time>2011-04-05T18:08:28Z</time>
      </trkpt>
      <trkpt lat="48.57294" lon="-4.47734">
        <ele>20.3</ele>
        <time>2011-04-05T18:08:28Z</time>
      </trkpt>
      <trkpt lat="48.57295" lon="-4.47735">
        <ele>20.6</ele>
        <time>2011-04-05T18:08:30Z</time>
      </trkpt>
      <trkpt lat="48.57297" lon="-4.47736">
        <ele>21.8</ele>
        <time>2011-04-05T18:08:31Z</time>
      </trkpt>
      <trkpt lat="48.57298" lon="-4.47737">
        <ele>22.4</ele>
        <time>2011-04-05T18:08:32Z</time>
      </trkpt>
      <trkpt lat="48.573" lon="-4.47738">
        <ele>22.6</ele>
        <time>2011-04-05T18:08:34Z</time>
      </trkpt>
      <trkpt lat="48.573" lon="-4.47738">
        <ele>22.6</ele>
        <time>2011-04-05T18:08:49Z</time>
      </trkpt>
      <trkpt lat="48.57325" lon="-4.47755">
        <ele>30.5</ele>
        <time>2011-04-05T18:08:50Z</time>
      </trkpt>
      <trkpt lat="48.57326" lon="-4.47756">
        <ele>30.9</ele>
        <time>2011-04-05T18:08:52Z</time>
      </trkpt>
      <trkpt lat="48.57327" lon="-4.47759">
        <ele>31.7</ele>
        <time>2011-04-05T18:08:53Z</time>
      </trkpt>
      <trkpt lat="48.57327" lon="-4.47761">
        <ele>32.1</ele>
        <time>2011-04-05T18:08:54Z</time>
      </trkpt>
      <trkpt lat="48.57327" lon="-4.47761">
        <ele>32.1</ele>
        <time>2011-04-05T18:09:00Z</time>
      </trkpt>
      <trkpt lat="48.57335" lon="-4.47776">
        <ele>28.3</ele>
        <time>2011-04-05T18:09:00Z</time>
      </trkpt>
      <trkpt lat="48.57338" lon="-4.47779">
        <ele>28.6</ele>
        <time>2011-04-05T18:09:02Z</time>
      </trkpt>
      <trkpt lat="48.57339" lon="-4.47781">
        <ele>28.9</ele>
        <time>2011-04-05T18:09:03Z</time>
      </trkpt>
      <trkpt lat="48.57341" lon="-4.47784">
        <ele>29.1</ele>
        <time>2011-04-05T18:09:04Z</time>
      </trkpt>
      <trkpt lat="48.57341" lon="-4.47785">
        <ele>28.7</ele>
        <time>2011-04-05T18:09:05Z</time>
      </trkpt>
      <trkpt lat="48.57341" lon="-4.47788">
        <ele>28.5</ele>
        <time>2011-04-05T18:09:06Z</time>
      </trkpt>
      <trkpt lat="48.57342" lon="-4.4779">
        <ele>28.3</ele>
        <time>2011-04-05T18:09:07Z</time>
      </trkpt>
      <trkpt lat="48.57342" lon="-4.4779">
        <ele>28.3</ele>
        <time>2011-04-05T18:09:11Z</time>
      </trkpt>
      <trkpt lat="48.57344" lon="-4.47799">
        <ele>28.2</ele>
        <time>2011-04-05T18:09:13Z</time>
      </trkpt>
      <trkpt lat="48.57344" lon="-4.47801">
        <ele>27.5</ele>
        <time>2011-04-05T18:09:13Z</time>
      </trkpt>
      <trkpt lat="48.57345" lon="-4.47803">
        <ele>26.1</ele>
        <time>2011-04-05T18:09:14Z</time>
      </trkpt>
      <trkpt lat="48.57346" lon="-4.47805">
        <ele>25.2</ele>
        <time>2011-04-05T18:09:15Z</time>
      </trkpt>
      <trkpt lat="48.57346" lon="-4.47807">
        <ele>25.2</ele>
        <time>2011-04-05T18:09:16Z</time>
      </trkpt>
      <trkpt lat="48.57347" lon="-4.47809">
        <ele>24.7</ele>
        <time>2011-04-05T18:09:18Z</time>
      </trkpt>
      <trkpt lat="48.57348" lon="-4.4781">
        <ele>23.4</ele>
        <time>2011-04-05T18:09:19Z</time>
      </trkpt>
      <trkpt lat="48.57349" lon="-4.47812">
        <ele>23</ele>
        <time>2011-04-05T18:09:19Z</time>
      </trkpt>
      <trkpt lat="48.57349" lon="-4.47813">
        <ele>21.9</ele>
        <time>2011-04-05T18:09:21Z</time>
      </trkpt>
      <trkpt lat="48.57349" lon="-4.47813">
        <ele>21.9</ele>
        <time>2011-04-05T18:09:37Z</time>
      </trkpt>
      <trkpt lat="48.57368" lon="-4.47843">
        <ele>27.6</ele>
        <time>2011-04-05T18:09:38Z</time>
      </trkpt>
      <trkpt lat="48.57368" lon="-4.47843">
        <ele>27.6</ele>
        <time>2011-04-05T18:09:38Z</time>
      </trkpt>
      <trkpt lat="48.57369" lon="-4.47845">
        <ele>28.9</ele>
        <time>2011-04-05T18:09:40Z</time>
      </trkpt>
      <trkpt lat="48.57369" lon="-4.47845">
        <ele>28.9</ele>
        <time>2011-04-05T18:09:40Z</time>
      </trkpt>
      <trkpt lat="48.57369" lon="-4.47846">
        <ele>28.9</ele>
        <time>2011-04-05T18:09:41Z</time>
      </trkpt>
      <trkpt lat="48.5737" lon="-4.47848">
        <ele>28.8</ele>
        <time>2011-04-05T18:09:43Z</time>
      </trkpt>
      <trkpt lat="48.5737" lon="-4.47848">
        <ele>28.8</ele>
        <time>2011-04-05T18:09:56Z</time>
      </trkpt>
      <trkpt lat="48.57388" lon="-4.47876">
        <ele>21.5</ele>
        <time>2011-04-05T18:09:58Z</time>
      </trkpt>
      <trkpt lat="48.57389" lon="-4.47878">
        <ele>20.7</ele>
        <time>2011-04-05T18:09:59Z</time>
      </trkpt>
      <trkpt lat="48.57389" lon="-4.4788">
        <ele>19.5</ele>
        <time>2011-04-05T18:09:59Z</time>
      </trkpt>
      <trkpt lat="48.5739" lon="-4.47882">
        <ele>19.7</ele>
        <time>2011-04-05T18:10:01Z</time>
      </trkpt>
      <trkpt lat="48.5739" lon="-4.47882">
        <ele>19.7</ele>
        <time>2011-04-05T18:10:06Z</time>
      </trkpt>
      <trkpt lat="48.57397" lon="-4.47895">
        <ele>19.4</ele>
        <time>2011-04-05T18:10:08Z</time>
      </trkpt>
      <trkpt lat="48.57397" lon="-4.47897">
        <ele>18.7</ele>
        <time>2011-04-05T18:10:09Z</time>
      </trkpt>
      <trkpt lat="48.57397" lon="-4.47899">
        <ele>18.6</ele>
        <time>2011-04-05T18:10:10Z</time>
      </trkpt>
      <trkpt lat="48.57397" lon="-4.479">
        <ele>18.1</ele>
        <time>2011-04-05T18:10:10Z</time>
      </trkpt>
      <trkpt lat="48.57397" lon="-4.47902">
        <ele>17.4</ele>
        <time>2011-04-05T18:10:11Z</time>
      </trkpt>
      <trkpt lat="48.57397" lon="-4.47905">
        <ele>17.4</ele>
        <time>2011-04-05T18:10:12Z</time>
      </trkpt>
      <trkpt lat="48.57398" lon="-4.47907">
        <ele>17.4</ele>
        <time>2011-04-05T18:10:13Z</time>
      </trkpt>
      <trkpt lat="48.57399" lon="-4.4791">
        <ele>17.4</ele>
        <time>2011-04-05T18:10:14Z</time>
      </trkpt>
      <trkpt lat="48.574" lon="-4.47912">
        <ele>18.7</ele>
        <time>2011-04-05T18:10:15Z</time>
      </trkpt>
      <trkpt lat="48.574" lon="-4.47914">
        <ele>19.4</ele>
        <time>2011-04-05T18:10:16Z</time>
      </trkpt>
      <trkpt lat="48.574" lon="-4.47916">
        <ele>19.5</ele>
        <time>2011-04-05T18:10:17Z</time>
      </trkpt>
      <trkpt lat="48.57401" lon="-4.47918">
        <ele>20.2</ele>
        <time>2011-04-05T18:10:18Z</time>
      </trkpt>
      <trkpt lat="48.57402" lon="-4.4792">
        <ele>20.8</ele>
        <time>2011-04-05T18:10:19Z</time>
      </trkpt>
      <trkpt lat="48.57402" lon="-4.4792">
        <ele>20.8</ele>
        <time>2011-04-05T18:10:24Z</time>
      </trkpt>
      <trkpt lat="48.57405" lon="-4.4793">
        <ele>21.8</ele>
        <time>2011-04-05T18:10:24Z</time>
      </trkpt>
      <trkpt lat="48.57406" lon="-4.47932">
        <ele>21.6</ele>
        <time>2011-04-05T18:10:26Z</time>
      </trkpt>
      <trkpt lat="48.57407" lon="-4.47935">
        <ele>20.9</ele>
        <time>2011-04-05T18:10:27Z</time>
      </trkpt>
      <trkpt lat="48.57408" lon="-4.47937">
        <ele>20.9</ele>
        <time>2011-04-05T18:10:28Z</time>
      </trkpt>
      <trkpt lat="48.57409" lon="-4.47938">
        <ele>21.1</ele>
        <time>2011-04-05T18:10:29Z</time>
      </trkpt>
      <trkpt lat="48.57411" lon="-4.4794">
        <ele>21.1</ele>
        <time>2011-04-05T18:10:30Z</time>
      </trkpt>
      <trkpt lat="48.57412" lon="-4.47942">
        <ele>21.5</ele>
        <time>2011-04-05T18:10:31Z</time>
      </trkpt>
      <trkpt lat="48.57413" lon="-4.47944">
        <ele>21.6</ele>
        <time>2011-04-05T18:10:32Z</time>
      </trkpt>
      <trkpt lat="48.57415" lon="-4.47946">
        <ele>23.1</ele>
        <time>2011-04-05T18:10:34Z</time>
      </trkpt>
      <trkpt lat="48.57416" lon="-4.47948">
        <ele>23.4</ele>
        <time>2011-04-05T18:10:34Z</time>
      </trkpt>
      <trkpt lat="48.57417" lon="-4.4795">
        <ele>24.3</ele>
        <time>2011-04-05T18:10:35Z</time>
      </trkpt>
      <trkpt lat="48.57417" lon="-4.47952">
        <ele>24.6</ele>
        <time>2011-04-05T18:10:36Z</time>
      </trkpt>
      <trkpt lat="48.57418" lon="-4.47954">
        <ele>24.8</ele>
        <time>2011-04-05T18:10:37Z</time>
      </trkpt>
      <trkpt lat="48.57419" lon="-4.47956">
        <ele>24.8</ele>
        <time>2011-04-05T18:10:39Z</time>
      </trkpt>
      <trkpt lat="48.57419" lon="-4.47958">
        <ele>24.6</ele>
        <time>2011-04-05T18:10:40Z</time>
      </trkpt>
      <trkpt lat="48.57419" lon="-4.4796">
        <ele>23.9</ele>
        <time>2011-04-05T18:10:41Z</time>
      </trkpt>
      <trkpt lat="48.57419" lon="-4.47961">
        <ele>23.8</ele>
        <time>2011-04-05T18:10:41Z</time>
      </trkpt>
      <trkpt lat="48.57419" lon="-4.47963">
        <ele>24.4</ele>
        <time>2011-04-05T18:10:43Z</time>
      </trkpt>
      <trkpt lat="48.57419" lon="-4.47965">
        <ele>24.2</ele>
        <time>2011-04-05T18:10:44Z</time>
      </trkpt>
      <trkpt lat="48.57419" lon="-4.47967">
        <ele>24.7</ele>
        <time>2011-04-05T18:10:45Z</time>
      </trkpt>
      <trkpt lat="48.5742" lon="-4.4797">
        <ele>25</ele>
        <time>2011-04-05T18:10:46Z</time>
      </trkpt>
      <trkpt lat="48.5742" lon="-4.47972">
        <ele>25.6</ele>
        <time>2011-04-05T18:10:47Z</time>
      </trkpt>
      <trkpt lat="48.5742" lon="-4.47972">
        <ele>25.6</ele>
        <time>2011-04-05T18:10:48Z</time>
      </trkpt>
      <trkpt lat="48.5742" lon="-4.47976">
        <ele>24.9</ele>
        <time>2011-04-05T18:10:50Z</time>
      </trkpt>
      <trkpt lat="48.5742" lon="-4.47979">
        <ele>24.6</ele>
        <time>2011-04-05T18:10:51Z</time>
      </trkpt>
      <trkpt lat="48.57421" lon="-4.47981">
        <ele>25.2</ele>
        <time>2011-04-05T18:10:52Z</time>
      </trkpt>
      <trkpt lat="48.57421" lon="-4.47983">
        <ele>24.6</ele>
        <time>2011-04-05T18:10:53Z</time>
      </trkpt>
      <trkpt lat="48.57421" lon="-4.47986">
        <ele>25.2</ele>
        <time>2011-04-05T18:10:54Z</time>
      </trkpt>
      <trkpt lat="48.57421" lon="-4.47988">
        <ele>24.9</ele>
        <time>2011-04-05T18:10:55Z</time>
      </trkpt>
      <trkpt lat="48.57421" lon="-4.4799">
        <ele>24.5</ele>
        <time>2011-04-05T18:10:56Z</time>
      </trkpt>
      <trkpt lat="48.57421" lon="-4.47992">
        <ele>23.9</ele>
        <time>2011-04-05T18:10:57Z</time>
      </trkpt>
      <trkpt lat="48.57421" lon="-4.47994">
        <ele>23.5</ele>
        <time>2011-04-05T18:10:58Z</time>
      </trkpt>
      <trkpt lat="48.57421" lon="-4.47996">
        <ele>23.3</ele>
        <time>2011-04-05T18:11:00Z</time>
      </trkpt>
      <trkpt lat="48.57421" lon="-4.47999">
        <ele>23.7</ele>
        <time>2011-04-05T18:11:00Z</time>
      </trkpt>
      <trkpt lat="48.57421" lon="-4.48001">
        <ele>23.5</ele>
        <time>2011-04-05T18:11:01Z</time>
      </trkpt>
      <trkpt lat="48.5742" lon="-4.48004">
        <ele>23.3</ele>
        <time>2011-04-05T18:11:02Z</time>
      </trkpt>
      <trkpt lat="48.5742" lon="-4.48006">
        <ele>24.3</ele>
        <time>2011-04-05T18:11:03Z</time>
      </trkpt>
      <trkpt lat="48.57418" lon="-4.48008">
        <ele>23.8</ele>
        <time>2011-04-05T18:11:04Z</time>
      </trkpt>
      <trkpt lat="48.57417" lon="-4.48009">
        <ele>23.4</ele>
        <time>2011-04-05T18:11:06Z</time>
      </trkpt>
      <trkpt lat="48.57416" lon="-4.48011">
        <ele>22.9</ele>
        <time>2011-04-05T18:11:07Z</time>
      </trkpt>
      <trkpt lat="48.57415" lon="-4.48012">
        <ele>23.1</ele>
        <time>2011-04-05T18:11:07Z</time>
      </trkpt>
      <trkpt lat="48.57414" lon="-4.48013">
        <ele>22.8</ele>
        <time>2011-04-05T18:11:09Z</time>
      </trkpt>
      <trkpt lat="48.57414" lon="-4.48013">
        <ele>22.8</ele>
        <time>2011-04-05T18:11:18Z</time>
      </trkpt>
      <trkpt lat="48.574" lon="-4.48017">
        <ele>15.9</ele>
        <time>2011-04-05T18:11:19Z</time>
      </trkpt>
      <trkpt lat="48.574" lon="-4.48019">
        <ele>16</ele>
        <time>2011-04-05T18:11:20Z</time>
      </trkpt>
      <trkpt lat="48.57399" lon="-4.4802">
        <ele>15.9</ele>
        <time>2011-04-05T18:11:21Z</time>
      </trkpt>
      <trkpt lat="48.57399" lon="-4.48022">
        <ele>16</ele>
        <time>2011-04-05T18:11:22Z</time>
      </trkpt>
      <trkpt lat="48.574" lon="-4.48024">
        <ele>16.3</ele>
        <time>2011-04-05T18:11:23Z</time>
      </trkpt>
      <trkpt lat="48.57401" lon="-4.48027">
        <ele>16.3</ele>
        <time>2011-04-05T18:11:25Z</time>
      </trkpt>
      <trkpt lat="48.57401" lon="-4.48027">
        <ele>16.3</ele>
        <time>2011-04-05T18:11:42Z</time>
      </trkpt>
      <trkpt lat="48.57397" lon="-4.48063">
        <ele>5.1</ele>
        <time>2011-04-05T18:11:43Z</time>
      </trkpt>
      <trkpt lat="48.57396" lon="-4.48065">
        <ele>4.6</ele>
        <time>2011-04-05T18:11:45Z</time>
      </trkpt>
      <trkpt lat="48.57395" lon="-4.48069">
        <ele>5.6</ele>
        <time>2011-04-05T18:11:46Z</time>
      </trkpt>
      <trkpt lat="48.57395" lon="-4.48072">
        <ele>6.2</ele>
        <time>2011-04-05T18:11:47Z</time>
      </trkpt>
      <trkpt lat="48.57395" lon="-4.48074">
        <ele>6.1</ele>
        <time>2011-04-05T18:11:47Z</time>
      </trkpt>
      <trkpt lat="48.57394" lon="-4.48076">
        <ele>6.3</ele>
        <time>2011-04-05T18:11:49Z</time>
      </trkpt>
      <trkpt lat="48.57394" lon="-4.48077">
        <ele>6.1</ele>
        <time>2011-04-05T18:11:50Z</time>
      </trkpt>
      <trkpt lat="48.57393" lon="-4.4808">
        <ele>7.3</ele>
        <time>2011-04-05T18:11:51Z</time>
      </trkpt>
      <trkpt lat="48.57392" lon="-4.48082">
        <ele>7.7</ele>
        <time>2011-04-05T18:11:52Z</time>
      </trkpt>
      <trkpt lat="48.57393" lon="-4.48085">
        <ele>7.2</ele>
        <time>2011-04-05T18:11:52Z</time>
      </trkpt>
      <trkpt lat="48.57393" lon="-4.48086">
        <ele>6.2</ele>
        <time>2011-04-05T18:11:54Z</time>
      </trkpt>
      <trkpt lat="48.57393" lon="-4.48088">
        <ele>5.6</ele>
        <time>2011-04-05T18:11:55Z</time>
      </trkpt>
      <trkpt lat="48.57393" lon="-4.48088">
        <ele>5.6</ele>
        <time>2011-04-05T18:11:55Z</time>
      </trkpt>
      <trkpt lat="48.57392" lon="-4.4809">
        <ele>5.9</ele>
        <time>2011-04-05T18:11:56Z</time>
      </trkpt>
      <trkpt lat="48.57391" lon="-4.48093">
        <ele>6.6</ele>
        <time>2011-04-05T18:11:58Z</time>
      </trkpt>
      <trkpt lat="48.5739" lon="-4.48096">
        <ele>7.8</ele>
        <time>2011-04-05T18:11:58Z</time>
      </trkpt>
      <trkpt lat="48.5739" lon="-4.48098">
        <ele>6.2</ele>
        <time>2011-04-05T18:12:00Z</time>
      </trkpt>
      <trkpt lat="48.57389" lon="-4.481">
        <ele>5.6</ele>
        <time>2011-04-05T18:12:01Z</time>
      </trkpt>
      <trkpt lat="48.57389" lon="-4.48103">
        <ele>5.4</ele>
        <time>2011-04-05T18:12:02Z</time>
      </trkpt>
      <trkpt lat="48.57388" lon="-4.48105">
        <ele>5</ele>
        <time>2011-04-05T18:12:03Z</time>
      </trkpt>
      <trkpt lat="48.57388" lon="-4.48109">
        <ele>6.8</ele>
        <time>2011-04-05T18:12:04Z</time>
      </trkpt>
      <trkpt lat="48.57387" lon="-4.4811">
        <ele>6</ele>
        <time>2011-04-05T18:12:05Z</time>
      </trkpt>
      <trkpt lat="48.57388" lon="-4.48112">
        <ele>6</ele>
        <time>2011-04-05T18:12:06Z</time>
      </trkpt>
      <trkpt lat="48.57387" lon="-4.48114">
        <ele>6.4</ele>
        <time>2011-04-05T18:12:07Z</time>
      </trkpt>
      <trkpt lat="48.57387" lon="-4.48114">
        <ele>6.4</ele>
        <time>2011-04-05T18:12:30Z</time>
      </trkpt>
      <trkpt lat="48.57382" lon="-4.48134">
        <ele>10</ele>
        <time>2011-04-05T18:12:31Z</time>
      </trkpt>
      <trkpt lat="48.57383" lon="-4.48133">
        <ele>10.2</ele>
        <time>2011-04-05T18:12:33Z</time>
      </trkpt>
      <trkpt lat="48.57383" lon="-4.48131">
        <ele>10.2</ele>
        <time>2011-04-05T18:12:33Z</time>
      </trkpt>
      <trkpt lat="48.57383" lon="-4.48129">
        <ele>9</ele>
        <time>2011-04-05T18:12:35Z</time>
      </trkpt>
      <trkpt lat="48.57383" lon="-4.48129">
        <ele>9</ele>
        <time>2011-04-05T18:12:36Z</time>
      </trkpt>
      <trkpt lat="48.57385" lon="-4.48122">
        <ele>7.3</ele>
        <time>2011-04-05T18:12:38Z</time>
      </trkpt>
      <trkpt lat="48.57386" lon="-4.48122">
        <ele>7</ele>
        <time>2011-04-05T18:12:39Z</time>
      </trkpt>
      <trkpt lat="48.57388" lon="-4.48123">
        <ele>6.7</ele>
        <time>2011-04-05T18:12:41Z</time>
      </trkpt>
      <trkpt lat="48.57389" lon="-4.48124">
        <ele>6.4</ele>
        <time>2011-04-05T18:12:42Z</time>
      </trkpt>
      <trkpt lat="48.5739" lon="-4.48125">
        <ele>6.7</ele>
        <time>2011-04-05T18:12:43Z</time>
      </trkpt>
      <trkpt lat="48.57392" lon="-4.48128">
        <ele>5.3</ele>
        <time>2011-04-05T18:12:44Z</time>
      </trkpt>
      <trkpt lat="48.57394" lon="-4.4813">
        <ele>4.9</ele>
        <time>2011-04-05T18:12:45Z</time>
      </trkpt>
      <trkpt lat="48.57396" lon="-4.48131">
        <ele>4.1</ele>
        <time>2011-04-05T18:12:46Z</time>
      </trkpt>
      <trkpt lat="48.57397" lon="-4.48132">
        <ele>4.7</ele>
        <time>2011-04-05T18:12:47Z</time>
      </trkpt>
      <trkpt lat="48.57397" lon="-4.48132">
        <ele>4.7</ele>
        <time>2011-04-05T18:12:47Z</time>
      </trkpt>
      <trkpt lat="48.57399" lon="-4.48135">
        <ele>4.5</ele>
        <time>2011-04-05T18:12:48Z</time>
      </trkpt>
      <trkpt lat="48.574" lon="-4.48137">
        <ele>3.17</ele>
        <time>2011-04-05T18:12:50Z</time>
      </trkpt>
      <trkpt lat="48.57402" lon="-4.48139">
        <ele>3.43</ele>
        <time>2011-04-05T18:12:52Z</time>
      </trkpt>
      <trkpt lat="48.57404" lon="-4.48141">
        <ele>5.7</ele>
        <time>2011-04-05T18:12:54Z</time>
      </trkpt>
      <trkpt lat="48.57405" lon="-4.48143">
        <ele>6.6</ele>
        <time>2011-04-05T18:12:55Z</time>
      </trkpt>
      <trkpt lat="48.57405" lon="-4.48143">
        <ele>6.6</ele>
        <time>2011-04-05T18:13:04Z</time>
      </trkpt>
      <trkpt lat="48.57415" lon="-4.48161">
        <ele>15.7</ele>
        <time>2011-04-05T18:13:05Z</time>
      </trkpt>
      <trkpt lat="48.57415" lon="-4.48162">
        <ele>14.6</ele>
        <time>2011-04-05T18:13:07Z</time>
      </trkpt>
      <trkpt lat="48.57415" lon="-4.48164">
        <ele>13.6</ele>
        <time>2011-04-05T18:13:07Z</time>
      </trkpt>
      <trkpt lat="48.57415" lon="-4.48166">
        <ele>13.6</ele>
        <time>2011-04-05T18:13:09Z</time>
      </trkpt>
      <trkpt lat="48.57415" lon="-4.48166">
        <ele>13.6</ele>
        <time>2011-04-05T18:13:26Z</time>
      </trkpt>
      <trkpt lat="48.57429" lon="-4.48201">
        <ele>22.7</ele>
        <time>2011-04-05T18:13:27Z</time>
      </trkpt>
      <trkpt lat="48.57429" lon="-4.48203">
        <ele>22.4</ele>
        <time>2011-04-05T18:13:29Z</time>
      </trkpt>
      <trkpt lat="48.57429" lon="-4.48205">
        <ele>22.5</ele>
        <time>2011-04-05T18:13:30Z</time>
      </trkpt>
      <trkpt lat="48.5743" lon="-4.48207">
        <ele>22.1</ele>
        <time>2011-04-05T18:13:31Z</time>
      </trkpt>
      <trkpt lat="48.5743" lon="-4.48207">
        <ele>22.1</ele>
        <time>2011-04-05T18:13:50Z</time>
      </trkpt>
      <trkpt lat="48.5745" lon="-4.48236">
        <ele>19.7</ele>
        <time>2011-04-05T18:13:51Z</time>
      </trkpt>
      <trkpt lat="48.57451" lon="-4.48237">
        <ele>19.5</ele>
        <time>2011-04-05T18:13:53Z</time>
      </trkpt>
      <trkpt lat="48.57453" lon="-4.48238">
        <ele>20.1</ele>
        <time>2011-04-05T18:13:54Z</time>
      </trkpt>
      <trkpt lat="48.57454" lon="-4.48239">
        <ele>20</ele>
        <time>2011-04-05T18:13:55Z</time>
      </trkpt>
      <trkpt lat="48.57454" lon="-4.48239">
        <ele>20</ele>
        <time>2011-04-05T18:14:08Z</time>
      </trkpt>
      <trkpt lat="48.57475" lon="-4.48238">
        <ele>20.37</ele>
        <time>2011-04-05T18:14:10Z</time>
      </trkpt>
      <trkpt lat="48.57475" lon="-4.48236">
        <ele>18.8</ele>
        <time>2011-04-05T18:14:11Z</time>
      </trkpt>
      <trkpt lat="48.57477" lon="-4.48236">
        <ele>18.3</ele>
        <time>2011-04-05T18:14:12Z</time>
      </trkpt>
      <trkpt lat="48.57477" lon="-4.48236">
        <ele>18.3</ele>
        <time>2011-04-05T18:14:13Z</time>
      </trkpt>
      <trkpt lat="48.5748" lon="-4.48237">
        <ele>18.3</ele>
        <time>2011-04-05T18:14:14Z</time>
      </trkpt>
      <trkpt lat="48.57482" lon="-4.48238">
        <ele>17.1</ele>
        <time>2011-04-05T18:14:16Z</time>
      </trkpt>
      <trkpt lat="48.57483" lon="-4.48238">
        <ele>17</ele>
        <time>2011-04-05T18:14:17Z</time>
      </trkpt>
      <trkpt lat="48.57485" lon="-4.48237">
        <ele>16.7</ele>
        <time>2011-04-05T18:14:17Z</time>
      </trkpt>
      <trkpt lat="48.57486" lon="-4.48235">
        <ele>17.1</ele>
        <time>2011-04-05T18:14:19Z</time>
      </trkpt>
      <trkpt lat="48.57486" lon="-4.48235">
        <ele>17.1</ele>
        <time>2011-04-05T18:14:44Z</time>
      </trkpt>
      <trkpt lat="48.57497" lon="-4.48198">
        <ele>20.35</ele>
        <time>2011-04-05T18:14:46Z</time>
      </trkpt>
      <trkpt lat="48.57497" lon="-4.48198">
        <ele>20.35</ele>
        <time>2011-04-05T18:14:48Z</time>
      </trkpt>
      <trkpt lat="48.57498" lon="-4.48198">
        <ele>20.4</ele>
        <time>2011-04-05T18:16:15Z</time>
      </trkpt>
    </trkseg>
  </trk>
</gpx>